Files
intotheeast-com-content/pages/01.trips/denmark-2026/lodbjerg-shelterplads-to-cold-hawaii.gpx
T

30398 lines
1002 KiB
XML

<?xml version='1.0' encoding='UTF-8'?>
<gpx version="1.1" creator="https://www.komoot.de" xmlns="http://www.topografix.com/GPX/1/1" xmlns:xsi="http://www.w3.org/2001/XMLSchema-instance" xsi:schemaLocation="http://www.topografix.com/GPX/1/1 http://www.topografix.com/GPX/1/1/gpx.xsd">
<metadata>
<name>Lodbjerg Shelterplads to Cold Hawaii</name>
<author>
<link href="https://www.komoot.de">
<text>komoot</text>
<type>text/html</type>
</link>
</author>
</metadata>
<trk>
<name>Lodbjerg Shelterplads to Cold Hawaii</name>
<type>racebike</type>
<trkseg>
<trkpt lat="56.823276" lon="8.263335">
<ele>24.388511</ele>
<time>2026-07-14T08:45:01.000Z</time>
</trkpt>
<trkpt lat="56.823243" lon="8.263322">
<ele>24.388511</ele>
<time>2026-07-14T08:45:02.000Z</time>
</trkpt>
<trkpt lat="56.823212" lon="8.263310">
<ele>24.388511</ele>
<time>2026-07-14T08:45:03.000Z</time>
</trkpt>
<trkpt lat="56.823191" lon="8.263304">
<ele>24.388511</ele>
<time>2026-07-14T08:45:04.000Z</time>
</trkpt>
<trkpt lat="56.823167" lon="8.263295">
<ele>24.388511</ele>
<time>2026-07-14T08:45:05.000Z</time>
</trkpt>
<trkpt lat="56.823144" lon="8.263287">
<ele>24.388511</ele>
<time>2026-07-14T08:45:06.000Z</time>
</trkpt>
<trkpt lat="56.823104" lon="8.263278">
<ele>24.388511</ele>
<time>2026-07-14T08:45:07.000Z</time>
</trkpt>
<trkpt lat="56.823064" lon="8.263270">
<ele>24.388511</ele>
<time>2026-07-14T08:45:08.000Z</time>
</trkpt>
<trkpt lat="56.823036" lon="8.263261">
<ele>24.388511</ele>
<time>2026-07-14T08:45:09.000Z</time>
</trkpt>
<trkpt lat="56.823005" lon="8.263250">
<ele>24.388511</ele>
<time>2026-07-14T08:45:10.000Z</time>
</trkpt>
<trkpt lat="56.822974" lon="8.263242">
<ele>24.388511</ele>
<time>2026-07-14T08:45:11.000Z</time>
</trkpt>
<trkpt lat="56.822934" lon="8.263236">
<ele>24.388511</ele>
<time>2026-07-14T08:45:12.000Z</time>
</trkpt>
<trkpt lat="56.822902" lon="8.263231">
<ele>24.388511</ele>
<time>2026-07-14T08:45:13.000Z</time>
</trkpt>
<trkpt lat="56.822870" lon="8.263228">
<ele>24.388511</ele>
<time>2026-07-14T08:45:14.000Z</time>
</trkpt>
<trkpt lat="56.822853" lon="8.263227">
<ele>24.388511</ele>
<time>2026-07-14T08:45:15.000Z</time>
</trkpt>
<trkpt lat="56.822851" lon="8.263226">
<ele>24.388511</ele>
<time>2026-07-14T08:45:16.000Z</time>
</trkpt>
<trkpt lat="56.822849" lon="8.263226">
<ele>24.388511</ele>
<time>2026-07-14T08:45:17.000Z</time>
</trkpt>
<trkpt lat="56.822849" lon="8.263226">
<ele>24.388511</ele>
<time>2026-07-14T08:45:18.000Z</time>
</trkpt>
<trkpt lat="56.822834" lon="8.263240">
<ele>24.388511</ele>
<time>2026-07-14T08:45:23.000Z</time>
</trkpt>
<trkpt lat="56.822824" lon="8.263246">
<ele>24.388511</ele>
<time>2026-07-14T08:45:24.000Z</time>
</trkpt>
<trkpt lat="56.822799" lon="8.263258">
<ele>24.388511</ele>
<time>2026-07-14T08:45:25.000Z</time>
</trkpt>
<trkpt lat="56.822784" lon="8.263265">
<ele>24.388511</ele>
<time>2026-07-14T08:45:26.000Z</time>
</trkpt>
<trkpt lat="56.822743" lon="8.263282">
<ele>24.388511</ele>
<time>2026-07-14T08:45:27.000Z</time>
</trkpt>
<trkpt lat="56.822724" lon="8.263291">
<ele>24.388511</ele>
<time>2026-07-14T08:45:28.000Z</time>
</trkpt>
<trkpt lat="56.822699" lon="8.263307">
<ele>24.388511</ele>
<time>2026-07-14T08:45:29.000Z</time>
</trkpt>
<trkpt lat="56.822665" lon="8.263324">
<ele>24.388511</ele>
<time>2026-07-14T08:45:30.000Z</time>
</trkpt>
<trkpt lat="56.822627" lon="8.263343">
<ele>24.388511</ele>
<time>2026-07-14T08:45:31.000Z</time>
</trkpt>
<trkpt lat="56.822589" lon="8.263365">
<ele>24.388511</ele>
<time>2026-07-14T08:45:32.000Z</time>
</trkpt>
<trkpt lat="56.822554" lon="8.263387">
<ele>24.388511</ele>
<time>2026-07-14T08:45:33.000Z</time>
</trkpt>
<trkpt lat="56.822516" lon="8.263415">
<ele>24.388511</ele>
<time>2026-07-14T08:45:34.000Z</time>
</trkpt>
<trkpt lat="56.822475" lon="8.263442">
<ele>24.388511</ele>
<time>2026-07-14T08:45:35.000Z</time>
</trkpt>
<trkpt lat="56.822420" lon="8.263470">
<ele>24.388511</ele>
<time>2026-07-14T08:45:36.000Z</time>
</trkpt>
<trkpt lat="56.822354" lon="8.263501">
<ele>24.246812</ele>
<time>2026-07-14T08:45:37.000Z</time>
</trkpt>
<trkpt lat="56.822311" lon="8.263523">
<ele>24.122005</ele>
<time>2026-07-14T08:45:38.000Z</time>
</trkpt>
<trkpt lat="56.822275" lon="8.263544">
<ele>24.016382</ele>
<time>2026-07-14T08:45:39.000Z</time>
</trkpt>
<trkpt lat="56.822242" lon="8.263567">
<ele>23.917666</ele>
<time>2026-07-14T08:45:40.000Z</time>
</trkpt>
<trkpt lat="56.822202" lon="8.263606">
<ele>23.790947</ele>
<time>2026-07-14T08:45:41.000Z</time>
</trkpt>
<trkpt lat="56.822172" lon="8.263647">
<ele>23.686240</ele>
<time>2026-07-14T08:45:42.000Z</time>
</trkpt>
<trkpt lat="56.822143" lon="8.263695">
<ele>23.576878</ele>
<time>2026-07-14T08:45:43.000Z</time>
</trkpt>
<trkpt lat="56.822119" lon="8.263745">
<ele>23.475150</ele>
<time>2026-07-14T08:45:44.000Z</time>
</trkpt>
<trkpt lat="56.822086" lon="8.263841">
<ele>23.301749</ele>
<time>2026-07-14T08:45:45.000Z</time>
</trkpt>
<trkpt lat="56.822053" lon="8.263946">
<ele>23.116545</ele>
<time>2026-07-14T08:45:46.000Z</time>
</trkpt>
<trkpt lat="56.822032" lon="8.264030">
<ele>22.975292</ele>
<time>2026-07-14T08:45:47.000Z</time>
</trkpt>
<trkpt lat="56.822014" lon="8.264121">
<ele>22.827290</ele>
<time>2026-07-14T08:45:48.000Z</time>
</trkpt>
<trkpt lat="56.821997" lon="8.264204">
<ele>22.691737</ele>
<time>2026-07-14T08:45:49.000Z</time>
</trkpt>
<trkpt lat="56.821979" lon="8.264294">
<ele>22.545172</ele>
<time>2026-07-14T08:45:50.000Z</time>
</trkpt>
<trkpt lat="56.821961" lon="8.264380">
<ele>22.404339</ele>
<time>2026-07-14T08:45:51.000Z</time>
</trkpt>
<trkpt lat="56.821944" lon="8.264468">
<ele>22.261598</ele>
<time>2026-07-14T08:45:52.000Z</time>
</trkpt>
<trkpt lat="56.821926" lon="8.264567">
<ele>22.102034</ele>
<time>2026-07-14T08:45:53.000Z</time>
</trkpt>
<trkpt lat="56.821909" lon="8.264660">
<ele>21.952060</ele>
<time>2026-07-14T08:45:54.000Z</time>
</trkpt>
<trkpt lat="56.821894" lon="8.264747">
<ele>21.812541</ele>
<time>2026-07-14T08:45:55.000Z</time>
</trkpt>
<trkpt lat="56.821877" lon="8.264832">
<ele>21.674119</ele>
<time>2026-07-14T08:45:56.000Z</time>
</trkpt>
<trkpt lat="56.821841" lon="8.264971">
<ele>21.438903</ele>
<time>2026-07-14T08:45:57.000Z</time>
</trkpt>
<trkpt lat="56.821792" lon="8.265136">
<ele>21.151761</ele>
<time>2026-07-14T08:45:58.000Z</time>
</trkpt>
<trkpt lat="56.821761" lon="8.265231">
<ele>20.982582</ele>
<time>2026-07-14T08:45:59.000Z</time>
</trkpt>
<trkpt lat="56.821729" lon="8.265330">
<ele>20.806714</ele>
<time>2026-07-14T08:46:00.000Z</time>
</trkpt>
<trkpt lat="56.821694" lon="8.265428">
<ele>20.627720</ele>
<time>2026-07-14T08:46:01.000Z</time>
</trkpt>
<trkpt lat="56.821660" lon="8.265519">
<ele>20.459184</ele>
<time>2026-07-14T08:46:02.000Z</time>
</trkpt>
<trkpt lat="56.821628" lon="8.265604">
<ele>20.301378</ele>
<time>2026-07-14T08:46:03.000Z</time>
</trkpt>
<trkpt lat="56.821593" lon="8.265688">
<ele>20.139892</ele>
<time>2026-07-14T08:46:04.000Z</time>
</trkpt>
<trkpt lat="56.821557" lon="8.265771">
<ele>19.977899</ele>
<time>2026-07-14T08:46:05.000Z</time>
</trkpt>
<trkpt lat="56.821523" lon="8.265854">
<ele>19.819318</ele>
<time>2026-07-14T08:46:06.000Z</time>
</trkpt>
<trkpt lat="56.821486" lon="8.265941">
<ele>19.650786</ele>
<time>2026-07-14T08:46:07.000Z</time>
</trkpt>
<trkpt lat="56.821448" lon="8.266034">
<ele>19.473260</ele>
<time>2026-07-14T08:46:08.000Z</time>
</trkpt>
<trkpt lat="56.821408" lon="8.266126">
<ele>19.324704</ele>
<time>2026-07-14T08:46:09.000Z</time>
</trkpt>
<trkpt lat="56.821364" lon="8.266216">
<ele>19.225030</ele>
<time>2026-07-14T08:46:10.000Z</time>
</trkpt>
<trkpt lat="56.821320" lon="8.266306">
<ele>19.125356</ele>
<time>2026-07-14T08:46:11.000Z</time>
</trkpt>
<trkpt lat="56.821276" lon="8.266400">
<ele>19.023194</ele>
<time>2026-07-14T08:46:12.000Z</time>
</trkpt>
<trkpt lat="56.821232" lon="8.266499">
<ele>18.917859</ele>
<time>2026-07-14T08:46:13.000Z</time>
</trkpt>
<trkpt lat="56.821190" lon="8.266595">
<ele>18.816348</ele>
<time>2026-07-14T08:46:14.000Z</time>
</trkpt>
<trkpt lat="56.821151" lon="8.266688">
<ele>18.719579</ele>
<time>2026-07-14T08:46:15.000Z</time>
</trkpt>
<trkpt lat="56.821112" lon="8.266777">
<ele>18.625411</ele>
<time>2026-07-14T08:46:16.000Z</time>
</trkpt>
<trkpt lat="56.821076" lon="8.266861">
<ele>18.537291</ele>
<time>2026-07-14T08:46:17.000Z</time>
</trkpt>
<trkpt lat="56.821038" lon="8.266945">
<ele>18.447278</ele>
<time>2026-07-14T08:46:18.000Z</time>
</trkpt>
<trkpt lat="56.821000" lon="8.267030">
<ele>18.356628</ele>
<time>2026-07-14T08:46:19.000Z</time>
</trkpt>
<trkpt lat="56.820966" lon="8.267111">
<ele>18.272315</ele>
<time>2026-07-14T08:46:20.000Z</time>
</trkpt>
<trkpt lat="56.820929" lon="8.267193">
<ele>18.184537</ele>
<time>2026-07-14T08:46:21.000Z</time>
</trkpt>
<trkpt lat="56.820891" lon="8.267279">
<ele>18.093245</ele>
<time>2026-07-14T08:46:22.000Z</time>
</trkpt>
<trkpt lat="56.820857" lon="8.267363">
<ele>18.006953</ele>
<time>2026-07-14T08:46:23.000Z</time>
</trkpt>
<trkpt lat="56.820824" lon="8.267439">
<ele>17.926825</ele>
<time>2026-07-14T08:46:24.000Z</time>
</trkpt>
<trkpt lat="56.820790" lon="8.267513">
<ele>17.847022</ele>
<time>2026-07-14T08:46:25.000Z</time>
</trkpt>
<trkpt lat="56.820758" lon="8.267589">
<ele>17.767822</ele>
<time>2026-07-14T08:46:26.000Z</time>
</trkpt>
<trkpt lat="56.820725" lon="8.267667">
<ele>17.686393</ele>
<time>2026-07-14T08:46:27.000Z</time>
</trkpt>
<trkpt lat="56.820691" lon="8.267747">
<ele>17.602734</ele>
<time>2026-07-14T08:46:28.000Z</time>
</trkpt>
<trkpt lat="56.820657" lon="8.267825">
<ele>17.520373</ele>
<time>2026-07-14T08:46:29.000Z</time>
</trkpt>
<trkpt lat="56.820622" lon="8.267905">
<ele>17.435780</ele>
<time>2026-07-14T08:46:30.000Z</time>
</trkpt>
<trkpt lat="56.820586" lon="8.267985">
<ele>17.350236</ele>
<time>2026-07-14T08:46:31.000Z</time>
</trkpt>
<trkpt lat="56.820546" lon="8.268068">
<ele>17.258892</ele>
<time>2026-07-14T08:46:32.000Z</time>
</trkpt>
<trkpt lat="56.820504" lon="8.268156">
<ele>17.162452</ele>
<time>2026-07-14T08:46:33.000Z</time>
</trkpt>
<trkpt lat="56.820466" lon="8.268242">
<ele>17.071160</ele>
<time>2026-07-14T08:46:34.000Z</time>
</trkpt>
<trkpt lat="56.820434" lon="8.268325">
<ele>16.987303</ele>
<time>2026-07-14T08:46:35.000Z</time>
</trkpt>
<trkpt lat="56.820399" lon="8.268407">
<ele>16.901413</ele>
<time>2026-07-14T08:46:36.000Z</time>
</trkpt>
<trkpt lat="56.820363" lon="8.268492">
<ele>16.812641</ele>
<time>2026-07-14T08:46:37.000Z</time>
</trkpt>
<trkpt lat="56.820325" lon="8.268581">
<ele>16.719407</ele>
<time>2026-07-14T08:46:38.000Z</time>
</trkpt>
<trkpt lat="56.820283" lon="8.268675">
<ele>16.643241</ele>
<time>2026-07-14T08:46:39.000Z</time>
</trkpt>
<trkpt lat="56.820240" lon="8.268768">
<ele>16.630399</ele>
<time>2026-07-14T08:46:40.000Z</time>
</trkpt>
<trkpt lat="56.820201" lon="8.268856">
<ele>16.618454</ele>
<time>2026-07-14T08:46:41.000Z</time>
</trkpt>
<trkpt lat="56.820160" lon="8.268940">
<ele>16.606582</ele>
<time>2026-07-14T08:46:42.000Z</time>
</trkpt>
<trkpt lat="56.820117" lon="8.269028">
<ele>16.594138</ele>
<time>2026-07-14T08:46:43.000Z</time>
</trkpt>
<trkpt lat="56.820073" lon="8.269118">
<ele>16.581409</ele>
<time>2026-07-14T08:46:44.000Z</time>
</trkpt>
<trkpt lat="56.820027" lon="8.269215">
<ele>16.567870</ele>
<time>2026-07-14T08:46:45.000Z</time>
</trkpt>
<trkpt lat="56.819981" lon="8.269313">
<ele>16.554252</ele>
<time>2026-07-14T08:46:46.000Z</time>
</trkpt>
<trkpt lat="56.819939" lon="8.269405">
<ele>16.541615</ele>
<time>2026-07-14T08:46:47.000Z</time>
</trkpt>
<trkpt lat="56.819899" lon="8.269492">
<ele>16.529629</ele>
<time>2026-07-14T08:46:48.000Z</time>
</trkpt>
<trkpt lat="56.819859" lon="8.269583">
<ele>16.517318</ele>
<time>2026-07-14T08:46:49.000Z</time>
</trkpt>
<trkpt lat="56.819817" lon="8.269674">
<ele>16.504761</ele>
<time>2026-07-14T08:46:50.000Z</time>
</trkpt>
<trkpt lat="56.819775" lon="8.269763">
<ele>16.492365</ele>
<time>2026-07-14T08:46:51.000Z</time>
</trkpt>
<trkpt lat="56.819733" lon="8.269858">
<ele>16.479483</ele>
<time>2026-07-14T08:46:52.000Z</time>
</trkpt>
<trkpt lat="56.819691" lon="8.269954">
<ele>16.466519</ele>
<time>2026-07-14T08:46:53.000Z</time>
</trkpt>
<trkpt lat="56.819651" lon="8.270047">
<ele>16.454042</ele>
<time>2026-07-14T08:46:54.000Z</time>
</trkpt>
<trkpt lat="56.819609" lon="8.270139">
<ele>16.441405</ele>
<time>2026-07-14T08:46:55.000Z</time>
</trkpt>
<trkpt lat="56.819565" lon="8.270233">
<ele>16.428358</ele>
<time>2026-07-14T08:46:56.000Z</time>
</trkpt>
<trkpt lat="56.819521" lon="8.270327">
<ele>16.415310</ele>
<time>2026-07-14T08:46:57.000Z</time>
</trkpt>
<trkpt lat="56.819480" lon="8.270419">
<ele>16.402796</ele>
<time>2026-07-14T08:46:58.000Z</time>
</trkpt>
<trkpt lat="56.819443" lon="8.270512">
<ele>16.390667</ele>
<time>2026-07-14T08:46:59.000Z</time>
</trkpt>
<trkpt lat="56.819409" lon="8.270601">
<ele>16.379219</ele>
<time>2026-07-14T08:47:00.000Z</time>
</trkpt>
<trkpt lat="56.819373" lon="8.270689">
<ele>16.367630</ele>
<time>2026-07-14T08:47:01.000Z</time>
</trkpt>
<trkpt lat="56.819333" lon="8.270778">
<ele>16.355482</ele>
<time>2026-07-14T08:47:02.000Z</time>
</trkpt>
<trkpt lat="56.819295" lon="8.270863">
<ele>16.343904</ele>
<time>2026-07-14T08:47:03.000Z</time>
</trkpt>
<trkpt lat="56.819260" lon="8.270946">
<ele>16.332852</ele>
<time>2026-07-14T08:47:04.000Z</time>
</trkpt>
<trkpt lat="56.819222" lon="8.271033">
<ele>16.321111</ele>
<time>2026-07-14T08:47:05.000Z</time>
</trkpt>
<trkpt lat="56.819182" lon="8.271118">
<ele>16.309286</ele>
<time>2026-07-14T08:47:06.000Z</time>
</trkpt>
<trkpt lat="56.819142" lon="8.271205">
<ele>16.299235</ele>
<time>2026-07-14T08:47:07.000Z</time>
</trkpt>
<trkpt lat="56.819100" lon="8.271283">
<ele>16.295683</ele>
<time>2026-07-14T08:47:08.000Z</time>
</trkpt>
<trkpt lat="56.819058" lon="8.271350">
<ele>16.292376</ele>
<time>2026-07-14T08:47:09.000Z</time>
</trkpt>
<trkpt lat="56.819021" lon="8.271408">
<ele>16.289484</ele>
<time>2026-07-14T08:47:10.000Z</time>
</trkpt>
<trkpt lat="56.818990" lon="8.271454">
<ele>16.287115</ele>
<time>2026-07-14T08:47:11.000Z</time>
</trkpt>
<trkpt lat="56.818965" lon="8.271494">
<ele>16.285145</ele>
<time>2026-07-14T08:47:12.000Z</time>
</trkpt>
<trkpt lat="56.818948" lon="8.271531">
<ele>16.283576</ele>
<time>2026-07-14T08:47:13.000Z</time>
</trkpt>
<trkpt lat="56.818945" lon="8.271557">
<ele>16.282714</ele>
<time>2026-07-14T08:47:14.000Z</time>
</trkpt>
<trkpt lat="56.818951" lon="8.271568">
<ele>16.282210</ele>
<time>2026-07-14T08:47:15.000Z</time>
</trkpt>
<trkpt lat="56.818959" lon="8.271565">
<ele>16.281725</ele>
<time>2026-07-14T08:47:16.000Z</time>
</trkpt>
<trkpt lat="56.818966" lon="8.271549">
<ele>16.281060</ele>
<time>2026-07-14T08:47:17.000Z</time>
</trkpt>
<trkpt lat="56.818976" lon="8.271522">
<ele>16.280002</ele>
<time>2026-07-14T08:47:18.000Z</time>
</trkpt>
<trkpt lat="56.818987" lon="8.271488">
<ele>16.278720</ele>
<time>2026-07-14T08:47:19.000Z</time>
</trkpt>
<trkpt lat="56.818999" lon="8.271451">
<ele>16.277324</ele>
<time>2026-07-14T08:47:20.000Z</time>
</trkpt>
<trkpt lat="56.819014" lon="8.271414">
<ele>16.275829</ele>
<time>2026-07-14T08:47:21.000Z</time>
</trkpt>
<trkpt lat="56.819031" lon="8.271376">
<ele>16.274236</ele>
<time>2026-07-14T08:47:22.000Z</time>
</trkpt>
<trkpt lat="56.819044" lon="8.271341">
<ele>16.272863</ele>
<time>2026-07-14T08:47:23.000Z</time>
</trkpt>
<trkpt lat="56.819058" lon="8.271309">
<ele>16.271533</ele>
<time>2026-07-14T08:47:24.000Z</time>
</trkpt>
<trkpt lat="56.819071" lon="8.271278">
<ele>16.270265</ele>
<time>2026-07-14T08:47:25.000Z</time>
</trkpt>
<trkpt lat="56.819085" lon="8.271245">
<ele>16.268910</ele>
<time>2026-07-14T08:47:26.000Z</time>
</trkpt>
<trkpt lat="56.819102" lon="8.271208">
<ele>16.267342</ele>
<time>2026-07-14T08:47:27.000Z</time>
</trkpt>
<trkpt lat="56.819121" lon="8.271170">
<ele>16.265671</ele>
<time>2026-07-14T08:47:28.000Z</time>
</trkpt>
<trkpt lat="56.819138" lon="8.271134">
<ele>16.264127</ele>
<time>2026-07-14T08:47:29.000Z</time>
</trkpt>
<trkpt lat="56.819155" lon="8.271099">
<ele>16.262608</ele>
<time>2026-07-14T08:47:30.000Z</time>
</trkpt>
<trkpt lat="56.819172" lon="8.271069">
<ele>16.261207</ele>
<time>2026-07-14T08:47:31.000Z</time>
</trkpt>
<trkpt lat="56.819188" lon="8.271042">
<ele>16.259915</ele>
<time>2026-07-14T08:47:32.000Z</time>
</trkpt>
<trkpt lat="56.819205" lon="8.271012">
<ele>16.258513</ele>
<time>2026-07-14T08:47:33.000Z</time>
</trkpt>
<trkpt lat="56.819222" lon="8.270983">
<ele>16.257133</ele>
<time>2026-07-14T08:47:34.000Z</time>
</trkpt>
<trkpt lat="56.819237" lon="8.270953">
<ele>16.255814</ele>
<time>2026-07-14T08:47:35.000Z</time>
</trkpt>
<trkpt lat="56.819252" lon="8.270924">
<ele>16.254519</ele>
<time>2026-07-14T08:47:36.000Z</time>
</trkpt>
<trkpt lat="56.819268" lon="8.270896">
<ele>16.253205</ele>
<time>2026-07-14T08:47:37.000Z</time>
</trkpt>
<trkpt lat="56.819283" lon="8.270870">
<ele>16.251979</ele>
<time>2026-07-14T08:47:38.000Z</time>
</trkpt>
<trkpt lat="56.819292" lon="8.270853">
<ele>16.251211</ele>
<time>2026-07-14T08:47:39.000Z</time>
</trkpt>
<trkpt lat="56.819292" lon="8.270846">
<ele>16.250984</ele>
<time>2026-07-14T08:47:40.000Z</time>
</trkpt>
<trkpt lat="56.819290" lon="8.270849">
<ele>16.250830</ele>
<time>2026-07-14T08:47:41.000Z</time>
</trkpt>
<trkpt lat="56.819290" lon="8.270852">
<ele>16.250733</ele>
<time>2026-07-14T08:47:42.000Z</time>
</trkpt>
<trkpt lat="56.819290" lon="8.270852">
<ele>16.250733</ele>
<time>2026-07-14T08:47:43.000Z</time>
</trkpt>
<trkpt lat="56.819258" lon="8.270905">
<ele>16.248171</ele>
<time>2026-07-14T08:48:22.000Z</time>
</trkpt>
<trkpt lat="56.819244" lon="8.270947">
<ele>16.246575</ele>
<time>2026-07-14T08:48:23.000Z</time>
</trkpt>
<trkpt lat="56.819227" lon="8.270995">
<ele>16.244719</ele>
<time>2026-07-14T08:48:24.000Z</time>
</trkpt>
<trkpt lat="56.819206" lon="8.271044">
<ele>16.242699</ele>
<time>2026-07-14T08:48:25.000Z</time>
</trkpt>
<trkpt lat="56.819184" lon="8.271092">
<ele>16.240666</ele>
<time>2026-07-14T08:48:26.000Z</time>
</trkpt>
<trkpt lat="56.819163" lon="8.271140">
<ele>16.238672</ele>
<time>2026-07-14T08:48:27.000Z</time>
</trkpt>
<trkpt lat="56.819139" lon="8.271194">
<ele>16.236413</ele>
<time>2026-07-14T08:48:28.000Z</time>
</trkpt>
<trkpt lat="56.819113" lon="8.271249">
<ele>16.234054</ele>
<time>2026-07-14T08:48:29.000Z</time>
</trkpt>
<trkpt lat="56.819085" lon="8.271305">
<ele>16.231592</ele>
<time>2026-07-14T08:48:30.000Z</time>
</trkpt>
<trkpt lat="56.819055" lon="8.271359">
<ele>16.229094</ele>
<time>2026-07-14T08:48:31.000Z</time>
</trkpt>
<trkpt lat="56.819024" lon="8.271413">
<ele>16.226554</ele>
<time>2026-07-14T08:48:32.000Z</time>
</trkpt>
<trkpt lat="56.818993" lon="8.271474">
<ele>16.223852</ele>
<time>2026-07-14T08:48:33.000Z</time>
</trkpt>
<trkpt lat="56.818963" lon="8.271537">
<ele>16.221141</ele>
<time>2026-07-14T08:48:34.000Z</time>
</trkpt>
<trkpt lat="56.818930" lon="8.271601">
<ele>16.218287</ele>
<time>2026-07-14T08:48:35.000Z</time>
</trkpt>
<trkpt lat="56.818896" lon="8.271674">
<ele>16.215175</ele>
<time>2026-07-14T08:48:36.000Z</time>
</trkpt>
<trkpt lat="56.818860" lon="8.271749">
<ele>16.211937</ele>
<time>2026-07-14T08:48:37.000Z</time>
</trkpt>
<trkpt lat="56.818826" lon="8.271818">
<ele>16.208923</ele>
<time>2026-07-14T08:48:38.000Z</time>
</trkpt>
<trkpt lat="56.818795" lon="8.271883">
<ele>16.206124</ele>
<time>2026-07-14T08:48:39.000Z</time>
</trkpt>
<trkpt lat="56.818760" lon="8.271951">
<ele>16.203094</ele>
<time>2026-07-14T08:48:40.000Z</time>
</trkpt>
<trkpt lat="56.818723" lon="8.272029">
<ele>16.199743</ele>
<time>2026-07-14T08:48:41.000Z</time>
</trkpt>
<trkpt lat="56.818689" lon="8.272102">
<ele>16.196632</ele>
<time>2026-07-14T08:48:42.000Z</time>
</trkpt>
<trkpt lat="56.818652" lon="8.272177">
<ele>16.193080</ele>
<time>2026-07-14T08:48:43.000Z</time>
</trkpt>
<trkpt lat="56.818617" lon="8.272250">
<ele>16.175048</ele>
<time>2026-07-14T08:48:44.000Z</time>
</trkpt>
<trkpt lat="56.818580" lon="8.272333">
<ele>16.155158</ele>
<time>2026-07-14T08:48:45.000Z</time>
</trkpt>
<trkpt lat="56.818543" lon="8.272414">
<ele>16.135555</ele>
<time>2026-07-14T08:48:46.000Z</time>
</trkpt>
<trkpt lat="56.818504" lon="8.272492">
<ele>16.115925</ele>
<time>2026-07-14T08:48:47.000Z</time>
</trkpt>
<trkpt lat="56.818469" lon="8.272566">
<ele>16.097752</ele>
<time>2026-07-14T08:48:48.000Z</time>
</trkpt>
<trkpt lat="56.818434" lon="8.272640">
<ele>16.079580</ele>
<time>2026-07-14T08:48:49.000Z</time>
</trkpt>
<trkpt lat="56.818398" lon="8.272716">
<ele>16.060904</ele>
<time>2026-07-14T08:48:50.000Z</time>
</trkpt>
<trkpt lat="56.818365" lon="8.272787">
<ele>16.043597</ele>
<time>2026-07-14T08:48:51.000Z</time>
</trkpt>
<trkpt lat="56.818330" lon="8.272862">
<ele>16.025284</ele>
<time>2026-07-14T08:48:52.000Z</time>
</trkpt>
<trkpt lat="56.818293" lon="8.272949">
<ele>16.004812</ele>
<time>2026-07-14T08:48:53.000Z</time>
</trkpt>
<trkpt lat="56.818257" lon="8.273028">
<ele>15.985711</ele>
<time>2026-07-14T08:48:54.000Z</time>
</trkpt>
<trkpt lat="56.818223" lon="8.273103">
<ele>15.967616</ele>
<time>2026-07-14T08:48:55.000Z</time>
</trkpt>
<trkpt lat="56.818187" lon="8.273180">
<ele>15.948800</ele>
<time>2026-07-14T08:48:56.000Z</time>
</trkpt>
<trkpt lat="56.818153" lon="8.273255">
<ele>15.930705</ele>
<time>2026-07-14T08:48:57.000Z</time>
</trkpt>
<trkpt lat="56.818126" lon="8.273323">
<ele>15.915095</ele>
<time>2026-07-14T08:48:58.000Z</time>
</trkpt>
<trkpt lat="56.818099" lon="8.273392">
<ele>15.899335</ele>
<time>2026-07-14T08:48:59.000Z</time>
</trkpt>
<trkpt lat="56.818068" lon="8.273462">
<ele>15.882604</ele>
<time>2026-07-14T08:49:00.000Z</time>
</trkpt>
<trkpt lat="56.818039" lon="8.273527">
<ele>15.867022</ele>
<time>2026-07-14T08:49:01.000Z</time>
</trkpt>
<trkpt lat="56.818009" lon="8.273598">
<ele>15.850356</ele>
<time>2026-07-14T08:49:02.000Z</time>
</trkpt>
<trkpt lat="56.817984" lon="8.273663">
<ele>15.835594</ele>
<time>2026-07-14T08:49:03.000Z</time>
</trkpt>
<trkpt lat="56.817959" lon="8.273730">
<ele>15.820527</ele>
<time>2026-07-14T08:49:04.000Z</time>
</trkpt>
<trkpt lat="56.817930" lon="8.273790">
<ele>15.805654</ele>
<time>2026-07-14T08:49:05.000Z</time>
</trkpt>
<trkpt lat="56.817907" lon="8.273841">
<ele>15.793375</ele>
<time>2026-07-14T08:49:06.000Z</time>
</trkpt>
<trkpt lat="56.817894" lon="8.273882">
<ele>15.784571</ele>
<time>2026-07-14T08:49:07.000Z</time>
</trkpt>
<trkpt lat="56.817884" lon="8.273915">
<ele>15.777563</ele>
<time>2026-07-14T08:49:08.000Z</time>
</trkpt>
<trkpt lat="56.817874" lon="8.273939">
<ele>15.771958</ele>
<time>2026-07-14T08:49:09.000Z</time>
</trkpt>
<trkpt lat="56.817861" lon="8.273959">
<ele>15.766188</ele>
<time>2026-07-14T08:49:10.000Z</time>
</trkpt>
<trkpt lat="56.817836" lon="8.273987">
<ele>15.756233</ele>
<time>2026-07-14T08:49:11.000Z</time>
</trkpt>
<trkpt lat="56.817813" lon="8.274018">
<ele>15.746530</ele>
<time>2026-07-14T08:49:12.000Z</time>
</trkpt>
<trkpt lat="56.817792" lon="8.274052">
<ele>15.737005</ele>
<time>2026-07-14T08:49:13.000Z</time>
</trkpt>
<trkpt lat="56.817772" lon="8.274093">
<ele>15.726800</ele>
<time>2026-07-14T08:49:14.000Z</time>
</trkpt>
<trkpt lat="56.817748" lon="8.274147">
<ele>15.713875</ele>
<time>2026-07-14T08:49:15.000Z</time>
</trkpt>
<trkpt lat="56.817724" lon="8.274213">
<ele>15.699151</ele>
<time>2026-07-14T08:49:16.000Z</time>
</trkpt>
<trkpt lat="56.817705" lon="8.274276">
<ele>15.685786</ele>
<time>2026-07-14T08:49:17.000Z</time>
</trkpt>
<trkpt lat="56.817688" lon="8.274330">
<ele>15.674211</ele>
<time>2026-07-14T08:49:18.000Z</time>
</trkpt>
<trkpt lat="56.817674" lon="8.274377">
<ele>15.664268</ele>
<time>2026-07-14T08:49:19.000Z</time>
</trkpt>
<trkpt lat="56.817658" lon="8.274427">
<ele>15.653507</ele>
<time>2026-07-14T08:49:20.000Z</time>
</trkpt>
<trkpt lat="56.817637" lon="8.274475">
<ele>15.642089</ele>
<time>2026-07-14T08:49:21.000Z</time>
</trkpt>
<trkpt lat="56.817619" lon="8.274516">
<ele>15.632322</ele>
<time>2026-07-14T08:49:22.000Z</time>
</trkpt>
<trkpt lat="56.817600" lon="8.274559">
<ele>15.622054</ele>
<time>2026-07-14T08:49:23.000Z</time>
</trkpt>
<trkpt lat="56.817582" lon="8.274603">
<ele>15.611847</ele>
<time>2026-07-14T08:49:24.000Z</time>
</trkpt>
<trkpt lat="56.817564" lon="8.274651">
<ele>15.601035</ele>
<time>2026-07-14T08:49:25.000Z</time>
</trkpt>
<trkpt lat="56.817542" lon="8.274712">
<ele>15.587462</ele>
<time>2026-07-14T08:49:26.000Z</time>
</trkpt>
<trkpt lat="56.817523" lon="8.274780">
<ele>15.577894</ele>
<time>2026-07-14T08:49:27.000Z</time>
</trkpt>
<trkpt lat="56.817504" lon="8.274854">
<ele>15.570086</ele>
<time>2026-07-14T08:49:28.000Z</time>
</trkpt>
<trkpt lat="56.817481" lon="8.274930">
<ele>15.561789</ele>
<time>2026-07-14T08:49:29.000Z</time>
</trkpt>
<trkpt lat="56.817457" lon="8.275003">
<ele>15.553654</ele>
<time>2026-07-14T08:49:30.000Z</time>
</trkpt>
<trkpt lat="56.817436" lon="8.275074">
<ele>15.545944</ele>
<time>2026-07-14T08:49:31.000Z</time>
</trkpt>
<trkpt lat="56.817420" lon="8.275149">
<ele>15.538254</ele>
<time>2026-07-14T08:49:32.000Z</time>
</trkpt>
<trkpt lat="56.817407" lon="8.275216">
<ele>15.531463</ele>
<time>2026-07-14T08:49:33.000Z</time>
</trkpt>
<trkpt lat="56.817389" lon="8.275283">
<ele>15.524333</ele>
<time>2026-07-14T08:49:34.000Z</time>
</trkpt>
<trkpt lat="56.817370" lon="8.275352">
<ele>15.516954</ele>
<time>2026-07-14T08:49:35.000Z</time>
</trkpt>
<trkpt lat="56.817353" lon="8.275418">
<ele>15.509985</ele>
<time>2026-07-14T08:49:36.000Z</time>
</trkpt>
<trkpt lat="56.817335" lon="8.275482">
<ele>15.503111</ele>
<time>2026-07-14T08:49:37.000Z</time>
</trkpt>
<trkpt lat="56.817311" lon="8.275549">
<ele>15.495462</ele>
<time>2026-07-14T08:49:38.000Z</time>
</trkpt>
<trkpt lat="56.817289" lon="8.275610">
<ele>15.488483</ele>
<time>2026-07-14T08:49:39.000Z</time>
</trkpt>
<trkpt lat="56.817269" lon="8.275669">
<ele>15.481853</ele>
<time>2026-07-14T08:49:40.000Z</time>
</trkpt>
<trkpt lat="56.817249" lon="8.275732">
<ele>15.474895</ele>
<time>2026-07-14T08:49:41.000Z</time>
</trkpt>
<trkpt lat="56.817228" lon="8.275801">
<ele>15.467353</ele>
<time>2026-07-14T08:49:42.000Z</time>
</trkpt>
<trkpt lat="56.817203" lon="8.275869">
<ele>15.459527</ele>
<time>2026-07-14T08:49:43.000Z</time>
</trkpt>
<trkpt lat="56.817178" lon="8.275934">
<ele>15.451937</ele>
<time>2026-07-14T08:49:44.000Z</time>
</trkpt>
<trkpt lat="56.817154" lon="8.275999">
<ele>15.444447</ele>
<time>2026-07-14T08:49:45.000Z</time>
</trkpt>
<trkpt lat="56.817126" lon="8.276067">
<ele>15.436317</ele>
<time>2026-07-14T08:49:46.000Z</time>
</trkpt>
<trkpt lat="56.817100" lon="8.276133">
<ele>15.428549</ele>
<time>2026-07-14T08:49:47.000Z</time>
</trkpt>
<trkpt lat="56.817076" lon="8.276200">
<ele>15.420899</ele>
<time>2026-07-14T08:49:48.000Z</time>
</trkpt>
<trkpt lat="56.817050" lon="8.276270">
<ele>15.412817</ele>
<time>2026-07-14T08:49:49.000Z</time>
</trkpt>
<trkpt lat="56.817022" lon="8.276341">
<ele>15.404457</ele>
<time>2026-07-14T08:49:50.000Z</time>
</trkpt>
<trkpt lat="56.816998" lon="8.276395">
<ele>15.397811</ele>
<time>2026-07-14T08:49:51.000Z</time>
</trkpt>
<trkpt lat="56.816976" lon="8.276449">
<ele>15.391380</ele>
<time>2026-07-14T08:49:52.000Z</time>
</trkpt>
<trkpt lat="56.816961" lon="8.276492">
<ele>15.386509</ele>
<time>2026-07-14T08:49:53.000Z</time>
</trkpt>
<trkpt lat="56.816946" lon="8.276535">
<ele>15.381638</ele>
<time>2026-07-14T08:49:54.000Z</time>
</trkpt>
<trkpt lat="56.816928" lon="8.276580">
<ele>15.376313</ele>
<time>2026-07-14T08:49:55.000Z</time>
</trkpt>
<trkpt lat="56.816905" lon="8.276640">
<ele>15.369315</ele>
<time>2026-07-14T08:49:56.000Z</time>
</trkpt>
<trkpt lat="56.816880" lon="8.276707">
<ele>15.361568</ele>
<time>2026-07-14T08:49:57.000Z</time>
</trkpt>
<trkpt lat="56.816851" lon="8.276781">
<ele>15.352873</ele>
<time>2026-07-14T08:49:58.000Z</time>
</trkpt>
<trkpt lat="56.816825" lon="8.276846">
<ele>15.345182</ele>
<time>2026-07-14T08:49:59.000Z</time>
</trkpt>
<trkpt lat="56.816798" lon="8.276916">
<ele>15.337001</ele>
<time>2026-07-14T08:50:00.000Z</time>
</trkpt>
<trkpt lat="56.816769" lon="8.276986">
<ele>15.328614</ele>
<time>2026-07-14T08:50:01.000Z</time>
</trkpt>
<trkpt lat="56.816736" lon="8.277054">
<ele>15.319931</ele>
<time>2026-07-14T08:50:02.000Z</time>
</trkpt>
<trkpt lat="56.816704" lon="8.277125">
<ele>15.311145</ele>
<time>2026-07-14T08:50:03.000Z</time>
</trkpt>
<trkpt lat="56.816673" lon="8.277200">
<ele>15.302166</ele>
<time>2026-07-14T08:50:04.000Z</time>
</trkpt>
<trkpt lat="56.816639" lon="8.277289">
<ele>15.291797</ele>
<time>2026-07-14T08:50:05.000Z</time>
</trkpt>
<trkpt lat="56.816608" lon="8.277378">
<ele>15.281719</ele>
<time>2026-07-14T08:50:06.000Z</time>
</trkpt>
<trkpt lat="56.816579" lon="8.277470">
<ele>15.271576</ele>
<time>2026-07-14T08:50:07.000Z</time>
</trkpt>
<trkpt lat="56.816552" lon="8.277566">
<ele>15.220849</ele>
<time>2026-07-14T08:50:08.000Z</time>
</trkpt>
<trkpt lat="56.816527" lon="8.277660">
<ele>15.157532</ele>
<time>2026-07-14T08:50:09.000Z</time>
</trkpt>
<trkpt lat="56.816503" lon="8.277758">
<ele>15.092487</ele>
<time>2026-07-14T08:50:10.000Z</time>
</trkpt>
<trkpt lat="56.816479" lon="8.277852">
<ele>15.029647</ele>
<time>2026-07-14T08:50:11.000Z</time>
</trkpt>
<trkpt lat="56.816453" lon="8.277949">
<ele>14.964211</ele>
<time>2026-07-14T08:50:12.000Z</time>
</trkpt>
<trkpt lat="56.816429" lon="8.278050">
<ele>14.897503</ele>
<time>2026-07-14T08:50:13.000Z</time>
</trkpt>
<trkpt lat="56.816407" lon="8.278149">
<ele>14.832769</ele>
<time>2026-07-14T08:50:14.000Z</time>
</trkpt>
<trkpt lat="56.816382" lon="8.278243">
<ele>14.769452</ele>
<time>2026-07-14T08:50:15.000Z</time>
</trkpt>
<trkpt lat="56.816357" lon="8.278342">
<ele>14.703397</ele>
<time>2026-07-14T08:50:16.000Z</time>
</trkpt>
<trkpt lat="56.816336" lon="8.278429">
<ele>14.645791</ele>
<time>2026-07-14T08:50:17.000Z</time>
</trkpt>
<trkpt lat="56.816308" lon="8.278542">
<ele>14.570641</ele>
<time>2026-07-14T08:50:18.000Z</time>
</trkpt>
<trkpt lat="56.816284" lon="8.278649">
<ele>14.500583</ele>
<time>2026-07-14T08:50:19.000Z</time>
</trkpt>
<trkpt lat="56.816261" lon="8.278757">
<ele>14.430373</ele>
<time>2026-07-14T08:50:20.000Z</time>
</trkpt>
<trkpt lat="56.816240" lon="8.278853">
<ele>14.367739</ele>
<time>2026-07-14T08:50:21.000Z</time>
</trkpt>
<trkpt lat="56.816219" lon="8.278946">
<ele>14.306788</ele>
<time>2026-07-14T08:50:22.000Z</time>
</trkpt>
<trkpt lat="56.816201" lon="8.279035">
<ele>14.249304</ele>
<time>2026-07-14T08:50:23.000Z</time>
</trkpt>
<trkpt lat="56.816179" lon="8.279131">
<ele>14.186250</ele>
<time>2026-07-14T08:50:24.000Z</time>
</trkpt>
<trkpt lat="56.816154" lon="8.279225">
<ele>14.122933</ele>
<time>2026-07-14T08:50:25.000Z</time>
</trkpt>
<trkpt lat="56.816133" lon="8.279320">
<ele>14.060861</ele>
<time>2026-07-14T08:50:26.000Z</time>
</trkpt>
<trkpt lat="56.816114" lon="8.279407">
<ele>14.004111</ele>
<time>2026-07-14T08:50:27.000Z</time>
</trkpt>
<trkpt lat="56.816090" lon="8.279503">
<ele>13.940169</ele>
<time>2026-07-14T08:50:28.000Z</time>
</trkpt>
<trkpt lat="56.816066" lon="8.279607">
<ele>13.871790</ele>
<time>2026-07-14T08:50:29.000Z</time>
</trkpt>
<trkpt lat="56.816048" lon="8.279701">
<ele>13.811455</ele>
<time>2026-07-14T08:50:30.000Z</time>
</trkpt>
<trkpt lat="56.816028" lon="8.279791">
<ele>13.752605</ele>
<time>2026-07-14T08:50:31.000Z</time>
</trkpt>
<trkpt lat="56.816007" lon="8.279880">
<ele>13.693888</ele>
<time>2026-07-14T08:50:32.000Z</time>
</trkpt>
<trkpt lat="56.815988" lon="8.279968">
<ele>13.636574</ele>
<time>2026-07-14T08:50:33.000Z</time>
</trkpt>
<trkpt lat="56.815971" lon="8.280064">
<ele>13.575444</ele>
<time>2026-07-14T08:50:34.000Z</time>
</trkpt>
<trkpt lat="56.815960" lon="8.280145">
<ele>13.524882</ele>
<time>2026-07-14T08:50:35.000Z</time>
</trkpt>
<trkpt lat="56.815941" lon="8.280243">
<ele>13.461894</ele>
<time>2026-07-14T08:50:36.000Z</time>
</trkpt>
<trkpt lat="56.815918" lon="8.280337">
<ele>13.399512</ele>
<time>2026-07-14T08:50:37.000Z</time>
</trkpt>
<trkpt lat="56.815896" lon="8.280430">
<ele>13.338131</ele>
<time>2026-07-14T08:50:38.000Z</time>
</trkpt>
<trkpt lat="56.815872" lon="8.280512">
<ele>13.281794</ele>
<time>2026-07-14T08:50:39.000Z</time>
</trkpt>
<trkpt lat="56.815841" lon="8.280608">
<ele>13.237194</ele>
<time>2026-07-14T08:50:40.000Z</time>
</trkpt>
<trkpt lat="56.815806" lon="8.280694">
<ele>13.195670</ele>
<time>2026-07-14T08:50:41.000Z</time>
</trkpt>
<trkpt lat="56.815777" lon="8.280765">
<ele>13.161345</ele>
<time>2026-07-14T08:50:42.000Z</time>
</trkpt>
<trkpt lat="56.815748" lon="8.280823">
<ele>13.130907</ele>
<time>2026-07-14T08:50:43.000Z</time>
</trkpt>
<trkpt lat="56.815716" lon="8.280882">
<ele>13.098724</ele>
<time>2026-07-14T08:50:44.000Z</time>
</trkpt>
<trkpt lat="56.815686" lon="8.280931">
<ele>13.070238</ele>
<time>2026-07-14T08:50:45.000Z</time>
</trkpt>
<trkpt lat="56.815652" lon="8.280979">
<ele>13.039821</ele>
<time>2026-07-14T08:50:46.000Z</time>
</trkpt>
<trkpt lat="56.815617" lon="8.281021">
<ele>13.010178</ele>
<time>2026-07-14T08:50:47.000Z</time>
</trkpt>
<trkpt lat="56.815577" lon="8.281064">
<ele>12.977324</ele>
<time>2026-07-14T08:50:48.000Z</time>
</trkpt>
<trkpt lat="56.815542" lon="8.281105">
<ele>12.947891</ele>
<time>2026-07-14T08:50:49.000Z</time>
</trkpt>
<trkpt lat="56.815506" lon="8.281150">
<ele>12.917013</ele>
<time>2026-07-14T08:50:50.000Z</time>
</trkpt>
<trkpt lat="56.815466" lon="8.281199">
<ele>12.882921</ele>
<time>2026-07-14T08:50:51.000Z</time>
</trkpt>
<trkpt lat="56.815431" lon="8.281241">
<ele>12.853278</ele>
<time>2026-07-14T08:50:52.000Z</time>
</trkpt>
<trkpt lat="56.815399" lon="8.281278">
<ele>12.826470</ele>
<time>2026-07-14T08:50:53.000Z</time>
</trkpt>
<trkpt lat="56.815364" lon="8.281322">
<ele>12.796394</ele>
<time>2026-07-14T08:50:54.000Z</time>
</trkpt>
<trkpt lat="56.815333" lon="8.281361">
<ele>12.769750</ele>
<time>2026-07-14T08:50:55.000Z</time>
</trkpt>
<trkpt lat="56.815299" lon="8.281407">
<ele>12.739800</ele>
<time>2026-07-14T08:50:56.000Z</time>
</trkpt>
<trkpt lat="56.815263" lon="8.281464">
<ele>12.706077</ele>
<time>2026-07-14T08:50:57.000Z</time>
</trkpt>
<trkpt lat="56.815223" lon="8.281535">
<ele>12.666598</ele>
<time>2026-07-14T08:50:58.000Z</time>
</trkpt>
<trkpt lat="56.815191" lon="8.281592">
<ele>12.634961</ele>
<time>2026-07-14T08:50:59.000Z</time>
</trkpt>
<trkpt lat="56.815149" lon="8.281671">
<ele>12.592288</ele>
<time>2026-07-14T08:51:00.000Z</time>
</trkpt>
<trkpt lat="56.815115" lon="8.281741">
<ele>12.556026</ele>
<time>2026-07-14T08:51:01.000Z</time>
</trkpt>
<trkpt lat="56.815082" lon="8.281807">
<ele>12.521389</ele>
<time>2026-07-14T08:51:02.000Z</time>
</trkpt>
<trkpt lat="56.815054" lon="8.281862">
<ele>12.492285</ele>
<time>2026-07-14T08:51:03.000Z</time>
</trkpt>
<trkpt lat="56.815029" lon="8.281908">
<ele>12.467168</ele>
<time>2026-07-14T08:51:04.000Z</time>
</trkpt>
<trkpt lat="56.814986" lon="8.281989">
<ele>12.423446</ele>
<time>2026-07-14T08:51:05.000Z</time>
</trkpt>
<trkpt lat="56.814941" lon="8.282079">
<ele>12.376214</ele>
<time>2026-07-14T08:51:06.000Z</time>
</trkpt>
<trkpt lat="56.814899" lon="8.282150">
<ele>12.335707</ele>
<time>2026-07-14T08:51:07.000Z</time>
</trkpt>
<trkpt lat="56.814856" lon="8.282221">
<ele>12.294678</ele>
<time>2026-07-14T08:51:08.000Z</time>
</trkpt>
<trkpt lat="56.814815" lon="8.282280">
<ele>12.257732</ele>
<time>2026-07-14T08:51:09.000Z</time>
</trkpt>
<trkpt lat="56.814788" lon="8.282334">
<ele>12.229392</ele>
<time>2026-07-14T08:51:10.000Z</time>
</trkpt>
<trkpt lat="56.814749" lon="8.282412">
<ele>12.188458</ele>
<time>2026-07-14T08:51:11.000Z</time>
</trkpt>
<trkpt lat="56.814721" lon="8.282476">
<ele>12.156712</ele>
<time>2026-07-14T08:51:12.000Z</time>
</trkpt>
<trkpt lat="56.814683" lon="8.282545">
<ele>12.118785</ele>
<time>2026-07-14T08:51:13.000Z</time>
</trkpt>
<trkpt lat="56.814653" lon="8.282605">
<ele>12.087297</ele>
<time>2026-07-14T08:51:14.000Z</time>
</trkpt>
<trkpt lat="56.814621" lon="8.282677">
<ele>12.051360</ele>
<time>2026-07-14T08:51:15.000Z</time>
</trkpt>
<trkpt lat="56.814590" lon="8.282739">
<ele>12.018822</ele>
<time>2026-07-14T08:51:16.000Z</time>
</trkpt>
<trkpt lat="56.814550" lon="8.282804">
<ele>12.016931</ele>
<time>2026-07-14T08:51:17.000Z</time>
</trkpt>
<trkpt lat="56.814514" lon="8.282868">
<ele>12.035440</ele>
<time>2026-07-14T08:51:18.000Z</time>
</trkpt>
<trkpt lat="56.814481" lon="8.282941">
<ele>12.054535</ele>
<time>2026-07-14T08:51:19.000Z</time>
</trkpt>
<trkpt lat="56.814441" lon="8.283021">
<ele>12.076388</ele>
<time>2026-07-14T08:51:20.000Z</time>
</trkpt>
<trkpt lat="56.814404" lon="8.283089">
<ele>12.095727</ele>
<time>2026-07-14T08:51:21.000Z</time>
</trkpt>
<trkpt lat="56.814373" lon="8.283153">
<ele>12.112963</ele>
<time>2026-07-14T08:51:22.000Z</time>
</trkpt>
<trkpt lat="56.814346" lon="8.283214">
<ele>12.128785</ele>
<time>2026-07-14T08:51:23.000Z</time>
</trkpt>
<trkpt lat="56.814321" lon="8.283273">
<ele>12.143834</ele>
<time>2026-07-14T08:51:24.000Z</time>
</trkpt>
<trkpt lat="56.814296" lon="8.283334">
<ele>12.159203</ele>
<time>2026-07-14T08:51:25.000Z</time>
</trkpt>
<trkpt lat="56.814270" lon="8.283396">
<ele>12.174956</ele>
<time>2026-07-14T08:51:26.000Z</time>
</trkpt>
<trkpt lat="56.814227" lon="8.283466">
<ele>12.196178</ele>
<time>2026-07-14T08:51:27.000Z</time>
</trkpt>
<trkpt lat="56.814191" lon="8.283527">
<ele>12.214270</ele>
<time>2026-07-14T08:51:28.000Z</time>
</trkpt>
<trkpt lat="56.814143" lon="8.283605">
<ele>12.237941</ele>
<time>2026-07-14T08:51:29.000Z</time>
</trkpt>
<trkpt lat="56.814109" lon="8.283660">
<ele>12.254674</ele>
<time>2026-07-14T08:51:30.000Z</time>
</trkpt>
<trkpt lat="56.814059" lon="8.283758">
<ele>12.281695</ele>
<time>2026-07-14T08:51:31.000Z</time>
</trkpt>
<trkpt lat="56.814020" lon="8.283828">
<ele>12.301840</ele>
<time>2026-07-14T08:51:32.000Z</time>
</trkpt>
<trkpt lat="56.813982" lon="8.283894">
<ele>12.321160</ele>
<time>2026-07-14T08:51:33.000Z</time>
</trkpt>
<trkpt lat="56.813948" lon="8.283950">
<ele>12.338028</ele>
<time>2026-07-14T08:51:34.000Z</time>
</trkpt>
<trkpt lat="56.813920" lon="8.284004">
<ele>12.353030</ele>
<time>2026-07-14T08:51:35.000Z</time>
</trkpt>
<trkpt lat="56.813900" lon="8.284052">
<ele>12.365197</ele>
<time>2026-07-14T08:51:36.000Z</time>
</trkpt>
<trkpt lat="56.813881" lon="8.284094">
<ele>12.376187</ele>
<time>2026-07-14T08:51:37.000Z</time>
</trkpt>
<trkpt lat="56.813862" lon="8.284135">
<ele>12.387022</ele>
<time>2026-07-14T08:51:38.000Z</time>
</trkpt>
<trkpt lat="56.813853" lon="8.284184">
<ele>12.397446</ele>
<time>2026-07-14T08:51:39.000Z</time>
</trkpt>
<trkpt lat="56.813856" lon="8.284232">
<ele>12.407190</ele>
<time>2026-07-14T08:51:40.000Z</time>
</trkpt>
<trkpt lat="56.813873" lon="8.284281">
<ele>12.418891</ele>
<time>2026-07-14T08:51:41.000Z</time>
</trkpt>
<trkpt lat="56.813894" lon="8.284327">
<ele>12.430972</ele>
<time>2026-07-14T08:51:42.000Z</time>
</trkpt>
<trkpt lat="56.813918" lon="8.284375">
<ele>12.444084</ele>
<time>2026-07-14T08:51:43.000Z</time>
</trkpt>
<trkpt lat="56.813947" lon="8.284426">
<ele>12.458916</ele>
<time>2026-07-14T08:51:44.000Z</time>
</trkpt>
<trkpt lat="56.813968" lon="8.284459">
<ele>12.469123</ele>
<time>2026-07-14T08:51:45.000Z</time>
</trkpt>
<trkpt lat="56.814007" lon="8.284523">
<ele>12.488440</ele>
<time>2026-07-14T08:51:46.000Z</time>
</trkpt>
<trkpt lat="56.814029" lon="8.284562">
<ele>12.499735</ele>
<time>2026-07-14T08:51:47.000Z</time>
</trkpt>
<trkpt lat="56.814060" lon="8.284608">
<ele>12.514451</ele>
<time>2026-07-14T08:51:48.000Z</time>
</trkpt>
<trkpt lat="56.814098" lon="8.284665">
<ele>12.532568</ele>
<time>2026-07-14T08:51:49.000Z</time>
</trkpt>
<trkpt lat="56.814130" lon="8.284730">
<ele>12.550200</ele>
<time>2026-07-14T08:51:50.000Z</time>
</trkpt>
<trkpt lat="56.814156" lon="8.284788">
<ele>12.565321</ele>
<time>2026-07-14T08:51:51.000Z</time>
</trkpt>
<trkpt lat="56.814195" lon="8.284870">
<ele>12.587230</ele>
<time>2026-07-14T08:51:52.000Z</time>
</trkpt>
<trkpt lat="56.814235" lon="8.284953">
<ele>12.609534</ele>
<time>2026-07-14T08:51:53.000Z</time>
</trkpt>
<trkpt lat="56.814265" lon="8.285022">
<ele>12.627307</ele>
<time>2026-07-14T08:51:54.000Z</time>
</trkpt>
<trkpt lat="56.814297" lon="8.285090">
<ele>12.645394</ele>
<time>2026-07-14T08:51:55.000Z</time>
</trkpt>
<trkpt lat="56.814328" lon="8.285155">
<ele>12.662782</ele>
<time>2026-07-14T08:51:56.000Z</time>
</trkpt>
<trkpt lat="56.814359" lon="8.285221">
<ele>12.684910</ele>
<time>2026-07-14T08:51:57.000Z</time>
</trkpt>
<trkpt lat="56.814389" lon="8.285286">
<ele>12.708129</ele>
<time>2026-07-14T08:51:58.000Z</time>
</trkpt>
<trkpt lat="56.814422" lon="8.285352">
<ele>12.732541</ele>
<time>2026-07-14T08:51:59.000Z</time>
</trkpt>
<trkpt lat="56.814456" lon="8.285420">
<ele>12.757693</ele>
<time>2026-07-14T08:52:00.000Z</time>
</trkpt>
<trkpt lat="56.814490" lon="8.285489">
<ele>12.783047</ele>
<time>2026-07-14T08:52:01.000Z</time>
</trkpt>
<trkpt lat="56.814529" lon="8.285559">
<ele>12.810325</ele>
<time>2026-07-14T08:52:02.000Z</time>
</trkpt>
<trkpt lat="56.814569" lon="8.285631">
<ele>12.838341</ele>
<time>2026-07-14T08:52:03.000Z</time>
</trkpt>
<trkpt lat="56.814607" lon="8.285704">
<ele>12.865852</ele>
<time>2026-07-14T08:52:04.000Z</time>
</trkpt>
<trkpt lat="56.814645" lon="8.285780">
<ele>12.893963</ele>
<time>2026-07-14T08:52:05.000Z</time>
</trkpt>
<trkpt lat="56.814683" lon="8.285856">
<ele>12.922074</ele>
<time>2026-07-14T08:52:06.000Z</time>
</trkpt>
<trkpt lat="56.814722" lon="8.285932">
<ele>12.950524</ele>
<time>2026-07-14T08:52:07.000Z</time>
</trkpt>
<trkpt lat="56.814762" lon="8.286008">
<ele>12.979317</ele>
<time>2026-07-14T08:52:08.000Z</time>
</trkpt>
<trkpt lat="56.814802" lon="8.286085">
<ele>13.008308</ele>
<time>2026-07-14T08:52:09.000Z</time>
</trkpt>
<trkpt lat="56.814840" lon="8.286166">
<ele>13.037441</ele>
<time>2026-07-14T08:52:10.000Z</time>
</trkpt>
<trkpt lat="56.814878" lon="8.286249">
<ele>13.066991</ele>
<time>2026-07-14T08:52:11.000Z</time>
</trkpt>
<trkpt lat="56.814918" lon="8.286332">
<ele>13.097191</ele>
<time>2026-07-14T08:52:12.000Z</time>
</trkpt>
<trkpt lat="56.814956" lon="8.286415">
<ele>13.126742</ele>
<time>2026-07-14T08:52:13.000Z</time>
</trkpt>
<trkpt lat="56.814992" lon="8.286499">
<ele>13.155876</ele>
<time>2026-07-14T08:52:14.000Z</time>
</trkpt>
<trkpt lat="56.815030" lon="8.286582">
<ele>13.185426</ele>
<time>2026-07-14T08:52:15.000Z</time>
</trkpt>
<trkpt lat="56.815068" lon="8.286667">
<ele>13.215398</ele>
<time>2026-07-14T08:52:16.000Z</time>
</trkpt>
<trkpt lat="56.815103" lon="8.286756">
<ele>13.245325</ele>
<time>2026-07-14T08:52:17.000Z</time>
</trkpt>
<trkpt lat="56.815137" lon="8.286841">
<ele>13.274075</ele>
<time>2026-07-14T08:52:18.000Z</time>
</trkpt>
<trkpt lat="56.815173" lon="8.286924">
<ele>13.302995</ele>
<time>2026-07-14T08:52:19.000Z</time>
</trkpt>
<trkpt lat="56.815206" lon="8.287006">
<ele>13.330790</ele>
<time>2026-07-14T08:52:20.000Z</time>
</trkpt>
<trkpt lat="56.815240" lon="8.287090">
<ele>13.359320</ele>
<time>2026-07-14T08:52:21.000Z</time>
</trkpt>
<trkpt lat="56.815276" lon="8.287177">
<ele>13.389104</ele>
<time>2026-07-14T08:52:22.000Z</time>
</trkpt>
<trkpt lat="56.815313" lon="8.287263">
<ele>13.418976</ele>
<time>2026-07-14T08:52:23.000Z</time>
</trkpt>
<trkpt lat="56.815351" lon="8.287349">
<ele>13.449159</ele>
<time>2026-07-14T08:52:24.000Z</time>
</trkpt>
<trkpt lat="56.815389" lon="8.287438">
<ele>13.479984</ele>
<time>2026-07-14T08:52:25.000Z</time>
</trkpt>
<trkpt lat="56.815427" lon="8.287527">
<ele>13.510808</ele>
<time>2026-07-14T08:52:26.000Z</time>
</trkpt>
<trkpt lat="56.815465" lon="8.287614">
<ele>13.541204</ele>
<time>2026-07-14T08:52:27.000Z</time>
</trkpt>
<trkpt lat="56.815504" lon="8.287697">
<ele>13.564028</ele>
<time>2026-07-14T08:52:28.000Z</time>
</trkpt>
<trkpt lat="56.815542" lon="8.287778">
<ele>13.560647</ele>
<time>2026-07-14T08:52:29.000Z</time>
</trkpt>
<trkpt lat="56.815578" lon="8.287859">
<ele>13.557340</ele>
<time>2026-07-14T08:52:30.000Z</time>
</trkpt>
<trkpt lat="56.815611" lon="8.287935">
<ele>13.554265</ele>
<time>2026-07-14T08:52:31.000Z</time>
</trkpt>
<trkpt lat="56.815649" lon="8.288014">
<ele>13.550932</ele>
<time>2026-07-14T08:52:32.000Z</time>
</trkpt>
<trkpt lat="56.815690" lon="8.288101">
<ele>13.547294</ele>
<time>2026-07-14T08:52:33.000Z</time>
</trkpt>
<trkpt lat="56.815728" lon="8.288185">
<ele>13.543840</ele>
<time>2026-07-14T08:52:34.000Z</time>
</trkpt>
<trkpt lat="56.815764" lon="8.288267">
<ele>13.540508</ele>
<time>2026-07-14T08:52:35.000Z</time>
</trkpt>
<trkpt lat="56.815800" lon="8.288350">
<ele>13.537152</ele>
<time>2026-07-14T08:52:36.000Z</time>
</trkpt>
<trkpt lat="56.815837" lon="8.288430">
<ele>13.533832</ele>
<time>2026-07-14T08:52:37.000Z</time>
</trkpt>
<trkpt lat="56.815873" lon="8.288505">
<ele>13.530671</ele>
<time>2026-07-14T08:52:38.000Z</time>
</trkpt>
<trkpt lat="56.815912" lon="8.288580">
<ele>13.527392</ele>
<time>2026-07-14T08:52:39.000Z</time>
</trkpt>
<trkpt lat="56.815948" lon="8.288656">
<ele>13.524206</ele>
<time>2026-07-14T08:52:40.000Z</time>
</trkpt>
<trkpt lat="56.815984" lon="8.288733">
<ele>13.520997</ele>
<time>2026-07-14T08:52:41.000Z</time>
</trkpt>
<trkpt lat="56.816022" lon="8.288807">
<ele>13.517781</ele>
<time>2026-07-14T08:52:42.000Z</time>
</trkpt>
<trkpt lat="56.816060" lon="8.288885">
<ele>13.514471</ele>
<time>2026-07-14T08:52:43.000Z</time>
</trkpt>
<trkpt lat="56.816096" lon="8.288965">
<ele>13.511189</ele>
<time>2026-07-14T08:52:44.000Z</time>
</trkpt>
<trkpt lat="56.816131" lon="8.289042">
<ele>13.508017</ele>
<time>2026-07-14T08:52:45.000Z</time>
</trkpt>
<trkpt lat="56.816167" lon="8.289120">
<ele>13.504783</ele>
<time>2026-07-14T08:52:46.000Z</time>
</trkpt>
<trkpt lat="56.816201" lon="8.289196">
<ele>13.501672</ele>
<time>2026-07-14T08:52:47.000Z</time>
</trkpt>
<trkpt lat="56.816234" lon="8.289276">
<ele>13.498497</ele>
<time>2026-07-14T08:52:48.000Z</time>
</trkpt>
<trkpt lat="56.816264" lon="8.289369">
<ele>13.495076</ele>
<time>2026-07-14T08:52:49.000Z</time>
</trkpt>
<trkpt lat="56.816291" lon="8.289471">
<ele>13.491485</ele>
<time>2026-07-14T08:52:50.000Z</time>
</trkpt>
<trkpt lat="56.816318" lon="8.289581">
<ele>13.487664</ele>
<time>2026-07-14T08:52:51.000Z</time>
</trkpt>
<trkpt lat="56.816338" lon="8.289694">
<ele>13.483900</ele>
<time>2026-07-14T08:52:52.000Z</time>
</trkpt>
<trkpt lat="56.816351" lon="8.289805">
<ele>13.480303</ele>
<time>2026-07-14T08:52:53.000Z</time>
</trkpt>
<trkpt lat="56.816361" lon="8.289920">
<ele>13.476612</ele>
<time>2026-07-14T08:52:54.000Z</time>
</trkpt>
<trkpt lat="56.816368" lon="8.290037">
<ele>13.472882</ele>
<time>2026-07-14T08:52:55.000Z</time>
</trkpt>
<trkpt lat="56.816374" lon="8.290155">
<ele>13.469126</ele>
<time>2026-07-14T08:52:56.000Z</time>
</trkpt>
<trkpt lat="56.816380" lon="8.290271">
<ele>13.465434</ele>
<time>2026-07-14T08:52:57.000Z</time>
</trkpt>
<trkpt lat="56.816385" lon="8.290392">
<ele>13.461588</ele>
<time>2026-07-14T08:52:58.000Z</time>
</trkpt>
<trkpt lat="56.816391" lon="8.290514">
<ele>13.448242</ele>
<time>2026-07-14T08:52:59.000Z</time>
</trkpt>
<trkpt lat="56.816397" lon="8.290633">
<ele>13.432113</ele>
<time>2026-07-14T08:53:00.000Z</time>
</trkpt>
<trkpt lat="56.816403" lon="8.290752">
<ele>13.415985</ele>
<time>2026-07-14T08:53:01.000Z</time>
</trkpt>
<trkpt lat="56.816408" lon="8.290872">
<ele>13.399743</ele>
<time>2026-07-14T08:53:02.000Z</time>
</trkpt>
<trkpt lat="56.816414" lon="8.290993">
<ele>13.383345</ele>
<time>2026-07-14T08:53:03.000Z</time>
</trkpt>
<trkpt lat="56.816422" lon="8.291114">
<ele>13.366896</ele>
<time>2026-07-14T08:53:04.000Z</time>
</trkpt>
<trkpt lat="56.816427" lon="8.291230">
<ele>13.351192</ele>
<time>2026-07-14T08:53:05.000Z</time>
</trkpt>
<trkpt lat="56.816433" lon="8.291349">
<ele>13.335063</ele>
<time>2026-07-14T08:53:06.000Z</time>
</trkpt>
<trkpt lat="56.816441" lon="8.291471">
<ele>13.318480</ele>
<time>2026-07-14T08:53:07.000Z</time>
</trkpt>
<trkpt lat="56.816448" lon="8.291589">
<ele>13.302461</ele>
<time>2026-07-14T08:53:08.000Z</time>
</trkpt>
<trkpt lat="56.816454" lon="8.291704">
<ele>13.286870</ele>
<time>2026-07-14T08:53:09.000Z</time>
</trkpt>
<trkpt lat="56.816458" lon="8.291822">
<ele>13.270914</ele>
<time>2026-07-14T08:53:10.000Z</time>
</trkpt>
<trkpt lat="56.816462" lon="8.291942">
<ele>13.254689</ele>
<time>2026-07-14T08:53:11.000Z</time>
</trkpt>
<trkpt lat="56.816465" lon="8.292061">
<ele>13.238611</ele>
<time>2026-07-14T08:53:12.000Z</time>
</trkpt>
<trkpt lat="56.816469" lon="8.292183">
<ele>13.222116</ele>
<time>2026-07-14T08:53:13.000Z</time>
</trkpt>
<trkpt lat="56.816473" lon="8.292303">
<ele>13.205891</ele>
<time>2026-07-14T08:53:14.000Z</time>
</trkpt>
<trkpt lat="56.816477" lon="8.292420">
<ele>13.190070</ele>
<time>2026-07-14T08:53:15.000Z</time>
</trkpt>
<trkpt lat="56.816481" lon="8.292541">
<ele>13.173709</ele>
<time>2026-07-14T08:53:16.000Z</time>
</trkpt>
<trkpt lat="56.816485" lon="8.292663">
<ele>13.157214</ele>
<time>2026-07-14T08:53:17.000Z</time>
</trkpt>
<trkpt lat="56.816488" lon="8.292783">
<ele>13.141002</ele>
<time>2026-07-14T08:53:18.000Z</time>
</trkpt>
<trkpt lat="56.816492" lon="8.292903">
<ele>13.124777</ele>
<time>2026-07-14T08:53:19.000Z</time>
</trkpt>
<trkpt lat="56.816494" lon="8.293022">
<ele>13.108709</ele>
<time>2026-07-14T08:53:20.000Z</time>
</trkpt>
<trkpt lat="56.816494" lon="8.293141">
<ele>13.092648</ele>
<time>2026-07-14T08:53:21.000Z</time>
</trkpt>
<trkpt lat="56.816494" lon="8.293258">
<ele>13.076858</ele>
<time>2026-07-14T08:53:22.000Z</time>
</trkpt>
<trkpt lat="56.816494" lon="8.293376">
<ele>13.060932</ele>
<time>2026-07-14T08:53:23.000Z</time>
</trkpt>
<trkpt lat="56.816492" lon="8.293491">
<ele>13.045404</ele>
<time>2026-07-14T08:53:24.000Z</time>
</trkpt>
<trkpt lat="56.816486" lon="8.293602">
<ele>13.030350</ele>
<time>2026-07-14T08:53:25.000Z</time>
</trkpt>
<trkpt lat="56.816481" lon="8.293709">
<ele>13.014178</ele>
<time>2026-07-14T08:53:26.000Z</time>
</trkpt>
<trkpt lat="56.816477" lon="8.293815">
<ele>12.980317</ele>
<time>2026-07-14T08:53:27.000Z</time>
</trkpt>
<trkpt lat="56.816471" lon="8.293922">
<ele>12.946040</ele>
<time>2026-07-14T08:53:28.000Z</time>
</trkpt>
<trkpt lat="56.816463" lon="8.294029">
<ele>12.911624</ele>
<time>2026-07-14T08:53:29.000Z</time>
</trkpt>
<trkpt lat="56.816456" lon="8.294134">
<ele>12.877915</ele>
<time>2026-07-14T08:53:30.000Z</time>
</trkpt>
<trkpt lat="56.816450" lon="8.294240">
<ele>12.843954</ele>
<time>2026-07-14T08:53:31.000Z</time>
</trkpt>
<trkpt lat="56.816448" lon="8.294353">
<ele>12.807924</ele>
<time>2026-07-14T08:53:32.000Z</time>
</trkpt>
<trkpt lat="56.816448" lon="8.294468">
<ele>12.771275</ele>
<time>2026-07-14T08:53:33.000Z</time>
</trkpt>
<trkpt lat="56.816448" lon="8.294581">
<ele>12.735264</ele>
<time>2026-07-14T08:53:34.000Z</time>
</trkpt>
<trkpt lat="56.816446" lon="8.294691">
<ele>12.700189</ele>
<time>2026-07-14T08:53:35.000Z</time>
</trkpt>
<trkpt lat="56.816444" lon="8.294804">
<ele>12.664159</ele>
<time>2026-07-14T08:53:36.000Z</time>
</trkpt>
<trkpt lat="56.816446" lon="8.294916">
<ele>12.628448</ele>
<time>2026-07-14T08:53:37.000Z</time>
</trkpt>
<trkpt lat="56.816448" lon="8.295025">
<ele>12.593692</ele>
<time>2026-07-14T08:53:38.000Z</time>
</trkpt>
<trkpt lat="56.816450" lon="8.295130">
<ele>12.560210</ele>
<time>2026-07-14T08:53:39.000Z</time>
</trkpt>
<trkpt lat="56.816454" lon="8.295234">
<ele>12.526985</ele>
<time>2026-07-14T08:53:40.000Z</time>
</trkpt>
<trkpt lat="56.816458" lon="8.295337">
<ele>12.494078</ele>
<time>2026-07-14T08:53:41.000Z</time>
</trkpt>
<trkpt lat="56.816458" lon="8.295442">
<ele>12.460616</ele>
<time>2026-07-14T08:53:42.000Z</time>
</trkpt>
<trkpt lat="56.816456" lon="8.295552">
<ele>12.425541</ele>
<time>2026-07-14T08:53:43.000Z</time>
</trkpt>
<trkpt lat="56.816458" lon="8.295665">
<ele>12.389511</ele>
<time>2026-07-14T08:53:44.000Z</time>
</trkpt>
<trkpt lat="56.816460" lon="8.295779">
<ele>12.353163</ele>
<time>2026-07-14T08:53:45.000Z</time>
</trkpt>
<trkpt lat="56.816462" lon="8.295892">
<ele>12.317133</ele>
<time>2026-07-14T08:53:46.000Z</time>
</trkpt>
<trkpt lat="56.816463" lon="8.296008">
<ele>12.280161</ele>
<time>2026-07-14T08:53:47.000Z</time>
</trkpt>
<trkpt lat="56.816463" lon="8.296121">
<ele>12.244149</ele>
<time>2026-07-14T08:53:48.000Z</time>
</trkpt>
<trkpt lat="56.816466" lon="8.296231">
<ele>12.209051</ele>
<time>2026-07-14T08:53:49.000Z</time>
</trkpt>
<trkpt lat="56.816469" lon="8.296340">
<ele>12.174270</ele>
<time>2026-07-14T08:53:50.000Z</time>
</trkpt>
<trkpt lat="56.816473" lon="8.296451">
<ele>12.138820</ele>
<time>2026-07-14T08:53:51.000Z</time>
</trkpt>
<trkpt lat="56.816475" lon="8.296563">
<ele>12.103108</ele>
<time>2026-07-14T08:53:52.000Z</time>
</trkpt>
<trkpt lat="56.816475" lon="8.296674">
<ele>12.067734</ele>
<time>2026-07-14T08:53:53.000Z</time>
</trkpt>
<trkpt lat="56.816477" lon="8.296786">
<ele>12.032023</ele>
<time>2026-07-14T08:53:54.000Z</time>
</trkpt>
<trkpt lat="56.816481" lon="8.296895">
<ele>11.997208</ele>
<time>2026-07-14T08:53:55.000Z</time>
</trkpt>
<trkpt lat="56.816483" lon="8.297006">
<ele>11.974912</ele>
<time>2026-07-14T08:53:56.000Z</time>
</trkpt>
<trkpt lat="56.816485" lon="8.297124">
<ele>11.998901</ele>
<time>2026-07-14T08:53:57.000Z</time>
</trkpt>
<trkpt lat="56.816486" lon="8.297238">
<ele>12.022069</ele>
<time>2026-07-14T08:53:58.000Z</time>
</trkpt>
<trkpt lat="56.816484" lon="8.297348">
<ele>12.044433</ele>
<time>2026-07-14T08:53:59.000Z</time>
</trkpt>
<trkpt lat="56.816483" lon="8.297459">
<ele>12.066992</ele>
<time>2026-07-14T08:54:00.000Z</time>
</trkpt>
<trkpt lat="56.816483" lon="8.297572">
<ele>12.089953</ele>
<time>2026-07-14T08:54:01.000Z</time>
</trkpt>
<trkpt lat="56.816485" lon="8.297682">
<ele>12.112318</ele>
<time>2026-07-14T08:54:02.000Z</time>
</trkpt>
<trkpt lat="56.816490" lon="8.297792">
<ele>12.134747</ele>
<time>2026-07-14T08:54:03.000Z</time>
</trkpt>
<trkpt lat="56.816496" lon="8.297902">
<ele>12.157210</ele>
<time>2026-07-14T08:54:04.000Z</time>
</trkpt>
<trkpt lat="56.816498" lon="8.298010">
<ele>12.179168</ele>
<time>2026-07-14T08:54:05.000Z</time>
</trkpt>
<trkpt lat="56.816498" lon="8.298119">
<ele>12.201317</ele>
<time>2026-07-14T08:54:06.000Z</time>
</trkpt>
<trkpt lat="56.816500" lon="8.298231">
<ele>12.224087</ele>
<time>2026-07-14T08:54:07.000Z</time>
</trkpt>
<trkpt lat="56.816504" lon="8.298347">
<ele>12.247705</ele>
<time>2026-07-14T08:54:08.000Z</time>
</trkpt>
<trkpt lat="56.816505" lon="8.298462">
<ele>12.271076</ele>
<time>2026-07-14T08:54:09.000Z</time>
</trkpt>
<trkpt lat="56.816507" lon="8.298576">
<ele>12.294253</ele>
<time>2026-07-14T08:54:10.000Z</time>
</trkpt>
<trkpt lat="56.816511" lon="8.298691">
<ele>12.317668</ele>
<time>2026-07-14T08:54:11.000Z</time>
</trkpt>
<trkpt lat="56.816513" lon="8.298807">
<ele>12.341251</ele>
<time>2026-07-14T08:54:12.000Z</time>
</trkpt>
<trkpt lat="56.816511" lon="8.298923">
<ele>12.364834</ele>
<time>2026-07-14T08:54:13.000Z</time>
</trkpt>
<trkpt lat="56.816509" lon="8.299037">
<ele>12.388011</ele>
<time>2026-07-14T08:54:14.000Z</time>
</trkpt>
<trkpt lat="56.816505" lon="8.299148">
<ele>12.410615</ele>
<time>2026-07-14T08:54:15.000Z</time>
</trkpt>
<trkpt lat="56.816496" lon="8.299262">
<ele>12.434019</ele>
<time>2026-07-14T08:54:16.000Z</time>
</trkpt>
<trkpt lat="56.816480" lon="8.299371">
<ele>12.456951</ele>
<time>2026-07-14T08:54:17.000Z</time>
</trkpt>
<trkpt lat="56.816461" lon="8.299477">
<ele>12.479616</ele>
<time>2026-07-14T08:54:18.000Z</time>
</trkpt>
<trkpt lat="56.816444" lon="8.299583">
<ele>12.502061</ele>
<time>2026-07-14T08:54:19.000Z</time>
</trkpt>
<trkpt lat="56.816424" lon="8.299686">
<ele>12.524269</ele>
<time>2026-07-14T08:54:20.000Z</time>
</trkpt>
<trkpt lat="56.816402" lon="8.299782">
<ele>12.545417</ele>
<time>2026-07-14T08:54:21.000Z</time>
</trkpt>
<trkpt lat="56.816379" lon="8.299877">
<ele>12.566525</ele>
<time>2026-07-14T08:54:22.000Z</time>
</trkpt>
<trkpt lat="56.816358" lon="8.299975">
<ele>12.587911</ele>
<time>2026-07-14T08:54:23.000Z</time>
</trkpt>
<trkpt lat="56.816337" lon="8.300077">
<ele>12.610055</ele>
<time>2026-07-14T08:54:24.000Z</time>
</trkpt>
<trkpt lat="56.816314" lon="8.300179">
<ele>12.632472</ele>
<time>2026-07-14T08:54:25.000Z</time>
</trkpt>
<trkpt lat="56.816293" lon="8.300280">
<ele>12.708534</ele>
<time>2026-07-14T08:54:26.000Z</time>
</trkpt>
<trkpt lat="56.816274" lon="8.300383">
<ele>12.801569</ele>
<time>2026-07-14T08:54:27.000Z</time>
</trkpt>
<trkpt lat="56.816255" lon="8.300484">
<ele>12.892984</ele>
<time>2026-07-14T08:54:28.000Z</time>
</trkpt>
<trkpt lat="56.816238" lon="8.300582">
<ele>12.980980</ele>
<time>2026-07-14T08:54:29.000Z</time>
</trkpt>
<trkpt lat="56.816225" lon="8.300679">
<ele>13.066460</ele>
<time>2026-07-14T08:54:30.000Z</time>
</trkpt>
<trkpt lat="56.816211" lon="8.300776">
<ele>13.152325</ele>
<time>2026-07-14T08:54:31.000Z</time>
</trkpt>
<trkpt lat="56.816198" lon="8.300872">
<ele>13.236974</ele>
<time>2026-07-14T08:54:32.000Z</time>
</trkpt>
<trkpt lat="56.816189" lon="8.300967">
<ele>13.319498</ele>
<time>2026-07-14T08:54:33.000Z</time>
</trkpt>
<trkpt lat="56.816179" lon="8.301059">
<ele>13.399784</ele>
<time>2026-07-14T08:54:34.000Z</time>
</trkpt>
<trkpt lat="56.816169" lon="8.301149">
<ele>13.478391</ele>
<time>2026-07-14T08:54:35.000Z</time>
</trkpt>
<trkpt lat="56.816162" lon="8.301235">
<ele>13.552812</ele>
<time>2026-07-14T08:54:36.000Z</time>
</trkpt>
<trkpt lat="56.816152" lon="8.301319">
<ele>13.626393</ele>
<time>2026-07-14T08:54:37.000Z</time>
</trkpt>
<trkpt lat="56.816141" lon="8.301402">
<ele>13.699490</ele>
<time>2026-07-14T08:54:38.000Z</time>
</trkpt>
<trkpt lat="56.816131" lon="8.301486">
<ele>13.773071</ele>
<time>2026-07-14T08:54:39.000Z</time>
</trkpt>
<trkpt lat="56.816122" lon="8.301574">
<ele>13.849699</ele>
<time>2026-07-14T08:54:40.000Z</time>
</trkpt>
<trkpt lat="56.816110" lon="8.301664">
<ele>13.928987</ele>
<time>2026-07-14T08:54:41.000Z</time>
</trkpt>
<trkpt lat="56.816097" lon="8.301753">
<ele>14.007833</ele>
<time>2026-07-14T08:54:42.000Z</time>
</trkpt>
<trkpt lat="56.816081" lon="8.301844">
<ele>14.089646</ele>
<time>2026-07-14T08:54:43.000Z</time>
</trkpt>
<trkpt lat="56.816064" lon="8.301935">
<ele>14.171950</ele>
<time>2026-07-14T08:54:44.000Z</time>
</trkpt>
<trkpt lat="56.816048" lon="8.302026">
<ele>14.253762</ele>
<time>2026-07-14T08:54:45.000Z</time>
</trkpt>
<trkpt lat="56.816027" lon="8.302122">
<ele>14.342253</ele>
<time>2026-07-14T08:54:46.000Z</time>
</trkpt>
<trkpt lat="56.815999" lon="8.302226">
<ele>14.441459</ele>
<time>2026-07-14T08:54:47.000Z</time>
</trkpt>
<trkpt lat="56.815977" lon="8.302325">
<ele>14.532917</ele>
<time>2026-07-14T08:54:48.000Z</time>
</trkpt>
<trkpt lat="56.815958" lon="8.302423">
<ele>14.621908</ele>
<time>2026-07-14T08:54:49.000Z</time>
</trkpt>
<trkpt lat="56.815937" lon="8.302518">
<ele>14.709605</ele>
<time>2026-07-14T08:54:50.000Z</time>
</trkpt>
<trkpt lat="56.815916" lon="8.302617">
<ele>14.800487</ele>
<time>2026-07-14T08:54:51.000Z</time>
</trkpt>
<trkpt lat="56.815894" lon="8.302715">
<ele>14.891152</ele>
<time>2026-07-14T08:54:52.000Z</time>
</trkpt>
<trkpt lat="56.815873" lon="8.302810">
<ele>14.978849</ele>
<time>2026-07-14T08:54:53.000Z</time>
</trkpt>
<trkpt lat="56.815852" lon="8.302908">
<ele>15.068933</ele>
<time>2026-07-14T08:54:54.000Z</time>
</trkpt>
<trkpt lat="56.815830" lon="8.303006">
<ele>15.159599</ele>
<time>2026-07-14T08:54:55.000Z</time>
</trkpt>
<trkpt lat="56.815807" lon="8.303102">
<ele>15.249298</ele>
<time>2026-07-14T08:54:56.000Z</time>
</trkpt>
<trkpt lat="56.815782" lon="8.303198">
<ele>15.340297</ele>
<time>2026-07-14T08:54:57.000Z</time>
</trkpt>
<trkpt lat="56.815759" lon="8.303294">
<ele>15.429997</ele>
<time>2026-07-14T08:54:58.000Z</time>
</trkpt>
<trkpt lat="56.815738" lon="8.303389">
<ele>15.431879</ele>
<time>2026-07-14T08:54:59.000Z</time>
</trkpt>
<trkpt lat="56.815717" lon="8.303484">
<ele>15.407681</ele>
<time>2026-07-14T08:55:00.000Z</time>
</trkpt>
<trkpt lat="56.815698" lon="8.303582">
<ele>15.383126</ele>
<time>2026-07-14T08:55:01.000Z</time>
</trkpt>
<trkpt lat="56.815681" lon="8.303680">
<ele>15.358846</ele>
<time>2026-07-14T08:55:02.000Z</time>
</trkpt>
<trkpt lat="56.815666" lon="8.303779">
<ele>15.334585</ele>
<time>2026-07-14T08:55:03.000Z</time>
</trkpt>
<trkpt lat="56.815650" lon="8.303879">
<ele>15.309978</ele>
<time>2026-07-14T08:55:04.000Z</time>
</trkpt>
<trkpt lat="56.815635" lon="8.303973">
<ele>15.286853</ele>
<time>2026-07-14T08:55:05.000Z</time>
</trkpt>
<trkpt lat="56.815618" lon="8.304064">
<ele>15.264143</ele>
<time>2026-07-14T08:55:06.000Z</time>
</trkpt>
<trkpt lat="56.815603" lon="8.304155">
<ele>15.241698</ele>
<time>2026-07-14T08:55:07.000Z</time>
</trkpt>
<trkpt lat="56.815589" lon="8.304249">
<ele>15.218689</ele>
<time>2026-07-14T08:55:08.000Z</time>
</trkpt>
<trkpt lat="56.815576" lon="8.304345">
<ele>15.195333</ele>
<time>2026-07-14T08:55:09.000Z</time>
</trkpt>
<trkpt lat="56.815567" lon="8.304441">
<ele>15.172329</ele>
<time>2026-07-14T08:55:10.000Z</time>
</trkpt>
<trkpt lat="56.815559" lon="8.304535">
<ele>15.149861</ele>
<time>2026-07-14T08:55:11.000Z</time>
</trkpt>
<trkpt lat="56.815551" lon="8.304629">
<ele>15.127394</ele>
<time>2026-07-14T08:55:12.000Z</time>
</trkpt>
<trkpt lat="56.815542" lon="8.304726">
<ele>15.104157</ele>
<time>2026-07-14T08:55:13.000Z</time>
</trkpt>
<trkpt lat="56.815530" lon="8.304822">
<ele>15.080900</ele>
<time>2026-07-14T08:55:14.000Z</time>
</trkpt>
<trkpt lat="56.815519" lon="8.304914">
<ele>15.058659</ele>
<time>2026-07-14T08:55:15.000Z</time>
</trkpt>
<trkpt lat="56.815510" lon="8.305009">
<ele>15.035888</ele>
<time>2026-07-14T08:55:16.000Z</time>
</trkpt>
<trkpt lat="56.815500" lon="8.305105">
<ele>15.012808</ele>
<time>2026-07-14T08:55:17.000Z</time>
</trkpt>
<trkpt lat="56.815488" lon="8.305201">
<ele>14.989551</ele>
<time>2026-07-14T08:55:18.000Z</time>
</trkpt>
<trkpt lat="56.815479" lon="8.305296">
<ele>14.966780</ele>
<time>2026-07-14T08:55:19.000Z</time>
</trkpt>
<trkpt lat="56.815472" lon="8.305391">
<ele>14.944141</ele>
<time>2026-07-14T08:55:20.000Z</time>
</trkpt>
<trkpt lat="56.815464" lon="8.305490">
<ele>14.920505</ele>
<time>2026-07-14T08:55:21.000Z</time>
</trkpt>
<trkpt lat="56.815454" lon="8.305593">
<ele>14.895799</ele>
<time>2026-07-14T08:55:22.000Z</time>
</trkpt>
<trkpt lat="56.815445" lon="8.305698">
<ele>14.870698</ele>
<time>2026-07-14T08:55:23.000Z</time>
</trkpt>
<trkpt lat="56.815437" lon="8.305802">
<ele>14.845894</ele>
<time>2026-07-14T08:55:24.000Z</time>
</trkpt>
<trkpt lat="56.815428" lon="8.305900">
<ele>14.822424</ele>
<time>2026-07-14T08:55:25.000Z</time>
</trkpt>
<trkpt lat="56.815416" lon="8.306003">
<ele>14.797553</ele>
<time>2026-07-14T08:55:26.000Z</time>
</trkpt>
<trkpt lat="56.815407" lon="8.306108">
<ele>14.772451</ele>
<time>2026-07-14T08:55:27.000Z</time>
</trkpt>
<trkpt lat="56.815397" lon="8.306209">
<ele>14.748210</ele>
<time>2026-07-14T08:55:28.000Z</time>
</trkpt>
<trkpt lat="56.815390" lon="8.306308">
<ele>14.724634</ele>
<time>2026-07-14T08:55:29.000Z</time>
</trkpt>
<trkpt lat="56.815386" lon="8.306401">
<ele>14.702601</ele>
<time>2026-07-14T08:55:30.000Z</time>
</trkpt>
<trkpt lat="56.815384" lon="8.306490">
<ele>14.681563</ele>
<time>2026-07-14T08:55:31.000Z</time>
</trkpt>
<trkpt lat="56.815380" lon="8.306586">
<ele>14.670929</ele>
<time>2026-07-14T08:55:32.000Z</time>
</trkpt>
<trkpt lat="56.815372" lon="8.306691">
<ele>14.665468</ele>
<time>2026-07-14T08:55:33.000Z</time>
</trkpt>
<trkpt lat="56.815367" lon="8.306800">
<ele>14.659832</ele>
<time>2026-07-14T08:55:34.000Z</time>
</trkpt>
<trkpt lat="56.815359" lon="8.306909">
<ele>14.654166</ele>
<time>2026-07-14T08:55:35.000Z</time>
</trkpt>
<trkpt lat="56.815347" lon="8.307021">
<ele>14.648286</ele>
<time>2026-07-14T08:55:36.000Z</time>
</trkpt>
<trkpt lat="56.815334" lon="8.307139">
<ele>14.642085</ele>
<time>2026-07-14T08:55:37.000Z</time>
</trkpt>
<trkpt lat="56.815323" lon="8.307255">
<ele>14.636019</ele>
<time>2026-07-14T08:55:38.000Z</time>
</trkpt>
<trkpt lat="56.815315" lon="8.307369">
<ele>14.630098</ele>
<time>2026-07-14T08:55:39.000Z</time>
</trkpt>
<trkpt lat="56.815305" lon="8.307482">
<ele>14.624201</ele>
<time>2026-07-14T08:55:40.000Z</time>
</trkpt>
<trkpt lat="56.815294" lon="8.307596">
<ele>14.618237</ele>
<time>2026-07-14T08:55:41.000Z</time>
</trkpt>
<trkpt lat="56.815283" lon="8.307707">
<ele>14.612425</ele>
<time>2026-07-14T08:55:42.000Z</time>
</trkpt>
<trkpt lat="56.815271" lon="8.307817">
<ele>14.606646</ele>
<time>2026-07-14T08:55:43.000Z</time>
</trkpt>
<trkpt lat="56.815260" lon="8.307927">
<ele>14.600885</ele>
<time>2026-07-14T08:55:44.000Z</time>
</trkpt>
<trkpt lat="56.815250" lon="8.308035">
<ele>14.595242</ele>
<time>2026-07-14T08:55:45.000Z</time>
</trkpt>
<trkpt lat="56.815241" lon="8.308141">
<ele>14.589715</ele>
<time>2026-07-14T08:55:46.000Z</time>
</trkpt>
<trkpt lat="56.815229" lon="8.308248">
<ele>14.584088</ele>
<time>2026-07-14T08:55:47.000Z</time>
</trkpt>
<trkpt lat="56.815218" lon="8.308357">
<ele>14.578377</ele>
<time>2026-07-14T08:55:48.000Z</time>
</trkpt>
<trkpt lat="56.815208" lon="8.308464">
<ele>14.572785</ele>
<time>2026-07-14T08:55:49.000Z</time>
</trkpt>
<trkpt lat="56.815199" lon="8.308568">
<ele>14.567360</ele>
<time>2026-07-14T08:55:50.000Z</time>
</trkpt>
<trkpt lat="56.815189" lon="8.308671">
<ele>14.561970</ele>
<time>2026-07-14T08:55:51.000Z</time>
</trkpt>
<trkpt lat="56.815182" lon="8.308772">
<ele>14.556725</ele>
<time>2026-07-14T08:55:52.000Z</time>
</trkpt>
<trkpt lat="56.815172" lon="8.308872">
<ele>14.551488</ele>
<time>2026-07-14T08:55:53.000Z</time>
</trkpt>
<trkpt lat="56.815162" lon="8.308975">
<ele>14.546098</ele>
<time>2026-07-14T08:55:54.000Z</time>
</trkpt>
<trkpt lat="56.815155" lon="8.309074">
<ele>14.540955</ele>
<time>2026-07-14T08:55:55.000Z</time>
</trkpt>
<trkpt lat="56.815147" lon="8.309175">
<ele>14.535698</ele>
<time>2026-07-14T08:55:56.000Z</time>
</trkpt>
<trkpt lat="56.815140" lon="8.309281">
<ele>14.530197</ele>
<time>2026-07-14T08:55:57.000Z</time>
</trkpt>
<trkpt lat="56.815130" lon="8.309385">
<ele>14.524757</ele>
<time>2026-07-14T08:55:58.000Z</time>
</trkpt>
<trkpt lat="56.815120" lon="8.309489">
<ele>14.519316</ele>
<time>2026-07-14T08:55:59.000Z</time>
</trkpt>
<trkpt lat="56.815111" lon="8.309593">
<ele>14.513892</ele>
<time>2026-07-14T08:56:00.000Z</time>
</trkpt>
<trkpt lat="56.815101" lon="8.309695">
<ele>14.508553</ele>
<time>2026-07-14T08:56:01.000Z</time>
</trkpt>
<trkpt lat="56.815094" lon="8.309797">
<ele>14.485552</ele>
<time>2026-07-14T08:56:02.000Z</time>
</trkpt>
<trkpt lat="56.815084" lon="8.309899">
<ele>14.426039</ele>
<time>2026-07-14T08:56:03.000Z</time>
</trkpt>
<trkpt lat="56.815075" lon="8.310001">
<ele>14.366702</ele>
<time>2026-07-14T08:56:04.000Z</time>
</trkpt>
<trkpt lat="56.815067" lon="8.310100">
<ele>14.309228</ele>
<time>2026-07-14T08:56:05.000Z</time>
</trkpt>
<trkpt lat="56.815058" lon="8.310202">
<ele>14.249891</ele>
<time>2026-07-14T08:56:06.000Z</time>
</trkpt>
<trkpt lat="56.815048" lon="8.310306">
<ele>14.189247</ele>
<time>2026-07-14T08:56:07.000Z</time>
</trkpt>
<trkpt lat="56.815038" lon="8.310411">
<ele>14.128038</ele>
<time>2026-07-14T08:56:08.000Z</time>
</trkpt>
<trkpt lat="56.815029" lon="8.310516">
<ele>14.066999</ele>
<time>2026-07-14T08:56:09.000Z</time>
</trkpt>
<trkpt lat="56.815021" lon="8.310621">
<ele>14.006114</ele>
<time>2026-07-14T08:56:10.000Z</time>
</trkpt>
<trkpt lat="56.815012" lon="8.310729">
<ele>13.943373</ele>
<time>2026-07-14T08:56:11.000Z</time>
</trkpt>
<trkpt lat="56.815002" lon="8.310838">
<ele>13.879899</ele>
<time>2026-07-14T08:56:12.000Z</time>
</trkpt>
<trkpt lat="56.814993" lon="8.310946">
<ele>13.817157</ele>
<time>2026-07-14T08:56:13.000Z</time>
</trkpt>
<trkpt lat="56.814981" lon="8.311055">
<ele>13.753303</ele>
<time>2026-07-14T08:56:14.000Z</time>
</trkpt>
<trkpt lat="56.814970" lon="8.311164">
<ele>13.689646</ele>
<time>2026-07-14T08:56:15.000Z</time>
</trkpt>
<trkpt lat="56.814958" lon="8.311275">
<ele>13.624665</ele>
<time>2026-07-14T08:56:16.000Z</time>
</trkpt>
<trkpt lat="56.814947" lon="8.311385">
<ele>13.560444</ele>
<time>2026-07-14T08:56:17.000Z</time>
</trkpt>
<trkpt lat="56.814933" lon="8.311495">
<ele>13.495583</ele>
<time>2026-07-14T08:56:18.000Z</time>
</trkpt>
<trkpt lat="56.814920" lon="8.311607">
<ele>13.429829</ele>
<time>2026-07-14T08:56:19.000Z</time>
</trkpt>
<trkpt lat="56.814907" lon="8.311719">
<ele>13.364074</ele>
<time>2026-07-14T08:56:20.000Z</time>
</trkpt>
<trkpt lat="56.814891" lon="8.311832">
<ele>13.297040</ele>
<time>2026-07-14T08:56:21.000Z</time>
</trkpt>
<trkpt lat="56.814876" lon="8.311948">
<ele>13.228584</ele>
<time>2026-07-14T08:56:22.000Z</time>
</trkpt>
<trkpt lat="56.814861" lon="8.312063">
<ele>13.160688</ele>
<time>2026-07-14T08:56:23.000Z</time>
</trkpt>
<trkpt lat="56.814846" lon="8.312177">
<ele>13.093350</ele>
<time>2026-07-14T08:56:24.000Z</time>
</trkpt>
<trkpt lat="56.814831" lon="8.312293">
<ele>13.024894</ele>
<time>2026-07-14T08:56:25.000Z</time>
</trkpt>
<trkpt lat="56.814815" lon="8.312411">
<ele>12.955076</ele>
<time>2026-07-14T08:56:26.000Z</time>
</trkpt>
<trkpt lat="56.814800" lon="8.312523">
<ele>12.888854</ele>
<time>2026-07-14T08:56:27.000Z</time>
</trkpt>
<trkpt lat="56.814785" lon="8.312630">
<ele>12.825418</ele>
<time>2026-07-14T08:56:28.000Z</time>
</trkpt>
<trkpt lat="56.814770" lon="8.312738">
<ele>12.761425</ele>
<time>2026-07-14T08:56:29.000Z</time>
</trkpt>
<trkpt lat="56.814754" lon="8.312849">
<ele>12.695501</ele>
<time>2026-07-14T08:56:30.000Z</time>
</trkpt>
<trkpt lat="56.814739" lon="8.312961">
<ele>12.629279</ele>
<time>2026-07-14T08:56:31.000Z</time>
</trkpt>
<trkpt lat="56.814721" lon="8.313071">
<ele>12.605951</ele>
<time>2026-07-14T08:56:32.000Z</time>
</trkpt>
<trkpt lat="56.814704" lon="8.313180">
<ele>12.591872</ele>
<time>2026-07-14T08:56:33.000Z</time>
</trkpt>
<trkpt lat="56.814691" lon="8.313289">
<ele>12.578014</ele>
<time>2026-07-14T08:56:34.000Z</time>
</trkpt>
<trkpt lat="56.814678" lon="8.313396">
<ele>12.564399</ele>
<time>2026-07-14T08:56:35.000Z</time>
</trkpt>
<trkpt lat="56.814663" lon="8.313506">
<ele>12.550317</ele>
<time>2026-07-14T08:56:36.000Z</time>
</trkpt>
<trkpt lat="56.814649" lon="8.313618">
<ele>12.536046</ele>
<time>2026-07-14T08:56:37.000Z</time>
</trkpt>
<trkpt lat="56.814636" lon="8.313727">
<ele>12.522188</ele>
<time>2026-07-14T08:56:38.000Z</time>
</trkpt>
<trkpt lat="56.814621" lon="8.313831">
<ele>12.508828</ele>
<time>2026-07-14T08:56:39.000Z</time>
</trkpt>
<trkpt lat="56.814605" lon="8.313936">
<ele>12.495289</ele>
<time>2026-07-14T08:56:40.000Z</time>
</trkpt>
<trkpt lat="56.814592" lon="8.314040">
<ele>12.482037</ele>
<time>2026-07-14T08:56:41.000Z</time>
</trkpt>
<trkpt lat="56.814579" lon="8.314144">
<ele>12.468786</ele>
<time>2026-07-14T08:56:42.000Z</time>
</trkpt>
<trkpt lat="56.814565" lon="8.314249">
<ele>12.455361</ele>
<time>2026-07-14T08:56:43.000Z</time>
</trkpt>
<trkpt lat="56.814552" lon="8.314355">
<ele>12.441867</ele>
<time>2026-07-14T08:56:44.000Z</time>
</trkpt>
<trkpt lat="56.814537" lon="8.314463">
<ele>12.428026</ele>
<time>2026-07-14T08:56:45.000Z</time>
</trkpt>
<trkpt lat="56.814521" lon="8.314573">
<ele>12.413887</ele>
<time>2026-07-14T08:56:46.000Z</time>
</trkpt>
<trkpt lat="56.814506" lon="8.314682">
<ele>12.399926</ele>
<time>2026-07-14T08:56:47.000Z</time>
</trkpt>
<trkpt lat="56.814491" lon="8.314792">
<ele>12.385844</ele>
<time>2026-07-14T08:56:48.000Z</time>
</trkpt>
<trkpt lat="56.814475" lon="8.314903">
<ele>12.371585</ele>
<time>2026-07-14T08:56:49.000Z</time>
</trkpt>
<trkpt lat="56.814460" lon="8.315014">
<ele>12.357382</ele>
<time>2026-07-14T08:56:50.000Z</time>
</trkpt>
<trkpt lat="56.814445" lon="8.315125">
<ele>12.343180</ele>
<time>2026-07-14T08:56:51.000Z</time>
</trkpt>
<trkpt lat="56.814432" lon="8.315238">
<ele>12.328836</ele>
<time>2026-07-14T08:56:52.000Z</time>
</trkpt>
<trkpt lat="56.814418" lon="8.315350">
<ele>12.314565</ele>
<time>2026-07-14T08:56:53.000Z</time>
</trkpt>
<trkpt lat="56.814405" lon="8.315461">
<ele>12.300464</ele>
<time>2026-07-14T08:56:54.000Z</time>
</trkpt>
<trkpt lat="56.814394" lon="8.315572">
<ele>12.286452</ele>
<time>2026-07-14T08:56:55.000Z</time>
</trkpt>
<trkpt lat="56.814382" lon="8.315683">
<ele>12.272397</ele>
<time>2026-07-14T08:56:56.000Z</time>
</trkpt>
<trkpt lat="56.814369" lon="8.315793">
<ele>12.258417</ele>
<time>2026-07-14T08:56:57.000Z</time>
</trkpt>
<trkpt lat="56.814351" lon="8.315901">
<ele>12.244393</ele>
<time>2026-07-14T08:56:58.000Z</time>
</trkpt>
<trkpt lat="56.814334" lon="8.316009">
<ele>12.230433</ele>
<time>2026-07-14T08:56:59.000Z</time>
</trkpt>
<trkpt lat="56.814317" lon="8.316118">
<ele>12.216354</ele>
<time>2026-07-14T08:57:00.000Z</time>
</trkpt>
<trkpt lat="56.814298" lon="8.316228">
<ele>12.218651</ele>
<time>2026-07-14T08:57:01.000Z</time>
</trkpt>
<trkpt lat="56.814279" lon="8.316340">
<ele>12.236451</ele>
<time>2026-07-14T08:57:02.000Z</time>
</trkpt>
<trkpt lat="56.814262" lon="8.316454">
<ele>12.254387</ele>
<time>2026-07-14T08:57:03.000Z</time>
</trkpt>
<trkpt lat="56.814249" lon="8.316568">
<ele>12.272063</ele>
<time>2026-07-14T08:57:04.000Z</time>
</trkpt>
<trkpt lat="56.814237" lon="8.316682">
<ele>12.289685</ele>
<time>2026-07-14T08:57:05.000Z</time>
</trkpt>
<trkpt lat="56.814226" lon="8.316792">
<ele>12.306660</ele>
<time>2026-07-14T08:57:06.000Z</time>
</trkpt>
<trkpt lat="56.814214" lon="8.316899">
<ele>12.323240</ele>
<time>2026-07-14T08:57:07.000Z</time>
</trkpt>
<trkpt lat="56.814205" lon="8.317006">
<ele>12.339673</ele>
<time>2026-07-14T08:57:08.000Z</time>
</trkpt>
<trkpt lat="56.814195" lon="8.317112">
<ele>12.356001</ele>
<time>2026-07-14T08:57:09.000Z</time>
</trkpt>
<trkpt lat="56.814188" lon="8.317216">
<ele>12.371907</ele>
<time>2026-07-14T08:57:10.000Z</time>
</trkpt>
<trkpt lat="56.814184" lon="8.317320">
<ele>12.387733</ele>
<time>2026-07-14T08:57:11.000Z</time>
</trkpt>
<trkpt lat="56.814182" lon="8.317425">
<ele>12.403681</ele>
<time>2026-07-14T08:57:12.000Z</time>
</trkpt>
<trkpt lat="56.814182" lon="8.317529">
<ele>12.419468</ele>
<time>2026-07-14T08:57:13.000Z</time>
</trkpt>
<trkpt lat="56.814184" lon="8.317635">
<ele>12.435569</ele>
<time>2026-07-14T08:57:14.000Z</time>
</trkpt>
<trkpt lat="56.814190" lon="8.317742">
<ele>12.451896</ele>
<time>2026-07-14T08:57:15.000Z</time>
</trkpt>
<trkpt lat="56.814200" lon="8.317851">
<ele>12.468673</ele>
<time>2026-07-14T08:57:16.000Z</time>
</trkpt>
<trkpt lat="56.814209" lon="8.317959">
<ele>12.485256</ele>
<time>2026-07-14T08:57:17.000Z</time>
</trkpt>
<trkpt lat="56.814221" lon="8.318067">
<ele>12.501985</ele>
<time>2026-07-14T08:57:18.000Z</time>
</trkpt>
<trkpt lat="56.814236" lon="8.318175">
<ele>12.518899</ele>
<time>2026-07-14T08:57:19.000Z</time>
</trkpt>
<trkpt lat="56.814251" lon="8.318280">
<ele>12.535372</ele>
<time>2026-07-14T08:57:20.000Z</time>
</trkpt>
<trkpt lat="56.814269" lon="8.318387">
<ele>12.552364</ele>
<time>2026-07-14T08:57:21.000Z</time>
</trkpt>
<trkpt lat="56.814288" lon="8.318494">
<ele>12.569440</ele>
<time>2026-07-14T08:57:22.000Z</time>
</trkpt>
<trkpt lat="56.814307" lon="8.318599">
<ele>12.586227</ele>
<time>2026-07-14T08:57:23.000Z</time>
</trkpt>
<trkpt lat="56.814328" lon="8.318704">
<ele>12.603196</ele>
<time>2026-07-14T08:57:24.000Z</time>
</trkpt>
<trkpt lat="56.814351" lon="8.318809">
<ele>12.620364</ele>
<time>2026-07-14T08:57:25.000Z</time>
</trkpt>
<trkpt lat="56.814372" lon="8.318914">
<ele>12.637334</ele>
<time>2026-07-14T08:57:26.000Z</time>
</trkpt>
<trkpt lat="56.814393" lon="8.319016">
<ele>12.653876</ele>
<time>2026-07-14T08:57:27.000Z</time>
</trkpt>
<trkpt lat="56.814415" lon="8.319116">
<ele>12.670236</ele>
<time>2026-07-14T08:57:28.000Z</time>
</trkpt>
<trkpt lat="56.814439" lon="8.319215">
<ele>12.686672</ele>
<time>2026-07-14T08:57:29.000Z</time>
</trkpt>
<trkpt lat="56.814460" lon="8.319307">
<ele>12.701804</ele>
<time>2026-07-14T08:57:30.000Z</time>
</trkpt>
<trkpt lat="56.814481" lon="8.319398">
<ele>12.728894</ele>
<time>2026-07-14T08:57:31.000Z</time>
</trkpt>
<trkpt lat="56.814501" lon="8.319492">
<ele>12.766081</ele>
<time>2026-07-14T08:57:32.000Z</time>
</trkpt>
<trkpt lat="56.814523" lon="8.319589">
<ele>12.804797</ele>
<time>2026-07-14T08:57:33.000Z</time>
</trkpt>
<trkpt lat="56.814543" lon="8.319686">
<ele>12.843018</ele>
<time>2026-07-14T08:57:34.000Z</time>
</trkpt>
<trkpt lat="56.814562" lon="8.319782">
<ele>12.880659</ele>
<time>2026-07-14T08:57:35.000Z</time>
</trkpt>
<trkpt lat="56.814582" lon="8.319877">
<ele>12.918190</ele>
<time>2026-07-14T08:57:36.000Z</time>
</trkpt>
<trkpt lat="56.814601" lon="8.319970">
<ele>12.954793</ele>
<time>2026-07-14T08:57:37.000Z</time>
</trkpt>
<trkpt lat="56.814622" lon="8.320063">
<ele>12.991889</ele>
<time>2026-07-14T08:57:38.000Z</time>
</trkpt>
<trkpt lat="56.814643" lon="8.320157">
<ele>13.029325</ele>
<time>2026-07-14T08:57:39.000Z</time>
</trkpt>
<trkpt lat="56.814664" lon="8.320253">
<ele>13.067446</ele>
<time>2026-07-14T08:57:40.000Z</time>
</trkpt>
<trkpt lat="56.814685" lon="8.320349">
<ele>13.105566</ele>
<time>2026-07-14T08:57:41.000Z</time>
</trkpt>
<trkpt lat="56.814706" lon="8.320445">
<ele>13.143686</ele>
<time>2026-07-14T08:57:42.000Z</time>
</trkpt>
<trkpt lat="56.814729" lon="8.320541">
<ele>13.182327</ele>
<time>2026-07-14T08:57:43.000Z</time>
</trkpt>
<trkpt lat="56.814751" lon="8.320635">
<ele>13.220023</ele>
<time>2026-07-14T08:57:44.000Z</time>
</trkpt>
<trkpt lat="56.814774" lon="8.320731">
<ele>13.258664</ele>
<time>2026-07-14T08:57:45.000Z</time>
</trkpt>
<trkpt lat="56.814793" lon="8.320829">
<ele>13.296999</ele>
<time>2026-07-14T08:57:46.000Z</time>
</trkpt>
<trkpt lat="56.814810" lon="8.320927">
<ele>13.334906</ele>
<time>2026-07-14T08:57:47.000Z</time>
</trkpt>
<trkpt lat="56.814825" lon="8.321031">
<ele>13.374563</ele>
<time>2026-07-14T08:57:48.000Z</time>
</trkpt>
<trkpt lat="56.814837" lon="8.321141">
<ele>13.415921</ele>
<time>2026-07-14T08:57:49.000Z</time>
</trkpt>
<trkpt lat="56.814844" lon="8.321254">
<ele>13.457853</ele>
<time>2026-07-14T08:57:50.000Z</time>
</trkpt>
<trkpt lat="56.814842" lon="8.321373">
<ele>13.501753</ele>
<time>2026-07-14T08:57:51.000Z</time>
</trkpt>
<trkpt lat="56.814834" lon="8.321493">
<ele>13.546327</ele>
<time>2026-07-14T08:57:52.000Z</time>
</trkpt>
<trkpt lat="56.814825" lon="8.321609">
<ele>13.589527</ele>
<time>2026-07-14T08:57:53.000Z</time>
</trkpt>
<trkpt lat="56.814813" lon="8.321723">
<ele>13.632333</ele>
<time>2026-07-14T08:57:54.000Z</time>
</trkpt>
<trkpt lat="56.814798" lon="8.321833">
<ele>13.674133</ele>
<time>2026-07-14T08:57:55.000Z</time>
</trkpt>
<trkpt lat="56.814781" lon="8.321941">
<ele>13.715570</ele>
<time>2026-07-14T08:57:56.000Z</time>
</trkpt>
<trkpt lat="56.814765" lon="8.322048">
<ele>13.756470</ele>
<time>2026-07-14T08:57:57.000Z</time>
</trkpt>
<trkpt lat="56.814750" lon="8.322150">
<ele>13.795414</ele>
<time>2026-07-14T08:57:58.000Z</time>
</trkpt>
<trkpt lat="56.814737" lon="8.322249">
<ele>13.832954</ele>
<time>2026-07-14T08:57:59.000Z</time>
</trkpt>
<trkpt lat="56.814726" lon="8.322346">
<ele>13.869480</ele>
<time>2026-07-14T08:58:00.000Z</time>
</trkpt>
<trkpt lat="56.814716" lon="8.322438">
<ele>13.904066</ele>
<time>2026-07-14T08:58:01.000Z</time>
</trkpt>
<trkpt lat="56.814707" lon="8.322531">
<ele>13.949809</ele>
<time>2026-07-14T08:58:02.000Z</time>
</trkpt>
<trkpt lat="56.814697" lon="8.322627">
<ele>14.006689</ele>
<time>2026-07-14T08:58:03.000Z</time>
</trkpt>
<trkpt lat="56.814687" lon="8.322721">
<ele>14.062425</ele>
<time>2026-07-14T08:58:04.000Z</time>
</trkpt>
<trkpt lat="56.814676" lon="8.322815">
<ele>14.118373</ele>
<time>2026-07-14T08:58:05.000Z</time>
</trkpt>
<trkpt lat="56.814667" lon="8.322909">
<ele>14.173916</ele>
<time>2026-07-14T08:58:06.000Z</time>
</trkpt>
<trkpt lat="56.814657" lon="8.323004">
<ele>14.230224</ele>
<time>2026-07-14T08:58:07.000Z</time>
</trkpt>
<trkpt lat="56.814645" lon="8.323097">
<ele>14.285838</ele>
<time>2026-07-14T08:58:08.000Z</time>
</trkpt>
<trkpt lat="56.814632" lon="8.323190">
<ele>14.341705</ele>
<time>2026-07-14T08:58:09.000Z</time>
</trkpt>
<trkpt lat="56.814617" lon="8.323282">
<ele>14.397579</ele>
<time>2026-07-14T08:58:10.000Z</time>
</trkpt>
<trkpt lat="56.814603" lon="8.323373">
<ele>14.452597</ele>
<time>2026-07-14T08:58:11.000Z</time>
</trkpt>
<trkpt lat="56.814588" lon="8.323465">
<ele>14.508471</ele>
<time>2026-07-14T08:58:12.000Z</time>
</trkpt>
<trkpt lat="56.814573" lon="8.323558">
<ele>14.564902</ele>
<time>2026-07-14T08:58:13.000Z</time>
</trkpt>
<trkpt lat="56.814564" lon="8.323650">
<ele>14.619299</ele>
<time>2026-07-14T08:58:14.000Z</time>
</trkpt>
<trkpt lat="56.814554" lon="8.323743">
<ele>14.674464</ele>
<time>2026-07-14T08:58:15.000Z</time>
</trkpt>
<trkpt lat="56.814540" lon="8.323838">
<ele>14.731728</ele>
<time>2026-07-14T08:58:16.000Z</time>
</trkpt>
<trkpt lat="56.814527" lon="8.323935">
<ele>14.789854</ele>
<time>2026-07-14T08:58:17.000Z</time>
</trkpt>
<trkpt lat="56.814516" lon="8.324034">
<ele>14.848652</ele>
<time>2026-07-14T08:58:18.000Z</time>
</trkpt>
<trkpt lat="56.814502" lon="8.324133">
<ele>14.908167</ele>
<time>2026-07-14T08:58:19.000Z</time>
</trkpt>
<trkpt lat="56.814487" lon="8.324231">
<ele>14.967396</ele>
<time>2026-07-14T08:58:20.000Z</time>
</trkpt>
<trkpt lat="56.814472" lon="8.324330">
<ele>15.027186</ele>
<time>2026-07-14T08:58:21.000Z</time>
</trkpt>
<trkpt lat="56.814456" lon="8.324430">
<ele>15.087826</ele>
<time>2026-07-14T08:58:22.000Z</time>
</trkpt>
<trkpt lat="56.814445" lon="8.324529">
<ele>15.146624</ele>
<time>2026-07-14T08:58:23.000Z</time>
</trkpt>
<trkpt lat="56.814434" lon="8.324630">
<ele>15.206564</ele>
<time>2026-07-14T08:58:24.000Z</time>
</trkpt>
<trkpt lat="56.814418" lon="8.324729">
<ele>15.266646</ele>
<time>2026-07-14T08:58:25.000Z</time>
</trkpt>
<trkpt lat="56.814405" lon="8.324827">
<ele>15.325338</ele>
<time>2026-07-14T08:58:26.000Z</time>
</trkpt>
<trkpt lat="56.814392" lon="8.324927">
<ele>15.385162</ele>
<time>2026-07-14T08:58:27.000Z</time>
</trkpt>
<trkpt lat="56.814378" lon="8.325029">
<ele>15.446369</ele>
<time>2026-07-14T08:58:28.000Z</time>
</trkpt>
<trkpt lat="56.814367" lon="8.325132">
<ele>15.507451</ele>
<time>2026-07-14T08:58:29.000Z</time>
</trkpt>
<trkpt lat="56.814353" lon="8.325235">
<ele>15.569223</ele>
<time>2026-07-14T08:58:30.000Z</time>
</trkpt>
<trkpt lat="56.814338" lon="8.325338">
<ele>15.631260</ele>
<time>2026-07-14T08:58:31.000Z</time>
</trkpt>
<trkpt lat="56.814323" lon="8.325441">
<ele>15.693296</ele>
<time>2026-07-14T08:58:32.000Z</time>
</trkpt>
<trkpt lat="56.814308" lon="8.325546">
<ele>15.756459</ele>
<time>2026-07-14T08:58:33.000Z</time>
</trkpt>
<trkpt lat="56.814294" lon="8.325651">
<ele>15.819361</ele>
<time>2026-07-14T08:58:34.000Z</time>
</trkpt>
<trkpt lat="56.814281" lon="8.325754">
<ele>15.850613</ele>
<time>2026-07-14T08:58:35.000Z</time>
</trkpt>
<trkpt lat="56.814266" lon="8.325858">
<ele>15.873907</ele>
<time>2026-07-14T08:58:36.000Z</time>
</trkpt>
<trkpt lat="56.814250" lon="8.325962">
<ele>15.897305</ele>
<time>2026-07-14T08:58:37.000Z</time>
</trkpt>
<trkpt lat="56.814237" lon="8.326066">
<ele>15.920410</ele>
<time>2026-07-14T08:58:38.000Z</time>
</trkpt>
<trkpt lat="56.814224" lon="8.326170">
<ele>15.943515</ele>
<time>2026-07-14T08:58:39.000Z</time>
</trkpt>
<trkpt lat="56.814209" lon="8.326274">
<ele>15.966809</ele>
<time>2026-07-14T08:58:40.000Z</time>
</trkpt>
<trkpt lat="56.814195" lon="8.326377">
<ele>15.989795</ele>
<time>2026-07-14T08:58:41.000Z</time>
</trkpt>
<trkpt lat="56.814182" lon="8.326482">
<ele>16.013112</ele>
<time>2026-07-14T08:58:42.000Z</time>
</trkpt>
<trkpt lat="56.814166" lon="8.326585">
<ele>16.036301</ele>
<time>2026-07-14T08:58:43.000Z</time>
</trkpt>
<trkpt lat="56.814151" lon="8.326686">
<ele>16.058968</ele>
<time>2026-07-14T08:58:44.000Z</time>
</trkpt>
<trkpt lat="56.814136" lon="8.326788">
<ele>16.081843</ele>
<time>2026-07-14T08:58:45.000Z</time>
</trkpt>
<trkpt lat="56.814121" lon="8.326892">
<ele>16.105137</ele>
<time>2026-07-14T08:58:46.000Z</time>
</trkpt>
<trkpt lat="56.814108" lon="8.326996">
<ele>16.128243</ele>
<time>2026-07-14T08:58:47.000Z</time>
</trkpt>
<trkpt lat="56.814094" lon="8.327099">
<ele>16.151229</ele>
<time>2026-07-14T08:58:48.000Z</time>
</trkpt>
<trkpt lat="56.814081" lon="8.327204">
<ele>16.174545</ele>
<time>2026-07-14T08:58:49.000Z</time>
</trkpt>
<trkpt lat="56.814067" lon="8.327308">
<ele>16.197742</ele>
<time>2026-07-14T08:58:50.000Z</time>
</trkpt>
<trkpt lat="56.814052" lon="8.327407">
<ele>16.219990</ele>
<time>2026-07-14T08:58:51.000Z</time>
</trkpt>
<trkpt lat="56.814035" lon="8.327507">
<ele>16.242670</ele>
<time>2026-07-14T08:58:52.000Z</time>
</trkpt>
<trkpt lat="56.814018" lon="8.327607">
<ele>16.265349</ele>
<time>2026-07-14T08:58:53.000Z</time>
</trkpt>
<trkpt lat="56.814005" lon="8.327706">
<ele>16.287400</ele>
<time>2026-07-14T08:58:54.000Z</time>
</trkpt>
<trkpt lat="56.813995" lon="8.327802">
<ele>16.308566</ele>
<time>2026-07-14T08:58:55.000Z</time>
</trkpt>
<trkpt lat="56.813988" lon="8.327898">
<ele>16.329542</ele>
<time>2026-07-14T08:58:56.000Z</time>
</trkpt>
<trkpt lat="56.813980" lon="8.327996">
<ele>16.351003</ele>
<time>2026-07-14T08:58:57.000Z</time>
</trkpt>
<trkpt lat="56.813972" lon="8.328095">
<ele>16.372678</ele>
<time>2026-07-14T08:58:58.000Z</time>
</trkpt>
<trkpt lat="56.813967" lon="8.328194">
<ele>16.394211</ele>
<time>2026-07-14T08:58:59.000Z</time>
</trkpt>
<trkpt lat="56.813961" lon="8.328292">
<ele>16.415569</ele>
<time>2026-07-14T08:59:00.000Z</time>
</trkpt>
<trkpt lat="56.813955" lon="8.328396">
<ele>16.438220</ele>
<time>2026-07-14T08:59:01.000Z</time>
</trkpt>
<trkpt lat="56.813953" lon="8.328504">
<ele>16.461625</ele>
<time>2026-07-14T08:59:02.000Z</time>
</trkpt>
<trkpt lat="56.813957" lon="8.328612">
<ele>16.485070</ele>
<time>2026-07-14T08:59:03.000Z</time>
</trkpt>
<trkpt lat="56.813967" lon="8.328720">
<ele>16.508794</ele>
<time>2026-07-14T08:59:04.000Z</time>
</trkpt>
<trkpt lat="56.813983" lon="8.328824">
<ele>16.532192</ele>
<time>2026-07-14T08:59:05.000Z</time>
</trkpt>
<trkpt lat="56.814004" lon="8.328924">
<ele>16.539730</ele>
<time>2026-07-14T08:59:06.000Z</time>
</trkpt>
<trkpt lat="56.814031" lon="8.329019">
<ele>16.529894</ele>
<time>2026-07-14T08:59:07.000Z</time>
</trkpt>
<trkpt lat="56.814059" lon="8.329111">
<ele>16.520222</ele>
<time>2026-07-14T08:59:08.000Z</time>
</trkpt>
<trkpt lat="56.814090" lon="8.329199">
<ele>16.510607</ele>
<time>2026-07-14T08:59:09.000Z</time>
</trkpt>
<trkpt lat="56.814124" lon="8.329284">
<ele>16.500933</ele>
<time>2026-07-14T08:59:10.000Z</time>
</trkpt>
<trkpt lat="56.814159" lon="8.329369">
<ele>16.491160</ele>
<time>2026-07-14T08:59:11.000Z</time>
</trkpt>
<trkpt lat="56.814193" lon="8.329453">
<ele>16.481561</ele>
<time>2026-07-14T08:59:12.000Z</time>
</trkpt>
<trkpt lat="56.814229" lon="8.329536">
<ele>16.471830</ele>
<time>2026-07-14T08:59:13.000Z</time>
</trkpt>
<trkpt lat="56.814267" lon="8.329618">
<ele>16.461958</ele>
<time>2026-07-14T08:59:14.000Z</time>
</trkpt>
<trkpt lat="56.814306" lon="8.329702">
<ele>16.451838</ele>
<time>2026-07-14T08:59:15.000Z</time>
</trkpt>
<trkpt lat="56.814342" lon="8.329789">
<ele>16.441817</ele>
<time>2026-07-14T08:59:16.000Z</time>
</trkpt>
<trkpt lat="56.814376" lon="8.329877">
<ele>16.431919</ele>
<time>2026-07-14T08:59:17.000Z</time>
</trkpt>
<trkpt lat="56.814408" lon="8.329969">
<ele>16.421904</ele>
<time>2026-07-14T08:59:18.000Z</time>
</trkpt>
<trkpt lat="56.814437" lon="8.330065">
<ele>16.411829</ele>
<time>2026-07-14T08:59:19.000Z</time>
</trkpt>
<trkpt lat="56.814466" lon="8.330163">
<ele>16.401593</ele>
<time>2026-07-14T08:59:20.000Z</time>
</trkpt>
<trkpt lat="56.814492" lon="8.330260">
<ele>16.391669</ele>
<time>2026-07-14T08:59:21.000Z</time>
</trkpt>
<trkpt lat="56.814517" lon="8.330359">
<ele>16.381651</ele>
<time>2026-07-14T08:59:22.000Z</time>
</trkpt>
<trkpt lat="56.814542" lon="8.330459">
<ele>16.371550</ele>
<time>2026-07-14T08:59:23.000Z</time>
</trkpt>
<trkpt lat="56.814565" lon="8.330558">
<ele>16.361668</ele>
<time>2026-07-14T08:59:24.000Z</time>
</trkpt>
<trkpt lat="56.814587" lon="8.330656">
<ele>16.351936</ele>
<time>2026-07-14T08:59:25.000Z</time>
</trkpt>
<trkpt lat="56.814608" lon="8.330755">
<ele>16.342180</ele>
<time>2026-07-14T08:59:26.000Z</time>
</trkpt>
<trkpt lat="56.814629" lon="8.330856">
<ele>16.332253</ele>
<time>2026-07-14T08:59:27.000Z</time>
</trkpt>
<trkpt lat="56.814654" lon="8.330956">
<ele>16.322152</ele>
<time>2026-07-14T08:59:28.000Z</time>
</trkpt>
<trkpt lat="56.814679" lon="8.331056">
<ele>16.312051</ele>
<time>2026-07-14T08:59:29.000Z</time>
</trkpt>
<trkpt lat="56.814700" lon="8.331156">
<ele>16.302210</ele>
<time>2026-07-14T08:59:30.000Z</time>
</trkpt>
<trkpt lat="56.814723" lon="8.331255">
<ele>16.292328</ele>
<time>2026-07-14T08:59:31.000Z</time>
</trkpt>
<trkpt lat="56.814748" lon="8.331356">
<ele>16.282143</ele>
<time>2026-07-14T08:59:32.000Z</time>
</trkpt>
<trkpt lat="56.814770" lon="8.331457">
<ele>16.272155</ele>
<time>2026-07-14T08:59:33.000Z</time>
</trkpt>
<trkpt lat="56.814791" lon="8.331559">
<ele>16.262142</ele>
<time>2026-07-14T08:59:34.000Z</time>
</trkpt>
<trkpt lat="56.814812" lon="8.331660">
<ele>16.252215</ele>
<time>2026-07-14T08:59:35.000Z</time>
</trkpt>
<trkpt lat="56.814837" lon="8.331762">
<ele>16.248950</ele>
<time>2026-07-14T08:59:36.000Z</time>
</trkpt>
<trkpt lat="56.814862" lon="8.331865">
<ele>16.379193</ele>
<time>2026-07-14T08:59:37.000Z</time>
</trkpt>
<trkpt lat="56.814887" lon="8.331965">
<ele>16.506274</ele>
<time>2026-07-14T08:59:38.000Z</time>
</trkpt>
<trkpt lat="56.814912" lon="8.332065">
<ele>16.633354</ele>
<time>2026-07-14T08:59:39.000Z</time>
</trkpt>
<trkpt lat="56.814934" lon="8.332164">
<ele>16.756864</ele>
<time>2026-07-14T08:59:40.000Z</time>
</trkpt>
<trkpt lat="56.814957" lon="8.332262">
<ele>16.880121</ele>
<time>2026-07-14T08:59:41.000Z</time>
</trkpt>
<trkpt lat="56.814978" lon="8.332360">
<ele>17.001775</ele>
<time>2026-07-14T08:59:42.000Z</time>
</trkpt>
<trkpt lat="56.814999" lon="8.332455">
<ele>17.120206</ele>
<time>2026-07-14T08:59:43.000Z</time>
</trkpt>
<trkpt lat="56.815022" lon="8.332548">
<ele>17.238172</ele>
<time>2026-07-14T08:59:44.000Z</time>
</trkpt>
<trkpt lat="56.815043" lon="8.332639">
<ele>17.352330</ele>
<time>2026-07-14T08:59:45.000Z</time>
</trkpt>
<trkpt lat="56.815062" lon="8.332725">
<ele>17.459533</ele>
<time>2026-07-14T08:59:46.000Z</time>
</trkpt>
<trkpt lat="56.815081" lon="8.332807">
<ele>17.562463</ele>
<time>2026-07-14T08:59:47.000Z</time>
</trkpt>
<trkpt lat="56.815100" lon="8.332887">
<ele>17.663268</ele>
<time>2026-07-14T08:59:48.000Z</time>
</trkpt>
<trkpt lat="56.815119" lon="8.332966">
<ele>17.763013</ele>
<time>2026-07-14T08:59:49.000Z</time>
</trkpt>
<trkpt lat="56.815136" lon="8.333044">
<ele>17.860061</ele>
<time>2026-07-14T08:59:50.000Z</time>
</trkpt>
<trkpt lat="56.815154" lon="8.333120">
<ele>17.955784</ele>
<time>2026-07-14T08:59:51.000Z</time>
</trkpt>
<trkpt lat="56.815173" lon="8.333193">
<ele>18.049221</ele>
<time>2026-07-14T08:59:52.000Z</time>
</trkpt>
<trkpt lat="56.815190" lon="8.333268">
<ele>18.143056</ele>
<time>2026-07-14T08:59:53.000Z</time>
</trkpt>
<trkpt lat="56.815207" lon="8.333342">
<ele>18.235824</ele>
<time>2026-07-14T08:59:54.000Z</time>
</trkpt>
<trkpt lat="56.815224" lon="8.333413">
<ele>18.325404</ele>
<time>2026-07-14T08:59:55.000Z</time>
</trkpt>
<trkpt lat="56.815239" lon="8.333484">
<ele>18.413376</ele>
<time>2026-07-14T08:59:56.000Z</time>
</trkpt>
<trkpt lat="56.815257" lon="8.333553">
<ele>18.501731</ele>
<time>2026-07-14T08:59:57.000Z</time>
</trkpt>
<trkpt lat="56.815276" lon="8.333619">
<ele>18.587931</ele>
<time>2026-07-14T08:59:58.000Z</time>
</trkpt>
<trkpt lat="56.815295" lon="8.333683">
<ele>18.672092</ele>
<time>2026-07-14T08:59:59.000Z</time>
</trkpt>
<trkpt lat="56.815312" lon="8.333744">
<ele>18.751217</ele>
<time>2026-07-14T09:00:00.000Z</time>
</trkpt>
<trkpt lat="56.815327" lon="8.333808">
<ele>18.831694</ele>
<time>2026-07-14T09:00:01.000Z</time>
</trkpt>
<trkpt lat="56.815342" lon="8.333875">
<ele>18.915369</ele>
<time>2026-07-14T09:00:02.000Z</time>
</trkpt>
<trkpt lat="56.815358" lon="8.333944">
<ele>19.001990</ele>
<time>2026-07-14T09:00:03.000Z</time>
</trkpt>
<trkpt lat="56.815373" lon="8.334017">
<ele>19.092123</ele>
<time>2026-07-14T09:00:04.000Z</time>
</trkpt>
<trkpt lat="56.815388" lon="8.334091">
<ele>19.183339</ele>
<time>2026-07-14T09:00:05.000Z</time>
</trkpt>
<trkpt lat="56.815403" lon="8.334165">
<ele>19.274555</ele>
<time>2026-07-14T09:00:06.000Z</time>
</trkpt>
<trkpt lat="56.815423" lon="8.334241">
<ele>19.372031</ele>
<time>2026-07-14T09:00:07.000Z</time>
</trkpt>
<trkpt lat="56.815442" lon="8.334319">
<ele>19.470719</ele>
<time>2026-07-14T09:00:08.000Z</time>
</trkpt>
<trkpt lat="56.815459" lon="8.334398">
<ele>19.568841</ele>
<time>2026-07-14T09:00:09.000Z</time>
</trkpt>
<trkpt lat="56.815476" lon="8.334478">
<ele>19.668039</ele>
<time>2026-07-14T09:00:10.000Z</time>
</trkpt>
<trkpt lat="56.815493" lon="8.334560">
<ele>19.769396</ele>
<time>2026-07-14T09:00:11.000Z</time>
</trkpt>
<trkpt lat="56.815514" lon="8.334641">
<ele>19.872999</ele>
<time>2026-07-14T09:00:12.000Z</time>
</trkpt>
<trkpt lat="56.815535" lon="8.334721">
<ele>19.975557</ele>
<time>2026-07-14T09:00:13.000Z</time>
</trkpt>
<trkpt lat="56.815554" lon="8.334802">
<ele>20.074304</ele>
<time>2026-07-14T09:00:14.000Z</time>
</trkpt>
<trkpt lat="56.815575" lon="8.334883">
<ele>20.169031</ele>
<time>2026-07-14T09:00:15.000Z</time>
</trkpt>
<trkpt lat="56.815596" lon="8.334967">
<ele>20.266633</ele>
<time>2026-07-14T09:00:16.000Z</time>
</trkpt>
<trkpt lat="56.815613" lon="8.335054">
<ele>20.364267</ele>
<time>2026-07-14T09:00:17.000Z</time>
</trkpt>
<trkpt lat="56.815633" lon="8.335139">
<ele>20.462053</ele>
<time>2026-07-14T09:00:18.000Z</time>
</trkpt>
<trkpt lat="56.815653" lon="8.335224">
<ele>20.559839</ele>
<time>2026-07-14T09:00:19.000Z</time>
</trkpt>
<trkpt lat="56.815672" lon="8.335309">
<ele>20.656879</ele>
<time>2026-07-14T09:00:20.000Z</time>
</trkpt>
<trkpt lat="56.815689" lon="8.335394">
<ele>20.752525</ele>
<time>2026-07-14T09:00:21.000Z</time>
</trkpt>
<trkpt lat="56.815707" lon="8.335478">
<ele>20.847865</ele>
<time>2026-07-14T09:00:22.000Z</time>
</trkpt>
<trkpt lat="56.815726" lon="8.335560">
<ele>20.941977</ele>
<time>2026-07-14T09:00:23.000Z</time>
</trkpt>
<trkpt lat="56.815745" lon="8.335641">
<ele>21.035116</ele>
<time>2026-07-14T09:00:24.000Z</time>
</trkpt>
<trkpt lat="56.815764" lon="8.335720">
<ele>21.126316</ele>
<time>2026-07-14T09:00:25.000Z</time>
</trkpt>
<trkpt lat="56.815783" lon="8.335799">
<ele>21.217516</ele>
<time>2026-07-14T09:00:26.000Z</time>
</trkpt>
<trkpt lat="56.815802" lon="8.335879">
<ele>21.309685</ele>
<time>2026-07-14T09:00:27.000Z</time>
</trkpt>
<trkpt lat="56.815821" lon="8.335960">
<ele>21.402824</ele>
<time>2026-07-14T09:00:28.000Z</time>
</trkpt>
<trkpt lat="56.815838" lon="8.336041">
<ele>21.494510</ele>
<time>2026-07-14T09:00:29.000Z</time>
</trkpt>
<trkpt lat="56.815856" lon="8.336122">
<ele>21.586905</ele>
<time>2026-07-14T09:00:30.000Z</time>
</trkpt>
<trkpt lat="56.815873" lon="8.336204">
<ele>21.679579</ele>
<time>2026-07-14T09:00:31.000Z</time>
</trkpt>
<trkpt lat="56.815892" lon="8.336287">
<ele>21.774665</ele>
<time>2026-07-14T09:00:32.000Z</time>
</trkpt>
<trkpt lat="56.815913" lon="8.336366">
<ele>21.867485</ele>
<time>2026-07-14T09:00:33.000Z</time>
</trkpt>
<trkpt lat="56.815932" lon="8.336445">
<ele>21.958685</ele>
<time>2026-07-14T09:00:34.000Z</time>
</trkpt>
<trkpt lat="56.815951" lon="8.336523">
<ele>22.048918</ele>
<time>2026-07-14T09:00:35.000Z</time>
</trkpt>
<trkpt lat="56.815972" lon="8.336597">
<ele>22.137016</ele>
<time>2026-07-14T09:00:36.000Z</time>
</trkpt>
<trkpt lat="56.815997" lon="8.336666">
<ele>22.224472</ele>
<time>2026-07-14T09:00:37.000Z</time>
</trkpt>
<trkpt lat="56.816026" lon="8.336727">
<ele>22.309866</ele>
<time>2026-07-14T09:00:38.000Z</time>
</trkpt>
<trkpt lat="56.816058" lon="8.336776">
<ele>22.390490</ele>
<time>2026-07-14T09:00:39.000Z</time>
</trkpt>
<trkpt lat="56.816095" lon="8.336813">
<ele>22.471938</ele>
<time>2026-07-14T09:00:40.000Z</time>
</trkpt>
<trkpt lat="56.816132" lon="8.336842">
<ele>22.549682</ele>
<time>2026-07-14T09:00:41.000Z</time>
</trkpt>
<trkpt lat="56.816170" lon="8.336868">
<ele>22.628036</ele>
<time>2026-07-14T09:00:42.000Z</time>
</trkpt>
<trkpt lat="56.816210" lon="8.336894">
<ele>22.710018</ele>
<time>2026-07-14T09:00:43.000Z</time>
</trkpt>
<trkpt lat="56.816252" lon="8.336919">
<ele>22.795315</ele>
<time>2026-07-14T09:00:44.000Z</time>
</trkpt>
<trkpt lat="56.816292" lon="8.336941">
<ele>22.875978</ele>
<time>2026-07-14T09:00:45.000Z</time>
</trkpt>
<trkpt lat="56.816330" lon="8.336959">
<ele>22.951782</ele>
<time>2026-07-14T09:00:46.000Z</time>
</trkpt>
<trkpt lat="56.816371" lon="8.336976">
<ele>23.032966</ele>
<time>2026-07-14T09:00:47.000Z</time>
</trkpt>
<trkpt lat="56.816414" lon="8.336995">
<ele>23.118392</ele>
<time>2026-07-14T09:00:48.000Z</time>
</trkpt>
<trkpt lat="56.816457" lon="8.337015">
<ele>23.204073</ele>
<time>2026-07-14T09:00:49.000Z</time>
</trkpt>
<trkpt lat="56.816497" lon="8.337033">
<ele>23.283621</ele>
<time>2026-07-14T09:00:50.000Z</time>
</trkpt>
<trkpt lat="56.816537" lon="8.337050">
<ele>23.362923</ele>
<time>2026-07-14T09:00:51.000Z</time>
</trkpt>
<trkpt lat="56.816577" lon="8.337067">
<ele>23.442224</ele>
<time>2026-07-14T09:00:52.000Z</time>
</trkpt>
<trkpt lat="56.816621" lon="8.337084">
<ele>23.505185</ele>
<time>2026-07-14T09:00:53.000Z</time>
</trkpt>
<trkpt lat="56.816667" lon="8.337103">
<ele>23.450175</ele>
<time>2026-07-14T09:00:54.000Z</time>
</trkpt>
<trkpt lat="56.816711" lon="8.337125">
<ele>23.396965</ele>
<time>2026-07-14T09:00:55.000Z</time>
</trkpt>
<trkpt lat="56.816755" lon="8.337149">
<ele>23.343405</ele>
<time>2026-07-14T09:00:56.000Z</time>
</trkpt>
<trkpt lat="56.816801" lon="8.337173">
<ele>23.287604</ele>
<time>2026-07-14T09:00:57.000Z</time>
</trkpt>
<trkpt lat="56.816846" lon="8.337201">
<ele>23.232155</ele>
<time>2026-07-14T09:00:58.000Z</time>
</trkpt>
<trkpt lat="56.816894" lon="8.337230">
<ele>23.173185</ele>
<time>2026-07-14T09:00:59.000Z</time>
</trkpt>
<trkpt lat="56.816944" lon="8.337256">
<ele>23.112548</ele>
<time>2026-07-14T09:01:00.000Z</time>
</trkpt>
<trkpt lat="56.816993" lon="8.337282">
<ele>23.053032</ele>
<time>2026-07-14T09:01:01.000Z</time>
</trkpt>
<trkpt lat="56.817043" lon="8.337309">
<ele>22.992217</ele>
<time>2026-07-14T09:01:02.000Z</time>
</trkpt>
<trkpt lat="56.817095" lon="8.337335">
<ele>22.929333</ele>
<time>2026-07-14T09:01:03.000Z</time>
</trkpt>
<trkpt lat="56.817148" lon="8.337363">
<ele>22.864980</ele>
<time>2026-07-14T09:01:04.000Z</time>
</trkpt>
<trkpt lat="56.817201" lon="8.337391">
<ele>22.800627</ele>
<time>2026-07-14T09:01:05.000Z</time>
</trkpt>
<trkpt lat="56.817254" lon="8.337419">
<ele>22.736275</ele>
<time>2026-07-14T09:01:06.000Z</time>
</trkpt>
<trkpt lat="56.817308" lon="8.337444">
<ele>22.671297</ele>
<time>2026-07-14T09:01:07.000Z</time>
</trkpt>
<trkpt lat="56.817362" lon="8.337470">
<ele>22.606160</ele>
<time>2026-07-14T09:01:08.000Z</time>
</trkpt>
<trkpt lat="56.817415" lon="8.337500">
<ele>22.541441</ele>
<time>2026-07-14T09:01:09.000Z</time>
</trkpt>
<trkpt lat="56.817468" lon="8.337530">
<ele>22.476722</ele>
<time>2026-07-14T09:01:10.000Z</time>
</trkpt>
<trkpt lat="56.817522" lon="8.337558">
<ele>22.411248</ele>
<time>2026-07-14T09:01:11.000Z</time>
</trkpt>
<trkpt lat="56.817573" lon="8.337583">
<ele>22.349657</ele>
<time>2026-07-14T09:01:12.000Z</time>
</trkpt>
<trkpt lat="56.817625" lon="8.337607">
<ele>22.287098</ele>
<time>2026-07-14T09:01:13.000Z</time>
</trkpt>
<trkpt lat="56.817676" lon="8.337631">
<ele>22.225669</ele>
<time>2026-07-14T09:01:14.000Z</time>
</trkpt>
<trkpt lat="56.817726" lon="8.337656">
<ele>22.165203</ele>
<time>2026-07-14T09:01:15.000Z</time>
</trkpt>
<trkpt lat="56.817773" lon="8.337684">
<ele>22.107541</ele>
<time>2026-07-14T09:01:16.000Z</time>
</trkpt>
<trkpt lat="56.817821" lon="8.337711">
<ele>22.048960</ele>
<time>2026-07-14T09:01:17.000Z</time>
</trkpt>
<trkpt lat="56.817869" lon="8.337737">
<ele>21.990563</ele>
<time>2026-07-14T09:01:18.000Z</time>
</trkpt>
<trkpt lat="56.817915" lon="8.337760">
<ele>21.934935</ele>
<time>2026-07-14T09:01:19.000Z</time>
</trkpt>
<trkpt lat="56.817960" lon="8.337782">
<ele>21.880599</ele>
<time>2026-07-14T09:01:20.000Z</time>
</trkpt>
<trkpt lat="56.818004" lon="8.337804">
<ele>21.827390</ele>
<time>2026-07-14T09:01:21.000Z</time>
</trkpt>
<trkpt lat="56.818046" lon="8.337826">
<ele>21.776427</ele>
<time>2026-07-14T09:01:22.000Z</time>
</trkpt>
<trkpt lat="56.818088" lon="8.337848">
<ele>21.725463</ele>
<time>2026-07-14T09:01:23.000Z</time>
</trkpt>
<trkpt lat="56.818127" lon="8.337876">
<ele>21.676587</ele>
<time>2026-07-14T09:01:24.000Z</time>
</trkpt>
<trkpt lat="56.818167" lon="8.337902">
<ele>21.627066</ele>
<time>2026-07-14T09:01:25.000Z</time>
</trkpt>
<trkpt lat="56.818208" lon="8.337920">
<ele>21.577881</ele>
<time>2026-07-14T09:01:26.000Z</time>
</trkpt>
<trkpt lat="56.818248" lon="8.337933">
<ele>21.530492</ele>
<time>2026-07-14T09:01:27.000Z</time>
</trkpt>
<trkpt lat="56.818288" lon="8.337945">
<ele>21.483211</ele>
<time>2026-07-14T09:01:28.000Z</time>
</trkpt>
<trkpt lat="56.818324" lon="8.337961">
<ele>21.439995</ele>
<time>2026-07-14T09:01:29.000Z</time>
</trkpt>
<trkpt lat="56.818354" lon="8.337981">
<ele>21.392452</ele>
<time>2026-07-14T09:01:30.000Z</time>
</trkpt>
<trkpt lat="56.818373" lon="8.337998">
<ele>21.348895</ele>
<time>2026-07-14T09:01:31.000Z</time>
</trkpt>
<trkpt lat="56.818386" lon="8.338004">
<ele>21.321289</ele>
<time>2026-07-14T09:02:00.000Z</time>
</trkpt>
<trkpt lat="56.818398" lon="8.338005">
<ele>21.296557</ele>
<time>2026-07-14T09:02:01.000Z</time>
</trkpt>
<trkpt lat="56.818421" lon="8.338013">
<ele>21.248352</ele>
<time>2026-07-14T09:02:02.000Z</time>
</trkpt>
<trkpt lat="56.818448" lon="8.338027">
<ele>21.190568</ele>
<time>2026-07-14T09:02:03.000Z</time>
</trkpt>
<trkpt lat="56.818481" lon="8.338045">
<ele>21.119662</ele>
<time>2026-07-14T09:02:04.000Z</time>
</trkpt>
<trkpt lat="56.818519" lon="8.338064">
<ele>21.038549</ele>
<time>2026-07-14T09:02:05.000Z</time>
</trkpt>
<trkpt lat="56.818561" lon="8.338085">
<ele>20.948897</ele>
<time>2026-07-14T09:02:06.000Z</time>
</trkpt>
<trkpt lat="56.818607" lon="8.338107">
<ele>20.850999</ele>
<time>2026-07-14T09:02:07.000Z</time>
</trkpt>
<trkpt lat="56.818657" lon="8.338131">
<ele>20.744563</ele>
<time>2026-07-14T09:02:08.000Z</time>
</trkpt>
<trkpt lat="56.818708" lon="8.338156">
<ele>20.635847</ele>
<time>2026-07-14T09:02:09.000Z</time>
</trkpt>
<trkpt lat="56.818764" lon="8.338183">
<ele>20.516604</ele>
<time>2026-07-14T09:02:10.000Z</time>
</trkpt>
<trkpt lat="56.818821" lon="8.338213">
<ele>20.394477</ele>
<time>2026-07-14T09:02:11.000Z</time>
</trkpt>
<trkpt lat="56.818878" lon="8.338243">
<ele>20.272350</ele>
<time>2026-07-14T09:02:12.000Z</time>
</trkpt>
<trkpt lat="56.818938" lon="8.338273">
<ele>20.144276</ele>
<time>2026-07-14T09:02:13.000Z</time>
</trkpt>
<trkpt lat="56.818999" lon="8.338302">
<ele>20.014504</ele>
<time>2026-07-14T09:02:14.000Z</time>
</trkpt>
<trkpt lat="56.819062" lon="8.338330">
<ele>19.881013</ele>
<time>2026-07-14T09:02:15.000Z</time>
</trkpt>
<trkpt lat="56.819122" lon="8.338360">
<ele>19.752940</ele>
<time>2026-07-14T09:02:16.000Z</time>
</trkpt>
<trkpt lat="56.819181" lon="8.338390">
<ele>19.626851</ele>
<time>2026-07-14T09:02:17.000Z</time>
</trkpt>
<trkpt lat="56.819243" lon="8.338420">
<ele>19.494801</ele>
<time>2026-07-14T09:02:18.000Z</time>
</trkpt>
<trkpt lat="56.819302" lon="8.338452">
<ele>19.368089</ele>
<time>2026-07-14T09:02:19.000Z</time>
</trkpt>
<trkpt lat="56.819359" lon="8.338483">
<ele>19.245645</ele>
<time>2026-07-14T09:02:20.000Z</time>
</trkpt>
<trkpt lat="56.819416" lon="8.338514">
<ele>19.123202</ele>
<time>2026-07-14T09:02:21.000Z</time>
</trkpt>
<trkpt lat="56.819473" lon="8.338544">
<ele>19.001075</ele>
<time>2026-07-14T09:02:22.000Z</time>
</trkpt>
<trkpt lat="56.819530" lon="8.338575">
<ele>18.878631</ele>
<time>2026-07-14T09:02:23.000Z</time>
</trkpt>
<trkpt lat="56.819590" lon="8.338607">
<ele>18.749945</ele>
<time>2026-07-14T09:02:24.000Z</time>
</trkpt>
<trkpt lat="56.819651" lon="8.338641">
<ele>18.618641</ele>
<time>2026-07-14T09:02:25.000Z</time>
</trkpt>
<trkpt lat="56.819709" lon="8.338675">
<ele>18.493231</ele>
<time>2026-07-14T09:02:26.000Z</time>
</trkpt>
<trkpt lat="56.819765" lon="8.338708">
<ele>18.372087</ele>
<time>2026-07-14T09:02:27.000Z</time>
</trkpt>
<trkpt lat="56.819822" lon="8.338741">
<ele>18.248982</ele>
<time>2026-07-14T09:02:28.000Z</time>
</trkpt>
<trkpt lat="56.819883" lon="8.338774">
<ele>18.118002</ele>
<time>2026-07-14T09:02:29.000Z</time>
</trkpt>
<trkpt lat="56.819946" lon="8.338809">
<ele>17.982431</ele>
<time>2026-07-14T09:02:30.000Z</time>
</trkpt>
<trkpt lat="56.820009" lon="8.338845">
<ele>17.846527</ele>
<time>2026-07-14T09:02:31.000Z</time>
</trkpt>
<trkpt lat="56.820068" lon="8.338882">
<ele>17.718099</ele>
<time>2026-07-14T09:02:32.000Z</time>
</trkpt>
<trkpt lat="56.820130" lon="8.338919">
<ele>17.677347</ele>
<time>2026-07-14T09:02:33.000Z</time>
</trkpt>
<trkpt lat="56.820192" lon="8.338956">
<ele>17.640263</ele>
<time>2026-07-14T09:02:34.000Z</time>
</trkpt>
<trkpt lat="56.820251" lon="8.338993">
<ele>17.604797</ele>
<time>2026-07-14T09:02:35.000Z</time>
</trkpt>
<trkpt lat="56.820310" lon="8.339034">
<ele>17.568908</ele>
<time>2026-07-14T09:02:36.000Z</time>
</trkpt>
<trkpt lat="56.820371" lon="8.339080">
<ele>17.531388</ele>
<time>2026-07-14T09:02:37.000Z</time>
</trkpt>
<trkpt lat="56.820431" lon="8.339128">
<ele>17.494148</ele>
<time>2026-07-14T09:02:38.000Z</time>
</trkpt>
<trkpt lat="56.820488" lon="8.339178">
<ele>17.458199</ele>
<time>2026-07-14T09:02:39.000Z</time>
</trkpt>
<trkpt lat="56.820543" lon="8.339232">
<ele>17.422699</ele>
<time>2026-07-14T09:02:40.000Z</time>
</trkpt>
<trkpt lat="56.820597" lon="8.339289">
<ele>17.387242</ele>
<time>2026-07-14T09:02:41.000Z</time>
</trkpt>
<trkpt lat="56.820650" lon="8.339345">
<ele>17.352433</ele>
<time>2026-07-14T09:02:42.000Z</time>
</trkpt>
<trkpt lat="56.820701" lon="8.339401">
<ele>17.318604</ele>
<time>2026-07-14T09:02:43.000Z</time>
</trkpt>
<trkpt lat="56.820753" lon="8.339457">
<ele>17.284285</ele>
<time>2026-07-14T09:02:44.000Z</time>
</trkpt>
<trkpt lat="56.820804" lon="8.339514">
<ele>17.250295</ele>
<time>2026-07-14T09:02:45.000Z</time>
</trkpt>
<trkpt lat="56.820854" lon="8.339572">
<ele>17.216622</ele>
<time>2026-07-14T09:02:46.000Z</time>
</trkpt>
<trkpt lat="56.820905" lon="8.339631">
<ele>17.182302</ele>
<time>2026-07-14T09:02:47.000Z</time>
</trkpt>
<trkpt lat="56.820957" lon="8.339690">
<ele>17.147501</ele>
<time>2026-07-14T09:02:48.000Z</time>
</trkpt>
<trkpt lat="56.821009" lon="8.339747">
<ele>17.113024</ele>
<time>2026-07-14T09:02:49.000Z</time>
</trkpt>
<trkpt lat="56.821062" lon="8.339804">
<ele>17.078058</ele>
<time>2026-07-14T09:02:50.000Z</time>
</trkpt>
<trkpt lat="56.821115" lon="8.339859">
<ele>17.043404</ele>
<time>2026-07-14T09:02:51.000Z</time>
</trkpt>
<trkpt lat="56.821168" lon="8.339913">
<ele>17.008902</ele>
<time>2026-07-14T09:02:52.000Z</time>
</trkpt>
<trkpt lat="56.821222" lon="8.339965">
<ele>16.974197</ele>
<time>2026-07-14T09:02:53.000Z</time>
</trkpt>
<trkpt lat="56.821275" lon="8.340018">
<ele>16.939846</ele>
<time>2026-07-14T09:02:54.000Z</time>
</trkpt>
<trkpt lat="56.821327" lon="8.340071">
<ele>16.905993</ele>
<time>2026-07-14T09:02:55.000Z</time>
</trkpt>
<trkpt lat="56.821379" lon="8.340126">
<ele>16.871832</ele>
<time>2026-07-14T09:02:56.000Z</time>
</trkpt>
<trkpt lat="56.821432" lon="8.340180">
<ele>16.837330</ele>
<time>2026-07-14T09:02:57.000Z</time>
</trkpt>
<trkpt lat="56.821483" lon="8.340231">
<ele>16.804275</ele>
<time>2026-07-14T09:02:58.000Z</time>
</trkpt>
<trkpt lat="56.821535" lon="8.340282">
<ele>16.770720</ele>
<time>2026-07-14T09:02:59.000Z</time>
</trkpt>
<trkpt lat="56.821589" lon="8.340334">
<ele>16.736015</ele>
<time>2026-07-14T09:03:00.000Z</time>
</trkpt>
<trkpt lat="56.821642" lon="8.340387">
<ele>16.701664</ele>
<time>2026-07-14T09:03:01.000Z</time>
</trkpt>
<trkpt lat="56.821693" lon="8.340439">
<ele>16.698693</ele>
<time>2026-07-14T09:03:02.000Z</time>
</trkpt>
<trkpt lat="56.821745" lon="8.340490">
<ele>16.711410</ele>
<time>2026-07-14T09:03:03.000Z</time>
</trkpt>
<trkpt lat="56.821798" lon="8.340540">
<ele>16.724263</ele>
<time>2026-07-14T09:03:04.000Z</time>
</trkpt>
<trkpt lat="56.821852" lon="8.340590">
<ele>16.737307</ele>
<time>2026-07-14T09:03:05.000Z</time>
</trkpt>
<trkpt lat="56.821907" lon="8.340638">
<ele>16.750441</ele>
<time>2026-07-14T09:03:06.000Z</time>
</trkpt>
<trkpt lat="56.821966" lon="8.340685">
<ele>16.764310</ele>
<time>2026-07-14T09:03:07.000Z</time>
</trkpt>
<trkpt lat="56.822025" lon="8.340732">
<ele>16.778179</ele>
<time>2026-07-14T09:03:08.000Z</time>
</trkpt>
<trkpt lat="56.822082" lon="8.340776">
<ele>16.791512</ele>
<time>2026-07-14T09:03:09.000Z</time>
</trkpt>
<trkpt lat="56.822142" lon="8.340820">
<ele>16.805444</ele>
<time>2026-07-14T09:03:10.000Z</time>
</trkpt>
<trkpt lat="56.822200" lon="8.340864">
<ele>16.818976</ele>
<time>2026-07-14T09:03:11.000Z</time>
</trkpt>
<trkpt lat="56.822260" lon="8.340907">
<ele>16.832863</ele>
<time>2026-07-14T09:03:12.000Z</time>
</trkpt>
<trkpt lat="56.822319" lon="8.340949">
<ele>16.846508</ele>
<time>2026-07-14T09:03:13.000Z</time>
</trkpt>
<trkpt lat="56.822376" lon="8.340990">
<ele>16.859707</ele>
<time>2026-07-14T09:03:14.000Z</time>
</trkpt>
<trkpt lat="56.822433" lon="8.341031">
<ele>16.872907</ele>
<time>2026-07-14T09:03:15.000Z</time>
</trkpt>
<trkpt lat="56.822489" lon="8.341070">
<ele>16.885821</ele>
<time>2026-07-14T09:03:16.000Z</time>
</trkpt>
<trkpt lat="56.822544" lon="8.341109">
<ele>16.898533</ele>
<time>2026-07-14T09:03:17.000Z</time>
</trkpt>
<trkpt lat="56.822601" lon="8.341148">
<ele>16.911648</ele>
<time>2026-07-14T09:03:18.000Z</time>
</trkpt>
<trkpt lat="56.822656" lon="8.341186">
<ele>16.924319</ele>
<time>2026-07-14T09:03:19.000Z</time>
</trkpt>
<trkpt lat="56.822712" lon="8.341224">
<ele>16.937191</ele>
<time>2026-07-14T09:03:20.000Z</time>
</trkpt>
<trkpt lat="56.822767" lon="8.341263">
<ele>16.949903</ele>
<time>2026-07-14T09:03:21.000Z</time>
</trkpt>
<trkpt lat="56.822820" lon="8.341303">
<ele>16.962260</ele>
<time>2026-07-14T09:03:22.000Z</time>
</trkpt>
<trkpt lat="56.822874" lon="8.341343">
<ele>16.974815</ele>
<time>2026-07-14T09:03:23.000Z</time>
</trkpt>
<trkpt lat="56.822927" lon="8.341382">
<ele>16.987127</ele>
<time>2026-07-14T09:03:24.000Z</time>
</trkpt>
<trkpt lat="56.822983" lon="8.341420">
<ele>16.999999</ele>
<time>2026-07-14T09:03:25.000Z</time>
</trkpt>
<trkpt lat="56.823040" lon="8.341456">
<ele>17.012994</ele>
<time>2026-07-14T09:03:26.000Z</time>
</trkpt>
<trkpt lat="56.823095" lon="8.341493">
<ele>17.025624</ele>
<time>2026-07-14T09:03:27.000Z</time>
</trkpt>
<trkpt lat="56.823148" lon="8.341528">
<ele>17.037767</ele>
<time>2026-07-14T09:03:28.000Z</time>
</trkpt>
<trkpt lat="56.823202" lon="8.341564">
<ele>17.050153</ele>
<time>2026-07-14T09:03:29.000Z</time>
</trkpt>
<trkpt lat="56.823256" lon="8.341601">
<ele>17.062580</ele>
<time>2026-07-14T09:03:30.000Z</time>
</trkpt>
<trkpt lat="56.823311" lon="8.341638">
<ele>17.075209</ele>
<time>2026-07-14T09:03:31.000Z</time>
</trkpt>
<trkpt lat="56.823366" lon="8.341673">
<ele>17.124976</ele>
<time>2026-07-14T09:03:32.000Z</time>
</trkpt>
<trkpt lat="56.823417" lon="8.341709">
<ele>17.181499</ele>
<time>2026-07-14T09:03:33.000Z</time>
</trkpt>
<trkpt lat="56.823471" lon="8.341744">
<ele>17.240734</ele>
<time>2026-07-14T09:03:34.000Z</time>
</trkpt>
<trkpt lat="56.823526" lon="8.341777">
<ele>17.300581</ele>
<time>2026-07-14T09:03:35.000Z</time>
</trkpt>
<trkpt lat="56.823579" lon="8.341811">
<ele>17.358653</ele>
<time>2026-07-14T09:03:36.000Z</time>
</trkpt>
<trkpt lat="56.823631" lon="8.341846">
<ele>17.415943</ele>
<time>2026-07-14T09:03:37.000Z</time>
</trkpt>
<trkpt lat="56.823679" lon="8.341883">
<ele>17.469802</ele>
<time>2026-07-14T09:03:38.000Z</time>
</trkpt>
<trkpt lat="56.823728" lon="8.341918">
<ele>17.524192</ele>
<time>2026-07-14T09:03:39.000Z</time>
</trkpt>
<trkpt lat="56.823780" lon="8.341950">
<ele>17.580918</ele>
<time>2026-07-14T09:03:40.000Z</time>
</trkpt>
<trkpt lat="56.823830" lon="8.341985">
<ele>17.636273</ele>
<time>2026-07-14T09:03:41.000Z</time>
</trkpt>
<trkpt lat="56.823879" lon="8.342023">
<ele>17.691304</ele>
<time>2026-07-14T09:03:42.000Z</time>
</trkpt>
<trkpt lat="56.823929" lon="8.342066">
<ele>17.748434</ele>
<time>2026-07-14T09:03:43.000Z</time>
</trkpt>
<trkpt lat="56.823978" lon="8.342109">
<ele>17.804630</ele>
<time>2026-07-14T09:03:44.000Z</time>
</trkpt>
<trkpt lat="56.824027" lon="8.342151">
<ele>17.860584</ele>
<time>2026-07-14T09:03:45.000Z</time>
</trkpt>
<trkpt lat="56.824079" lon="8.342195">
<ele>17.919827</ele>
<time>2026-07-14T09:03:46.000Z</time>
</trkpt>
<trkpt lat="56.824131" lon="8.342242">
<ele>17.979803</ele>
<time>2026-07-14T09:03:47.000Z</time>
</trkpt>
<trkpt lat="56.824180" lon="8.342290">
<ele>18.037280</ele>
<time>2026-07-14T09:03:48.000Z</time>
</trkpt>
<trkpt lat="56.824231" lon="8.342336">
<ele>18.096078</ele>
<time>2026-07-14T09:03:49.000Z</time>
</trkpt>
<trkpt lat="56.824285" lon="8.342382">
<ele>18.157673</ele>
<time>2026-07-14T09:03:50.000Z</time>
</trkpt>
<trkpt lat="56.824337" lon="8.342427">
<ele>18.217156</ele>
<time>2026-07-14T09:03:51.000Z</time>
</trkpt>
<trkpt lat="56.824389" lon="8.342473">
<ele>18.276883</ele>
<time>2026-07-14T09:03:52.000Z</time>
</trkpt>
<trkpt lat="56.824442" lon="8.342521">
<ele>18.338036</ele>
<time>2026-07-14T09:03:53.000Z</time>
</trkpt>
<trkpt lat="56.824495" lon="8.342568">
<ele>18.398940</ele>
<time>2026-07-14T09:03:54.000Z</time>
</trkpt>
<trkpt lat="56.824547" lon="8.342616">
<ele>18.459169</ele>
<time>2026-07-14T09:03:55.000Z</time>
</trkpt>
<trkpt lat="56.824598" lon="8.342665">
<ele>18.518738</ele>
<time>2026-07-14T09:03:56.000Z</time>
</trkpt>
<trkpt lat="56.824651" lon="8.342713">
<ele>18.579891</ele>
<time>2026-07-14T09:03:57.000Z</time>
</trkpt>
<trkpt lat="56.824705" lon="8.342761">
<ele>18.641972</ele>
<time>2026-07-14T09:03:58.000Z</time>
</trkpt>
<trkpt lat="56.824758" lon="8.342807">
<ele>18.702631</ele>
<time>2026-07-14T09:03:59.000Z</time>
</trkpt>
<trkpt lat="56.824811" lon="8.342854">
<ele>18.763535</ele>
<time>2026-07-14T09:04:00.000Z</time>
</trkpt>
<trkpt lat="56.824863" lon="8.342902">
<ele>18.823764</ele>
<time>2026-07-14T09:04:01.000Z</time>
</trkpt>
<trkpt lat="56.824914" lon="8.342950">
<ele>18.883071</ele>
<time>2026-07-14T09:04:02.000Z</time>
</trkpt>
<trkpt lat="56.824966" lon="8.342996">
<ele>18.941204</ele>
<time>2026-07-14T09:04:03.000Z</time>
</trkpt>
<trkpt lat="56.825015" lon="8.343040">
<ele>18.980756</ele>
<time>2026-07-14T09:04:04.000Z</time>
</trkpt>
<trkpt lat="56.825065" lon="8.343084">
<ele>19.020960</ele>
<time>2026-07-14T09:04:05.000Z</time>
</trkpt>
<trkpt lat="56.825114" lon="8.343127">
<ele>19.060339</ele>
<time>2026-07-14T09:04:06.000Z</time>
</trkpt>
<trkpt lat="56.825164" lon="8.343169">
<ele>19.100205</ele>
<time>2026-07-14T09:04:07.000Z</time>
</trkpt>
<trkpt lat="56.825212" lon="8.343210">
<ele>19.138590</ele>
<time>2026-07-14T09:04:08.000Z</time>
</trkpt>
<trkpt lat="56.825262" lon="8.343248">
<ele>19.177820</ele>
<time>2026-07-14T09:04:09.000Z</time>
</trkpt>
<trkpt lat="56.825311" lon="8.343283">
<ele>19.215934</ele>
<time>2026-07-14T09:04:10.000Z</time>
</trkpt>
<trkpt lat="56.825359" lon="8.343319">
<ele>19.253523</ele>
<time>2026-07-14T09:04:11.000Z</time>
</trkpt>
<trkpt lat="56.825409" lon="8.343353">
<ele>19.292172</ele>
<time>2026-07-14T09:04:12.000Z</time>
</trkpt>
<trkpt lat="56.825456" lon="8.343384">
<ele>19.328371</ele>
<time>2026-07-14T09:04:13.000Z</time>
</trkpt>
<trkpt lat="56.825504" lon="8.343413">
<ele>19.364996</ele>
<time>2026-07-14T09:04:14.000Z</time>
</trkpt>
<trkpt lat="56.825553" lon="8.343442">
<ele>19.402310</ele>
<time>2026-07-14T09:04:15.000Z</time>
</trkpt>
<trkpt lat="56.825601" lon="8.343470">
<ele>19.438812</ele>
<time>2026-07-14T09:04:16.000Z</time>
</trkpt>
<trkpt lat="56.825647" lon="8.343497">
<ele>19.473814</ele>
<time>2026-07-14T09:04:17.000Z</time>
</trkpt>
<trkpt lat="56.825695" lon="8.343523">
<ele>19.510084</ele>
<time>2026-07-14T09:04:18.000Z</time>
</trkpt>
<trkpt lat="56.825744" lon="8.343550">
<ele>19.547160</ele>
<time>2026-07-14T09:04:19.000Z</time>
</trkpt>
<trkpt lat="56.825794" lon="8.343579">
<ele>19.585164</ele>
<time>2026-07-14T09:04:20.000Z</time>
</trkpt>
<trkpt lat="56.825841" lon="8.343608">
<ele>19.621102</ele>
<time>2026-07-14T09:04:21.000Z</time>
</trkpt>
<trkpt lat="56.825889" lon="8.343635">
<ele>19.657486</ele>
<time>2026-07-14T09:04:22.000Z</time>
</trkpt>
<trkpt lat="56.825939" lon="8.343661">
<ele>19.695147</ele>
<time>2026-07-14T09:04:23.000Z</time>
</trkpt>
<trkpt lat="56.825989" lon="8.343686">
<ele>19.732701</ele>
<time>2026-07-14T09:04:24.000Z</time>
</trkpt>
<trkpt lat="56.826040" lon="8.343714">
<ele>19.771279</ele>
<time>2026-07-14T09:04:25.000Z</time>
</trkpt>
<trkpt lat="56.826092" lon="8.343745">
<ele>19.810905</ele>
<time>2026-07-14T09:04:26.000Z</time>
</trkpt>
<trkpt lat="56.826141" lon="8.343780">
<ele>19.849018</ele>
<time>2026-07-14T09:04:27.000Z</time>
</trkpt>
<trkpt lat="56.826190" lon="8.343820">
<ele>19.887897</ele>
<time>2026-07-14T09:04:28.000Z</time>
</trkpt>
<trkpt lat="56.826240" lon="8.343861">
<ele>19.927599</ele>
<time>2026-07-14T09:04:29.000Z</time>
</trkpt>
<trkpt lat="56.826292" lon="8.343905">
<ele>19.969113</ele>
<time>2026-07-14T09:04:30.000Z</time>
</trkpt>
<trkpt lat="56.826345" lon="8.343951">
<ele>20.011620</ele>
<time>2026-07-14T09:04:31.000Z</time>
</trkpt>
<trkpt lat="56.826397" lon="8.343999">
<ele>20.053824</ele>
<time>2026-07-14T09:04:32.000Z</time>
</trkpt>
<trkpt lat="56.826447" lon="8.344047">
<ele>20.094740</ele>
<time>2026-07-14T09:04:33.000Z</time>
</trkpt>
<trkpt lat="56.826500" lon="8.344097">
<ele>20.137951</ele>
<time>2026-07-14T09:04:34.000Z</time>
</trkpt>
<trkpt lat="56.826554" lon="8.344147">
<ele>20.181806</ele>
<time>2026-07-14T09:04:35.000Z</time>
</trkpt>
<trkpt lat="56.826605" lon="8.344196">
<ele>20.223548</ele>
<time>2026-07-14T09:04:36.000Z</time>
</trkpt>
<trkpt lat="56.826658" lon="8.344246">
<ele>20.221853</ele>
<time>2026-07-14T09:04:37.000Z</time>
</trkpt>
<trkpt lat="56.826711" lon="8.344293">
<ele>20.191507</ele>
<time>2026-07-14T09:04:38.000Z</time>
</trkpt>
<trkpt lat="56.826764" lon="8.344339">
<ele>20.161284</ele>
<time>2026-07-14T09:04:39.000Z</time>
</trkpt>
<trkpt lat="56.826820" lon="8.344387">
<ele>20.129422</ele>
<time>2026-07-14T09:04:40.000Z</time>
</trkpt>
<trkpt lat="56.826875" lon="8.344436">
<ele>20.097903</ele>
<time>2026-07-14T09:04:41.000Z</time>
</trkpt>
<trkpt lat="56.826931" lon="8.344483">
<ele>20.066160</ele>
<time>2026-07-14T09:04:42.000Z</time>
</trkpt>
<trkpt lat="56.826988" lon="8.344528">
<ele>20.034176</ele>
<time>2026-07-14T09:04:43.000Z</time>
</trkpt>
<trkpt lat="56.827045" lon="8.344570">
<ele>20.002518</ele>
<time>2026-07-14T09:04:44.000Z</time>
</trkpt>
<trkpt lat="56.827100" lon="8.344608">
<ele>19.972230</ele>
<time>2026-07-14T09:04:45.000Z</time>
</trkpt>
<trkpt lat="56.827156" lon="8.344645">
<ele>19.941556</ele>
<time>2026-07-14T09:04:46.000Z</time>
</trkpt>
<trkpt lat="56.827214" lon="8.344683">
<ele>19.909817</ele>
<time>2026-07-14T09:04:47.000Z</time>
</trkpt>
<trkpt lat="56.827268" lon="8.344722">
<ele>19.879908</ele>
<time>2026-07-14T09:04:48.000Z</time>
</trkpt>
<trkpt lat="56.827321" lon="8.344763">
<ele>19.850261</ele>
<time>2026-07-14T09:04:49.000Z</time>
</trkpt>
<trkpt lat="56.827377" lon="8.344802">
<ele>19.819391</ele>
<time>2026-07-14T09:04:50.000Z</time>
</trkpt>
<trkpt lat="56.827433" lon="8.344841">
<ele>19.788521</ele>
<time>2026-07-14T09:04:51.000Z</time>
</trkpt>
<trkpt lat="56.827488" lon="8.344882">
<ele>19.757924</ele>
<time>2026-07-14T09:04:52.000Z</time>
</trkpt>
<trkpt lat="56.827545" lon="8.344924">
<ele>19.726266</ele>
<time>2026-07-14T09:04:53.000Z</time>
</trkpt>
<trkpt lat="56.827600" lon="8.344964">
<ele>19.695773</ele>
<time>2026-07-14T09:04:54.000Z</time>
</trkpt>
<trkpt lat="56.827656" lon="8.345003">
<ele>19.664903</ele>
<time>2026-07-14T09:04:55.000Z</time>
</trkpt>
<trkpt lat="56.827711" lon="8.345042">
<ele>19.634514</ele>
<time>2026-07-14T09:04:56.000Z</time>
</trkpt>
<trkpt lat="56.827766" lon="8.345081">
<ele>19.604125</ele>
<time>2026-07-14T09:04:57.000Z</time>
</trkpt>
<trkpt lat="56.827821" lon="8.345119">
<ele>19.573837</ele>
<time>2026-07-14T09:04:58.000Z</time>
</trkpt>
<trkpt lat="56.827877" lon="8.345155">
<ele>19.543258</ele>
<time>2026-07-14T09:04:59.000Z</time>
</trkpt>
<trkpt lat="56.827934" lon="8.345187">
<ele>19.512542</ele>
<time>2026-07-14T09:05:00.000Z</time>
</trkpt>
<trkpt lat="56.827991" lon="8.345211">
<ele>19.482411</ele>
<time>2026-07-14T09:05:01.000Z</time>
</trkpt>
<trkpt lat="56.828051" lon="8.345231">
<ele>19.450994</ele>
<time>2026-07-14T09:05:02.000Z</time>
</trkpt>
<trkpt lat="56.828111" lon="8.345245">
<ele>19.419836</ele>
<time>2026-07-14T09:05:03.000Z</time>
</trkpt>
<trkpt lat="56.828173" lon="8.345256">
<ele>19.387749</ele>
<time>2026-07-14T09:05:04.000Z</time>
</trkpt>
<trkpt lat="56.828232" lon="8.345266">
<ele>19.357226</ele>
<time>2026-07-14T09:05:05.000Z</time>
</trkpt>
<trkpt lat="56.828288" lon="8.345274">
<ele>19.328292</ele>
<time>2026-07-14T09:05:06.000Z</time>
</trkpt>
<trkpt lat="56.828348" lon="8.345278">
<ele>19.344017</ele>
<time>2026-07-14T09:05:07.000Z</time>
</trkpt>
<trkpt lat="56.828407" lon="8.345283">
<ele>19.398911</ele>
<time>2026-07-14T09:05:08.000Z</time>
</trkpt>
<trkpt lat="56.828464" lon="8.345286">
<ele>19.451909</ele>
<time>2026-07-14T09:05:09.000Z</time>
</trkpt>
<trkpt lat="56.828522" lon="8.345288">
<ele>19.505825</ele>
<time>2026-07-14T09:05:10.000Z</time>
</trkpt>
<trkpt lat="56.828581" lon="8.345291">
<ele>19.560681</ele>
<time>2026-07-14T09:05:11.000Z</time>
</trkpt>
<trkpt lat="56.828640" lon="8.345294">
<ele>19.615538</ele>
<time>2026-07-14T09:05:12.000Z</time>
</trkpt>
<trkpt lat="56.828697" lon="8.345297">
<ele>19.668536</ele>
<time>2026-07-14T09:05:13.000Z</time>
</trkpt>
<trkpt lat="56.828754" lon="8.345301">
<ele>19.721551</ele>
<time>2026-07-14T09:05:14.000Z</time>
</trkpt>
<trkpt lat="56.828809" lon="8.345305">
<ele>19.772709</ele>
<time>2026-07-14T09:05:15.000Z</time>
</trkpt>
<trkpt lat="56.828865" lon="8.345307">
<ele>19.824766</ele>
<time>2026-07-14T09:05:16.000Z</time>
</trkpt>
<trkpt lat="56.828920" lon="8.345311">
<ele>19.875924</ele>
<time>2026-07-14T09:05:17.000Z</time>
</trkpt>
<trkpt lat="56.828973" lon="8.345315">
<ele>19.925225</ele>
<time>2026-07-14T09:05:18.000Z</time>
</trkpt>
<trkpt lat="56.829029" lon="8.345318">
<ele>19.977294</ele>
<time>2026-07-14T09:05:19.000Z</time>
</trkpt>
<trkpt lat="56.829084" lon="8.345320">
<ele>20.028422</ele>
<time>2026-07-14T09:05:20.000Z</time>
</trkpt>
<trkpt lat="56.829140" lon="8.345321">
<ele>20.080472</ele>
<time>2026-07-14T09:05:21.000Z</time>
</trkpt>
<trkpt lat="56.829195" lon="8.345324">
<ele>20.131612</ele>
<time>2026-07-14T09:05:22.000Z</time>
</trkpt>
<trkpt lat="56.829250" lon="8.345328">
<ele>20.182770</ele>
<time>2026-07-14T09:05:23.000Z</time>
</trkpt>
<trkpt lat="56.829307" lon="8.345333">
<ele>20.235807</ele>
<time>2026-07-14T09:05:24.000Z</time>
</trkpt>
<trkpt lat="56.829363" lon="8.345337">
<ele>20.287894</ele>
<time>2026-07-14T09:05:25.000Z</time>
</trkpt>
<trkpt lat="56.829416" lon="8.345339">
<ele>20.337163</ele>
<time>2026-07-14T09:05:26.000Z</time>
</trkpt>
<trkpt lat="56.829471" lon="8.345342">
<ele>20.388304</ele>
<time>2026-07-14T09:05:27.000Z</time>
</trkpt>
<trkpt lat="56.829526" lon="8.345344">
<ele>20.439432</ele>
<time>2026-07-14T09:05:28.000Z</time>
</trkpt>
<trkpt lat="56.829582" lon="8.345345">
<ele>20.491481</ele>
<time>2026-07-14T09:05:29.000Z</time>
</trkpt>
<trkpt lat="56.829639" lon="8.345347">
<ele>20.544467</ele>
<time>2026-07-14T09:05:30.000Z</time>
</trkpt>
<trkpt lat="56.829695" lon="8.345351">
<ele>20.596554</ele>
<time>2026-07-14T09:05:31.000Z</time>
</trkpt>
<trkpt lat="56.829751" lon="8.345355">
<ele>20.648641</ele>
<time>2026-07-14T09:05:32.000Z</time>
</trkpt>
<trkpt lat="56.829804" lon="8.345359">
<ele>20.697941</ele>
<time>2026-07-14T09:05:33.000Z</time>
</trkpt>
<trkpt lat="56.829858" lon="8.345363">
<ele>20.748171</ele>
<time>2026-07-14T09:05:34.000Z</time>
</trkpt>
<trkpt lat="56.829914" lon="8.345368">
<ele>20.800280</ele>
<time>2026-07-14T09:05:35.000Z</time>
</trkpt>
<trkpt lat="56.829969" lon="8.345372">
<ele>20.851438</ele>
<time>2026-07-14T09:05:36.000Z</time>
</trkpt>
<trkpt lat="56.830023" lon="8.345377">
<ele>20.901690</ele>
<time>2026-07-14T09:05:37.000Z</time>
</trkpt>
<trkpt lat="56.830076" lon="8.345382">
<ele>20.951015</ele>
<time>2026-07-14T09:05:38.000Z</time>
</trkpt>
<trkpt lat="56.830129" lon="8.345386">
<ele>20.984516</ele>
<time>2026-07-14T09:05:39.000Z</time>
</trkpt>
<trkpt lat="56.830183" lon="8.345389">
<ele>20.980529</ele>
<time>2026-07-14T09:05:40.000Z</time>
</trkpt>
<trkpt lat="56.830234" lon="8.345392">
<ele>20.976762</ele>
<time>2026-07-14T09:05:41.000Z</time>
</trkpt>
<trkpt lat="56.830286" lon="8.345394">
<ele>20.972923</ele>
<time>2026-07-14T09:05:42.000Z</time>
</trkpt>
<trkpt lat="56.830337" lon="8.345398">
<ele>20.969155</ele>
<time>2026-07-14T09:05:43.000Z</time>
</trkpt>
<trkpt lat="56.830388" lon="8.345402">
<ele>20.965387</ele>
<time>2026-07-14T09:05:44.000Z</time>
</trkpt>
<trkpt lat="56.830439" lon="8.345408">
<ele>20.961614</ele>
<time>2026-07-14T09:05:45.000Z</time>
</trkpt>
<trkpt lat="56.830490" lon="8.345413">
<ele>20.957844</ele>
<time>2026-07-14T09:05:46.000Z</time>
</trkpt>
<trkpt lat="56.830539" lon="8.345420">
<ele>20.954216</ele>
<time>2026-07-14T09:05:47.000Z</time>
</trkpt>
<trkpt lat="56.830589" lon="8.345428">
<ele>20.950512</ele>
<time>2026-07-14T09:05:48.000Z</time>
</trkpt>
<trkpt lat="56.830639" lon="8.345435">
<ele>20.946810</ele>
<time>2026-07-14T09:05:49.000Z</time>
</trkpt>
<trkpt lat="56.830688" lon="8.345443">
<ele>20.943179</ele>
<time>2026-07-14T09:05:50.000Z</time>
</trkpt>
<trkpt lat="56.830736" lon="8.345454">
<ele>20.939608</ele>
<time>2026-07-14T09:05:51.000Z</time>
</trkpt>
<trkpt lat="56.830781" lon="8.345469">
<ele>20.936231</ele>
<time>2026-07-14T09:05:52.000Z</time>
</trkpt>
<trkpt lat="56.830827" lon="8.345488">
<ele>20.932750</ele>
<time>2026-07-14T09:05:53.000Z</time>
</trkpt>
<trkpt lat="56.830875" lon="8.345507">
<ele>20.929125</ele>
<time>2026-07-14T09:05:54.000Z</time>
</trkpt>
<trkpt lat="56.830925" lon="8.345527">
<ele>20.925347</ele>
<time>2026-07-14T09:05:55.000Z</time>
</trkpt>
<trkpt lat="56.830972" lon="8.345547">
<ele>20.921785</ele>
<time>2026-07-14T09:05:56.000Z</time>
</trkpt>
<trkpt lat="56.831020" lon="8.345567">
<ele>20.918151</ele>
<time>2026-07-14T09:05:57.000Z</time>
</trkpt>
<trkpt lat="56.831072" lon="8.345587">
<ele>20.914228</ele>
<time>2026-07-14T09:05:58.000Z</time>
</trkpt>
<trkpt lat="56.831123" lon="8.345610">
<ele>20.910351</ele>
<time>2026-07-14T09:05:59.000Z</time>
</trkpt>
<trkpt lat="56.831174" lon="8.345634">
<ele>20.906464</ele>
<time>2026-07-14T09:06:00.000Z</time>
</trkpt>
<trkpt lat="56.831230" lon="8.345657">
<ele>20.902227</ele>
<time>2026-07-14T09:06:01.000Z</time>
</trkpt>
<trkpt lat="56.831285" lon="8.345678">
<ele>20.898079</ele>
<time>2026-07-14T09:06:02.000Z</time>
</trkpt>
<trkpt lat="56.831341" lon="8.345699">
<ele>20.893860</ele>
<time>2026-07-14T09:06:03.000Z</time>
</trkpt>
<trkpt lat="56.831400" lon="8.345722">
<ele>20.889407</ele>
<time>2026-07-14T09:06:04.000Z</time>
</trkpt>
<trkpt lat="56.831457" lon="8.345747">
<ele>20.885080</ele>
<time>2026-07-14T09:06:05.000Z</time>
</trkpt>
<trkpt lat="56.831514" lon="8.345771">
<ele>20.880762</ele>
<time>2026-07-14T09:06:06.000Z</time>
</trkpt>
<trkpt lat="56.831574" lon="8.345793">
<ele>20.876245</ele>
<time>2026-07-14T09:06:07.000Z</time>
</trkpt>
<trkpt lat="56.831633" lon="8.345815">
<ele>20.871800</ele>
<time>2026-07-14T09:06:08.000Z</time>
</trkpt>
<trkpt lat="56.831692" lon="8.345838">
<ele>20.867347</ele>
<time>2026-07-14T09:06:09.000Z</time>
</trkpt>
<trkpt lat="56.831751" lon="8.345862">
<ele>20.862886</ele>
<time>2026-07-14T09:06:10.000Z</time>
</trkpt>
<trkpt lat="56.831812" lon="8.345886">
<ele>20.858280</ele>
<time>2026-07-14T09:06:11.000Z</time>
</trkpt>
<trkpt lat="56.831873" lon="8.345911">
<ele>20.853665</ele>
<time>2026-07-14T09:06:12.000Z</time>
</trkpt>
<trkpt lat="56.831934" lon="8.345935">
<ele>20.842497</ele>
<time>2026-07-14T09:06:13.000Z</time>
</trkpt>
<trkpt lat="56.831993" lon="8.345958">
<ele>20.830458</ele>
<time>2026-07-14T09:06:14.000Z</time>
</trkpt>
<trkpt lat="56.832054" lon="8.345981">
<ele>20.818029</ele>
<time>2026-07-14T09:06:15.000Z</time>
</trkpt>
<trkpt lat="56.832115" lon="8.346004">
<ele>20.805600</ele>
<time>2026-07-14T09:06:16.000Z</time>
</trkpt>
<trkpt lat="56.832174" lon="8.346027">
<ele>20.793562</ele>
<time>2026-07-14T09:06:17.000Z</time>
</trkpt>
<trkpt lat="56.832235" lon="8.346052">
<ele>20.781087</ele>
<time>2026-07-14T09:06:18.000Z</time>
</trkpt>
<trkpt lat="56.832296" lon="8.346078">
<ele>20.768588</ele>
<time>2026-07-14T09:06:19.000Z</time>
</trkpt>
<trkpt lat="56.832353" lon="8.346111">
<ele>20.756656</ele>
<time>2026-07-14T09:06:20.000Z</time>
</trkpt>
<trkpt lat="56.832407" lon="8.346156">
<ele>20.744813</ele>
<time>2026-07-14T09:06:21.000Z</time>
</trkpt>
<trkpt lat="56.832456" lon="8.346213">
<ele>20.733223</ele>
<time>2026-07-14T09:06:22.000Z</time>
</trkpt>
<trkpt lat="56.832500" lon="8.346281">
<ele>20.721725</ele>
<time>2026-07-14T09:06:23.000Z</time>
</trkpt>
<trkpt lat="56.832540" lon="8.346353">
<ele>20.710522</ele>
<time>2026-07-14T09:06:24.000Z</time>
</trkpt>
<trkpt lat="56.832579" lon="8.346423">
<ele>20.699615</ele>
<time>2026-07-14T09:06:25.000Z</time>
</trkpt>
<trkpt lat="56.832618" lon="8.346492">
<ele>20.688784</ele>
<time>2026-07-14T09:06:26.000Z</time>
</trkpt>
<trkpt lat="56.832657" lon="8.346560">
<ele>20.678028</ele>
<time>2026-07-14T09:06:27.000Z</time>
</trkpt>
<trkpt lat="56.832692" lon="8.346630">
<ele>20.667675</ele>
<time>2026-07-14T09:06:28.000Z</time>
</trkpt>
<trkpt lat="56.832729" lon="8.346701">
<ele>20.656970</ele>
<time>2026-07-14T09:06:29.000Z</time>
</trkpt>
<trkpt lat="56.832769" lon="8.346776">
<ele>20.645536</ele>
<time>2026-07-14T09:06:30.000Z</time>
</trkpt>
<trkpt lat="56.832805" lon="8.346853">
<ele>20.634478</ele>
<time>2026-07-14T09:06:31.000Z</time>
</trkpt>
<trkpt lat="56.832839" lon="8.346930">
<ele>20.623675</ele>
<time>2026-07-14T09:06:32.000Z</time>
</trkpt>
<trkpt lat="56.832874" lon="8.347002">
<ele>20.613160</ele>
<time>2026-07-14T09:06:33.000Z</time>
</trkpt>
<trkpt lat="56.832907" lon="8.347081">
<ele>20.602309</ele>
<time>2026-07-14T09:06:34.000Z</time>
</trkpt>
<trkpt lat="56.832935" lon="8.347163">
<ele>20.591756</ele>
<time>2026-07-14T09:06:35.000Z</time>
</trkpt>
<trkpt lat="56.832967" lon="8.347243">
<ele>20.580937</ele>
<time>2026-07-14T09:06:36.000Z</time>
</trkpt>
<trkpt lat="56.833001" lon="8.347326">
<ele>20.569617</ele>
<time>2026-07-14T09:06:37.000Z</time>
</trkpt>
<trkpt lat="56.833033" lon="8.347404">
<ele>20.558973</ele>
<time>2026-07-14T09:06:38.000Z</time>
</trkpt>
<trkpt lat="56.833070" lon="8.347478">
<ele>20.548029</ele>
<time>2026-07-14T09:06:39.000Z</time>
</trkpt>
<trkpt lat="56.833106" lon="8.347551">
<ele>20.537300</ele>
<time>2026-07-14T09:06:40.000Z</time>
</trkpt>
<trkpt lat="56.833140" lon="8.347622">
<ele>20.526998</ele>
<time>2026-07-14T09:06:41.000Z</time>
</trkpt>
<trkpt lat="56.833174" lon="8.347695">
<ele>20.516532</ele>
<time>2026-07-14T09:06:42.000Z</time>
</trkpt>
<trkpt lat="56.833207" lon="8.347775">
<ele>20.505594</ele>
<time>2026-07-14T09:06:43.000Z</time>
</trkpt>
<trkpt lat="56.833239" lon="8.347858">
<ele>20.494509</ele>
<time>2026-07-14T09:06:44.000Z</time>
</trkpt>
<trkpt lat="56.833274" lon="8.347941">
<ele>20.537483</ele>
<time>2026-07-14T09:06:45.000Z</time>
</trkpt>
<trkpt lat="56.833308" lon="8.348022">
<ele>20.581876</ele>
<time>2026-07-14T09:06:46.000Z</time>
</trkpt>
<trkpt lat="56.833340" lon="8.348105">
<ele>20.626029</ele>
<time>2026-07-14T09:06:47.000Z</time>
</trkpt>
<trkpt lat="56.833373" lon="8.348189">
<ele>20.670996</ele>
<time>2026-07-14T09:06:48.000Z</time>
</trkpt>
<trkpt lat="56.833405" lon="8.348272">
<ele>20.715148</ele>
<time>2026-07-14T09:06:49.000Z</time>
</trkpt>
<trkpt lat="56.833434" lon="8.348355">
<ele>20.757971</ele>
<time>2026-07-14T09:06:50.000Z</time>
</trkpt>
<trkpt lat="56.833465" lon="8.348439">
<ele>20.802029</ele>
<time>2026-07-14T09:06:51.000Z</time>
</trkpt>
<trkpt lat="56.833497" lon="8.348523">
<ele>20.846538</ele>
<time>2026-07-14T09:06:52.000Z</time>
</trkpt>
<trkpt lat="56.833527" lon="8.348610">
<ele>20.891255</ele>
<time>2026-07-14T09:06:53.000Z</time>
</trkpt>
<trkpt lat="56.833558" lon="8.348698">
<ele>20.936766</ele>
<time>2026-07-14T09:06:54.000Z</time>
</trkpt>
<trkpt lat="56.833588" lon="8.348786">
<ele>20.981851</ele>
<time>2026-07-14T09:06:55.000Z</time>
</trkpt>
<trkpt lat="56.833619" lon="8.348873">
<ele>21.026997</ele>
<time>2026-07-14T09:06:56.000Z</time>
</trkpt>
<trkpt lat="56.833648" lon="8.348959">
<ele>21.070925</ele>
<time>2026-07-14T09:06:57.000Z</time>
</trkpt>
<trkpt lat="56.833676" lon="8.349045">
<ele>21.114441</ele>
<time>2026-07-14T09:06:58.000Z</time>
</trkpt>
<trkpt lat="56.833707" lon="8.349131">
<ele>21.159223</ele>
<time>2026-07-14T09:06:59.000Z</time>
</trkpt>
<trkpt lat="56.833734" lon="8.349217">
<ele>21.202338</ele>
<time>2026-07-14T09:07:00.000Z</time>
</trkpt>
<trkpt lat="56.833760" lon="8.349304">
<ele>21.245443</ele>
<time>2026-07-14T09:07:01.000Z</time>
</trkpt>
<trkpt lat="56.833790" lon="8.349393">
<ele>21.290899</ele>
<time>2026-07-14T09:07:02.000Z</time>
</trkpt>
<trkpt lat="56.833823" lon="8.349472">
<ele>21.334118</ele>
<time>2026-07-14T09:07:03.000Z</time>
</trkpt>
<trkpt lat="56.833859" lon="8.349547">
<ele>21.377503</ele>
<time>2026-07-14T09:07:04.000Z</time>
</trkpt>
<trkpt lat="56.833897" lon="8.349618">
<ele>21.420692</ele>
<time>2026-07-14T09:07:05.000Z</time>
</trkpt>
<trkpt lat="56.833938" lon="8.349685">
<ele>21.464403</ele>
<time>2026-07-14T09:07:06.000Z</time>
</trkpt>
<trkpt lat="56.833980" lon="8.349747">
<ele>21.507311</ele>
<time>2026-07-14T09:07:07.000Z</time>
</trkpt>
<trkpt lat="56.834023" lon="8.349803">
<ele>21.549275</ele>
<time>2026-07-14T09:07:08.000Z</time>
</trkpt>
<trkpt lat="56.834069" lon="8.349857">
<ele>21.592727</ele>
<time>2026-07-14T09:07:09.000Z</time>
</trkpt>
<trkpt lat="56.834117" lon="8.349910">
<ele>21.637298</ele>
<time>2026-07-14T09:07:10.000Z</time>
</trkpt>
<trkpt lat="56.834165" lon="8.349960">
<ele>21.681209</ele>
<time>2026-07-14T09:07:11.000Z</time>
</trkpt>
<trkpt lat="56.834214" lon="8.350005">
<ele>21.724794</ele>
<time>2026-07-14T09:07:12.000Z</time>
</trkpt>
<trkpt lat="56.834266" lon="8.350046">
<ele>21.769805</ele>
<time>2026-07-14T09:07:13.000Z</time>
</trkpt>
<trkpt lat="56.834314" lon="8.350085">
<ele>21.811555</ele>
<time>2026-07-14T09:07:14.000Z</time>
</trkpt>
<trkpt lat="56.834361" lon="8.350125">
<ele>21.852762</ele>
<time>2026-07-14T09:07:15.000Z</time>
</trkpt>
<trkpt lat="56.834409" lon="8.350170">
<ele>21.895638</ele>
<time>2026-07-14T09:07:16.000Z</time>
</trkpt>
<trkpt lat="56.834455" lon="8.350218">
<ele>21.920887</ele>
<time>2026-07-14T09:07:17.000Z</time>
</trkpt>
<trkpt lat="56.834502" lon="8.350267">
<ele>21.912720</ele>
<time>2026-07-14T09:07:18.000Z</time>
</trkpt>
<trkpt lat="56.834550" lon="8.350315">
<ele>21.904462</ele>
<time>2026-07-14T09:07:19.000Z</time>
</trkpt>
<trkpt lat="56.834593" lon="8.350360">
<ele>21.896984</ele>
<time>2026-07-14T09:07:20.000Z</time>
</trkpt>
<trkpt lat="56.834639" lon="8.350403">
<ele>21.889186</ele>
<time>2026-07-14T09:07:21.000Z</time>
</trkpt>
<trkpt lat="56.834686" lon="8.350444">
<ele>21.881325</ele>
<time>2026-07-14T09:07:22.000Z</time>
</trkpt>
<trkpt lat="56.834732" lon="8.350486">
<ele>21.873564</ele>
<time>2026-07-14T09:07:23.000Z</time>
</trkpt>
<trkpt lat="56.834777" lon="8.350531">
<ele>21.865823</ele>
<time>2026-07-14T09:07:24.000Z</time>
</trkpt>
<trkpt lat="56.834821" lon="8.350575">
<ele>21.858253</ele>
<time>2026-07-14T09:07:25.000Z</time>
</trkpt>
<trkpt lat="56.834867" lon="8.350621">
<ele>21.850339</ele>
<time>2026-07-14T09:07:26.000Z</time>
</trkpt>
<trkpt lat="56.834913" lon="8.350667">
<ele>21.842425</ele>
<time>2026-07-14T09:07:27.000Z</time>
</trkpt>
<trkpt lat="56.834959" lon="8.350710">
<ele>21.834627</ele>
<time>2026-07-14T09:07:28.000Z</time>
</trkpt>
<trkpt lat="56.835004" lon="8.350751">
<ele>21.827038</ele>
<time>2026-07-14T09:07:29.000Z</time>
</trkpt>
<trkpt lat="56.835050" lon="8.350792">
<ele>21.819314</ele>
<time>2026-07-14T09:07:30.000Z</time>
</trkpt>
<trkpt lat="56.835094" lon="8.350836">
<ele>21.811744</ele>
<time>2026-07-14T09:07:31.000Z</time>
</trkpt>
<trkpt lat="56.835140" lon="8.350879">
<ele>21.803946</ele>
<time>2026-07-14T09:07:32.000Z</time>
</trkpt>
<trkpt lat="56.835185" lon="8.350921">
<ele>21.796320</ele>
<time>2026-07-14T09:07:33.000Z</time>
</trkpt>
<trkpt lat="56.835229" lon="8.350963">
<ele>21.788828</ele>
<time>2026-07-14T09:07:34.000Z</time>
</trkpt>
<trkpt lat="56.835275" lon="8.351005">
<ele>21.781067</ele>
<time>2026-07-14T09:07:35.000Z</time>
</trkpt>
<trkpt lat="56.835319" lon="8.351049">
<ele>21.773497</ele>
<time>2026-07-14T09:07:36.000Z</time>
</trkpt>
<trkpt lat="56.835363" lon="8.351097">
<ele>21.765763</ele>
<time>2026-07-14T09:07:37.000Z</time>
</trkpt>
<trkpt lat="56.835409" lon="8.351145">
<ele>21.757769</ele>
<time>2026-07-14T09:07:38.000Z</time>
</trkpt>
<trkpt lat="56.835452" lon="8.351194">
<ele>21.750121</ele>
<time>2026-07-14T09:07:39.000Z</time>
</trkpt>
<trkpt lat="56.835498" lon="8.351247">
<ele>21.741914</ele>
<time>2026-07-14T09:07:40.000Z</time>
</trkpt>
<trkpt lat="56.835548" lon="8.351301">
<ele>21.733149</ele>
<time>2026-07-14T09:07:41.000Z</time>
</trkpt>
<trkpt lat="56.835598" lon="8.351352">
<ele>21.724507</ele>
<time>2026-07-14T09:07:42.000Z</time>
</trkpt>
<trkpt lat="56.835647" lon="8.351403">
<ele>21.715996</ele>
<time>2026-07-14T09:07:43.000Z</time>
</trkpt>
<trkpt lat="56.835699" lon="8.351453">
<ele>21.707128</ele>
<time>2026-07-14T09:07:44.000Z</time>
</trkpt>
<trkpt lat="56.835749" lon="8.351501">
<ele>21.698604</ele>
<time>2026-07-14T09:07:45.000Z</time>
</trkpt>
<trkpt lat="56.835797" lon="8.351546">
<ele>21.690462</ele>
<time>2026-07-14T09:07:46.000Z</time>
</trkpt>
<trkpt lat="56.835843" lon="8.351592">
<ele>21.682548</ele>
<time>2026-07-14T09:07:47.000Z</time>
</trkpt>
<trkpt lat="56.835891" lon="8.351639">
<ele>21.674329</ele>
<time>2026-07-14T09:07:48.000Z</time>
</trkpt>
<trkpt lat="56.835941" lon="8.351687">
<ele>21.665805</ele>
<time>2026-07-14T09:07:49.000Z</time>
</trkpt>
<trkpt lat="56.835988" lon="8.351735">
<ele>21.657680</ele>
<time>2026-07-14T09:07:50.000Z</time>
</trkpt>
<trkpt lat="56.836036" lon="8.351784">
<ele>21.656227</ele>
<time>2026-07-14T09:07:51.000Z</time>
</trkpt>
<trkpt lat="56.836086" lon="8.351833">
<ele>21.669220</ele>
<time>2026-07-14T09:07:52.000Z</time>
</trkpt>
<trkpt lat="56.836134" lon="8.351881">
<ele>21.681751</ele>
<time>2026-07-14T09:07:53.000Z</time>
</trkpt>
<trkpt lat="56.836184" lon="8.351929">
<ele>21.694686</ele>
<time>2026-07-14T09:07:54.000Z</time>
</trkpt>
<trkpt lat="56.836237" lon="8.351978">
<ele>21.708289</ele>
<time>2026-07-14T09:07:55.000Z</time>
</trkpt>
<trkpt lat="56.836288" lon="8.352027">
<ele>21.721485</ele>
<time>2026-07-14T09:07:56.000Z</time>
</trkpt>
<trkpt lat="56.836336" lon="8.352077">
<ele>21.734138</ele>
<time>2026-07-14T09:07:57.000Z</time>
</trkpt>
<trkpt lat="56.836383" lon="8.352127">
<ele>21.746592</ele>
<time>2026-07-14T09:07:58.000Z</time>
</trkpt>
<trkpt lat="56.836433" lon="8.352179">
<ele>21.759768</ele>
<time>2026-07-14T09:07:59.000Z</time>
</trkpt>
<trkpt lat="56.836480" lon="8.352233">
<ele>21.772482</ele>
<time>2026-07-14T09:08:00.000Z</time>
</trkpt>
<trkpt lat="56.836528" lon="8.352288">
<ele>21.785456</ele>
<time>2026-07-14T09:08:01.000Z</time>
</trkpt>
<trkpt lat="56.836575" lon="8.352344">
<ele>21.798306</ele>
<time>2026-07-14T09:08:02.000Z</time>
</trkpt>
<trkpt lat="56.836621" lon="8.352404">
<ele>21.811248</ele>
<time>2026-07-14T09:08:03.000Z</time>
</trkpt>
<trkpt lat="56.836667" lon="8.352464">
<ele>21.824190</ele>
<time>2026-07-14T09:08:04.000Z</time>
</trkpt>
<trkpt lat="56.836713" lon="8.352523">
<ele>21.837060</ele>
<time>2026-07-14T09:08:05.000Z</time>
</trkpt>
<trkpt lat="56.836757" lon="8.352583">
<ele>21.849633</ele>
<time>2026-07-14T09:08:06.000Z</time>
</trkpt>
<trkpt lat="56.836799" lon="8.352643">
<ele>21.861841</ele>
<time>2026-07-14T09:08:07.000Z</time>
</trkpt>
<trkpt lat="56.836839" lon="8.352703">
<ele>21.873692</ele>
<time>2026-07-14T09:08:08.000Z</time>
</trkpt>
<trkpt lat="56.836879" lon="8.352762">
<ele>21.885463</ele>
<time>2026-07-14T09:08:09.000Z</time>
</trkpt>
<trkpt lat="56.836921" lon="8.352820">
<ele>21.897519</ele>
<time>2026-07-14T09:08:10.000Z</time>
</trkpt>
<trkpt lat="56.836963" lon="8.352878">
<ele>21.909574</ele>
<time>2026-07-14T09:08:11.000Z</time>
</trkpt>
<trkpt lat="56.837004" lon="8.352934">
<ele>21.921296</ele>
<time>2026-07-14T09:08:12.000Z</time>
</trkpt>
<trkpt lat="56.837046" lon="8.352989">
<ele>21.933129</ele>
<time>2026-07-14T09:08:13.000Z</time>
</trkpt>
<trkpt lat="56.837090" lon="8.353044">
<ele>21.945337</ele>
<time>2026-07-14T09:08:14.000Z</time>
</trkpt>
<trkpt lat="56.837136" lon="8.353100">
<ele>21.957995</ele>
<time>2026-07-14T09:08:15.000Z</time>
</trkpt>
<trkpt lat="56.837182" lon="8.353156">
<ele>21.970653</ele>
<time>2026-07-14T09:08:16.000Z</time>
</trkpt>
<trkpt lat="56.837230" lon="8.353212">
<ele>21.983694</ele>
<time>2026-07-14T09:08:17.000Z</time>
</trkpt>
<trkpt lat="56.837278" lon="8.353266">
<ele>21.996603</ele>
<time>2026-07-14T09:08:18.000Z</time>
</trkpt>
<trkpt lat="56.837323" lon="8.353317">
<ele>22.008729</ele>
<time>2026-07-14T09:08:19.000Z</time>
</trkpt>
<trkpt lat="56.837371" lon="8.353366">
<ele>22.021321</ele>
<time>2026-07-14T09:08:20.000Z</time>
</trkpt>
<trkpt lat="56.837420" lon="8.353415">
<ele>22.034113</ele>
<time>2026-07-14T09:08:21.000Z</time>
</trkpt>
<trkpt lat="56.837468" lon="8.353462">
<ele>22.046584</ele>
<time>2026-07-14T09:08:22.000Z</time>
</trkpt>
<trkpt lat="56.837518" lon="8.353503">
<ele>22.059135</ele>
<time>2026-07-14T09:08:23.000Z</time>
</trkpt>
<trkpt lat="56.837569" lon="8.353541">
<ele>22.087721</ele>
<time>2026-07-14T09:08:24.000Z</time>
</trkpt>
<trkpt lat="56.837619" lon="8.353581">
<ele>22.126154</ele>
<time>2026-07-14T09:08:25.000Z</time>
</trkpt>
<trkpt lat="56.837668" lon="8.353625">
<ele>22.164597</ele>
<time>2026-07-14T09:08:26.000Z</time>
</trkpt>
<trkpt lat="56.837718" lon="8.353668">
<ele>22.203508</ele>
<time>2026-07-14T09:08:27.000Z</time>
</trkpt>
<trkpt lat="56.837767" lon="8.353708">
<ele>22.241297</ele>
<time>2026-07-14T09:08:28.000Z</time>
</trkpt>
<trkpt lat="56.837815" lon="8.353748">
<ele>22.278444</ele>
<time>2026-07-14T09:08:29.000Z</time>
</trkpt>
<trkpt lat="56.837863" lon="8.353790">
<ele>22.315917</ele>
<time>2026-07-14T09:08:30.000Z</time>
</trkpt>
<trkpt lat="56.837913" lon="8.353834">
<ele>22.354994</ele>
<time>2026-07-14T09:08:31.000Z</time>
</trkpt>
<trkpt lat="56.837963" lon="8.353880">
<ele>22.394410</ele>
<time>2026-07-14T09:08:32.000Z</time>
</trkpt>
<trkpt lat="56.838013" lon="8.353926">
<ele>22.433826</ele>
<time>2026-07-14T09:08:33.000Z</time>
</trkpt>
<trkpt lat="56.838062" lon="8.353973">
<ele>22.472793</ele>
<time>2026-07-14T09:08:34.000Z</time>
</trkpt>
<trkpt lat="56.838111" lon="8.354022">
<ele>22.512123</ele>
<time>2026-07-14T09:08:35.000Z</time>
</trkpt>
<trkpt lat="56.838162" lon="8.354072">
<ele>22.552874</ele>
<time>2026-07-14T09:08:36.000Z</time>
</trkpt>
<trkpt lat="56.838211" lon="8.354120">
<ele>22.592021</ele>
<time>2026-07-14T09:08:37.000Z</time>
</trkpt>
<trkpt lat="56.838260" lon="8.354168">
<ele>22.631168</ele>
<time>2026-07-14T09:08:38.000Z</time>
</trkpt>
<trkpt lat="56.838309" lon="8.354217">
<ele>22.670498</ele>
<time>2026-07-14T09:08:39.000Z</time>
</trkpt>
<trkpt lat="56.838359" lon="8.354265">
<ele>22.710266</ele>
<time>2026-07-14T09:08:40.000Z</time>
</trkpt>
<trkpt lat="56.838407" lon="8.354312">
<ele>22.748610</ele>
<time>2026-07-14T09:08:41.000Z</time>
</trkpt>
<trkpt lat="56.838455" lon="8.354358">
<ele>22.786774</ele>
<time>2026-07-14T09:08:42.000Z</time>
</trkpt>
<trkpt lat="56.838501" lon="8.354404">
<ele>22.823696</ele>
<time>2026-07-14T09:08:43.000Z</time>
</trkpt>
<trkpt lat="56.838547" lon="8.354450">
<ele>22.860618</ele>
<time>2026-07-14T09:08:44.000Z</time>
</trkpt>
<trkpt lat="56.838594" lon="8.354497">
<ele>22.898342</ele>
<time>2026-07-14T09:08:45.000Z</time>
</trkpt>
<trkpt lat="56.838638" lon="8.354544">
<ele>22.934228</ele>
<time>2026-07-14T09:08:46.000Z</time>
</trkpt>
<trkpt lat="56.838684" lon="8.354593">
<ele>22.971718</ele>
<time>2026-07-14T09:08:47.000Z</time>
</trkpt>
<trkpt lat="56.838733" lon="8.354642">
<ele>23.011048</ele>
<time>2026-07-14T09:08:48.000Z</time>
</trkpt>
<trkpt lat="56.838780" lon="8.354689">
<ele>23.048772</ele>
<time>2026-07-14T09:08:49.000Z</time>
</trkpt>
<trkpt lat="56.838826" lon="8.354738">
<ele>23.086262</ele>
<time>2026-07-14T09:08:50.000Z</time>
</trkpt>
<trkpt lat="56.838872" lon="8.354788">
<ele>23.123948</ele>
<time>2026-07-14T09:08:51.000Z</time>
</trkpt>
<trkpt lat="56.838920" lon="8.354838">
<ele>23.162851</ele>
<time>2026-07-14T09:08:52.000Z</time>
</trkpt>
<trkpt lat="56.838968" lon="8.354888">
<ele>23.201753</ele>
<time>2026-07-14T09:08:53.000Z</time>
</trkpt>
<trkpt lat="56.839013" lon="8.354938">
<ele>23.238835</ele>
<time>2026-07-14T09:08:54.000Z</time>
</trkpt>
<trkpt lat="56.839059" lon="8.354989">
<ele>23.276719</ele>
<time>2026-07-14T09:08:55.000Z</time>
</trkpt>
<trkpt lat="56.839105" lon="8.355041">
<ele>23.314804</ele>
<time>2026-07-14T09:08:56.000Z</time>
</trkpt>
<trkpt lat="56.839150" lon="8.355093">
<ele>23.343575</ele>
<time>2026-07-14T09:08:57.000Z</time>
</trkpt>
<trkpt lat="56.839196" lon="8.355146">
<ele>23.366457</ele>
<time>2026-07-14T09:08:58.000Z</time>
</trkpt>
<trkpt lat="56.839245" lon="8.355199">
<ele>23.390417</ele>
<time>2026-07-14T09:08:59.000Z</time>
</trkpt>
<trkpt lat="56.839292" lon="8.355251">
<ele>23.413536</ele>
<time>2026-07-14T09:09:00.000Z</time>
</trkpt>
<trkpt lat="56.839339" lon="8.355303">
<ele>23.436655</ele>
<time>2026-07-14T09:09:01.000Z</time>
</trkpt>
<trkpt lat="56.839387" lon="8.355357">
<ele>23.460374</ele>
<time>2026-07-14T09:09:02.000Z</time>
</trkpt>
<trkpt lat="56.839435" lon="8.355410">
<ele>23.483972</ele>
<time>2026-07-14T09:09:03.000Z</time>
</trkpt>
<trkpt lat="56.839482" lon="8.355464">
<ele>23.507333</ele>
<time>2026-07-14T09:09:04.000Z</time>
</trkpt>
<trkpt lat="56.839530" lon="8.355516">
<ele>23.530813</ele>
<time>2026-07-14T09:09:05.000Z</time>
</trkpt>
<trkpt lat="56.839580" lon="8.355567">
<ele>23.554909</ele>
<time>2026-07-14T09:09:06.000Z</time>
</trkpt>
<trkpt lat="56.839629" lon="8.355616">
<ele>23.578413</ele>
<time>2026-07-14T09:09:07.000Z</time>
</trkpt>
<trkpt lat="56.839677" lon="8.355665">
<ele>23.601549</ele>
<time>2026-07-14T09:09:08.000Z</time>
</trkpt>
<trkpt lat="56.839725" lon="8.355712">
<ele>23.624464</ele>
<time>2026-07-14T09:09:09.000Z</time>
</trkpt>
<trkpt lat="56.839775" lon="8.355761">
<ele>23.648338</ele>
<time>2026-07-14T09:09:10.000Z</time>
</trkpt>
<trkpt lat="56.839822" lon="8.355807">
<ele>23.670773</ele>
<time>2026-07-14T09:09:11.000Z</time>
</trkpt>
<trkpt lat="56.839869" lon="8.355850">
<ele>23.692891</ele>
<time>2026-07-14T09:09:12.000Z</time>
</trkpt>
<trkpt lat="56.839917" lon="8.355891">
<ele>23.715187</ele>
<time>2026-07-14T09:09:13.000Z</time>
</trkpt>
<trkpt lat="56.839963" lon="8.355936">
<ele>23.737143</ele>
<time>2026-07-14T09:09:14.000Z</time>
</trkpt>
<trkpt lat="56.840009" lon="8.355982">
<ele>23.759208</ele>
<time>2026-07-14T09:09:15.000Z</time>
</trkpt>
<trkpt lat="56.840055" lon="8.356029">
<ele>23.781384</ele>
<time>2026-07-14T09:09:16.000Z</time>
</trkpt>
<trkpt lat="56.840103" lon="8.356076">
<ele>23.804299</ele>
<time>2026-07-14T09:09:17.000Z</time>
</trkpt>
<trkpt lat="56.840152" lon="8.356122">
<ele>23.827480</ele>
<time>2026-07-14T09:09:18.000Z</time>
</trkpt>
<trkpt lat="56.840201" lon="8.356170">
<ele>23.850875</ele>
<time>2026-07-14T09:09:19.000Z</time>
</trkpt>
<trkpt lat="56.840251" lon="8.356218">
<ele>23.874641</ele>
<time>2026-07-14T09:09:20.000Z</time>
</trkpt>
<trkpt lat="56.840299" lon="8.356265">
<ele>23.897556</ele>
<time>2026-07-14T09:09:21.000Z</time>
</trkpt>
<trkpt lat="56.840346" lon="8.356313">
<ele>23.920212</ele>
<time>2026-07-14T09:09:22.000Z</time>
</trkpt>
<trkpt lat="56.840394" lon="8.356359">
<ele>23.943019</ele>
<time>2026-07-14T09:09:23.000Z</time>
</trkpt>
<trkpt lat="56.840436" lon="8.356397">
<ele>23.962740</ele>
<time>2026-07-14T09:09:24.000Z</time>
</trkpt>
<trkpt lat="56.840470" lon="8.356433">
<ele>23.979275</ele>
<time>2026-07-14T09:09:25.000Z</time>
</trkpt>
<trkpt lat="56.840499" lon="8.356469">
<ele>23.994027</ele>
<time>2026-07-14T09:09:26.000Z</time>
</trkpt>
<trkpt lat="56.840530" lon="8.356510">
<ele>24.010128</ele>
<time>2026-07-14T09:09:27.000Z</time>
</trkpt>
<trkpt lat="56.840568" lon="8.356560">
<ele>24.029831</ele>
<time>2026-07-14T09:09:28.000Z</time>
</trkpt>
<trkpt lat="56.840612" lon="8.356612">
<ele>24.051880</ele>
<time>2026-07-14T09:09:29.000Z</time>
</trkpt>
<trkpt lat="56.840655" lon="8.356665">
<ele>24.073704</ele>
<time>2026-07-14T09:09:30.000Z</time>
</trkpt>
<trkpt lat="56.840701" lon="8.356717">
<ele>24.105938</ele>
<time>2026-07-14T09:09:31.000Z</time>
</trkpt>
<trkpt lat="56.840751" lon="8.356770">
<ele>24.156147</ele>
<time>2026-07-14T09:09:32.000Z</time>
</trkpt>
<trkpt lat="56.840798" lon="8.356820">
<ele>24.203386</ele>
<time>2026-07-14T09:09:33.000Z</time>
</trkpt>
<trkpt lat="56.840842" lon="8.356869">
<ele>24.248143</ele>
<time>2026-07-14T09:09:34.000Z</time>
</trkpt>
<trkpt lat="56.840882" lon="8.356918">
<ele>24.289971</ele>
<time>2026-07-14T09:09:35.000Z</time>
</trkpt>
<trkpt lat="56.840916" lon="8.356965">
<ele>24.327000</ele>
<time>2026-07-14T09:09:36.000Z</time>
</trkpt>
<trkpt lat="56.840953" lon="8.357016">
<ele>24.367254</ele>
<time>2026-07-14T09:09:37.000Z</time>
</trkpt>
<trkpt lat="56.840993" lon="8.357068">
<ele>24.409892</ele>
<time>2026-07-14T09:09:38.000Z</time>
</trkpt>
<trkpt lat="56.841029" lon="8.357123">
<ele>24.450648</ele>
<time>2026-07-14T09:09:39.000Z</time>
</trkpt>
<trkpt lat="56.841065" lon="8.357177">
<ele>24.491101</ele>
<time>2026-07-14T09:09:40.000Z</time>
</trkpt>
<trkpt lat="56.841101" lon="8.357223">
<ele>24.529256</ele>
<time>2026-07-14T09:09:41.000Z</time>
</trkpt>
<trkpt lat="56.841134" lon="8.357264">
<ele>24.563917</ele>
<time>2026-07-14T09:09:42.000Z</time>
</trkpt>
<trkpt lat="56.841162" lon="8.357297">
<ele>24.592857</ele>
<time>2026-07-14T09:09:43.000Z</time>
</trkpt>
<trkpt lat="56.841189" lon="8.357325">
<ele>24.619824</ele>
<time>2026-07-14T09:09:44.000Z</time>
</trkpt>
<trkpt lat="56.841216" lon="8.357354">
<ele>24.647027</ele>
<time>2026-07-14T09:09:45.000Z</time>
</trkpt>
<trkpt lat="56.841245" lon="8.357384">
<ele>24.675974</ele>
<time>2026-07-14T09:09:46.000Z</time>
</trkpt>
<trkpt lat="56.841273" lon="8.357411">
<ele>24.703474</ele>
<time>2026-07-14T09:09:47.000Z</time>
</trkpt>
<trkpt lat="56.841298" lon="8.357442">
<ele>24.729716</ele>
<time>2026-07-14T09:09:48.000Z</time>
</trkpt>
<trkpt lat="56.841320" lon="8.357473">
<ele>24.753845</ele>
<time>2026-07-14T09:09:49.000Z</time>
</trkpt>
<trkpt lat="56.841350" lon="8.357516">
<ele>24.786961</ele>
<time>2026-07-14T09:09:50.000Z</time>
</trkpt>
<trkpt lat="56.841391" lon="8.357574">
<ele>24.831996</ele>
<time>2026-07-14T09:09:51.000Z</time>
</trkpt>
<trkpt lat="56.841435" lon="8.357626">
<ele>24.877510</ele>
<time>2026-07-14T09:09:52.000Z</time>
</trkpt>
<trkpt lat="56.841481" lon="8.357676">
<ele>24.924001</ele>
<time>2026-07-14T09:09:53.000Z</time>
</trkpt>
<trkpt lat="56.841527" lon="8.357726">
<ele>24.970491</ele>
<time>2026-07-14T09:09:54.000Z</time>
</trkpt>
<trkpt lat="56.841578" lon="8.357775">
<ele>25.020541</ele>
<time>2026-07-14T09:09:55.000Z</time>
</trkpt>
<trkpt lat="56.841638" lon="8.357827">
<ele>25.078224</ele>
<time>2026-07-14T09:09:56.000Z</time>
</trkpt>
<trkpt lat="56.841693" lon="8.357874">
<ele>25.130965</ele>
<time>2026-07-14T09:09:57.000Z</time>
</trkpt>
<trkpt lat="56.841737" lon="8.357910">
<ele>25.172842</ele>
<time>2026-07-14T09:09:58.000Z</time>
</trkpt>
<trkpt lat="56.841767" lon="8.357943">
<ele>25.203257</ele>
<time>2026-07-14T09:09:59.000Z</time>
</trkpt>
<trkpt lat="56.841788" lon="8.357976">
<ele>25.227313</ele>
<time>2026-07-14T09:10:00.000Z</time>
</trkpt>
<trkpt lat="56.841813" lon="8.358010">
<ele>25.254380</ele>
<time>2026-07-14T09:10:01.000Z</time>
</trkpt>
<trkpt lat="56.841837" lon="8.358048">
<ele>25.281961</ele>
<time>2026-07-14T09:10:02.000Z</time>
</trkpt>
<trkpt lat="56.841861" lon="8.358087">
<ele>25.309855</ele>
<time>2026-07-14T09:10:03.000Z</time>
</trkpt>
<trkpt lat="56.841883" lon="8.358124">
<ele>25.335824</ele>
<time>2026-07-14T09:10:04.000Z</time>
</trkpt>
<trkpt lat="56.841902" lon="8.358157">
<ele>25.358590</ele>
<time>2026-07-14T09:10:05.000Z</time>
</trkpt>
<trkpt lat="56.841942" lon="8.358182">
<ele>25.395313</ele>
<time>2026-07-14T09:10:06.000Z</time>
</trkpt>
<trkpt lat="56.841987" lon="8.358211">
<ele>25.436763</ele>
<time>2026-07-14T09:10:07.000Z</time>
</trkpt>
<trkpt lat="56.842033" lon="8.358292">
<ele>25.492244</ele>
<time>2026-07-14T09:10:08.000Z</time>
</trkpt>
<trkpt lat="56.842086" lon="8.358392">
<ele>25.558407</ele>
<time>2026-07-14T09:10:09.000Z</time>
</trkpt>
<trkpt lat="56.842133" lon="8.358474">
<ele>25.614844</ele>
<time>2026-07-14T09:10:10.000Z</time>
</trkpt>
<trkpt lat="56.842193" lon="8.358564">
<ele>25.655643</ele>
<time>2026-07-14T09:10:11.000Z</time>
</trkpt>
<trkpt lat="56.842266" lon="8.358661">
<ele>25.669181</ele>
<time>2026-07-14T09:10:12.000Z</time>
</trkpt>
<trkpt lat="56.842338" lon="8.358765">
<ele>25.682945</ele>
<time>2026-07-14T09:10:13.000Z</time>
</trkpt>
<trkpt lat="56.842404" lon="8.358867">
<ele>25.695909</ele>
<time>2026-07-14T09:10:14.000Z</time>
</trkpt>
<trkpt lat="56.842465" lon="8.358967">
<ele>25.708200</ele>
<time>2026-07-14T09:10:15.000Z</time>
</trkpt>
<trkpt lat="56.842529" lon="8.359073">
<ele>25.721154</ele>
<time>2026-07-14T09:10:16.000Z</time>
</trkpt>
<trkpt lat="56.842586" lon="8.359174">
<ele>25.733061</ele>
<time>2026-07-14T09:10:17.000Z</time>
</trkpt>
<trkpt lat="56.842640" lon="8.359269">
<ele>25.744303</ele>
<time>2026-07-14T09:10:18.000Z</time>
</trkpt>
<trkpt lat="56.842693" lon="8.359359">
<ele>25.755154</ele>
<time>2026-07-14T09:10:19.000Z</time>
</trkpt>
<trkpt lat="56.842744" lon="8.359448">
<ele>25.765730</ele>
<time>2026-07-14T09:10:20.000Z</time>
</trkpt>
<trkpt lat="56.842796" lon="8.359537">
<ele>25.776415</ele>
<time>2026-07-14T09:10:21.000Z</time>
</trkpt>
<trkpt lat="56.842843" lon="8.359624">
<ele>25.786448</ele>
<time>2026-07-14T09:10:22.000Z</time>
</trkpt>
<trkpt lat="56.842887" lon="8.359706">
<ele>25.795873</ele>
<time>2026-07-14T09:10:23.000Z</time>
</trkpt>
<trkpt lat="56.842931" lon="8.359783">
<ele>25.805009</ele>
<time>2026-07-14T09:10:24.000Z</time>
</trkpt>
<trkpt lat="56.842975" lon="8.359855">
<ele>25.813867</ele>
<time>2026-07-14T09:10:25.000Z</time>
</trkpt>
<trkpt lat="56.843019" lon="8.359929">
<ele>25.822835</ele>
<time>2026-07-14T09:10:26.000Z</time>
</trkpt>
<trkpt lat="56.843064" lon="8.360005">
<ele>25.832025</ele>
<time>2026-07-14T09:10:27.000Z</time>
</trkpt>
<trkpt lat="56.843108" lon="8.360080">
<ele>25.841049</ele>
<time>2026-07-14T09:10:28.000Z</time>
</trkpt>
<trkpt lat="56.843152" lon="8.360152">
<ele>25.849907</ele>
<time>2026-07-14T09:10:29.000Z</time>
</trkpt>
<trkpt lat="56.843196" lon="8.360223">
<ele>25.858710</ele>
<time>2026-07-14T09:10:30.000Z</time>
</trkpt>
<trkpt lat="56.843239" lon="8.360293">
<ele>25.867347</ele>
<time>2026-07-14T09:10:31.000Z</time>
</trkpt>
<trkpt lat="56.843283" lon="8.360362">
<ele>25.876043</ele>
<time>2026-07-14T09:10:32.000Z</time>
</trkpt>
<trkpt lat="56.843328" lon="8.360434">
<ele>25.885013</ele>
<time>2026-07-14T09:10:33.000Z</time>
</trkpt>
<trkpt lat="56.843374" lon="8.360505">
<ele>25.894044</ele>
<time>2026-07-14T09:10:34.000Z</time>
</trkpt>
<trkpt lat="56.843419" lon="8.360575">
<ele>25.902907</ele>
<time>2026-07-14T09:10:35.000Z</time>
</trkpt>
<trkpt lat="56.843465" lon="8.360644">
<ele>25.911832</ele>
<time>2026-07-14T09:10:36.000Z</time>
</trkpt>
<trkpt lat="56.843509" lon="8.360708">
<ele>25.919461</ele>
<time>2026-07-14T09:10:37.000Z</time>
</trkpt>
<trkpt lat="56.843552" lon="8.360772">
<ele>25.909343</ele>
<time>2026-07-14T09:10:38.000Z</time>
</trkpt>
<trkpt lat="56.843598" lon="8.360839">
<ele>25.898610</ele>
<time>2026-07-14T09:10:39.000Z</time>
</trkpt>
<trkpt lat="56.843644" lon="8.360901">
<ele>25.888181</ele>
<time>2026-07-14T09:10:40.000Z</time>
</trkpt>
<trkpt lat="56.843688" lon="8.360960">
<ele>25.878223</ele>
<time>2026-07-14T09:10:41.000Z</time>
</trkpt>
<trkpt lat="56.843730" lon="8.361021">
<ele>25.868435</ele>
<time>2026-07-14T09:10:42.000Z</time>
</trkpt>
<trkpt lat="56.843770" lon="8.361082">
<ele>25.858929</ele>
<time>2026-07-14T09:10:43.000Z</time>
</trkpt>
<trkpt lat="56.843810" lon="8.361144">
<ele>25.849360</ele>
<time>2026-07-14T09:10:44.000Z</time>
</trkpt>
<trkpt lat="56.843854" lon="8.361207">
<ele>25.839161</ele>
<time>2026-07-14T09:10:45.000Z</time>
</trkpt>
<trkpt lat="56.843898" lon="8.361271">
<ele>25.828900</ele>
<time>2026-07-14T09:10:46.000Z</time>
</trkpt>
<trkpt lat="56.843940" lon="8.361334">
<ele>25.818986</ele>
<time>2026-07-14T09:10:47.000Z</time>
</trkpt>
<trkpt lat="56.843982" lon="8.361395">
<ele>25.809198</ele>
<time>2026-07-14T09:10:48.000Z</time>
</trkpt>
<trkpt lat="56.844025" lon="8.361453">
<ele>25.799447</ele>
<time>2026-07-14T09:10:49.000Z</time>
</trkpt>
<trkpt lat="56.844071" lon="8.361512">
<ele>25.789192</ele>
<time>2026-07-14T09:10:50.000Z</time>
</trkpt>
<trkpt lat="56.844113" lon="8.361570">
<ele>25.779587</ele>
<time>2026-07-14T09:10:51.000Z</time>
</trkpt>
<trkpt lat="56.844151" lon="8.361625">
<ele>25.770743</ele>
<time>2026-07-14T09:10:52.000Z</time>
</trkpt>
<trkpt lat="56.844187" lon="8.361675">
<ele>25.762493</ele>
<time>2026-07-14T09:10:53.000Z</time>
</trkpt>
<trkpt lat="56.844222" lon="8.361722">
<ele>25.754568</ele>
<time>2026-07-14T09:10:54.000Z</time>
</trkpt>
<trkpt lat="56.844257" lon="8.361772">
<ele>25.746462</ele>
<time>2026-07-14T09:10:55.000Z</time>
</trkpt>
<trkpt lat="56.844297" lon="8.361830">
<ele>25.737146</ele>
<time>2026-07-14T09:10:56.000Z</time>
</trkpt>
<trkpt lat="56.844339" lon="8.361890">
<ele>25.727419</ele>
<time>2026-07-14T09:10:57.000Z</time>
</trkpt>
<trkpt lat="56.844379" lon="8.361949">
<ele>25.718040</ele>
<time>2026-07-14T09:10:58.000Z</time>
</trkpt>
<trkpt lat="56.844421" lon="8.362009">
<ele>25.708313</ele>
<time>2026-07-14T09:10:59.000Z</time>
</trkpt>
<trkpt lat="56.844465" lon="8.362066">
<ele>25.698473</ele>
<time>2026-07-14T09:11:00.000Z</time>
</trkpt>
<trkpt lat="56.844509" lon="8.362128">
<ele>25.688335</ele>
<time>2026-07-14T09:11:01.000Z</time>
</trkpt>
<trkpt lat="56.844548" lon="8.362196">
<ele>25.678501</ele>
<time>2026-07-14T09:11:02.000Z</time>
</trkpt>
<trkpt lat="56.844586" lon="8.362265">
<ele>25.668728</ele>
<time>2026-07-14T09:11:03.000Z</time>
</trkpt>
<trkpt lat="56.844627" lon="8.362335">
<ele>25.658491</ele>
<time>2026-07-14T09:11:04.000Z</time>
</trkpt>
<trkpt lat="56.844670" lon="8.362402">
<ele>25.648181</ele>
<time>2026-07-14T09:11:05.000Z</time>
</trkpt>
<trkpt lat="56.844716" lon="8.362465">
<ele>25.637692</ele>
<time>2026-07-14T09:11:06.000Z</time>
</trkpt>
<trkpt lat="56.844760" lon="8.362523">
<ele>25.627793</ele>
<time>2026-07-14T09:11:07.000Z</time>
</trkpt>
<trkpt lat="56.844800" lon="8.362575">
<ele>25.618837</ele>
<time>2026-07-14T09:11:08.000Z</time>
</trkpt>
<trkpt lat="56.844838" lon="8.362628">
<ele>25.610115</ele>
<time>2026-07-14T09:11:09.000Z</time>
</trkpt>
<trkpt lat="56.844879" lon="8.362682">
<ele>25.600894</ele>
<time>2026-07-14T09:11:10.000Z</time>
</trkpt>
<trkpt lat="56.844920" lon="8.362737">
<ele>25.591637</ele>
<time>2026-07-14T09:11:11.000Z</time>
</trkpt>
<trkpt lat="56.844962" lon="8.362790">
<ele>25.586677</ele>
<time>2026-07-14T09:11:12.000Z</time>
</trkpt>
<trkpt lat="56.845008" lon="8.362835">
<ele>25.581606</ele>
<time>2026-07-14T09:11:13.000Z</time>
</trkpt>
<trkpt lat="56.845054" lon="8.362874">
<ele>25.576678</ele>
<time>2026-07-14T09:11:14.000Z</time>
</trkpt>
<trkpt lat="56.845098" lon="8.362917">
<ele>25.571829</ele>
<time>2026-07-14T09:11:15.000Z</time>
</trkpt>
<trkpt lat="56.845144" lon="8.362964">
<ele>25.566707</ele>
<time>2026-07-14T09:11:16.000Z</time>
</trkpt>
<trkpt lat="56.845189" lon="8.363013">
<ele>25.561616</ele>
<time>2026-07-14T09:11:17.000Z</time>
</trkpt>
<trkpt lat="56.845235" lon="8.363062">
<ele>25.556442</ele>
<time>2026-07-14T09:11:18.000Z</time>
</trkpt>
<trkpt lat="56.845283" lon="8.363109">
<ele>25.551149</ele>
<time>2026-07-14T09:11:19.000Z</time>
</trkpt>
<trkpt lat="56.845331" lon="8.363153">
<ele>25.545930</ele>
<time>2026-07-14T09:11:20.000Z</time>
</trkpt>
<trkpt lat="56.845376" lon="8.363192">
<ele>25.541090</ele>
<time>2026-07-14T09:11:21.000Z</time>
</trkpt>
<trkpt lat="56.845424" lon="8.363230">
<ele>25.536006</ele>
<time>2026-07-14T09:11:22.000Z</time>
</trkpt>
<trkpt lat="56.845472" lon="8.363269">
<ele>25.530901</ele>
<time>2026-07-14T09:11:23.000Z</time>
</trkpt>
<trkpt lat="56.845515" lon="8.363307">
<ele>25.526258</ele>
<time>2026-07-14T09:11:24.000Z</time>
</trkpt>
<trkpt lat="56.845559" lon="8.363346">
<ele>25.521506</ele>
<time>2026-07-14T09:11:25.000Z</time>
</trkpt>
<trkpt lat="56.845605" lon="8.363385">
<ele>25.516577</ele>
<time>2026-07-14T09:11:26.000Z</time>
</trkpt>
<trkpt lat="56.845651" lon="8.363425">
<ele>25.511626</ele>
<time>2026-07-14T09:11:27.000Z</time>
</trkpt>
<trkpt lat="56.845695" lon="8.363466">
<ele>25.506826</ele>
<time>2026-07-14T09:11:28.000Z</time>
</trkpt>
<trkpt lat="56.845739" lon="8.363511">
<ele>25.501926</ele>
<time>2026-07-14T09:11:29.000Z</time>
</trkpt>
<trkpt lat="56.845784" lon="8.363555">
<ele>25.496966</ele>
<time>2026-07-14T09:11:30.000Z</time>
</trkpt>
<trkpt lat="56.845830" lon="8.363598">
<ele>25.491945</ele>
<time>2026-07-14T09:11:31.000Z</time>
</trkpt>
<trkpt lat="56.845873" lon="8.363642">
<ele>25.487155</ele>
<time>2026-07-14T09:11:32.000Z</time>
</trkpt>
<trkpt lat="56.845917" lon="8.363686">
<ele>25.482281</ele>
<time>2026-07-14T09:11:33.000Z</time>
</trkpt>
<trkpt lat="56.845961" lon="8.363727">
<ele>25.477481</ele>
<time>2026-07-14T09:11:34.000Z</time>
</trkpt>
<trkpt lat="56.846005" lon="8.363765">
<ele>25.472751</ele>
<time>2026-07-14T09:11:35.000Z</time>
</trkpt>
<trkpt lat="56.846051" lon="8.363801">
<ele>25.467887</ele>
<time>2026-07-14T09:11:36.000Z</time>
</trkpt>
<trkpt lat="56.846099" lon="8.363839">
<ele>25.462803</ele>
<time>2026-07-14T09:11:37.000Z</time>
</trkpt>
<trkpt lat="56.846149" lon="8.363878">
<ele>25.457520</ele>
<time>2026-07-14T09:11:38.000Z</time>
</trkpt>
<trkpt lat="56.846196" lon="8.363917">
<ele>25.452503</ele>
<time>2026-07-14T09:11:39.000Z</time>
</trkpt>
<trkpt lat="56.846246" lon="8.363959">
<ele>25.447155</ele>
<time>2026-07-14T09:11:40.000Z</time>
</trkpt>
<trkpt lat="56.846296" lon="8.364002">
<ele>25.441784</ele>
<time>2026-07-14T09:11:41.000Z</time>
</trkpt>
<trkpt lat="56.846344" lon="8.364044">
<ele>25.436612</ele>
<time>2026-07-14T09:11:42.000Z</time>
</trkpt>
<trkpt lat="56.846391" lon="8.364085">
<ele>25.431551</ele>
<time>2026-07-14T09:11:43.000Z</time>
</trkpt>
<trkpt lat="56.846435" lon="8.364123">
<ele>25.426821</ele>
<time>2026-07-14T09:11:44.000Z</time>
</trkpt>
<trkpt lat="56.846479" lon="8.364154">
<ele>25.422238</ele>
<time>2026-07-14T09:11:45.000Z</time>
</trkpt>
<trkpt lat="56.846526" lon="8.364185">
<ele>25.417381</ele>
<time>2026-07-14T09:11:46.000Z</time>
</trkpt>
<trkpt lat="56.846576" lon="8.364218">
<ele>25.410079</ele>
<time>2026-07-14T09:11:47.000Z</time>
</trkpt>
<trkpt lat="56.846625" lon="8.364253">
<ele>25.402606</ele>
<time>2026-07-14T09:11:48.000Z</time>
</trkpt>
<trkpt lat="56.846674" lon="8.364287">
<ele>25.395160</ele>
<time>2026-07-14T09:11:49.000Z</time>
</trkpt>
<trkpt lat="56.846725" lon="8.364320">
<ele>25.387475</ele>
<time>2026-07-14T09:11:50.000Z</time>
</trkpt>
<trkpt lat="56.846775" lon="8.364354">
<ele>25.379896</ele>
<time>2026-07-14T09:11:51.000Z</time>
</trkpt>
<trkpt lat="56.846822" lon="8.364384">
<ele>25.372824</ele>
<time>2026-07-14T09:11:52.000Z</time>
</trkpt>
<trkpt lat="56.846869" lon="8.364410">
<ele>25.365848</ele>
<time>2026-07-14T09:11:53.000Z</time>
</trkpt>
<trkpt lat="56.846916" lon="8.364438">
<ele>25.358825</ele>
<time>2026-07-14T09:11:54.000Z</time>
</trkpt>
<trkpt lat="56.846965" lon="8.364469">
<ele>25.351459</ele>
<time>2026-07-14T09:11:55.000Z</time>
</trkpt>
<trkpt lat="56.847014" lon="8.364503">
<ele>25.344013</ele>
<time>2026-07-14T09:11:56.000Z</time>
</trkpt>
<trkpt lat="56.847066" lon="8.364537">
<ele>25.336168</ele>
<time>2026-07-14T09:11:57.000Z</time>
</trkpt>
<trkpt lat="56.847120" lon="8.364566">
<ele>25.328172</ele>
<time>2026-07-14T09:11:58.000Z</time>
</trkpt>
<trkpt lat="56.847173" lon="8.364590">
<ele>25.320415</ele>
<time>2026-07-14T09:11:59.000Z</time>
</trkpt>
<trkpt lat="56.847227" lon="8.364611">
<ele>25.312572</ele>
<time>2026-07-14T09:12:00.000Z</time>
</trkpt>
<trkpt lat="56.847282" lon="8.364627">
<ele>25.304660</ele>
<time>2026-07-14T09:12:01.000Z</time>
</trkpt>
<trkpt lat="56.847341" lon="8.364637">
<ele>25.296242</ele>
<time>2026-07-14T09:12:02.000Z</time>
</trkpt>
<trkpt lat="56.847398" lon="8.364638">
<ele>25.288144</ele>
<time>2026-07-14T09:12:03.000Z</time>
</trkpt>
<trkpt lat="56.847455" lon="8.364632">
<ele>25.280032</ele>
<time>2026-07-14T09:12:04.000Z</time>
</trkpt>
<trkpt lat="56.847514" lon="8.364622">
<ele>25.271614</ele>
<time>2026-07-14T09:12:05.000Z</time>
</trkpt>
<trkpt lat="56.847572" lon="8.364614">
<ele>25.263351</ele>
<time>2026-07-14T09:12:06.000Z</time>
</trkpt>
<trkpt lat="56.847627" lon="8.364605">
<ele>25.255506</ele>
<time>2026-07-14T09:12:07.000Z</time>
</trkpt>
<trkpt lat="56.847681" lon="8.364592">
<ele>25.247768</ele>
<time>2026-07-14T09:12:08.000Z</time>
</trkpt>
<trkpt lat="56.847732" lon="8.364577">
<ele>25.240430</ele>
<time>2026-07-14T09:12:09.000Z</time>
</trkpt>
<trkpt lat="56.847781" lon="8.364560">
<ele>25.233344</ele>
<time>2026-07-14T09:12:10.000Z</time>
</trkpt>
<trkpt lat="56.847833" lon="8.364542">
<ele>25.225826</ele>
<time>2026-07-14T09:12:11.000Z</time>
</trkpt>
<trkpt lat="56.847885" lon="8.364523">
<ele>25.218292</ele>
<time>2026-07-14T09:12:12.000Z</time>
</trkpt>
<trkpt lat="56.847936" lon="8.364503">
<ele>25.210882</ele>
<time>2026-07-14T09:12:13.000Z</time>
</trkpt>
<trkpt lat="56.847989" lon="8.364484">
<ele>25.203209</ele>
<time>2026-07-14T09:12:14.000Z</time>
</trkpt>
<trkpt lat="56.848042" lon="8.364466">
<ele>25.195551</ele>
<time>2026-07-14T09:12:15.000Z</time>
</trkpt>
<trkpt lat="56.848095" lon="8.364451">
<ele>25.187932</ele>
<time>2026-07-14T09:12:16.000Z</time>
</trkpt>
<trkpt lat="56.848150" lon="8.364435">
<ele>25.180020</ele>
<time>2026-07-14T09:12:17.000Z</time>
</trkpt>
<trkpt lat="56.848203" lon="8.364418">
<ele>25.172375</ele>
<time>2026-07-14T09:12:18.000Z</time>
</trkpt>
<trkpt lat="56.848256" lon="8.364401">
<ele>25.164731</ele>
<time>2026-07-14T09:12:19.000Z</time>
</trkpt>
<trkpt lat="56.848309" lon="8.364384">
<ele>25.176188</ele>
<time>2026-07-14T09:12:20.000Z</time>
</trkpt>
<trkpt lat="56.848364" lon="8.364371">
<ele>25.203932</ele>
<time>2026-07-14T09:12:21.000Z</time>
</trkpt>
<trkpt lat="56.848421" lon="8.364360">
<ele>25.232606</ele>
<time>2026-07-14T09:12:22.000Z</time>
</trkpt>
<trkpt lat="56.848477" lon="8.364349">
<ele>25.260782</ele>
<time>2026-07-14T09:12:23.000Z</time>
</trkpt>
<trkpt lat="56.848531" lon="8.364336">
<ele>25.288029</ele>
<time>2026-07-14T09:12:24.000Z</time>
</trkpt>
<trkpt lat="56.848586" lon="8.364324">
<ele>25.315739</ele>
<time>2026-07-14T09:12:25.000Z</time>
</trkpt>
<trkpt lat="56.848644" lon="8.364318">
<ele>25.344801</ele>
<time>2026-07-14T09:12:26.000Z</time>
</trkpt>
<trkpt lat="56.848699" lon="8.364315">
<ele>25.372328</ele>
<time>2026-07-14T09:12:27.000Z</time>
</trkpt>
<trkpt lat="56.848752" lon="8.364312">
<ele>25.398855</ele>
<time>2026-07-14T09:12:28.000Z</time>
</trkpt>
<trkpt lat="56.848808" lon="8.364313">
<ele>25.426871</ele>
<time>2026-07-14T09:12:29.000Z</time>
</trkpt>
<trkpt lat="56.848863" lon="8.364318">
<ele>25.454420</ele>
<time>2026-07-14T09:12:30.000Z</time>
</trkpt>
<trkpt lat="56.848916" lon="8.364321">
<ele>25.480947</ele>
<time>2026-07-14T09:12:31.000Z</time>
</trkpt>
<trkpt lat="56.848971" lon="8.364323">
<ele>25.508467</ele>
<time>2026-07-14T09:12:32.000Z</time>
</trkpt>
<trkpt lat="56.849029" lon="8.364326">
<ele>25.537494</ele>
<time>2026-07-14T09:12:33.000Z</time>
</trkpt>
<trkpt lat="56.849084" lon="8.364334">
<ele>25.565096</ele>
<time>2026-07-14T09:12:34.000Z</time>
</trkpt>
<trkpt lat="56.849139" lon="8.364345">
<ele>25.592774</ele>
<time>2026-07-14T09:12:35.000Z</time>
</trkpt>
<trkpt lat="56.849195" lon="8.364354">
<ele>25.620897</ele>
<time>2026-07-14T09:12:36.000Z</time>
</trkpt>
<trkpt lat="56.849250" lon="8.364362">
<ele>25.648499</ele>
<time>2026-07-14T09:12:37.000Z</time>
</trkpt>
<trkpt lat="56.849308" lon="8.364371">
<ele>25.677619</ele>
<time>2026-07-14T09:12:38.000Z</time>
</trkpt>
<trkpt lat="56.849363" lon="8.364380">
<ele>25.705243</ele>
<time>2026-07-14T09:12:39.000Z</time>
</trkpt>
<trkpt lat="56.849417" lon="8.364389">
<ele>25.732370</ele>
<time>2026-07-14T09:12:40.000Z</time>
</trkpt>
<trkpt lat="56.849473" lon="8.364397">
<ele>25.760470</ele>
<time>2026-07-14T09:12:41.000Z</time>
</trkpt>
<trkpt lat="56.849527" lon="8.364403">
<ele>25.787534</ele>
<time>2026-07-14T09:12:42.000Z</time>
</trkpt>
<trkpt lat="56.849580" lon="8.364413">
<ele>25.814189</ele>
<time>2026-07-14T09:12:43.000Z</time>
</trkpt>
<trkpt lat="56.849637" lon="8.364425">
<ele>25.842893</ele>
<time>2026-07-14T09:12:44.000Z</time>
</trkpt>
<trkpt lat="56.849695" lon="8.364433">
<ele>25.871991</ele>
<time>2026-07-14T09:12:45.000Z</time>
</trkpt>
<trkpt lat="56.849748" lon="8.364438">
<ele>25.898540</ele>
<time>2026-07-14T09:12:46.000Z</time>
</trkpt>
<trkpt lat="56.849801" lon="8.364444">
<ele>25.925105</ele>
<time>2026-07-14T09:12:47.000Z</time>
</trkpt>
<trkpt lat="56.849855" lon="8.364453">
<ele>25.952231</ele>
<time>2026-07-14T09:12:48.000Z</time>
</trkpt>
<trkpt lat="56.849906" lon="8.364459">
<ele>25.977798</ele>
<time>2026-07-14T09:12:49.000Z</time>
</trkpt>
<trkpt lat="56.849957" lon="8.364462">
<ele>26.003325</ele>
<time>2026-07-14T09:12:50.000Z</time>
</trkpt>
<trkpt lat="56.850011" lon="8.364467">
<ele>26.030374</ele>
<time>2026-07-14T09:12:51.000Z</time>
</trkpt>
<trkpt lat="56.850066" lon="8.364471">
<ele>26.057910</ele>
<time>2026-07-14T09:12:52.000Z</time>
</trkpt>
<trkpt lat="56.850122" lon="8.364473">
<ele>26.104299</ele>
<time>2026-07-14T09:12:53.000Z</time>
</trkpt>
<trkpt lat="56.850173" lon="8.364475">
<ele>26.148707</ele>
<time>2026-07-14T09:12:54.000Z</time>
</trkpt>
<trkpt lat="56.850223" lon="8.364479">
<ele>26.192277</ele>
<time>2026-07-14T09:12:55.000Z</time>
</trkpt>
<trkpt lat="56.850273" lon="8.364483">
<ele>26.235846</ele>
<time>2026-07-14T09:12:56.000Z</time>
</trkpt>
<trkpt lat="56.850318" lon="8.364486">
<ele>26.275046</ele>
<time>2026-07-14T09:12:57.000Z</time>
</trkpt>
<trkpt lat="56.850362" lon="8.364488">
<ele>26.313362</ele>
<time>2026-07-14T09:12:58.000Z</time>
</trkpt>
<trkpt lat="56.850402" lon="8.364487">
<ele>26.348188</ele>
<time>2026-07-14T09:12:59.000Z</time>
</trkpt>
<trkpt lat="56.850434" lon="8.364487">
<ele>26.376045</ele>
<time>2026-07-14T09:13:00.000Z</time>
</trkpt>
<trkpt lat="56.850461" lon="8.364485">
<ele>26.399569</ele>
<time>2026-07-14T09:13:01.000Z</time>
</trkpt>
<trkpt lat="56.850477" lon="8.364474">
<ele>26.414450</ele>
<time>2026-07-14T09:13:02.000Z</time>
</trkpt>
<trkpt lat="56.850479" lon="8.364459">
<ele>26.421800</ele>
<time>2026-07-14T09:13:03.000Z</time>
</trkpt>
<trkpt lat="56.850467" lon="8.364444">
<ele>26.434453</ele>
<time>2026-07-14T09:13:04.000Z</time>
</trkpt>
<trkpt lat="56.850450" lon="8.364438">
<ele>26.449526</ele>
<time>2026-07-14T09:13:05.000Z</time>
</trkpt>
<trkpt lat="56.850431" lon="8.364436">
<ele>26.466094</ele>
<time>2026-07-14T09:13:06.000Z</time>
</trkpt>
<trkpt lat="56.850408" lon="8.364433">
<ele>26.486167</ele>
<time>2026-07-14T09:13:07.000Z</time>
</trkpt>
<trkpt lat="56.850383" lon="8.364428">
<ele>26.508061</ele>
<time>2026-07-14T09:13:08.000Z</time>
</trkpt>
<trkpt lat="56.850360" lon="8.364421">
<ele>26.528359</ele>
<time>2026-07-14T09:13:09.000Z</time>
</trkpt>
<trkpt lat="56.850337" lon="8.364417">
<ele>26.548472</ele>
<time>2026-07-14T09:13:10.000Z</time>
</trkpt>
<trkpt lat="56.850316" lon="8.364420">
<ele>26.566809</ele>
<time>2026-07-14T09:13:11.000Z</time>
</trkpt>
<trkpt lat="56.850297" lon="8.364434">
<ele>26.584641</ele>
<time>2026-07-14T09:13:12.000Z</time>
</trkpt>
<trkpt lat="56.850276" lon="8.364452">
<ele>26.604832</ele>
<time>2026-07-14T09:13:13.000Z</time>
</trkpt>
<trkpt lat="56.850251" lon="8.364467">
<ele>26.627737</ele>
<time>2026-07-14T09:13:14.000Z</time>
</trkpt>
<trkpt lat="56.850225" lon="8.364475">
<ele>26.650689</ele>
<time>2026-07-14T09:13:15.000Z</time>
</trkpt>
<trkpt lat="56.850198" lon="8.364475">
<ele>26.674194</ele>
<time>2026-07-14T09:13:16.000Z</time>
</trkpt>
<trkpt lat="56.850171" lon="8.364469">
<ele>26.697872</ele>
<time>2026-07-14T09:13:17.000Z</time>
</trkpt>
<trkpt lat="56.850143" lon="8.364460">
<ele>26.722621</ele>
<time>2026-07-14T09:13:18.000Z</time>
</trkpt>
<trkpt lat="56.850114" lon="8.364449">
<ele>26.748404</ele>
<time>2026-07-14T09:13:19.000Z</time>
</trkpt>
<trkpt lat="56.850087" lon="8.364439">
<ele>26.772386</ele>
<time>2026-07-14T09:13:20.000Z</time>
</trkpt>
<trkpt lat="56.850069" lon="8.364433">
<ele>26.788314</ele>
<time>2026-07-14T09:13:21.000Z</time>
</trkpt>
<trkpt lat="56.850057" lon="8.364429">
<ele>26.798933</ele>
<time>2026-07-14T09:13:22.000Z</time>
</trkpt>
<trkpt lat="56.850052" lon="8.364426">
<ele>26.803514</ele>
<time>2026-07-14T09:13:23.000Z</time>
</trkpt>
<trkpt lat="56.850052" lon="8.364424">
<ele>26.804466</ele>
<time>2026-07-14T09:13:24.000Z</time>
</trkpt>
<trkpt lat="56.850052" lon="8.364424">
<ele>26.804466</ele>
<time>2026-07-14T09:13:25.000Z</time>
</trkpt>
<trkpt lat="56.850064" lon="8.364448">
<ele>26.819947</ele>
<time>2026-07-14T09:14:04.000Z</time>
</trkpt>
<trkpt lat="56.850087" lon="8.364446">
<ele>26.839992</ele>
<time>2026-07-14T09:14:05.000Z</time>
</trkpt>
<trkpt lat="56.850114" lon="8.364447">
<ele>26.863502</ele>
<time>2026-07-14T09:14:06.000Z</time>
</trkpt>
<trkpt lat="56.850142" lon="8.364450">
<ele>26.887919</ele>
<time>2026-07-14T09:14:07.000Z</time>
</trkpt>
<trkpt lat="56.850173" lon="8.364447">
<ele>26.914944</ele>
<time>2026-07-14T09:14:08.000Z</time>
</trkpt>
<trkpt lat="56.850209" lon="8.364443">
<ele>26.946341</ele>
<time>2026-07-14T09:14:09.000Z</time>
</trkpt>
<trkpt lat="56.850245" lon="8.364442">
<ele>26.977685</ele>
<time>2026-07-14T09:14:10.000Z</time>
</trkpt>
<trkpt lat="56.850281" lon="8.364443">
<ele>27.009028</ele>
<time>2026-07-14T09:14:11.000Z</time>
</trkpt>
<trkpt lat="56.850313" lon="8.364444">
<ele>27.036890</ele>
<time>2026-07-14T09:14:12.000Z</time>
</trkpt>
<trkpt lat="56.850345" lon="8.364447">
<ele>27.064784</ele>
<time>2026-07-14T09:14:13.000Z</time>
</trkpt>
<trkpt lat="56.850379" lon="8.364452">
<ele>27.094478</ele>
<time>2026-07-14T09:14:14.000Z</time>
</trkpt>
<trkpt lat="56.850413" lon="8.364458">
<ele>27.124214</ele>
<time>2026-07-14T09:14:15.000Z</time>
</trkpt>
<trkpt lat="56.850449" lon="8.364462">
<ele>27.155612</ele>
<time>2026-07-14T09:14:16.000Z</time>
</trkpt>
<trkpt lat="56.850488" lon="8.364462">
<ele>27.189563</ele>
<time>2026-07-14T09:14:17.000Z</time>
</trkpt>
<trkpt lat="56.850524" lon="8.364459">
<ele>27.220936</ele>
<time>2026-07-14T09:14:18.000Z</time>
</trkpt>
<trkpt lat="56.850559" lon="8.364454">
<ele>27.251498</ele>
<time>2026-07-14T09:14:19.000Z</time>
</trkpt>
<trkpt lat="56.850598" lon="8.364449">
<ele>27.285532</ele>
<time>2026-07-14T09:14:20.000Z</time>
</trkpt>
<trkpt lat="56.850638" lon="8.364444">
<ele>27.320436</ele>
<time>2026-07-14T09:14:21.000Z</time>
</trkpt>
<trkpt lat="56.850678" lon="8.364440">
<ele>27.355310</ele>
<time>2026-07-14T09:14:22.000Z</time>
</trkpt>
<trkpt lat="56.850721" lon="8.364443">
<ele>27.392771</ele>
<time>2026-07-14T09:14:23.000Z</time>
</trkpt>
<trkpt lat="56.850765" lon="8.364449">
<ele>27.431181</ele>
<time>2026-07-14T09:14:24.000Z</time>
</trkpt>
<trkpt lat="56.850806" lon="8.364449">
<ele>27.466874</ele>
<time>2026-07-14T09:14:25.000Z</time>
</trkpt>
<trkpt lat="56.850848" lon="8.364448">
<ele>27.503440</ele>
<time>2026-07-14T09:14:26.000Z</time>
</trkpt>
<trkpt lat="56.850892" lon="8.364446">
<ele>27.541756</ele>
<time>2026-07-14T09:14:27.000Z</time>
</trkpt>
<trkpt lat="56.850936" lon="8.364441">
<ele>27.580134</ele>
<time>2026-07-14T09:14:28.000Z</time>
</trkpt>
<trkpt lat="56.850980" lon="8.364438">
<ele>27.618464</ele>
<time>2026-07-14T09:14:29.000Z</time>
</trkpt>
<trkpt lat="56.851024" lon="8.364436">
<ele>27.635534</ele>
<time>2026-07-14T09:14:30.000Z</time>
</trkpt>
<trkpt lat="56.851066" lon="8.364435">
<ele>27.646083</ele>
<time>2026-07-14T09:14:31.000Z</time>
</trkpt>
<trkpt lat="56.851107" lon="8.364432">
<ele>27.656387</ele>
<time>2026-07-14T09:14:32.000Z</time>
</trkpt>
<trkpt lat="56.851152" lon="8.364426">
<ele>27.667718</ele>
<time>2026-07-14T09:14:33.000Z</time>
</trkpt>
<trkpt lat="56.851194" lon="8.364421">
<ele>27.678288</ele>
<time>2026-07-14T09:14:34.000Z</time>
</trkpt>
<trkpt lat="56.851233" lon="8.364418">
<ele>27.688090</ele>
<time>2026-07-14T09:14:35.000Z</time>
</trkpt>
<trkpt lat="56.851278" lon="8.364421">
<ele>27.699399</ele>
<time>2026-07-14T09:14:36.000Z</time>
</trkpt>
<trkpt lat="56.851324" lon="8.364426">
<ele>27.710971</ele>
<time>2026-07-14T09:14:37.000Z</time>
</trkpt>
<trkpt lat="56.851373" lon="8.364433">
<ele>27.723314</ele>
<time>2026-07-14T09:14:38.000Z</time>
</trkpt>
<trkpt lat="56.851423" lon="8.364446">
<ele>27.735997</ele>
<time>2026-07-14T09:14:39.000Z</time>
</trkpt>
<trkpt lat="56.851468" lon="8.364465">
<ele>27.747595</ele>
<time>2026-07-14T09:14:40.000Z</time>
</trkpt>
<trkpt lat="56.851514" lon="8.364489">
<ele>27.759608</ele>
<time>2026-07-14T09:14:41.000Z</time>
</trkpt>
<trkpt lat="56.851560" lon="8.364516">
<ele>27.771740</ele>
<time>2026-07-14T09:14:42.000Z</time>
</trkpt>
<trkpt lat="56.851604" lon="8.364543">
<ele>27.783395</ele>
<time>2026-07-14T09:14:43.000Z</time>
</trkpt>
<trkpt lat="56.851648" lon="8.364566">
<ele>27.794887</ele>
<time>2026-07-14T09:14:44.000Z</time>
</trkpt>
<trkpt lat="56.851692" lon="8.364589">
<ele>27.806379</ele>
<time>2026-07-14T09:14:45.000Z</time>
</trkpt>
<trkpt lat="56.851733" lon="8.364613">
<ele>27.817190</ele>
<time>2026-07-14T09:14:46.000Z</time>
</trkpt>
<trkpt lat="56.851775" lon="8.364638">
<ele>27.828282</ele>
<time>2026-07-14T09:14:47.000Z</time>
</trkpt>
<trkpt lat="56.851821" lon="8.364663">
<ele>27.840334</ele>
<time>2026-07-14T09:14:48.000Z</time>
</trkpt>
<trkpt lat="56.851868" lon="8.364688">
<ele>27.852626</ele>
<time>2026-07-14T09:14:49.000Z</time>
</trkpt>
<trkpt lat="56.851914" lon="8.364715">
<ele>27.864758</ele>
<time>2026-07-14T09:14:50.000Z</time>
</trkpt>
<trkpt lat="56.851960" lon="8.364745">
<ele>27.877023</ele>
<time>2026-07-14T09:14:51.000Z</time>
</trkpt>
<trkpt lat="56.852008" lon="8.364777">
<ele>27.889853</ele>
<time>2026-07-14T09:14:52.000Z</time>
</trkpt>
<trkpt lat="56.852053" lon="8.364807">
<ele>27.901881</ele>
<time>2026-07-14T09:14:53.000Z</time>
</trkpt>
<trkpt lat="56.852100" lon="8.364837">
<ele>27.914382</ele>
<time>2026-07-14T09:14:54.000Z</time>
</trkpt>
<trkpt lat="56.852147" lon="8.364867">
<ele>27.926884</ele>
<time>2026-07-14T09:14:55.000Z</time>
</trkpt>
<trkpt lat="56.852195" lon="8.364896">
<ele>27.939579</ele>
<time>2026-07-14T09:14:56.000Z</time>
</trkpt>
<trkpt lat="56.852245" lon="8.364924">
<ele>27.952710</ele>
<time>2026-07-14T09:14:57.000Z</time>
</trkpt>
<trkpt lat="56.852295" lon="8.364954">
<ele>27.965925</ele>
<time>2026-07-14T09:14:58.000Z</time>
</trkpt>
<trkpt lat="56.852340" lon="8.364983">
<ele>27.977907</ele>
<time>2026-07-14T09:14:59.000Z</time>
</trkpt>
<trkpt lat="56.852384" lon="8.365011">
<ele>27.989607</ele>
<time>2026-07-14T09:15:00.000Z</time>
</trkpt>
<trkpt lat="56.852430" lon="8.365037">
<ele>28.001698</ele>
<time>2026-07-14T09:15:01.000Z</time>
</trkpt>
<trkpt lat="56.852474" lon="8.365061">
<ele>28.013229</ele>
<time>2026-07-14T09:15:02.000Z</time>
</trkpt>
<trkpt lat="56.852513" lon="8.365085">
<ele>28.023562</ele>
<time>2026-07-14T09:15:03.000Z</time>
</trkpt>
<trkpt lat="56.852554" lon="8.365102">
<ele>28.034120</ele>
<time>2026-07-14T09:15:04.000Z</time>
</trkpt>
<trkpt lat="56.852594" lon="8.365117">
<ele>28.044374</ele>
<time>2026-07-14T09:15:05.000Z</time>
</trkpt>
<trkpt lat="56.852634" lon="8.365132">
<ele>28.054628</ele>
<time>2026-07-14T09:15:06.000Z</time>
</trkpt>
<trkpt lat="56.852674" lon="8.365152">
<ele>28.065042</ele>
<time>2026-07-14T09:15:07.000Z</time>
</trkpt>
<trkpt lat="56.852710" lon="8.365171">
<ele>28.074451</ele>
<time>2026-07-14T09:15:08.000Z</time>
</trkpt>
<trkpt lat="56.852746" lon="8.365188">
<ele>28.079270</ele>
<time>2026-07-14T09:15:09.000Z</time>
</trkpt>
<trkpt lat="56.852780" lon="8.365199">
<ele>28.080373</ele>
<time>2026-07-14T09:15:10.000Z</time>
</trkpt>
<trkpt lat="56.852811" lon="8.365205">
<ele>28.081368</ele>
<time>2026-07-14T09:15:11.000Z</time>
</trkpt>
<trkpt lat="56.852839" lon="8.365214">
<ele>28.082276</ele>
<time>2026-07-14T09:15:12.000Z</time>
</trkpt>
<trkpt lat="56.852866" lon="8.365224">
<ele>28.083155</ele>
<time>2026-07-14T09:15:13.000Z</time>
</trkpt>
<trkpt lat="56.852895" lon="8.365236">
<ele>28.084105</ele>
<time>2026-07-14T09:15:14.000Z</time>
</trkpt>
<trkpt lat="56.852925" lon="8.365248">
<ele>28.085085</ele>
<time>2026-07-14T09:15:15.000Z</time>
</trkpt>
<trkpt lat="56.852955" lon="8.365260">
<ele>28.086066</ele>
<time>2026-07-14T09:15:16.000Z</time>
</trkpt>
<trkpt lat="56.852984" lon="8.365274">
<ele>28.087024</ele>
<time>2026-07-14T09:15:17.000Z</time>
</trkpt>
<trkpt lat="56.853015" lon="8.365287">
<ele>28.088039</ele>
<time>2026-07-14T09:15:18.000Z</time>
</trkpt>
<trkpt lat="56.853049" lon="8.365303">
<ele>28.089160</ele>
<time>2026-07-14T09:15:19.000Z</time>
</trkpt>
<trkpt lat="56.853084" lon="8.365323">
<ele>28.090331</ele>
<time>2026-07-14T09:15:20.000Z</time>
</trkpt>
<trkpt lat="56.853122" lon="8.365350">
<ele>28.091633</ele>
<time>2026-07-14T09:15:21.000Z</time>
</trkpt>
<trkpt lat="56.853166" lon="8.365385">
<ele>28.093165</ele>
<time>2026-07-14T09:15:22.000Z</time>
</trkpt>
<trkpt lat="56.853204" lon="8.365401">
<ele>28.094410</ele>
<time>2026-07-14T09:15:23.000Z</time>
</trkpt>
<trkpt lat="56.853230" lon="8.365382">
<ele>28.095304</ele>
<time>2026-07-14T09:15:24.000Z</time>
</trkpt>
<trkpt lat="56.853245" lon="8.365343">
<ele>28.096136</ele>
<time>2026-07-14T09:15:25.000Z</time>
</trkpt>
<trkpt lat="56.853254" lon="8.365294">
<ele>28.097039</ele>
<time>2026-07-14T09:15:26.000Z</time>
</trkpt>
<trkpt lat="56.853262" lon="8.365241">
<ele>28.097999</ele>
<time>2026-07-14T09:15:27.000Z</time>
</trkpt>
<trkpt lat="56.853266" lon="8.365188">
<ele>28.098933</ele>
<time>2026-07-14T09:15:28.000Z</time>
</trkpt>
<trkpt lat="56.853274" lon="8.365137">
<ele>28.099859</ele>
<time>2026-07-14T09:15:29.000Z</time>
</trkpt>
<trkpt lat="56.853283" lon="8.365085">
<ele>28.100811</ele>
<time>2026-07-14T09:15:30.000Z</time>
</trkpt>
<trkpt lat="56.853289" lon="8.365034">
<ele>28.101722</ele>
<time>2026-07-14T09:15:31.000Z</time>
</trkpt>
<trkpt lat="56.853296" lon="8.364987">
<ele>28.102572</ele>
<time>2026-07-14T09:15:32.000Z</time>
</trkpt>
<trkpt lat="56.853314" lon="8.364942">
<ele>28.103546</ele>
<time>2026-07-14T09:15:33.000Z</time>
</trkpt>
<trkpt lat="56.853335" lon="8.364894">
<ele>28.104619</ele>
<time>2026-07-14T09:15:34.000Z</time>
</trkpt>
<trkpt lat="56.853352" lon="8.364839">
<ele>28.105722</ele>
<time>2026-07-14T09:15:35.000Z</time>
</trkpt>
<trkpt lat="56.853367" lon="8.364764">
<ele>28.107116</ele>
<time>2026-07-14T09:15:36.000Z</time>
</trkpt>
<trkpt lat="56.853381" lon="8.364680">
<ele>28.108650</ele>
<time>2026-07-14T09:15:37.000Z</time>
</trkpt>
<trkpt lat="56.853392" lon="8.364598">
<ele>28.110124</ele>
<time>2026-07-14T09:15:38.000Z</time>
</trkpt>
<trkpt lat="56.853401" lon="8.364515">
<ele>28.111601</ele>
<time>2026-07-14T09:15:39.000Z</time>
</trkpt>
<trkpt lat="56.853413" lon="8.364433">
<ele>28.113083</ele>
<time>2026-07-14T09:15:40.000Z</time>
</trkpt>
<trkpt lat="56.853428" lon="8.364351">
<ele>28.114593</ele>
<time>2026-07-14T09:15:41.000Z</time>
</trkpt>
<trkpt lat="56.853443" lon="8.364271">
<ele>28.116069</ele>
<time>2026-07-14T09:15:42.000Z</time>
</trkpt>
<trkpt lat="56.853459" lon="8.364194">
<ele>28.117507</ele>
<time>2026-07-14T09:15:43.000Z</time>
</trkpt>
<trkpt lat="56.853474" lon="8.364114">
<ele>28.118984</ele>
<time>2026-07-14T09:15:44.000Z</time>
</trkpt>
<trkpt lat="56.853491" lon="8.364037">
<ele>28.120434</ele>
<time>2026-07-14T09:15:45.000Z</time>
</trkpt>
<trkpt lat="56.853510" lon="8.363959">
<ele>28.121924</ele>
<time>2026-07-14T09:15:46.000Z</time>
</trkpt>
<trkpt lat="56.853530" lon="8.363879">
<ele>28.123460</ele>
<time>2026-07-14T09:15:47.000Z</time>
</trkpt>
<trkpt lat="56.853545" lon="8.363800">
<ele>28.124920</ele>
<time>2026-07-14T09:15:48.000Z</time>
</trkpt>
<trkpt lat="56.853558" lon="8.363719">
<ele>28.126394</ele>
<time>2026-07-14T09:15:49.000Z</time>
</trkpt>
<trkpt lat="56.853573" lon="8.363638">
<ele>28.127887</ele>
<time>2026-07-14T09:15:50.000Z</time>
</trkpt>
<trkpt lat="56.853590" lon="8.363561">
<ele>28.129337</ele>
<time>2026-07-14T09:15:51.000Z</time>
</trkpt>
<trkpt lat="56.853608" lon="8.363490">
<ele>28.130703</ele>
<time>2026-07-14T09:15:52.000Z</time>
</trkpt>
<trkpt lat="56.853623" lon="8.363425">
<ele>28.131935</ele>
<time>2026-07-14T09:15:53.000Z</time>
</trkpt>
<trkpt lat="56.853638" lon="8.363349">
<ele>28.133345</ele>
<time>2026-07-14T09:15:54.000Z</time>
</trkpt>
<trkpt lat="56.853655" lon="8.363253">
<ele>28.135107</ele>
<time>2026-07-14T09:15:55.000Z</time>
</trkpt>
<trkpt lat="56.853670" lon="8.363161">
<ele>28.132114</ele>
<time>2026-07-14T09:15:56.000Z</time>
</trkpt>
<trkpt lat="56.853684" lon="8.363071">
<ele>28.123450</ele>
<time>2026-07-14T09:15:57.000Z</time>
</trkpt>
<trkpt lat="56.853699" lon="8.362986">
<ele>28.115179</ele>
<time>2026-07-14T09:15:58.000Z</time>
</trkpt>
<trkpt lat="56.853714" lon="8.362897">
<ele>28.106556</ele>
<time>2026-07-14T09:15:59.000Z</time>
</trkpt>
<trkpt lat="56.853731" lon="8.362800">
<ele>28.097124</ele>
<time>2026-07-14T09:16:00.000Z</time>
</trkpt>
<trkpt lat="56.853744" lon="8.362713">
<ele>28.088772</ele>
<time>2026-07-14T09:16:01.000Z</time>
</trkpt>
<trkpt lat="56.853752" lon="8.362612">
<ele>28.079322</ele>
<time>2026-07-14T09:16:02.000Z</time>
</trkpt>
<trkpt lat="56.853762" lon="8.362510">
<ele>28.069727</ele>
<time>2026-07-14T09:16:03.000Z</time>
</trkpt>
<trkpt lat="56.853771" lon="8.362411">
<ele>28.060434</ele>
<time>2026-07-14T09:16:04.000Z</time>
</trkpt>
<trkpt lat="56.853781" lon="8.362313">
<ele>28.051203</ele>
<time>2026-07-14T09:16:05.000Z</time>
</trkpt>
<trkpt lat="56.853791" lon="8.362225">
<ele>28.042880</ele>
<time>2026-07-14T09:16:06.000Z</time>
</trkpt>
<trkpt lat="56.853804" lon="8.362133">
<ele>28.034082</ele>
<time>2026-07-14T09:16:07.000Z</time>
</trkpt>
<trkpt lat="56.853815" lon="8.361996">
<ele>28.021260</ele>
<time>2026-07-14T09:16:08.000Z</time>
</trkpt>
<trkpt lat="56.853823" lon="8.361863">
<ele>28.008870</ele>
<time>2026-07-14T09:16:09.000Z</time>
</trkpt>
<trkpt lat="56.853840" lon="8.361766">
<ele>27.999438</ele>
<time>2026-07-14T09:16:10.000Z</time>
</trkpt>
<trkpt lat="56.853855" lon="8.361683">
<ele>27.991344</ele>
<time>2026-07-14T09:16:11.000Z</time>
</trkpt>
<trkpt lat="56.853865" lon="8.361603">
<ele>27.983745</ele>
<time>2026-07-14T09:16:12.000Z</time>
</trkpt>
<trkpt lat="56.853864" lon="8.361497">
<ele>27.973928</ele>
<time>2026-07-14T09:16:13.000Z</time>
</trkpt>
<trkpt lat="56.853861" lon="8.361394">
<ele>27.964378</ele>
<time>2026-07-14T09:16:14.000Z</time>
</trkpt>
<trkpt lat="56.853867" lon="8.361319">
<ele>27.957359</ele>
<time>2026-07-14T09:16:15.000Z</time>
</trkpt>
<trkpt lat="56.853876" lon="8.361246">
<ele>27.950430</ele>
<time>2026-07-14T09:16:16.000Z</time>
</trkpt>
<trkpt lat="56.853882" lon="8.361169">
<ele>27.943228</ele>
<time>2026-07-14T09:16:17.000Z</time>
</trkpt>
<trkpt lat="56.853882" lon="8.361096">
<ele>27.936468</ele>
<time>2026-07-14T09:16:18.000Z</time>
</trkpt>
<trkpt lat="56.853884" lon="8.361009">
<ele>27.928405</ele>
<time>2026-07-14T09:16:19.000Z</time>
</trkpt>
<trkpt lat="56.853890" lon="8.360909">
<ele>27.919090</ele>
<time>2026-07-14T09:16:20.000Z</time>
</trkpt>
<trkpt lat="56.853899" lon="8.360819">
<ele>27.910618</ele>
<time>2026-07-14T09:16:21.000Z</time>
</trkpt>
<trkpt lat="56.853909" lon="8.360730">
<ele>27.902205</ele>
<time>2026-07-14T09:16:22.000Z</time>
</trkpt>
<trkpt lat="56.853916" lon="8.360639">
<ele>27.893696</ele>
<time>2026-07-14T09:16:23.000Z</time>
</trkpt>
<trkpt lat="56.853932" lon="8.360547">
<ele>27.884756</ele>
<time>2026-07-14T09:16:24.000Z</time>
</trkpt>
<trkpt lat="56.853947" lon="8.360456">
<ele>27.875955</ele>
<time>2026-07-14T09:16:25.000Z</time>
</trkpt>
<trkpt lat="56.853958" lon="8.360355">
<ele>27.866420</ele>
<time>2026-07-14T09:16:26.000Z</time>
</trkpt>
<trkpt lat="56.853972" lon="8.360241">
<ele>27.855601</ele>
<time>2026-07-14T09:16:27.000Z</time>
</trkpt>
<trkpt lat="56.853979" lon="8.360126">
<ele>27.844886</ele>
<time>2026-07-14T09:16:28.000Z</time>
</trkpt>
<trkpt lat="56.853977" lon="8.359990">
<ele>27.832289</ele>
<time>2026-07-14T09:16:29.000Z</time>
</trkpt>
<trkpt lat="56.853979" lon="8.359856">
<ele>27.800226</ele>
<time>2026-07-14T09:16:30.000Z</time>
</trkpt>
<trkpt lat="56.853996" lon="8.359729">
<ele>27.767552</ele>
<time>2026-07-14T09:16:31.000Z</time>
</trkpt>
<trkpt lat="56.854014" lon="8.359602">
<ele>27.734767</ele>
<time>2026-07-14T09:16:32.000Z</time>
</trkpt>
<trkpt lat="56.854025" lon="8.359489">
<ele>27.706085</ele>
<time>2026-07-14T09:16:33.000Z</time>
</trkpt>
<trkpt lat="56.854031" lon="8.359361">
<ele>27.673981</ele>
<time>2026-07-14T09:16:34.000Z</time>
</trkpt>
<trkpt lat="56.854043" lon="8.359222">
<ele>27.638816</ele>
<time>2026-07-14T09:16:35.000Z</time>
</trkpt>
<trkpt lat="56.854058" lon="8.359093">
<ele>27.605859</ele>
<time>2026-07-14T09:16:36.000Z</time>
</trkpt>
<trkpt lat="56.854069" lon="8.358974">
<ele>27.575700</ele>
<time>2026-07-14T09:16:37.000Z</time>
</trkpt>
<trkpt lat="56.854083" lon="8.358866">
<ele>27.547963</ele>
<time>2026-07-14T09:16:38.000Z</time>
</trkpt>
<trkpt lat="56.854096" lon="8.358758">
<ele>27.520328</ele>
<time>2026-07-14T09:16:39.000Z</time>
</trkpt>
<trkpt lat="56.854111" lon="8.358645">
<ele>27.491270</ele>
<time>2026-07-14T09:16:40.000Z</time>
</trkpt>
<trkpt lat="56.854120" lon="8.358537">
<ele>27.463970</ele>
<time>2026-07-14T09:16:41.000Z</time>
</trkpt>
<trkpt lat="56.854126" lon="8.358443">
<ele>27.440321</ele>
<time>2026-07-14T09:16:42.000Z</time>
</trkpt>
<trkpt lat="56.854138" lon="8.358360">
<ele>27.418867</ele>
<time>2026-07-14T09:16:43.000Z</time>
</trkpt>
<trkpt lat="56.854155" lon="8.358283">
<ele>27.398116</ele>
<time>2026-07-14T09:16:44.000Z</time>
</trkpt>
<trkpt lat="56.854170" lon="8.358201">
<ele>27.376508</ele>
<time>2026-07-14T09:16:45.000Z</time>
</trkpt>
<trkpt lat="56.854186" lon="8.358123">
<ele>27.355690</ele>
<time>2026-07-14T09:16:46.000Z</time>
</trkpt>
<trkpt lat="56.854205" lon="8.358065">
<ele>27.338794</ele>
<time>2026-07-14T09:16:47.000Z</time>
</trkpt>
<trkpt lat="56.854222" lon="8.358027">
<ele>27.326525</ele>
<time>2026-07-14T09:16:48.000Z</time>
</trkpt>
<trkpt lat="56.854243" lon="8.358007">
<ele>27.315704</ele>
<time>2026-07-14T09:16:49.000Z</time>
</trkpt>
<trkpt lat="56.854267" lon="8.357997">
<ele>27.304454</ele>
<time>2026-07-14T09:16:50.000Z</time>
</trkpt>
<trkpt lat="56.854295" lon="8.357999">
<ele>27.291647</ele>
<time>2026-07-14T09:16:51.000Z</time>
</trkpt>
<trkpt lat="56.854325" lon="8.358009">
<ele>27.277710</ele>
<time>2026-07-14T09:16:52.000Z</time>
</trkpt>
<trkpt lat="56.854348" lon="8.358012">
<ele>27.267172</ele>
<time>2026-07-14T09:16:53.000Z</time>
</trkpt>
<trkpt lat="56.854373" lon="8.358015">
<ele>27.255722</ele>
<time>2026-07-14T09:16:54.000Z</time>
</trkpt>
<trkpt lat="56.854402" lon="8.358029">
<ele>27.242014</ele>
<time>2026-07-14T09:16:55.000Z</time>
</trkpt>
<trkpt lat="56.854434" lon="8.358048">
<ele>27.226637</ele>
<time>2026-07-14T09:16:56.000Z</time>
</trkpt>
<trkpt lat="56.854470" lon="8.358067">
<ele>27.209513</ele>
<time>2026-07-14T09:16:57.000Z</time>
</trkpt>
<trkpt lat="56.854513" lon="8.358092">
<ele>27.188891</ele>
<time>2026-07-14T09:16:58.000Z</time>
</trkpt>
<trkpt lat="56.854558" lon="8.358127">
<ele>27.166542</ele>
<time>2026-07-14T09:16:59.000Z</time>
</trkpt>
<trkpt lat="56.854604" lon="8.358164">
<ele>27.143576</ele>
<time>2026-07-14T09:17:00.000Z</time>
</trkpt>
<trkpt lat="56.854648" lon="8.358195">
<ele>27.122026</ele>
<time>2026-07-14T09:17:01.000Z</time>
</trkpt>
<trkpt lat="56.854686" lon="8.358217">
<ele>27.103809</ele>
<time>2026-07-14T09:17:02.000Z</time>
</trkpt>
<trkpt lat="56.854722" lon="8.358237">
<ele>27.086614</ele>
<time>2026-07-14T09:17:03.000Z</time>
</trkpt>
<trkpt lat="56.854760" lon="8.358265">
<ele>27.067890</ele>
<time>2026-07-14T09:17:04.000Z</time>
</trkpt>
<trkpt lat="56.854802" lon="8.358304">
<ele>27.046362</ele>
<time>2026-07-14T09:17:05.000Z</time>
</trkpt>
<trkpt lat="56.854851" lon="8.358338">
<ele>27.022410</ele>
<time>2026-07-14T09:17:06.000Z</time>
</trkpt>
<trkpt lat="56.854902" lon="8.358365">
<ele>27.023099</ele>
<time>2026-07-14T09:17:07.000Z</time>
</trkpt>
<trkpt lat="56.854955" lon="8.358393">
<ele>27.053758</ele>
<time>2026-07-14T09:17:08.000Z</time>
</trkpt>
<trkpt lat="56.855008" lon="8.358427">
<ele>27.084972</ele>
<time>2026-07-14T09:17:09.000Z</time>
</trkpt>
<trkpt lat="56.855060" lon="8.358467">
<ele>27.116323</ele>
<time>2026-07-14T09:17:10.000Z</time>
</trkpt>
<trkpt lat="56.855112" lon="8.358505">
<ele>27.147444</ele>
<time>2026-07-14T09:17:11.000Z</time>
</trkpt>
<trkpt lat="56.855165" lon="8.358541">
<ele>27.178865</ele>
<time>2026-07-14T09:17:12.000Z</time>
</trkpt>
<trkpt lat="56.855222" lon="8.358581">
<ele>27.212794</ele>
<time>2026-07-14T09:17:13.000Z</time>
</trkpt>
<trkpt lat="56.855281" lon="8.358623">
<ele>27.247980</ele>
<time>2026-07-14T09:17:14.000Z</time>
</trkpt>
<trkpt lat="56.855337" lon="8.358663">
<ele>27.281391</ele>
<time>2026-07-14T09:17:15.000Z</time>
</trkpt>
<trkpt lat="56.855394" lon="8.358708">
<ele>27.315894</ele>
<time>2026-07-14T09:17:16.000Z</time>
</trkpt>
<trkpt lat="56.855451" lon="8.358753">
<ele>27.350397</ele>
<time>2026-07-14T09:17:17.000Z</time>
</trkpt>
<trkpt lat="56.855504" lon="8.358793">
<ele>27.382261</ele>
<time>2026-07-14T09:17:18.000Z</time>
</trkpt>
<trkpt lat="56.855560" lon="8.358833">
<ele>27.415672</ele>
<time>2026-07-14T09:17:19.000Z</time>
</trkpt>
<trkpt lat="56.855617" lon="8.358865">
<ele>27.448809</ele>
<time>2026-07-14T09:17:20.000Z</time>
</trkpt>
<trkpt lat="56.855675" lon="8.358884">
<ele>27.481555</ele>
<time>2026-07-14T09:17:21.000Z</time>
</trkpt>
<trkpt lat="56.855729" lon="8.358894">
<ele>27.511719</ele>
<time>2026-07-14T09:17:22.000Z</time>
</trkpt>
<trkpt lat="56.855783" lon="8.358898">
<ele>27.541755</ele>
<time>2026-07-14T09:17:23.000Z</time>
</trkpt>
<trkpt lat="56.855838" lon="8.358899">
<ele>27.572323</ele>
<time>2026-07-14T09:17:24.000Z</time>
</trkpt>
<trkpt lat="56.855892" lon="8.358897">
<ele>27.602339</ele>
<time>2026-07-14T09:17:25.000Z</time>
</trkpt>
<trkpt lat="56.855940" lon="8.358895">
<ele>27.629022</ele>
<time>2026-07-14T09:17:26.000Z</time>
</trkpt>
<trkpt lat="56.855988" lon="8.358894">
<ele>27.655700</ele>
<time>2026-07-14T09:17:27.000Z</time>
</trkpt>
<trkpt lat="56.856035" lon="8.358903">
<ele>27.681963</ele>
<time>2026-07-14T09:17:28.000Z</time>
</trkpt>
<trkpt lat="56.856081" lon="8.358923">
<ele>27.708240</ele>
<time>2026-07-14T09:17:29.000Z</time>
</trkpt>
<trkpt lat="56.856124" lon="8.358952">
<ele>27.733710</ele>
<time>2026-07-14T09:17:30.000Z</time>
</trkpt>
<trkpt lat="56.856166" lon="8.358987">
<ele>27.759361</ele>
<time>2026-07-14T09:17:31.000Z</time>
</trkpt>
<trkpt lat="56.856206" lon="8.359030">
<ele>27.785146</ele>
<time>2026-07-14T09:17:32.000Z</time>
</trkpt>
<trkpt lat="56.856246" lon="8.359077">
<ele>27.811568</ele>
<time>2026-07-14T09:17:33.000Z</time>
</trkpt>
<trkpt lat="56.856288" lon="8.359125">
<ele>27.839092</ele>
<time>2026-07-14T09:17:34.000Z</time>
</trkpt>
<trkpt lat="56.856330" lon="8.359175">
<ele>27.866942</ele>
<time>2026-07-14T09:17:35.000Z</time>
</trkpt>
<trkpt lat="56.856371" lon="8.359226">
<ele>27.894498</ele>
<time>2026-07-14T09:17:36.000Z</time>
</trkpt>
<trkpt lat="56.856413" lon="8.359278">
<ele>27.922685</ele>
<time>2026-07-14T09:17:37.000Z</time>
</trkpt>
<trkpt lat="56.856456" lon="8.359328">
<ele>27.951003</ele>
<time>2026-07-14T09:17:38.000Z</time>
</trkpt>
<trkpt lat="56.856495" lon="8.359375">
<ele>27.976959</ele>
<time>2026-07-14T09:17:39.000Z</time>
</trkpt>
<trkpt lat="56.856532" lon="8.359422">
<ele>28.001994</ele>
<time>2026-07-14T09:17:40.000Z</time>
</trkpt>
<trkpt lat="56.856566" lon="8.359468">
<ele>28.016283</ele>
<time>2026-07-14T09:17:41.000Z</time>
</trkpt>
<trkpt lat="56.856598" lon="8.359513">
<ele>28.026181</ele>
<time>2026-07-14T09:17:42.000Z</time>
</trkpt>
<trkpt lat="56.856630" lon="8.359559">
<ele>28.036162</ele>
<time>2026-07-14T09:17:43.000Z</time>
</trkpt>
<trkpt lat="56.856661" lon="8.359600">
<ele>28.045543</ele>
<time>2026-07-14T09:17:44.000Z</time>
</trkpt>
<trkpt lat="56.856694" lon="8.359640">
<ele>28.055251</ele>
<time>2026-07-14T09:17:45.000Z</time>
</trkpt>
<trkpt lat="56.856734" lon="8.359686">
<ele>28.066838</ele>
<time>2026-07-14T09:17:46.000Z</time>
</trkpt>
<trkpt lat="56.856770" lon="8.359729">
<ele>28.077382</ele>
<time>2026-07-14T09:17:47.000Z</time>
</trkpt>
<trkpt lat="56.856809" lon="8.359773">
<ele>28.088619</ele>
<time>2026-07-14T09:17:48.000Z</time>
</trkpt>
<trkpt lat="56.856847" lon="8.359823">
<ele>28.100098</ele>
<time>2026-07-14T09:17:49.000Z</time>
</trkpt>
<trkpt lat="56.856887" lon="8.359877">
<ele>28.112290</ele>
<time>2026-07-14T09:17:50.000Z</time>
</trkpt>
<trkpt lat="56.856929" lon="8.359927">
<ele>28.124579</ele>
<time>2026-07-14T09:17:51.000Z</time>
</trkpt>
<trkpt lat="56.856968" lon="8.359974">
<ele>28.136032</ele>
<time>2026-07-14T09:17:52.000Z</time>
</trkpt>
<trkpt lat="56.857008" lon="8.360017">
<ele>28.147410</ele>
<time>2026-07-14T09:17:53.000Z</time>
</trkpt>
<trkpt lat="56.857049" lon="8.360059">
<ele>28.158934</ele>
<time>2026-07-14T09:17:54.000Z</time>
</trkpt>
<trkpt lat="56.857087" lon="8.360097">
<ele>28.169554</ele>
<time>2026-07-14T09:17:55.000Z</time>
</trkpt>
<trkpt lat="56.857129" lon="8.360141">
<ele>28.181424</ele>
<time>2026-07-14T09:17:56.000Z</time>
</trkpt>
<trkpt lat="56.857171" lon="8.360187">
<ele>28.193428</ele>
<time>2026-07-14T09:17:57.000Z</time>
</trkpt>
<trkpt lat="56.857210" lon="8.360226">
<ele>28.204328</ele>
<time>2026-07-14T09:17:58.000Z</time>
</trkpt>
<trkpt lat="56.857250" lon="8.360263">
<ele>28.215320</ele>
<time>2026-07-14T09:17:59.000Z</time>
</trkpt>
<trkpt lat="56.857292" lon="8.360300">
<ele>28.226752</ele>
<time>2026-07-14T09:18:00.000Z</time>
</trkpt>
<trkpt lat="56.857331" lon="8.360332">
<ele>28.237234</ele>
<time>2026-07-14T09:18:01.000Z</time>
</trkpt>
<trkpt lat="56.857368" lon="8.360357">
<ele>28.246907</ele>
<time>2026-07-14T09:18:02.000Z</time>
</trkpt>
<trkpt lat="56.857406" lon="8.360381">
<ele>28.256766</ele>
<time>2026-07-14T09:18:03.000Z</time>
</trkpt>
<trkpt lat="56.857450" lon="8.360407">
<ele>28.268105</ele>
<time>2026-07-14T09:18:04.000Z</time>
</trkpt>
<trkpt lat="56.857494" lon="8.360428">
<ele>28.279256</ele>
<time>2026-07-14T09:18:05.000Z</time>
</trkpt>
<trkpt lat="56.857533" lon="8.360445">
<ele>28.289088</ele>
<time>2026-07-14T09:18:06.000Z</time>
</trkpt>
<trkpt lat="56.857577" lon="8.360465">
<ele>28.300206</ele>
<time>2026-07-14T09:18:07.000Z</time>
</trkpt>
<trkpt lat="56.857641" lon="8.360496">
<ele>28.316441</ele>
<time>2026-07-14T09:18:08.000Z</time>
</trkpt>
<trkpt lat="56.857694" lon="8.360531">
<ele>28.330259</ele>
<time>2026-07-14T09:18:09.000Z</time>
</trkpt>
<trkpt lat="56.857745" lon="8.360572">
<ele>28.343921</ele>
<time>2026-07-14T09:18:10.000Z</time>
</trkpt>
<trkpt lat="56.857795" lon="8.360615">
<ele>28.357470</ele>
<time>2026-07-14T09:18:11.000Z</time>
</trkpt>
<trkpt lat="56.857844" lon="8.360660">
<ele>28.370915</ele>
<time>2026-07-14T09:18:12.000Z</time>
</trkpt>
<trkpt lat="56.857888" lon="8.360701">
<ele>28.383025</ele>
<time>2026-07-14T09:18:13.000Z</time>
</trkpt>
<trkpt lat="56.857928" lon="8.360739">
<ele>28.394078</ele>
<time>2026-07-14T09:18:14.000Z</time>
</trkpt>
<trkpt lat="56.857968" lon="8.360778">
<ele>28.405194</ele>
<time>2026-07-14T09:18:15.000Z</time>
</trkpt>
<trkpt lat="56.858007" lon="8.360820">
<ele>28.416292</ele>
<time>2026-07-14T09:18:16.000Z</time>
</trkpt>
<trkpt lat="56.858044" lon="8.360864">
<ele>28.427115</ele>
<time>2026-07-14T09:18:17.000Z</time>
</trkpt>
<trkpt lat="56.858078" lon="8.360905">
<ele>28.437101</ele>
<time>2026-07-14T09:18:18.000Z</time>
</trkpt>
<trkpt lat="56.858107" lon="8.360944">
<ele>28.445928</ele>
<time>2026-07-14T09:18:19.000Z</time>
</trkpt>
<trkpt lat="56.858134" lon="8.360987">
<ele>28.436278</ele>
<time>2026-07-14T09:18:20.000Z</time>
</trkpt>
<trkpt lat="56.858166" lon="8.361034">
<ele>28.406251</ele>
<time>2026-07-14T09:18:21.000Z</time>
</trkpt>
<trkpt lat="56.858200" lon="8.361083">
<ele>28.374581</ele>
<time>2026-07-14T09:18:22.000Z</time>
</trkpt>
<trkpt lat="56.858240" lon="8.361155">
<ele>28.333520</ele>
<time>2026-07-14T09:18:23.000Z</time>
</trkpt>
<trkpt lat="56.858279" lon="8.361250">
<ele>28.285999</ele>
<time>2026-07-14T09:18:24.000Z</time>
</trkpt>
<trkpt lat="56.858309" lon="8.361333">
<ele>28.246199</ele>
<time>2026-07-14T09:18:25.000Z</time>
</trkpt>
<trkpt lat="56.858342" lon="8.361407">
<ele>28.208000</ele>
<time>2026-07-14T09:18:26.000Z</time>
</trkpt>
<trkpt lat="56.858386" lon="8.361491">
<ele>28.161466</ele>
<time>2026-07-14T09:18:27.000Z</time>
</trkpt>
<trkpt lat="56.858438" lon="8.361596">
<ele>28.104795</ele>
<time>2026-07-14T09:18:28.000Z</time>
</trkpt>
<trkpt lat="56.858483" lon="8.361710">
<ele>28.048551</ele>
<time>2026-07-14T09:18:29.000Z</time>
</trkpt>
<trkpt lat="56.858537" lon="8.361817">
<ele>27.990302</ele>
<time>2026-07-14T09:18:30.000Z</time>
</trkpt>
<trkpt lat="56.858593" lon="8.361917">
<ele>27.933042</ele>
<time>2026-07-14T09:18:31.000Z</time>
</trkpt>
<trkpt lat="56.858644" lon="8.362018">
<ele>27.878046</ele>
<time>2026-07-14T09:18:32.000Z</time>
</trkpt>
<trkpt lat="56.858695" lon="8.362113">
<ele>27.824788</ele>
<time>2026-07-14T09:18:33.000Z</time>
</trkpt>
<trkpt lat="56.858743" lon="8.362202">
<ele>27.774780</ele>
<time>2026-07-14T09:18:34.000Z</time>
</trkpt>
<trkpt lat="56.858793" lon="8.362299">
<ele>27.721453</ele>
<time>2026-07-14T09:18:35.000Z</time>
</trkpt>
<trkpt lat="56.858844" lon="8.362406">
<ele>27.664671</ele>
<time>2026-07-14T09:18:36.000Z</time>
</trkpt>
<trkpt lat="56.858894" lon="8.362511">
<ele>27.608973</ele>
<time>2026-07-14T09:18:37.000Z</time>
</trkpt>
<trkpt lat="56.858941" lon="8.362614">
<ele>27.555307</ele>
<time>2026-07-14T09:18:38.000Z</time>
</trkpt>
<trkpt lat="56.858985" lon="8.362716">
<ele>27.503336</ele>
<time>2026-07-14T09:18:39.000Z</time>
</trkpt>
<trkpt lat="56.859031" lon="8.362812">
<ele>27.452274</ele>
<time>2026-07-14T09:18:40.000Z</time>
</trkpt>
<trkpt lat="56.859073" lon="8.362903">
<ele>27.404637</ele>
<time>2026-07-14T09:18:41.000Z</time>
</trkpt>
<trkpt lat="56.859111" lon="8.362996">
<ele>27.358196</ele>
<time>2026-07-14T09:18:42.000Z</time>
</trkpt>
<trkpt lat="56.859153" lon="8.363091">
<ele>27.309326</ele>
<time>2026-07-14T09:18:43.000Z</time>
</trkpt>
<trkpt lat="56.859195" lon="8.363185">
<ele>27.260766</ele>
<time>2026-07-14T09:18:44.000Z</time>
</trkpt>
<trkpt lat="56.859237" lon="8.363271">
<ele>27.214639</ele>
<time>2026-07-14T09:18:45.000Z</time>
</trkpt>
<trkpt lat="56.859275" lon="8.363356">
<ele>27.170719</ele>
<time>2026-07-14T09:18:46.000Z</time>
</trkpt>
<trkpt lat="56.859309" lon="8.363435">
<ele>27.135693</ele>
<time>2026-07-14T09:18:47.000Z</time>
</trkpt>
<trkpt lat="56.859342" lon="8.363508">
<ele>27.152647</ele>
<time>2026-07-14T09:18:48.000Z</time>
</trkpt>
<trkpt lat="56.859376" lon="8.363596">
<ele>27.171935</ele>
<time>2026-07-14T09:18:49.000Z</time>
</trkpt>
<trkpt lat="56.859410" lon="8.363690">
<ele>27.192110</ele>
<time>2026-07-14T09:18:50.000Z</time>
</trkpt>
<trkpt lat="56.859443" lon="8.363786">
<ele>27.212408</ele>
<time>2026-07-14T09:18:51.000Z</time>
</trkpt>
<trkpt lat="56.859475" lon="8.363879">
<ele>27.232077</ele>
<time>2026-07-14T09:18:52.000Z</time>
</trkpt>
<trkpt lat="56.859501" lon="8.363963">
<ele>27.249354</ele>
<time>2026-07-14T09:18:53.000Z</time>
</trkpt>
<trkpt lat="56.859522" lon="8.364039">
<ele>27.264597</ele>
<time>2026-07-14T09:18:54.000Z</time>
</trkpt>
<trkpt lat="56.859541" lon="8.364109">
<ele>27.278585</ele>
<time>2026-07-14T09:18:55.000Z</time>
</trkpt>
<trkpt lat="56.859558" lon="8.364173">
<ele>27.291321</ele>
<time>2026-07-14T09:18:56.000Z</time>
</trkpt>
<trkpt lat="56.859573" lon="8.364232">
<ele>27.302968</ele>
<time>2026-07-14T09:18:57.000Z</time>
</trkpt>
<trkpt lat="56.859591" lon="8.364291">
<ele>27.315062</ele>
<time>2026-07-14T09:18:58.000Z</time>
</trkpt>
<trkpt lat="56.859616" lon="8.364355">
<ele>27.329141</ele>
<time>2026-07-14T09:18:59.000Z</time>
</trkpt>
<trkpt lat="56.859641" lon="8.364427">
<ele>27.344408</ele>
<time>2026-07-14T09:19:00.000Z</time>
</trkpt>
<trkpt lat="56.859660" lon="8.364499">
<ele>27.358718</ele>
<time>2026-07-14T09:19:01.000Z</time>
</trkpt>
<trkpt lat="56.859677" lon="8.364565">
<ele>27.371777</ele>
<time>2026-07-14T09:19:02.000Z</time>
</trkpt>
<trkpt lat="56.859702" lon="8.364638">
<ele>27.387195</ele>
<time>2026-07-14T09:19:03.000Z</time>
</trkpt>
<trkpt lat="56.859732" lon="8.364719">
<ele>27.404708</ele>
<time>2026-07-14T09:19:04.000Z</time>
</trkpt>
<trkpt lat="56.859763" lon="8.364809">
<ele>27.423748</ele>
<time>2026-07-14T09:19:05.000Z</time>
</trkpt>
<trkpt lat="56.859797" lon="8.364906">
<ele>27.444372</ele>
<time>2026-07-14T09:19:06.000Z</time>
</trkpt>
<trkpt lat="56.859828" lon="8.364993">
<ele>27.462960</ele>
<time>2026-07-14T09:19:07.000Z</time>
</trkpt>
<trkpt lat="56.859884" lon="8.365073">
<ele>27.486224</ele>
<time>2026-07-14T09:19:08.000Z</time>
</trkpt>
<trkpt lat="56.859956" lon="8.365152">
<ele>27.513713</ele>
<time>2026-07-14T09:19:09.000Z</time>
</trkpt>
<trkpt lat="56.860014" lon="8.365230">
<ele>27.537282</ele>
<time>2026-07-14T09:19:10.000Z</time>
</trkpt>
<trkpt lat="56.860065" lon="8.365306">
<ele>27.558820</ele>
<time>2026-07-14T09:19:11.000Z</time>
</trkpt>
<trkpt lat="56.860111" lon="8.365382">
<ele>27.579114</ele>
<time>2026-07-14T09:19:12.000Z</time>
</trkpt>
<trkpt lat="56.860151" lon="8.365458">
<ele>27.597997</ele>
<time>2026-07-14T09:19:13.000Z</time>
</trkpt>
<trkpt lat="56.860182" lon="8.365530">
<ele>27.614401</ele>
<time>2026-07-14T09:19:14.000Z</time>
</trkpt>
<trkpt lat="56.860209" lon="8.365595">
<ele>27.629013</ele>
<time>2026-07-14T09:19:15.000Z</time>
</trkpt>
<trkpt lat="56.860234" lon="8.365659">
<ele>27.643092</ele>
<time>2026-07-14T09:19:16.000Z</time>
</trkpt>
<trkpt lat="56.860257" lon="8.365720">
<ele>27.656355</ele>
<time>2026-07-14T09:19:17.000Z</time>
</trkpt>
<trkpt lat="56.860280" lon="8.365787">
<ele>27.670516</ele>
<time>2026-07-14T09:19:18.000Z</time>
</trkpt>
<trkpt lat="56.860304" lon="8.365858">
<ele>27.685457</ele>
<time>2026-07-14T09:19:19.000Z</time>
</trkpt>
<trkpt lat="56.860329" lon="8.365934">
<ele>27.701333</ele>
<time>2026-07-14T09:19:20.000Z</time>
</trkpt>
<trkpt lat="56.860354" lon="8.366010">
<ele>27.717209</ele>
<time>2026-07-14T09:19:21.000Z</time>
</trkpt>
<trkpt lat="56.860383" lon="8.366078">
<ele>27.751491</ele>
<time>2026-07-14T09:19:22.000Z</time>
</trkpt>
<trkpt lat="56.860414" lon="8.366139">
<ele>27.795460</ele>
<time>2026-07-14T09:19:23.000Z</time>
</trkpt>
<trkpt lat="56.860441" lon="8.366199">
<ele>27.836486</ele>
<time>2026-07-14T09:19:24.000Z</time>
</trkpt>
<trkpt lat="56.860469" lon="8.366265">
<ele>27.880589</ele>
<time>2026-07-14T09:19:25.000Z</time>
</trkpt>
<trkpt lat="56.860491" lon="8.366343">
<ele>27.926924</ele>
<time>2026-07-14T09:19:26.000Z</time>
</trkpt>
<trkpt lat="56.860504" lon="8.366421">
<ele>27.969973</ele>
<time>2026-07-14T09:19:27.000Z</time>
</trkpt>
<trkpt lat="56.860524" lon="8.366486">
<ele>28.009349</ele>
<time>2026-07-14T09:19:28.000Z</time>
</trkpt>
<trkpt lat="56.860541" lon="8.366538">
<ele>28.041335</ele>
<time>2026-07-14T09:19:29.000Z</time>
</trkpt>
<trkpt lat="56.860560" lon="8.366598">
<ele>28.077941</ele>
<time>2026-07-14T09:19:30.000Z</time>
</trkpt>
<trkpt lat="56.860586" lon="8.366675">
<ele>28.125719</ele>
<time>2026-07-14T09:19:31.000Z</time>
</trkpt>
<trkpt lat="56.860605" lon="8.366736">
<ele>28.162782</ele>
<time>2026-07-14T09:19:32.000Z</time>
</trkpt>
<trkpt lat="56.860621" lon="8.366799">
<ele>28.199455</ele>
<time>2026-07-14T09:19:33.000Z</time>
</trkpt>
<trkpt lat="56.860630" lon="8.366864">
<ele>28.234853</ele>
<time>2026-07-14T09:19:34.000Z</time>
</trkpt>
<trkpt lat="56.860645" lon="8.366919">
<ele>28.267301</ele>
<time>2026-07-14T09:19:35.000Z</time>
</trkpt>
<trkpt lat="56.860670" lon="8.366974">
<ele>28.305062</ele>
<time>2026-07-14T09:19:36.000Z</time>
</trkpt>
<trkpt lat="56.860697" lon="8.367037">
<ele>28.347322</ele>
<time>2026-07-14T09:19:37.000Z</time>
</trkpt>
<trkpt lat="56.860728" lon="8.367110">
<ele>28.396121</ele>
<time>2026-07-14T09:19:38.000Z</time>
</trkpt>
<trkpt lat="56.860757" lon="8.367180">
<ele>28.442488</ele>
<time>2026-07-14T09:19:39.000Z</time>
</trkpt>
<trkpt lat="56.860777" lon="8.367238">
<ele>28.478689</ele>
<time>2026-07-14T09:19:40.000Z</time>
</trkpt>
<trkpt lat="56.860794" lon="8.367284">
<ele>28.508001</ele>
<time>2026-07-14T09:19:41.000Z</time>
</trkpt>
<trkpt lat="56.860808" lon="8.367326">
<ele>28.533970</ele>
<time>2026-07-14T09:19:42.000Z</time>
</trkpt>
<trkpt lat="56.860813" lon="8.367365">
<ele>28.555118</ele>
<time>2026-07-14T09:19:43.000Z</time>
</trkpt>
<trkpt lat="56.860819" lon="8.367400">
<ele>28.574482</ele>
<time>2026-07-14T09:19:44.000Z</time>
</trkpt>
<trkpt lat="56.860839" lon="8.367440">
<ele>28.603099</ele>
<time>2026-07-14T09:19:45.000Z</time>
</trkpt>
<trkpt lat="56.860861" lon="8.367481">
<ele>28.633427</ele>
<time>2026-07-14T09:19:46.000Z</time>
</trkpt>
<trkpt lat="56.860878" lon="8.367534">
<ele>28.665867</ele>
<time>2026-07-14T09:19:47.000Z</time>
</trkpt>
<trkpt lat="56.860895" lon="8.367586">
<ele>28.697853</ele>
<time>2026-07-14T09:19:48.000Z</time>
</trkpt>
<trkpt lat="56.860914" lon="8.367635">
<ele>28.729567</ele>
<time>2026-07-14T09:19:49.000Z</time>
</trkpt>
<trkpt lat="56.860945" lon="8.367694">
<ele>28.772767</ele>
<time>2026-07-14T09:19:50.000Z</time>
</trkpt>
<trkpt lat="56.860979" lon="8.367741">
<ele>28.813921</ele>
<time>2026-07-14T09:19:51.000Z</time>
</trkpt>
<trkpt lat="56.861010" lon="8.367780">
<ele>28.850254</ele>
<time>2026-07-14T09:19:52.000Z</time>
</trkpt>
<trkpt lat="56.861045" lon="8.367819">
<ele>28.889830</ele>
<time>2026-07-14T09:19:53.000Z</time>
</trkpt>
<trkpt lat="56.861082" lon="8.367849">
<ele>28.928913</ele>
<time>2026-07-14T09:19:54.000Z</time>
</trkpt>
<trkpt lat="56.861114" lon="8.367863">
<ele>28.960686</ele>
<time>2026-07-14T09:19:55.000Z</time>
</trkpt>
<trkpt lat="56.861149" lon="8.367885">
<ele>28.996424</ele>
<time>2026-07-14T09:19:56.000Z</time>
</trkpt>
<trkpt lat="56.861185" lon="8.367911">
<ele>29.033800</ele>
<time>2026-07-14T09:19:57.000Z</time>
</trkpt>
<trkpt lat="56.861223" lon="8.367928">
<ele>29.071578</ele>
<time>2026-07-14T09:19:58.000Z</time>
</trkpt>
<trkpt lat="56.861258" lon="8.367941">
<ele>29.106066</ele>
<time>2026-07-14T09:19:59.000Z</time>
</trkpt>
<trkpt lat="56.861288" lon="8.367948">
<ele>29.135271</ele>
<time>2026-07-14T09:20:00.000Z</time>
</trkpt>
<trkpt lat="56.861317" lon="8.367963">
<ele>29.164374</ele>
<time>2026-07-14T09:20:01.000Z</time>
</trkpt>
<trkpt lat="56.861338" lon="8.367979">
<ele>29.186342</ele>
<time>2026-07-14T09:20:02.000Z</time>
</trkpt>
<trkpt lat="56.861371" lon="8.367997">
<ele>29.219596</ele>
<time>2026-07-14T09:20:03.000Z</time>
</trkpt>
<trkpt lat="56.861405" lon="8.368021">
<ele>29.254789</ele>
<time>2026-07-14T09:20:04.000Z</time>
</trkpt>
<trkpt lat="56.861428" lon="8.368049">
<ele>29.281468</ele>
<time>2026-07-14T09:20:05.000Z</time>
</trkpt>
<trkpt lat="56.861455" lon="8.368080">
<ele>29.312252</ele>
<time>2026-07-14T09:20:06.000Z</time>
</trkpt>
<trkpt lat="56.861497" lon="8.368121">
<ele>29.358224</ele>
<time>2026-07-14T09:20:07.000Z</time>
</trkpt>
<trkpt lat="56.861535" lon="8.368146">
<ele>29.397221</ele>
<time>2026-07-14T09:20:08.000Z</time>
</trkpt>
<trkpt lat="56.861569" lon="8.368155">
<ele>29.430397</ele>
<time>2026-07-14T09:20:09.000Z</time>
</trkpt>
<trkpt lat="56.861591" lon="8.368163">
<ele>29.452057</ele>
<time>2026-07-14T09:20:10.000Z</time>
</trkpt>
<trkpt lat="56.861601" lon="8.368160">
<ele>29.460055</ele>
<time>2026-07-14T09:20:11.000Z</time>
</trkpt>
<trkpt lat="56.861612" lon="8.368153">
<ele>29.460996</ele>
<time>2026-07-14T09:20:12.000Z</time>
</trkpt>
<trkpt lat="56.861614" lon="8.368139">
<ele>29.461635</ele>
<time>2026-07-14T09:20:13.000Z</time>
</trkpt>
<trkpt lat="56.861618" lon="8.368111">
<ele>29.462914</ele>
<time>2026-07-14T09:20:14.000Z</time>
</trkpt>
<trkpt lat="56.861630" lon="8.368074">
<ele>29.464814</ele>
<time>2026-07-14T09:20:15.000Z</time>
</trkpt>
<trkpt lat="56.861643" lon="8.368034">
<ele>29.466869</ele>
<time>2026-07-14T09:20:16.000Z</time>
</trkpt>
<trkpt lat="56.861659" lon="8.367991">
<ele>29.469166</ele>
<time>2026-07-14T09:20:17.000Z</time>
</trkpt>
<trkpt lat="56.861678" lon="8.367944">
<ele>29.471748</ele>
<time>2026-07-14T09:20:18.000Z</time>
</trkpt>
<trkpt lat="56.861697" lon="8.367896">
<ele>29.474365</ele>
<time>2026-07-14T09:20:19.000Z</time>
</trkpt>
<trkpt lat="56.861720" lon="8.367850">
<ele>29.477119</ele>
<time>2026-07-14T09:20:20.000Z</time>
</trkpt>
<trkpt lat="56.861753" lon="8.367803">
<ele>29.480498</ele>
<time>2026-07-14T09:20:21.000Z</time>
</trkpt>
<trkpt lat="56.861791" lon="8.367754">
<ele>29.484254</ele>
<time>2026-07-14T09:20:22.000Z</time>
</trkpt>
<trkpt lat="56.861833" lon="8.367704">
<ele>29.488302</ele>
<time>2026-07-14T09:20:23.000Z</time>
</trkpt>
<trkpt lat="56.861878" lon="8.367648">
<ele>29.492700</ele>
<time>2026-07-14T09:20:24.000Z</time>
</trkpt>
<trkpt lat="56.861920" lon="8.367587">
<ele>29.497032</ele>
<time>2026-07-14T09:20:25.000Z</time>
</trkpt>
<trkpt lat="56.861961" lon="8.367524">
<ele>29.501358</ele>
<time>2026-07-14T09:20:26.000Z</time>
</trkpt>
<trkpt lat="56.862007" lon="8.367462">
<ele>29.505975</ele>
<time>2026-07-14T09:20:27.000Z</time>
</trkpt>
<trkpt lat="56.862049" lon="8.367404">
<ele>29.510226</ele>
<time>2026-07-14T09:20:28.000Z</time>
</trkpt>
<trkpt lat="56.862087" lon="8.367349">
<ele>29.514141</ele>
<time>2026-07-14T09:20:29.000Z</time>
</trkpt>
<trkpt lat="56.862122" lon="8.367299">
<ele>29.517729</ele>
<time>2026-07-14T09:20:30.000Z</time>
</trkpt>
<trkpt lat="56.862159" lon="8.367258">
<ele>29.521224</ele>
<time>2026-07-14T09:20:31.000Z</time>
</trkpt>
<trkpt lat="56.862203" lon="8.367233">
<ele>29.524946</ele>
<time>2026-07-14T09:20:32.000Z</time>
</trkpt>
<trkpt lat="56.862253" lon="8.367220">
<ele>29.529027</ele>
<time>2026-07-14T09:20:33.000Z</time>
</trkpt>
<trkpt lat="56.862302" lon="8.367213">
<ele>29.532998</ele>
<time>2026-07-14T09:20:34.000Z</time>
</trkpt>
<trkpt lat="56.862349" lon="8.367210">
<ele>29.536797</ele>
<time>2026-07-14T09:20:35.000Z</time>
</trkpt>
<trkpt lat="56.862396" lon="8.367210">
<ele>29.540594</ele>
<time>2026-07-14T09:20:36.000Z</time>
</trkpt>
<trkpt lat="56.862442" lon="8.367213">
<ele>29.544313</ele>
<time>2026-07-14T09:20:37.000Z</time>
</trkpt>
<trkpt lat="56.862489" lon="8.367220">
<ele>29.548123</ele>
<time>2026-07-14T09:20:38.000Z</time>
</trkpt>
<trkpt lat="56.862533" lon="8.367235">
<ele>29.551739</ele>
<time>2026-07-14T09:20:39.000Z</time>
</trkpt>
<trkpt lat="56.862575" lon="8.367256">
<ele>29.555257</ele>
<time>2026-07-14T09:20:40.000Z</time>
</trkpt>
<trkpt lat="56.862617" lon="8.367284">
<ele>29.558868</ele>
<time>2026-07-14T09:20:41.000Z</time>
</trkpt>
<trkpt lat="56.862655" lon="8.367323">
<ele>29.562389</ele>
<time>2026-07-14T09:20:42.000Z</time>
</trkpt>
<trkpt lat="56.862689" lon="8.367371">
<ele>29.565859</ele>
<time>2026-07-14T09:20:43.000Z</time>
</trkpt>
<trkpt lat="56.862719" lon="8.367426">
<ele>29.569290</ele>
<time>2026-07-14T09:20:44.000Z</time>
</trkpt>
<trkpt lat="56.862750" lon="8.367494">
<ele>29.573201</ele>
<time>2026-07-14T09:20:45.000Z</time>
</trkpt>
<trkpt lat="56.862784" lon="8.367576">
<ele>29.577746</ele>
<time>2026-07-14T09:20:46.000Z</time>
</trkpt>
<trkpt lat="56.862817" lon="8.367656">
<ele>29.582172</ele>
<time>2026-07-14T09:20:47.000Z</time>
</trkpt>
<trkpt lat="56.862845" lon="8.367734">
<ele>29.586294</ele>
<time>2026-07-14T09:20:48.000Z</time>
</trkpt>
<trkpt lat="56.862872" lon="8.367808">
<ele>29.590223</ele>
<time>2026-07-14T09:20:49.000Z</time>
</trkpt>
<trkpt lat="56.862897" lon="8.367880">
<ele>29.593990</ele>
<time>2026-07-14T09:20:50.000Z</time>
</trkpt>
<trkpt lat="56.862921" lon="8.367951">
<ele>29.597677</ele>
<time>2026-07-14T09:20:51.000Z</time>
</trkpt>
<trkpt lat="56.862947" lon="8.368024">
<ele>29.601525</ele>
<time>2026-07-14T09:20:52.000Z</time>
</trkpt>
<trkpt lat="56.862975" lon="8.368100">
<ele>29.605711</ele>
<time>2026-07-14T09:20:53.000Z</time>
</trkpt>
<trkpt lat="56.863000" lon="8.368174">
<ele>29.611019</ele>
<time>2026-07-14T09:20:54.000Z</time>
</trkpt>
<trkpt lat="56.863024" lon="8.368246">
<ele>29.616165</ele>
<time>2026-07-14T09:20:55.000Z</time>
</trkpt>
<trkpt lat="56.863049" lon="8.368318">
<ele>29.621369</ele>
<time>2026-07-14T09:20:56.000Z</time>
</trkpt>
<trkpt lat="56.863074" lon="8.368388">
<ele>29.626471</ele>
<time>2026-07-14T09:20:57.000Z</time>
</trkpt>
<trkpt lat="56.863103" lon="8.368456">
<ele>29.631734</ele>
<time>2026-07-14T09:20:58.000Z</time>
</trkpt>
<trkpt lat="56.863131" lon="8.368524">
<ele>29.636928</ele>
<time>2026-07-14T09:20:59.000Z</time>
</trkpt>
<trkpt lat="56.863158" lon="8.368591">
<ele>29.642007</ele>
<time>2026-07-14T09:21:00.000Z</time>
</trkpt>
<trkpt lat="56.863182" lon="8.368656">
<ele>29.646794</ele>
<time>2026-07-14T09:21:01.000Z</time>
</trkpt>
<trkpt lat="56.863206" lon="8.368722">
<ele>29.651630</ele>
<time>2026-07-14T09:21:02.000Z</time>
</trkpt>
<trkpt lat="56.863226" lon="8.368785">
<ele>29.656076</ele>
<time>2026-07-14T09:21:03.000Z</time>
</trkpt>
<trkpt lat="56.863245" lon="8.368851">
<ele>29.660627</ele>
<time>2026-07-14T09:21:04.000Z</time>
</trkpt>
<trkpt lat="56.863262" lon="8.368919">
<ele>29.665190</ele>
<time>2026-07-14T09:21:05.000Z</time>
</trkpt>
<trkpt lat="56.863283" lon="8.368996">
<ele>29.670440</ele>
<time>2026-07-14T09:21:06.000Z</time>
</trkpt>
<trkpt lat="56.863305" lon="8.369080">
<ele>29.676124</ele>
<time>2026-07-14T09:21:07.000Z</time>
</trkpt>
<trkpt lat="56.863326" lon="8.369161">
<ele>29.681594</ele>
<time>2026-07-14T09:21:08.000Z</time>
</trkpt>
<trkpt lat="56.863349" lon="8.369241">
<ele>29.687109</ele>
<time>2026-07-14T09:21:09.000Z</time>
</trkpt>
<trkpt lat="56.863365" lon="8.369317">
<ele>29.692078</ele>
<time>2026-07-14T09:21:10.000Z</time>
</trkpt>
<trkpt lat="56.863383" lon="8.369394">
<ele>29.697188</ele>
<time>2026-07-14T09:21:11.000Z</time>
</trkpt>
<trkpt lat="56.863402" lon="8.369469">
<ele>29.702232</ele>
<time>2026-07-14T09:21:12.000Z</time>
</trkpt>
<trkpt lat="56.863423" lon="8.369541">
<ele>29.707211</ele>
<time>2026-07-14T09:21:13.000Z</time>
</trkpt>
<trkpt lat="56.863442" lon="8.369616">
<ele>29.712255</ele>
<time>2026-07-14T09:21:14.000Z</time>
</trkpt>
<trkpt lat="56.863451" lon="8.369695">
<ele>29.717179</ele>
<time>2026-07-14T09:21:15.000Z</time>
</trkpt>
<trkpt lat="56.863457" lon="8.369774">
<ele>29.722046</ele>
<time>2026-07-14T09:21:16.000Z</time>
</trkpt>
<trkpt lat="56.863461" lon="8.369861">
<ele>29.727373</ele>
<time>2026-07-14T09:21:17.000Z</time>
</trkpt>
<trkpt lat="56.863463" lon="8.369955">
<ele>29.733113</ele>
<time>2026-07-14T09:21:18.000Z</time>
</trkpt>
<trkpt lat="56.863466" lon="8.370047">
<ele>29.738736</ele>
<time>2026-07-14T09:21:19.000Z</time>
</trkpt>
<trkpt lat="56.863464" lon="8.370137">
<ele>29.744233</ele>
<time>2026-07-14T09:21:20.000Z</time>
</trkpt>
<trkpt lat="56.863461" lon="8.370226">
<ele>29.749673</ele>
<time>2026-07-14T09:21:21.000Z</time>
</trkpt>
<trkpt lat="56.863461" lon="8.370313">
<ele>29.754982</ele>
<time>2026-07-14T09:21:22.000Z</time>
</trkpt>
<trkpt lat="56.863463" lon="8.370398">
<ele>29.760173</ele>
<time>2026-07-14T09:21:23.000Z</time>
</trkpt>
<trkpt lat="56.863464" lon="8.370477">
<ele>29.764995</ele>
<time>2026-07-14T09:21:24.000Z</time>
</trkpt>
<trkpt lat="56.863466" lon="8.370554">
<ele>29.769698</ele>
<time>2026-07-14T09:21:25.000Z</time>
</trkpt>
<trkpt lat="56.863472" lon="8.370635">
<ele>29.774686</ele>
<time>2026-07-14T09:21:26.000Z</time>
</trkpt>
<trkpt lat="56.863480" lon="8.370713">
<ele>29.779528</ele>
<time>2026-07-14T09:21:27.000Z</time>
</trkpt>
<trkpt lat="56.863483" lon="8.370788">
<ele>29.784117</ele>
<time>2026-07-14T09:21:28.000Z</time>
</trkpt>
<trkpt lat="56.863485" lon="8.370863">
<ele>29.788698</ele>
<time>2026-07-14T09:21:29.000Z</time>
</trkpt>
<trkpt lat="56.863491" lon="8.370943">
<ele>29.793625</ele>
<time>2026-07-14T09:21:30.000Z</time>
</trkpt>
<trkpt lat="56.863501" lon="8.371025">
<ele>29.798752</ele>
<time>2026-07-14T09:21:31.000Z</time>
</trkpt>
<trkpt lat="56.863512" lon="8.371101">
<ele>29.803549</ele>
<time>2026-07-14T09:21:32.000Z</time>
</trkpt>
<trkpt lat="56.863526" lon="8.371176">
<ele>29.784398</ele>
<time>2026-07-14T09:21:33.000Z</time>
</trkpt>
<trkpt lat="56.863539" lon="8.371250">
<ele>29.741873</ele>
<time>2026-07-14T09:21:34.000Z</time>
</trkpt>
<trkpt lat="56.863552" lon="8.371322">
<ele>29.700388</ele>
<time>2026-07-14T09:21:35.000Z</time>
</trkpt>
<trkpt lat="56.863567" lon="8.371388">
<ele>29.661283</ele>
<time>2026-07-14T09:21:36.000Z</time>
</trkpt>
<trkpt lat="56.863582" lon="8.371458">
<ele>29.620148</ele>
<time>2026-07-14T09:21:37.000Z</time>
</trkpt>
<trkpt lat="56.863598" lon="8.371538">
<ele>29.573543</ele>
<time>2026-07-14T09:21:38.000Z</time>
</trkpt>
<trkpt lat="56.863615" lon="8.371623">
<ele>29.524024</ele>
<time>2026-07-14T09:21:39.000Z</time>
</trkpt>
<trkpt lat="56.863638" lon="8.371715">
<ele>29.468676</ele>
<time>2026-07-14T09:21:40.000Z</time>
</trkpt>
<trkpt lat="56.863666" lon="8.371806">
<ele>29.411545</ele>
<time>2026-07-14T09:21:41.000Z</time>
</trkpt>
<trkpt lat="56.863701" lon="8.371893">
<ele>29.352446</ele>
<time>2026-07-14T09:21:42.000Z</time>
</trkpt>
<trkpt lat="56.863746" lon="8.371970">
<ele>29.290777</ele>
<time>2026-07-14T09:21:43.000Z</time>
</trkpt>
<trkpt lat="56.863796" lon="8.372036">
<ele>29.229067</ele>
<time>2026-07-14T09:21:44.000Z</time>
</trkpt>
<trkpt lat="56.863839" lon="8.372095">
<ele>29.175270</ele>
<time>2026-07-14T09:21:45.000Z</time>
</trkpt>
<trkpt lat="56.863877" lon="8.372145">
<ele>29.128422</ele>
<time>2026-07-14T09:21:46.000Z</time>
</trkpt>
<trkpt lat="56.863919" lon="8.372197">
<ele>29.077664</ele>
<time>2026-07-14T09:21:47.000Z</time>
</trkpt>
<trkpt lat="56.863961" lon="8.372246">
<ele>29.027807</ele>
<time>2026-07-14T09:21:48.000Z</time>
</trkpt>
<trkpt lat="56.864000" lon="8.372287">
<ele>28.982787</ele>
<time>2026-07-14T09:21:49.000Z</time>
</trkpt>
<trkpt lat="56.864033" lon="8.372321">
<ele>28.944881</ele>
<time>2026-07-14T09:21:50.000Z</time>
</trkpt>
<trkpt lat="56.864062" lon="8.372349">
<ele>28.912062</ele>
<time>2026-07-14T09:21:51.000Z</time>
</trkpt>
<trkpt lat="56.864094" lon="8.372386">
<ele>28.874174</ele>
<time>2026-07-14T09:21:52.000Z</time>
</trkpt>
<trkpt lat="56.864126" lon="8.372424">
<ele>28.835991</ele>
<time>2026-07-14T09:21:53.000Z</time>
</trkpt>
<trkpt lat="56.864156" lon="8.372459">
<ele>28.800379</ele>
<time>2026-07-14T09:21:54.000Z</time>
</trkpt>
<trkpt lat="56.864186" lon="8.372496">
<ele>28.764167</ele>
<time>2026-07-14T09:21:55.000Z</time>
</trkpt>
<trkpt lat="56.864218" lon="8.372532">
<ele>28.726568</ele>
<time>2026-07-14T09:21:56.000Z</time>
</trkpt>
<trkpt lat="56.864245" lon="8.372565">
<ele>28.694069</ele>
<time>2026-07-14T09:21:57.000Z</time>
</trkpt>
<trkpt lat="56.864268" lon="8.372597">
<ele>28.665148</ele>
<time>2026-07-14T09:21:58.000Z</time>
</trkpt>
<trkpt lat="56.864299" lon="8.372627">
<ele>28.630048</ele>
<time>2026-07-14T09:21:59.000Z</time>
</trkpt>
<trkpt lat="56.864333" lon="8.372653">
<ele>28.593166</ele>
<time>2026-07-14T09:22:00.000Z</time>
</trkpt>
<trkpt lat="56.864369" lon="8.372678">
<ele>28.554626</ele>
<time>2026-07-14T09:22:01.000Z</time>
</trkpt>
<trkpt lat="56.864413" lon="8.372704">
<ele>28.508348</ele>
<time>2026-07-14T09:22:02.000Z</time>
</trkpt>
<trkpt lat="56.864465" lon="8.372732">
<ele>28.454096</ele>
<time>2026-07-14T09:22:03.000Z</time>
</trkpt>
<trkpt lat="56.864506" lon="8.372766">
<ele>28.409042</ele>
<time>2026-07-14T09:22:04.000Z</time>
</trkpt>
<trkpt lat="56.864546" lon="8.372815">
<ele>28.360861</ele>
<time>2026-07-14T09:22:05.000Z</time>
</trkpt>
<trkpt lat="56.864587" lon="8.372881">
<ele>28.306202</ele>
<time>2026-07-14T09:22:06.000Z</time>
</trkpt>
<trkpt lat="56.864628" lon="8.372958">
<ele>28.247393</ele>
<time>2026-07-14T09:22:07.000Z</time>
</trkpt>
<trkpt lat="56.864665" lon="8.373029">
<ele>28.193726</ele>
<time>2026-07-14T09:22:08.000Z</time>
</trkpt>
<trkpt lat="56.864701" lon="8.373085">
<ele>28.146431</ele>
<time>2026-07-14T09:22:09.000Z</time>
</trkpt>
<trkpt lat="56.864742" lon="8.373137">
<ele>28.096499</ele>
<time>2026-07-14T09:22:10.000Z</time>
</trkpt>
<trkpt lat="56.864781" lon="8.373178">
<ele>28.051480</ele>
<time>2026-07-14T09:22:11.000Z</time>
</trkpt>
<trkpt lat="56.864821" lon="8.373205">
<ele>28.008807</ele>
<time>2026-07-14T09:22:12.000Z</time>
</trkpt>
<trkpt lat="56.864867" lon="8.373209">
<ele>28.020038</ele>
<time>2026-07-14T09:22:13.000Z</time>
</trkpt>
<trkpt lat="56.864909" lon="8.373196">
<ele>28.034136</ele>
<time>2026-07-14T09:22:14.000Z</time>
</trkpt>
<trkpt lat="56.864937" lon="8.373178">
<ele>28.043959</ele>
<time>2026-07-14T09:22:15.000Z</time>
</trkpt>
<trkpt lat="56.864955" lon="8.373163">
<ele>28.050505</ele>
<time>2026-07-14T09:22:16.000Z</time>
</trkpt>
<trkpt lat="56.864970" lon="8.373147">
<ele>28.056252</ele>
<time>2026-07-14T09:22:17.000Z</time>
</trkpt>
<trkpt lat="56.864985" lon="8.373135">
<ele>28.061670</ele>
<time>2026-07-14T09:22:18.000Z</time>
</trkpt>
<trkpt lat="56.864996" lon="8.373134">
<ele>28.065315</ele>
<time>2026-07-14T09:22:19.000Z</time>
</trkpt>
<trkpt lat="56.865004" lon="8.373134">
<ele>28.067963</ele>
<time>2026-07-14T09:22:20.000Z</time>
</trkpt>
<trkpt lat="56.865005" lon="8.373134">
<ele>28.068294</ele>
<time>2026-07-14T09:22:21.000Z</time>
</trkpt>
<trkpt lat="56.865028" lon="8.373113">
<ele>28.076801</ele>
<time>2026-07-14T09:22:47.000Z</time>
</trkpt>
<trkpt lat="56.865055" lon="8.373084">
<ele>28.087164</ele>
<time>2026-07-14T09:22:48.000Z</time>
</trkpt>
<trkpt lat="56.865072" lon="8.373059">
<ele>28.094382</ele>
<time>2026-07-14T09:22:49.000Z</time>
</trkpt>
<trkpt lat="56.865092" lon="8.373031">
<ele>28.102717</ele>
<time>2026-07-14T09:22:50.000Z</time>
</trkpt>
<trkpt lat="56.865117" lon="8.373000">
<ele>28.112713</ele>
<time>2026-07-14T09:22:51.000Z</time>
</trkpt>
<trkpt lat="56.865145" lon="8.372962">
<ele>28.124251</ele>
<time>2026-07-14T09:22:52.000Z</time>
</trkpt>
<trkpt lat="56.865172" lon="8.372921">
<ele>28.135865</ele>
<time>2026-07-14T09:22:53.000Z</time>
</trkpt>
<trkpt lat="56.865201" lon="8.372879">
<ele>28.148106</ele>
<time>2026-07-14T09:22:54.000Z</time>
</trkpt>
<trkpt lat="56.865236" lon="8.372832">
<ele>28.162475</ele>
<time>2026-07-14T09:22:55.000Z</time>
</trkpt>
<trkpt lat="56.865269" lon="8.372786">
<ele>28.176206</ele>
<time>2026-07-14T09:22:56.000Z</time>
</trkpt>
<trkpt lat="56.865300" lon="8.372743">
<ele>28.189082</ele>
<time>2026-07-14T09:22:57.000Z</time>
</trkpt>
<trkpt lat="56.865328" lon="8.372700">
<ele>28.201181</ele>
<time>2026-07-14T09:22:58.000Z</time>
</trkpt>
<trkpt lat="56.865358" lon="8.372658">
<ele>28.213683</ele>
<time>2026-07-14T09:22:59.000Z</time>
</trkpt>
<trkpt lat="56.865391" lon="8.372612">
<ele>28.227414</ele>
<time>2026-07-14T09:23:00.000Z</time>
</trkpt>
<trkpt lat="56.865436" lon="8.372553">
<ele>28.245737</ele>
<time>2026-07-14T09:23:01.000Z</time>
</trkpt>
<trkpt lat="56.865491" lon="8.372493">
<ele>28.266931</ele>
<time>2026-07-14T09:23:02.000Z</time>
</trkpt>
<trkpt lat="56.865536" lon="8.372444">
<ele>28.284263</ele>
<time>2026-07-14T09:23:03.000Z</time>
</trkpt>
<trkpt lat="56.865570" lon="8.372403">
<ele>28.297740</ele>
<time>2026-07-14T09:23:04.000Z</time>
</trkpt>
<trkpt lat="56.865609" lon="8.372361">
<ele>28.312718</ele>
<time>2026-07-14T09:23:05.000Z</time>
</trkpt>
<trkpt lat="56.865658" lon="8.372307">
<ele>28.331650</ele>
<time>2026-07-14T09:23:06.000Z</time>
</trkpt>
<trkpt lat="56.865702" lon="8.372251">
<ele>28.349389</ele>
<time>2026-07-14T09:23:07.000Z</time>
</trkpt>
<trkpt lat="56.865737" lon="8.372204">
<ele>28.363759</ele>
<time>2026-07-14T09:23:08.000Z</time>
</trkpt>
<trkpt lat="56.865769" lon="8.372161">
<ele>28.376899</ele>
<time>2026-07-14T09:23:09.000Z</time>
</trkpt>
<trkpt lat="56.865801" lon="8.372121">
<ele>28.389726</ele>
<time>2026-07-14T09:23:10.000Z</time>
</trkpt>
<trkpt lat="56.865836" lon="8.372083">
<ele>28.403196</ele>
<time>2026-07-14T09:23:11.000Z</time>
</trkpt>
<trkpt lat="56.865869" lon="8.372044">
<ele>28.416199</ele>
<time>2026-07-14T09:23:12.000Z</time>
</trkpt>
<trkpt lat="56.865905" lon="8.372006">
<ele>28.429954</ele>
<time>2026-07-14T09:23:13.000Z</time>
</trkpt>
<trkpt lat="56.865944" lon="8.371963">
<ele>28.445024</ele>
<time>2026-07-14T09:23:14.000Z</time>
</trkpt>
<trkpt lat="56.865978" lon="8.371920">
<ele>28.458704</ele>
<time>2026-07-14T09:23:15.000Z</time>
</trkpt>
<trkpt lat="56.866008" lon="8.371881">
<ele>28.470884</ele>
<time>2026-07-14T09:23:16.000Z</time>
</trkpt>
<trkpt lat="56.866032" lon="8.371850">
<ele>28.480608</ele>
<time>2026-07-14T09:23:17.000Z</time>
</trkpt>
<trkpt lat="56.866055" lon="8.371822">
<ele>28.489751</ele>
<time>2026-07-14T09:23:18.000Z</time>
</trkpt>
<trkpt lat="56.866078" lon="8.371791">
<ele>28.499206</ele>
<time>2026-07-14T09:23:19.000Z</time>
</trkpt>
<trkpt lat="56.866101" lon="8.371759">
<ele>28.508769</ele>
<time>2026-07-14T09:23:20.000Z</time>
</trkpt>
<trkpt lat="56.866124" lon="8.371731">
<ele>28.517913</ele>
<time>2026-07-14T09:23:21.000Z</time>
</trkpt>
<trkpt lat="56.866149" lon="8.371701">
<ele>28.527808</ele>
<time>2026-07-14T09:23:22.000Z</time>
</trkpt>
<trkpt lat="56.866177" lon="8.371667">
<ele>28.538930</ele>
<time>2026-07-14T09:23:23.000Z</time>
</trkpt>
<trkpt lat="56.866211" lon="8.371626">
<ele>28.552408</ele>
<time>2026-07-14T09:23:24.000Z</time>
</trkpt>
<trkpt lat="56.866254" lon="8.371577">
<ele>28.569174</ele>
<time>2026-07-14T09:23:25.000Z</time>
</trkpt>
<trkpt lat="56.866299" lon="8.371526">
<ele>28.586693</ele>
<time>2026-07-14T09:23:26.000Z</time>
</trkpt>
<trkpt lat="56.866337" lon="8.371474">
<ele>28.601874</ele>
<time>2026-07-14T09:23:27.000Z</time>
</trkpt>
<trkpt lat="56.866364" lon="8.371426">
<ele>28.609388</ele>
<time>2026-07-14T09:23:28.000Z</time>
</trkpt>
<trkpt lat="56.866389" lon="8.371379">
<ele>28.616542</ele>
<time>2026-07-14T09:23:29.000Z</time>
</trkpt>
<trkpt lat="56.866415" lon="8.371328">
<ele>28.624149</ele>
<time>2026-07-14T09:23:30.000Z</time>
</trkpt>
<trkpt lat="56.866442" lon="8.371271">
<ele>28.632377</ele>
<time>2026-07-14T09:23:31.000Z</time>
</trkpt>
<trkpt lat="56.866475" lon="8.371209">
<ele>28.641817</ele>
<time>2026-07-14T09:23:32.000Z</time>
</trkpt>
<trkpt lat="56.866515" lon="8.371146">
<ele>28.652351</ele>
<time>2026-07-14T09:23:33.000Z</time>
</trkpt>
<trkpt lat="56.866555" lon="8.371083">
<ele>28.662884</ele>
<time>2026-07-14T09:23:34.000Z</time>
</trkpt>
<trkpt lat="56.866593" lon="8.371019">
<ele>28.673192</ele>
<time>2026-07-14T09:23:35.000Z</time>
</trkpt>
<trkpt lat="56.866627" lon="8.370956">
<ele>28.682850</ele>
<time>2026-07-14T09:23:36.000Z</time>
</trkpt>
<trkpt lat="56.866659" lon="8.370897">
<ele>28.691917</ele>
<time>2026-07-14T09:23:37.000Z</time>
</trkpt>
<trkpt lat="56.866696" lon="8.370840">
<ele>28.701570</ele>
<time>2026-07-14T09:23:38.000Z</time>
</trkpt>
<trkpt lat="56.866736" lon="8.370781">
<ele>28.711824</ele>
<time>2026-07-14T09:23:39.000Z</time>
</trkpt>
<trkpt lat="56.866778" lon="8.370725">
<ele>28.722196</ele>
<time>2026-07-14T09:23:40.000Z</time>
</trkpt>
<trkpt lat="56.866816" lon="8.370678">
<ele>28.731350</ele>
<time>2026-07-14T09:23:41.000Z</time>
</trkpt>
<trkpt lat="56.866854" lon="8.370632">
<ele>28.740444</ele>
<time>2026-07-14T09:23:42.000Z</time>
</trkpt>
<trkpt lat="56.866894" lon="8.370586">
<ele>28.749873</ele>
<time>2026-07-14T09:23:43.000Z</time>
</trkpt>
<trkpt lat="56.866959" lon="8.370521">
<ele>28.764656</ele>
<time>2026-07-14T09:23:44.000Z</time>
</trkpt>
<trkpt lat="56.867026" lon="8.370451">
<ele>28.780054</ele>
<time>2026-07-14T09:23:45.000Z</time>
</trkpt>
<trkpt lat="56.867080" lon="8.370393">
<ele>28.792551</ele>
<time>2026-07-14T09:23:46.000Z</time>
</trkpt>
<trkpt lat="56.867143" lon="8.370327">
<ele>28.807040</ele>
<time>2026-07-14T09:23:47.000Z</time>
</trkpt>
<trkpt lat="56.867199" lon="8.370267">
<ele>28.819991</ele>
<time>2026-07-14T09:23:48.000Z</time>
</trkpt>
<trkpt lat="56.867239" lon="8.370223">
<ele>28.829306</ele>
<time>2026-07-14T09:23:49.000Z</time>
</trkpt>
<trkpt lat="56.867274" lon="8.370185">
<ele>28.837428</ele>
<time>2026-07-14T09:23:50.000Z</time>
</trkpt>
<trkpt lat="56.867304" lon="8.370152">
<ele>28.844414</ele>
<time>2026-07-14T09:23:51.000Z</time>
</trkpt>
<trkpt lat="56.867335" lon="8.370117">
<ele>28.851684</ele>
<time>2026-07-14T09:23:52.000Z</time>
</trkpt>
<trkpt lat="56.867371" lon="8.370084">
<ele>28.859720</ele>
<time>2026-07-14T09:23:53.000Z</time>
</trkpt>
<trkpt lat="56.867407" lon="8.370054">
<ele>28.867615</ele>
<time>2026-07-14T09:23:54.000Z</time>
</trkpt>
<trkpt lat="56.867444" lon="8.370030">
<ele>28.875449</ele>
<time>2026-07-14T09:23:55.000Z</time>
</trkpt>
<trkpt lat="56.867484" lon="8.370011">
<ele>28.883697</ele>
<time>2026-07-14T09:23:56.000Z</time>
</trkpt>
<trkpt lat="56.867539" lon="8.369981">
<ele>28.895151</ele>
<time>2026-07-14T09:23:57.000Z</time>
</trkpt>
<trkpt lat="56.867600" lon="8.369945">
<ele>28.907942</ele>
<time>2026-07-14T09:23:58.000Z</time>
</trkpt>
<trkpt lat="56.867655" lon="8.369916">
<ele>28.919366</ele>
<time>2026-07-14T09:23:59.000Z</time>
</trkpt>
<trkpt lat="56.867696" lon="8.369902">
<ele>28.927689</ele>
<time>2026-07-14T09:24:00.000Z</time>
</trkpt>
<trkpt lat="56.867730" lon="8.369896">
<ele>28.934506</ele>
<time>2026-07-14T09:24:01.000Z</time>
</trkpt>
<trkpt lat="56.867762" lon="8.369895">
<ele>28.940894</ele>
<time>2026-07-14T09:24:02.000Z</time>
</trkpt>
<trkpt lat="56.867787" lon="8.369904">
<ele>28.945979</ele>
<time>2026-07-14T09:24:03.000Z</time>
</trkpt>
<trkpt lat="56.867810" lon="8.369920">
<ele>28.950889</ele>
<time>2026-07-14T09:24:04.000Z</time>
</trkpt>
<trkpt lat="56.867837" lon="8.369942">
<ele>28.956788</ele>
<time>2026-07-14T09:24:05.000Z</time>
</trkpt>
<trkpt lat="56.867866" lon="8.369967">
<ele>28.949037</ele>
<time>2026-07-14T09:24:06.000Z</time>
</trkpt>
<trkpt lat="56.867899" lon="8.369993">
<ele>28.923985</ele>
<time>2026-07-14T09:24:07.000Z</time>
</trkpt>
<trkpt lat="56.867934" lon="8.370016">
<ele>28.898055</ele>
<time>2026-07-14T09:24:08.000Z</time>
</trkpt>
<trkpt lat="56.867970" lon="8.370035">
<ele>28.871930</ele>
<time>2026-07-14T09:24:09.000Z</time>
</trkpt>
<trkpt lat="56.868010" lon="8.370050">
<ele>28.843461</ele>
<time>2026-07-14T09:24:10.000Z</time>
</trkpt>
<trkpt lat="56.868052" lon="8.370062">
<ele>28.813821</ele>
<time>2026-07-14T09:24:11.000Z</time>
</trkpt>
<trkpt lat="56.868094" lon="8.370069">
<ele>28.784416</ele>
<time>2026-07-14T09:24:12.000Z</time>
</trkpt>
<trkpt lat="56.868143" lon="8.370068">
<ele>28.750248</ele>
<time>2026-07-14T09:24:13.000Z</time>
</trkpt>
<trkpt lat="56.868201" lon="8.370062">
<ele>28.709743</ele>
<time>2026-07-14T09:24:14.000Z</time>
</trkpt>
<trkpt lat="56.868258" lon="8.370053">
<ele>28.669853</ele>
<time>2026-07-14T09:24:15.000Z</time>
</trkpt>
<trkpt lat="56.868310" lon="8.370037">
<ele>28.633086</ele>
<time>2026-07-14T09:24:16.000Z</time>
</trkpt>
<trkpt lat="56.868359" lon="8.370016">
<ele>28.597997</ele>
<time>2026-07-14T09:24:17.000Z</time>
</trkpt>
<trkpt lat="56.868412" lon="8.369987">
<ele>28.559425</ele>
<time>2026-07-14T09:24:18.000Z</time>
</trkpt>
<trkpt lat="56.868464" lon="8.369954">
<ele>28.521049</ele>
<time>2026-07-14T09:24:19.000Z</time>
</trkpt>
<trkpt lat="56.868509" lon="8.369918">
<ele>28.486805</ele>
<time>2026-07-14T09:24:20.000Z</time>
</trkpt>
<trkpt lat="56.868550" lon="8.369881">
<ele>28.454929</ele>
<time>2026-07-14T09:24:21.000Z</time>
</trkpt>
<trkpt lat="56.868587" lon="8.369843">
<ele>28.425344</ele>
<time>2026-07-14T09:24:22.000Z</time>
</trkpt>
<trkpt lat="56.868620" lon="8.369813">
<ele>28.399652</ele>
<time>2026-07-14T09:24:23.000Z</time>
</trkpt>
<trkpt lat="56.868657" lon="8.369794">
<ele>28.372856</ele>
<time>2026-07-14T09:24:24.000Z</time>
</trkpt>
<trkpt lat="56.868689" lon="8.369793">
<ele>28.350541</ele>
<time>2026-07-14T09:24:25.000Z</time>
</trkpt>
<trkpt lat="56.868716" lon="8.369815">
<ele>28.329933</ele>
<time>2026-07-14T09:24:26.000Z</time>
</trkpt>
<trkpt lat="56.868742" lon="8.369863">
<ele>28.304180</ele>
<time>2026-07-14T09:24:27.000Z</time>
</trkpt>
<trkpt lat="56.868765" lon="8.369923">
<ele>28.276251</ele>
<time>2026-07-14T09:24:28.000Z</time>
</trkpt>
<trkpt lat="56.868780" lon="8.369982">
<ele>28.251454</ele>
<time>2026-07-14T09:24:29.000Z</time>
</trkpt>
<trkpt lat="56.868790" lon="8.370046">
<ele>28.226087</ele>
<time>2026-07-14T09:24:30.000Z</time>
</trkpt>
<trkpt lat="56.868799" lon="8.370115">
<ele>28.199054</ele>
<time>2026-07-14T09:24:31.000Z</time>
</trkpt>
<trkpt lat="56.868807" lon="8.370193">
<ele>28.168810</ele>
<time>2026-07-14T09:24:32.000Z</time>
</trkpt>
<trkpt lat="56.868813" lon="8.370280">
<ele>28.135392</ele>
<time>2026-07-14T09:24:33.000Z</time>
</trkpt>
<trkpt lat="56.868820" lon="8.370360">
<ele>28.104517</ele>
<time>2026-07-14T09:24:34.000Z</time>
</trkpt>
<trkpt lat="56.868832" lon="8.370445">
<ele>28.071062</ele>
<time>2026-07-14T09:24:35.000Z</time>
</trkpt>
<trkpt lat="56.868847" lon="8.370533">
<ele>28.035933</ele>
<time>2026-07-14T09:24:36.000Z</time>
</trkpt>
<trkpt lat="56.868862" lon="8.370617">
<ele>28.002257</ele>
<time>2026-07-14T09:24:37.000Z</time>
</trkpt>
<trkpt lat="56.868883" lon="8.370700">
<ele>27.967402</ele>
<time>2026-07-14T09:24:38.000Z</time>
</trkpt>
<trkpt lat="56.868908" lon="8.370786">
<ele>27.930281</ele>
<time>2026-07-14T09:24:39.000Z</time>
</trkpt>
<trkpt lat="56.868929" lon="8.370867">
<ele>27.896117</ele>
<time>2026-07-14T09:24:40.000Z</time>
</trkpt>
<trkpt lat="56.868950" lon="8.370943">
<ele>27.863663</ele>
<time>2026-07-14T09:24:41.000Z</time>
</trkpt>
<trkpt lat="56.868971" lon="8.371013">
<ele>27.833233</ele>
<time>2026-07-14T09:24:42.000Z</time>
</trkpt>
<trkpt lat="56.868992" lon="8.371080">
<ele>27.803800</ele>
<time>2026-07-14T09:24:43.000Z</time>
</trkpt>
<trkpt lat="56.869015" lon="8.371150">
<ele>27.772675</ele>
<time>2026-07-14T09:24:44.000Z</time>
</trkpt>
<trkpt lat="56.869038" lon="8.371223">
<ele>27.740564</ele>
<time>2026-07-14T09:24:45.000Z</time>
</trkpt>
<trkpt lat="56.869061" lon="8.371295">
<ele>27.708783</ele>
<time>2026-07-14T09:24:46.000Z</time>
</trkpt>
<trkpt lat="56.869084" lon="8.371368">
<ele>27.710475</ele>
<time>2026-07-14T09:24:47.000Z</time>
</trkpt>
<trkpt lat="56.869108" lon="8.371441">
<ele>27.715511</ele>
<time>2026-07-14T09:24:48.000Z</time>
</trkpt>
<trkpt lat="56.869133" lon="8.371512">
<ele>27.720503</ele>
<time>2026-07-14T09:24:49.000Z</time>
</trkpt>
<trkpt lat="56.869154" lon="8.371583">
<ele>27.725275</ele>
<time>2026-07-14T09:24:50.000Z</time>
</trkpt>
<trkpt lat="56.869173" lon="8.371649">
<ele>27.729685</ele>
<time>2026-07-14T09:24:51.000Z</time>
</trkpt>
<trkpt lat="56.869196" lon="8.371713">
<ele>27.734212</ele>
<time>2026-07-14T09:24:52.000Z</time>
</trkpt>
<trkpt lat="56.869221" lon="8.371767">
<ele>27.738396</ele>
<time>2026-07-14T09:24:53.000Z</time>
</trkpt>
<trkpt lat="56.869248" lon="8.371813">
<ele>27.742386</ele>
<time>2026-07-14T09:24:54.000Z</time>
</trkpt>
<trkpt lat="56.869284" lon="8.371856">
<ele>27.747035</ele>
<time>2026-07-14T09:24:55.000Z</time>
</trkpt>
<trkpt lat="56.869315" lon="8.371887">
<ele>27.750856</ele>
<time>2026-07-14T09:24:56.000Z</time>
</trkpt>
<trkpt lat="56.869341" lon="8.371913">
<ele>27.754061</ele>
<time>2026-07-14T09:24:57.000Z</time>
</trkpt>
<trkpt lat="56.869370" lon="8.371936">
<ele>27.757479</ele>
<time>2026-07-14T09:24:58.000Z</time>
</trkpt>
<trkpt lat="56.869401" lon="8.371962">
<ele>27.761167</ele>
<time>2026-07-14T09:24:59.000Z</time>
</trkpt>
<trkpt lat="56.869433" lon="8.371987">
<ele>27.764930</ele>
<time>2026-07-14T09:25:00.000Z</time>
</trkpt>
<trkpt lat="56.869467" lon="8.372014">
<ele>27.768939</ele>
<time>2026-07-14T09:25:01.000Z</time>
</trkpt>
<trkpt lat="56.869502" lon="8.372043">
<ele>27.773094</ele>
<time>2026-07-14T09:25:02.000Z</time>
</trkpt>
<trkpt lat="56.869537" lon="8.372068">
<ele>27.777158</ele>
<time>2026-07-14T09:25:03.000Z</time>
</trkpt>
<trkpt lat="56.869575" lon="8.372089">
<ele>27.781451</ele>
<time>2026-07-14T09:25:04.000Z</time>
</trkpt>
<trkpt lat="56.869615" lon="8.372110">
<ele>27.785952</ele>
<time>2026-07-14T09:25:05.000Z</time>
</trkpt>
<trkpt lat="56.869657" lon="8.372131">
<ele>27.790661</ele>
<time>2026-07-14T09:25:06.000Z</time>
</trkpt>
<trkpt lat="56.869700" lon="8.372148">
<ele>27.795418</ele>
<time>2026-07-14T09:25:07.000Z</time>
</trkpt>
<trkpt lat="56.869742" lon="8.372164">
<ele>27.800058</ele>
<time>2026-07-14T09:25:08.000Z</time>
</trkpt>
<trkpt lat="56.869786" lon="8.372181">
<ele>27.804922</ele>
<time>2026-07-14T09:25:09.000Z</time>
</trkpt>
<trkpt lat="56.869834" lon="8.372192">
<ele>27.810154</ele>
<time>2026-07-14T09:25:10.000Z</time>
</trkpt>
<trkpt lat="56.869887" lon="8.372204">
<ele>27.815929</ele>
<time>2026-07-14T09:25:11.000Z</time>
</trkpt>
<trkpt lat="56.869946" lon="8.372219">
<ele>27.822372</ele>
<time>2026-07-14T09:25:12.000Z</time>
</trkpt>
<trkpt lat="56.870007" lon="8.372232">
<ele>27.829014</ele>
<time>2026-07-14T09:25:13.000Z</time>
</trkpt>
<trkpt lat="56.870068" lon="8.372243">
<ele>27.835643</ele>
<time>2026-07-14T09:25:14.000Z</time>
</trkpt>
<trkpt lat="56.870125" lon="8.372251">
<ele>27.841826</ele>
<time>2026-07-14T09:25:15.000Z</time>
</trkpt>
<trkpt lat="56.870180" lon="8.372261">
<ele>27.847803</ele>
<time>2026-07-14T09:25:16.000Z</time>
</trkpt>
<trkpt lat="56.870238" lon="8.372269">
<ele>27.854094</ele>
<time>2026-07-14T09:25:17.000Z</time>
</trkpt>
<trkpt lat="56.870292" lon="8.372272">
<ele>27.859937</ele>
<time>2026-07-14T09:25:18.000Z</time>
</trkpt>
<trkpt lat="56.870347" lon="8.372276">
<ele>27.865890</ele>
<time>2026-07-14T09:25:19.000Z</time>
</trkpt>
<trkpt lat="56.870411" lon="8.372282">
<ele>27.872821</ele>
<time>2026-07-14T09:25:20.000Z</time>
</trkpt>
<trkpt lat="56.870473" lon="8.372285">
<ele>27.879528</ele>
<time>2026-07-14T09:25:21.000Z</time>
</trkpt>
<trkpt lat="56.870532" lon="8.372288">
<ele>27.885912</ele>
<time>2026-07-14T09:25:22.000Z</time>
</trkpt>
<trkpt lat="56.870584" lon="8.372292">
<ele>27.891541</ele>
<time>2026-07-14T09:25:23.000Z</time>
</trkpt>
<trkpt lat="56.870638" lon="8.372296">
<ele>27.897386</ele>
<time>2026-07-14T09:25:24.000Z</time>
</trkpt>
<trkpt lat="56.870706" lon="8.372298">
<ele>27.915581</ele>
<time>2026-07-14T09:25:25.000Z</time>
</trkpt>
<trkpt lat="56.870765" lon="8.372305">
<ele>27.938178</ele>
<time>2026-07-14T09:25:26.000Z</time>
</trkpt>
<trkpt lat="56.870822" lon="8.372313">
<ele>27.960027</ele>
<time>2026-07-14T09:25:27.000Z</time>
</trkpt>
<trkpt lat="56.870876" lon="8.372323">
<ele>27.980771</ele>
<time>2026-07-14T09:25:28.000Z</time>
</trkpt>
<trkpt lat="56.870930" lon="8.372339">
<ele>28.001678</ele>
<time>2026-07-14T09:25:29.000Z</time>
</trkpt>
<trkpt lat="56.870982" lon="8.372359">
<ele>28.021986</ele>
<time>2026-07-14T09:25:30.000Z</time>
</trkpt>
<trkpt lat="56.871031" lon="8.372376">
<ele>28.041048</ele>
<time>2026-07-14T09:25:31.000Z</time>
</trkpt>
<trkpt lat="56.871080" lon="8.372393">
<ele>28.060109</ele>
<time>2026-07-14T09:25:32.000Z</time>
</trkpt>
<trkpt lat="56.871128" lon="8.372413">
<ele>28.078924</ele>
<time>2026-07-14T09:25:33.000Z</time>
</trkpt>
<trkpt lat="56.871170" lon="8.372434">
<ele>28.095564</ele>
<time>2026-07-14T09:25:34.000Z</time>
</trkpt>
<trkpt lat="56.871205" lon="8.372457">
<ele>28.109778</ele>
<time>2026-07-14T09:25:35.000Z</time>
</trkpt>
<trkpt lat="56.871238" lon="8.372479">
<ele>28.123201</ele>
<time>2026-07-14T09:25:36.000Z</time>
</trkpt>
<trkpt lat="56.871274" lon="8.372499">
<ele>28.137580</ele>
<time>2026-07-14T09:25:37.000Z</time>
</trkpt>
<trkpt lat="56.871310" lon="8.372515">
<ele>28.151739</ele>
<time>2026-07-14T09:25:38.000Z</time>
</trkpt>
<trkpt lat="56.871342" lon="8.372523">
<ele>28.164083</ele>
<time>2026-07-14T09:25:39.000Z</time>
</trkpt>
<trkpt lat="56.871372" lon="8.372526">
<ele>28.175566</ele>
<time>2026-07-14T09:25:40.000Z</time>
</trkpt>
<trkpt lat="56.871407" lon="8.372529">
<ele>28.188958</ele>
<time>2026-07-14T09:25:41.000Z</time>
</trkpt>
<trkpt lat="56.871442" lon="8.372529">
<ele>28.202335</ele>
<time>2026-07-14T09:25:42.000Z</time>
</trkpt>
<trkpt lat="56.871478" lon="8.372522">
<ele>28.216171</ele>
<time>2026-07-14T09:25:43.000Z</time>
</trkpt>
<trkpt lat="56.871514" lon="8.372512">
<ele>28.230088</ele>
<time>2026-07-14T09:25:44.000Z</time>
</trkpt>
<trkpt lat="56.871548" lon="8.372502">
<ele>28.243249</ele>
<time>2026-07-14T09:25:45.000Z</time>
</trkpt>
<trkpt lat="56.871577" lon="8.372483">
<ele>28.255022</ele>
<time>2026-07-14T09:25:46.000Z</time>
</trkpt>
<trkpt lat="56.871598" lon="8.372452">
<ele>28.265334</ele>
<time>2026-07-14T09:25:47.000Z</time>
</trkpt>
<trkpt lat="56.871625" lon="8.372410">
<ele>28.278878</ele>
<time>2026-07-14T09:25:48.000Z</time>
</trkpt>
<trkpt lat="56.871663" lon="8.372361">
<ele>28.296646</ele>
<time>2026-07-14T09:25:49.000Z</time>
</trkpt>
<trkpt lat="56.871707" lon="8.372308">
<ele>28.316779</ele>
<time>2026-07-14T09:25:50.000Z</time>
</trkpt>
<trkpt lat="56.871746" lon="8.372257">
<ele>28.335100</ele>
<time>2026-07-14T09:25:51.000Z</time>
</trkpt>
<trkpt lat="56.871788" lon="8.372206">
<ele>28.354365</ele>
<time>2026-07-14T09:25:52.000Z</time>
</trkpt>
<trkpt lat="56.871828" lon="8.372155">
<ele>28.372998</ele>
<time>2026-07-14T09:25:53.000Z</time>
</trkpt>
<trkpt lat="56.871869" lon="8.372101">
<ele>28.392306</ele>
<time>2026-07-14T09:25:54.000Z</time>
</trkpt>
<trkpt lat="56.871915" lon="8.372045">
<ele>28.413422</ele>
<time>2026-07-14T09:25:55.000Z</time>
</trkpt>
<trkpt lat="56.871956" lon="8.371987">
<ele>28.433229</ele>
<time>2026-07-14T09:25:56.000Z</time>
</trkpt>
<trkpt lat="56.871996" lon="8.371927">
<ele>28.452997</ele>
<time>2026-07-14T09:25:57.000Z</time>
</trkpt>
<trkpt lat="56.872035" lon="8.371866">
<ele>28.472606</ele>
<time>2026-07-14T09:25:58.000Z</time>
</trkpt>
<trkpt lat="56.872072" lon="8.371808">
<ele>28.491227</ele>
<time>2026-07-14T09:25:59.000Z</time>
</trkpt>
<trkpt lat="56.872103" lon="8.371757">
<ele>28.507160</ele>
<time>2026-07-14T09:26:00.000Z</time>
</trkpt>
<trkpt lat="56.872137" lon="8.371705">
<ele>28.524096</ele>
<time>2026-07-14T09:26:01.000Z</time>
</trkpt>
<trkpt lat="56.872178" lon="8.371652">
<ele>28.543282</ele>
<time>2026-07-14T09:26:02.000Z</time>
</trkpt>
<trkpt lat="56.872220" lon="8.371599">
<ele>28.562781</ele>
<time>2026-07-14T09:26:03.000Z</time>
</trkpt>
<trkpt lat="56.872262" lon="8.371545">
<ele>28.582400</ele>
<time>2026-07-14T09:26:04.000Z</time>
</trkpt>
<trkpt lat="56.872300" lon="8.371495">
<ele>28.598593</ele>
<time>2026-07-14T09:26:05.000Z</time>
</trkpt>
<trkpt lat="56.872334" lon="8.371451">
<ele>28.612332</ele>
<time>2026-07-14T09:26:06.000Z</time>
</trkpt>
<trkpt lat="56.872373" lon="8.371407">
<ele>28.627449</ele>
<time>2026-07-14T09:26:07.000Z</time>
</trkpt>
<trkpt lat="56.872425" lon="8.371358">
<ele>28.646746</ele>
<time>2026-07-14T09:26:08.000Z</time>
</trkpt>
<trkpt lat="56.872476" lon="8.371314">
<ele>28.665349</ele>
<time>2026-07-14T09:26:09.000Z</time>
</trkpt>
<trkpt lat="56.872532" lon="8.371277">
<ele>28.684992</ele>
<time>2026-07-14T09:26:10.000Z</time>
</trkpt>
<trkpt lat="56.872590" lon="8.371240">
<ele>28.705257</ele>
<time>2026-07-14T09:26:11.000Z</time>
</trkpt>
<trkpt lat="56.872647" lon="8.371208">
<ele>28.724928</ele>
<time>2026-07-14T09:26:12.000Z</time>
</trkpt>
<trkpt lat="56.872701" lon="8.371179">
<ele>28.743495</ele>
<time>2026-07-14T09:26:13.000Z</time>
</trkpt>
<trkpt lat="56.872756" lon="8.371149">
<ele>28.762430</ele>
<time>2026-07-14T09:26:14.000Z</time>
</trkpt>
<trkpt lat="56.872809" lon="8.371120">
<ele>28.780681</ele>
<time>2026-07-14T09:26:15.000Z</time>
</trkpt>
<trkpt lat="56.872858" lon="8.371093">
<ele>28.797565</ele>
<time>2026-07-14T09:26:16.000Z</time>
</trkpt>
<trkpt lat="56.872904" lon="8.371066">
<ele>28.813503</ele>
<time>2026-07-14T09:26:17.000Z</time>
</trkpt>
<trkpt lat="56.872945" lon="8.371041">
<ele>28.827761</ele>
<time>2026-07-14T09:26:18.000Z</time>
</trkpt>
<trkpt lat="56.872981" lon="8.371018">
<ele>28.840342</ele>
<time>2026-07-14T09:26:19.000Z</time>
</trkpt>
<trkpt lat="56.873015" lon="8.370997">
<ele>28.852181</ele>
<time>2026-07-14T09:26:20.000Z</time>
</trkpt>
<trkpt lat="56.873051" lon="8.370974">
<ele>28.864761</ele>
<time>2026-07-14T09:26:21.000Z</time>
</trkpt>
<trkpt lat="56.873089" lon="8.370952">
<ele>28.877911</ele>
<time>2026-07-14T09:26:22.000Z</time>
</trkpt>
<trkpt lat="56.873130" lon="8.370936">
<ele>28.891742</ele>
<time>2026-07-14T09:26:23.000Z</time>
</trkpt>
<trkpt lat="56.873172" lon="8.370924">
<ele>28.905767</ele>
<time>2026-07-14T09:26:24.000Z</time>
</trkpt>
<trkpt lat="56.873219" lon="8.370912">
<ele>28.921423</ele>
<time>2026-07-14T09:26:25.000Z</time>
</trkpt>
<trkpt lat="56.873269" lon="8.370897">
<ele>28.938140</ele>
<time>2026-07-14T09:26:26.000Z</time>
</trkpt>
<trkpt lat="56.873318" lon="8.370883">
<ele>28.954502</ele>
<time>2026-07-14T09:26:27.000Z</time>
</trkpt>
<trkpt lat="56.873369" lon="8.370874">
<ele>28.971406</ele>
<time>2026-07-14T09:26:28.000Z</time>
</trkpt>
<trkpt lat="56.873424" lon="8.370872">
<ele>28.989556</ele>
<time>2026-07-14T09:26:29.000Z</time>
</trkpt>
<trkpt lat="56.873480" lon="8.370872">
<ele>29.008031</ele>
<time>2026-07-14T09:26:30.000Z</time>
</trkpt>
<trkpt lat="56.873534" lon="8.370869">
<ele>29.025856</ele>
<time>2026-07-14T09:26:31.000Z</time>
</trkpt>
<trkpt lat="56.873581" lon="8.370866">
<ele>29.041371</ele>
<time>2026-07-14T09:26:32.000Z</time>
</trkpt>
<trkpt lat="56.873627" lon="8.370867">
<ele>29.056549</ele>
<time>2026-07-14T09:26:33.000Z</time>
</trkpt>
<trkpt lat="56.873671" lon="8.370872">
<ele>29.071094</ele>
<time>2026-07-14T09:26:34.000Z</time>
</trkpt>
<trkpt lat="56.873715" lon="8.370879">
<ele>29.085665</ele>
<time>2026-07-14T09:26:35.000Z</time>
</trkpt>
<trkpt lat="56.873761" lon="8.370889">
<ele>29.100948</ele>
<time>2026-07-14T09:26:36.000Z</time>
</trkpt>
<trkpt lat="56.873808" lon="8.370900">
<ele>29.116581</ele>
<time>2026-07-14T09:26:37.000Z</time>
</trkpt>
<trkpt lat="56.873857" lon="8.370913">
<ele>29.132917</ele>
<time>2026-07-14T09:26:38.000Z</time>
</trkpt>
<trkpt lat="56.873907" lon="8.370932">
<ele>29.149765</ele>
<time>2026-07-14T09:26:39.000Z</time>
</trkpt>
<trkpt lat="56.873951" lon="8.370952">
<ele>29.164723</ele>
<time>2026-07-14T09:26:40.000Z</time>
</trkpt>
<trkpt lat="56.873988" lon="8.370974">
<ele>29.177558</ele>
<time>2026-07-14T09:26:41.000Z</time>
</trkpt>
<trkpt lat="56.874028" lon="8.371003">
<ele>29.203103</ele>
<time>2026-07-14T09:26:42.000Z</time>
</trkpt>
<trkpt lat="56.874070" lon="8.371032">
<ele>29.234011</ele>
<time>2026-07-14T09:26:43.000Z</time>
</trkpt>
<trkpt lat="56.874110" lon="8.371059">
<ele>29.263365</ele>
<time>2026-07-14T09:26:44.000Z</time>
</trkpt>
<trkpt lat="56.874146" lon="8.371084">
<ele>29.289876</ele>
<time>2026-07-14T09:26:45.000Z</time>
</trkpt>
<trkpt lat="56.874177" lon="8.371109">
<ele>29.313201</ele>
<time>2026-07-14T09:26:46.000Z</time>
</trkpt>
<trkpt lat="56.874207" lon="8.371136">
<ele>29.336219</ele>
<time>2026-07-14T09:26:47.000Z</time>
</trkpt>
<trkpt lat="56.874241" lon="8.371163">
<ele>29.361738</ele>
<time>2026-07-14T09:26:48.000Z</time>
</trkpt>
<trkpt lat="56.874277" lon="8.371188">
<ele>29.388249</ele>
<time>2026-07-14T09:26:49.000Z</time>
</trkpt>
<trkpt lat="56.874311" lon="8.371212">
<ele>29.413340</ele>
<time>2026-07-14T09:26:50.000Z</time>
</trkpt>
<trkpt lat="56.874353" lon="8.371241">
<ele>29.444247</ele>
<time>2026-07-14T09:26:51.000Z</time>
</trkpt>
<trkpt lat="56.874410" lon="8.371276">
<ele>29.485643</ele>
<time>2026-07-14T09:26:52.000Z</time>
</trkpt>
<trkpt lat="56.874464" lon="8.371312">
<ele>29.525213</ele>
<time>2026-07-14T09:26:53.000Z</time>
</trkpt>
<trkpt lat="56.874504" lon="8.371345">
<ele>29.555423</ele>
<time>2026-07-14T09:26:54.000Z</time>
</trkpt>
<trkpt lat="56.874551" lon="8.371380">
<ele>29.590360</ele>
<time>2026-07-14T09:26:55.000Z</time>
</trkpt>
<trkpt lat="56.874598" lon="8.371409">
<ele>29.624510</ele>
<time>2026-07-14T09:26:56.000Z</time>
</trkpt>
<trkpt lat="56.874640" lon="8.371423">
<ele>29.653904</ele>
<time>2026-07-14T09:26:57.000Z</time>
</trkpt>
<trkpt lat="56.874681" lon="8.371424">
<ele>29.682135</ele>
<time>2026-07-14T09:26:58.000Z</time>
</trkpt>
<trkpt lat="56.874728" lon="8.371429">
<ele>29.714550</ele>
<time>2026-07-14T09:26:59.000Z</time>
</trkpt>
<trkpt lat="56.874770" lon="8.371425">
<ele>29.743506</ele>
<time>2026-07-14T09:27:00.000Z</time>
</trkpt>
<trkpt lat="56.874802" lon="8.371409">
<ele>29.766346</ele>
<time>2026-07-14T09:27:01.000Z</time>
</trkpt>
<trkpt lat="56.874860" lon="8.371396">
<ele>29.806578</ele>
<time>2026-07-14T09:27:02.000Z</time>
</trkpt>
<trkpt lat="56.874904" lon="8.371379">
<ele>29.837541</ele>
<time>2026-07-14T09:27:03.000Z</time>
</trkpt>
<trkpt lat="56.874955" lon="8.371362">
<ele>29.873232</ele>
<time>2026-07-14T09:27:04.000Z</time>
</trkpt>
<trkpt lat="56.875009" lon="8.371345">
<ele>29.910958</ele>
<time>2026-07-14T09:27:05.000Z</time>
</trkpt>
<trkpt lat="56.875058" lon="8.371323">
<ele>29.945696</ele>
<time>2026-07-14T09:27:06.000Z</time>
</trkpt>
<trkpt lat="56.875108" lon="8.371309">
<ele>29.980522</ele>
<time>2026-07-14T09:27:07.000Z</time>
</trkpt>
<trkpt lat="56.875157" lon="8.371306">
<ele>30.014278</ele>
<time>2026-07-14T09:27:08.000Z</time>
</trkpt>
<trkpt lat="56.875204" lon="8.371304">
<ele>30.046647</ele>
<time>2026-07-14T09:27:09.000Z</time>
</trkpt>
<trkpt lat="56.875246" lon="8.371295">
<ele>30.075762</ele>
<time>2026-07-14T09:27:10.000Z</time>
</trkpt>
<trkpt lat="56.875279" lon="8.371283">
<ele>30.098927</ele>
<time>2026-07-14T09:27:11.000Z</time>
</trkpt>
<trkpt lat="56.875305" lon="8.371275">
<ele>30.117080</ele>
<time>2026-07-14T09:27:12.000Z</time>
</trkpt>
<trkpt lat="56.875336" lon="8.371279">
<ele>30.138476</ele>
<time>2026-07-14T09:27:13.000Z</time>
</trkpt>
<trkpt lat="56.875378" lon="8.371294">
<ele>30.167939</ele>
<time>2026-07-14T09:27:14.000Z</time>
</trkpt>
<trkpt lat="56.875416" lon="8.371301">
<ele>30.194235</ele>
<time>2026-07-14T09:27:15.000Z</time>
</trkpt>
<trkpt lat="56.875447" lon="8.371298">
<ele>30.215609</ele>
<time>2026-07-14T09:27:16.000Z</time>
</trkpt>
<trkpt lat="56.875481" lon="8.371295">
<ele>30.239045</ele>
<time>2026-07-14T09:27:17.000Z</time>
</trkpt>
<trkpt lat="56.875514" lon="8.371290">
<ele>30.261844</ele>
<time>2026-07-14T09:27:18.000Z</time>
</trkpt>
<trkpt lat="56.875540" lon="8.371282">
<ele>30.279996</ele>
<time>2026-07-14T09:27:19.000Z</time>
</trkpt>
<trkpt lat="56.875573" lon="8.371276">
<ele>30.302829</ele>
<time>2026-07-14T09:27:20.000Z</time>
</trkpt>
<trkpt lat="56.875607" lon="8.371273">
<ele>30.326266</ele>
<time>2026-07-14T09:27:21.000Z</time>
</trkpt>
<trkpt lat="56.875636" lon="8.371272">
<ele>30.346236</ele>
<time>2026-07-14T09:27:22.000Z</time>
</trkpt>
<trkpt lat="56.875666" lon="8.371275">
<ele>30.366922</ele>
<time>2026-07-14T09:27:23.000Z</time>
</trkpt>
<trkpt lat="56.875696" lon="8.371278">
<ele>30.387608</ele>
<time>2026-07-14T09:27:24.000Z</time>
</trkpt>
<trkpt lat="56.875719" lon="8.371276">
<ele>30.403462</ele>
<time>2026-07-14T09:27:25.000Z</time>
</trkpt>
<trkpt lat="56.875741" lon="8.371269">
<ele>30.418836</ele>
<time>2026-07-14T09:27:26.000Z</time>
</trkpt>
<trkpt lat="56.875767" lon="8.371263">
<ele>30.416851</ele>
<time>2026-07-14T09:27:27.000Z</time>
</trkpt>
<trkpt lat="56.875798" lon="8.371260">
<ele>30.413313</ele>
<time>2026-07-14T09:27:28.000Z</time>
</trkpt>
<trkpt lat="56.875830" lon="8.371257">
<ele>30.409661</ele>
<time>2026-07-14T09:27:29.000Z</time>
</trkpt>
<trkpt lat="56.875863" lon="8.371251">
<ele>30.405881</ele>
<time>2026-07-14T09:27:30.000Z</time>
</trkpt>
<trkpt lat="56.875895" lon="8.371241">
<ele>30.402181</ele>
<time>2026-07-14T09:27:31.000Z</time>
</trkpt>
<trkpt lat="56.875929" lon="8.371224">
<ele>30.398164</ele>
<time>2026-07-14T09:27:32.000Z</time>
</trkpt>
<trkpt lat="56.875962" lon="8.371206">
<ele>30.394240</ele>
<time>2026-07-14T09:27:33.000Z</time>
</trkpt>
<trkpt lat="56.876000" lon="8.371187">
<ele>30.389750</ele>
<time>2026-07-14T09:27:34.000Z</time>
</trkpt>
<trkpt lat="56.876038" lon="8.371165">
<ele>30.385207</ele>
<time>2026-07-14T09:27:35.000Z</time>
</trkpt>
<trkpt lat="56.876069" lon="8.371148">
<ele>30.381519</ele>
<time>2026-07-14T09:27:36.000Z</time>
</trkpt>
<trkpt lat="56.876095" lon="8.371136">
<ele>30.378462</ele>
<time>2026-07-14T09:27:37.000Z</time>
</trkpt>
<trkpt lat="56.876120" lon="8.371120">
<ele>30.375444</ele>
<time>2026-07-14T09:27:38.000Z</time>
</trkpt>
<trkpt lat="56.876149" lon="8.371103">
<ele>30.371973</ele>
<time>2026-07-14T09:27:39.000Z</time>
</trkpt>
<trkpt lat="56.876177" lon="8.371089">
<ele>30.368665</ele>
<time>2026-07-14T09:27:40.000Z</time>
</trkpt>
<trkpt lat="56.876207" lon="8.371077">
<ele>30.365165</ele>
<time>2026-07-14T09:27:41.000Z</time>
</trkpt>
<trkpt lat="56.876244" lon="8.371063">
<ele>30.360859</ele>
<time>2026-07-14T09:27:42.000Z</time>
</trkpt>
<trkpt lat="56.876281" lon="8.371047">
<ele>30.356525</ele>
<time>2026-07-14T09:27:43.000Z</time>
</trkpt>
<trkpt lat="56.876319" lon="8.371032">
<ele>30.352095</ele>
<time>2026-07-14T09:27:44.000Z</time>
</trkpt>
<trkpt lat="56.876361" lon="8.371016">
<ele>30.347205</ele>
<time>2026-07-14T09:27:45.000Z</time>
</trkpt>
<trkpt lat="56.876399" lon="8.370997">
<ele>30.342715</ele>
<time>2026-07-14T09:27:46.000Z</time>
</trkpt>
<trkpt lat="56.876438" lon="8.370974">
<ele>30.338045</ele>
<time>2026-07-14T09:27:47.000Z</time>
</trkpt>
<trkpt lat="56.876482" lon="8.370953">
<ele>30.332863</ele>
<time>2026-07-14T09:27:48.000Z</time>
</trkpt>
<trkpt lat="56.876525" lon="8.370933">
<ele>30.327806</ele>
<time>2026-07-14T09:27:49.000Z</time>
</trkpt>
<trkpt lat="56.876571" lon="8.370908">
<ele>30.322337</ele>
<time>2026-07-14T09:27:50.000Z</time>
</trkpt>
<trkpt lat="56.876616" lon="8.370885">
<ele>30.317012</ele>
<time>2026-07-14T09:27:51.000Z</time>
</trkpt>
<trkpt lat="56.876659" lon="8.370863">
<ele>30.311923</ele>
<time>2026-07-14T09:27:52.000Z</time>
</trkpt>
<trkpt lat="56.876700" lon="8.370841">
<ele>30.307053</ele>
<time>2026-07-14T09:27:53.000Z</time>
</trkpt>
<trkpt lat="56.876742" lon="8.370824">
<ele>30.302150</ele>
<time>2026-07-14T09:27:54.000Z</time>
</trkpt>
<trkpt lat="56.876802" lon="8.370792">
<ele>30.295027</ele>
<time>2026-07-14T09:27:55.000Z</time>
</trkpt>
<trkpt lat="56.876858" lon="8.370754">
<ele>30.288220</ele>
<time>2026-07-14T09:27:56.000Z</time>
</trkpt>
<trkpt lat="56.876908" lon="8.370721">
<ele>30.282162</ele>
<time>2026-07-14T09:27:57.000Z</time>
</trkpt>
<trkpt lat="56.876956" lon="8.370688">
<ele>30.276318</ele>
<time>2026-07-14T09:27:58.000Z</time>
</trkpt>
<trkpt lat="56.877004" lon="8.370661">
<ele>30.270595</ele>
<time>2026-07-14T09:27:59.000Z</time>
</trkpt>
<trkpt lat="56.877059" lon="8.370631">
<ele>30.264054</ele>
<time>2026-07-14T09:28:00.000Z</time>
</trkpt>
<trkpt lat="56.877119" lon="8.370598">
<ele>30.256913</ele>
<time>2026-07-14T09:28:01.000Z</time>
</trkpt>
<trkpt lat="56.877181" lon="8.370566">
<ele>30.249571</ele>
<time>2026-07-14T09:28:02.000Z</time>
</trkpt>
<trkpt lat="56.877242" lon="8.370536">
<ele>30.242372</ele>
<time>2026-07-14T09:28:03.000Z</time>
</trkpt>
<trkpt lat="56.877307" lon="8.370508">
<ele>30.234761</ele>
<time>2026-07-14T09:28:04.000Z</time>
</trkpt>
<trkpt lat="56.877369" lon="8.370485">
<ele>30.227551</ele>
<time>2026-07-14T09:28:05.000Z</time>
</trkpt>
<trkpt lat="56.877428" lon="8.370468">
<ele>30.220743</ele>
<time>2026-07-14T09:28:06.000Z</time>
</trkpt>
<trkpt lat="56.877487" lon="8.370454">
<ele>30.212049</ele>
<time>2026-07-14T09:28:07.000Z</time>
</trkpt>
<trkpt lat="56.877540" lon="8.370452">
<ele>30.190244</ele>
<time>2026-07-14T09:28:08.000Z</time>
</trkpt>
<trkpt lat="56.877594" lon="8.370458">
<ele>30.167990</ele>
<time>2026-07-14T09:28:09.000Z</time>
</trkpt>
<trkpt lat="56.877650" lon="8.370469">
<ele>30.144823</ele>
<time>2026-07-14T09:28:10.000Z</time>
</trkpt>
<trkpt lat="56.877701" lon="8.370480">
<ele>30.123700</ele>
<time>2026-07-14T09:28:11.000Z</time>
</trkpt>
<trkpt lat="56.877747" lon="8.370492">
<ele>30.104587</ele>
<time>2026-07-14T09:28:12.000Z</time>
</trkpt>
<trkpt lat="56.877790" lon="8.370502">
<ele>30.086757</ele>
<time>2026-07-14T09:28:13.000Z</time>
</trkpt>
<trkpt lat="56.877838" lon="8.370516">
<ele>30.066763</ele>
<time>2026-07-14T09:28:14.000Z</time>
</trkpt>
<trkpt lat="56.877889" lon="8.370533">
<ele>30.045440</ele>
<time>2026-07-14T09:28:15.000Z</time>
</trkpt>
<trkpt lat="56.877935" lon="8.370550">
<ele>30.026136</ele>
<time>2026-07-14T09:28:16.000Z</time>
</trkpt>
<trkpt lat="56.877988" lon="8.370575">
<ele>30.003622</ele>
<time>2026-07-14T09:28:17.000Z</time>
</trkpt>
<trkpt lat="56.878044" lon="8.370603">
<ele>29.979743</ele>
<time>2026-07-14T09:28:18.000Z</time>
</trkpt>
<trkpt lat="56.878098" lon="8.370630">
<ele>29.956717</ele>
<time>2026-07-14T09:28:19.000Z</time>
</trkpt>
<trkpt lat="56.878150" lon="8.370658">
<ele>29.934420</ele>
<time>2026-07-14T09:28:20.000Z</time>
</trkpt>
<trkpt lat="56.878199" lon="8.370688">
<ele>29.913167</ele>
<time>2026-07-14T09:28:21.000Z</time>
</trkpt>
<trkpt lat="56.878251" lon="8.370720">
<ele>29.890600</ele>
<time>2026-07-14T09:28:22.000Z</time>
</trkpt>
<trkpt lat="56.878305" lon="8.370753">
<ele>29.867182</ele>
<time>2026-07-14T09:28:23.000Z</time>
</trkpt>
<trkpt lat="56.878356" lon="8.370784">
<ele>29.845077</ele>
<time>2026-07-14T09:28:24.000Z</time>
</trkpt>
<trkpt lat="56.878404" lon="8.370814">
<ele>29.824213</ele>
<time>2026-07-14T09:28:25.000Z</time>
</trkpt>
<trkpt lat="56.878452" lon="8.370844">
<ele>29.803349</ele>
<time>2026-07-14T09:28:26.000Z</time>
</trkpt>
<trkpt lat="56.878500" lon="8.370876">
<ele>29.782335</ele>
<time>2026-07-14T09:28:27.000Z</time>
</trkpt>
<trkpt lat="56.878547" lon="8.370907">
<ele>29.761785</ele>
<time>2026-07-14T09:28:28.000Z</time>
</trkpt>
<trkpt lat="56.878598" lon="8.370934">
<ele>29.739946</ele>
<time>2026-07-14T09:28:29.000Z</time>
</trkpt>
<trkpt lat="56.878650" lon="8.370957">
<ele>29.717941</ele>
<time>2026-07-14T09:28:30.000Z</time>
</trkpt>
<trkpt lat="56.878702" lon="8.370976">
<ele>29.696129</ele>
<time>2026-07-14T09:28:31.000Z</time>
</trkpt>
<trkpt lat="56.878751" lon="8.370993">
<ele>29.675614</ele>
<time>2026-07-14T09:28:32.000Z</time>
</trkpt>
<trkpt lat="56.878801" lon="8.371000">
<ele>29.654987</ele>
<time>2026-07-14T09:28:33.000Z</time>
</trkpt>
<trkpt lat="56.878852" lon="8.371005">
<ele>29.633979</ele>
<time>2026-07-14T09:28:34.000Z</time>
</trkpt>
<trkpt lat="56.878900" lon="8.371018">
<ele>29.614019</ele>
<time>2026-07-14T09:28:35.000Z</time>
</trkpt>
<trkpt lat="56.878946" lon="8.371030">
<ele>29.594906</ele>
<time>2026-07-14T09:28:36.000Z</time>
</trkpt>
<trkpt lat="56.878995" lon="8.371040">
<ele>29.574626</ele>
<time>2026-07-14T09:28:37.000Z</time>
</trkpt>
<trkpt lat="56.879043" lon="8.371045">
<ele>29.554849</ele>
<time>2026-07-14T09:28:38.000Z</time>
</trkpt>
<trkpt lat="56.879086" lon="8.371044">
<ele>29.537160</ele>
<time>2026-07-14T09:28:39.000Z</time>
</trkpt>
<trkpt lat="56.879134" lon="8.371042">
<ele>29.517411</ele>
<time>2026-07-14T09:28:40.000Z</time>
</trkpt>
<trkpt lat="56.879179" lon="8.371043">
<ele>29.498899</ele>
<time>2026-07-14T09:28:41.000Z</time>
</trkpt>
<trkpt lat="56.879221" lon="8.371046">
<ele>29.481610</ele>
<time>2026-07-14T09:28:42.000Z</time>
</trkpt>
<trkpt lat="56.879262" lon="8.371047">
<ele>29.433730</ele>
<time>2026-07-14T09:28:43.000Z</time>
</trkpt>
<trkpt lat="56.879301" lon="8.371049">
<ele>29.368388</ele>
<time>2026-07-14T09:28:44.000Z</time>
</trkpt>
<trkpt lat="56.879348" lon="8.371053">
<ele>29.289589</ele>
<time>2026-07-14T09:28:45.000Z</time>
</trkpt>
<trkpt lat="56.879410" lon="8.371054">
<ele>29.185750</ele>
<time>2026-07-14T09:28:46.000Z</time>
</trkpt>
<trkpt lat="56.879466" lon="8.371057">
<ele>29.091923</ele>
<time>2026-07-14T09:28:47.000Z</time>
</trkpt>
<trkpt lat="56.879523" lon="8.371065">
<ele>28.996181</ele>
<time>2026-07-14T09:28:48.000Z</time>
</trkpt>
<trkpt lat="56.879580" lon="8.371076">
<ele>28.900190</ele>
<time>2026-07-14T09:28:49.000Z</time>
</trkpt>
<trkpt lat="56.879636" lon="8.371088">
<ele>28.805763</ele>
<time>2026-07-14T09:28:50.000Z</time>
</trkpt>
<trkpt lat="56.879692" lon="8.371104">
<ele>28.710840</ele>
<time>2026-07-14T09:28:51.000Z</time>
</trkpt>
<trkpt lat="56.879750" lon="8.371126">
<ele>28.611639</ele>
<time>2026-07-14T09:28:52.000Z</time>
</trkpt>
<trkpt lat="56.879805" lon="8.371158">
<ele>28.514985</ele>
<time>2026-07-14T09:28:53.000Z</time>
</trkpt>
<trkpt lat="56.879859" lon="8.371199">
<ele>28.417074</ele>
<time>2026-07-14T09:28:54.000Z</time>
</trkpt>
<trkpt lat="56.879908" lon="8.371246">
<ele>28.324423</ele>
<time>2026-07-14T09:28:55.000Z</time>
</trkpt>
<trkpt lat="56.879954" lon="8.371301">
<ele>28.232401</ele>
<time>2026-07-14T09:28:56.000Z</time>
</trkpt>
<trkpt lat="56.880002" lon="8.371363">
<ele>28.134007</ele>
<time>2026-07-14T09:28:57.000Z</time>
</trkpt>
<trkpt lat="56.880046" lon="8.371425">
<ele>28.041007</ele>
<time>2026-07-14T09:28:58.000Z</time>
</trkpt>
<trkpt lat="56.880090" lon="8.371490">
<ele>27.946307</ele>
<time>2026-07-14T09:28:59.000Z</time>
</trkpt>
<trkpt lat="56.880128" lon="8.371553">
<ele>27.860437</ele>
<time>2026-07-14T09:29:00.000Z</time>
</trkpt>
<trkpt lat="56.880161" lon="8.371613">
<ele>27.782533</ele>
<time>2026-07-14T09:29:01.000Z</time>
</trkpt>
<trkpt lat="56.880192" lon="8.371678">
<ele>27.703582</ele>
<time>2026-07-14T09:29:02.000Z</time>
</trkpt>
<trkpt lat="56.880225" lon="8.371751">
<ele>27.616883</ele>
<time>2026-07-14T09:29:03.000Z</time>
</trkpt>
<trkpt lat="56.880256" lon="8.371824">
<ele>27.532279</ele>
<time>2026-07-14T09:29:04.000Z</time>
</trkpt>
<trkpt lat="56.880287" lon="8.371903">
<ele>27.443277</ele>
<time>2026-07-14T09:29:05.000Z</time>
</trkpt>
<trkpt lat="56.880324" lon="8.371995">
<ele>27.338743</ele>
<time>2026-07-14T09:29:06.000Z</time>
</trkpt>
<trkpt lat="56.880356" lon="8.372071">
<ele>27.250944</ele>
<time>2026-07-14T09:29:07.000Z</time>
</trkpt>
<trkpt lat="56.880387" lon="8.372139">
<ele>27.169904</ele>
<time>2026-07-14T09:29:08.000Z</time>
</trkpt>
<trkpt lat="56.880420" lon="8.372187">
<ele>27.099309</ele>
<time>2026-07-14T09:29:09.000Z</time>
</trkpt>
<trkpt lat="56.880459" lon="8.372200">
<ele>27.032919</ele>
<time>2026-07-14T09:29:10.000Z</time>
</trkpt>
<trkpt lat="56.880497" lon="8.372176">
<ele>26.965595</ele>
<time>2026-07-14T09:29:11.000Z</time>
</trkpt>
<trkpt lat="56.880530" lon="8.372126">
<ele>26.893846</ele>
<time>2026-07-14T09:29:12.000Z</time>
</trkpt>
<trkpt lat="56.880569" lon="8.372060">
<ele>26.804887</ele>
<time>2026-07-14T09:29:13.000Z</time>
</trkpt>
<trkpt lat="56.880608" lon="8.371989">
<ele>26.712761</ele>
<time>2026-07-14T09:29:14.000Z</time>
</trkpt>
<trkpt lat="56.880648" lon="8.371913">
<ele>26.616199</ele>
<time>2026-07-14T09:29:15.000Z</time>
</trkpt>
<trkpt lat="56.880689" lon="8.371835">
<ele>26.517157</ele>
<time>2026-07-14T09:29:16.000Z</time>
</trkpt>
<trkpt lat="56.880727" lon="8.371758">
<ele>26.448949</ele>
<time>2026-07-14T09:29:17.000Z</time>
</trkpt>
<trkpt lat="56.880765" lon="8.371682">
<ele>26.417185</ele>
<time>2026-07-14T09:29:18.000Z</time>
</trkpt>
<trkpt lat="56.880800" lon="8.371608">
<ele>26.387007</ele>
<time>2026-07-14T09:29:19.000Z</time>
</trkpt>
<trkpt lat="56.880831" lon="8.371528">
<ele>26.356767</ele>
<time>2026-07-14T09:29:20.000Z</time>
</trkpt>
<trkpt lat="56.880854" lon="8.371440">
<ele>26.326689</ele>
<time>2026-07-14T09:29:21.000Z</time>
</trkpt>
<trkpt lat="56.880869" lon="8.371351">
<ele>26.297972</ele>
<time>2026-07-14T09:29:22.000Z</time>
</trkpt>
<trkpt lat="56.880879" lon="8.371260">
<ele>26.269352</ele>
<time>2026-07-14T09:29:23.000Z</time>
</trkpt>
<trkpt lat="56.880884" lon="8.371175">
<ele>26.242992</ele>
<time>2026-07-14T09:29:24.000Z</time>
</trkpt>
<trkpt lat="56.880886" lon="8.371095">
<ele>26.218300</ele>
<time>2026-07-14T09:29:25.000Z</time>
</trkpt>
<trkpt lat="56.880890" lon="8.371018">
<ele>26.194451</ele>
<time>2026-07-14T09:29:26.000Z</time>
</trkpt>
<trkpt lat="56.880896" lon="8.370946">
<ele>26.171995</ele>
<time>2026-07-14T09:29:27.000Z</time>
</trkpt>
<trkpt lat="56.880904" lon="8.370884">
<ele>26.152352</ele>
<time>2026-07-14T09:29:28.000Z</time>
</trkpt>
<trkpt lat="56.880919" lon="8.370832">
<ele>26.134222</ele>
<time>2026-07-14T09:29:29.000Z</time>
</trkpt>
<trkpt lat="56.880939" lon="8.370784">
<ele>26.115609</ele>
<time>2026-07-14T09:29:30.000Z</time>
</trkpt>
<trkpt lat="56.880960" lon="8.370749">
<ele>26.099581</ele>
<time>2026-07-14T09:29:31.000Z</time>
</trkpt>
<trkpt lat="56.880983" lon="8.370725">
<ele>26.084641</ele>
<time>2026-07-14T09:29:32.000Z</time>
</trkpt>
<trkpt lat="56.881009" lon="8.370710">
<ele>26.069257</ele>
<time>2026-07-14T09:29:33.000Z</time>
</trkpt>
<trkpt lat="56.881036" lon="8.370697">
<ele>26.053502</ele>
<time>2026-07-14T09:29:34.000Z</time>
</trkpt>
<trkpt lat="56.881064" lon="8.370679">
<ele>26.036755</ele>
<time>2026-07-14T09:29:35.000Z</time>
</trkpt>
<trkpt lat="56.881088" lon="8.370664">
<ele>26.022443</ele>
<time>2026-07-14T09:29:36.000Z</time>
</trkpt>
<trkpt lat="56.881117" lon="8.370646">
<ele>26.005163</ele>
<time>2026-07-14T09:29:37.000Z</time>
</trkpt>
<trkpt lat="56.881144" lon="8.370627">
<ele>25.988839</ele>
<time>2026-07-14T09:29:38.000Z</time>
</trkpt>
<trkpt lat="56.881176" lon="8.370605">
<ele>25.969549</ele>
<time>2026-07-14T09:29:39.000Z</time>
</trkpt>
<trkpt lat="56.881209" lon="8.370582">
<ele>25.949622</ele>
<time>2026-07-14T09:29:40.000Z</time>
</trkpt>
<trkpt lat="56.881237" lon="8.370562">
<ele>25.932660</ele>
<time>2026-07-14T09:29:41.000Z</time>
</trkpt>
<trkpt lat="56.881270" lon="8.370541">
<ele>25.912944</ele>
<time>2026-07-14T09:29:42.000Z</time>
</trkpt>
<trkpt lat="56.881301" lon="8.370517">
<ele>25.893950</ele>
<time>2026-07-14T09:29:43.000Z</time>
</trkpt>
<trkpt lat="56.881333" lon="8.370491">
<ele>25.874192</ele>
<time>2026-07-14T09:29:44.000Z</time>
</trkpt>
<trkpt lat="56.881369" lon="8.370463">
<ele>25.852119</ele>
<time>2026-07-14T09:29:45.000Z</time>
</trkpt>
<trkpt lat="56.881404" lon="8.370435">
<ele>25.830563</ele>
<time>2026-07-14T09:29:46.000Z</time>
</trkpt>
<trkpt lat="56.881440" lon="8.370407">
<ele>25.808490</ele>
<time>2026-07-14T09:29:47.000Z</time>
</trkpt>
<trkpt lat="56.881478" lon="8.370381">
<ele>25.785596</ele>
<time>2026-07-14T09:29:48.000Z</time>
</trkpt>
<trkpt lat="56.881520" lon="8.370362">
<ele>25.761182</ele>
<time>2026-07-14T09:29:49.000Z</time>
</trkpt>
<trkpt lat="56.881567" lon="8.370351">
<ele>25.734443</ele>
<time>2026-07-14T09:29:50.000Z</time>
</trkpt>
<trkpt lat="56.881617" lon="8.370349">
<ele>25.706221</ele>
<time>2026-07-14T09:29:51.000Z</time>
</trkpt>
<trkpt lat="56.881672" lon="8.370350">
<ele>25.675182</ele>
<time>2026-07-14T09:29:52.000Z</time>
</trkpt>
<trkpt lat="56.881722" lon="8.370353">
<ele>25.646951</ele>
<time>2026-07-14T09:29:53.000Z</time>
</trkpt>
<trkpt lat="56.881764" lon="8.370360">
<ele>25.623151</ele>
<time>2026-07-14T09:29:54.000Z</time>
</trkpt>
<trkpt lat="56.881819" lon="8.370361">
<ele>25.592113</ele>
<time>2026-07-14T09:29:55.000Z</time>
</trkpt>
<trkpt lat="56.881873" lon="8.370360">
<ele>25.561638</ele>
<time>2026-07-14T09:29:56.000Z</time>
</trkpt>
<trkpt lat="56.881923" lon="8.370363">
<ele>25.533407</ele>
<time>2026-07-14T09:29:57.000Z</time>
</trkpt>
<trkpt lat="56.881981" lon="8.370364">
<ele>25.500675</ele>
<time>2026-07-14T09:29:58.000Z</time>
</trkpt>
<trkpt lat="56.882049" lon="8.370363">
<ele>25.462301</ele>
<time>2026-07-14T09:29:59.000Z</time>
</trkpt>
<trkpt lat="56.882129" lon="8.370365">
<ele>25.342381</ele>
<time>2026-07-14T09:30:00.000Z</time>
</trkpt>
<trkpt lat="56.882193" lon="8.370375">
<ele>25.216933</ele>
<time>2026-07-14T09:30:01.000Z</time>
</trkpt>
<trkpt lat="56.882255" lon="8.370390">
<ele>25.094793</ele>
<time>2026-07-14T09:30:02.000Z</time>
</trkpt>
<trkpt lat="56.882307" lon="8.370417">
<ele>24.989228</ele>
<time>2026-07-14T09:30:03.000Z</time>
</trkpt>
<trkpt lat="56.882354" lon="8.370461">
<ele>24.886126</ele>
<time>2026-07-14T09:30:04.000Z</time>
</trkpt>
<trkpt lat="56.882394" lon="8.370510">
<ele>24.792123</ele>
<time>2026-07-14T09:30:05.000Z</time>
</trkpt>
<trkpt lat="56.882436" lon="8.370557">
<ele>24.695980</ele>
<time>2026-07-14T09:30:06.000Z</time>
</trkpt>
<trkpt lat="56.882474" lon="8.370601">
<ele>24.608161</ele>
<time>2026-07-14T09:30:07.000Z</time>
</trkpt>
<trkpt lat="56.882502" lon="8.370644">
<ele>24.536777</ele>
<time>2026-07-14T09:30:08.000Z</time>
</trkpt>
<trkpt lat="56.882526" lon="8.370680">
<ele>24.476175</ele>
<time>2026-07-14T09:30:09.000Z</time>
</trkpt>
<trkpt lat="56.882553" lon="8.370713">
<ele>24.412767</ele>
<time>2026-07-14T09:30:10.000Z</time>
</trkpt>
<trkpt lat="56.882584" lon="8.370746">
<ele>24.342728</ele>
<time>2026-07-14T09:30:11.000Z</time>
</trkpt>
<trkpt lat="56.882620" lon="8.370778">
<ele>24.264567</ele>
<time>2026-07-14T09:30:12.000Z</time>
</trkpt>
<trkpt lat="56.882671" lon="8.370810">
<ele>24.159273</ele>
<time>2026-07-14T09:30:13.000Z</time>
</trkpt>
<trkpt lat="56.882730" lon="8.370842">
<ele>24.039092</ele>
<time>2026-07-14T09:30:14.000Z</time>
</trkpt>
<trkpt lat="56.882785" lon="8.370866">
<ele>23.928666</ele>
<time>2026-07-14T09:30:15.000Z</time>
</trkpt>
<trkpt lat="56.882840" lon="8.370878">
<ele>23.820489</ele>
<time>2026-07-14T09:30:16.000Z</time>
</trkpt>
<trkpt lat="56.882902" lon="8.370883">
<ele>23.699285</ele>
<time>2026-07-14T09:30:17.000Z</time>
</trkpt>
<trkpt lat="56.882961" lon="8.370888">
<ele>23.583933</ele>
<time>2026-07-14T09:30:18.000Z</time>
</trkpt>
<trkpt lat="56.883018" lon="8.370889">
<ele>23.472606</ele>
<time>2026-07-14T09:30:19.000Z</time>
</trkpt>
<trkpt lat="56.883075" lon="8.370888">
<ele>23.361279</ele>
<time>2026-07-14T09:30:20.000Z</time>
</trkpt>
<trkpt lat="56.883136" lon="8.370884">
<ele>23.242069</ele>
<time>2026-07-14T09:30:21.000Z</time>
</trkpt>
<trkpt lat="56.883199" lon="8.370878">
<ele>23.118862</ele>
<time>2026-07-14T09:30:22.000Z</time>
</trkpt>
<trkpt lat="56.883256" lon="8.370869">
<ele>23.007127</ele>
<time>2026-07-14T09:30:23.000Z</time>
</trkpt>
<trkpt lat="56.883308" lon="8.370858">
<ele>22.904894</ele>
<time>2026-07-14T09:30:24.000Z</time>
</trkpt>
<trkpt lat="56.883361" lon="8.370847">
<ele>22.800720</ele>
<time>2026-07-14T09:30:25.000Z</time>
</trkpt>
<trkpt lat="56.883416" lon="8.370830">
<ele>22.691784</ele>
<time>2026-07-14T09:30:26.000Z</time>
</trkpt>
<trkpt lat="56.883466" lon="8.370811">
<ele>22.592050</ele>
<time>2026-07-14T09:30:27.000Z</time>
</trkpt>
<trkpt lat="56.883527" lon="8.370787">
<ele>22.470195</ele>
<time>2026-07-14T09:30:28.000Z</time>
</trkpt>
<trkpt lat="56.883592" lon="8.370762">
<ele>22.340477</ele>
<time>2026-07-14T09:30:29.000Z</time>
</trkpt>
<trkpt lat="56.883649" lon="8.370743">
<ele>22.227324</ele>
<time>2026-07-14T09:30:30.000Z</time>
</trkpt>
<trkpt lat="56.883707" lon="8.370731">
<ele>22.113327</ele>
<time>2026-07-14T09:30:31.000Z</time>
</trkpt>
<trkpt lat="56.883770" lon="8.370716">
<ele>21.989251</ele>
<time>2026-07-14T09:30:32.000Z</time>
</trkpt>
<trkpt lat="56.883831" lon="8.370701">
<ele>21.928908</ele>
<time>2026-07-14T09:30:33.000Z</time>
</trkpt>
<trkpt lat="56.883886" lon="8.370690">
<ele>21.919295</ele>
<time>2026-07-14T09:30:34.000Z</time>
</trkpt>
<trkpt lat="56.883941" lon="8.370677">
<ele>21.909660</ele>
<time>2026-07-14T09:30:35.000Z</time>
</trkpt>
<trkpt lat="56.883995" lon="8.370662">
<ele>21.900171</ele>
<time>2026-07-14T09:30:36.000Z</time>
</trkpt>
<trkpt lat="56.884051" lon="8.370641">
<ele>21.890239</ele>
<time>2026-07-14T09:30:37.000Z</time>
</trkpt>
<trkpt lat="56.884105" lon="8.370618">
<ele>21.880606</ele>
<time>2026-07-14T09:30:38.000Z</time>
</trkpt>
<trkpt lat="56.884154" lon="8.370600">
<ele>21.871923</ele>
<time>2026-07-14T09:30:39.000Z</time>
</trkpt>
<trkpt lat="56.884207" lon="8.370586">
<ele>21.862619</ele>
<time>2026-07-14T09:30:40.000Z</time>
</trkpt>
<trkpt lat="56.884268" lon="8.370572">
<ele>21.851937</ele>
<time>2026-07-14T09:30:41.000Z</time>
</trkpt>
<trkpt lat="56.884328" lon="8.370553">
<ele>21.841358</ele>
<time>2026-07-14T09:30:42.000Z</time>
</trkpt>
<trkpt lat="56.884382" lon="8.370533">
<ele>21.831786</ele>
<time>2026-07-14T09:30:43.000Z</time>
</trkpt>
<trkpt lat="56.884435" lon="8.370515">
<ele>21.822420</ele>
<time>2026-07-14T09:30:44.000Z</time>
</trkpt>
<trkpt lat="56.884493" lon="8.370495">
<ele>21.812165</ele>
<time>2026-07-14T09:30:45.000Z</time>
</trkpt>
<trkpt lat="56.884549" lon="8.370470">
<ele>21.802151</ele>
<time>2026-07-14T09:30:46.000Z</time>
</trkpt>
<trkpt lat="56.884605" lon="8.370446">
<ele>21.792158</ele>
<time>2026-07-14T09:30:47.000Z</time>
</trkpt>
<trkpt lat="56.884664" lon="8.370421">
<ele>21.781636</ele>
<time>2026-07-14T09:30:48.000Z</time>
</trkpt>
<trkpt lat="56.884723" lon="8.370397">
<ele>21.771135</ele>
<time>2026-07-14T09:30:49.000Z</time>
</trkpt>
<trkpt lat="56.884778" lon="8.370377">
<ele>21.761392</ele>
<time>2026-07-14T09:30:50.000Z</time>
</trkpt>
<trkpt lat="56.884837" lon="8.370357">
<ele>21.750967</ele>
<time>2026-07-14T09:30:51.000Z</time>
</trkpt>
<trkpt lat="56.884896" lon="8.370341">
<ele>21.740604</ele>
<time>2026-07-14T09:30:52.000Z</time>
</trkpt>
<trkpt lat="56.884953" lon="8.370321">
<ele>21.730520</ele>
<time>2026-07-14T09:30:53.000Z</time>
</trkpt>
<trkpt lat="56.885015" lon="8.370295">
<ele>21.719469</ele>
<time>2026-07-14T09:30:54.000Z</time>
</trkpt>
<trkpt lat="56.885079" lon="8.370266">
<ele>21.708014</ele>
<time>2026-07-14T09:30:55.000Z</time>
</trkpt>
<trkpt lat="56.885130" lon="8.370244">
<ele>21.698910</ele>
<time>2026-07-14T09:30:56.000Z</time>
</trkpt>
<trkpt lat="56.885184" lon="8.370220">
<ele>21.689255</ele>
<time>2026-07-14T09:30:57.000Z</time>
</trkpt>
<trkpt lat="56.885256" lon="8.370195">
<ele>21.676522</ele>
<time>2026-07-14T09:30:58.000Z</time>
</trkpt>
<trkpt lat="56.885330" lon="8.370179">
<ele>21.663576</ele>
<time>2026-07-14T09:30:59.000Z</time>
</trkpt>
<trkpt lat="56.885389" lon="8.370181">
<ele>21.653323</ele>
<time>2026-07-14T09:31:00.000Z</time>
</trkpt>
<trkpt lat="56.885440" lon="8.370197">
<ele>21.644333</ele>
<time>2026-07-14T09:31:01.000Z</time>
</trkpt>
<trkpt lat="56.885486" lon="8.370218">
<ele>21.636096</ele>
<time>2026-07-14T09:31:02.000Z</time>
</trkpt>
<trkpt lat="56.885526" lon="8.370243">
<ele>21.628752</ele>
<time>2026-07-14T09:31:03.000Z</time>
</trkpt>
<trkpt lat="56.885564" lon="8.370271">
<ele>21.621905</ele>
<time>2026-07-14T09:31:04.000Z</time>
</trkpt>
<trkpt lat="56.885608" lon="8.370302">
<ele>21.617319</ele>
<time>2026-07-14T09:31:05.000Z</time>
</trkpt>
<trkpt lat="56.885652" lon="8.370332">
<ele>21.612752</ele>
<time>2026-07-14T09:31:06.000Z</time>
</trkpt>
<trkpt lat="56.885693" lon="8.370362">
<ele>21.608457</ele>
<time>2026-07-14T09:31:07.000Z</time>
</trkpt>
<trkpt lat="56.885733" lon="8.370390">
<ele>21.604291</ele>
<time>2026-07-14T09:31:08.000Z</time>
</trkpt>
<trkpt lat="56.885775" lon="8.370415">
<ele>21.599995</ele>
<time>2026-07-14T09:31:09.000Z</time>
</trkpt>
<trkpt lat="56.885819" lon="8.370436">
<ele>21.595572</ele>
<time>2026-07-14T09:31:10.000Z</time>
</trkpt>
<trkpt lat="56.885863" lon="8.370450">
<ele>21.591228</ele>
<time>2026-07-14T09:31:11.000Z</time>
</trkpt>
<trkpt lat="56.885907" lon="8.370449">
<ele>21.586948</ele>
<time>2026-07-14T09:31:12.000Z</time>
</trkpt>
<trkpt lat="56.885955" lon="8.370434">
<ele>21.582211</ele>
<time>2026-07-14T09:31:13.000Z</time>
</trkpt>
<trkpt lat="56.886020" lon="8.370422">
<ele>21.575856</ele>
<time>2026-07-14T09:31:14.000Z</time>
</trkpt>
<trkpt lat="56.886099" lon="8.370412">
<ele>21.568154</ele>
<time>2026-07-14T09:31:15.000Z</time>
</trkpt>
<trkpt lat="56.886167" lon="8.370380">
<ele>21.561324</ele>
<time>2026-07-14T09:31:16.000Z</time>
</trkpt>
<trkpt lat="56.886228" lon="8.370322">
<ele>21.554638</ele>
<time>2026-07-14T09:31:17.000Z</time>
</trkpt>
<trkpt lat="56.886289" lon="8.370256">
<ele>21.547745</ele>
<time>2026-07-14T09:31:18.000Z</time>
</trkpt>
<trkpt lat="56.886342" lon="8.370180">
<ele>21.541196</ele>
<time>2026-07-14T09:31:19.000Z</time>
</trkpt>
<trkpt lat="56.886382" lon="8.370099">
<ele>21.535394</ele>
<time>2026-07-14T09:31:20.000Z</time>
</trkpt>
<trkpt lat="56.886421" lon="8.370025">
<ele>21.529930</ele>
<time>2026-07-14T09:31:21.000Z</time>
</trkpt>
<trkpt lat="56.886460" lon="8.369960">
<ele>21.524799</ele>
<time>2026-07-14T09:31:22.000Z</time>
</trkpt>
<trkpt lat="56.886496" lon="8.369905">
<ele>21.520238</ele>
<time>2026-07-14T09:31:23.000Z</time>
</trkpt>
<trkpt lat="56.886535" lon="8.369859">
<ele>21.515725</ele>
<time>2026-07-14T09:31:24.000Z</time>
</trkpt>
<trkpt lat="56.886579" lon="8.369820">
<ele>21.510970</ele>
<time>2026-07-14T09:31:25.000Z</time>
</trkpt>
<trkpt lat="56.886623" lon="8.369786">
<ele>21.506324</ele>
<time>2026-07-14T09:31:26.000Z</time>
</trkpt>
<trkpt lat="56.886663" lon="8.369758">
<ele>21.502158</ele>
<time>2026-07-14T09:31:27.000Z</time>
</trkpt>
<trkpt lat="56.886703" lon="8.369729">
<ele>21.497973</ele>
<time>2026-07-14T09:31:28.000Z</time>
</trkpt>
<trkpt lat="56.886741" lon="8.369695">
<ele>21.493859</ele>
<time>2026-07-14T09:31:29.000Z</time>
</trkpt>
<trkpt lat="56.886777" lon="8.369654">
<ele>21.489735</ele>
<time>2026-07-14T09:31:30.000Z</time>
</trkpt>
<trkpt lat="56.886814" lon="8.369612">
<ele>21.485500</ele>
<time>2026-07-14T09:31:31.000Z</time>
</trkpt>
<trkpt lat="56.886851" lon="8.369574">
<ele>21.481373</ele>
<time>2026-07-14T09:31:32.000Z</time>
</trkpt>
<trkpt lat="56.886887" lon="8.369541">
<ele>21.477457</ele>
<time>2026-07-14T09:31:33.000Z</time>
</trkpt>
<trkpt lat="56.886929" lon="8.369514">
<ele>21.473127</ele>
<time>2026-07-14T09:31:34.000Z</time>
</trkpt>
<trkpt lat="56.886974" lon="8.369492">
<ele>21.468596</ele>
<time>2026-07-14T09:31:35.000Z</time>
</trkpt>
<trkpt lat="56.887019" lon="8.369475">
<ele>21.464127</ele>
<time>2026-07-14T09:31:36.000Z</time>
</trkpt>
<trkpt lat="56.887067" lon="8.369463">
<ele>21.459414</ele>
<time>2026-07-14T09:31:37.000Z</time>
</trkpt>
<trkpt lat="56.887115" lon="8.369450">
<ele>21.454694</ele>
<time>2026-07-14T09:31:38.000Z</time>
</trkpt>
<trkpt lat="56.887162" lon="8.369438">
<ele>21.450078</ele>
<time>2026-07-14T09:31:39.000Z</time>
</trkpt>
<trkpt lat="56.887209" lon="8.369426">
<ele>21.447143</ele>
<time>2026-07-14T09:31:40.000Z</time>
</trkpt>
<trkpt lat="56.887256" lon="8.369411">
<ele>21.446766</ele>
<time>2026-07-14T09:31:41.000Z</time>
</trkpt>
<trkpt lat="56.887307" lon="8.369393">
<ele>21.446355</ele>
<time>2026-07-14T09:31:42.000Z</time>
</trkpt>
<trkpt lat="56.887365" lon="8.369366">
<ele>21.445882</ele>
<time>2026-07-14T09:31:43.000Z</time>
</trkpt>
<trkpt lat="56.887424" lon="8.369328">
<ele>21.445388</ele>
<time>2026-07-14T09:31:44.000Z</time>
</trkpt>
<trkpt lat="56.887479" lon="8.369294">
<ele>21.444929</ele>
<time>2026-07-14T09:31:45.000Z</time>
</trkpt>
<trkpt lat="56.887527" lon="8.369270">
<ele>21.444536</ele>
<time>2026-07-14T09:31:46.000Z</time>
</trkpt>
<trkpt lat="56.887573" lon="8.369248">
<ele>21.444160</ele>
<time>2026-07-14T09:31:47.000Z</time>
</trkpt>
<trkpt lat="56.887619" lon="8.369225">
<ele>21.443783</ele>
<time>2026-07-14T09:31:48.000Z</time>
</trkpt>
<trkpt lat="56.887666" lon="8.369204">
<ele>21.443401</ele>
<time>2026-07-14T09:31:49.000Z</time>
</trkpt>
<trkpt lat="56.887715" lon="8.369191">
<ele>21.443009</ele>
<time>2026-07-14T09:31:50.000Z</time>
</trkpt>
<trkpt lat="56.887762" lon="8.369180">
<ele>21.442635</ele>
<time>2026-07-14T09:31:51.000Z</time>
</trkpt>
<trkpt lat="56.887806" lon="8.369166">
<ele>21.442282</ele>
<time>2026-07-14T09:31:52.000Z</time>
</trkpt>
<trkpt lat="56.887854" lon="8.369156">
<ele>21.441900</ele>
<time>2026-07-14T09:31:53.000Z</time>
</trkpt>
<trkpt lat="56.887900" lon="8.369146">
<ele>21.441534</ele>
<time>2026-07-14T09:31:54.000Z</time>
</trkpt>
<trkpt lat="56.887946" lon="8.369130">
<ele>21.441164</ele>
<time>2026-07-14T09:31:55.000Z</time>
</trkpt>
<trkpt lat="56.887993" lon="8.369115">
<ele>21.440787</ele>
<time>2026-07-14T09:31:56.000Z</time>
</trkpt>
<trkpt lat="56.888049" lon="8.369097">
<ele>21.440338</ele>
<time>2026-07-14T09:31:57.000Z</time>
</trkpt>
<trkpt lat="56.888105" lon="8.369079">
<ele>21.439888</ele>
<time>2026-07-14T09:31:58.000Z</time>
</trkpt>
<trkpt lat="56.888167" lon="8.369054">
<ele>21.439387</ele>
<time>2026-07-14T09:31:59.000Z</time>
</trkpt>
<trkpt lat="56.888233" lon="8.369025">
<ele>21.438850</ele>
<time>2026-07-14T09:32:00.000Z</time>
</trkpt>
<trkpt lat="56.888293" lon="8.368998">
<ele>21.438362</ele>
<time>2026-07-14T09:32:01.000Z</time>
</trkpt>
<trkpt lat="56.888354" lon="8.368973">
<ele>21.437868</ele>
<time>2026-07-14T09:32:02.000Z</time>
</trkpt>
<trkpt lat="56.888410" lon="8.368955">
<ele>21.437418</ele>
<time>2026-07-14T09:32:03.000Z</time>
</trkpt>
<trkpt lat="56.888461" lon="8.368940">
<ele>21.437010</ele>
<time>2026-07-14T09:32:04.000Z</time>
</trkpt>
<trkpt lat="56.888519" lon="8.368921">
<ele>21.436544</ele>
<time>2026-07-14T09:32:05.000Z</time>
</trkpt>
<trkpt lat="56.888581" lon="8.368895">
<ele>21.436042</ele>
<time>2026-07-14T09:32:06.000Z</time>
</trkpt>
<trkpt lat="56.888644" lon="8.368856">
<ele>21.435516</ele>
<time>2026-07-14T09:32:07.000Z</time>
</trkpt>
<trkpt lat="56.888702" lon="8.368823">
<ele>21.435036</ele>
<time>2026-07-14T09:32:08.000Z</time>
</trkpt>
<trkpt lat="56.888757" lon="8.368797">
<ele>21.434587</ele>
<time>2026-07-14T09:32:09.000Z</time>
</trkpt>
<trkpt lat="56.888818" lon="8.368767">
<ele>21.434088</ele>
<time>2026-07-14T09:32:10.000Z</time>
</trkpt>
<trkpt lat="56.888877" lon="8.368738">
<ele>21.433605</ele>
<time>2026-07-14T09:32:11.000Z</time>
</trkpt>
<trkpt lat="56.888932" lon="8.368704">
<ele>21.433146</ele>
<time>2026-07-14T09:32:12.000Z</time>
</trkpt>
<trkpt lat="56.888983" lon="8.368675">
<ele>21.442883</ele>
<time>2026-07-14T09:32:13.000Z</time>
</trkpt>
<trkpt lat="56.889035" lon="8.368659">
<ele>21.454502</ele>
<time>2026-07-14T09:32:14.000Z</time>
</trkpt>
<trkpt lat="56.889093" lon="8.368645">
<ele>21.467394</ele>
<time>2026-07-14T09:32:15.000Z</time>
</trkpt>
<trkpt lat="56.889148" lon="8.368633">
<ele>21.479600</ele>
<time>2026-07-14T09:32:16.000Z</time>
</trkpt>
<trkpt lat="56.889199" lon="8.368615">
<ele>21.491045</ele>
<time>2026-07-14T09:32:17.000Z</time>
</trkpt>
<trkpt lat="56.889256" lon="8.368594">
<ele>21.503858</ele>
<time>2026-07-14T09:32:18.000Z</time>
</trkpt>
<trkpt lat="56.889319" lon="8.368575">
<ele>21.517928</ele>
<time>2026-07-14T09:32:19.000Z</time>
</trkpt>
<trkpt lat="56.889383" lon="8.368557">
<ele>21.532197</ele>
<time>2026-07-14T09:32:20.000Z</time>
</trkpt>
<trkpt lat="56.889449" lon="8.368536">
<ele>21.546959</ele>
<time>2026-07-14T09:32:21.000Z</time>
</trkpt>
<trkpt lat="56.889511" lon="8.368514">
<ele>21.560876</ele>
<time>2026-07-14T09:32:22.000Z</time>
</trkpt>
<trkpt lat="56.889569" lon="8.368495">
<ele>21.573860</ele>
<time>2026-07-14T09:32:23.000Z</time>
</trkpt>
<trkpt lat="56.889624" lon="8.368479">
<ele>21.586132</ele>
<time>2026-07-14T09:32:24.000Z</time>
</trkpt>
<trkpt lat="56.889678" lon="8.368466">
<ele>21.598135</ele>
<time>2026-07-14T09:32:25.000Z</time>
</trkpt>
<trkpt lat="56.889732" lon="8.368452">
<ele>21.610153</ele>
<time>2026-07-14T09:32:26.000Z</time>
</trkpt>
<trkpt lat="56.889801" lon="8.368411">
<ele>21.626139</ele>
<time>2026-07-14T09:32:27.000Z</time>
</trkpt>
<trkpt lat="56.889887" lon="8.368347">
<ele>21.646597</ele>
<time>2026-07-14T09:32:28.000Z</time>
</trkpt>
<trkpt lat="56.889961" lon="8.368297">
<ele>21.663979</ele>
<time>2026-07-14T09:32:29.000Z</time>
</trkpt>
<trkpt lat="56.890022" lon="8.368260">
<ele>21.678140</ele>
<time>2026-07-14T09:32:30.000Z</time>
</trkpt>
<trkpt lat="56.890079" lon="8.368229">
<ele>21.691243</ele>
<time>2026-07-14T09:32:31.000Z</time>
</trkpt>
<trkpt lat="56.890134" lon="8.368203">
<ele>21.703761</ele>
<time>2026-07-14T09:32:32.000Z</time>
</trkpt>
<trkpt lat="56.890191" lon="8.368170">
<ele>21.716935</ele>
<time>2026-07-14T09:32:33.000Z</time>
</trkpt>
<trkpt lat="56.890250" lon="8.368139">
<ele>21.730461</ele>
<time>2026-07-14T09:32:34.000Z</time>
</trkpt>
<trkpt lat="56.890308" lon="8.368114">
<ele>21.743592</ele>
<time>2026-07-14T09:32:35.000Z</time>
</trkpt>
<trkpt lat="56.890366" lon="8.368080">
<ele>21.757012</ele>
<time>2026-07-14T09:32:36.000Z</time>
</trkpt>
<trkpt lat="56.890421" lon="8.368046">
<ele>21.769805</ele>
<time>2026-07-14T09:32:37.000Z</time>
</trkpt>
<trkpt lat="56.890468" lon="8.368024">
<ele>21.780495</ele>
<time>2026-07-14T09:32:38.000Z</time>
</trkpt>
<trkpt lat="56.890512" lon="8.368005">
<ele>21.790457</ele>
<time>2026-07-14T09:32:39.000Z</time>
</trkpt>
<trkpt lat="56.890561" lon="8.367986">
<ele>21.801495</ele>
<time>2026-07-14T09:32:40.000Z</time>
</trkpt>
<trkpt lat="56.890608" lon="8.367968">
<ele>21.812076</ele>
<time>2026-07-14T09:32:41.000Z</time>
</trkpt>
<trkpt lat="56.890650" lon="8.367951">
<ele>21.821555</ele>
<time>2026-07-14T09:32:42.000Z</time>
</trkpt>
<trkpt lat="56.890690" lon="8.367941">
<ele>21.831074</ele>
<time>2026-07-14T09:32:43.000Z</time>
</trkpt>
<trkpt lat="56.890730" lon="8.367927">
<ele>21.845544</ele>
<time>2026-07-14T09:32:44.000Z</time>
</trkpt>
<trkpt lat="56.890777" lon="8.367911">
<ele>21.862531</ele>
<time>2026-07-14T09:32:45.000Z</time>
</trkpt>
<trkpt lat="56.890817" lon="8.367896">
<ele>21.877038</ele>
<time>2026-07-14T09:32:46.000Z</time>
</trkpt>
<trkpt lat="56.890867" lon="8.367866">
<ele>21.895734</ele>
<time>2026-07-14T09:32:47.000Z</time>
</trkpt>
<trkpt lat="56.890934" lon="8.367824">
<ele>21.920897</ele>
<time>2026-07-14T09:32:48.000Z</time>
</trkpt>
<trkpt lat="56.890995" lon="8.367789">
<ele>21.943612</ele>
<time>2026-07-14T09:32:49.000Z</time>
</trkpt>
<trkpt lat="56.891050" lon="8.367758">
<ele>21.964059</ele>
<time>2026-07-14T09:32:50.000Z</time>
</trkpt>
<trkpt lat="56.891100" lon="8.367734">
<ele>21.982426</ele>
<time>2026-07-14T09:32:51.000Z</time>
</trkpt>
<trkpt lat="56.891148" lon="8.367719">
<ele>21.999728</ele>
<time>2026-07-14T09:32:52.000Z</time>
</trkpt>
<trkpt lat="56.891194" lon="8.367702">
<ele>22.016402</ele>
<time>2026-07-14T09:32:53.000Z</time>
</trkpt>
<trkpt lat="56.891242" lon="8.367678">
<ele>22.034082</ele>
<time>2026-07-14T09:32:54.000Z</time>
</trkpt>
<trkpt lat="56.891292" lon="8.367655">
<ele>22.052400</ele>
<time>2026-07-14T09:32:55.000Z</time>
</trkpt>
<trkpt lat="56.891348" lon="8.367633">
<ele>22.072751</ele>
<time>2026-07-14T09:32:56.000Z</time>
</trkpt>
<trkpt lat="56.891405" lon="8.367604">
<ele>22.093772</ele>
<time>2026-07-14T09:32:57.000Z</time>
</trkpt>
<trkpt lat="56.891454" lon="8.367572">
<ele>22.112257</ele>
<time>2026-07-14T09:32:58.000Z</time>
</trkpt>
<trkpt lat="56.891493" lon="8.367545">
<ele>22.127072</ele>
<time>2026-07-14T09:32:59.000Z</time>
</trkpt>
<trkpt lat="56.891530" lon="8.367522">
<ele>22.140956</ele>
<time>2026-07-14T09:33:00.000Z</time>
</trkpt>
<trkpt lat="56.891571" lon="8.367505">
<ele>22.155893</ele>
<time>2026-07-14T09:33:01.000Z</time>
</trkpt>
<trkpt lat="56.891616" lon="8.367491">
<ele>22.172112</ele>
<time>2026-07-14T09:33:02.000Z</time>
</trkpt>
<trkpt lat="56.891657" lon="8.367485">
<ele>22.186726</ele>
<time>2026-07-14T09:33:03.000Z</time>
</trkpt>
<trkpt lat="56.891688" lon="8.367492">
<ele>22.197825</ele>
<time>2026-07-14T09:33:04.000Z</time>
</trkpt>
<trkpt lat="56.891721" lon="8.367495">
<ele>22.209565</ele>
<time>2026-07-14T09:33:05.000Z</time>
</trkpt>
<trkpt lat="56.891756" lon="8.367490">
<ele>22.222038</ele>
<time>2026-07-14T09:33:06.000Z</time>
</trkpt>
<trkpt lat="56.891791" lon="8.367477">
<ele>22.234728</ele>
<time>2026-07-14T09:33:07.000Z</time>
</trkpt>
<trkpt lat="56.891829" lon="8.367451">
<ele>22.249142</ele>
<time>2026-07-14T09:33:08.000Z</time>
</trkpt>
<trkpt lat="56.891869" lon="8.367421">
<ele>22.264501</ele>
<time>2026-07-14T09:33:09.000Z</time>
</trkpt>
<trkpt lat="56.891911" lon="8.367388">
<ele>22.280741</ele>
<time>2026-07-14T09:33:10.000Z</time>
</trkpt>
<trkpt lat="56.891953" lon="8.367356">
<ele>22.296905</ele>
<time>2026-07-14T09:33:11.000Z</time>
</trkpt>
<trkpt lat="56.891994" lon="8.367330">
<ele>22.312323</ele>
<time>2026-07-14T09:33:12.000Z</time>
</trkpt>
<trkpt lat="56.892036" lon="8.367301">
<ele>22.328272</ele>
<time>2026-07-14T09:33:13.000Z</time>
</trkpt>
<trkpt lat="56.892078" lon="8.367272">
<ele>22.344221</ele>
<time>2026-07-14T09:33:14.000Z</time>
</trkpt>
<trkpt lat="56.892127" lon="8.367236">
<ele>22.362982</ele>
<time>2026-07-14T09:33:15.000Z</time>
</trkpt>
<trkpt lat="56.892179" lon="8.367192">
<ele>22.383336</ele>
<time>2026-07-14T09:33:16.000Z</time>
</trkpt>
<trkpt lat="56.892230" lon="8.367148">
<ele>22.403369</ele>
<time>2026-07-14T09:33:17.000Z</time>
</trkpt>
<trkpt lat="56.892279" lon="8.367106">
<ele>22.422593</ele>
<time>2026-07-14T09:33:18.000Z</time>
</trkpt>
<trkpt lat="56.892329" lon="8.367067">
<ele>22.441904</ele>
<time>2026-07-14T09:33:19.000Z</time>
</trkpt>
<trkpt lat="56.892379" lon="8.367030">
<ele>22.461067</ele>
<time>2026-07-14T09:33:20.000Z</time>
</trkpt>
<trkpt lat="56.892425" lon="8.366994">
<ele>22.473401</ele>
<time>2026-07-14T09:33:21.000Z</time>
</trkpt>
<trkpt lat="56.892474" lon="8.366955">
<ele>22.482373</ele>
<time>2026-07-14T09:33:22.000Z</time>
</trkpt>
<trkpt lat="56.892521" lon="8.366916">
<ele>22.491038</ele>
<time>2026-07-14T09:33:23.000Z</time>
</trkpt>
<trkpt lat="56.892567" lon="8.366882">
<ele>22.499368</ele>
<time>2026-07-14T09:33:24.000Z</time>
</trkpt>
<trkpt lat="56.892618" lon="8.366852">
<ele>22.508362</ele>
<time>2026-07-14T09:33:25.000Z</time>
</trkpt>
<trkpt lat="56.892680" lon="8.366823">
<ele>22.519108</ele>
<time>2026-07-14T09:33:26.000Z</time>
</trkpt>
<trkpt lat="56.892736" lon="8.366800">
<ele>22.528745</ele>
<time>2026-07-14T09:33:27.000Z</time>
</trkpt>
<trkpt lat="56.892785" lon="8.366784">
<ele>22.537103</ele>
<time>2026-07-14T09:33:28.000Z</time>
</trkpt>
<trkpt lat="56.892834" lon="8.366774">
<ele>22.545381</ele>
<time>2026-07-14T09:33:29.000Z</time>
</trkpt>
<trkpt lat="56.892886" lon="8.366767">
<ele>22.554137</ele>
<time>2026-07-14T09:33:30.000Z</time>
</trkpt>
<trkpt lat="56.892939" lon="8.366765">
<ele>22.563038</ele>
<time>2026-07-14T09:33:31.000Z</time>
</trkpt>
<trkpt lat="56.892993" lon="8.366760">
<ele>22.572117</ele>
<time>2026-07-14T09:33:32.000Z</time>
</trkpt>
<trkpt lat="56.893050" lon="8.366746">
<ele>22.581774</ele>
<time>2026-07-14T09:33:33.000Z</time>
</trkpt>
<trkpt lat="56.893108" lon="8.366730">
<ele>22.591623</ele>
<time>2026-07-14T09:33:34.000Z</time>
</trkpt>
<trkpt lat="56.893163" lon="8.366715">
<ele>22.600961</ele>
<time>2026-07-14T09:33:35.000Z</time>
</trkpt>
<trkpt lat="56.893214" lon="8.366697">
<ele>22.609682</ele>
<time>2026-07-14T09:33:36.000Z</time>
</trkpt>
<trkpt lat="56.893269" lon="8.366677">
<ele>22.619098</ele>
<time>2026-07-14T09:33:37.000Z</time>
</trkpt>
<trkpt lat="56.893327" lon="8.366652">
<ele>22.629104</ele>
<time>2026-07-14T09:33:38.000Z</time>
</trkpt>
<trkpt lat="56.893379" lon="8.366620">
<ele>22.638315</ele>
<time>2026-07-14T09:33:39.000Z</time>
</trkpt>
<trkpt lat="56.893427" lon="8.366588">
<ele>22.646893</ele>
<time>2026-07-14T09:33:40.000Z</time>
</trkpt>
<trkpt lat="56.893470" lon="8.366553">
<ele>22.654795</ele>
<time>2026-07-14T09:33:41.000Z</time>
</trkpt>
<trkpt lat="56.893512" lon="8.366515">
<ele>22.662662</ele>
<time>2026-07-14T09:33:42.000Z</time>
</trkpt>
<trkpt lat="56.893554" lon="8.366476">
<ele>22.670569</ele>
<time>2026-07-14T09:33:43.000Z</time>
</trkpt>
<trkpt lat="56.893596" lon="8.366438">
<ele>22.678436</ele>
<time>2026-07-14T09:33:44.000Z</time>
</trkpt>
<trkpt lat="56.893641" lon="8.366400">
<ele>22.686757</ele>
<time>2026-07-14T09:33:45.000Z</time>
</trkpt>
<trkpt lat="56.893691" lon="8.366360">
<ele>22.695920</ele>
<time>2026-07-14T09:33:46.000Z</time>
</trkpt>
<trkpt lat="56.893741" lon="8.366320">
<ele>22.705082</ele>
<time>2026-07-14T09:33:47.000Z</time>
</trkpt>
<trkpt lat="56.893786" lon="8.366281">
<ele>22.713442</ele>
<time>2026-07-14T09:33:48.000Z</time>
</trkpt>
<trkpt lat="56.893831" lon="8.366246">
<ele>22.721652</ele>
<time>2026-07-14T09:33:49.000Z</time>
</trkpt>
<trkpt lat="56.893876" lon="8.366214">
<ele>22.729758</ele>
<time>2026-07-14T09:33:50.000Z</time>
</trkpt>
<trkpt lat="56.893929" lon="8.366177">
<ele>22.739283</ele>
<time>2026-07-14T09:33:51.000Z</time>
</trkpt>
<trkpt lat="56.893996" lon="8.366133">
<ele>22.751235</ele>
<time>2026-07-14T09:33:52.000Z</time>
</trkpt>
<trkpt lat="56.894050" lon="8.366096">
<ele>22.760917</ele>
<time>2026-07-14T09:33:53.000Z</time>
</trkpt>
<trkpt lat="56.894099" lon="8.366059">
<ele>22.769817</ele>
<time>2026-07-14T09:33:54.000Z</time>
</trkpt>
<trkpt lat="56.894146" lon="8.366023">
<ele>22.771170</ele>
<time>2026-07-14T09:33:55.000Z</time>
</trkpt>
<trkpt lat="56.894194" lon="8.365987">
<ele>22.771862</ele>
<time>2026-07-14T09:33:56.000Z</time>
</trkpt>
<trkpt lat="56.894246" lon="8.365951">
<ele>22.772603</ele>
<time>2026-07-14T09:33:57.000Z</time>
</trkpt>
<trkpt lat="56.894304" lon="8.365915">
<ele>22.773420</ele>
<time>2026-07-14T09:33:58.000Z</time>
</trkpt>
<trkpt lat="56.894361" lon="8.365880">
<ele>22.774222</ele>
<time>2026-07-14T09:33:59.000Z</time>
</trkpt>
<trkpt lat="56.894412" lon="8.365847">
<ele>22.774943</ele>
<time>2026-07-14T09:34:00.000Z</time>
</trkpt>
<trkpt lat="56.894459" lon="8.365814">
<ele>22.775615</ele>
<time>2026-07-14T09:34:01.000Z</time>
</trkpt>
<trkpt lat="56.894510" lon="8.365778">
<ele>22.776344</ele>
<time>2026-07-14T09:34:02.000Z</time>
</trkpt>
<trkpt lat="56.894563" lon="8.365740">
<ele>22.777103</ele>
<time>2026-07-14T09:34:03.000Z</time>
</trkpt>
<trkpt lat="56.894615" lon="8.365702">
<ele>22.777850</ele>
<time>2026-07-14T09:34:04.000Z</time>
</trkpt>
<trkpt lat="56.894663" lon="8.365665">
<ele>22.778544</ele>
<time>2026-07-14T09:34:05.000Z</time>
</trkpt>
<trkpt lat="56.894715" lon="8.365626">
<ele>22.779294</ele>
<time>2026-07-14T09:34:06.000Z</time>
</trkpt>
<trkpt lat="56.894771" lon="8.365585">
<ele>22.780098</ele>
<time>2026-07-14T09:34:07.000Z</time>
</trkpt>
<trkpt lat="56.894827" lon="8.365546">
<ele>22.780897</ele>
<time>2026-07-14T09:34:08.000Z</time>
</trkpt>
<trkpt lat="56.894878" lon="8.365510">
<ele>22.781627</ele>
<time>2026-07-14T09:34:09.000Z</time>
</trkpt>
<trkpt lat="56.894923" lon="8.365478">
<ele>22.782270</ele>
<time>2026-07-14T09:34:10.000Z</time>
</trkpt>
<trkpt lat="56.894971" lon="8.365446">
<ele>22.782952</ele>
<time>2026-07-14T09:34:11.000Z</time>
</trkpt>
<trkpt lat="56.895023" lon="8.365413">
<ele>22.783686</ele>
<time>2026-07-14T09:34:12.000Z</time>
</trkpt>
<trkpt lat="56.895076" lon="8.365379">
<ele>22.784435</ele>
<time>2026-07-14T09:34:13.000Z</time>
</trkpt>
<trkpt lat="56.895127" lon="8.365343">
<ele>22.785164</ele>
<time>2026-07-14T09:34:14.000Z</time>
</trkpt>
<trkpt lat="56.895173" lon="8.365307">
<ele>22.785831</ele>
<time>2026-07-14T09:34:15.000Z</time>
</trkpt>
<trkpt lat="56.895220" lon="8.365268">
<ele>22.786519</ele>
<time>2026-07-14T09:34:16.000Z</time>
</trkpt>
<trkpt lat="56.895269" lon="8.365228">
<ele>22.787235</ele>
<time>2026-07-14T09:34:17.000Z</time>
</trkpt>
<trkpt lat="56.895312" lon="8.365193">
<ele>22.787863</ele>
<time>2026-07-14T09:34:18.000Z</time>
</trkpt>
<trkpt lat="56.895360" lon="8.365155">
<ele>22.788560</ele>
<time>2026-07-14T09:34:19.000Z</time>
</trkpt>
<trkpt lat="56.895414" lon="8.365112">
<ele>22.789346</ele>
<time>2026-07-14T09:34:20.000Z</time>
</trkpt>
<trkpt lat="56.895464" lon="8.365071">
<ele>22.790076</ele>
<time>2026-07-14T09:34:21.000Z</time>
</trkpt>
<trkpt lat="56.895515" lon="8.365029">
<ele>22.790822</ele>
<time>2026-07-14T09:34:22.000Z</time>
</trkpt>
<trkpt lat="56.895562" lon="8.364991">
<ele>22.791508</ele>
<time>2026-07-14T09:34:23.000Z</time>
</trkpt>
<trkpt lat="56.895610" lon="8.364949">
<ele>22.792217</ele>
<time>2026-07-14T09:34:24.000Z</time>
</trkpt>
<trkpt lat="56.895661" lon="8.364903">
<ele>22.792975</ele>
<time>2026-07-14T09:34:25.000Z</time>
</trkpt>
<trkpt lat="56.895713" lon="8.364854">
<ele>22.793755</ele>
<time>2026-07-14T09:34:26.000Z</time>
</trkpt>
<trkpt lat="56.895763" lon="8.364804">
<ele>22.794515</ele>
<time>2026-07-14T09:34:27.000Z</time>
</trkpt>
<trkpt lat="56.895813" lon="8.364760">
<ele>22.806624</ele>
<time>2026-07-14T09:34:28.000Z</time>
</trkpt>
<trkpt lat="56.895862" lon="8.364717">
<ele>22.818848</ele>
<time>2026-07-14T09:34:29.000Z</time>
</trkpt>
<trkpt lat="56.895911" lon="8.364675">
<ele>22.831019</ele>
<time>2026-07-14T09:34:30.000Z</time>
</trkpt>
<trkpt lat="56.895956" lon="8.364634">
<ele>22.842326</ele>
<time>2026-07-14T09:34:31.000Z</time>
</trkpt>
<trkpt lat="56.896001" lon="8.364591">
<ele>22.853745</ele>
<time>2026-07-14T09:34:32.000Z</time>
</trkpt>
<trkpt lat="56.896053" lon="8.364542">
<ele>22.866901</ele>
<time>2026-07-14T09:34:33.000Z</time>
</trkpt>
<trkpt lat="56.896106" lon="8.364489">
<ele>22.880486</ele>
<time>2026-07-14T09:34:34.000Z</time>
</trkpt>
<trkpt lat="56.896156" lon="8.364441">
<ele>22.893186</ele>
<time>2026-07-14T09:34:35.000Z</time>
</trkpt>
<trkpt lat="56.896205" lon="8.364398">
<ele>22.905409</ele>
<time>2026-07-14T09:34:36.000Z</time>
</trkpt>
<trkpt lat="56.896257" lon="8.364353">
<ele>22.918348</ele>
<time>2026-07-14T09:34:37.000Z</time>
</trkpt>
<trkpt lat="56.896309" lon="8.364307">
<ele>22.931339</ele>
<time>2026-07-14T09:34:38.000Z</time>
</trkpt>
<trkpt lat="56.896360" lon="8.364261">
<ele>22.944129</ele>
<time>2026-07-14T09:34:39.000Z</time>
</trkpt>
<trkpt lat="56.896407" lon="8.364217">
<ele>22.956004</ele>
<time>2026-07-14T09:34:40.000Z</time>
</trkpt>
<trkpt lat="56.896452" lon="8.364171">
<ele>22.967597</ele>
<time>2026-07-14T09:34:41.000Z</time>
</trkpt>
<trkpt lat="56.896505" lon="8.364122">
<ele>22.980954</ele>
<time>2026-07-14T09:34:42.000Z</time>
</trkpt>
<trkpt lat="56.896556" lon="8.364079">
<ele>22.993585</ele>
<time>2026-07-14T09:34:43.000Z</time>
</trkpt>
<trkpt lat="56.896603" lon="8.364037">
<ele>23.005350</ele>
<time>2026-07-14T09:34:44.000Z</time>
</trkpt>
<trkpt lat="56.896652" lon="8.363995">
<ele>23.017520</ele>
<time>2026-07-14T09:34:45.000Z</time>
</trkpt>
<trkpt lat="56.896699" lon="8.363955">
<ele>23.029180</ele>
<time>2026-07-14T09:34:46.000Z</time>
</trkpt>
<trkpt lat="56.896745" lon="8.363919">
<ele>23.040433</ele>
<time>2026-07-14T09:34:47.000Z</time>
</trkpt>
<trkpt lat="56.896792" lon="8.363881">
<ele>23.051991</ele>
<time>2026-07-14T09:34:48.000Z</time>
</trkpt>
<trkpt lat="56.896838" lon="8.363839">
<ele>23.063554</ele>
<time>2026-07-14T09:34:49.000Z</time>
</trkpt>
<trkpt lat="56.896883" lon="8.363798">
<ele>23.074862</ele>
<time>2026-07-14T09:34:50.000Z</time>
</trkpt>
<trkpt lat="56.896931" lon="8.363758">
<ele>23.086725</ele>
<time>2026-07-14T09:34:51.000Z</time>
</trkpt>
<trkpt lat="56.896977" lon="8.363716">
<ele>23.098288</ele>
<time>2026-07-14T09:34:52.000Z</time>
</trkpt>
<trkpt lat="56.897022" lon="8.363677">
<ele>23.109488</ele>
<time>2026-07-14T09:34:53.000Z</time>
</trkpt>
<trkpt lat="56.897065" lon="8.363637">
<ele>23.120338</ele>
<time>2026-07-14T09:34:54.000Z</time>
</trkpt>
<trkpt lat="56.897106" lon="8.363597">
<ele>23.130789</ele>
<time>2026-07-14T09:34:55.000Z</time>
</trkpt>
<trkpt lat="56.897147" lon="8.363559">
<ele>23.141126</ele>
<time>2026-07-14T09:34:56.000Z</time>
</trkpt>
<trkpt lat="56.897187" lon="8.363519">
<ele>23.151379</ele>
<time>2026-07-14T09:34:57.000Z</time>
</trkpt>
<trkpt lat="56.897230" lon="8.363481">
<ele>23.162120</ele>
<time>2026-07-14T09:34:58.000Z</time>
</trkpt>
<trkpt lat="56.897271" lon="8.363445">
<ele>23.172349</ele>
<time>2026-07-14T09:34:59.000Z</time>
</trkpt>
<trkpt lat="56.897314" lon="8.363405">
<ele>23.183199</ele>
<time>2026-07-14T09:35:00.000Z</time>
</trkpt>
<trkpt lat="56.897363" lon="8.363361">
<ele>23.195476</ele>
<time>2026-07-14T09:35:01.000Z</time>
</trkpt>
<trkpt lat="56.897409" lon="8.363320">
<ele>23.204975</ele>
<time>2026-07-14T09:35:02.000Z</time>
</trkpt>
<trkpt lat="56.897454" lon="8.363280">
<ele>23.213340</ele>
<time>2026-07-14T09:35:03.000Z</time>
</trkpt>
<trkpt lat="56.897501" lon="8.363238">
<ele>23.222086</ele>
<time>2026-07-14T09:35:04.000Z</time>
</trkpt>
<trkpt lat="56.897549" lon="8.363196">
<ele>23.230981</ele>
<time>2026-07-14T09:35:05.000Z</time>
</trkpt>
<trkpt lat="56.897592" lon="8.363158">
<ele>23.238966</ele>
<time>2026-07-14T09:35:06.000Z</time>
</trkpt>
<trkpt lat="56.897635" lon="8.363121">
<ele>23.246910</ele>
<time>2026-07-14T09:35:07.000Z</time>
</trkpt>
<trkpt lat="56.897679" lon="8.363086">
<ele>23.254932</ele>
<time>2026-07-14T09:35:08.000Z</time>
</trkpt>
<trkpt lat="56.897722" lon="8.363051">
<ele>23.262801</ele>
<time>2026-07-14T09:35:09.000Z</time>
</trkpt>
<trkpt lat="56.897765" lon="8.363011">
<ele>23.270866</ele>
<time>2026-07-14T09:35:10.000Z</time>
</trkpt>
<trkpt lat="56.897804" lon="8.362970">
<ele>23.278386</ele>
<time>2026-07-14T09:35:11.000Z</time>
</trkpt>
<trkpt lat="56.897848" lon="8.362928">
<ele>23.286684</ele>
<time>2026-07-14T09:35:12.000Z</time>
</trkpt>
<trkpt lat="56.897890" lon="8.362889">
<ele>23.294558</ele>
<time>2026-07-14T09:35:13.000Z</time>
</trkpt>
<trkpt lat="56.897933" lon="8.362849">
<ele>23.302624</ele>
<time>2026-07-14T09:35:14.000Z</time>
</trkpt>
<trkpt lat="56.897975" lon="8.362809">
<ele>23.310540</ele>
<time>2026-07-14T09:35:15.000Z</time>
</trkpt>
<trkpt lat="56.898015" lon="8.362770">
<ele>23.318118</ele>
<time>2026-07-14T09:35:16.000Z</time>
</trkpt>
<trkpt lat="56.898055" lon="8.362731">
<ele>23.325696</ele>
<time>2026-07-14T09:35:17.000Z</time>
</trkpt>
<trkpt lat="56.898097" lon="8.362692">
<ele>23.333570</ele>
<time>2026-07-14T09:35:18.000Z</time>
</trkpt>
<trkpt lat="56.898138" lon="8.362655">
<ele>23.341214</ele>
<time>2026-07-14T09:35:19.000Z</time>
</trkpt>
<trkpt lat="56.898182" lon="8.362616">
<ele>23.349388</ele>
<time>2026-07-14T09:35:20.000Z</time>
</trkpt>
<trkpt lat="56.898229" lon="8.362574">
<ele>23.358134</ele>
<time>2026-07-14T09:35:21.000Z</time>
</trkpt>
<trkpt lat="56.898274" lon="8.362535">
<ele>23.366459</ele>
<time>2026-07-14T09:35:22.000Z</time>
</trkpt>
<trkpt lat="56.898316" lon="8.362496">
<ele>23.374333</ele>
<time>2026-07-14T09:35:23.000Z</time>
</trkpt>
<trkpt lat="56.898355" lon="8.362457">
<ele>23.381764</ele>
<time>2026-07-14T09:35:24.000Z</time>
</trkpt>
<trkpt lat="56.898395" lon="8.362417">
<ele>23.389385</ele>
<time>2026-07-14T09:35:25.000Z</time>
</trkpt>
<trkpt lat="56.898434" lon="8.362379">
<ele>23.396773</ele>
<time>2026-07-14T09:35:26.000Z</time>
</trkpt>
<trkpt lat="56.898474" lon="8.362344">
<ele>23.404186</ele>
<time>2026-07-14T09:35:27.000Z</time>
</trkpt>
<trkpt lat="56.898515" lon="8.362308">
<ele>23.411789</ele>
<time>2026-07-14T09:35:28.000Z</time>
</trkpt>
<trkpt lat="56.898552" lon="8.362272">
<ele>23.418796</ele>
<time>2026-07-14T09:35:29.000Z</time>
</trkpt>
<trkpt lat="56.898592" lon="8.362238">
<ele>23.426170</ele>
<time>2026-07-14T09:35:30.000Z</time>
</trkpt>
<trkpt lat="56.898634" lon="8.362201">
<ele>23.433964</ele>
<time>2026-07-14T09:35:31.000Z</time>
</trkpt>
<trkpt lat="56.898675" lon="8.362162">
<ele>23.441690</ele>
<time>2026-07-14T09:35:32.000Z</time>
</trkpt>
<trkpt lat="56.898715" lon="8.362125">
<ele>23.449184</ele>
<time>2026-07-14T09:35:33.000Z</time>
</trkpt>
<trkpt lat="56.898757" lon="8.362088">
<ele>23.456977</ele>
<time>2026-07-14T09:35:34.000Z</time>
</trkpt>
<trkpt lat="56.898795" lon="8.362055">
<ele>23.464010</ele>
<time>2026-07-14T09:35:35.000Z</time>
</trkpt>
<trkpt lat="56.898833" lon="8.362022">
<ele>23.471043</ele>
<time>2026-07-14T09:35:36.000Z</time>
</trkpt>
<trkpt lat="56.898888" lon="8.361970">
<ele>23.481393</ele>
<time>2026-07-14T09:35:37.000Z</time>
</trkpt>
<trkpt lat="56.898936" lon="8.361928">
<ele>23.490289</ele>
<time>2026-07-14T09:35:38.000Z</time>
</trkpt>
<trkpt lat="56.898982" lon="8.361884">
<ele>23.498968</ele>
<time>2026-07-14T09:35:39.000Z</time>
</trkpt>
<trkpt lat="56.899025" lon="8.361842">
<ele>23.508997</ele>
<time>2026-07-14T09:35:40.000Z</time>
</trkpt>
<trkpt lat="56.899070" lon="8.361798">
<ele>23.519757</ele>
<time>2026-07-14T09:35:41.000Z</time>
</trkpt>
<trkpt lat="56.899117" lon="8.361754">
<ele>23.530891</ele>
<time>2026-07-14T09:35:42.000Z</time>
</trkpt>
<trkpt lat="56.899164" lon="8.361712">
<ele>23.541922</ele>
<time>2026-07-14T09:35:43.000Z</time>
</trkpt>
<trkpt lat="56.899209" lon="8.361672">
<ele>23.552473</ele>
<time>2026-07-14T09:35:44.000Z</time>
</trkpt>
<trkpt lat="56.899254" lon="8.361633">
<ele>23.562974</ele>
<time>2026-07-14T09:35:45.000Z</time>
</trkpt>
<trkpt lat="56.899307" lon="8.361597">
<ele>23.574898</ele>
<time>2026-07-14T09:35:46.000Z</time>
</trkpt>
<trkpt lat="56.899370" lon="8.361563">
<ele>23.588751</ele>
<time>2026-07-14T09:35:47.000Z</time>
</trkpt>
<trkpt lat="56.899433" lon="8.361529">
<ele>23.602604</ele>
<time>2026-07-14T09:35:48.000Z</time>
</trkpt>
<trkpt lat="56.899497" lon="8.361495">
<ele>23.616660</ele>
<time>2026-07-14T09:35:49.000Z</time>
</trkpt>
<trkpt lat="56.899550" lon="8.361456">
<ele>23.628708</ele>
<time>2026-07-14T09:35:50.000Z</time>
</trkpt>
<trkpt lat="56.899582" lon="8.361403">
<ele>23.637809</ele>
<time>2026-07-14T09:35:51.000Z</time>
</trkpt>
<trkpt lat="56.899624" lon="8.361347">
<ele>23.648768</ele>
<time>2026-07-14T09:35:52.000Z</time>
</trkpt>
<trkpt lat="56.899668" lon="8.361297">
<ele>23.659690</ele>
<time>2026-07-14T09:35:53.000Z</time>
</trkpt>
<trkpt lat="56.899709" lon="8.361251">
<ele>23.669832</ele>
<time>2026-07-14T09:35:54.000Z</time>
</trkpt>
<trkpt lat="56.899756" lon="8.361207">
<ele>23.680966</ele>
<time>2026-07-14T09:35:55.000Z</time>
</trkpt>
<trkpt lat="56.899803" lon="8.361169">
<ele>23.691803</ele>
<time>2026-07-14T09:35:56.000Z</time>
</trkpt>
<trkpt lat="56.899847" lon="8.361131">
<ele>23.702064</ele>
<time>2026-07-14T09:35:57.000Z</time>
</trkpt>
<trkpt lat="56.899890" lon="8.361094">
<ele>23.712086</ele>
<time>2026-07-14T09:35:58.000Z</time>
</trkpt>
<trkpt lat="56.899932" lon="8.361056">
<ele>23.721967</ele>
<time>2026-07-14T09:35:59.000Z</time>
</trkpt>
<trkpt lat="56.899974" lon="8.361016">
<ele>23.731952</ele>
<time>2026-07-14T09:36:00.000Z</time>
</trkpt>
<trkpt lat="56.900018" lon="8.360981">
<ele>23.742071</ele>
<time>2026-07-14T09:36:01.000Z</time>
</trkpt>
<trkpt lat="56.900061" lon="8.360947">
<ele>23.751950</ele>
<time>2026-07-14T09:36:02.000Z</time>
</trkpt>
<trkpt lat="56.900101" lon="8.360910">
<ele>23.761402</ele>
<time>2026-07-14T09:36:03.000Z</time>
</trkpt>
<trkpt lat="56.900142" lon="8.360867">
<ele>23.771368</ele>
<time>2026-07-14T09:36:04.000Z</time>
</trkpt>
<trkpt lat="56.900181" lon="8.360825">
<ele>23.780911</ele>
<time>2026-07-14T09:36:05.000Z</time>
</trkpt>
<trkpt lat="56.900223" lon="8.360787">
<ele>23.790793</ele>
<time>2026-07-14T09:36:06.000Z</time>
</trkpt>
<trkpt lat="56.900266" lon="8.360749">
<ele>23.800863</ele>
<time>2026-07-14T09:36:07.000Z</time>
</trkpt>
<trkpt lat="56.900309" lon="8.360709">
<ele>23.811036</ele>
<time>2026-07-14T09:36:08.000Z</time>
</trkpt>
<trkpt lat="56.900359" lon="8.360667">
<ele>23.822639</ele>
<time>2026-07-14T09:36:09.000Z</time>
</trkpt>
<trkpt lat="56.900405" lon="8.360626">
<ele>23.833430</ele>
<time>2026-07-14T09:36:10.000Z</time>
</trkpt>
<trkpt lat="56.900448" lon="8.360588">
<ele>23.843501</ele>
<time>2026-07-14T09:36:11.000Z</time>
</trkpt>
<trkpt lat="56.900491" lon="8.360549">
<ele>23.853622</ele>
<time>2026-07-14T09:36:12.000Z</time>
</trkpt>
<trkpt lat="56.900535" lon="8.360508">
<ele>23.864035</ele>
<time>2026-07-14T09:36:13.000Z</time>
</trkpt>
<trkpt lat="56.900578" lon="8.360468">
<ele>23.874208</ele>
<time>2026-07-14T09:36:14.000Z</time>
</trkpt>
<trkpt lat="56.900621" lon="8.360432">
<ele>23.879531</ele>
<time>2026-07-14T09:36:15.000Z</time>
</trkpt>
<trkpt lat="56.900666" lon="8.360400">
<ele>23.880005</ele>
<time>2026-07-14T09:36:16.000Z</time>
</trkpt>
<trkpt lat="56.900712" lon="8.360372">
<ele>23.880482</ele>
<time>2026-07-14T09:36:17.000Z</time>
</trkpt>
<trkpt lat="56.900760" lon="8.360350">
<ele>23.880968</ele>
<time>2026-07-14T09:36:18.000Z</time>
</trkpt>
<trkpt lat="56.900808" lon="8.360334">
<ele>23.881448</ele>
<time>2026-07-14T09:36:19.000Z</time>
</trkpt>
<trkpt lat="56.900853" lon="8.360324">
<ele>23.881893</ele>
<time>2026-07-14T09:36:20.000Z</time>
</trkpt>
<trkpt lat="56.900896" lon="8.360319">
<ele>23.882317</ele>
<time>2026-07-14T09:36:21.000Z</time>
</trkpt>
<trkpt lat="56.900942" lon="8.360317">
<ele>23.882769</ele>
<time>2026-07-14T09:36:22.000Z</time>
</trkpt>
<trkpt lat="56.900988" lon="8.360313">
<ele>23.883221</ele>
<time>2026-07-14T09:36:23.000Z</time>
</trkpt>
<trkpt lat="56.901034" lon="8.360306">
<ele>23.883675</ele>
<time>2026-07-14T09:36:24.000Z</time>
</trkpt>
<trkpt lat="56.901086" lon="8.360300">
<ele>23.884187</ele>
<time>2026-07-14T09:36:25.000Z</time>
</trkpt>
<trkpt lat="56.901137" lon="8.360297">
<ele>23.884689</ele>
<time>2026-07-14T09:36:26.000Z</time>
</trkpt>
<trkpt lat="56.901188" lon="8.360293">
<ele>23.885190</ele>
<time>2026-07-14T09:36:27.000Z</time>
</trkpt>
<trkpt lat="56.901239" lon="8.360289">
<ele>23.885692</ele>
<time>2026-07-14T09:36:28.000Z</time>
</trkpt>
<trkpt lat="56.901291" lon="8.360283">
<ele>23.886204</ele>
<time>2026-07-14T09:36:29.000Z</time>
</trkpt>
<trkpt lat="56.901345" lon="8.360279">
<ele>23.886735</ele>
<time>2026-07-14T09:36:30.000Z</time>
</trkpt>
<trkpt lat="56.901396" lon="8.360277">
<ele>23.887237</ele>
<time>2026-07-14T09:36:31.000Z</time>
</trkpt>
<trkpt lat="56.901445" lon="8.360274">
<ele>23.887719</ele>
<time>2026-07-14T09:36:32.000Z</time>
</trkpt>
<trkpt lat="56.901495" lon="8.360269">
<ele>23.888211</ele>
<time>2026-07-14T09:36:33.000Z</time>
</trkpt>
<trkpt lat="56.901547" lon="8.360263">
<ele>23.888723</ele>
<time>2026-07-14T09:36:34.000Z</time>
</trkpt>
<trkpt lat="56.901596" lon="8.360257">
<ele>23.889206</ele>
<time>2026-07-14T09:36:35.000Z</time>
</trkpt>
<trkpt lat="56.901645" lon="8.360251">
<ele>23.889688</ele>
<time>2026-07-14T09:36:36.000Z</time>
</trkpt>
<trkpt lat="56.901693" lon="8.360245">
<ele>23.890161</ele>
<time>2026-07-14T09:36:37.000Z</time>
</trkpt>
<trkpt lat="56.901742" lon="8.360240">
<ele>23.890643</ele>
<time>2026-07-14T09:36:38.000Z</time>
</trkpt>
<trkpt lat="56.901790" lon="8.360233">
<ele>23.891117</ele>
<time>2026-07-14T09:36:39.000Z</time>
</trkpt>
<trkpt lat="56.901838" lon="8.360226">
<ele>23.891590</ele>
<time>2026-07-14T09:36:40.000Z</time>
</trkpt>
<trkpt lat="56.901886" lon="8.360220">
<ele>23.892063</ele>
<time>2026-07-14T09:36:41.000Z</time>
</trkpt>
<trkpt lat="56.901934" lon="8.360212">
<ele>23.892537</ele>
<time>2026-07-14T09:36:42.000Z</time>
</trkpt>
<trkpt lat="56.901982" lon="8.360200">
<ele>23.893013</ele>
<time>2026-07-14T09:36:43.000Z</time>
</trkpt>
<trkpt lat="56.902031" lon="8.360183">
<ele>23.893503</ele>
<time>2026-07-14T09:36:44.000Z</time>
</trkpt>
<trkpt lat="56.902083" lon="8.360161">
<ele>23.894027</ele>
<time>2026-07-14T09:36:45.000Z</time>
</trkpt>
<trkpt lat="56.902132" lon="8.360136">
<ele>23.894527</ele>
<time>2026-07-14T09:36:46.000Z</time>
</trkpt>
<trkpt lat="56.902184" lon="8.360111">
<ele>23.895056</ele>
<time>2026-07-14T09:36:47.000Z</time>
</trkpt>
<trkpt lat="56.902236" lon="8.360081">
<ele>23.895592</ele>
<time>2026-07-14T09:36:48.000Z</time>
</trkpt>
<trkpt lat="56.902284" lon="8.360050">
<ele>23.896092</ele>
<time>2026-07-14T09:36:49.000Z</time>
</trkpt>
<trkpt lat="56.902331" lon="8.360021">
<ele>23.896579</ele>
<time>2026-07-14T09:36:50.000Z</time>
</trkpt>
<trkpt lat="56.902380" lon="8.359990">
<ele>23.894769</ele>
<time>2026-07-14T09:36:51.000Z</time>
</trkpt>
<trkpt lat="56.902432" lon="8.359960">
<ele>23.883721</ele>
<time>2026-07-14T09:36:52.000Z</time>
</trkpt>
<trkpt lat="56.902483" lon="8.359929">
<ele>23.872832</ele>
<time>2026-07-14T09:36:53.000Z</time>
</trkpt>
<trkpt lat="56.902529" lon="8.359898">
<ele>23.862899</ele>
<time>2026-07-14T09:36:54.000Z</time>
</trkpt>
<trkpt lat="56.902577" lon="8.359865">
<ele>23.852509</ele>
<time>2026-07-14T09:36:55.000Z</time>
</trkpt>
<trkpt lat="56.902632" lon="8.359828">
<ele>23.840635</ele>
<time>2026-07-14T09:36:56.000Z</time>
</trkpt>
<trkpt lat="56.902680" lon="8.359796">
<ele>23.830283</ele>
<time>2026-07-14T09:36:57.000Z</time>
</trkpt>
<trkpt lat="56.902725" lon="8.359767">
<ele>23.820616</ele>
<time>2026-07-14T09:36:58.000Z</time>
</trkpt>
<trkpt lat="56.902770" lon="8.359737">
<ele>23.810911</ele>
<time>2026-07-14T09:36:59.000Z</time>
</trkpt>
<trkpt lat="56.902816" lon="8.359705">
<ele>23.800940</ele>
<time>2026-07-14T09:37:00.000Z</time>
</trkpt>
<trkpt lat="56.902865" lon="8.359671">
<ele>23.790321</ele>
<time>2026-07-14T09:37:01.000Z</time>
</trkpt>
<trkpt lat="56.902915" lon="8.359638">
<ele>23.779551</ele>
<time>2026-07-14T09:37:02.000Z</time>
</trkpt>
<trkpt lat="56.902964" lon="8.359605">
<ele>23.768971</ele>
<time>2026-07-14T09:37:03.000Z</time>
</trkpt>
<trkpt lat="56.903012" lon="8.359571">
<ele>23.758542</ele>
<time>2026-07-14T09:37:04.000Z</time>
</trkpt>
<trkpt lat="56.903058" lon="8.359536">
<ele>23.748447</ele>
<time>2026-07-14T09:37:05.000Z</time>
</trkpt>
<trkpt lat="56.903099" lon="8.359510">
<ele>23.739655</ele>
<time>2026-07-14T09:37:06.000Z</time>
</trkpt>
<trkpt lat="56.903135" lon="8.359490">
<ele>23.732031</ele>
<time>2026-07-14T09:37:07.000Z</time>
</trkpt>
<trkpt lat="56.903170" lon="8.359470">
<ele>23.724601</ele>
<time>2026-07-14T09:37:08.000Z</time>
</trkpt>
<trkpt lat="56.903200" lon="8.359453">
<ele>23.718238</ele>
<time>2026-07-14T09:37:09.000Z</time>
</trkpt>
<trkpt lat="56.903226" lon="8.359440">
<ele>23.712776</ele>
<time>2026-07-14T09:37:10.000Z</time>
</trkpt>
<trkpt lat="56.903257" lon="8.359422">
<ele>23.706186</ele>
<time>2026-07-14T09:37:11.000Z</time>
</trkpt>
<trkpt lat="56.903289" lon="8.359402">
<ele>23.699334</ele>
<time>2026-07-14T09:37:12.000Z</time>
</trkpt>
<trkpt lat="56.903317" lon="8.359388">
<ele>23.693452</ele>
<time>2026-07-14T09:37:13.000Z</time>
</trkpt>
<trkpt lat="56.903345" lon="8.359374">
<ele>23.687570</ele>
<time>2026-07-14T09:37:14.000Z</time>
</trkpt>
<trkpt lat="56.903379" lon="8.359358">
<ele>23.680456</ele>
<time>2026-07-14T09:37:15.000Z</time>
</trkpt>
<trkpt lat="56.903411" lon="8.359344">
<ele>23.673789</ele>
<time>2026-07-14T09:37:16.000Z</time>
</trkpt>
<trkpt lat="56.903448" lon="8.359329">
<ele>23.666110</ele>
<time>2026-07-14T09:37:17.000Z</time>
</trkpt>
<trkpt lat="56.903486" lon="8.359315">
<ele>23.658255</ele>
<time>2026-07-14T09:37:18.000Z</time>
</trkpt>
<trkpt lat="56.903522" lon="8.359301">
<ele>23.650797</ele>
<time>2026-07-14T09:37:19.000Z</time>
</trkpt>
<trkpt lat="56.903562" lon="8.359288">
<ele>23.642564</ele>
<time>2026-07-14T09:37:20.000Z</time>
</trkpt>
<trkpt lat="56.903602" lon="8.359273">
<ele>23.634290</ele>
<time>2026-07-14T09:37:21.000Z</time>
</trkpt>
<trkpt lat="56.903641" lon="8.359253">
<ele>23.626083</ele>
<time>2026-07-14T09:37:22.000Z</time>
</trkpt>
<trkpt lat="56.903679" lon="8.359236">
<ele>23.618156</ele>
<time>2026-07-14T09:37:23.000Z</time>
</trkpt>
<trkpt lat="56.903719" lon="8.359223">
<ele>23.609923</ele>
<time>2026-07-14T09:37:24.000Z</time>
</trkpt>
<trkpt lat="56.903765" lon="8.359210">
<ele>23.600491</ele>
<time>2026-07-14T09:37:25.000Z</time>
</trkpt>
<trkpt lat="56.903817" lon="8.359193">
<ele>23.589787</ele>
<time>2026-07-14T09:37:26.000Z</time>
</trkpt>
<trkpt lat="56.903875" lon="8.359173">
<ele>23.577827</ele>
<time>2026-07-14T09:37:27.000Z</time>
</trkpt>
<trkpt lat="56.903932" lon="8.359156">
<ele>23.566124</ele>
<time>2026-07-14T09:37:28.000Z</time>
</trkpt>
<trkpt lat="56.903986" lon="8.359139">
<ele>23.555020</ele>
<time>2026-07-14T09:37:29.000Z</time>
</trkpt>
<trkpt lat="56.904039" lon="8.359124">
<ele>23.544153</ele>
<time>2026-07-14T09:37:30.000Z</time>
</trkpt>
<trkpt lat="56.904091" lon="8.359107">
<ele>23.533448</ele>
<time>2026-07-14T09:37:31.000Z</time>
</trkpt>
<trkpt lat="56.904142" lon="8.359086">
<ele>23.526832</ele>
<time>2026-07-14T09:37:32.000Z</time>
</trkpt>
<trkpt lat="56.904194" lon="8.359066">
<ele>23.520507</ele>
<time>2026-07-14T09:37:33.000Z</time>
</trkpt>
<trkpt lat="56.904249" lon="8.359049">
<ele>23.513867</ele>
<time>2026-07-14T09:37:34.000Z</time>
</trkpt>
<trkpt lat="56.904305" lon="8.359034">
<ele>23.507131</ele>
<time>2026-07-14T09:37:35.000Z</time>
</trkpt>
<trkpt lat="56.904361" lon="8.359018">
<ele>23.500384</ele>
<time>2026-07-14T09:37:36.000Z</time>
</trkpt>
<trkpt lat="56.904419" lon="8.359002">
<ele>23.493402</ele>
<time>2026-07-14T09:37:37.000Z</time>
</trkpt>
<trkpt lat="56.904474" lon="8.358988">
<ele>23.486792</ele>
<time>2026-07-14T09:37:38.000Z</time>
</trkpt>
<trkpt lat="56.904526" lon="8.358973">
<ele>23.480526</ele>
<time>2026-07-14T09:37:39.000Z</time>
</trkpt>
<trkpt lat="56.904578" lon="8.358951">
<ele>23.474174</ele>
<time>2026-07-14T09:37:40.000Z</time>
</trkpt>
<trkpt lat="56.904634" lon="8.358931">
<ele>23.467382</ele>
<time>2026-07-14T09:37:41.000Z</time>
</trkpt>
<trkpt lat="56.904689" lon="8.358916">
<ele>23.460763</ele>
<time>2026-07-14T09:37:42.000Z</time>
</trkpt>
<trkpt lat="56.904746" lon="8.358902">
<ele>23.453918</ele>
<time>2026-07-14T09:37:43.000Z</time>
</trkpt>
<trkpt lat="56.904806" lon="8.358885">
<ele>23.446691</ele>
<time>2026-07-14T09:37:44.000Z</time>
</trkpt>
<trkpt lat="56.904865" lon="8.358865">
<ele>23.439548</ele>
<time>2026-07-14T09:37:45.000Z</time>
</trkpt>
<trkpt lat="56.904921" lon="8.358846">
<ele>23.432769</ele>
<time>2026-07-14T09:37:46.000Z</time>
</trkpt>
<trkpt lat="56.904977" lon="8.358829">
<ele>23.426012</ele>
<time>2026-07-14T09:37:47.000Z</time>
</trkpt>
<trkpt lat="56.905032" lon="8.358810">
<ele>23.419350</ele>
<time>2026-07-14T09:37:48.000Z</time>
</trkpt>
<trkpt lat="56.905089" lon="8.358790">
<ele>23.412442</ele>
<time>2026-07-14T09:37:49.000Z</time>
</trkpt>
<trkpt lat="56.905149" lon="8.358771">
<ele>23.405194</ele>
<time>2026-07-14T09:37:50.000Z</time>
</trkpt>
<trkpt lat="56.905211" lon="8.358754">
<ele>23.397731</ele>
<time>2026-07-14T09:37:51.000Z</time>
</trkpt>
<trkpt lat="56.905271" lon="8.358736">
<ele>23.390494</ele>
<time>2026-07-14T09:37:52.000Z</time>
</trkpt>
<trkpt lat="56.905330" lon="8.358719">
<ele>23.383385</ele>
<time>2026-07-14T09:37:53.000Z</time>
</trkpt>
<trkpt lat="56.905389" lon="8.358703">
<ele>23.376285</ele>
<time>2026-07-14T09:37:54.000Z</time>
</trkpt>
<trkpt lat="56.905451" lon="8.358688">
<ele>23.368841</ele>
<time>2026-07-14T09:37:55.000Z</time>
</trkpt>
<trkpt lat="56.905508" lon="8.358677">
<ele>23.362019</ele>
<time>2026-07-14T09:37:56.000Z</time>
</trkpt>
<trkpt lat="56.905567" lon="8.358669">
<ele>23.354976</ele>
<time>2026-07-14T09:37:57.000Z</time>
</trkpt>
<trkpt lat="56.905627" lon="8.358661">
<ele>23.347816</ele>
<time>2026-07-14T09:37:58.000Z</time>
</trkpt>
<trkpt lat="56.905686" lon="8.358652">
<ele>23.340768</ele>
<time>2026-07-14T09:37:59.000Z</time>
</trkpt>
<trkpt lat="56.905743" lon="8.358642">
<ele>23.333952</ele>
<time>2026-07-14T09:38:00.000Z</time>
</trkpt>
<trkpt lat="56.905801" lon="8.358630">
<ele>23.327004</ele>
<time>2026-07-14T09:38:01.000Z</time>
</trkpt>
<trkpt lat="56.905858" lon="8.358619">
<ele>23.320182</ele>
<time>2026-07-14T09:38:02.000Z</time>
</trkpt>
<trkpt lat="56.905911" lon="8.358610">
<ele>23.313150</ele>
<time>2026-07-14T09:38:03.000Z</time>
</trkpt>
<trkpt lat="56.905967" lon="8.358601">
<ele>23.305433</ele>
<time>2026-07-14T09:38:04.000Z</time>
</trkpt>
<trkpt lat="56.906021" lon="8.358588">
<ele>23.297957</ele>
<time>2026-07-14T09:38:05.000Z</time>
</trkpt>
<trkpt lat="56.906075" lon="8.358574">
<ele>23.290471</ele>
<time>2026-07-14T09:38:06.000Z</time>
</trkpt>
<trkpt lat="56.906132" lon="8.358563">
<ele>23.282604</ele>
<time>2026-07-14T09:38:07.000Z</time>
</trkpt>
<trkpt lat="56.906185" lon="8.358552">
<ele>23.275282</ele>
<time>2026-07-14T09:38:08.000Z</time>
</trkpt>
<trkpt lat="56.906239" lon="8.358542">
<ele>23.267832</ele>
<time>2026-07-14T09:38:09.000Z</time>
</trkpt>
<trkpt lat="56.906290" lon="8.358532">
<ele>23.260791</ele>
<time>2026-07-14T09:38:10.000Z</time>
</trkpt>
<trkpt lat="56.906338" lon="8.358517">
<ele>23.254107</ele>
<time>2026-07-14T09:38:11.000Z</time>
</trkpt>
<trkpt lat="56.906387" lon="8.358502">
<ele>23.247288</ele>
<time>2026-07-14T09:38:12.000Z</time>
</trkpt>
<trkpt lat="56.906434" lon="8.358487">
<ele>23.240739</ele>
<time>2026-07-14T09:38:13.000Z</time>
</trkpt>
<trkpt lat="56.906479" lon="8.358472">
<ele>23.234461</ele>
<time>2026-07-14T09:38:14.000Z</time>
</trkpt>
<trkpt lat="56.906526" lon="8.358459">
<ele>23.227936</ele>
<time>2026-07-14T09:38:15.000Z</time>
</trkpt>
<trkpt lat="56.906577" lon="8.358453">
<ele>23.220921</ele>
<time>2026-07-14T09:38:16.000Z</time>
</trkpt>
<trkpt lat="56.906632" lon="8.358447">
<ele>23.213358</ele>
<time>2026-07-14T09:38:17.000Z</time>
</trkpt>
<trkpt lat="56.906684" lon="8.358439">
<ele>23.206196</ele>
<time>2026-07-14T09:38:18.000Z</time>
</trkpt>
<trkpt lat="56.906730" lon="8.358431">
<ele>23.199853</ele>
<time>2026-07-14T09:38:19.000Z</time>
</trkpt>
<trkpt lat="56.906776" lon="8.358421">
<ele>23.193494</ele>
<time>2026-07-14T09:38:20.000Z</time>
</trkpt>
<trkpt lat="56.906828" lon="8.358412">
<ele>23.186325</ele>
<time>2026-07-14T09:38:21.000Z</time>
</trkpt>
<trkpt lat="56.906879" lon="8.358408">
<ele>23.179318</ele>
<time>2026-07-14T09:38:22.000Z</time>
</trkpt>
<trkpt lat="56.906928" lon="8.358402">
<ele>23.172577</ele>
<time>2026-07-14T09:38:23.000Z</time>
</trkpt>
<trkpt lat="56.906975" lon="8.358394">
<ele>23.166098</ele>
<time>2026-07-14T09:38:24.000Z</time>
</trkpt>
<trkpt lat="56.907025" lon="8.358386">
<ele>23.159208</ele>
<time>2026-07-14T09:38:25.000Z</time>
</trkpt>
<trkpt lat="56.907079" lon="8.358380">
<ele>23.151782</ele>
<time>2026-07-14T09:38:26.000Z</time>
</trkpt>
<trkpt lat="56.907130" lon="8.358374">
<ele>23.144767</ele>
<time>2026-07-14T09:38:27.000Z</time>
</trkpt>
<trkpt lat="56.907180" lon="8.358371">
<ele>23.137900</ele>
<time>2026-07-14T09:38:28.000Z</time>
</trkpt>
<trkpt lat="56.907225" lon="8.358372">
<ele>23.131723</ele>
<time>2026-07-14T09:38:29.000Z</time>
</trkpt>
<trkpt lat="56.907270" lon="8.358377">
<ele>23.125535</ele>
<time>2026-07-14T09:38:30.000Z</time>
</trkpt>
<trkpt lat="56.907317" lon="8.358381">
<ele>23.119076</ele>
<time>2026-07-14T09:38:31.000Z</time>
</trkpt>
<trkpt lat="56.907363" lon="8.358378">
<ele>23.112758</ele>
<time>2026-07-14T09:38:32.000Z</time>
</trkpt>
<trkpt lat="56.907415" lon="8.358373">
<ele>23.105611</ele>
<time>2026-07-14T09:38:33.000Z</time>
</trkpt>
<trkpt lat="56.907470" lon="8.358373">
<ele>23.098061</ele>
<time>2026-07-14T09:38:34.000Z</time>
</trkpt>
<trkpt lat="56.907527" lon="8.358373">
<ele>23.090237</ele>
<time>2026-07-14T09:38:35.000Z</time>
</trkpt>
<trkpt lat="56.907584" lon="8.358373">
<ele>23.082413</ele>
<time>2026-07-14T09:38:36.000Z</time>
</trkpt>
<trkpt lat="56.907643" lon="8.358376">
<ele>23.074311</ele>
<time>2026-07-14T09:38:37.000Z</time>
</trkpt>
<trkpt lat="56.907706" lon="8.358376">
<ele>23.072449</ele>
<time>2026-07-14T09:38:38.000Z</time>
</trkpt>
<trkpt lat="56.907768" lon="8.358371">
<ele>23.073829</ele>
<time>2026-07-14T09:38:39.000Z</time>
</trkpt>
<trkpt lat="56.907823" lon="8.358370">
<ele>23.075053</ele>
<time>2026-07-14T09:38:40.000Z</time>
</trkpt>
<trkpt lat="56.907880" lon="8.358376">
<ele>23.076323</ele>
<time>2026-07-14T09:38:41.000Z</time>
</trkpt>
<trkpt lat="56.907938" lon="8.358383">
<ele>23.077616</ele>
<time>2026-07-14T09:38:42.000Z</time>
</trkpt>
<trkpt lat="56.907999" lon="8.358393">
<ele>23.078978</ele>
<time>2026-07-14T09:38:43.000Z</time>
</trkpt>
<trkpt lat="56.908058" lon="8.358404">
<ele>23.080297</ele>
<time>2026-07-14T09:38:44.000Z</time>
</trkpt>
<trkpt lat="56.908109" lon="8.358412">
<ele>23.081436</ele>
<time>2026-07-14T09:38:45.000Z</time>
</trkpt>
<trkpt lat="56.908159" lon="8.358419">
<ele>23.082551</ele>
<time>2026-07-14T09:38:46.000Z</time>
</trkpt>
<trkpt lat="56.908210" lon="8.358423">
<ele>23.083687</ele>
<time>2026-07-14T09:38:47.000Z</time>
</trkpt>
<trkpt lat="56.908261" lon="8.358430">
<ele>23.084825</ele>
<time>2026-07-14T09:38:48.000Z</time>
</trkpt>
<trkpt lat="56.908316" lon="8.358436">
<ele>23.086050</ele>
<time>2026-07-14T09:38:49.000Z</time>
</trkpt>
<trkpt lat="56.908374" lon="8.358443">
<ele>23.087343</ele>
<time>2026-07-14T09:38:50.000Z</time>
</trkpt>
<trkpt lat="56.908429" lon="8.358451">
<ele>23.088571</ele>
<time>2026-07-14T09:38:51.000Z</time>
</trkpt>
<trkpt lat="56.908482" lon="8.358455">
<ele>23.089750</ele>
<time>2026-07-14T09:38:52.000Z</time>
</trkpt>
<trkpt lat="56.908536" lon="8.358456">
<ele>23.090952</ele>
<time>2026-07-14T09:38:53.000Z</time>
</trkpt>
<trkpt lat="56.908591" lon="8.358459">
<ele>23.092176</ele>
<time>2026-07-14T09:38:54.000Z</time>
</trkpt>
<trkpt lat="56.908648" lon="8.358465">
<ele>23.093446</ele>
<time>2026-07-14T09:38:55.000Z</time>
</trkpt>
<trkpt lat="56.908702" lon="8.358471">
<ele>23.094649</ele>
<time>2026-07-14T09:38:56.000Z</time>
</trkpt>
<trkpt lat="56.908759" lon="8.358477">
<ele>23.095919</ele>
<time>2026-07-14T09:38:57.000Z</time>
</trkpt>
<trkpt lat="56.908818" lon="8.358486">
<ele>23.097236</ele>
<time>2026-07-14T09:38:58.000Z</time>
</trkpt>
<trkpt lat="56.908875" lon="8.358492">
<ele>23.098506</ele>
<time>2026-07-14T09:38:59.000Z</time>
</trkpt>
<trkpt lat="56.908936" lon="8.358497">
<ele>23.099864</ele>
<time>2026-07-14T09:39:00.000Z</time>
</trkpt>
<trkpt lat="56.908995" lon="8.358502">
<ele>23.101178</ele>
<time>2026-07-14T09:39:01.000Z</time>
</trkpt>
<trkpt lat="56.909054" lon="8.358509">
<ele>23.102493</ele>
<time>2026-07-14T09:39:02.000Z</time>
</trkpt>
<trkpt lat="56.909111" lon="8.358514">
<ele>23.103763</ele>
<time>2026-07-14T09:39:03.000Z</time>
</trkpt>
<trkpt lat="56.909167" lon="8.358518">
<ele>23.105009</ele>
<time>2026-07-14T09:39:04.000Z</time>
</trkpt>
<trkpt lat="56.909220" lon="8.358523">
<ele>23.106190</ele>
<time>2026-07-14T09:39:05.000Z</time>
</trkpt>
<trkpt lat="56.909272" lon="8.358530">
<ele>23.107350</ele>
<time>2026-07-14T09:39:06.000Z</time>
</trkpt>
<trkpt lat="56.909323" lon="8.358541">
<ele>23.108492</ele>
<time>2026-07-14T09:39:07.000Z</time>
</trkpt>
<trkpt lat="56.909375" lon="8.358552">
<ele>23.109657</ele>
<time>2026-07-14T09:39:08.000Z</time>
</trkpt>
<trkpt lat="56.909430" lon="8.358558">
<ele>23.110882</ele>
<time>2026-07-14T09:39:09.000Z</time>
</trkpt>
<trkpt lat="56.909490" lon="8.358557">
<ele>23.107276</ele>
<time>2026-07-14T09:39:10.000Z</time>
</trkpt>
<trkpt lat="56.909548" lon="8.358555">
<ele>23.099515</ele>
<time>2026-07-14T09:39:11.000Z</time>
</trkpt>
<trkpt lat="56.909606" lon="8.358556">
<ele>23.091756</ele>
<time>2026-07-14T09:39:12.000Z</time>
</trkpt>
<trkpt lat="56.909658" lon="8.358553">
<ele>23.084796</ele>
<time>2026-07-14T09:39:13.000Z</time>
</trkpt>
<trkpt lat="56.909710" lon="8.358548">
<ele>23.077830</ele>
<time>2026-07-14T09:39:14.000Z</time>
</trkpt>
<trkpt lat="56.909764" lon="8.358547">
<ele>23.070606</ele>
<time>2026-07-14T09:39:15.000Z</time>
</trkpt>
<trkpt lat="56.909819" lon="8.358548">
<ele>23.063248</ele>
<time>2026-07-14T09:39:16.000Z</time>
</trkpt>
<trkpt lat="56.909875" lon="8.358550">
<ele>23.055755</ele>
<time>2026-07-14T09:39:17.000Z</time>
</trkpt>
<trkpt lat="56.909928" lon="8.358553">
<ele>23.048661</ele>
<time>2026-07-14T09:39:18.000Z</time>
</trkpt>
<trkpt lat="56.909981" lon="8.358554">
<ele>23.041570</ele>
<time>2026-07-14T09:39:19.000Z</time>
</trkpt>
<trkpt lat="56.910034" lon="8.358553">
<ele>23.034480</ele>
<time>2026-07-14T09:39:20.000Z</time>
</trkpt>
<trkpt lat="56.910088" lon="8.358553">
<ele>23.027256</ele>
<time>2026-07-14T09:39:21.000Z</time>
</trkpt>
<trkpt lat="56.910143" lon="8.358554">
<ele>23.019898</ele>
<time>2026-07-14T09:39:22.000Z</time>
</trkpt>
<trkpt lat="56.910201" lon="8.358558">
<ele>23.012133</ele>
<time>2026-07-14T09:39:23.000Z</time>
</trkpt>
<trkpt lat="56.910259" lon="8.358561">
<ele>23.004371</ele>
<time>2026-07-14T09:39:24.000Z</time>
</trkpt>
<trkpt lat="56.910314" lon="8.358565">
<ele>22.997007</ele>
<time>2026-07-14T09:39:25.000Z</time>
</trkpt>
<trkpt lat="56.910367" lon="8.358573">
<ele>22.989893</ele>
<time>2026-07-14T09:39:26.000Z</time>
</trkpt>
<trkpt lat="56.910423" lon="8.358587">
<ele>22.982332</ele>
<time>2026-07-14T09:39:27.000Z</time>
</trkpt>
<trkpt lat="56.910479" lon="8.358599">
<ele>22.974790</ele>
<time>2026-07-14T09:39:28.000Z</time>
</trkpt>
<trkpt lat="56.910536" lon="8.358606">
<ele>22.967147</ele>
<time>2026-07-14T09:39:29.000Z</time>
</trkpt>
<trkpt lat="56.910593" lon="8.358610">
<ele>22.959516</ele>
<time>2026-07-14T09:39:30.000Z</time>
</trkpt>
<trkpt lat="56.910651" lon="8.358614">
<ele>22.951752</ele>
<time>2026-07-14T09:39:31.000Z</time>
</trkpt>
<trkpt lat="56.910706" lon="8.358620">
<ele>22.944381</ele>
<time>2026-07-14T09:39:32.000Z</time>
</trkpt>
<trkpt lat="56.910760" lon="8.358625">
<ele>22.937148</ele>
<time>2026-07-14T09:39:33.000Z</time>
</trkpt>
<trkpt lat="56.910815" lon="8.358628">
<ele>22.929787</ele>
<time>2026-07-14T09:39:34.000Z</time>
</trkpt>
<trkpt lat="56.910870" lon="8.358633">
<ele>22.922420</ele>
<time>2026-07-14T09:39:35.000Z</time>
</trkpt>
<trkpt lat="56.910923" lon="8.358638">
<ele>22.915320</ele>
<time>2026-07-14T09:39:36.000Z</time>
</trkpt>
<trkpt lat="56.910977" lon="8.358645">
<ele>22.908078</ele>
<time>2026-07-14T09:39:37.000Z</time>
</trkpt>
<trkpt lat="56.911031" lon="8.358650">
<ele>22.900845</ele>
<time>2026-07-14T09:39:38.000Z</time>
</trkpt>
<trkpt lat="56.911084" lon="8.358655">
<ele>22.893745</ele>
<time>2026-07-14T09:39:39.000Z</time>
</trkpt>
<trkpt lat="56.911138" lon="8.358658">
<ele>22.886518</ele>
<time>2026-07-14T09:39:40.000Z</time>
</trkpt>
<trkpt lat="56.911193" lon="8.358662">
<ele>22.879155</ele>
<time>2026-07-14T09:39:41.000Z</time>
</trkpt>
<trkpt lat="56.911247" lon="8.358667">
<ele>22.871921</ele>
<time>2026-07-14T09:39:42.000Z</time>
</trkpt>
<trkpt lat="56.911298" lon="8.358673">
<ele>22.872543</ele>
<time>2026-07-14T09:39:43.000Z</time>
</trkpt>
<trkpt lat="56.911351" lon="8.358680">
<ele>22.874560</ele>
<time>2026-07-14T09:39:44.000Z</time>
</trkpt>
<trkpt lat="56.911404" lon="8.358687">
<ele>22.876577</ele>
<time>2026-07-14T09:39:45.000Z</time>
</trkpt>
<trkpt lat="56.911457" lon="8.358694">
<ele>22.878593</ele>
<time>2026-07-14T09:39:46.000Z</time>
</trkpt>
<trkpt lat="56.911506" lon="8.358700">
<ele>22.880457</ele>
<time>2026-07-14T09:39:47.000Z</time>
</trkpt>
<trkpt lat="56.911560" lon="8.358706">
<ele>22.882510</ele>
<time>2026-07-14T09:39:48.000Z</time>
</trkpt>
<trkpt lat="56.911623" lon="8.358714">
<ele>22.884907</ele>
<time>2026-07-14T09:39:49.000Z</time>
</trkpt>
<trkpt lat="56.911679" lon="8.358719">
<ele>22.887035</ele>
<time>2026-07-14T09:39:50.000Z</time>
</trkpt>
<trkpt lat="56.911732" lon="8.358724">
<ele>22.889049</ele>
<time>2026-07-14T09:39:51.000Z</time>
</trkpt>
<trkpt lat="56.911786" lon="8.358731">
<ele>22.891104</ele>
<time>2026-07-14T09:39:52.000Z</time>
</trkpt>
<trkpt lat="56.911842" lon="8.358737">
<ele>22.893233</ele>
<time>2026-07-14T09:39:53.000Z</time>
</trkpt>
<trkpt lat="56.911896" lon="8.358742">
<ele>22.895285</ele>
<time>2026-07-14T09:39:54.000Z</time>
</trkpt>
<trkpt lat="56.911950" lon="8.358748">
<ele>22.897338</ele>
<time>2026-07-14T09:39:55.000Z</time>
</trkpt>
<trkpt lat="56.912012" lon="8.358756">
<ele>22.899697</ele>
<time>2026-07-14T09:39:56.000Z</time>
</trkpt>
<trkpt lat="56.912068" lon="8.358764">
<ele>22.901829</ele>
<time>2026-07-14T09:39:57.000Z</time>
</trkpt>
<trkpt lat="56.912123" lon="8.358774">
<ele>22.903926</ele>
<time>2026-07-14T09:39:58.000Z</time>
</trkpt>
<trkpt lat="56.912179" lon="8.358781">
<ele>22.906057</ele>
<time>2026-07-14T09:39:59.000Z</time>
</trkpt>
<trkpt lat="56.912234" lon="8.358791">
<ele>22.908154</ele>
<time>2026-07-14T09:40:00.000Z</time>
</trkpt>
<trkpt lat="56.912289" lon="8.358800">
<ele>22.910250</ele>
<time>2026-07-14T09:40:01.000Z</time>
</trkpt>
<trkpt lat="56.912343" lon="8.358807">
<ele>22.912305</ele>
<time>2026-07-14T09:40:02.000Z</time>
</trkpt>
<trkpt lat="56.912397" lon="8.358812">
<ele>22.914357</ele>
<time>2026-07-14T09:40:03.000Z</time>
</trkpt>
<trkpt lat="56.912452" lon="8.358816">
<ele>22.916446</ele>
<time>2026-07-14T09:40:04.000Z</time>
</trkpt>
<trkpt lat="56.912508" lon="8.358820">
<ele>22.918573</ele>
<time>2026-07-14T09:40:05.000Z</time>
</trkpt>
<trkpt lat="56.912564" lon="8.358823">
<ele>22.920699</ele>
<time>2026-07-14T09:40:06.000Z</time>
</trkpt>
<trkpt lat="56.912616" lon="8.358827">
<ele>22.922674</ele>
<time>2026-07-14T09:40:07.000Z</time>
</trkpt>
<trkpt lat="56.912669" lon="8.358829">
<ele>22.924686</ele>
<time>2026-07-14T09:40:08.000Z</time>
</trkpt>
<trkpt lat="56.912724" lon="8.358832">
<ele>22.926775</ele>
<time>2026-07-14T09:40:09.000Z</time>
</trkpt>
<trkpt lat="56.912778" lon="8.358836">
<ele>22.928826</ele>
<time>2026-07-14T09:40:10.000Z</time>
</trkpt>
<trkpt lat="56.912833" lon="8.358840">
<ele>22.930915</ele>
<time>2026-07-14T09:40:11.000Z</time>
</trkpt>
<trkpt lat="56.912888" lon="8.358843">
<ele>22.933003</ele>
<time>2026-07-14T09:40:12.000Z</time>
</trkpt>
<trkpt lat="56.912942" lon="8.358847">
<ele>22.935054</ele>
<time>2026-07-14T09:40:13.000Z</time>
</trkpt>
<trkpt lat="56.912997" lon="8.358850">
<ele>22.937143</ele>
<time>2026-07-14T09:40:14.000Z</time>
</trkpt>
<trkpt lat="56.913050" lon="8.358853">
<ele>22.939155</ele>
<time>2026-07-14T09:40:15.000Z</time>
</trkpt>
<trkpt lat="56.913103" lon="8.358857">
<ele>22.956830</ele>
<time>2026-07-14T09:40:16.000Z</time>
</trkpt>
<trkpt lat="56.913156" lon="8.358863">
<ele>22.974551</ele>
<time>2026-07-14T09:40:17.000Z</time>
</trkpt>
<trkpt lat="56.913208" lon="8.358868">
<ele>22.991928</ele>
<time>2026-07-14T09:40:18.000Z</time>
</trkpt>
<trkpt lat="56.913259" lon="8.358871">
<ele>23.008956</ele>
<time>2026-07-14T09:40:19.000Z</time>
</trkpt>
<trkpt lat="56.913310" lon="8.358875">
<ele>23.025991</ele>
<time>2026-07-14T09:40:20.000Z</time>
</trkpt>
<trkpt lat="56.913360" lon="8.358878">
<ele>23.042685</ele>
<time>2026-07-14T09:40:21.000Z</time>
</trkpt>
<trkpt lat="56.913410" lon="8.358882">
<ele>23.059387</ele>
<time>2026-07-14T09:40:22.000Z</time>
</trkpt>
<trkpt lat="56.913462" lon="8.358884">
<ele>23.076743</ele>
<time>2026-07-14T09:40:23.000Z</time>
</trkpt>
<trkpt lat="56.913513" lon="8.358886">
<ele>23.093767</ele>
<time>2026-07-14T09:40:24.000Z</time>
</trkpt>
<trkpt lat="56.913565" lon="8.358888">
<ele>23.111123</ele>
<time>2026-07-14T09:40:25.000Z</time>
</trkpt>
<trkpt lat="56.913615" lon="8.358890">
<ele>23.127813</ele>
<time>2026-07-14T09:40:26.000Z</time>
</trkpt>
<trkpt lat="56.913667" lon="8.358891">
<ele>23.145167</ele>
<time>2026-07-14T09:40:27.000Z</time>
</trkpt>
<trkpt lat="56.913719" lon="8.358890">
<ele>23.162521</ele>
<time>2026-07-14T09:40:28.000Z</time>
</trkpt>
<trkpt lat="56.913774" lon="8.358890">
<ele>23.180875</ele>
<time>2026-07-14T09:40:29.000Z</time>
</trkpt>
<trkpt lat="56.913828" lon="8.358890">
<ele>23.198895</ele>
<time>2026-07-14T09:40:30.000Z</time>
</trkpt>
<trkpt lat="56.913881" lon="8.358891">
<ele>23.216583</ele>
<time>2026-07-14T09:40:31.000Z</time>
</trkpt>
<trkpt lat="56.913938" lon="8.358890">
<ele>23.235605</ele>
<time>2026-07-14T09:40:32.000Z</time>
</trkpt>
<trkpt lat="56.913994" lon="8.358892">
<ele>23.254297</ele>
<time>2026-07-14T09:40:33.000Z</time>
</trkpt>
<trkpt lat="56.914046" lon="8.358894">
<ele>23.271654</ele>
<time>2026-07-14T09:40:34.000Z</time>
</trkpt>
<trkpt lat="56.914102" lon="8.358896">
<ele>23.290345</ele>
<time>2026-07-14T09:40:35.000Z</time>
</trkpt>
<trkpt lat="56.914155" lon="8.358898">
<ele>23.308036</ele>
<time>2026-07-14T09:40:36.000Z</time>
</trkpt>
<trkpt lat="56.914205" lon="8.358901">
<ele>23.324730</ele>
<time>2026-07-14T09:40:37.000Z</time>
</trkpt>
<trkpt lat="56.914259" lon="8.358905">
<ele>23.342765</ele>
<time>2026-07-14T09:40:38.000Z</time>
</trkpt>
<trkpt lat="56.914311" lon="8.358908">
<ele>23.360127</ele>
<time>2026-07-14T09:40:39.000Z</time>
</trkpt>
<trkpt lat="56.914362" lon="8.358912">
<ele>23.377162</ele>
<time>2026-07-14T09:40:40.000Z</time>
</trkpt>
<trkpt lat="56.914413" lon="8.358918">
<ele>23.394216</ele>
<time>2026-07-14T09:40:41.000Z</time>
</trkpt>
<trkpt lat="56.914467" lon="8.358921">
<ele>23.412245</ele>
<time>2026-07-14T09:40:42.000Z</time>
</trkpt>
<trkpt lat="56.914519" lon="8.358922">
<ele>23.429599</ele>
<time>2026-07-14T09:40:43.000Z</time>
</trkpt>
<trkpt lat="56.914568" lon="8.358923">
<ele>23.445952</ele>
<time>2026-07-14T09:40:44.000Z</time>
</trkpt>
<trkpt lat="56.914619" lon="8.358922">
<ele>23.462972</ele>
<time>2026-07-14T09:40:45.000Z</time>
</trkpt>
<trkpt lat="56.914672" lon="8.358915">
<ele>23.480704</ele>
<time>2026-07-14T09:40:46.000Z</time>
</trkpt>
<trkpt lat="56.914726" lon="8.358904">
<ele>23.498836</ele>
<time>2026-07-14T09:40:47.000Z</time>
</trkpt>
<trkpt lat="56.914779" lon="8.358894">
<ele>23.516616</ele>
<time>2026-07-14T09:40:48.000Z</time>
</trkpt>
<trkpt lat="56.914833" lon="8.358880">
<ele>23.534816</ele>
<time>2026-07-14T09:40:49.000Z</time>
</trkpt>
<trkpt lat="56.914887" lon="8.358860">
<ele>23.539513</ele>
<time>2026-07-14T09:40:50.000Z</time>
</trkpt>
<trkpt lat="56.914940" lon="8.358835">
<ele>23.539680</ele>
<time>2026-07-14T09:40:51.000Z</time>
</trkpt>
<trkpt lat="56.914993" lon="8.358808">
<ele>23.539848</ele>
<time>2026-07-14T09:40:52.000Z</time>
</trkpt>
<trkpt lat="56.915046" lon="8.358781">
<ele>23.540016</ele>
<time>2026-07-14T09:40:53.000Z</time>
</trkpt>
<trkpt lat="56.915099" lon="8.358757">
<ele>23.540182</ele>
<time>2026-07-14T09:40:54.000Z</time>
</trkpt>
<trkpt lat="56.915153" lon="8.358734">
<ele>23.540351</ele>
<time>2026-07-14T09:40:55.000Z</time>
</trkpt>
<trkpt lat="56.915207" lon="8.358711">
<ele>23.540521</ele>
<time>2026-07-14T09:40:56.000Z</time>
</trkpt>
<trkpt lat="56.915259" lon="8.358686">
<ele>23.540685</ele>
<time>2026-07-14T09:40:57.000Z</time>
</trkpt>
<trkpt lat="56.915312" lon="8.358659">
<ele>23.540853</ele>
<time>2026-07-14T09:40:58.000Z</time>
</trkpt>
<trkpt lat="56.915367" lon="8.358632">
<ele>23.541026</ele>
<time>2026-07-14T09:40:59.000Z</time>
</trkpt>
<trkpt lat="56.915418" lon="8.358608">
<ele>23.541187</ele>
<time>2026-07-14T09:41:00.000Z</time>
</trkpt>
<trkpt lat="56.915469" lon="8.358587">
<ele>23.541347</ele>
<time>2026-07-14T09:41:01.000Z</time>
</trkpt>
<trkpt lat="56.915522" lon="8.358567">
<ele>23.541512</ele>
<time>2026-07-14T09:41:02.000Z</time>
</trkpt>
<trkpt lat="56.915574" lon="8.358548">
<ele>23.541673</ele>
<time>2026-07-14T09:41:03.000Z</time>
</trkpt>
<trkpt lat="56.915626" lon="8.358529">
<ele>23.541835</ele>
<time>2026-07-14T09:41:04.000Z</time>
</trkpt>
<trkpt lat="56.915678" lon="8.358509">
<ele>23.541997</ele>
<time>2026-07-14T09:41:05.000Z</time>
</trkpt>
<trkpt lat="56.915729" lon="8.358490">
<ele>23.542156</ele>
<time>2026-07-14T09:41:06.000Z</time>
</trkpt>
<trkpt lat="56.915780" lon="8.358474">
<ele>23.542314</ele>
<time>2026-07-14T09:41:07.000Z</time>
</trkpt>
<trkpt lat="56.915832" lon="8.358465">
<ele>23.542474</ele>
<time>2026-07-14T09:41:08.000Z</time>
</trkpt>
<trkpt lat="56.915884" lon="8.358459">
<ele>23.542633</ele>
<time>2026-07-14T09:41:09.000Z</time>
</trkpt>
<trkpt lat="56.915933" lon="8.358460">
<ele>23.542782</ele>
<time>2026-07-14T09:41:10.000Z</time>
</trkpt>
<trkpt lat="56.915982" lon="8.358470">
<ele>23.542933</ele>
<time>2026-07-14T09:41:11.000Z</time>
</trkpt>
<trkpt lat="56.916031" lon="8.358486">
<ele>23.543084</ele>
<time>2026-07-14T09:41:12.000Z</time>
</trkpt>
<trkpt lat="56.916080" lon="8.358508">
<ele>23.543238</ele>
<time>2026-07-14T09:41:13.000Z</time>
</trkpt>
<trkpt lat="56.916128" lon="8.358535">
<ele>23.543392</ele>
<time>2026-07-14T09:41:14.000Z</time>
</trkpt>
<trkpt lat="56.916176" lon="8.358566">
<ele>23.543547</ele>
<time>2026-07-14T09:41:15.000Z</time>
</trkpt>
<trkpt lat="56.916222" lon="8.358598">
<ele>23.543697</ele>
<time>2026-07-14T09:41:16.000Z</time>
</trkpt>
<trkpt lat="56.916270" lon="8.358634">
<ele>23.543855</ele>
<time>2026-07-14T09:41:17.000Z</time>
</trkpt>
<trkpt lat="56.916317" lon="8.358668">
<ele>23.544010</ele>
<time>2026-07-14T09:41:18.000Z</time>
</trkpt>
<trkpt lat="56.916363" lon="8.358701">
<ele>23.544160</ele>
<time>2026-07-14T09:41:19.000Z</time>
</trkpt>
<trkpt lat="56.916408" lon="8.358734">
<ele>23.544308</ele>
<time>2026-07-14T09:41:20.000Z</time>
</trkpt>
<trkpt lat="56.916452" lon="8.358765">
<ele>23.544452</ele>
<time>2026-07-14T09:41:21.000Z</time>
</trkpt>
<trkpt lat="56.916494" lon="8.358794">
<ele>23.544589</ele>
<time>2026-07-14T09:41:22.000Z</time>
</trkpt>
<trkpt lat="56.916538" lon="8.358823">
<ele>23.544732</ele>
<time>2026-07-14T09:41:23.000Z</time>
</trkpt>
<trkpt lat="56.916582" lon="8.358852">
<ele>23.544874</ele>
<time>2026-07-14T09:41:24.000Z</time>
</trkpt>
<trkpt lat="56.916624" lon="8.358881">
<ele>23.562542</ele>
<time>2026-07-14T09:41:25.000Z</time>
</trkpt>
<trkpt lat="56.916666" lon="8.358911">
<ele>23.580406</ele>
<time>2026-07-14T09:41:26.000Z</time>
</trkpt>
<trkpt lat="56.916708" lon="8.358941">
<ele>23.598270</ele>
<time>2026-07-14T09:41:27.000Z</time>
</trkpt>
<trkpt lat="56.916754" lon="8.358972">
<ele>23.617692</ele>
<time>2026-07-14T09:41:28.000Z</time>
</trkpt>
<trkpt lat="56.916799" lon="8.359005">
<ele>23.636900</ele>
<time>2026-07-14T09:41:29.000Z</time>
</trkpt>
<trkpt lat="56.916843" lon="8.359037">
<ele>23.655660</ele>
<time>2026-07-14T09:41:30.000Z</time>
</trkpt>
<trkpt lat="56.916889" lon="8.359067">
<ele>23.675009</ele>
<time>2026-07-14T09:41:31.000Z</time>
</trkpt>
<trkpt lat="56.916934" lon="8.359100">
<ele>23.694217</ele>
<time>2026-07-14T09:41:32.000Z</time>
</trkpt>
<trkpt lat="56.916977" lon="8.359129">
<ele>23.712374</ele>
<time>2026-07-14T09:41:33.000Z</time>
</trkpt>
<trkpt lat="56.917019" lon="8.359156">
<ele>23.730013</ele>
<time>2026-07-14T09:41:34.000Z</time>
</trkpt>
<trkpt lat="56.917063" lon="8.359182">
<ele>23.748333</ele>
<time>2026-07-14T09:41:35.000Z</time>
</trkpt>
<trkpt lat="56.917103" lon="8.359206">
<ele>23.765013</ele>
<time>2026-07-14T09:41:36.000Z</time>
</trkpt>
<trkpt lat="56.917144" lon="8.359233">
<ele>23.782277</ele>
<time>2026-07-14T09:41:37.000Z</time>
</trkpt>
<trkpt lat="56.917192" lon="8.359265">
<ele>23.802519</ele>
<time>2026-07-14T09:41:38.000Z</time>
</trkpt>
<trkpt lat="56.917238" lon="8.359294">
<ele>23.821796</ele>
<time>2026-07-14T09:41:39.000Z</time>
</trkpt>
<trkpt lat="56.917283" lon="8.359328">
<ele>23.841086</ele>
<time>2026-07-14T09:41:40.000Z</time>
</trkpt>
<trkpt lat="56.917331" lon="8.359365">
<ele>23.861722</ele>
<time>2026-07-14T09:41:41.000Z</time>
</trkpt>
<trkpt lat="56.917379" lon="8.359399">
<ele>23.882115</ele>
<time>2026-07-14T09:41:42.000Z</time>
</trkpt>
<trkpt lat="56.917425" lon="8.359431">
<ele>23.901614</ele>
<time>2026-07-14T09:41:43.000Z</time>
</trkpt>
<trkpt lat="56.917470" lon="8.359462">
<ele>23.920665</ele>
<time>2026-07-14T09:41:44.000Z</time>
</trkpt>
<trkpt lat="56.917516" lon="8.359494">
<ele>23.940163</ele>
<time>2026-07-14T09:41:45.000Z</time>
</trkpt>
<trkpt lat="56.917562" lon="8.359526">
<ele>23.959662</ele>
<time>2026-07-14T09:41:46.000Z</time>
</trkpt>
<trkpt lat="56.917608" lon="8.359559">
<ele>23.979238</ele>
<time>2026-07-14T09:41:47.000Z</time>
</trkpt>
<trkpt lat="56.917651" lon="8.359590">
<ele>23.997549</ele>
<time>2026-07-14T09:41:48.000Z</time>
</trkpt>
<trkpt lat="56.917693" lon="8.359623">
<ele>24.015659</ele>
<time>2026-07-14T09:41:49.000Z</time>
</trkpt>
<trkpt lat="56.917737" lon="8.359657">
<ele>24.034582</ele>
<time>2026-07-14T09:41:50.000Z</time>
</trkpt>
<trkpt lat="56.917781" lon="8.359685">
<ele>24.053040</ele>
<time>2026-07-14T09:41:51.000Z</time>
</trkpt>
<trkpt lat="56.917820" lon="8.359707">
<ele>24.069211</ele>
<time>2026-07-14T09:41:52.000Z</time>
</trkpt>
<trkpt lat="56.917860" lon="8.359731">
<ele>24.085890</ele>
<time>2026-07-14T09:41:53.000Z</time>
</trkpt>
<trkpt lat="56.917907" lon="8.359761">
<ele>24.105613</ele>
<time>2026-07-14T09:41:54.000Z</time>
</trkpt>
<trkpt lat="56.917949" lon="8.359793">
<ele>24.123638</ele>
<time>2026-07-14T09:41:55.000Z</time>
</trkpt>
<trkpt lat="56.917993" lon="8.359827">
<ele>24.142562</ele>
<time>2026-07-14T09:41:56.000Z</time>
</trkpt>
<trkpt lat="56.918037" lon="8.359859">
<ele>24.161321</ele>
<time>2026-07-14T09:41:57.000Z</time>
</trkpt>
<trkpt lat="56.918081" lon="8.359890">
<ele>24.180002</ele>
<time>2026-07-14T09:41:58.000Z</time>
</trkpt>
<trkpt lat="56.918124" lon="8.359920">
<ele>24.198236</ele>
<time>2026-07-14T09:41:59.000Z</time>
</trkpt>
<trkpt lat="56.918166" lon="8.359950">
<ele>24.216099</ele>
<time>2026-07-14T09:42:00.000Z</time>
</trkpt>
<trkpt lat="56.918207" lon="8.359976">
<ele>24.233292</ele>
<time>2026-07-14T09:42:01.000Z</time>
</trkpt>
<trkpt lat="56.918250" lon="8.360001">
<ele>24.251169</ele>
<time>2026-07-14T09:42:02.000Z</time>
</trkpt>
<trkpt lat="56.918292" lon="8.360026">
<ele>24.275120</ele>
<time>2026-07-14T09:42:03.000Z</time>
</trkpt>
<trkpt lat="56.918336" lon="8.360055">
<ele>24.304476</ele>
<time>2026-07-14T09:42:04.000Z</time>
</trkpt>
<trkpt lat="56.918380" lon="8.360086">
<ele>24.334070</ele>
<time>2026-07-14T09:42:05.000Z</time>
</trkpt>
<trkpt lat="56.918422" lon="8.360116">
<ele>24.362370</ele>
<time>2026-07-14T09:42:06.000Z</time>
</trkpt>
<trkpt lat="56.918466" lon="8.360147">
<ele>24.391965</ele>
<time>2026-07-14T09:42:07.000Z</time>
</trkpt>
<trkpt lat="56.918512" lon="8.360180">
<ele>24.422978</ele>
<time>2026-07-14T09:42:08.000Z</time>
</trkpt>
<trkpt lat="56.918554" lon="8.360213">
<ele>24.451667</ele>
<time>2026-07-14T09:42:09.000Z</time>
</trkpt>
<trkpt lat="56.918596" lon="8.360246">
<ele>24.480356</ele>
<time>2026-07-14T09:42:10.000Z</time>
</trkpt>
<trkpt lat="56.918639" lon="8.360277">
<ele>24.509366</ele>
<time>2026-07-14T09:42:11.000Z</time>
</trkpt>
<trkpt lat="56.918680" lon="8.360304">
<ele>24.536717</ele>
<time>2026-07-14T09:42:12.000Z</time>
</trkpt>
<trkpt lat="56.918723" lon="8.360335">
<ele>24.565726</ele>
<time>2026-07-14T09:42:13.000Z</time>
</trkpt>
<trkpt lat="56.918768" lon="8.360367">
<ele>24.596030</ele>
<time>2026-07-14T09:42:14.000Z</time>
</trkpt>
<trkpt lat="56.918811" lon="8.360398">
<ele>24.625039</ele>
<time>2026-07-14T09:42:15.000Z</time>
</trkpt>
<trkpt lat="56.918848" lon="8.360425">
<ele>24.650042</ele>
<time>2026-07-14T09:42:16.000Z</time>
</trkpt>
<trkpt lat="56.918886" lon="8.360449">
<ele>24.675275</ele>
<time>2026-07-14T09:42:17.000Z</time>
</trkpt>
<trkpt lat="56.918927" lon="8.360475">
<ele>24.702513</ele>
<time>2026-07-14T09:42:18.000Z</time>
</trkpt>
<trkpt lat="56.918966" lon="8.360502">
<ele>24.728686</ele>
<time>2026-07-14T09:42:19.000Z</time>
</trkpt>
<trkpt lat="56.919005" lon="8.360529">
<ele>24.754859</ele>
<time>2026-07-14T09:42:20.000Z</time>
</trkpt>
<trkpt lat="56.919041" lon="8.360553">
<ele>24.778909</ele>
<time>2026-07-14T09:42:21.000Z</time>
</trkpt>
<trkpt lat="56.919080" lon="8.360576">
<ele>24.804630</ele>
<time>2026-07-14T09:42:22.000Z</time>
</trkpt>
<trkpt lat="56.919119" lon="8.360601">
<ele>24.830569</ele>
<time>2026-07-14T09:42:23.000Z</time>
</trkpt>
<trkpt lat="56.919157" lon="8.360627">
<ele>24.856034</ele>
<time>2026-07-14T09:42:24.000Z</time>
</trkpt>
<trkpt lat="56.919192" lon="8.360652">
<ele>24.879617</ele>
<time>2026-07-14T09:42:25.000Z</time>
</trkpt>
<trkpt lat="56.919228" lon="8.360678">
<ele>24.903909</ele>
<time>2026-07-14T09:42:26.000Z</time>
</trkpt>
<trkpt lat="56.919267" lon="8.360708">
<ele>24.930463</ele>
<time>2026-07-14T09:42:27.000Z</time>
</trkpt>
<trkpt lat="56.919303" lon="8.360737">
<ele>24.955152</ele>
<time>2026-07-14T09:42:28.000Z</time>
</trkpt>
<trkpt lat="56.919338" lon="8.360765">
<ele>24.979127</ele>
<time>2026-07-14T09:42:29.000Z</time>
</trkpt>
<trkpt lat="56.919374" lon="8.360790">
<ele>25.003297</ele>
<time>2026-07-14T09:42:30.000Z</time>
</trkpt>
<trkpt lat="56.919411" lon="8.360813">
<ele>25.027825</ele>
<time>2026-07-14T09:42:31.000Z</time>
</trkpt>
<trkpt lat="56.919446" lon="8.360835">
<ele>25.051055</ele>
<time>2026-07-14T09:42:32.000Z</time>
</trkpt>
<trkpt lat="56.919478" lon="8.360857">
<ele>25.072511</ele>
<time>2026-07-14T09:42:33.000Z</time>
</trkpt>
<trkpt lat="56.919510" lon="8.360878">
<ele>25.093850</ele>
<time>2026-07-14T09:42:34.000Z</time>
</trkpt>
<trkpt lat="56.919539" lon="8.360890">
<ele>25.112515</ele>
<time>2026-07-14T09:42:35.000Z</time>
</trkpt>
<trkpt lat="56.919563" lon="8.360887">
<ele>25.127616</ele>
<time>2026-07-14T09:42:36.000Z</time>
</trkpt>
<trkpt lat="56.919586" lon="8.360864">
<ele>25.144066</ele>
<time>2026-07-14T09:42:37.000Z</time>
</trkpt>
<trkpt lat="56.919606" lon="8.360825">
<ele>25.162403</ele>
<time>2026-07-14T09:42:38.000Z</time>
</trkpt>
<trkpt lat="56.919619" lon="8.360777">
<ele>25.180763</ele>
<time>2026-07-14T09:42:39.000Z</time>
</trkpt>
<trkpt lat="56.919632" lon="8.360723">
<ele>25.200986</ele>
<time>2026-07-14T09:42:40.000Z</time>
</trkpt>
<trkpt lat="56.919648" lon="8.360666">
<ele>25.222949</ele>
<time>2026-07-14T09:42:41.000Z</time>
</trkpt>
<trkpt lat="56.919663" lon="8.360609">
<ele>25.244632</ele>
<time>2026-07-14T09:42:42.000Z</time>
</trkpt>
<trkpt lat="56.919676" lon="8.360551">
<ele>25.266116</ele>
<time>2026-07-14T09:42:43.000Z</time>
</trkpt>
<trkpt lat="56.919690" lon="8.360489">
<ele>25.289107</ele>
<time>2026-07-14T09:42:44.000Z</time>
</trkpt>
<trkpt lat="56.919703" lon="8.360425">
<ele>25.312506</ele>
<time>2026-07-14T09:42:45.000Z</time>
</trkpt>
<trkpt lat="56.919716" lon="8.360359">
<ele>25.336548</ele>
<time>2026-07-14T09:42:46.000Z</time>
</trkpt>
<trkpt lat="56.919729" lon="8.360293">
<ele>25.360591</ele>
<time>2026-07-14T09:42:47.000Z</time>
</trkpt>
<trkpt lat="56.919742" lon="8.360221">
<ele>25.386577</ele>
<time>2026-07-14T09:42:48.000Z</time>
</trkpt>
<trkpt lat="56.919756" lon="8.360145">
<ele>25.445612</ele>
<time>2026-07-14T09:42:49.000Z</time>
</trkpt>
<trkpt lat="56.919768" lon="8.360070">
<ele>25.503366</ele>
<time>2026-07-14T09:42:50.000Z</time>
</trkpt>
<trkpt lat="56.919781" lon="8.359993">
<ele>25.562925</ele>
<time>2026-07-14T09:42:51.000Z</time>
</trkpt>
<trkpt lat="56.919796" lon="8.359919">
<ele>25.621257</ele>
<time>2026-07-14T09:42:52.000Z</time>
</trkpt>
<trkpt lat="56.919812" lon="8.359846">
<ele>25.679387</ele>
<time>2026-07-14T09:42:53.000Z</time>
</trkpt>
<trkpt lat="56.919827" lon="8.359777">
<ele>25.734270</ele>
<time>2026-07-14T09:42:54.000Z</time>
</trkpt>
<trkpt lat="56.919844" lon="8.359709">
<ele>25.789539</ele>
<time>2026-07-14T09:42:55.000Z</time>
</trkpt>
<trkpt lat="56.919861" lon="8.359642">
<ele>25.844137</ele>
<time>2026-07-14T09:42:56.000Z</time>
</trkpt>
<trkpt lat="56.919874" lon="8.359573">
<ele>25.898077</ele>
<time>2026-07-14T09:42:57.000Z</time>
</trkpt>
<trkpt lat="56.919886" lon="8.359504">
<ele>25.951590</ele>
<time>2026-07-14T09:42:58.000Z</time>
</trkpt>
<trkpt lat="56.919895" lon="8.359434">
<ele>26.004732</ele>
<time>2026-07-14T09:42:59.000Z</time>
</trkpt>
<trkpt lat="56.919907" lon="8.359361">
<ele>26.061069</ele>
<time>2026-07-14T09:43:00.000Z</time>
</trkpt>
<trkpt lat="56.919920" lon="8.359286">
<ele>26.119217</ele>
<time>2026-07-14T09:43:01.000Z</time>
</trkpt>
<trkpt lat="56.919934" lon="8.359211">
<ele>26.177790</ele>
<time>2026-07-14T09:43:02.000Z</time>
</trkpt>
<trkpt lat="56.919947" lon="8.359140">
<ele>26.233129</ele>
<time>2026-07-14T09:43:03.000Z</time>
</trkpt>
<trkpt lat="56.919960" lon="8.359068">
<ele>26.289169</ele>
<time>2026-07-14T09:43:04.000Z</time>
</trkpt>
<trkpt lat="56.919976" lon="8.358994">
<ele>26.347985</ele>
<time>2026-07-14T09:43:05.000Z</time>
</trkpt>
<trkpt lat="56.919989" lon="8.358925">
<ele>26.401925</ele>
<time>2026-07-14T09:43:06.000Z</time>
</trkpt>
<trkpt lat="56.919998" lon="8.358861">
<ele>26.450762</ele>
<time>2026-07-14T09:43:07.000Z</time>
</trkpt>
<trkpt lat="56.920008" lon="8.358800">
<ele>26.497827</ele>
<time>2026-07-14T09:43:08.000Z</time>
</trkpt>
<trkpt lat="56.920019" lon="8.358744">
<ele>26.541806</ele>
<time>2026-07-14T09:43:09.000Z</time>
</trkpt>
<trkpt lat="56.920031" lon="8.358696">
<ele>26.580819</ele>
<time>2026-07-14T09:43:10.000Z</time>
</trkpt>
<trkpt lat="56.920038" lon="8.358658">
<ele>26.610455</ele>
<time>2026-07-14T09:43:11.000Z</time>
</trkpt>
<trkpt lat="56.920036" lon="8.358634">
<ele>26.628396</ele>
<time>2026-07-14T09:43:12.000Z</time>
</trkpt>
<trkpt lat="56.920028" lon="8.358628">
<ele>26.640099</ele>
<time>2026-07-14T09:43:13.000Z</time>
</trkpt>
<trkpt lat="56.920019" lon="8.358642">
<ele>26.656083</ele>
<time>2026-07-14T09:43:14.000Z</time>
</trkpt>
<trkpt lat="56.920010" lon="8.358669">
<ele>26.679461</ele>
<time>2026-07-14T09:43:15.000Z</time>
</trkpt>
<trkpt lat="56.920001" lon="8.358701">
<ele>26.706062</ele>
<time>2026-07-14T09:43:16.000Z</time>
</trkpt>
<trkpt lat="56.919991" lon="8.358735">
<ele>26.734602</ele>
<time>2026-07-14T09:43:17.000Z</time>
</trkpt>
<trkpt lat="56.919983" lon="8.358771">
<ele>26.763324</ele>
<time>2026-07-14T09:43:18.000Z</time>
</trkpt>
<trkpt lat="56.919976" lon="8.358804">
<ele>26.789486</ele>
<time>2026-07-14T09:43:19.000Z</time>
</trkpt>
<trkpt lat="56.919968" lon="8.358835">
<ele>26.814825</ele>
<time>2026-07-14T09:43:20.000Z</time>
</trkpt>
<trkpt lat="56.919962" lon="8.358855">
<ele>26.831690</ele>
<time>2026-07-14T09:43:21.000Z</time>
</trkpt>
<trkpt lat="56.919968" lon="8.358875">
<ele>26.848554</ele>
<time>2026-07-14T09:44:02.000Z</time>
</trkpt>
<trkpt lat="56.919982" lon="8.358860">
<ele>26.870511</ele>
<time>2026-07-14T09:44:03.000Z</time>
</trkpt>
<trkpt lat="56.919990" lon="8.358827">
<ele>26.897193</ele>
<time>2026-07-14T09:44:04.000Z</time>
</trkpt>
<trkpt lat="56.919996" lon="8.358788">
<ele>26.927135</ele>
<time>2026-07-14T09:44:05.000Z</time>
</trkpt>
<trkpt lat="56.920000" lon="8.358744">
<ele>26.960097</ele>
<time>2026-07-14T09:44:06.000Z</time>
</trkpt>
<trkpt lat="56.920006" lon="8.358697">
<ele>26.995765</ele>
<time>2026-07-14T09:44:07.000Z</time>
</trkpt>
<trkpt lat="56.920016" lon="8.358646">
<ele>27.035809</ele>
<time>2026-07-14T09:44:08.000Z</time>
</trkpt>
<trkpt lat="56.920031" lon="8.358593">
<ele>27.079925</ele>
<time>2026-07-14T09:44:09.000Z</time>
</trkpt>
<trkpt lat="56.920048" lon="8.358538">
<ele>27.126632</ele>
<time>2026-07-14T09:44:10.000Z</time>
</trkpt>
<trkpt lat="56.920065" lon="8.358483">
<ele>27.173338</ele>
<time>2026-07-14T09:44:11.000Z</time>
</trkpt>
<trkpt lat="56.920087" lon="8.358431">
<ele>27.221955</ele>
<time>2026-07-14T09:44:12.000Z</time>
</trkpt>
<trkpt lat="56.920111" lon="8.358385">
<ele>27.268979</ele>
<time>2026-07-14T09:44:13.000Z</time>
</trkpt>
<trkpt lat="56.920140" lon="8.358347">
<ele>27.317248</ele>
<time>2026-07-14T09:44:14.000Z</time>
</trkpt>
<trkpt lat="56.920171" lon="8.358313">
<ele>27.366163</ele>
<time>2026-07-14T09:44:15.000Z</time>
</trkpt>
<trkpt lat="56.920200" lon="8.358284">
<ele>27.410893</ele>
<time>2026-07-14T09:44:16.000Z</time>
</trkpt>
<trkpt lat="56.920231" lon="8.358260">
<ele>27.456455</ele>
<time>2026-07-14T09:44:17.000Z</time>
</trkpt>
<trkpt lat="56.920262" lon="8.358243">
<ele>27.500265</ele>
<time>2026-07-14T09:44:18.000Z</time>
</trkpt>
<trkpt lat="56.920291" lon="8.358233">
<ele>27.540216</ele>
<time>2026-07-14T09:44:19.000Z</time>
</trkpt>
<trkpt lat="56.920317" lon="8.358226">
<ele>27.575794</ele>
<time>2026-07-14T09:44:20.000Z</time>
</trkpt>
<trkpt lat="56.920344" lon="8.358220">
<ele>27.612616</ele>
<time>2026-07-14T09:44:21.000Z</time>
</trkpt>
<trkpt lat="56.920371" lon="8.358219">
<ele>27.649178</ele>
<time>2026-07-14T09:44:22.000Z</time>
</trkpt>
<trkpt lat="56.920398" lon="8.358224">
<ele>27.685918</ele>
<time>2026-07-14T09:44:23.000Z</time>
</trkpt>
<trkpt lat="56.920428" lon="8.358235">
<ele>27.727339</ele>
<time>2026-07-14T09:44:24.000Z</time>
</trkpt>
<trkpt lat="56.920463" lon="8.358252">
<ele>27.776361</ele>
<time>2026-07-14T09:44:25.000Z</time>
</trkpt>
<trkpt lat="56.920497" lon="8.358269">
<ele>27.824945</ele>
<time>2026-07-14T09:44:26.000Z</time>
</trkpt>
<trkpt lat="56.920533" lon="8.358283">
<ele>27.894553</ele>
<time>2026-07-14T09:44:27.000Z</time>
</trkpt>
<trkpt lat="56.920567" lon="8.358297">
<ele>27.960466</ele>
<time>2026-07-14T09:44:28.000Z</time>
</trkpt>
<trkpt lat="56.920598" lon="8.358309">
<ele>28.020395</ele>
<time>2026-07-14T09:44:29.000Z</time>
</trkpt>
<trkpt lat="56.920624" lon="8.358320">
<ele>28.070867</ele>
<time>2026-07-14T09:44:30.000Z</time>
</trkpt>
<trkpt lat="56.920651" lon="8.358330">
<ele>28.122969</ele>
<time>2026-07-14T09:44:31.000Z</time>
</trkpt>
<trkpt lat="56.920680" lon="8.358336">
<ele>28.178169</ele>
<time>2026-07-14T09:44:32.000Z</time>
</trkpt>
<trkpt lat="56.920706" lon="8.358342">
<ele>28.227735</ele>
<time>2026-07-14T09:44:33.000Z</time>
</trkpt>
<trkpt lat="56.920733" lon="8.358350">
<ele>28.279467</ele>
<time>2026-07-14T09:44:34.000Z</time>
</trkpt>
<trkpt lat="56.920764" lon="8.358364">
<ele>28.339857</ele>
<time>2026-07-14T09:44:35.000Z</time>
</trkpt>
<trkpt lat="56.920794" lon="8.358380">
<ele>28.398955</ele>
<time>2026-07-14T09:44:36.000Z</time>
</trkpt>
<trkpt lat="56.920822" lon="8.358396">
<ele>28.454431</ele>
<time>2026-07-14T09:44:37.000Z</time>
</trkpt>
<trkpt lat="56.920856" lon="8.358413">
<ele>28.521092</ele>
<time>2026-07-14T09:44:38.000Z</time>
</trkpt>
<trkpt lat="56.920886" lon="8.358428">
<ele>28.579910</ele>
<time>2026-07-14T09:44:39.000Z</time>
</trkpt>
<trkpt lat="56.920914" lon="8.358442">
<ele>28.634807</ele>
<time>2026-07-14T09:44:40.000Z</time>
</trkpt>
<trkpt lat="56.920944" lon="8.358452">
<ele>28.692481</ele>
<time>2026-07-14T09:44:41.000Z</time>
</trkpt>
<trkpt lat="56.920975" lon="8.358459">
<ele>28.751560</ele>
<time>2026-07-14T09:44:42.000Z</time>
</trkpt>
<trkpt lat="56.921006" lon="8.358463">
<ele>28.810339</ele>
<time>2026-07-14T09:44:43.000Z</time>
</trkpt>
<trkpt lat="56.921039" lon="8.358468">
<ele>28.872970</ele>
<time>2026-07-14T09:44:44.000Z</time>
</trkpt>
<trkpt lat="56.921071" lon="8.358471">
<ele>28.933575</ele>
<time>2026-07-14T09:44:45.000Z</time>
</trkpt>
<trkpt lat="56.921103" lon="8.358471">
<ele>28.994101</ele>
<time>2026-07-14T09:44:46.000Z</time>
</trkpt>
<trkpt lat="56.921135" lon="8.358466">
<ele>29.054847</ele>
<time>2026-07-14T09:44:47.000Z</time>
</trkpt>
<trkpt lat="56.921168" lon="8.358457">
<ele>29.117952</ele>
<time>2026-07-14T09:44:48.000Z</time>
</trkpt>
<trkpt lat="56.921203" lon="8.358446">
<ele>29.185119</ele>
<time>2026-07-14T09:44:49.000Z</time>
</trkpt>
<trkpt lat="56.921237" lon="8.358429">
<ele>29.251780</ele>
<time>2026-07-14T09:44:50.000Z</time>
</trkpt>
<trkpt lat="56.921271" lon="8.358413">
<ele>29.318176</ele>
<time>2026-07-14T09:44:51.000Z</time>
</trkpt>
<trkpt lat="56.921306" lon="8.358396">
<ele>29.386663</ele>
<time>2026-07-14T09:44:52.000Z</time>
</trkpt>
<trkpt lat="56.921338" lon="8.358375">
<ele>29.450954</ele>
<time>2026-07-14T09:44:53.000Z</time>
</trkpt>
<trkpt lat="56.921370" lon="8.358353">
<ele>29.515601</ele>
<time>2026-07-14T09:44:54.000Z</time>
</trkpt>
<trkpt lat="56.921405" lon="8.358329">
<ele>29.586286</ele>
<time>2026-07-14T09:44:55.000Z</time>
</trkpt>
<trkpt lat="56.921437" lon="8.358305">
<ele>29.651686</ele>
<time>2026-07-14T09:44:56.000Z</time>
</trkpt>
<trkpt lat="56.921470" lon="8.358278">
<ele>29.720044</ele>
<time>2026-07-14T09:44:57.000Z</time>
</trkpt>
<trkpt lat="56.921504" lon="8.358249">
<ele>29.790980</ele>
<time>2026-07-14T09:44:58.000Z</time>
</trkpt>
<trkpt lat="56.921536" lon="8.358220">
<ele>29.858505</ele>
<time>2026-07-14T09:44:59.000Z</time>
</trkpt>
<trkpt lat="56.921569" lon="8.358191">
<ele>29.927731</ele>
<time>2026-07-14T09:45:00.000Z</time>
</trkpt>
<trkpt lat="56.921603" lon="8.358161">
<ele>29.999109</ele>
<time>2026-07-14T09:45:01.000Z</time>
</trkpt>
<trkpt lat="56.921636" lon="8.358131">
<ele>30.068787</ele>
<time>2026-07-14T09:45:02.000Z</time>
</trkpt>
<trkpt lat="56.921668" lon="8.358103">
<ele>30.135861</ele>
<time>2026-07-14T09:45:03.000Z</time>
</trkpt>
<trkpt lat="56.921700" lon="8.358076">
<ele>30.202496</ele>
<time>2026-07-14T09:45:04.000Z</time>
</trkpt>
<trkpt lat="56.921731" lon="8.358043">
<ele>30.270309</ele>
<time>2026-07-14T09:45:05.000Z</time>
</trkpt>
<trkpt lat="56.921763" lon="8.358009">
<ele>30.340275</ele>
<time>2026-07-14T09:45:06.000Z</time>
</trkpt>
<trkpt lat="56.921795" lon="8.357975">
<ele>30.410242</ele>
<time>2026-07-14T09:45:07.000Z</time>
</trkpt>
<trkpt lat="56.921828" lon="8.357938">
<ele>30.483418</ele>
<time>2026-07-14T09:45:08.000Z</time>
</trkpt>
<trkpt lat="56.921861" lon="8.357894">
<ele>30.560614</ele>
<time>2026-07-14T09:45:09.000Z</time>
</trkpt>
<trkpt lat="56.921889" lon="8.357847">
<ele>30.632439</ele>
<time>2026-07-14T09:45:10.000Z</time>
</trkpt>
<trkpt lat="56.921918" lon="8.357798">
<ele>30.707054</ele>
<time>2026-07-14T09:45:11.000Z</time>
</trkpt>
<trkpt lat="56.921944" lon="8.357748">
<ele>30.778346</ele>
<time>2026-07-14T09:45:12.000Z</time>
</trkpt>
<trkpt lat="56.921969" lon="8.357695">
<ele>30.850661</ele>
<time>2026-07-14T09:45:13.000Z</time>
</trkpt>
<trkpt lat="56.921994" lon="8.357640">
<ele>30.924550</ele>
<time>2026-07-14T09:45:14.000Z</time>
</trkpt>
<trkpt lat="56.922019" lon="8.357582">
<ele>31.000844</ele>
<time>2026-07-14T09:45:15.000Z</time>
</trkpt>
<trkpt lat="56.922044" lon="8.357523">
<ele>31.077951</ele>
<time>2026-07-14T09:45:16.000Z</time>
</trkpt>
<trkpt lat="56.922064" lon="8.357467">
<ele>31.147038</ele>
<time>2026-07-14T09:45:17.000Z</time>
</trkpt>
<trkpt lat="56.922085" lon="8.357410">
<ele>31.218031</ele>
<time>2026-07-14T09:45:18.000Z</time>
</trkpt>
<trkpt lat="56.922104" lon="8.357354">
<ele>31.192468</ele>
<time>2026-07-14T09:45:19.000Z</time>
</trkpt>
<trkpt lat="56.922122" lon="8.357297">
<ele>31.158100</ele>
<time>2026-07-14T09:45:20.000Z</time>
</trkpt>
<trkpt lat="56.922141" lon="8.357240">
<ele>31.123244</ele>
<time>2026-07-14T09:45:21.000Z</time>
</trkpt>
<trkpt lat="56.922157" lon="8.357183">
<ele>31.089793</ele>
<time>2026-07-14T09:45:22.000Z</time>
</trkpt>
<trkpt lat="56.922172" lon="8.357122">
<ele>31.054876</ele>
<time>2026-07-14T09:45:23.000Z</time>
</trkpt>
<trkpt lat="56.922186" lon="8.357055">
<ele>31.017435</ele>
<time>2026-07-14T09:45:24.000Z</time>
</trkpt>
<trkpt lat="56.922198" lon="8.356988">
<ele>30.980635</ele>
<time>2026-07-14T09:45:25.000Z</time>
</trkpt>
<trkpt lat="56.922209" lon="8.356922">
<ele>30.944620</ele>
<time>2026-07-14T09:45:26.000Z</time>
</trkpt>
<trkpt lat="56.922218" lon="8.356853">
<ele>30.907597</ele>
<time>2026-07-14T09:45:27.000Z</time>
</trkpt>
<trkpt lat="56.922228" lon="8.356782">
<ele>30.869329</ele>
<time>2026-07-14T09:45:28.000Z</time>
</trkpt>
<trkpt lat="56.922238" lon="8.356707">
<ele>30.829037</ele>
<time>2026-07-14T09:45:29.000Z</time>
</trkpt>
<trkpt lat="56.922245" lon="8.356631">
<ele>30.788814</ele>
<time>2026-07-14T09:45:30.000Z</time>
</trkpt>
<trkpt lat="56.922255" lon="8.356554">
<ele>30.747507</ele>
<time>2026-07-14T09:45:31.000Z</time>
</trkpt>
<trkpt lat="56.922266" lon="8.356477">
<ele>30.705969</ele>
<time>2026-07-14T09:45:32.000Z</time>
</trkpt>
<trkpt lat="56.922282" lon="8.356401">
<ele>30.663457</ele>
<time>2026-07-14T09:45:33.000Z</time>
</trkpt>
<trkpt lat="56.922301" lon="8.356327">
<ele>30.620778</ele>
<time>2026-07-14T09:45:34.000Z</time>
</trkpt>
<trkpt lat="56.922321" lon="8.356256">
<ele>30.579081</ele>
<time>2026-07-14T09:45:35.000Z</time>
</trkpt>
<trkpt lat="56.922344" lon="8.356181">
<ele>30.534184</ele>
<time>2026-07-14T09:45:36.000Z</time>
</trkpt>
<trkpt lat="56.922366" lon="8.356104">
<ele>30.488826</ele>
<time>2026-07-14T09:45:37.000Z</time>
</trkpt>
<trkpt lat="56.922385" lon="8.356029">
<ele>30.445675</ele>
<time>2026-07-14T09:45:38.000Z</time>
</trkpt>
<trkpt lat="56.922406" lon="8.355952">
<ele>30.400752</ele>
<time>2026-07-14T09:45:39.000Z</time>
</trkpt>
<trkpt lat="56.922426" lon="8.355875">
<ele>30.356249</ele>
<time>2026-07-14T09:45:40.000Z</time>
</trkpt>
<trkpt lat="56.922446" lon="8.355796">
<ele>30.310801</ele>
<time>2026-07-14T09:45:41.000Z</time>
</trkpt>
<trkpt lat="56.922465" lon="8.355714">
<ele>30.264311</ele>
<time>2026-07-14T09:45:42.000Z</time>
</trkpt>
<trkpt lat="56.922486" lon="8.355634">
<ele>30.217983</ele>
<time>2026-07-14T09:45:43.000Z</time>
</trkpt>
<trkpt lat="56.922507" lon="8.355555">
<ele>30.172124</ele>
<time>2026-07-14T09:45:44.000Z</time>
</trkpt>
<trkpt lat="56.922526" lon="8.355476">
<ele>30.127071</ele>
<time>2026-07-14T09:45:45.000Z</time>
</trkpt>
<trkpt lat="56.922549" lon="8.355399">
<ele>30.081262</ele>
<time>2026-07-14T09:45:46.000Z</time>
</trkpt>
<trkpt lat="56.922572" lon="8.355324">
<ele>30.036365</ele>
<time>2026-07-14T09:45:47.000Z</time>
</trkpt>
<trkpt lat="56.922593" lon="8.355248">
<ele>29.991910</ele>
<time>2026-07-14T09:45:48.000Z</time>
</trkpt>
<trkpt lat="56.922616" lon="8.355171">
<ele>29.946101</ele>
<time>2026-07-14T09:45:49.000Z</time>
</trkpt>
<trkpt lat="56.922637" lon="8.355093">
<ele>29.900711</ele>
<time>2026-07-14T09:45:50.000Z</time>
</trkpt>
<trkpt lat="56.922658" lon="8.355012">
<ele>29.853912</ele>
<time>2026-07-14T09:45:51.000Z</time>
</trkpt>
<trkpt lat="56.922685" lon="8.354929">
<ele>29.803486</ele>
<time>2026-07-14T09:45:52.000Z</time>
</trkpt>
<trkpt lat="56.922711" lon="8.354845">
<ele>29.753090</ele>
<time>2026-07-14T09:45:53.000Z</time>
</trkpt>
<trkpt lat="56.922736" lon="8.354762">
<ele>29.703616</ele>
<time>2026-07-14T09:45:54.000Z</time>
</trkpt>
<trkpt lat="56.922761" lon="8.354677">
<ele>29.653225</ele>
<time>2026-07-14T09:45:55.000Z</time>
</trkpt>
<trkpt lat="56.922787" lon="8.354591">
<ele>29.601919</ele>
<time>2026-07-14T09:45:56.000Z</time>
</trkpt>
<trkpt lat="56.922816" lon="8.354506">
<ele>29.549605</ele>
<time>2026-07-14T09:45:57.000Z</time>
</trkpt>
<trkpt lat="56.922843" lon="8.354417">
<ele>29.498097</ele>
<time>2026-07-14T09:45:58.000Z</time>
</trkpt>
<trkpt lat="56.922868" lon="8.354328">
<ele>29.457139</ele>
<time>2026-07-14T09:45:59.000Z</time>
</trkpt>
<trkpt lat="56.922894" lon="8.354238">
<ele>29.415471</ele>
<time>2026-07-14T09:46:00.000Z</time>
</trkpt>
<trkpt lat="56.922923" lon="8.354148">
<ele>29.372705</ele>
<time>2026-07-14T09:46:01.000Z</time>
</trkpt>
<trkpt lat="56.922951" lon="8.354060">
<ele>29.331024</ele>
<time>2026-07-14T09:46:02.000Z</time>
</trkpt>
<trkpt lat="56.922980" lon="8.353969">
<ele>29.287905</ele>
<time>2026-07-14T09:46:03.000Z</time>
</trkpt>
<trkpt lat="56.923007" lon="8.353879">
<ele>29.245881</ele>
<time>2026-07-14T09:46:04.000Z</time>
</trkpt>
<trkpt lat="56.923038" lon="8.353785">
<ele>29.200941</ele>
<time>2026-07-14T09:46:05.000Z</time>
</trkpt>
<trkpt lat="56.923069" lon="8.353689">
<ele>29.155298</ele>
<time>2026-07-14T09:46:06.000Z</time>
</trkpt>
<trkpt lat="56.923099" lon="8.353593">
<ele>29.110033</ele>
<time>2026-07-14T09:46:07.000Z</time>
</trkpt>
<trkpt lat="56.923128" lon="8.353493">
<ele>29.063696</ele>
<time>2026-07-14T09:46:08.000Z</time>
</trkpt>
<trkpt lat="56.923157" lon="8.353396">
<ele>29.018440</ele>
<time>2026-07-14T09:46:09.000Z</time>
</trkpt>
<trkpt lat="56.923186" lon="8.353298">
<ele>28.972825</ele>
<time>2026-07-14T09:46:10.000Z</time>
</trkpt>
<trkpt lat="56.923214" lon="8.353200">
<ele>28.927562</ele>
<time>2026-07-14T09:46:11.000Z</time>
</trkpt>
<trkpt lat="56.923243" lon="8.353102">
<ele>28.881947</ele>
<time>2026-07-14T09:46:12.000Z</time>
</trkpt>
<trkpt lat="56.923271" lon="8.353001">
<ele>28.835594</ele>
<time>2026-07-14T09:46:13.000Z</time>
</trkpt>
<trkpt lat="56.923298" lon="8.352902">
<ele>28.790308</ele>
<time>2026-07-14T09:46:14.000Z</time>
</trkpt>
<trkpt lat="56.923323" lon="8.352803">
<ele>28.745673</ele>
<time>2026-07-14T09:46:15.000Z</time>
</trkpt>
<trkpt lat="56.923349" lon="8.352710">
<ele>28.702917</ele>
<time>2026-07-14T09:46:16.000Z</time>
</trkpt>
<trkpt lat="56.923377" lon="8.352619">
<ele>28.660171</ele>
<time>2026-07-14T09:46:17.000Z</time>
</trkpt>
<trkpt lat="56.923407" lon="8.352527">
<ele>28.616319</ele>
<time>2026-07-14T09:46:18.000Z</time>
</trkpt>
<trkpt lat="56.923435" lon="8.352438">
<ele>28.574284</ele>
<time>2026-07-14T09:46:19.000Z</time>
</trkpt>
<trkpt lat="56.923466" lon="8.352348">
<ele>28.530737</ele>
<time>2026-07-14T09:46:20.000Z</time>
</trkpt>
<trkpt lat="56.923493" lon="8.352258">
<ele>28.488713</ele>
<time>2026-07-14T09:46:21.000Z</time>
</trkpt>
<trkpt lat="56.923516" lon="8.352169">
<ele>28.448420</ele>
<time>2026-07-14T09:46:22.000Z</time>
</trkpt>
<trkpt lat="56.923540" lon="8.352081">
<ele>28.408166</ele>
<time>2026-07-14T09:46:23.000Z</time>
</trkpt>
<trkpt lat="56.923565" lon="8.351995">
<ele>28.368296</ele>
<time>2026-07-14T09:46:24.000Z</time>
</trkpt>
<trkpt lat="56.923587" lon="8.351911">
<ele>28.330172</ele>
<time>2026-07-14T09:46:25.000Z</time>
</trkpt>
<trkpt lat="56.923608" lon="8.351829">
<ele>28.293109</ele>
<time>2026-07-14T09:46:26.000Z</time>
</trkpt>
<trkpt lat="56.923631" lon="8.351746">
<ele>28.255020</ele>
<time>2026-07-14T09:46:27.000Z</time>
</trkpt>
<trkpt lat="56.923653" lon="8.351661">
<ele>28.216527</ele>
<time>2026-07-14T09:46:28.000Z</time>
</trkpt>
<trkpt lat="56.923674" lon="8.351578">
<ele>28.179093</ele>
<time>2026-07-14T09:46:29.000Z</time>
</trkpt>
<trkpt lat="56.923695" lon="8.351493">
<ele>28.176376</ele>
<time>2026-07-14T09:46:30.000Z</time>
</trkpt>
<trkpt lat="56.923718" lon="8.351406">
<ele>28.233012</ele>
<time>2026-07-14T09:46:31.000Z</time>
</trkpt>
<trkpt lat="56.923742" lon="8.351322">
<ele>28.288560</ele>
<time>2026-07-14T09:46:32.000Z</time>
</trkpt>
<trkpt lat="56.923767" lon="8.351240">
<ele>28.343589</ele>
<time>2026-07-14T09:46:33.000Z</time>
</trkpt>
<trkpt lat="56.923792" lon="8.351159">
<ele>28.398107</ele>
<time>2026-07-14T09:46:34.000Z</time>
</trkpt>
<trkpt lat="56.923816" lon="8.351077">
<ele>28.452620</ele>
<time>2026-07-14T09:46:35.000Z</time>
</trkpt>
<trkpt lat="56.923838" lon="8.350995">
<ele>28.506152</ele>
<time>2026-07-14T09:46:36.000Z</time>
</trkpt>
<trkpt lat="56.923859" lon="8.350912">
<ele>28.559750</ele>
<time>2026-07-14T09:46:37.000Z</time>
</trkpt>
<trkpt lat="56.923882" lon="8.350828">
<ele>28.614809</ele>
<time>2026-07-14T09:46:38.000Z</time>
</trkpt>
<trkpt lat="56.923905" lon="8.350747">
<ele>28.668303</ele>
<time>2026-07-14T09:46:39.000Z</time>
</trkpt>
<trkpt lat="56.923928" lon="8.350668">
<ele>28.720760</ele>
<time>2026-07-14T09:46:40.000Z</time>
</trkpt>
<trkpt lat="56.923951" lon="8.350589">
<ele>28.773217</ele>
<time>2026-07-14T09:46:41.000Z</time>
</trkpt>
<trkpt lat="56.923974" lon="8.350510">
<ele>28.825673</ele>
<time>2026-07-14T09:46:42.000Z</time>
</trkpt>
<trkpt lat="56.923996" lon="8.350430">
<ele>28.878156</ele>
<time>2026-07-14T09:46:43.000Z</time>
</trkpt>
<trkpt lat="56.924017" lon="8.350347">
<ele>28.931754</ele>
<time>2026-07-14T09:46:44.000Z</time>
</trkpt>
<trkpt lat="56.924037" lon="8.350263">
<ele>28.985446</ele>
<time>2026-07-14T09:46:45.000Z</time>
</trkpt>
<trkpt lat="56.924056" lon="8.350179">
<ele>29.038717</ele>
<time>2026-07-14T09:46:46.000Z</time>
</trkpt>
<trkpt lat="56.924073" lon="8.350097">
<ele>29.090107</ele>
<time>2026-07-14T09:46:47.000Z</time>
</trkpt>
<trkpt lat="56.924092" lon="8.350015">
<ele>29.142298</ele>
<time>2026-07-14T09:46:48.000Z</time>
</trkpt>
<trkpt lat="56.924115" lon="8.349934">
<ele>29.195791</ele>
<time>2026-07-14T09:46:49.000Z</time>
</trkpt>
<trkpt lat="56.924138" lon="8.349854">
<ele>29.248766</ele>
<time>2026-07-14T09:46:50.000Z</time>
</trkpt>
<trkpt lat="56.924161" lon="8.349775">
<ele>29.301222</ele>
<time>2026-07-14T09:46:51.000Z</time>
</trkpt>
<trkpt lat="56.924181" lon="8.349698">
<ele>29.351182</ele>
<time>2026-07-14T09:46:52.000Z</time>
</trkpt>
<trkpt lat="56.924202" lon="8.349621">
<ele>29.401612</ele>
<time>2026-07-14T09:46:53.000Z</time>
</trkpt>
<trkpt lat="56.924223" lon="8.349543">
<ele>29.452567</ele>
<time>2026-07-14T09:46:54.000Z</time>
</trkpt>
<trkpt lat="56.924242" lon="8.349465">
<ele>29.502609</ele>
<time>2026-07-14T09:46:55.000Z</time>
</trkpt>
<trkpt lat="56.924261" lon="8.349387">
<ele>29.552651</ele>
<time>2026-07-14T09:46:56.000Z</time>
</trkpt>
<trkpt lat="56.924283" lon="8.349310">
<ele>29.603570</ele>
<time>2026-07-14T09:46:57.000Z</time>
</trkpt>
<trkpt lat="56.924302" lon="8.349234">
<ele>29.652544</ele>
<time>2026-07-14T09:46:58.000Z</time>
</trkpt>
<trkpt lat="56.924319" lon="8.349159">
<ele>29.700123</ele>
<time>2026-07-14T09:46:59.000Z</time>
</trkpt>
<trkpt lat="56.924338" lon="8.349085">
<ele>29.748034</ele>
<time>2026-07-14T09:47:00.000Z</time>
</trkpt>
<trkpt lat="56.924357" lon="8.349014">
<ele>29.794361</ele>
<time>2026-07-14T09:47:01.000Z</time>
</trkpt>
<trkpt lat="56.924376" lon="8.348942">
<ele>29.841215</ele>
<time>2026-07-14T09:47:02.000Z</time>
</trkpt>
<trkpt lat="56.924391" lon="8.348869">
<ele>29.886914</ele>
<time>2026-07-14T09:47:03.000Z</time>
</trkpt>
<trkpt lat="56.924407" lon="8.348798">
<ele>29.931916</ele>
<time>2026-07-14T09:47:04.000Z</time>
</trkpt>
<trkpt lat="56.924426" lon="8.348728">
<ele>29.977718</ele>
<time>2026-07-14T09:47:05.000Z</time>
</trkpt>
<trkpt lat="56.924443" lon="8.348659">
<ele>30.022070</ele>
<time>2026-07-14T09:47:06.000Z</time>
</trkpt>
<trkpt lat="56.924460" lon="8.348591">
<ele>30.065889</ele>
<time>2026-07-14T09:47:07.000Z</time>
</trkpt>
<trkpt lat="56.924477" lon="8.348524">
<ele>30.085023</ele>
<time>2026-07-14T09:47:08.000Z</time>
</trkpt>
<trkpt lat="56.924492" lon="8.348458">
<ele>30.082630</ele>
<time>2026-07-14T09:47:09.000Z</time>
</trkpt>
<trkpt lat="56.924508" lon="8.348390">
<ele>30.080153</ele>
<time>2026-07-14T09:47:10.000Z</time>
</trkpt>
<trkpt lat="56.924525" lon="8.348323">
<ele>30.077680</ele>
<time>2026-07-14T09:47:11.000Z</time>
</trkpt>
<trkpt lat="56.924544" lon="8.348255">
<ele>30.075124</ele>
<time>2026-07-14T09:47:12.000Z</time>
</trkpt>
<trkpt lat="56.924561" lon="8.348191">
<ele>30.072742</ele>
<time>2026-07-14T09:47:13.000Z</time>
</trkpt>
<trkpt lat="56.924578" lon="8.348129">
<ele>30.070420</ele>
<time>2026-07-14T09:47:14.000Z</time>
</trkpt>
<trkpt lat="56.924597" lon="8.348066">
<ele>30.068011</ele>
<time>2026-07-14T09:47:15.000Z</time>
</trkpt>
<trkpt lat="56.924614" lon="8.348000">
<ele>30.065569</ele>
<time>2026-07-14T09:47:16.000Z</time>
</trkpt>
<trkpt lat="56.924628" lon="8.347933">
<ele>30.063168</ele>
<time>2026-07-14T09:47:17.000Z</time>
</trkpt>
<trkpt lat="56.924643" lon="8.347866">
<ele>30.060745</ele>
<time>2026-07-14T09:47:18.000Z</time>
</trkpt>
<trkpt lat="56.924662" lon="8.347800">
<ele>30.058248</ele>
<time>2026-07-14T09:47:19.000Z</time>
</trkpt>
<trkpt lat="56.924679" lon="8.347734">
<ele>30.055806</ele>
<time>2026-07-14T09:47:20.000Z</time>
</trkpt>
<trkpt lat="56.924697" lon="8.347669">
<ele>30.053367</ele>
<time>2026-07-14T09:47:21.000Z</time>
</trkpt>
<trkpt lat="56.924714" lon="8.347605">
<ele>30.050985</ele>
<time>2026-07-14T09:47:22.000Z</time>
</trkpt>
<trkpt lat="56.924731" lon="8.347541">
<ele>30.048603</ele>
<time>2026-07-14T09:47:23.000Z</time>
</trkpt>
<trkpt lat="56.924754" lon="8.347479">
<ele>30.046094</ele>
<time>2026-07-14T09:47:24.000Z</time>
</trkpt>
<trkpt lat="56.924777" lon="8.347418">
<ele>30.043613</ele>
<time>2026-07-14T09:47:25.000Z</time>
</trkpt>
<trkpt lat="56.924798" lon="8.347358">
<ele>30.041228</ele>
<time>2026-07-14T09:47:26.000Z</time>
</trkpt>
<trkpt lat="56.924820" lon="8.347301">
<ele>30.038892</ele>
<time>2026-07-14T09:47:27.000Z</time>
</trkpt>
<trkpt lat="56.924843" lon="8.347245">
<ele>30.036546</ele>
<time>2026-07-14T09:47:28.000Z</time>
</trkpt>
<trkpt lat="56.924864" lon="8.347190">
<ele>30.034300</ele>
<time>2026-07-14T09:47:29.000Z</time>
</trkpt>
<trkpt lat="56.924873" lon="8.347142">
<ele>30.032602</ele>
<time>2026-07-14T09:47:30.000Z</time>
</trkpt>
<trkpt lat="56.924873" lon="8.347097">
<ele>30.031096</ele>
<time>2026-07-14T09:47:31.000Z</time>
</trkpt>
<trkpt lat="56.924866" lon="8.347059">
<ele>30.029754</ele>
<time>2026-07-14T09:47:32.000Z</time>
</trkpt>
<trkpt lat="56.924852" lon="8.347028">
<ele>30.028407</ele>
<time>2026-07-14T09:47:33.000Z</time>
</trkpt>
<trkpt lat="56.924841" lon="8.347006">
<ele>30.027409</ele>
<time>2026-07-14T09:47:34.000Z</time>
</trkpt>
<trkpt lat="56.924826" lon="8.346968">
<ele>30.025840</ele>
<time>2026-07-14T09:49:04.000Z</time>
</trkpt>
<trkpt lat="56.924828" lon="8.346954">
<ele>30.025355</ele>
<time>2026-07-14T09:49:05.000Z</time>
</trkpt>
<trkpt lat="56.924830" lon="8.346939">
<ele>30.024839</ele>
<time>2026-07-14T09:49:06.000Z</time>
</trkpt>
<trkpt lat="56.924831" lon="8.346925">
<ele>30.024366</ele>
<time>2026-07-14T09:49:07.000Z</time>
</trkpt>
<trkpt lat="56.924833" lon="8.346911">
<ele>30.023882</ele>
<time>2026-07-14T09:49:08.000Z</time>
</trkpt>
<trkpt lat="56.924835" lon="8.346898">
<ele>30.023430</ele>
<time>2026-07-14T09:49:09.000Z</time>
</trkpt>
<trkpt lat="56.924835" lon="8.346886">
<ele>30.023028</ele>
<time>2026-07-14T09:49:10.000Z</time>
</trkpt>
<trkpt lat="56.924835" lon="8.346875">
<ele>30.022660</ele>
<time>2026-07-14T09:49:11.000Z</time>
</trkpt>
<trkpt lat="56.924835" lon="8.346866">
<ele>30.022359</ele>
<time>2026-07-14T09:49:12.000Z</time>
</trkpt>
<trkpt lat="56.924837" lon="8.346857">
<ele>30.022034</ele>
<time>2026-07-14T09:49:13.000Z</time>
</trkpt>
<trkpt lat="56.924837" lon="8.346849">
<ele>30.021766</ele>
<time>2026-07-14T09:49:14.000Z</time>
</trkpt>
<trkpt lat="56.924835" lon="8.346888">
<ele>30.020455</ele>
<time>2026-07-14T09:49:59.000Z</time>
</trkpt>
<trkpt lat="56.924834" lon="8.346912">
<ele>30.019650</ele>
<time>2026-07-14T09:50:00.000Z</time>
</trkpt>
<trkpt lat="56.924831" lon="8.346942">
<ele>30.018629</ele>
<time>2026-07-14T09:50:01.000Z</time>
</trkpt>
<trkpt lat="56.924831" lon="8.346983">
<ele>30.017257</ele>
<time>2026-07-14T09:50:02.000Z</time>
</trkpt>
<trkpt lat="56.924831" lon="8.347018">
<ele>30.016086</ele>
<time>2026-07-14T09:50:03.000Z</time>
</trkpt>
<trkpt lat="56.924833" lon="8.347048">
<ele>30.015075</ele>
<time>2026-07-14T09:50:04.000Z</time>
</trkpt>
<trkpt lat="56.924837" lon="8.347072">
<ele>30.014235</ele>
<time>2026-07-14T09:50:05.000Z</time>
</trkpt>
<trkpt lat="56.924843" lon="8.347095">
<ele>30.013382</ele>
<time>2026-07-14T09:50:06.000Z</time>
</trkpt>
<trkpt lat="56.924855" lon="8.347116">
<ele>30.012364</ele>
<time>2026-07-14T09:50:07.000Z</time>
</trkpt>
<trkpt lat="56.924870" lon="8.347133">
<ele>30.011283</ele>
<time>2026-07-14T09:50:08.000Z</time>
</trkpt>
<trkpt lat="56.924889" lon="8.347142">
<ele>30.010080</ele>
<time>2026-07-14T09:50:09.000Z</time>
</trkpt>
<trkpt lat="56.924912" lon="8.347136">
<ele>30.008655</ele>
<time>2026-07-14T09:50:10.000Z</time>
</trkpt>
<trkpt lat="56.924936" lon="8.347117">
<ele>30.007052</ele>
<time>2026-07-14T09:50:11.000Z</time>
</trkpt>
<trkpt lat="56.924961" lon="8.347086">
<ele>30.005201</ele>
<time>2026-07-14T09:50:12.000Z</time>
</trkpt>
<trkpt lat="56.924986" lon="8.347045">
<ele>30.003144</ele>
<time>2026-07-14T09:50:13.000Z</time>
</trkpt>
<trkpt lat="56.925015" lon="8.347000">
<ele>30.000814</ele>
<time>2026-07-14T09:50:14.000Z</time>
</trkpt>
<trkpt lat="56.925042" lon="8.346957">
<ele>29.998620</ele>
<time>2026-07-14T09:50:15.000Z</time>
</trkpt>
<trkpt lat="56.925070" lon="8.346913">
<ele>29.996359</ele>
<time>2026-07-14T09:50:16.000Z</time>
</trkpt>
<trkpt lat="56.925101" lon="8.346866">
<ele>29.993891</ele>
<time>2026-07-14T09:50:17.000Z</time>
</trkpt>
<trkpt lat="56.925130" lon="8.346820">
<ele>29.991540</ele>
<time>2026-07-14T09:50:18.000Z</time>
</trkpt>
<trkpt lat="56.925162" lon="8.346775">
<ele>29.989066</ele>
<time>2026-07-14T09:50:19.000Z</time>
</trkpt>
<trkpt lat="56.925195" lon="8.346730">
<ele>29.986544</ele>
<time>2026-07-14T09:50:20.000Z</time>
</trkpt>
<trkpt lat="56.925227" lon="8.346685">
<ele>29.984071</ele>
<time>2026-07-14T09:50:21.000Z</time>
</trkpt>
<trkpt lat="56.925261" lon="8.346638">
<ele>29.981459</ele>
<time>2026-07-14T09:50:22.000Z</time>
</trkpt>
<trkpt lat="56.925297" lon="8.346586">
<ele>29.978648</ele>
<time>2026-07-14T09:50:23.000Z</time>
</trkpt>
<trkpt lat="56.925338" lon="8.346530">
<ele>29.941079</ele>
<time>2026-07-14T09:50:24.000Z</time>
</trkpt>
<trkpt lat="56.925380" lon="8.346473">
<ele>29.728806</ele>
<time>2026-07-14T09:50:25.000Z</time>
</trkpt>
<trkpt lat="56.925421" lon="8.346415">
<ele>29.518435</ele>
<time>2026-07-14T09:50:26.000Z</time>
</trkpt>
<trkpt lat="56.925465" lon="8.346354">
<ele>29.294346</ele>
<time>2026-07-14T09:50:27.000Z</time>
</trkpt>
<trkpt lat="56.925512" lon="8.346289">
<ele>29.055191</ele>
<time>2026-07-14T09:50:28.000Z</time>
</trkpt>
<trkpt lat="56.925557" lon="8.346225">
<ele>28.823834</ele>
<time>2026-07-14T09:50:29.000Z</time>
</trkpt>
<trkpt lat="56.925605" lon="8.346163">
<ele>28.585316</ele>
<time>2026-07-14T09:50:30.000Z</time>
</trkpt>
<trkpt lat="56.925653" lon="8.346099">
<ele>28.344218</ele>
<time>2026-07-14T09:50:31.000Z</time>
</trkpt>
<trkpt lat="56.925699" lon="8.346033">
<ele>28.106932</ele>
<time>2026-07-14T09:50:32.000Z</time>
</trkpt>
<trkpt lat="56.925746" lon="8.345966">
<ele>27.865082</ele>
<time>2026-07-14T09:50:33.000Z</time>
</trkpt>
<trkpt lat="56.925794" lon="8.345897">
<ele>27.617301</ele>
<time>2026-07-14T09:50:34.000Z</time>
</trkpt>
<trkpt lat="56.925842" lon="8.345829">
<ele>27.370883</ele>
<time>2026-07-14T09:50:35.000Z</time>
</trkpt>
<trkpt lat="56.925891" lon="8.345760">
<ele>27.119894</ele>
<time>2026-07-14T09:50:36.000Z</time>
</trkpt>
<trkpt lat="56.925941" lon="8.345691">
<ele>26.865674</ele>
<time>2026-07-14T09:50:37.000Z</time>
</trkpt>
<trkpt lat="56.925990" lon="8.345623">
<ele>26.616030</ele>
<time>2026-07-14T09:50:38.000Z</time>
</trkpt>
<trkpt lat="56.926040" lon="8.345554">
<ele>26.361810</ele>
<time>2026-07-14T09:50:39.000Z</time>
</trkpt>
<trkpt lat="56.926092" lon="8.345481">
<ele>26.095758</ele>
<time>2026-07-14T09:50:40.000Z</time>
</trkpt>
<trkpt lat="56.926145" lon="8.345407">
<ele>25.825134</ele>
<time>2026-07-14T09:50:41.000Z</time>
</trkpt>
<trkpt lat="56.926197" lon="8.345334">
<ele>25.559083</ele>
<time>2026-07-14T09:50:42.000Z</time>
</trkpt>
<trkpt lat="56.926250" lon="8.345260">
<ele>25.288459</ele>
<time>2026-07-14T09:50:43.000Z</time>
</trkpt>
<trkpt lat="56.926304" lon="8.345183">
<ele>25.010560</ele>
<time>2026-07-14T09:50:44.000Z</time>
</trkpt>
<trkpt lat="56.926358" lon="8.345106">
<ele>24.732661</ele>
<time>2026-07-14T09:50:45.000Z</time>
</trkpt>
<trkpt lat="56.926412" lon="8.345030">
<ele>24.456118</ele>
<time>2026-07-14T09:50:46.000Z</time>
</trkpt>
<trkpt lat="56.926466" lon="8.344957">
<ele>24.183575</ele>
<time>2026-07-14T09:50:47.000Z</time>
</trkpt>
<trkpt lat="56.926517" lon="8.344885">
<ele>23.922096</ele>
<time>2026-07-14T09:50:48.000Z</time>
</trkpt>
<trkpt lat="56.926566" lon="8.344815">
<ele>23.669752</ele>
<time>2026-07-14T09:50:49.000Z</time>
</trkpt>
<trkpt lat="56.926616" lon="8.344745">
<ele>23.414194</ele>
<time>2026-07-14T09:50:50.000Z</time>
</trkpt>
<trkpt lat="56.926664" lon="8.344672">
<ele>23.160848</ele>
<time>2026-07-14T09:50:51.000Z</time>
</trkpt>
<trkpt lat="56.926714" lon="8.344601">
<ele>22.903938</ele>
<time>2026-07-14T09:50:52.000Z</time>
</trkpt>
<trkpt lat="56.926765" lon="8.344531">
<ele>22.656092</ele>
<time>2026-07-14T09:50:53.000Z</time>
</trkpt>
<trkpt lat="56.926816" lon="8.344460">
<ele>22.506629</ele>
<time>2026-07-14T09:50:54.000Z</time>
</trkpt>
<trkpt lat="56.926872" lon="8.344384">
<ele>22.344011</ele>
<time>2026-07-14T09:50:55.000Z</time>
</trkpt>
<trkpt lat="56.926929" lon="8.344307">
<ele>22.178760</ele>
<time>2026-07-14T09:50:56.000Z</time>
</trkpt>
<trkpt lat="56.926985" lon="8.344230">
<ele>22.015382</ele>
<time>2026-07-14T09:50:57.000Z</time>
</trkpt>
<trkpt lat="56.927041" lon="8.344151">
<ele>21.850462</ele>
<time>2026-07-14T09:50:58.000Z</time>
</trkpt>
<trkpt lat="56.927095" lon="8.344071">
<ele>21.688418</ele>
<time>2026-07-14T09:50:59.000Z</time>
</trkpt>
<trkpt lat="56.927147" lon="8.343994">
<ele>21.532405</ele>
<time>2026-07-14T09:51:00.000Z</time>
</trkpt>
<trkpt lat="56.927201" lon="8.343915">
<ele>21.371159</ele>
<time>2026-07-14T09:51:01.000Z</time>
</trkpt>
<trkpt lat="56.927257" lon="8.343839">
<ele>21.208542</ele>
<time>2026-07-14T09:51:02.000Z</time>
</trkpt>
<trkpt lat="56.927314" lon="8.343768">
<ele>21.047707</ele>
<time>2026-07-14T09:51:03.000Z</time>
</trkpt>
<trkpt lat="56.927369" lon="8.343701">
<ele>20.893588</ele>
<time>2026-07-14T09:51:04.000Z</time>
</trkpt>
<trkpt lat="56.927426" lon="8.343638">
<ele>20.738252</ele>
<time>2026-07-14T09:51:05.000Z</time>
</trkpt>
<trkpt lat="56.927485" lon="8.343578">
<ele>20.580790</ele>
<time>2026-07-14T09:51:06.000Z</time>
</trkpt>
<trkpt lat="56.927547" lon="8.343523">
<ele>20.420047</ele>
<time>2026-07-14T09:51:07.000Z</time>
</trkpt>
<trkpt lat="56.927609" lon="8.343476">
<ele>20.263473</ele>
<time>2026-07-14T09:51:08.000Z</time>
</trkpt>
<trkpt lat="56.927673" lon="8.343439">
<ele>20.106867</ele>
<time>2026-07-14T09:51:09.000Z</time>
</trkpt>
<trkpt lat="56.927738" lon="8.343412">
<ele>19.951336</ele>
<time>2026-07-14T09:51:10.000Z</time>
</trkpt>
<trkpt lat="56.927805" lon="8.343397">
<ele>19.793823</ele>
<time>2026-07-14T09:51:11.000Z</time>
</trkpt>
<trkpt lat="56.927871" lon="8.343388">
<ele>19.639380</ele>
<time>2026-07-14T09:51:12.000Z</time>
</trkpt>
<trkpt lat="56.927934" lon="8.343384">
<ele>19.492276</ele>
<time>2026-07-14T09:51:13.000Z</time>
</trkpt>
<trkpt lat="56.927998" lon="8.343389">
<ele>19.342791</ele>
<time>2026-07-14T09:51:14.000Z</time>
</trkpt>
<trkpt lat="56.928062" lon="8.343401">
<ele>19.192661</ele>
<time>2026-07-14T09:51:15.000Z</time>
</trkpt>
<trkpt lat="56.928123" lon="8.343416">
<ele>19.049036</ele>
<time>2026-07-14T09:51:16.000Z</time>
</trkpt>
<trkpt lat="56.928176" lon="8.343429">
<ele>18.924253</ele>
<time>2026-07-14T09:51:17.000Z</time>
</trkpt>
<trkpt lat="56.928222" lon="8.343441">
<ele>18.815826</ele>
<time>2026-07-14T09:51:18.000Z</time>
</trkpt>
<trkpt lat="56.928260" lon="8.343453">
<ele>18.725842</ele>
<time>2026-07-14T09:51:19.000Z</time>
</trkpt>
<trkpt lat="56.928292" lon="8.343466">
<ele>18.649354</ele>
<time>2026-07-14T09:51:20.000Z</time>
</trkpt>
<trkpt lat="56.928322" lon="8.343489">
<ele>18.573467</ele>
<time>2026-07-14T09:51:21.000Z</time>
</trkpt>
<trkpt lat="56.928351" lon="8.343526">
<ele>18.491007</ele>
<time>2026-07-14T09:51:22.000Z</time>
</trkpt>
<trkpt lat="56.928370" lon="8.343576">
<ele>18.491547</ele>
<time>2026-07-14T09:51:23.000Z</time>
</trkpt>
<trkpt lat="56.928377" lon="8.343636">
<ele>18.514871</ele>
<time>2026-07-14T09:51:24.000Z</time>
</trkpt>
<trkpt lat="56.928379" lon="8.343701">
<ele>18.539619</ele>
<time>2026-07-14T09:51:25.000Z</time>
</trkpt>
<trkpt lat="56.928377" lon="8.343766">
<ele>18.564368</ele>
<time>2026-07-14T09:51:26.000Z</time>
</trkpt>
<trkpt lat="56.928374" lon="8.343832">
<ele>18.589544</ele>
<time>2026-07-14T09:51:27.000Z</time>
</trkpt>
<trkpt lat="56.928370" lon="8.343908">
<ele>18.618569</ele>
<time>2026-07-14T09:51:28.000Z</time>
</trkpt>
<trkpt lat="56.928364" lon="8.343989">
<ele>18.649642</ele>
<time>2026-07-14T09:51:29.000Z</time>
</trkpt>
<trkpt lat="56.928358" lon="8.344065">
<ele>18.678834</ele>
<time>2026-07-14T09:51:30.000Z</time>
</trkpt>
<trkpt lat="56.928352" lon="8.344142">
<ele>18.708401</ele>
<time>2026-07-14T09:51:31.000Z</time>
</trkpt>
<trkpt lat="56.928345" lon="8.344218">
<ele>18.737701</ele>
<time>2026-07-14T09:51:32.000Z</time>
</trkpt>
<trkpt lat="56.928335" lon="8.344297">
<ele>18.768529</ele>
<time>2026-07-14T09:51:33.000Z</time>
</trkpt>
<trkpt lat="56.928325" lon="8.344380">
<ele>18.800841</ele>
<time>2026-07-14T09:51:34.000Z</time>
</trkpt>
<trkpt lat="56.928316" lon="8.344462">
<ele>18.832637</ele>
<time>2026-07-14T09:51:35.000Z</time>
</trkpt>
<trkpt lat="56.928307" lon="8.344546">
<ele>18.865178</ele>
<time>2026-07-14T09:51:36.000Z</time>
</trkpt>
<trkpt lat="56.928297" lon="8.344630">
<ele>18.897861</ele>
<time>2026-07-14T09:51:37.000Z</time>
</trkpt>
<trkpt lat="56.928285" lon="8.344717">
<ele>18.931973</ele>
<time>2026-07-14T09:51:38.000Z</time>
</trkpt>
<trkpt lat="56.928276" lon="8.344809">
<ele>18.967504</ele>
<time>2026-07-14T09:51:39.000Z</time>
</trkpt>
<trkpt lat="56.928267" lon="8.344898">
<ele>19.001912</ele>
<time>2026-07-14T09:51:40.000Z</time>
</trkpt>
<trkpt lat="56.928255" lon="8.344986">
<ele>19.036393</ele>
<time>2026-07-14T09:51:41.000Z</time>
</trkpt>
<trkpt lat="56.928244" lon="8.345076">
<ele>19.071454</ele>
<time>2026-07-14T09:51:42.000Z</time>
</trkpt>
<trkpt lat="56.928230" lon="8.345167">
<ele>19.107395</ele>
<time>2026-07-14T09:51:43.000Z</time>
</trkpt>
<trkpt lat="56.928217" lon="8.345259">
<ele>19.143522</ele>
<time>2026-07-14T09:51:44.000Z</time>
</trkpt>
<trkpt lat="56.928205" lon="8.345350">
<ele>19.179110</ele>
<time>2026-07-14T09:51:45.000Z</time>
</trkpt>
<trkpt lat="56.928194" lon="8.345444">
<ele>19.215656</ele>
<time>2026-07-14T09:51:46.000Z</time>
</trkpt>
<trkpt lat="56.928183" lon="8.345536">
<ele>19.251459</ele>
<time>2026-07-14T09:51:47.000Z</time>
</trkpt>
<trkpt lat="56.928169" lon="8.345625">
<ele>19.286669</ele>
<time>2026-07-14T09:51:48.000Z</time>
</trkpt>
<trkpt lat="56.928156" lon="8.345718">
<ele>19.323164</ele>
<time>2026-07-14T09:51:49.000Z</time>
</trkpt>
<trkpt lat="56.928144" lon="8.345810">
<ele>19.359122</ele>
<time>2026-07-14T09:51:50.000Z</time>
</trkpt>
<trkpt lat="56.928131" lon="8.345903">
<ele>19.395617</ele>
<time>2026-07-14T09:51:51.000Z</time>
</trkpt>
<trkpt lat="56.928115" lon="8.345996">
<ele>19.432685</ele>
<time>2026-07-14T09:51:52.000Z</time>
</trkpt>
<trkpt lat="56.928102" lon="8.346087">
<ele>19.468444</ele>
<time>2026-07-14T09:51:53.000Z</time>
</trkpt>
<trkpt lat="56.928089" lon="8.346175">
<ele>19.503101</ele>
<time>2026-07-14T09:51:54.000Z</time>
</trkpt>
<trkpt lat="56.928076" lon="8.346266">
<ele>19.538860</ele>
<time>2026-07-14T09:51:55.000Z</time>
</trkpt>
<trkpt lat="56.928064" lon="8.346358">
<ele>19.574818</ele>
<time>2026-07-14T09:51:56.000Z</time>
</trkpt>
<trkpt lat="56.928053" lon="8.346448">
<ele>19.609879</ele>
<time>2026-07-14T09:51:57.000Z</time>
</trkpt>
<trkpt lat="56.928039" lon="8.346539">
<ele>19.645820</ele>
<time>2026-07-14T09:51:58.000Z</time>
</trkpt>
<trkpt lat="56.928026" lon="8.346632">
<ele>19.682315</ele>
<time>2026-07-14T09:51:59.000Z</time>
</trkpt>
<trkpt lat="56.928016" lon="8.346728">
<ele>19.719468</ele>
<time>2026-07-14T09:52:00.000Z</time>
</trkpt>
<trkpt lat="56.928009" lon="8.346823">
<ele>19.769027</ele>
<time>2026-07-14T09:52:01.000Z</time>
</trkpt>
<trkpt lat="56.927997" lon="8.346916">
<ele>19.821596</ele>
<time>2026-07-14T09:52:02.000Z</time>
</trkpt>
<trkpt lat="56.927984" lon="8.347009">
<ele>19.874407</ele>
<time>2026-07-14T09:52:03.000Z</time>
</trkpt>
<trkpt lat="56.927973" lon="8.347104">
<ele>19.927830</ele>
<time>2026-07-14T09:52:04.000Z</time>
</trkpt>
<trkpt lat="56.927961" lon="8.347200">
<ele>19.982007</ele>
<time>2026-07-14T09:52:05.000Z</time>
</trkpt>
<trkpt lat="56.927950" lon="8.347294">
<ele>20.034892</ele>
<time>2026-07-14T09:52:06.000Z</time>
</trkpt>
<trkpt lat="56.927938" lon="8.347389">
<ele>20.088533</ele>
<time>2026-07-14T09:52:07.000Z</time>
</trkpt>
<trkpt lat="56.927927" lon="8.347483">
<ele>20.141417</ele>
<time>2026-07-14T09:52:08.000Z</time>
</trkpt>
<trkpt lat="56.927913" lon="8.347577">
<ele>20.195018</ele>
<time>2026-07-14T09:52:09.000Z</time>
</trkpt>
<trkpt lat="56.927898" lon="8.347667">
<ele>20.246784</ele>
<time>2026-07-14T09:52:10.000Z</time>
</trkpt>
<trkpt lat="56.927885" lon="8.347761">
<ele>20.300128</ele>
<time>2026-07-14T09:52:11.000Z</time>
</trkpt>
<trkpt lat="56.927871" lon="8.347856">
<ele>20.354260</ele>
<time>2026-07-14T09:52:12.000Z</time>
</trkpt>
<trkpt lat="56.927856" lon="8.347948">
<ele>20.407080</ele>
<time>2026-07-14T09:52:13.000Z</time>
</trkpt>
<trkpt lat="56.927841" lon="8.348040">
<ele>20.459899</ele>
<time>2026-07-14T09:52:14.000Z</time>
</trkpt>
<trkpt lat="56.927828" lon="8.348128">
<ele>20.510051</ele>
<time>2026-07-14T09:52:15.000Z</time>
</trkpt>
<trkpt lat="56.927815" lon="8.348220">
<ele>20.562329</ele>
<time>2026-07-14T09:52:16.000Z</time>
</trkpt>
<trkpt lat="56.927799" lon="8.348318">
<ele>20.618600</ele>
<time>2026-07-14T09:52:17.000Z</time>
</trkpt>
<trkpt lat="56.927786" lon="8.348409">
<ele>20.670346</ele>
<time>2026-07-14T09:52:18.000Z</time>
</trkpt>
<trkpt lat="56.927776" lon="8.348503">
<ele>20.723029</ele>
<time>2026-07-14T09:52:19.000Z</time>
</trkpt>
<trkpt lat="56.927767" lon="8.348595">
<ele>20.774444</ele>
<time>2026-07-14T09:52:20.000Z</time>
</trkpt>
<trkpt lat="56.927754" lon="8.348691">
<ele>20.828856</ele>
<time>2026-07-14T09:52:21.000Z</time>
</trkpt>
<trkpt lat="56.927740" lon="8.348791">
<ele>20.885647</ele>
<time>2026-07-14T09:52:22.000Z</time>
</trkpt>
<trkpt lat="56.927728" lon="8.348884">
<ele>20.938217</ele>
<time>2026-07-14T09:52:23.000Z</time>
</trkpt>
<trkpt lat="56.927715" lon="8.348978">
<ele>20.991562</ele>
<time>2026-07-14T09:52:24.000Z</time>
</trkpt>
<trkpt lat="56.927702" lon="8.349071">
<ele>21.044373</ele>
<time>2026-07-14T09:52:25.000Z</time>
</trkpt>
<trkpt lat="56.927688" lon="8.349167">
<ele>21.099036</ele>
<time>2026-07-14T09:52:26.000Z</time>
</trkpt>
<trkpt lat="56.927677" lon="8.349266">
<ele>21.154613</ele>
<time>2026-07-14T09:52:27.000Z</time>
</trkpt>
<trkpt lat="56.927667" lon="8.349365">
<ele>21.209998</ele>
<time>2026-07-14T09:52:28.000Z</time>
</trkpt>
<trkpt lat="56.927656" lon="8.349458">
<ele>21.262346</ele>
<time>2026-07-14T09:52:29.000Z</time>
</trkpt>
<trkpt lat="56.927645" lon="8.349551">
<ele>21.314693</ele>
<time>2026-07-14T09:52:30.000Z</time>
</trkpt>
<trkpt lat="56.927633" lon="8.349648">
<ele>21.369407</ele>
<time>2026-07-14T09:52:31.000Z</time>
</trkpt>
<trkpt lat="56.927622" lon="8.349742">
<ele>21.422292</ele>
<time>2026-07-14T09:52:32.000Z</time>
</trkpt>
<trkpt lat="56.927608" lon="8.349835">
<ele>21.475363</ele>
<time>2026-07-14T09:52:33.000Z</time>
</trkpt>
<trkpt lat="56.927597" lon="8.349928">
<ele>21.527710</ele>
<time>2026-07-14T09:52:34.000Z</time>
</trkpt>
<trkpt lat="56.927585" lon="8.350021">
<ele>21.583619</ele>
<time>2026-07-14T09:52:35.000Z</time>
</trkpt>
<trkpt lat="56.927572" lon="8.350112">
<ele>21.639624</ele>
<time>2026-07-14T09:52:36.000Z</time>
</trkpt>
<trkpt lat="56.927561" lon="8.350206">
<ele>21.696863</ele>
<time>2026-07-14T09:52:37.000Z</time>
</trkpt>
<trkpt lat="56.927549" lon="8.350301">
<ele>21.754920</ele>
<time>2026-07-14T09:52:38.000Z</time>
</trkpt>
<trkpt lat="56.927536" lon="8.350392">
<ele>21.810926</ele>
<time>2026-07-14T09:52:39.000Z</time>
</trkpt>
<trkpt lat="56.927523" lon="8.350486">
<ele>21.868661</ele>
<time>2026-07-14T09:52:40.000Z</time>
</trkpt>
<trkpt lat="56.927513" lon="8.350585">
<ele>21.928606</ele>
<time>2026-07-14T09:52:41.000Z</time>
</trkpt>
<trkpt lat="56.927503" lon="8.350680">
<ele>21.986210</ele>
<time>2026-07-14T09:52:42.000Z</time>
</trkpt>
<trkpt lat="56.927492" lon="8.350775">
<ele>22.044031</ele>
<time>2026-07-14T09:52:43.000Z</time>
</trkpt>
<trkpt lat="56.927477" lon="8.350862">
<ele>22.098353</ele>
<time>2026-07-14T09:52:44.000Z</time>
</trkpt>
<trkpt lat="56.927460" lon="8.350949">
<ele>22.153373</ele>
<time>2026-07-14T09:52:45.000Z</time>
</trkpt>
<trkpt lat="56.927446" lon="8.351049">
<ele>22.214839</ele>
<time>2026-07-14T09:52:46.000Z</time>
</trkpt>
<trkpt lat="56.927435" lon="8.351143">
<ele>22.272078</ele>
<time>2026-07-14T09:52:47.000Z</time>
</trkpt>
<trkpt lat="56.927424" lon="8.351240">
<ele>22.331064</ele>
<time>2026-07-14T09:52:48.000Z</time>
</trkpt>
<trkpt lat="56.927410" lon="8.351337">
<ele>22.390803</ele>
<time>2026-07-14T09:52:49.000Z</time>
</trkpt>
<trkpt lat="56.927395" lon="8.351431">
<ele>22.449113</ele>
<time>2026-07-14T09:52:50.000Z</time>
</trkpt>
<trkpt lat="56.927381" lon="8.351527">
<ele>22.508276</ele>
<time>2026-07-14T09:52:51.000Z</time>
</trkpt>
<trkpt lat="56.927368" lon="8.351621">
<ele>22.566012</ele>
<time>2026-07-14T09:52:52.000Z</time>
</trkpt>
<trkpt lat="56.927355" lon="8.351714">
<ele>22.623170</ele>
<time>2026-07-14T09:52:53.000Z</time>
</trkpt>
<trkpt lat="56.927343" lon="8.351809">
<ele>22.681228</ele>
<time>2026-07-14T09:52:54.000Z</time>
</trkpt>
<trkpt lat="56.927332" lon="8.351908">
<ele>22.741381</ele>
<time>2026-07-14T09:52:55.000Z</time>
</trkpt>
<trkpt lat="56.927318" lon="8.352005">
<ele>22.801119</ele>
<time>2026-07-14T09:52:56.000Z</time>
</trkpt>
<trkpt lat="56.927303" lon="8.352101">
<ele>22.860573</ele>
<time>2026-07-14T09:52:57.000Z</time>
</trkpt>
<trkpt lat="56.927288" lon="8.352200">
<ele>22.921747</ele>
<time>2026-07-14T09:52:58.000Z</time>
</trkpt>
<trkpt lat="56.927272" lon="8.352299">
<ele>22.983221</ele>
<time>2026-07-14T09:52:59.000Z</time>
</trkpt>
<trkpt lat="56.927257" lon="8.352395">
<ele>23.042675</ele>
<time>2026-07-14T09:53:00.000Z</time>
</trkpt>
<trkpt lat="56.927244" lon="8.352488">
<ele>23.099834</ele>
<time>2026-07-14T09:53:01.000Z</time>
</trkpt>
<trkpt lat="56.927232" lon="8.352581">
<ele>23.156732</ele>
<time>2026-07-14T09:53:02.000Z</time>
</trkpt>
<trkpt lat="56.927221" lon="8.352677">
<ele>23.215136</ele>
<time>2026-07-14T09:53:03.000Z</time>
</trkpt>
<trkpt lat="56.927210" lon="8.352773">
<ele>23.273540</ele>
<time>2026-07-14T09:53:04.000Z</time>
</trkpt>
<trkpt lat="56.927196" lon="8.352867">
<ele>23.331554</ele>
<time>2026-07-14T09:53:05.000Z</time>
</trkpt>
<trkpt lat="56.927183" lon="8.352961">
<ele>23.389290</ele>
<time>2026-07-14T09:53:06.000Z</time>
</trkpt>
<trkpt lat="56.927170" lon="8.353053">
<ele>23.445872</ele>
<time>2026-07-14T09:53:07.000Z</time>
</trkpt>
<trkpt lat="56.927154" lon="8.353148">
<ele>23.505134</ele>
<time>2026-07-14T09:53:08.000Z</time>
</trkpt>
<trkpt lat="56.927139" lon="8.353243">
<ele>23.565371</ele>
<time>2026-07-14T09:53:09.000Z</time>
</trkpt>
<trkpt lat="56.927126" lon="8.353337">
<ele>23.624434</ele>
<time>2026-07-14T09:53:10.000Z</time>
</trkpt>
<trkpt lat="56.927112" lon="8.353434">
<ele>23.685547</ele>
<time>2026-07-14T09:53:11.000Z</time>
</trkpt>
<trkpt lat="56.927100" lon="8.353523">
<ele>23.741386</ele>
<time>2026-07-14T09:53:12.000Z</time>
</trkpt>
<trkpt lat="56.927087" lon="8.353617">
<ele>23.800450</ele>
<time>2026-07-14T09:53:13.000Z</time>
</trkpt>
<trkpt lat="56.927070" lon="8.353725">
<ele>23.868913</ele>
<time>2026-07-14T09:53:14.000Z</time>
</trkpt>
<trkpt lat="56.927057" lon="8.353819">
<ele>23.927977</ele>
<time>2026-07-14T09:53:15.000Z</time>
</trkpt>
<trkpt lat="56.927042" lon="8.353912">
<ele>23.987044</ele>
<time>2026-07-14T09:53:16.000Z</time>
</trkpt>
<trkpt lat="56.927024" lon="8.354004">
<ele>24.046572</ele>
<time>2026-07-14T09:53:17.000Z</time>
</trkpt>
<trkpt lat="56.927009" lon="8.354096">
<ele>24.105056</ele>
<time>2026-07-14T09:53:18.000Z</time>
</trkpt>
<trkpt lat="56.926994" lon="8.354186">
<ele>24.162373</ele>
<time>2026-07-14T09:53:19.000Z</time>
</trkpt>
<trkpt lat="56.926979" lon="8.354279">
<ele>24.221441</ele>
<time>2026-07-14T09:53:20.000Z</time>
</trkpt>
<trkpt lat="56.926961" lon="8.354372">
<ele>24.281543</ele>
<time>2026-07-14T09:53:21.000Z</time>
</trkpt>
<trkpt lat="56.926944" lon="8.354464">
<ele>24.340704</ele>
<time>2026-07-14T09:53:22.000Z</time>
</trkpt>
<trkpt lat="56.926929" lon="8.354556">
<ele>24.399188</ele>
<time>2026-07-14T09:53:23.000Z</time>
</trkpt>
<trkpt lat="56.926912" lon="8.354647">
<ele>24.457773</ele>
<time>2026-07-14T09:53:24.000Z</time>
</trkpt>
<trkpt lat="56.926891" lon="8.354738">
<ele>24.517952</ele>
<time>2026-07-14T09:53:25.000Z</time>
</trkpt>
<trkpt lat="56.926870" lon="8.354828">
<ele>24.577570</ele>
<time>2026-07-14T09:53:26.000Z</time>
</trkpt>
<trkpt lat="56.926853" lon="8.354920">
<ele>24.636732</ele>
<time>2026-07-14T09:53:27.000Z</time>
</trkpt>
<trkpt lat="56.926837" lon="8.355012">
<ele>24.695545</ele>
<time>2026-07-14T09:53:28.000Z</time>
</trkpt>
<trkpt lat="56.926820" lon="8.355104">
<ele>24.754706</ele>
<time>2026-07-14T09:53:29.000Z</time>
</trkpt>
<trkpt lat="56.926803" lon="8.355193">
<ele>24.812140</ele>
<time>2026-07-14T09:53:30.000Z</time>
</trkpt>
<trkpt lat="56.926786" lon="8.355285">
<ele>24.871302</ele>
<time>2026-07-14T09:53:31.000Z</time>
</trkpt>
<trkpt lat="56.926767" lon="8.355378">
<ele>24.931786</ele>
<time>2026-07-14T09:53:32.000Z</time>
</trkpt>
<trkpt lat="56.926748" lon="8.355470">
<ele>24.991701</ele>
<time>2026-07-14T09:53:33.000Z</time>
</trkpt>
<trkpt lat="56.926731" lon="8.355563">
<ele>25.051440</ele>
<time>2026-07-14T09:53:34.000Z</time>
</trkpt>
<trkpt lat="56.926716" lon="8.355651">
<ele>25.107594</ele>
<time>2026-07-14T09:53:35.000Z</time>
</trkpt>
<trkpt lat="56.926697" lon="8.355740">
<ele>25.165803</ele>
<time>2026-07-14T09:53:36.000Z</time>
</trkpt>
<trkpt lat="56.926675" lon="8.355832">
<ele>25.226984</ele>
<time>2026-07-14T09:53:37.000Z</time>
</trkpt>
<trkpt lat="56.926658" lon="8.355921">
<ele>25.284418</ele>
<time>2026-07-14T09:53:38.000Z</time>
</trkpt>
<trkpt lat="56.926641" lon="8.356012">
<ele>25.343003</ele>
<time>2026-07-14T09:53:39.000Z</time>
</trkpt>
<trkpt lat="56.926624" lon="8.356105">
<ele>25.402742</ele>
<time>2026-07-14T09:53:40.000Z</time>
</trkpt>
<trkpt lat="56.926605" lon="8.356197">
<ele>25.462657</ele>
<time>2026-07-14T09:53:41.000Z</time>
</trkpt>
<trkpt lat="56.926584" lon="8.356288">
<ele>25.522044</ele>
<time>2026-07-14T09:53:42.000Z</time>
</trkpt>
<trkpt lat="56.926563" lon="8.356380">
<ele>25.579128</ele>
<time>2026-07-14T09:53:43.000Z</time>
</trkpt>
<trkpt lat="56.926540" lon="8.356470">
<ele>25.636015</ele>
<time>2026-07-14T09:53:44.000Z</time>
</trkpt>
<trkpt lat="56.926517" lon="8.356561">
<ele>25.693421</ele>
<time>2026-07-14T09:53:45.000Z</time>
</trkpt>
<trkpt lat="56.926494" lon="8.356652">
<ele>25.750827</ele>
<time>2026-07-14T09:53:46.000Z</time>
</trkpt>
<trkpt lat="56.926471" lon="8.356742">
<ele>25.807714</ele>
<time>2026-07-14T09:53:47.000Z</time>
</trkpt>
<trkpt lat="56.926450" lon="8.356833">
<ele>25.864270</ele>
<time>2026-07-14T09:53:48.000Z</time>
</trkpt>
<trkpt lat="56.926431" lon="8.356925">
<ele>25.920578</ele>
<time>2026-07-14T09:53:49.000Z</time>
</trkpt>
<trkpt lat="56.926410" lon="8.357017">
<ele>25.977662</ele>
<time>2026-07-14T09:53:50.000Z</time>
</trkpt>
<trkpt lat="56.926389" lon="8.357109">
<ele>26.034746</ele>
<time>2026-07-14T09:53:51.000Z</time>
</trkpt>
<trkpt lat="56.926368" lon="8.357199">
<ele>26.090776</ele>
<time>2026-07-14T09:53:52.000Z</time>
</trkpt>
<trkpt lat="56.926347" lon="8.357289">
<ele>26.146806</ele>
<time>2026-07-14T09:53:53.000Z</time>
</trkpt>
<trkpt lat="56.926324" lon="8.357380">
<ele>26.204212</ele>
<time>2026-07-14T09:53:54.000Z</time>
</trkpt>
<trkpt lat="56.926299" lon="8.357469">
<ele>26.261511</ele>
<time>2026-07-14T09:53:55.000Z</time>
</trkpt>
<trkpt lat="56.926278" lon="8.357560">
<ele>26.318067</ele>
<time>2026-07-14T09:53:56.000Z</time>
</trkpt>
<trkpt lat="56.926258" lon="8.357648">
<ele>26.372635</ele>
<time>2026-07-14T09:53:57.000Z</time>
</trkpt>
<trkpt lat="56.926235" lon="8.357736">
<ele>26.428487</ele>
<time>2026-07-14T09:53:58.000Z</time>
</trkpt>
<trkpt lat="56.926212" lon="8.357826">
<ele>26.485375</ele>
<time>2026-07-14T09:53:59.000Z</time>
</trkpt>
<trkpt lat="56.926191" lon="8.357915">
<ele>26.540879</ele>
<time>2026-07-14T09:54:00.000Z</time>
</trkpt>
<trkpt lat="56.926168" lon="8.358003">
<ele>26.596732</ele>
<time>2026-07-14T09:54:01.000Z</time>
</trkpt>
<trkpt lat="56.926143" lon="8.358093">
<ele>26.654540</ele>
<time>2026-07-14T09:54:02.000Z</time>
</trkpt>
<trkpt lat="56.926122" lon="8.358176">
<ele>26.706909</ele>
<time>2026-07-14T09:54:03.000Z</time>
</trkpt>
<trkpt lat="56.926098" lon="8.358263">
<ele>26.762712</ele>
<time>2026-07-14T09:54:04.000Z</time>
</trkpt>
<trkpt lat="56.926069" lon="8.358359">
<ele>26.825522</ele>
<time>2026-07-14T09:54:05.000Z</time>
</trkpt>
<trkpt lat="56.926044" lon="8.358448">
<ele>26.882821</ele>
<time>2026-07-14T09:54:06.000Z</time>
</trkpt>
<trkpt lat="56.926021" lon="8.358537">
<ele>26.939191</ele>
<time>2026-07-14T09:54:07.000Z</time>
</trkpt>
<trkpt lat="56.925997" lon="8.358624">
<ele>26.994994</ele>
<time>2026-07-14T09:54:08.000Z</time>
</trkpt>
<trkpt lat="56.925970" lon="8.358713">
<ele>27.053283</ele>
<time>2026-07-14T09:54:09.000Z</time>
</trkpt>
<trkpt lat="56.925943" lon="8.358803">
<ele>27.112073</ele>
<time>2026-07-14T09:54:10.000Z</time>
</trkpt>
<trkpt lat="56.925916" lon="8.358893">
<ele>27.170863</ele>
<time>2026-07-14T09:54:11.000Z</time>
</trkpt>
<trkpt lat="56.925891" lon="8.358985">
<ele>27.229694</ele>
<time>2026-07-14T09:54:12.000Z</time>
</trkpt>
<trkpt lat="56.925869" lon="8.359071">
<ele>27.284064</ele>
<time>2026-07-14T09:54:13.000Z</time>
</trkpt>
<trkpt lat="56.925843" lon="8.359158">
<ele>27.340844</ele>
<time>2026-07-14T09:54:14.000Z</time>
</trkpt>
<trkpt lat="56.925813" lon="8.359250">
<ele>27.402033</ele>
<time>2026-07-14T09:54:15.000Z</time>
</trkpt>
<trkpt lat="56.925786" lon="8.359338">
<ele>27.458241</ele>
<time>2026-07-14T09:54:16.000Z</time>
</trkpt>
<trkpt lat="56.925758" lon="8.359425">
<ele>27.514476</ele>
<time>2026-07-14T09:54:17.000Z</time>
</trkpt>
<trkpt lat="56.925731" lon="8.359513">
<ele>27.570684</ele>
<time>2026-07-14T09:54:18.000Z</time>
</trkpt>
<trkpt lat="56.925706" lon="8.359602">
<ele>27.626415</ele>
<time>2026-07-14T09:54:19.000Z</time>
</trkpt>
<trkpt lat="56.925679" lon="8.359691">
<ele>27.683110</ele>
<time>2026-07-14T09:54:20.000Z</time>
</trkpt>
<trkpt lat="56.925653" lon="8.359780">
<ele>27.739315</ele>
<time>2026-07-14T09:54:21.000Z</time>
</trkpt>
<trkpt lat="56.925626" lon="8.359867">
<ele>27.795039</ele>
<time>2026-07-14T09:54:22.000Z</time>
</trkpt>
<trkpt lat="56.925600" lon="8.359951">
<ele>27.848807</ele>
<time>2026-07-14T09:54:23.000Z</time>
</trkpt>
<trkpt lat="56.925573" lon="8.360035">
<ele>27.903085</ele>
<time>2026-07-14T09:54:24.000Z</time>
</trkpt>
<trkpt lat="56.925547" lon="8.360120">
<ele>27.957337</ele>
<time>2026-07-14T09:54:25.000Z</time>
</trkpt>
<trkpt lat="56.925520" lon="8.360205">
<ele>28.012096</ele>
<time>2026-07-14T09:54:26.000Z</time>
</trkpt>
<trkpt lat="56.925491" lon="8.360290">
<ele>28.067909</ele>
<time>2026-07-14T09:54:27.000Z</time>
</trkpt>
<trkpt lat="56.925463" lon="8.360375">
<ele>28.123188</ele>
<time>2026-07-14T09:54:28.000Z</time>
</trkpt>
<trkpt lat="56.925435" lon="8.360463">
<ele>28.179904</ele>
<time>2026-07-14T09:54:29.000Z</time>
</trkpt>
<trkpt lat="56.925407" lon="8.360549">
<ele>28.235660</ele>
<time>2026-07-14T09:54:30.000Z</time>
</trkpt>
<trkpt lat="56.925378" lon="8.360637">
<ele>28.292896</ele>
<time>2026-07-14T09:54:31.000Z</time>
</trkpt>
<trkpt lat="56.925352" lon="8.360725">
<ele>28.348612</ele>
<time>2026-07-14T09:54:32.000Z</time>
</trkpt>
<trkpt lat="56.925323" lon="8.360811">
<ele>28.404898</ele>
<time>2026-07-14T09:54:33.000Z</time>
</trkpt>
<trkpt lat="56.925294" lon="8.360895">
<ele>28.460240</ele>
<time>2026-07-14T09:54:34.000Z</time>
</trkpt>
<trkpt lat="56.925266" lon="8.360980">
<ele>28.515519</ele>
<time>2026-07-14T09:54:35.000Z</time>
</trkpt>
<trkpt lat="56.925237" lon="8.361066">
<ele>28.571806</ele>
<time>2026-07-14T09:54:36.000Z</time>
</trkpt>
<trkpt lat="56.925209" lon="8.361150">
<ele>28.626609</ele>
<time>2026-07-14T09:54:37.000Z</time>
</trkpt>
<trkpt lat="56.925180" lon="8.361233">
<ele>28.681481</ele>
<time>2026-07-14T09:54:38.000Z</time>
</trkpt>
<trkpt lat="56.925151" lon="8.361319">
<ele>28.737768</ele>
<time>2026-07-14T09:54:39.000Z</time>
</trkpt>
<trkpt lat="56.925122" lon="8.361404">
<ele>28.793581</ele>
<time>2026-07-14T09:54:40.000Z</time>
</trkpt>
<trkpt lat="56.925096" lon="8.361487">
<ele>28.846865</ele>
<time>2026-07-14T09:54:41.000Z</time>
</trkpt>
<trkpt lat="56.925067" lon="8.361570">
<ele>28.901738</ele>
<time>2026-07-14T09:54:42.000Z</time>
</trkpt>
<trkpt lat="56.925037" lon="8.361653">
<ele>28.957167</ele>
<time>2026-07-14T09:54:43.000Z</time>
</trkpt>
<trkpt lat="56.925008" lon="8.361736">
<ele>29.012040</ele>
<time>2026-07-14T09:54:44.000Z</time>
</trkpt>
<trkpt lat="56.924981" lon="8.361816">
<ele>29.064412</ele>
<time>2026-07-14T09:54:45.000Z</time>
</trkpt>
<trkpt lat="56.924952" lon="8.361899">
<ele>29.119284</ele>
<time>2026-07-14T09:54:46.000Z</time>
</trkpt>
<trkpt lat="56.924925" lon="8.361984">
<ele>29.174043</ele>
<time>2026-07-14T09:54:47.000Z</time>
</trkpt>
<trkpt lat="56.924896" lon="8.362068">
<ele>29.229386</ele>
<time>2026-07-14T09:54:48.000Z</time>
</trkpt>
<trkpt lat="56.924867" lon="8.362150">
<ele>29.259895</ele>
<time>2026-07-14T09:54:49.000Z</time>
</trkpt>
<trkpt lat="56.924839" lon="8.362228">
<ele>29.288177</ele>
<time>2026-07-14T09:54:50.000Z</time>
</trkpt>
<trkpt lat="56.924808" lon="8.362310">
<ele>29.318396</ele>
<time>2026-07-14T09:54:51.000Z</time>
</trkpt>
<trkpt lat="56.924779" lon="8.362392">
<ele>29.347996</ele>
<time>2026-07-14T09:54:52.000Z</time>
</trkpt>
<trkpt lat="56.924750" lon="8.362473">
<ele>29.377342</ele>
<time>2026-07-14T09:54:53.000Z</time>
</trkpt>
<trkpt lat="56.924720" lon="8.362553">
<ele>29.406746</ele>
<time>2026-07-14T09:54:54.000Z</time>
</trkpt>
<trkpt lat="56.924691" lon="8.362628">
<ele>29.434591</ele>
<time>2026-07-14T09:54:55.000Z</time>
</trkpt>
<trkpt lat="56.924661" lon="8.362708">
<ele>29.463995</ele>
<time>2026-07-14T09:54:56.000Z</time>
</trkpt>
<trkpt lat="56.924629" lon="8.362793">
<ele>29.495276</ele>
<time>2026-07-14T09:54:57.000Z</time>
</trkpt>
<trkpt lat="56.924598" lon="8.362870">
<ele>29.524262</ele>
<time>2026-07-14T09:54:58.000Z</time>
</trkpt>
<trkpt lat="56.924568" lon="8.362945">
<ele>29.552431</ele>
<time>2026-07-14T09:54:59.000Z</time>
</trkpt>
<trkpt lat="56.924538" lon="8.363024">
<ele>29.581587</ele>
<time>2026-07-14T09:55:00.000Z</time>
</trkpt>
<trkpt lat="56.924507" lon="8.363105">
<ele>29.611556</ele>
<time>2026-07-14T09:55:01.000Z</time>
</trkpt>
<trkpt lat="56.924478" lon="8.363186">
<ele>29.640903</ele>
<time>2026-07-14T09:55:02.000Z</time>
</trkpt>
<trkpt lat="56.924450" lon="8.363265">
<ele>29.669439</ele>
<time>2026-07-14T09:55:03.000Z</time>
</trkpt>
<trkpt lat="56.924419" lon="8.363343">
<ele>29.698669</ele>
<time>2026-07-14T09:55:04.000Z</time>
</trkpt>
<trkpt lat="56.924387" lon="8.363420">
<ele>29.727988</ele>
<time>2026-07-14T09:55:05.000Z</time>
</trkpt>
<trkpt lat="56.924355" lon="8.363496">
<ele>29.757067</ele>
<time>2026-07-14T09:55:06.000Z</time>
</trkpt>
<trkpt lat="56.924324" lon="8.363571">
<ele>29.785568</ele>
<time>2026-07-14T09:55:07.000Z</time>
</trkpt>
<trkpt lat="56.924293" lon="8.363647">
<ele>29.814310</ele>
<time>2026-07-14T09:55:08.000Z</time>
</trkpt>
<trkpt lat="56.924262" lon="8.363724">
<ele>29.843297</ele>
<time>2026-07-14T09:55:09.000Z</time>
</trkpt>
<trkpt lat="56.924232" lon="8.363802">
<ele>29.872204</ele>
<time>2026-07-14T09:55:10.000Z</time>
</trkpt>
<trkpt lat="56.924202" lon="8.363877">
<ele>29.900373</ele>
<time>2026-07-14T09:55:11.000Z</time>
</trkpt>
<trkpt lat="56.924171" lon="8.363953">
<ele>29.929116</ele>
<time>2026-07-14T09:55:12.000Z</time>
</trkpt>
<trkpt lat="56.924140" lon="8.364030">
<ele>29.958102</ele>
<time>2026-07-14T09:55:13.000Z</time>
</trkpt>
<trkpt lat="56.924110" lon="8.364107">
<ele>29.986763</ele>
<time>2026-07-14T09:55:14.000Z</time>
</trkpt>
<trkpt lat="56.924077" lon="8.364183">
<ele>30.016184</ele>
<time>2026-07-14T09:55:15.000Z</time>
</trkpt>
<trkpt lat="56.924044" lon="8.364257">
<ele>30.045133</ele>
<time>2026-07-14T09:55:16.000Z</time>
</trkpt>
<trkpt lat="56.924011" lon="8.364333">
<ele>30.074554</ele>
<time>2026-07-14T09:55:17.000Z</time>
</trkpt>
<trkpt lat="56.923978" lon="8.364412">
<ele>30.104692</ele>
<time>2026-07-14T09:55:18.000Z</time>
</trkpt>
<trkpt lat="56.923945" lon="8.364490">
<ele>30.134590</ele>
<time>2026-07-14T09:55:19.000Z</time>
</trkpt>
<trkpt lat="56.923913" lon="8.364568">
<ele>30.164150</ele>
<time>2026-07-14T09:55:20.000Z</time>
</trkpt>
<trkpt lat="56.923883" lon="8.364640">
<ele>30.191592</ele>
<time>2026-07-14T09:55:21.000Z</time>
</trkpt>
<trkpt lat="56.923849" lon="8.364716">
<ele>30.221362</ele>
<time>2026-07-14T09:55:22.000Z</time>
</trkpt>
<trkpt lat="56.923812" lon="8.364796">
<ele>30.219696</ele>
<time>2026-07-14T09:55:23.000Z</time>
</trkpt>
<trkpt lat="56.923780" lon="8.364872">
<ele>30.207146</ele>
<time>2026-07-14T09:55:24.000Z</time>
</trkpt>
<trkpt lat="56.923746" lon="8.364948">
<ele>30.194299</ele>
<time>2026-07-14T09:55:25.000Z</time>
</trkpt>
<trkpt lat="56.923713" lon="8.365023">
<ele>30.181703</ele>
<time>2026-07-14T09:55:26.000Z</time>
</trkpt>
<trkpt lat="56.923681" lon="8.365097">
<ele>30.169360</ele>
<time>2026-07-14T09:55:27.000Z</time>
</trkpt>
<trkpt lat="56.923646" lon="8.365171">
<ele>30.156558</ele>
<time>2026-07-14T09:55:28.000Z</time>
</trkpt>
<trkpt lat="56.923614" lon="8.365244">
<ele>30.144316</ele>
<time>2026-07-14T09:55:29.000Z</time>
</trkpt>
<trkpt lat="56.923581" lon="8.365318">
<ele>30.131823</ele>
<time>2026-07-14T09:55:30.000Z</time>
</trkpt>
<trkpt lat="56.923548" lon="8.365391">
<ele>30.119430</ele>
<time>2026-07-14T09:55:31.000Z</time>
</trkpt>
<trkpt lat="56.923513" lon="8.365467">
<ele>30.106429</ele>
<time>2026-07-14T09:55:32.000Z</time>
</trkpt>
<trkpt lat="56.923478" lon="8.365544">
<ele>30.093328</ele>
<time>2026-07-14T09:55:33.000Z</time>
</trkpt>
<trkpt lat="56.923446" lon="8.365620">
<ele>30.080778</ele>
<time>2026-07-14T09:55:34.000Z</time>
</trkpt>
<trkpt lat="56.923415" lon="8.365698">
<ele>30.068163</ele>
<time>2026-07-14T09:55:35.000Z</time>
</trkpt>
<trkpt lat="56.923384" lon="8.365775">
<ele>30.055654</ele>
<time>2026-07-14T09:55:36.000Z</time>
</trkpt>
<trkpt lat="56.923350" lon="8.365852">
<ele>30.042705</ele>
<time>2026-07-14T09:55:37.000Z</time>
</trkpt>
<trkpt lat="56.923315" lon="8.365929">
<ele>30.029603</ele>
<time>2026-07-14T09:55:38.000Z</time>
</trkpt>
<trkpt lat="56.923280" lon="8.366006">
<ele>30.016502</ele>
<time>2026-07-14T09:55:39.000Z</time>
</trkpt>
<trkpt lat="56.923244" lon="8.366080">
<ele>30.003542</ele>
<time>2026-07-14T09:55:40.000Z</time>
</trkpt>
<trkpt lat="56.923206" lon="8.366156">
<ele>29.990066</ele>
<time>2026-07-14T09:55:41.000Z</time>
</trkpt>
<trkpt lat="56.923168" lon="8.366232">
<ele>29.976591</ele>
<time>2026-07-14T09:55:42.000Z</time>
</trkpt>
<trkpt lat="56.923130" lon="8.366306">
<ele>29.963306</ele>
<time>2026-07-14T09:55:43.000Z</time>
</trkpt>
<trkpt lat="56.923092" lon="8.366381">
<ele>29.949927</ele>
<time>2026-07-14T09:55:44.000Z</time>
</trkpt>
<trkpt lat="56.923055" lon="8.366456">
<ele>29.936709</ele>
<time>2026-07-14T09:55:45.000Z</time>
</trkpt>
<trkpt lat="56.923023" lon="8.366533">
<ele>29.924056</ele>
<time>2026-07-14T09:55:46.000Z</time>
</trkpt>
<trkpt lat="56.923000" lon="8.366614">
<ele>29.912118</ele>
<time>2026-07-14T09:55:47.000Z</time>
</trkpt>
<trkpt lat="56.922995" lon="8.366697">
<ele>29.901201</ele>
<time>2026-07-14T09:55:48.000Z</time>
</trkpt>
<trkpt lat="56.923005" lon="8.366775">
<ele>29.890726</ele>
<time>2026-07-14T09:55:49.000Z</time>
</trkpt>
<trkpt lat="56.923029" lon="8.366838">
<ele>29.880681</ele>
<time>2026-07-14T09:55:50.000Z</time>
</trkpt>
<trkpt lat="56.923071" lon="8.366886">
<ele>29.868823</ele>
<time>2026-07-14T09:55:51.000Z</time>
</trkpt>
<trkpt lat="56.923119" lon="8.366922">
<ele>29.856398</ele>
<time>2026-07-14T09:55:52.000Z</time>
</trkpt>
<trkpt lat="56.923170" lon="8.366954">
<ele>29.843485</ele>
<time>2026-07-14T09:55:53.000Z</time>
</trkpt>
<trkpt lat="56.923226" lon="8.366988">
<ele>29.829352</ele>
<time>2026-07-14T09:55:54.000Z</time>
</trkpt>
<trkpt lat="56.923280" lon="8.367024">
<ele>29.815587</ele>
<time>2026-07-14T09:55:55.000Z</time>
</trkpt>
<trkpt lat="56.923333" lon="8.367059">
<ele>29.802091</ele>
<time>2026-07-14T09:55:56.000Z</time>
</trkpt>
<trkpt lat="56.923385" lon="8.367093">
<ele>29.784611</ele>
<time>2026-07-14T09:55:57.000Z</time>
</trkpt>
<trkpt lat="56.923437" lon="8.367124">
<ele>29.765960</ele>
<time>2026-07-14T09:55:58.000Z</time>
</trkpt>
<trkpt lat="56.923486" lon="8.367158">
<ele>29.748089</ele>
<time>2026-07-14T09:55:59.000Z</time>
</trkpt>
<trkpt lat="56.923538" lon="8.367197">
<ele>29.728924</ele>
<time>2026-07-14T09:56:00.000Z</time>
</trkpt>
<trkpt lat="56.923591" lon="8.367238">
<ele>29.709302</ele>
<time>2026-07-14T09:56:01.000Z</time>
</trkpt>
<trkpt lat="56.923640" lon="8.367277">
<ele>29.691081</ele>
<time>2026-07-14T09:56:02.000Z</time>
</trkpt>
<trkpt lat="56.923689" lon="8.367313">
<ele>29.673075</ele>
<time>2026-07-14T09:56:03.000Z</time>
</trkpt>
<trkpt lat="56.923739" lon="8.367348">
<ele>29.654819</ele>
<time>2026-07-14T09:56:04.000Z</time>
</trkpt>
<trkpt lat="56.923786" lon="8.367384">
<ele>29.637444</ele>
<time>2026-07-14T09:56:05.000Z</time>
</trkpt>
<trkpt lat="56.923832" lon="8.367422">
<ele>29.620234</ele>
<time>2026-07-14T09:56:06.000Z</time>
</trkpt>
<trkpt lat="56.923882" lon="8.367459">
<ele>29.601842</ele>
<time>2026-07-14T09:56:07.000Z</time>
</trkpt>
<trkpt lat="56.923932" lon="8.367495">
<ele>29.583519</ele>
<time>2026-07-14T09:56:08.000Z</time>
</trkpt>
<trkpt lat="56.923982" lon="8.367530">
<ele>29.565263</ele>
<time>2026-07-14T09:56:09.000Z</time>
</trkpt>
<trkpt lat="56.924032" lon="8.367565">
<ele>29.547007</ele>
<time>2026-07-14T09:56:10.000Z</time>
</trkpt>
<trkpt lat="56.924084" lon="8.367600">
<ele>29.528112</ele>
<time>2026-07-14T09:56:11.000Z</time>
</trkpt>
<trkpt lat="56.924135" lon="8.367637">
<ele>29.509403</ele>
<time>2026-07-14T09:56:12.000Z</time>
</trkpt>
<trkpt lat="56.924184" lon="8.367672">
<ele>29.491466</ele>
<time>2026-07-14T09:56:13.000Z</time>
</trkpt>
<trkpt lat="56.924233" lon="8.367705">
<ele>29.473660</ele>
<time>2026-07-14T09:56:14.000Z</time>
</trkpt>
<trkpt lat="56.924284" lon="8.367740">
<ele>29.455085</ele>
<time>2026-07-14T09:56:15.000Z</time>
</trkpt>
<trkpt lat="56.924334" lon="8.367775">
<ele>29.436829</ele>
<time>2026-07-14T09:56:16.000Z</time>
</trkpt>
<trkpt lat="56.924386" lon="8.367809">
<ele>29.417998</ele>
<time>2026-07-14T09:56:17.000Z</time>
</trkpt>
<trkpt lat="56.924437" lon="8.367841">
<ele>29.399611</ele>
<time>2026-07-14T09:56:18.000Z</time>
</trkpt>
<trkpt lat="56.924488" lon="8.367877">
<ele>29.380970</ele>
<time>2026-07-14T09:56:19.000Z</time>
</trkpt>
<trkpt lat="56.924542" lon="8.367916">
<ele>29.361173</ele>
<time>2026-07-14T09:56:20.000Z</time>
</trkpt>
<trkpt lat="56.924594" lon="8.367954">
<ele>29.342079</ele>
<time>2026-07-14T09:56:21.000Z</time>
</trkpt>
<trkpt lat="56.924645" lon="8.367990">
<ele>29.323438</ele>
<time>2026-07-14T09:56:22.000Z</time>
</trkpt>
<trkpt lat="56.924696" lon="8.368023">
<ele>29.304990</ele>
<time>2026-07-14T09:56:23.000Z</time>
</trkpt>
<trkpt lat="56.924748" lon="8.368054">
<ele>29.286339</ele>
<time>2026-07-14T09:56:24.000Z</time>
</trkpt>
<trkpt lat="56.924801" lon="8.368085">
<ele>29.267363</ele>
<time>2026-07-14T09:56:25.000Z</time>
</trkpt>
<trkpt lat="56.924854" lon="8.368117">
<ele>29.248330</ele>
<time>2026-07-14T09:56:26.000Z</time>
</trkpt>
<trkpt lat="56.924910" lon="8.368146">
<ele>29.228482</ele>
<time>2026-07-14T09:56:27.000Z</time>
</trkpt>
<trkpt lat="56.924963" lon="8.368175">
<ele>29.209616</ele>
<time>2026-07-14T09:56:28.000Z</time>
</trkpt>
<trkpt lat="56.925012" lon="8.368203">
<ele>29.192110</ele>
<time>2026-07-14T09:56:29.000Z</time>
</trkpt>
<trkpt lat="56.925063" lon="8.368231">
<ele>29.178332</ele>
<time>2026-07-14T09:56:30.000Z</time>
</trkpt>
<trkpt lat="56.925118" lon="8.368262">
<ele>29.166198</ele>
<time>2026-07-14T09:56:31.000Z</time>
</trkpt>
<trkpt lat="56.925172" lon="8.368292">
<ele>29.154300</ele>
<time>2026-07-14T09:56:32.000Z</time>
</trkpt>
<trkpt lat="56.925227" lon="8.368323">
<ele>29.142166</ele>
<time>2026-07-14T09:56:33.000Z</time>
</trkpt>
<trkpt lat="56.925283" lon="8.368354">
<ele>29.129830</ele>
<time>2026-07-14T09:56:34.000Z</time>
</trkpt>
<trkpt lat="56.925336" lon="8.368383">
<ele>29.118166</ele>
<time>2026-07-14T09:56:35.000Z</time>
</trkpt>
<trkpt lat="56.925391" lon="8.368413">
<ele>29.106066</ele>
<time>2026-07-14T09:56:36.000Z</time>
</trkpt>
<trkpt lat="56.925445" lon="8.368444">
<ele>29.094133</ele>
<time>2026-07-14T09:56:37.000Z</time>
</trkpt>
<trkpt lat="56.925496" lon="8.368473">
<ele>29.082873</ele>
<time>2026-07-14T09:56:38.000Z</time>
</trkpt>
<trkpt lat="56.925550" lon="8.368502">
<ele>29.071007</ele>
<time>2026-07-14T09:56:39.000Z</time>
</trkpt>
<trkpt lat="56.925600" lon="8.368530">
<ele>29.059982</ele>
<time>2026-07-14T09:56:40.000Z</time>
</trkpt>
<trkpt lat="56.925653" lon="8.368558">
<ele>29.048351</ele>
<time>2026-07-14T09:56:41.000Z</time>
</trkpt>
<trkpt lat="56.925713" lon="8.368591">
<ele>29.035142</ele>
<time>2026-07-14T09:56:42.000Z</time>
</trkpt>
<trkpt lat="56.925771" lon="8.368621">
<ele>29.022433</ele>
<time>2026-07-14T09:56:43.000Z</time>
</trkpt>
<trkpt lat="56.925827" lon="8.368651">
<ele>29.010131</ele>
<time>2026-07-14T09:56:44.000Z</time>
</trkpt>
<trkpt lat="56.925880" lon="8.368679">
<ele>28.998499</ele>
<time>2026-07-14T09:56:45.000Z</time>
</trkpt>
<trkpt lat="56.925934" lon="8.368708">
<ele>28.986634</ele>
<time>2026-07-14T09:56:46.000Z</time>
</trkpt>
<trkpt lat="56.925990" lon="8.368738">
<ele>28.974331</ele>
<time>2026-07-14T09:56:47.000Z</time>
</trkpt>
<trkpt lat="56.926046" lon="8.368765">
<ele>28.962120</ele>
<time>2026-07-14T09:56:48.000Z</time>
</trkpt>
<trkpt lat="56.926099" lon="8.368793">
<ele>28.950489</ele>
<time>2026-07-14T09:56:49.000Z</time>
</trkpt>
<trkpt lat="56.926150" lon="8.368820">
<ele>28.939295</ele>
<time>2026-07-14T09:56:50.000Z</time>
</trkpt>
<trkpt lat="56.926201" lon="8.368847">
<ele>28.928101</ele>
<time>2026-07-14T09:56:51.000Z</time>
</trkpt>
<trkpt lat="56.926253" lon="8.368873">
<ele>28.916735</ele>
<time>2026-07-14T09:56:52.000Z</time>
</trkpt>
<trkpt lat="56.926304" lon="8.368899">
<ele>28.905572</ele>
<time>2026-07-14T09:56:53.000Z</time>
</trkpt>
<trkpt lat="56.926355" lon="8.368924">
<ele>28.894440</ele>
<time>2026-07-14T09:56:54.000Z</time>
</trkpt>
<trkpt lat="56.926407" lon="8.368950">
<ele>28.883074</ele>
<time>2026-07-14T09:56:55.000Z</time>
</trkpt>
<trkpt lat="56.926458" lon="8.368978">
<ele>28.871847</ele>
<time>2026-07-14T09:56:56.000Z</time>
</trkpt>
<trkpt lat="56.926510" lon="8.369007">
<ele>28.860386</ele>
<time>2026-07-14T09:56:57.000Z</time>
</trkpt>
<trkpt lat="56.926565" lon="8.369036">
<ele>28.848317</ele>
<time>2026-07-14T09:56:58.000Z</time>
</trkpt>
<trkpt lat="56.926618" lon="8.369063">
<ele>28.836718</ele>
<time>2026-07-14T09:56:59.000Z</time>
</trkpt>
<trkpt lat="56.926671" lon="8.369092">
<ele>28.825054</ele>
<time>2026-07-14T09:57:00.000Z</time>
</trkpt>
<trkpt lat="56.926724" lon="8.369119">
<ele>28.813454</ele>
<time>2026-07-14T09:57:01.000Z</time>
</trkpt>
<trkpt lat="56.926774" lon="8.369146">
<ele>28.802403</ele>
<time>2026-07-14T09:57:02.000Z</time>
</trkpt>
<trkpt lat="56.926823" lon="8.369173">
<ele>28.791440</ele>
<time>2026-07-14T09:57:03.000Z</time>
</trkpt>
<trkpt lat="56.926876" lon="8.369202">
<ele>28.779588</ele>
<time>2026-07-14T09:57:04.000Z</time>
</trkpt>
<trkpt lat="56.926927" lon="8.369229">
<ele>28.768213</ele>
<time>2026-07-14T09:57:05.000Z</time>
</trkpt>
<trkpt lat="56.926977" lon="8.369257">
<ele>28.757011</ele>
<time>2026-07-14T09:57:06.000Z</time>
</trkpt>
<trkpt lat="56.927027" lon="8.369286">
<ele>28.745773</ele>
<time>2026-07-14T09:57:07.000Z</time>
</trkpt>
<trkpt lat="56.927079" lon="8.369314">
<ele>28.734160</ele>
<time>2026-07-14T09:57:08.000Z</time>
</trkpt>
<trkpt lat="56.927131" lon="8.369340">
<ele>28.722611</ele>
<time>2026-07-14T09:57:09.000Z</time>
</trkpt>
<trkpt lat="56.927180" lon="8.369365">
<ele>28.711713</ele>
<time>2026-07-14T09:57:10.000Z</time>
</trkpt>
<trkpt lat="56.927231" lon="8.369392">
<ele>28.700338</ele>
<time>2026-07-14T09:57:11.000Z</time>
</trkpt>
<trkpt lat="56.927282" lon="8.369417">
<ele>28.689026</ele>
<time>2026-07-14T09:57:12.000Z</time>
</trkpt>
<trkpt lat="56.927333" lon="8.369442">
<ele>28.677714</ele>
<time>2026-07-14T09:57:13.000Z</time>
</trkpt>
<trkpt lat="56.927386" lon="8.369469">
<ele>28.665927</ele>
<time>2026-07-14T09:57:14.000Z</time>
</trkpt>
<trkpt lat="56.927443" lon="8.369496">
<ele>28.653312</ele>
<time>2026-07-14T09:57:15.000Z</time>
</trkpt>
<trkpt lat="56.927500" lon="8.369523">
<ele>28.640698</ele>
<time>2026-07-14T09:57:16.000Z</time>
</trkpt>
<trkpt lat="56.927556" lon="8.369547">
<ele>28.628375</ele>
<time>2026-07-14T09:57:17.000Z</time>
</trkpt>
<trkpt lat="56.927615" lon="8.369571">
<ele>28.615425</ele>
<time>2026-07-14T09:57:18.000Z</time>
</trkpt>
<trkpt lat="56.927677" lon="8.369593">
<ele>28.601894</ele>
<time>2026-07-14T09:57:19.000Z</time>
</trkpt>
<trkpt lat="56.927737" lon="8.369613">
<ele>28.588827</ele>
<time>2026-07-14T09:57:20.000Z</time>
</trkpt>
<trkpt lat="56.927794" lon="8.369633">
<ele>28.576391</ele>
<time>2026-07-14T09:57:21.000Z</time>
</trkpt>
<trkpt lat="56.927852" lon="8.369654">
<ele>28.563724</ele>
<time>2026-07-14T09:57:22.000Z</time>
</trkpt>
<trkpt lat="56.927910" lon="8.369675">
<ele>28.551056</ele>
<time>2026-07-14T09:57:23.000Z</time>
</trkpt>
<trkpt lat="56.927966" lon="8.369695">
<ele>28.538831</ele>
<time>2026-07-14T09:57:24.000Z</time>
</trkpt>
<trkpt lat="56.928024" lon="8.369716">
<ele>28.526163</ele>
<time>2026-07-14T09:57:25.000Z</time>
</trkpt>
<trkpt lat="56.928079" lon="8.369736">
<ele>28.514148</ele>
<time>2026-07-14T09:57:26.000Z</time>
</trkpt>
<trkpt lat="56.928134" lon="8.369756">
<ele>28.502134</ele>
<time>2026-07-14T09:57:27.000Z</time>
</trkpt>
<trkpt lat="56.928192" lon="8.369778">
<ele>28.489443</ele>
<time>2026-07-14T09:57:28.000Z</time>
</trkpt>
<trkpt lat="56.928247" lon="8.369800">
<ele>28.477381</ele>
<time>2026-07-14T09:57:29.000Z</time>
</trkpt>
<trkpt lat="56.928299" lon="8.369820">
<ele>28.465996</ele>
<time>2026-07-14T09:57:30.000Z</time>
</trkpt>
<trkpt lat="56.928352" lon="8.369839">
<ele>28.454424</ele>
<time>2026-07-14T09:57:31.000Z</time>
</trkpt>
<trkpt lat="56.928406" lon="8.369857">
<ele>28.442664</ele>
<time>2026-07-14T09:57:32.000Z</time>
</trkpt>
<trkpt lat="56.928459" lon="8.369874">
<ele>28.431135</ele>
<time>2026-07-14T09:57:33.000Z</time>
</trkpt>
<trkpt lat="56.928512" lon="8.369893">
<ele>28.419432</ele>
<time>2026-07-14T09:57:34.000Z</time>
</trkpt>
<trkpt lat="56.928567" lon="8.369913">
<ele>28.406093</ele>
<time>2026-07-14T09:57:35.000Z</time>
</trkpt>
<trkpt lat="56.928623" lon="8.369933">
<ele>28.392521</ele>
<time>2026-07-14T09:57:36.000Z</time>
</trkpt>
<trkpt lat="56.928677" lon="8.369953">
<ele>28.379416</ele>
<time>2026-07-14T09:57:37.000Z</time>
</trkpt>
<trkpt lat="56.928733" lon="8.369972">
<ele>28.365868</ele>
<time>2026-07-14T09:57:38.000Z</time>
</trkpt>
<trkpt lat="56.928788" lon="8.369992">
<ele>28.352530</ele>
<time>2026-07-14T09:57:39.000Z</time>
</trkpt>
<trkpt lat="56.928841" lon="8.370011">
<ele>28.339683</ele>
<time>2026-07-14T09:57:40.000Z</time>
</trkpt>
<trkpt lat="56.928894" lon="8.370029">
<ele>28.326860</ele>
<time>2026-07-14T09:57:41.000Z</time>
</trkpt>
<trkpt lat="56.928948" lon="8.370048">
<ele>28.313780</ele>
<time>2026-07-14T09:57:42.000Z</time>
</trkpt>
<trkpt lat="56.929001" lon="8.370068">
<ele>28.300908</ele>
<time>2026-07-14T09:57:43.000Z</time>
</trkpt>
<trkpt lat="56.929054" lon="8.370088">
<ele>28.288036</ele>
<time>2026-07-14T09:57:44.000Z</time>
</trkpt>
<trkpt lat="56.929108" lon="8.370108">
<ele>28.274930</ele>
<time>2026-07-14T09:57:45.000Z</time>
</trkpt>
<trkpt lat="56.929162" lon="8.370128">
<ele>28.261825</ele>
<time>2026-07-14T09:57:46.000Z</time>
</trkpt>
<trkpt lat="56.929218" lon="8.370148">
<ele>28.248253</ele>
<time>2026-07-14T09:57:47.000Z</time>
</trkpt>
<trkpt lat="56.929272" lon="8.370167">
<ele>28.235173</ele>
<time>2026-07-14T09:57:48.000Z</time>
</trkpt>
<trkpt lat="56.929325" lon="8.370186">
<ele>28.222326</ele>
<time>2026-07-14T09:57:49.000Z</time>
</trkpt>
<trkpt lat="56.929378" lon="8.370205">
<ele>28.209479</ele>
<time>2026-07-14T09:57:50.000Z</time>
</trkpt>
<trkpt lat="56.929431" lon="8.370224">
<ele>28.196633</ele>
<time>2026-07-14T09:57:51.000Z</time>
</trkpt>
<trkpt lat="56.929484" lon="8.370244">
<ele>28.183761</ele>
<time>2026-07-14T09:57:52.000Z</time>
</trkpt>
<trkpt lat="56.929534" lon="8.370264">
<ele>28.171586</ele>
<time>2026-07-14T09:57:53.000Z</time>
</trkpt>
<trkpt lat="56.929585" lon="8.370284">
<ele>28.159180</ele>
<time>2026-07-14T09:57:54.000Z</time>
</trkpt>
<trkpt lat="56.929636" lon="8.370304">
<ele>28.146773</ele>
<time>2026-07-14T09:57:55.000Z</time>
</trkpt>
<trkpt lat="56.929683" lon="8.370321">
<ele>28.135377</ele>
<time>2026-07-14T09:57:56.000Z</time>
</trkpt>
<trkpt lat="56.929731" lon="8.370338">
<ele>28.123747</ele>
<time>2026-07-14T09:57:57.000Z</time>
</trkpt>
<trkpt lat="56.929780" lon="8.370355">
<ele>28.111884</ele>
<time>2026-07-14T09:57:58.000Z</time>
</trkpt>
<trkpt lat="56.929827" lon="8.370373">
<ele>28.100462</ele>
<time>2026-07-14T09:57:59.000Z</time>
</trkpt>
<trkpt lat="56.929873" lon="8.370395">
<ele>28.089153</ele>
<time>2026-07-14T09:58:00.000Z</time>
</trkpt>
<trkpt lat="56.929920" lon="8.370417">
<ele>28.077614</ele>
<time>2026-07-14T09:58:01.000Z</time>
</trkpt>
<trkpt lat="56.929967" lon="8.370438">
<ele>28.066106</ele>
<time>2026-07-14T09:58:02.000Z</time>
</trkpt>
<trkpt lat="56.930013" lon="8.370461">
<ele>28.054763</ele>
<time>2026-07-14T09:58:03.000Z</time>
</trkpt>
<trkpt lat="56.930061" lon="8.370485">
<ele>28.042928</ele>
<time>2026-07-14T09:58:04.000Z</time>
</trkpt>
<trkpt lat="56.930107" lon="8.370508">
<ele>28.031585</ele>
<time>2026-07-14T09:58:05.000Z</time>
</trkpt>
<trkpt lat="56.930154" lon="8.370532">
<ele>28.019979</ele>
<time>2026-07-14T09:58:06.000Z</time>
</trkpt>
<trkpt lat="56.930201" lon="8.370560">
<ele>28.008223</ele>
<time>2026-07-14T09:58:07.000Z</time>
</trkpt>
<trkpt lat="56.930250" lon="8.370589">
<ele>27.995974</ele>
<time>2026-07-14T09:58:08.000Z</time>
</trkpt>
<trkpt lat="56.930301" lon="8.370619">
<ele>27.999639</ele>
<time>2026-07-14T09:58:09.000Z</time>
</trkpt>
<trkpt lat="56.930350" lon="8.370648">
<ele>28.008187</ele>
<time>2026-07-14T09:58:10.000Z</time>
</trkpt>
<trkpt lat="56.930399" lon="8.370676">
<ele>28.016708</ele>
<time>2026-07-14T09:58:11.000Z</time>
</trkpt>
<trkpt lat="56.930449" lon="8.370704">
<ele>28.025387</ele>
<time>2026-07-14T09:58:12.000Z</time>
</trkpt>
<trkpt lat="56.930501" lon="8.370734">
<ele>28.034438</ele>
<time>2026-07-14T09:58:13.000Z</time>
</trkpt>
<trkpt lat="56.930552" lon="8.370763">
<ele>28.043302</ele>
<time>2026-07-14T09:58:14.000Z</time>
</trkpt>
<trkpt lat="56.930601" lon="8.370792">
<ele>28.051851</ele>
<time>2026-07-14T09:58:15.000Z</time>
</trkpt>
<trkpt lat="56.930651" lon="8.370822">
<ele>28.060585</ele>
<time>2026-07-14T09:58:16.000Z</time>
</trkpt>
<trkpt lat="56.930701" lon="8.370853">
<ele>28.069347</ele>
<time>2026-07-14T09:58:17.000Z</time>
</trkpt>
<trkpt lat="56.930751" lon="8.370886">
<ele>28.078170</ele>
<time>2026-07-14T09:58:18.000Z</time>
</trkpt>
<trkpt lat="56.930801" lon="8.370919">
<ele>28.086992</ele>
<time>2026-07-14T09:58:19.000Z</time>
</trkpt>
<trkpt lat="56.930852" lon="8.370951">
<ele>28.095942</ele>
<time>2026-07-14T09:58:20.000Z</time>
</trkpt>
<trkpt lat="56.930899" lon="8.370980">
<ele>28.104174</ele>
<time>2026-07-14T09:58:21.000Z</time>
</trkpt>
<trkpt lat="56.930946" lon="8.371010">
<ele>28.112437</ele>
<time>2026-07-14T09:58:22.000Z</time>
</trkpt>
<trkpt lat="56.931002" lon="8.371043">
<ele>28.122202</ele>
<time>2026-07-14T09:58:23.000Z</time>
</trkpt>
<trkpt lat="56.931054" lon="8.371074">
<ele>28.131280</ele>
<time>2026-07-14T09:58:24.000Z</time>
</trkpt>
<trkpt lat="56.931104" lon="8.371106">
<ele>28.140072</ele>
<time>2026-07-14T09:58:25.000Z</time>
</trkpt>
<trkpt lat="56.931152" lon="8.371137">
<ele>28.148521</ele>
<time>2026-07-14T09:58:26.000Z</time>
</trkpt>
<trkpt lat="56.931200" lon="8.371167">
<ele>28.156940</ele>
<time>2026-07-14T09:58:27.000Z</time>
</trkpt>
<trkpt lat="56.931248" lon="8.371196">
<ele>28.165331</ele>
<time>2026-07-14T09:58:28.000Z</time>
</trkpt>
<trkpt lat="56.931294" lon="8.371223">
<ele>28.173349</ele>
<time>2026-07-14T09:58:29.000Z</time>
</trkpt>
<trkpt lat="56.931339" lon="8.371248">
<ele>28.181156</ele>
<time>2026-07-14T09:58:30.000Z</time>
</trkpt>
<trkpt lat="56.931380" lon="8.371271">
<ele>28.188274</ele>
<time>2026-07-14T09:58:31.000Z</time>
</trkpt>
<trkpt lat="56.931418" lon="8.371296">
<ele>28.194977</ele>
<time>2026-07-14T09:58:32.000Z</time>
</trkpt>
<trkpt lat="56.931447" lon="8.371320">
<ele>28.200259</ele>
<time>2026-07-14T09:58:33.000Z</time>
</trkpt>
<trkpt lat="56.931467" lon="8.371341">
<ele>28.204086</ele>
<time>2026-07-14T09:58:34.000Z</time>
</trkpt>
<trkpt lat="56.931488" lon="8.371350">
<ele>28.207666</ele>
<time>2026-07-14T09:59:03.000Z</time>
</trkpt>
<trkpt lat="56.931495" lon="8.371350">
<ele>28.208828</ele>
<time>2026-07-14T09:59:04.000Z</time>
</trkpt>
<trkpt lat="56.931511" lon="8.371354">
<ele>28.211509</ele>
<time>2026-07-14T09:59:05.000Z</time>
</trkpt>
<trkpt lat="56.931530" lon="8.371364">
<ele>28.214790</ele>
<time>2026-07-14T09:59:06.000Z</time>
</trkpt>
<trkpt lat="56.931554" lon="8.371379">
<ele>28.219000</ele>
<time>2026-07-14T09:59:07.000Z</time>
</trkpt>
<trkpt lat="56.931581" lon="8.371399">
<ele>28.223835</ele>
<time>2026-07-14T09:59:08.000Z</time>
</trkpt>
<trkpt lat="56.931613" lon="8.371422">
<ele>28.229541</ele>
<time>2026-07-14T09:59:09.000Z</time>
</trkpt>
<trkpt lat="56.931647" lon="8.371445">
<ele>28.235558</ele>
<time>2026-07-14T09:59:10.000Z</time>
</trkpt>
<trkpt lat="56.931681" lon="8.371465">
<ele>28.241486</ele>
<time>2026-07-14T09:59:11.000Z</time>
</trkpt>
<trkpt lat="56.931715" lon="8.371483">
<ele>28.247361</ele>
<time>2026-07-14T09:59:12.000Z</time>
</trkpt>
<trkpt lat="56.931747" lon="8.371499">
<ele>28.252867</ele>
<time>2026-07-14T09:59:13.000Z</time>
</trkpt>
<trkpt lat="56.931778" lon="8.371517">
<ele>28.258266</ele>
<time>2026-07-14T09:59:14.000Z</time>
</trkpt>
<trkpt lat="56.931808" lon="8.371539">
<ele>28.263630</ele>
<time>2026-07-14T09:59:15.000Z</time>
</trkpt>
<trkpt lat="56.931842" lon="8.371562">
<ele>28.269647</ele>
<time>2026-07-14T09:59:16.000Z</time>
</trkpt>
<trkpt lat="56.931879" lon="8.371588">
<ele>28.276225</ele>
<time>2026-07-14T09:59:17.000Z</time>
</trkpt>
<trkpt lat="56.931914" lon="8.371611">
<ele>28.282398</ele>
<time>2026-07-14T09:59:18.000Z</time>
</trkpt>
<trkpt lat="56.931948" lon="8.371633">
<ele>28.288384</ele>
<time>2026-07-14T09:59:19.000Z</time>
</trkpt>
<trkpt lat="56.931982" lon="8.371654">
<ele>28.289708</ele>
<time>2026-07-14T09:59:20.000Z</time>
</trkpt>
<trkpt lat="56.932017" lon="8.371676">
<ele>28.285860</ele>
<time>2026-07-14T09:59:21.000Z</time>
</trkpt>
<trkpt lat="56.932051" lon="8.371697">
<ele>28.282129</ele>
<time>2026-07-14T09:59:22.000Z</time>
</trkpt>
<trkpt lat="56.932085" lon="8.371717">
<ele>28.278415</ele>
<time>2026-07-14T09:59:23.000Z</time>
</trkpt>
<trkpt lat="56.932121" lon="8.371741">
<ele>28.274432</ele>
<time>2026-07-14T09:59:24.000Z</time>
</trkpt>
<trkpt lat="56.932162" lon="8.371768">
<ele>28.269901</ele>
<time>2026-07-14T09:59:25.000Z</time>
</trkpt>
<trkpt lat="56.932202" lon="8.371794">
<ele>28.265488</ele>
<time>2026-07-14T09:59:26.000Z</time>
</trkpt>
<trkpt lat="56.932242" lon="8.371819">
<ele>28.261093</ele>
<time>2026-07-14T09:59:27.000Z</time>
</trkpt>
<trkpt lat="56.932282" lon="8.371842">
<ele>28.256733</ele>
<time>2026-07-14T09:59:28.000Z</time>
</trkpt>
<trkpt lat="56.932320" lon="8.371866">
<ele>28.252553</ele>
<time>2026-07-14T09:59:29.000Z</time>
</trkpt>
<trkpt lat="56.932358" lon="8.371891">
<ele>28.248355</ele>
<time>2026-07-14T09:59:30.000Z</time>
</trkpt>
<trkpt lat="56.932394" lon="8.371916">
<ele>28.244351</ele>
<time>2026-07-14T09:59:31.000Z</time>
</trkpt>
<trkpt lat="56.932433" lon="8.371940">
<ele>28.240073</ele>
<time>2026-07-14T09:59:32.000Z</time>
</trkpt>
<trkpt lat="56.932472" lon="8.371962">
<ele>28.235830</ele>
<time>2026-07-14T09:59:33.000Z</time>
</trkpt>
<trkpt lat="56.932510" lon="8.371988">
<ele>28.231612</ele>
<time>2026-07-14T09:59:34.000Z</time>
</trkpt>
<trkpt lat="56.932549" lon="8.372013">
<ele>28.227315</ele>
<time>2026-07-14T09:59:35.000Z</time>
</trkpt>
<trkpt lat="56.932587" lon="8.372036">
<ele>28.223153</ele>
<time>2026-07-14T09:59:36.000Z</time>
</trkpt>
<trkpt lat="56.932628" lon="8.372059">
<ele>28.218695</ele>
<time>2026-07-14T09:59:37.000Z</time>
</trkpt>
<trkpt lat="56.932670" lon="8.372082">
<ele>28.214136</ele>
<time>2026-07-14T09:59:38.000Z</time>
</trkpt>
<trkpt lat="56.932707" lon="8.372103">
<ele>28.210108</ele>
<time>2026-07-14T09:59:39.000Z</time>
</trkpt>
<trkpt lat="56.932745" lon="8.372127">
<ele>28.205928</ele>
<time>2026-07-14T09:59:40.000Z</time>
</trkpt>
<trkpt lat="56.932789" lon="8.372160">
<ele>28.200985</ele>
<time>2026-07-14T09:59:41.000Z</time>
</trkpt>
<trkpt lat="56.932832" lon="8.372190">
<ele>28.196200</ele>
<time>2026-07-14T09:59:42.000Z</time>
</trkpt>
<trkpt lat="56.932880" lon="8.372220">
<ele>28.190926</ele>
<time>2026-07-14T09:59:43.000Z</time>
</trkpt>
<trkpt lat="56.932924" lon="8.372249">
<ele>28.186064</ele>
<time>2026-07-14T09:59:44.000Z</time>
</trkpt>
<trkpt lat="56.932970" lon="8.372276">
<ele>28.181041</ele>
<time>2026-07-14T09:59:45.000Z</time>
</trkpt>
<trkpt lat="56.933014" lon="8.372302">
<ele>28.176233</ele>
<time>2026-07-14T09:59:46.000Z</time>
</trkpt>
<trkpt lat="56.933057" lon="8.372329">
<ele>28.171506</ele>
<time>2026-07-14T09:59:47.000Z</time>
</trkpt>
<trkpt lat="56.933102" lon="8.372359">
<ele>28.166527</ele>
<time>2026-07-14T09:59:48.000Z</time>
</trkpt>
<trkpt lat="56.933146" lon="8.372388">
<ele>28.161664</ele>
<time>2026-07-14T09:59:49.000Z</time>
</trkpt>
<trkpt lat="56.933188" lon="8.372414">
<ele>28.157054</ele>
<time>2026-07-14T09:59:50.000Z</time>
</trkpt>
<trkpt lat="56.933228" lon="8.372437">
<ele>28.152695</ele>
<time>2026-07-14T09:59:51.000Z</time>
</trkpt>
<trkpt lat="56.933268" lon="8.372462">
<ele>28.148300</ele>
<time>2026-07-14T09:59:52.000Z</time>
</trkpt>
<trkpt lat="56.933310" lon="8.372488">
<ele>28.143690</ele>
<time>2026-07-14T09:59:53.000Z</time>
</trkpt>
<trkpt lat="56.933351" lon="8.372512">
<ele>28.139214</ele>
<time>2026-07-14T09:59:54.000Z</time>
</trkpt>
<trkpt lat="56.933394" lon="8.372535">
<ele>28.134556</ele>
<time>2026-07-14T09:59:55.000Z</time>
</trkpt>
<trkpt lat="56.933435" lon="8.372560">
<ele>28.130062</ele>
<time>2026-07-14T09:59:56.000Z</time>
</trkpt>
<trkpt lat="56.933478" lon="8.372588">
<ele>28.125317</ele>
<time>2026-07-14T09:59:57.000Z</time>
</trkpt>
<trkpt lat="56.933522" lon="8.372618">
<ele>28.120435</ele>
<time>2026-07-14T09:59:58.000Z</time>
</trkpt>
<trkpt lat="56.933566" lon="8.372648">
<ele>28.115553</ele>
<time>2026-07-14T09:59:59.000Z</time>
</trkpt>
<trkpt lat="56.933609" lon="8.372677">
<ele>28.110788</ele>
<time>2026-07-14T10:00:00.000Z</time>
</trkpt>
<trkpt lat="56.933654" lon="8.372706">
<ele>28.105828</ele>
<time>2026-07-14T10:00:01.000Z</time>
</trkpt>
<trkpt lat="56.933701" lon="8.372733">
<ele>28.109667</ele>
<time>2026-07-14T10:00:02.000Z</time>
</trkpt>
<trkpt lat="56.933747" lon="8.372760">
<ele>28.116670</ele>
<time>2026-07-14T10:00:03.000Z</time>
</trkpt>
<trkpt lat="56.933792" lon="8.372788">
<ele>28.123561</ele>
<time>2026-07-14T10:00:04.000Z</time>
</trkpt>
<trkpt lat="56.933838" lon="8.372817">
<ele>28.130614</ele>
<time>2026-07-14T10:00:05.000Z</time>
</trkpt>
<trkpt lat="56.933884" lon="8.372847">
<ele>28.137694</ele>
<time>2026-07-14T10:00:06.000Z</time>
</trkpt>
<trkpt lat="56.933931" lon="8.372877">
<ele>28.144910</ele>
<time>2026-07-14T10:00:07.000Z</time>
</trkpt>
<trkpt lat="56.933976" lon="8.372906">
<ele>28.151827</ele>
<time>2026-07-14T10:00:08.000Z</time>
</trkpt>
<trkpt lat="56.934022" lon="8.372935">
<ele>28.158880</ele>
<time>2026-07-14T10:00:09.000Z</time>
</trkpt>
<trkpt lat="56.934068" lon="8.372963">
<ele>28.165908</ele>
<time>2026-07-14T10:00:10.000Z</time>
</trkpt>
<trkpt lat="56.934113" lon="8.372991">
<ele>28.172799</ele>
<time>2026-07-14T10:00:11.000Z</time>
</trkpt>
<trkpt lat="56.934158" lon="8.373019">
<ele>28.179689</ele>
<time>2026-07-14T10:00:12.000Z</time>
</trkpt>
<trkpt lat="56.934205" lon="8.373048">
<ele>28.186880</ele>
<time>2026-07-14T10:00:13.000Z</time>
</trkpt>
<trkpt lat="56.934251" lon="8.373073">
<ele>28.193837</ele>
<time>2026-07-14T10:00:14.000Z</time>
</trkpt>
<trkpt lat="56.934297" lon="8.373099">
<ele>28.200817</ele>
<time>2026-07-14T10:00:15.000Z</time>
</trkpt>
<trkpt lat="56.934340" lon="8.373125">
<ele>28.207382</ele>
<time>2026-07-14T10:00:16.000Z</time>
</trkpt>
<trkpt lat="56.934384" lon="8.373151">
<ele>28.214085</ele>
<time>2026-07-14T10:00:17.000Z</time>
</trkpt>
<trkpt lat="56.934430" lon="8.373177">
<ele>28.221065</ele>
<time>2026-07-14T10:00:18.000Z</time>
</trkpt>
<trkpt lat="56.934474" lon="8.373203">
<ele>28.227768</ele>
<time>2026-07-14T10:00:19.000Z</time>
</trkpt>
<trkpt lat="56.934516" lon="8.373228">
<ele>28.234171</ele>
<time>2026-07-14T10:00:20.000Z</time>
</trkpt>
<trkpt lat="56.934558" lon="8.373251">
<ele>28.240527</ele>
<time>2026-07-14T10:00:21.000Z</time>
</trkpt>
<trkpt lat="56.934596" lon="8.373274">
<ele>28.246330</ele>
<time>2026-07-14T10:00:22.000Z</time>
</trkpt>
<trkpt lat="56.934632" lon="8.373296">
<ele>28.251832</ele>
<time>2026-07-14T10:00:23.000Z</time>
</trkpt>
<trkpt lat="56.934668" lon="8.373316">
<ele>28.257287</ele>
<time>2026-07-14T10:00:24.000Z</time>
</trkpt>
<trkpt lat="56.934704" lon="8.373333">
<ele>28.262677</ele>
<time>2026-07-14T10:00:25.000Z</time>
</trkpt>
<trkpt lat="56.934741" lon="8.373351">
<ele>28.268228</ele>
<time>2026-07-14T10:00:26.000Z</time>
</trkpt>
<trkpt lat="56.934775" lon="8.373373">
<ele>28.273456</ele>
<time>2026-07-14T10:00:27.000Z</time>
</trkpt>
<trkpt lat="56.934808" lon="8.373392">
<ele>28.278471</ele>
<time>2026-07-14T10:00:28.000Z</time>
</trkpt>
<trkpt lat="56.934840" lon="8.373402">
<ele>28.283178</ele>
<time>2026-07-14T10:00:29.000Z</time>
</trkpt>
<trkpt lat="56.934870" lon="8.373397">
<ele>28.287546</ele>
<time>2026-07-14T10:00:30.000Z</time>
</trkpt>
<trkpt lat="56.934896" lon="8.373374">
<ele>28.291732</ele>
<time>2026-07-14T10:00:31.000Z</time>
</trkpt>
<trkpt lat="56.934922" lon="8.373326">
<ele>28.297083</ele>
<time>2026-07-14T10:00:32.000Z</time>
</trkpt>
<trkpt lat="56.934943" lon="8.373271">
<ele>28.302393</ele>
<time>2026-07-14T10:00:33.000Z</time>
</trkpt>
<trkpt lat="56.934957" lon="8.373216">
<ele>28.307195</ele>
<time>2026-07-14T10:00:34.000Z</time>
</trkpt>
<trkpt lat="56.934968" lon="8.373152">
<ele>28.312503</ele>
<time>2026-07-14T10:00:35.000Z</time>
</trkpt>
<trkpt lat="56.934980" lon="8.373077">
<ele>28.318686</ele>
<time>2026-07-14T10:00:36.000Z</time>
</trkpt>
<trkpt lat="56.934992" lon="8.373009">
<ele>28.324340</ele>
<time>2026-07-14T10:00:37.000Z</time>
</trkpt>
<trkpt lat="56.935004" lon="8.372939">
<ele>28.330144</ele>
<time>2026-07-14T10:00:38.000Z</time>
</trkpt>
<trkpt lat="56.935015" lon="8.372871">
<ele>28.335755</ele>
<time>2026-07-14T10:00:39.000Z</time>
</trkpt>
<trkpt lat="56.935028" lon="8.372804">
<ele>28.341381</ele>
<time>2026-07-14T10:00:40.000Z</time>
</trkpt>
<trkpt lat="56.935042" lon="8.372735">
<ele>28.347205</ele>
<time>2026-07-14T10:00:41.000Z</time>
</trkpt>
<trkpt lat="56.935055" lon="8.372668">
<ele>28.352830</ele>
<time>2026-07-14T10:00:42.000Z</time>
</trkpt>
<trkpt lat="56.935070" lon="8.372596">
<ele>28.358927</ele>
<time>2026-07-14T10:00:43.000Z</time>
</trkpt>
<trkpt lat="56.935085" lon="8.372519">
<ele>28.364838</ele>
<time>2026-07-14T10:00:44.000Z</time>
</trkpt>
<trkpt lat="56.935101" lon="8.372440">
<ele>28.346528</ele>
<time>2026-07-14T10:00:45.000Z</time>
</trkpt>
<trkpt lat="56.935116" lon="8.372358">
<ele>28.327736</ele>
<time>2026-07-14T10:00:46.000Z</time>
</trkpt>
<trkpt lat="56.935129" lon="8.372276">
<ele>28.309182</ele>
<time>2026-07-14T10:00:47.000Z</time>
</trkpt>
<trkpt lat="56.935143" lon="8.372193">
<ele>28.290305</ele>
<time>2026-07-14T10:00:48.000Z</time>
</trkpt>
<trkpt lat="56.935158" lon="8.372109">
<ele>28.271101</ele>
<time>2026-07-14T10:00:49.000Z</time>
</trkpt>
<trkpt lat="56.935171" lon="8.372026">
<ele>28.252338</ele>
<time>2026-07-14T10:00:50.000Z</time>
</trkpt>
<trkpt lat="56.935185" lon="8.371942">
<ele>28.233254</ele>
<time>2026-07-14T10:00:51.000Z</time>
</trkpt>
<trkpt lat="56.935200" lon="8.371859">
<ele>28.214255</ele>
<time>2026-07-14T10:00:52.000Z</time>
</trkpt>
<trkpt lat="56.935215" lon="8.371777">
<ele>28.195463</ele>
<time>2026-07-14T10:00:53.000Z</time>
</trkpt>
<trkpt lat="56.935230" lon="8.371696">
<ele>28.176877</ele>
<time>2026-07-14T10:00:54.000Z</time>
</trkpt>
<trkpt lat="56.935244" lon="8.371622">
<ele>28.159859</ele>
<time>2026-07-14T10:00:55.000Z</time>
</trkpt>
<trkpt lat="56.935258" lon="8.371549">
<ele>28.143046</ele>
<time>2026-07-14T10:00:56.000Z</time>
</trkpt>
<trkpt lat="56.935273" lon="8.371460">
<ele>28.122807</ele>
<time>2026-07-14T10:00:57.000Z</time>
</trkpt>
<trkpt lat="56.935288" lon="8.371372">
<ele>28.102774</ele>
<time>2026-07-14T10:00:58.000Z</time>
</trkpt>
<trkpt lat="56.935303" lon="8.371290">
<ele>28.083982</ele>
<time>2026-07-14T10:00:59.000Z</time>
</trkpt>
<trkpt lat="56.935318" lon="8.371209">
<ele>28.065396</ele>
<time>2026-07-14T10:01:00.000Z</time>
</trkpt>
<trkpt lat="56.935336" lon="8.371126">
<ele>28.045989</ele>
<time>2026-07-14T10:01:01.000Z</time>
</trkpt>
<trkpt lat="56.935353" lon="8.371043">
<ele>28.026726</ele>
<time>2026-07-14T10:01:02.000Z</time>
</trkpt>
<trkpt lat="56.935368" lon="8.370960">
<ele>28.007728</ele>
<time>2026-07-14T10:01:03.000Z</time>
</trkpt>
<trkpt lat="56.935383" lon="8.370876">
<ele>27.988524</ele>
<time>2026-07-14T10:01:04.000Z</time>
</trkpt>
<trkpt lat="56.935398" lon="8.370787">
<ele>27.968284</ele>
<time>2026-07-14T10:01:05.000Z</time>
</trkpt>
<trkpt lat="56.935413" lon="8.370701">
<ele>27.948666</ele>
<time>2026-07-14T10:01:06.000Z</time>
</trkpt>
<trkpt lat="56.935429" lon="8.370613">
<ele>27.928512</ele>
<time>2026-07-14T10:01:07.000Z</time>
</trkpt>
<trkpt lat="56.935442" lon="8.370522">
<ele>27.908073</ele>
<time>2026-07-14T10:01:08.000Z</time>
</trkpt>
<trkpt lat="56.935456" lon="8.370431">
<ele>27.887529</ele>
<time>2026-07-14T10:01:09.000Z</time>
</trkpt>
<trkpt lat="56.935473" lon="8.370338">
<ele>27.866218</ele>
<time>2026-07-14T10:01:10.000Z</time>
</trkpt>
<trkpt lat="56.935492" lon="8.370249">
<ele>27.845452</ele>
<time>2026-07-14T10:01:11.000Z</time>
</trkpt>
<trkpt lat="56.935511" lon="8.370156">
<ele>27.823875</ele>
<time>2026-07-14T10:01:12.000Z</time>
</trkpt>
<trkpt lat="56.935526" lon="8.370061">
<ele>27.802386</ele>
<time>2026-07-14T10:01:13.000Z</time>
</trkpt>
<trkpt lat="56.935540" lon="8.369969">
<ele>27.781633</ele>
<time>2026-07-14T10:01:14.000Z</time>
</trkpt>
<trkpt lat="56.935557" lon="8.369876">
<ele>27.760322</ele>
<time>2026-07-14T10:01:15.000Z</time>
</trkpt>
<trkpt lat="56.935576" lon="8.369784">
<ele>27.738948</ele>
<time>2026-07-14T10:01:16.000Z</time>
</trkpt>
<trkpt lat="56.935597" lon="8.369689">
<ele>27.716677</ele>
<time>2026-07-14T10:01:17.000Z</time>
</trkpt>
<trkpt lat="56.935616" lon="8.369592">
<ele>27.694283</ele>
<time>2026-07-14T10:01:18.000Z</time>
</trkpt>
<trkpt lat="56.935633" lon="8.369497">
<ele>27.672560</ele>
<time>2026-07-14T10:01:19.000Z</time>
</trkpt>
<trkpt lat="56.935650" lon="8.369404">
<ele>27.651249</ele>
<time>2026-07-14T10:01:20.000Z</time>
</trkpt>
<trkpt lat="56.935667" lon="8.369311">
<ele>27.618154</ele>
<time>2026-07-14T10:01:21.000Z</time>
</trkpt>
<trkpt lat="56.935684" lon="8.369216">
<ele>27.582952</ele>
<time>2026-07-14T10:01:22.000Z</time>
</trkpt>
<trkpt lat="56.935700" lon="8.369121">
<ele>27.547945</ele>
<time>2026-07-14T10:01:23.000Z</time>
</trkpt>
<trkpt lat="56.935717" lon="8.369028">
<ele>27.513411</ele>
<time>2026-07-14T10:01:24.000Z</time>
</trkpt>
<trkpt lat="56.935736" lon="8.368936">
<ele>27.478775</ele>
<time>2026-07-14T10:01:25.000Z</time>
</trkpt>
<trkpt lat="56.935753" lon="8.368846">
<ele>27.445241</ele>
<time>2026-07-14T10:01:26.000Z</time>
</trkpt>
<trkpt lat="56.935770" lon="8.368753">
<ele>27.410708</ele>
<time>2026-07-14T10:01:27.000Z</time>
</trkpt>
<trkpt lat="56.935789" lon="8.368660">
<ele>27.375742</ele>
<time>2026-07-14T10:01:28.000Z</time>
</trkpt>
<trkpt lat="56.935809" lon="8.368568">
<ele>27.340873</ele>
<time>2026-07-14T10:01:29.000Z</time>
</trkpt>
<trkpt lat="56.935828" lon="8.368478">
<ele>27.306895</ele>
<time>2026-07-14T10:01:30.000Z</time>
</trkpt>
<trkpt lat="56.935844" lon="8.368387">
<ele>27.273232</ele>
<time>2026-07-14T10:01:31.000Z</time>
</trkpt>
<trkpt lat="56.935862" lon="8.368294">
<ele>27.238487</ele>
<time>2026-07-14T10:01:32.000Z</time>
</trkpt>
<trkpt lat="56.935879" lon="8.368204">
<ele>27.204954</ele>
<time>2026-07-14T10:01:33.000Z</time>
</trkpt>
<trkpt lat="56.935894" lon="8.368115">
<ele>27.172156</ele>
<time>2026-07-14T10:01:34.000Z</time>
</trkpt>
<trkpt lat="56.935912" lon="8.368027">
<ele>27.139066</ele>
<time>2026-07-14T10:01:35.000Z</time>
</trkpt>
<trkpt lat="56.935930" lon="8.367944">
<ele>27.107618</ele>
<time>2026-07-14T10:01:36.000Z</time>
</trkpt>
<trkpt lat="56.935949" lon="8.367865">
<ele>27.077220</ele>
<time>2026-07-14T10:01:37.000Z</time>
</trkpt>
<trkpt lat="56.935971" lon="8.367788">
<ele>27.046616</ele>
<time>2026-07-14T10:01:38.000Z</time>
</trkpt>
<trkpt lat="56.935996" lon="8.367714">
<ele>27.015971</ele>
<time>2026-07-14T10:01:39.000Z</time>
</trkpt>
<trkpt lat="56.936022" lon="8.367648">
<ele>26.987308</ele>
<time>2026-07-14T10:01:40.000Z</time>
</trkpt>
<trkpt lat="56.936058" lon="8.367600">
<ele>26.958578</ele>
<time>2026-07-14T10:01:41.000Z</time>
</trkpt>
<trkpt lat="56.936104" lon="8.367574">
<ele>26.927512</ele>
<time>2026-07-14T10:01:42.000Z</time>
</trkpt>
<trkpt lat="56.936152" lon="8.367569">
<ele>26.896485</ele>
<time>2026-07-14T10:01:43.000Z</time>
</trkpt>
<trkpt lat="56.936200" lon="8.367588">
<ele>26.864794</ele>
<time>2026-07-14T10:01:44.000Z</time>
</trkpt>
<trkpt lat="56.936248" lon="8.367622">
<ele>26.831584</ele>
<time>2026-07-14T10:01:45.000Z</time>
</trkpt>
<trkpt lat="56.936293" lon="8.367657">
<ele>26.800036</ele>
<time>2026-07-14T10:01:46.000Z</time>
</trkpt>
<trkpt lat="56.936337" lon="8.367693">
<ele>26.768940</ele>
<time>2026-07-14T10:01:47.000Z</time>
</trkpt>
<trkpt lat="56.936386" lon="8.367735">
<ele>26.734031</ele>
<time>2026-07-14T10:01:48.000Z</time>
</trkpt>
<trkpt lat="56.936437" lon="8.367775">
<ele>26.698231</ele>
<time>2026-07-14T10:01:49.000Z</time>
</trkpt>
<trkpt lat="56.936489" lon="8.367812">
<ele>26.662232</ele>
<time>2026-07-14T10:01:50.000Z</time>
</trkpt>
<trkpt lat="56.936538" lon="8.367847">
<ele>26.628293</ele>
<time>2026-07-14T10:01:51.000Z</time>
</trkpt>
<trkpt lat="56.936586" lon="8.367883">
<ele>26.594823</ele>
<time>2026-07-14T10:01:52.000Z</time>
</trkpt>
<trkpt lat="56.936635" lon="8.367920">
<ele>26.560623</ele>
<time>2026-07-14T10:01:53.000Z</time>
</trkpt>
<trkpt lat="56.936688" lon="8.367958">
<ele>26.523895</ele>
<time>2026-07-14T10:01:54.000Z</time>
</trkpt>
<trkpt lat="56.936740" lon="8.367993">
<ele>26.488152</ele>
<time>2026-07-14T10:01:55.000Z</time>
</trkpt>
<trkpt lat="56.936792" lon="8.368025">
<ele>26.468704</ele>
<time>2026-07-14T10:01:56.000Z</time>
</trkpt>
<trkpt lat="56.936841" lon="8.368054">
<ele>26.450449</ele>
<time>2026-07-14T10:01:57.000Z</time>
</trkpt>
<trkpt lat="56.936892" lon="8.368083">
<ele>26.431518</ele>
<time>2026-07-14T10:01:58.000Z</time>
</trkpt>
<trkpt lat="56.936949" lon="8.368116">
<ele>26.410325</ele>
<time>2026-07-14T10:01:59.000Z</time>
</trkpt>
<trkpt lat="56.937000" lon="8.368150">
<ele>26.391085</ele>
<time>2026-07-14T10:02:00.000Z</time>
</trkpt>
<trkpt lat="56.937049" lon="8.368186">
<ele>26.372369</ele>
<time>2026-07-14T10:02:01.000Z</time>
</trkpt>
<trkpt lat="56.937097" lon="8.368221">
<ele>26.354054</ele>
<time>2026-07-14T10:02:02.000Z</time>
</trkpt>
<trkpt lat="56.937146" lon="8.368257">
<ele>26.335339</ele>
<time>2026-07-14T10:02:03.000Z</time>
</trkpt>
<trkpt lat="56.937197" lon="8.368290">
<ele>26.316164</ele>
<time>2026-07-14T10:02:04.000Z</time>
</trkpt>
<trkpt lat="56.937245" lon="8.368319">
<ele>26.298245</ele>
<time>2026-07-14T10:02:05.000Z</time>
</trkpt>
<trkpt lat="56.937294" lon="8.368347">
<ele>26.280049</ele>
<time>2026-07-14T10:02:06.000Z</time>
</trkpt>
<trkpt lat="56.937340" lon="8.368373">
<ele>26.262982</ele>
<time>2026-07-14T10:02:07.000Z</time>
</trkpt>
<trkpt lat="56.937386" lon="8.368403">
<ele>26.245672</ele>
<time>2026-07-14T10:02:08.000Z</time>
</trkpt>
<trkpt lat="56.937434" lon="8.368433">
<ele>26.227692</ele>
<time>2026-07-14T10:02:09.000Z</time>
</trkpt>
<trkpt lat="56.937484" lon="8.368460">
<ele>26.209212</ele>
<time>2026-07-14T10:02:10.000Z</time>
</trkpt>
<trkpt lat="56.937531" lon="8.368486">
<ele>26.191807</ele>
<time>2026-07-14T10:02:11.000Z</time>
</trkpt>
<trkpt lat="56.937575" lon="8.368514">
<ele>26.175294</ele>
<time>2026-07-14T10:02:12.000Z</time>
</trkpt>
<trkpt lat="56.937618" lon="8.368546">
<ele>26.158840</ele>
<time>2026-07-14T10:02:13.000Z</time>
</trkpt>
<trkpt lat="56.937659" lon="8.368580">
<ele>26.142886</ele>
<time>2026-07-14T10:02:14.000Z</time>
</trkpt>
<trkpt lat="56.937703" lon="8.368616">
<ele>26.125803</ele>
<time>2026-07-14T10:02:15.000Z</time>
</trkpt>
<trkpt lat="56.937744" lon="8.368644">
<ele>26.110291</ele>
<time>2026-07-14T10:02:16.000Z</time>
</trkpt>
<trkpt lat="56.937787" lon="8.368666">
<ele>26.094463</ele>
<time>2026-07-14T10:02:17.000Z</time>
</trkpt>
<trkpt lat="56.937845" lon="8.368678">
<ele>26.073769</ele>
<time>2026-07-14T10:02:18.000Z</time>
</trkpt>
<trkpt lat="56.937898" lon="8.368677">
<ele>26.054978</ele>
<time>2026-07-14T10:02:19.000Z</time>
</trkpt>
<trkpt lat="56.937950" lon="8.368671">
<ele>26.036506</ele>
<time>2026-07-14T10:02:20.000Z</time>
</trkpt>
<trkpt lat="56.937999" lon="8.368660">
<ele>26.019004</ele>
<time>2026-07-14T10:02:21.000Z</time>
</trkpt>
<trkpt lat="56.938048" lon="8.368643">
<ele>26.001323</ele>
<time>2026-07-14T10:02:22.000Z</time>
</trkpt>
<trkpt lat="56.938097" lon="8.368622">
<ele>25.983482</ele>
<time>2026-07-14T10:02:23.000Z</time>
</trkpt>
<trkpt lat="56.938149" lon="8.368597">
<ele>25.964423</ele>
<time>2026-07-14T10:02:24.000Z</time>
</trkpt>
<trkpt lat="56.938200" lon="8.368568">
<ele>25.945491</ele>
<time>2026-07-14T10:02:25.000Z</time>
</trkpt>
<trkpt lat="56.938247" lon="8.368533">
<ele>25.927506</ele>
<time>2026-07-14T10:02:26.000Z</time>
</trkpt>
<trkpt lat="56.938293" lon="8.368496">
<ele>25.909696</ele>
<time>2026-07-14T10:02:27.000Z</time>
</trkpt>
<trkpt lat="56.938340" lon="8.368459">
<ele>25.891561</ele>
<time>2026-07-14T10:02:28.000Z</time>
</trkpt>
<trkpt lat="56.938392" lon="8.368422">
<ele>25.871785</ele>
<time>2026-07-14T10:02:29.000Z</time>
</trkpt>
<trkpt lat="56.938439" lon="8.368387">
<ele>25.853799</ele>
<time>2026-07-14T10:02:30.000Z</time>
</trkpt>
<trkpt lat="56.938486" lon="8.368351">
<ele>25.805723</ele>
<time>2026-07-14T10:02:31.000Z</time>
</trkpt>
<trkpt lat="56.938535" lon="8.368316">
<ele>25.749101</ele>
<time>2026-07-14T10:02:32.000Z</time>
</trkpt>
<trkpt lat="56.938583" lon="8.368283">
<ele>25.693904</ele>
<time>2026-07-14T10:02:33.000Z</time>
</trkpt>
<trkpt lat="56.938632" lon="8.368251">
<ele>25.637898</ele>
<time>2026-07-14T10:02:34.000Z</time>
</trkpt>
<trkpt lat="56.938682" lon="8.368223">
<ele>25.581607</ele>
<time>2026-07-14T10:02:35.000Z</time>
</trkpt>
<trkpt lat="56.938735" lon="8.368199">
<ele>25.522826</ele>
<time>2026-07-14T10:02:36.000Z</time>
</trkpt>
<trkpt lat="56.938785" lon="8.368180">
<ele>25.467847</ele>
<time>2026-07-14T10:02:37.000Z</time>
</trkpt>
<trkpt lat="56.938839" lon="8.368165">
<ele>25.409041</ele>
<time>2026-07-14T10:02:38.000Z</time>
</trkpt>
<trkpt lat="56.938892" lon="8.368156">
<ele>25.351732</ele>
<time>2026-07-14T10:02:39.000Z</time>
</trkpt>
<trkpt lat="56.938943" lon="8.368156">
<ele>25.296820</ele>
<time>2026-07-14T10:02:40.000Z</time>
</trkpt>
<trkpt lat="56.938994" lon="8.368165">
<ele>25.241655</ele>
<time>2026-07-14T10:02:41.000Z</time>
</trkpt>
<trkpt lat="56.939050" lon="8.368184">
<ele>25.180336</ele>
<time>2026-07-14T10:02:42.000Z</time>
</trkpt>
<trkpt lat="56.939109" lon="8.368210">
<ele>25.115001</ele>
<time>2026-07-14T10:02:43.000Z</time>
</trkpt>
<trkpt lat="56.939163" lon="8.368239">
<ele>25.054415</ele>
<time>2026-07-14T10:02:44.000Z</time>
</trkpt>
<trkpt lat="56.939218" lon="8.368271">
<ele>24.992285</ele>
<time>2026-07-14T10:02:45.000Z</time>
</trkpt>
<trkpt lat="56.939271" lon="8.368304">
<ele>24.932018</ele>
<time>2026-07-14T10:02:46.000Z</time>
</trkpt>
<trkpt lat="56.939324" lon="8.368338">
<ele>24.871560</ele>
<time>2026-07-14T10:02:47.000Z</time>
</trkpt>
<trkpt lat="56.939377" lon="8.368373">
<ele>24.810905</ele>
<time>2026-07-14T10:02:48.000Z</time>
</trkpt>
<trkpt lat="56.939429" lon="8.368411">
<ele>24.750631</ele>
<time>2026-07-14T10:02:49.000Z</time>
</trkpt>
<trkpt lat="56.939481" lon="8.368450">
<ele>24.690138</ele>
<time>2026-07-14T10:02:50.000Z</time>
</trkpt>
<trkpt lat="56.939533" lon="8.368487">
<ele>24.630080</ele>
<time>2026-07-14T10:02:51.000Z</time>
</trkpt>
<trkpt lat="56.939584" lon="8.368521">
<ele>24.571650</ele>
<time>2026-07-14T10:02:52.000Z</time>
</trkpt>
<trkpt lat="56.939633" lon="8.368551">
<ele>24.516027</ele>
<time>2026-07-14T10:02:53.000Z</time>
</trkpt>
<trkpt lat="56.939681" lon="8.368580">
<ele>24.461610</ele>
<time>2026-07-14T10:02:54.000Z</time>
</trkpt>
<trkpt lat="56.939729" lon="8.368610">
<ele>24.407008</ele>
<time>2026-07-14T10:02:55.000Z</time>
</trkpt>
<trkpt lat="56.939773" lon="8.368638">
<ele>24.356859</ele>
<time>2026-07-14T10:02:56.000Z</time>
</trkpt>
<trkpt lat="56.939811" lon="8.368665">
<ele>24.312979</ele>
<time>2026-07-14T10:02:57.000Z</time>
</trkpt>
<trkpt lat="56.939845" lon="8.368690">
<ele>24.273536</ele>
<time>2026-07-14T10:02:58.000Z</time>
</trkpt>
<trkpt lat="56.939879" lon="8.368710">
<ele>24.235090</ele>
<time>2026-07-14T10:02:59.000Z</time>
</trkpt>
<trkpt lat="56.939915" lon="8.368730">
<ele>24.194588</ele>
<time>2026-07-14T10:03:00.000Z</time>
</trkpt>
<trkpt lat="56.939955" lon="8.368751">
<ele>24.149788</ele>
<time>2026-07-14T10:03:01.000Z</time>
</trkpt>
<trkpt lat="56.939995" lon="8.368771">
<ele>24.105147</ele>
<time>2026-07-14T10:03:02.000Z</time>
</trkpt>
<trkpt lat="56.940041" lon="8.368792">
<ele>24.054106</ele>
<time>2026-07-14T10:03:03.000Z</time>
</trkpt>
<trkpt lat="56.940096" lon="8.368819">
<ele>23.992801</ele>
<time>2026-07-14T10:03:04.000Z</time>
</trkpt>
<trkpt lat="56.940148" lon="8.368847">
<ele>23.934447</ele>
<time>2026-07-14T10:03:05.000Z</time>
</trkpt>
<trkpt lat="56.940200" lon="8.368880">
<ele>23.867514</ele>
<time>2026-07-14T10:03:06.000Z</time>
</trkpt>
<trkpt lat="56.940250" lon="8.368916">
<ele>23.798186</ele>
<time>2026-07-14T10:03:07.000Z</time>
</trkpt>
<trkpt lat="56.940304" lon="8.368955">
<ele>23.723280</ele>
<time>2026-07-14T10:03:08.000Z</time>
</trkpt>
<trkpt lat="56.940359" lon="8.368996">
<ele>23.646653</ele>
<time>2026-07-14T10:03:09.000Z</time>
</trkpt>
<trkpt lat="56.940410" lon="8.369037">
<ele>23.574782</ele>
<time>2026-07-14T10:03:10.000Z</time>
</trkpt>
<trkpt lat="56.940462" lon="8.369076">
<ele>23.502271</ele>
<time>2026-07-14T10:03:11.000Z</time>
</trkpt>
<trkpt lat="56.940515" lon="8.369110">
<ele>23.429803</ele>
<time>2026-07-14T10:03:12.000Z</time>
</trkpt>
<trkpt lat="56.940569" lon="8.369141">
<ele>23.356773</ele>
<time>2026-07-14T10:03:13.000Z</time>
</trkpt>
<trkpt lat="56.940628" lon="8.369175">
<ele>23.276955</ele>
<time>2026-07-14T10:03:14.000Z</time>
</trkpt>
<trkpt lat="56.940684" lon="8.369211">
<ele>23.200366</ele>
<time>2026-07-14T10:03:15.000Z</time>
</trkpt>
<trkpt lat="56.940735" lon="8.369244">
<ele>23.130566</ele>
<time>2026-07-14T10:03:16.000Z</time>
</trkpt>
<trkpt lat="56.940790" lon="8.369278">
<ele>23.055656</ele>
<time>2026-07-14T10:03:17.000Z</time>
</trkpt>
<trkpt lat="56.940848" lon="8.369315">
<ele>22.976399</ele>
<time>2026-07-14T10:03:18.000Z</time>
</trkpt>
<trkpt lat="56.940906" lon="8.369357">
<ele>22.895916</ele>
<time>2026-07-14T10:03:19.000Z</time>
</trkpt>
<trkpt lat="56.940965" lon="8.369402">
<ele>22.813444</ele>
<time>2026-07-14T10:03:20.000Z</time>
</trkpt>
<trkpt lat="56.941028" lon="8.369449">
<ele>22.725661</ele>
<time>2026-07-14T10:03:21.000Z</time>
</trkpt>
<trkpt lat="56.941091" lon="8.369495">
<ele>22.638142</ele>
<time>2026-07-14T10:03:22.000Z</time>
</trkpt>
<trkpt lat="56.941150" lon="8.369536">
<ele>22.556710</ele>
<time>2026-07-14T10:03:23.000Z</time>
</trkpt>
<trkpt lat="56.941209" lon="8.369574">
<ele>22.476002</ele>
<time>2026-07-14T10:03:24.000Z</time>
</trkpt>
<trkpt lat="56.941268" lon="8.369611">
<ele>22.395525</ele>
<time>2026-07-14T10:03:25.000Z</time>
</trkpt>
<trkpt lat="56.941328" lon="8.369648">
<ele>22.313826</ele>
<time>2026-07-14T10:03:26.000Z</time>
</trkpt>
<trkpt lat="56.941386" lon="8.369686">
<ele>22.234334</ele>
<time>2026-07-14T10:03:27.000Z</time>
</trkpt>
<trkpt lat="56.941446" lon="8.369722">
<ele>22.152857</ele>
<time>2026-07-14T10:03:28.000Z</time>
</trkpt>
<trkpt lat="56.941504" lon="8.369758">
<ele>22.073828</ele>
<time>2026-07-14T10:03:29.000Z</time>
</trkpt>
<trkpt lat="56.941558" lon="8.369790">
<ele>22.000586</ele>
<time>2026-07-14T10:03:30.000Z</time>
</trkpt>
<trkpt lat="56.941616" lon="8.369826">
<ele>21.921557</ele>
<time>2026-07-14T10:03:31.000Z</time>
</trkpt>
<trkpt lat="56.941679" lon="8.369865">
<ele>21.835739</ele>
<time>2026-07-14T10:03:32.000Z</time>
</trkpt>
<trkpt lat="56.941732" lon="8.369896">
<ele>21.763941</ele>
<time>2026-07-14T10:03:33.000Z</time>
</trkpt>
<trkpt lat="56.941785" lon="8.369928">
<ele>21.691925</ele>
<time>2026-07-14T10:03:34.000Z</time>
</trkpt>
<trkpt lat="56.941835" lon="8.369961">
<ele>21.623341</ele>
<time>2026-07-14T10:03:35.000Z</time>
</trkpt>
<trkpt lat="56.941885" lon="8.369997">
<ele>21.606980</ele>
<time>2026-07-14T10:03:36.000Z</time>
</trkpt>
<trkpt lat="56.941938" lon="8.370034">
<ele>21.634339</ele>
<time>2026-07-14T10:03:37.000Z</time>
</trkpt>
<trkpt lat="56.941991" lon="8.370069">
<ele>21.661515</ele>
<time>2026-07-14T10:03:38.000Z</time>
</trkpt>
<trkpt lat="56.942043" lon="8.370101">
<ele>21.687976</ele>
<time>2026-07-14T10:03:39.000Z</time>
</trkpt>
<trkpt lat="56.942092" lon="8.370133">
<ele>21.713070</ele>
<time>2026-07-14T10:03:40.000Z</time>
</trkpt>
<trkpt lat="56.942141" lon="8.370166">
<ele>21.738253</ele>
<time>2026-07-14T10:03:41.000Z</time>
</trkpt>
<trkpt lat="56.942189" lon="8.370200">
<ele>21.763077</ele>
<time>2026-07-14T10:03:42.000Z</time>
</trkpt>
<trkpt lat="56.942235" lon="8.370234">
<ele>21.787004</ele>
<time>2026-07-14T10:03:43.000Z</time>
</trkpt>
<trkpt lat="56.942283" lon="8.370269">
<ele>21.811924</ele>
<time>2026-07-14T10:03:44.000Z</time>
</trkpt>
<trkpt lat="56.942332" lon="8.370302">
<ele>21.837107</ele>
<time>2026-07-14T10:03:45.000Z</time>
</trkpt>
<trkpt lat="56.942382" lon="8.370334">
<ele>21.862655</ele>
<time>2026-07-14T10:03:46.000Z</time>
</trkpt>
<trkpt lat="56.942429" lon="8.370363">
<ele>21.886578</ele>
<time>2026-07-14T10:03:47.000Z</time>
</trkpt>
<trkpt lat="56.942477" lon="8.370392">
<ele>21.910959</ele>
<time>2026-07-14T10:03:48.000Z</time>
</trkpt>
<trkpt lat="56.942525" lon="8.370421">
<ele>21.935340</ele>
<time>2026-07-14T10:03:49.000Z</time>
</trkpt>
<trkpt lat="56.942572" lon="8.370448">
<ele>21.959101</ele>
<time>2026-07-14T10:03:50.000Z</time>
</trkpt>
<trkpt lat="56.942619" lon="8.370478">
<ele>21.983109</ele>
<time>2026-07-14T10:03:51.000Z</time>
</trkpt>
<trkpt lat="56.942667" lon="8.370513">
<ele>22.008029</ele>
<time>2026-07-14T10:03:52.000Z</time>
</trkpt>
<trkpt lat="56.942718" lon="8.370549">
<ele>22.034393</ele>
<time>2026-07-14T10:03:53.000Z</time>
</trkpt>
<trkpt lat="56.942768" lon="8.370583">
<ele>22.060120</ele>
<time>2026-07-14T10:03:54.000Z</time>
</trkpt>
<trkpt lat="56.942817" lon="8.370615">
<ele>22.085213</ele>
<time>2026-07-14T10:03:55.000Z</time>
</trkpt>
<trkpt lat="56.942862" lon="8.370641">
<ele>22.107974</ele>
<time>2026-07-14T10:03:56.000Z</time>
</trkpt>
<trkpt lat="56.942909" lon="8.370670">
<ele>22.131897</ele>
<time>2026-07-14T10:03:57.000Z</time>
</trkpt>
<trkpt lat="56.942961" lon="8.370703">
<ele>22.158443</ele>
<time>2026-07-14T10:03:58.000Z</time>
</trkpt>
<trkpt lat="56.943010" lon="8.370732">
<ele>22.183283</ele>
<time>2026-07-14T10:03:59.000Z</time>
</trkpt>
<trkpt lat="56.943061" lon="8.370763">
<ele>22.209203</ele>
<time>2026-07-14T10:04:00.000Z</time>
</trkpt>
<trkpt lat="56.943109" lon="8.370796">
<ele>22.233934</ele>
<time>2026-07-14T10:04:01.000Z</time>
</trkpt>
<trkpt lat="56.943154" lon="8.370831">
<ele>22.257515</ele>
<time>2026-07-14T10:04:02.000Z</time>
</trkpt>
<trkpt lat="56.943198" lon="8.370865">
<ele>22.280550</ele>
<time>2026-07-14T10:04:03.000Z</time>
</trkpt>
<trkpt lat="56.943242" lon="8.370897">
<ele>22.303385</ele>
<time>2026-07-14T10:04:04.000Z</time>
</trkpt>
<trkpt lat="56.943287" lon="8.370925">
<ele>22.326310</ele>
<time>2026-07-14T10:04:05.000Z</time>
</trkpt>
<trkpt lat="56.943333" lon="8.370953">
<ele>22.349692</ele>
<time>2026-07-14T10:04:06.000Z</time>
</trkpt>
<trkpt lat="56.943379" lon="8.370979">
<ele>22.372914</ele>
<time>2026-07-14T10:04:07.000Z</time>
</trkpt>
<trkpt lat="56.943425" lon="8.371002">
<ele>22.395916</ele>
<time>2026-07-14T10:04:08.000Z</time>
</trkpt>
<trkpt lat="56.943473" lon="8.371028">
<ele>22.420061</ele>
<time>2026-07-14T10:04:09.000Z</time>
</trkpt>
<trkpt lat="56.943523" lon="8.371056">
<ele>22.445282</ele>
<time>2026-07-14T10:04:10.000Z</time>
</trkpt>
<trkpt lat="56.943572" lon="8.371084">
<ele>22.454361</ele>
<time>2026-07-14T10:04:11.000Z</time>
</trkpt>
<trkpt lat="56.943623" lon="8.371109">
<ele>22.439014</ele>
<time>2026-07-14T10:04:12.000Z</time>
</trkpt>
<trkpt lat="56.943678" lon="8.371136">
<ele>22.422462</ele>
<time>2026-07-14T10:04:13.000Z</time>
</trkpt>
<trkpt lat="56.943735" lon="8.371167">
<ele>22.405177</ele>
<time>2026-07-14T10:04:14.000Z</time>
</trkpt>
<trkpt lat="56.943790" lon="8.371199">
<ele>22.388403</ele>
<time>2026-07-14T10:04:15.000Z</time>
</trkpt>
<trkpt lat="56.943845" lon="8.371233">
<ele>22.371529</ele>
<time>2026-07-14T10:04:16.000Z</time>
</trkpt>
<trkpt lat="56.943895" lon="8.371271">
<ele>22.355794</ele>
<time>2026-07-14T10:04:17.000Z</time>
</trkpt>
<trkpt lat="56.943942" lon="8.371313">
<ele>22.340594</ele>
<time>2026-07-14T10:04:18.000Z</time>
</trkpt>
<trkpt lat="56.943990" lon="8.371361">
<ele>22.324699</ele>
<time>2026-07-14T10:04:19.000Z</time>
</trkpt>
<trkpt lat="56.944034" lon="8.371404">
<ele>22.310204</ele>
<time>2026-07-14T10:04:20.000Z</time>
</trkpt>
<trkpt lat="56.944074" lon="8.371437">
<ele>22.297452</ele>
<time>2026-07-14T10:04:21.000Z</time>
</trkpt>
<trkpt lat="56.944108" lon="8.371461">
<ele>22.286861</ele>
<time>2026-07-14T10:04:22.000Z</time>
</trkpt>
<trkpt lat="56.944142" lon="8.371484">
<ele>22.276325</ele>
<time>2026-07-14T10:04:23.000Z</time>
</trkpt>
<trkpt lat="56.944176" lon="8.371506">
<ele>22.265844</ele>
<time>2026-07-14T10:04:24.000Z</time>
</trkpt>
<trkpt lat="56.944209" lon="8.371528">
<ele>22.255636</ele>
<time>2026-07-14T10:04:25.000Z</time>
</trkpt>
<trkpt lat="56.944244" lon="8.371551">
<ele>22.244827</ele>
<time>2026-07-14T10:04:26.000Z</time>
</trkpt>
<trkpt lat="56.944282" lon="8.371579">
<ele>22.232921</ele>
<time>2026-07-14T10:04:27.000Z</time>
</trkpt>
<trkpt lat="56.944319" lon="8.371612">
<ele>22.220960</ele>
<time>2026-07-14T10:04:28.000Z</time>
</trkpt>
<trkpt lat="56.944356" lon="8.371646">
<ele>22.208928</ele>
<time>2026-07-14T10:04:29.000Z</time>
</trkpt>
<trkpt lat="56.944396" lon="8.371679">
<ele>22.196176</ele>
<time>2026-07-14T10:04:30.000Z</time>
</trkpt>
<trkpt lat="56.944437" lon="8.371709">
<ele>22.183343</ele>
<time>2026-07-14T10:04:31.000Z</time>
</trkpt>
<trkpt lat="56.944480" lon="8.371739">
<ele>22.169968</ele>
<time>2026-07-14T10:04:32.000Z</time>
</trkpt>
<trkpt lat="56.944522" lon="8.371768">
<ele>22.156921</ele>
<time>2026-07-14T10:04:33.000Z</time>
</trkpt>
<trkpt lat="56.944564" lon="8.371796">
<ele>22.143929</ele>
<time>2026-07-14T10:04:34.000Z</time>
</trkpt>
<trkpt lat="56.944605" lon="8.371824">
<ele>22.131210</ele>
<time>2026-07-14T10:04:35.000Z</time>
</trkpt>
<trkpt lat="56.944646" lon="8.371853">
<ele>22.118434</ele>
<time>2026-07-14T10:04:36.000Z</time>
</trkpt>
<trkpt lat="56.944687" lon="8.371883">
<ele>22.105601</ele>
<time>2026-07-14T10:04:37.000Z</time>
</trkpt>
<trkpt lat="56.944731" lon="8.371916">
<ele>22.091781</ele>
<time>2026-07-14T10:04:38.000Z</time>
</trkpt>
<trkpt lat="56.944774" lon="8.371950">
<ele>22.078167</ele>
<time>2026-07-14T10:04:39.000Z</time>
</trkpt>
<trkpt lat="56.944816" lon="8.371983">
<ele>22.064883</ele>
<time>2026-07-14T10:04:40.000Z</time>
</trkpt>
<trkpt lat="56.944856" lon="8.372014">
<ele>22.052259</ele>
<time>2026-07-14T10:04:41.000Z</time>
</trkpt>
<trkpt lat="56.944902" lon="8.372046">
<ele>22.037956</ele>
<time>2026-07-14T10:04:42.000Z</time>
</trkpt>
<trkpt lat="56.944953" lon="8.372082">
<ele>22.022069</ele>
<time>2026-07-14T10:04:43.000Z</time>
</trkpt>
<trkpt lat="56.945001" lon="8.372121">
<ele>22.006806</ele>
<time>2026-07-14T10:04:44.000Z</time>
</trkpt>
<trkpt lat="56.945049" lon="8.372160">
<ele>21.991543</ele>
<time>2026-07-14T10:04:45.000Z</time>
</trkpt>
<trkpt lat="56.945102" lon="8.372199">
<ele>21.974940</ele>
<time>2026-07-14T10:04:46.000Z</time>
</trkpt>
<trkpt lat="56.945158" lon="8.372242">
<ele>21.957290</ele>
<time>2026-07-14T10:04:47.000Z</time>
</trkpt>
<trkpt lat="56.945217" lon="8.372290">
<ele>21.938526</ele>
<time>2026-07-14T10:04:48.000Z</time>
</trkpt>
<trkpt lat="56.945278" lon="8.372340">
<ele>21.919300</ele>
<time>2026-07-14T10:04:49.000Z</time>
</trkpt>
<trkpt lat="56.945338" lon="8.372384">
<ele>21.900719</ele>
<time>2026-07-14T10:04:50.000Z</time>
</trkpt>
<trkpt lat="56.945404" lon="8.372429">
<ele>21.880472</ele>
<time>2026-07-14T10:04:51.000Z</time>
</trkpt>
<trkpt lat="56.945466" lon="8.372477">
<ele>21.861120</ele>
<time>2026-07-14T10:04:52.000Z</time>
</trkpt>
<trkpt lat="56.945527" lon="8.372523">
<ele>21.842155</ele>
<time>2026-07-14T10:04:53.000Z</time>
</trkpt>
<trkpt lat="56.945593" lon="8.372571">
<ele>21.821739</ele>
<time>2026-07-14T10:04:54.000Z</time>
</trkpt>
<trkpt lat="56.945659" lon="8.372623">
<ele>21.801083</ele>
<time>2026-07-14T10:04:55.000Z</time>
</trkpt>
<trkpt lat="56.945726" lon="8.372676">
<ele>21.780101</ele>
<time>2026-07-14T10:04:56.000Z</time>
</trkpt>
<trkpt lat="56.945794" lon="8.372730">
<ele>21.758793</ele>
<time>2026-07-14T10:04:57.000Z</time>
</trkpt>
<trkpt lat="56.945863" lon="8.372784">
<ele>21.737221</ele>
<time>2026-07-14T10:04:58.000Z</time>
</trkpt>
<trkpt lat="56.945932" lon="8.372835">
<ele>21.715830</ele>
<time>2026-07-14T10:04:59.000Z</time>
</trkpt>
<trkpt lat="56.946001" lon="8.372884">
<ele>21.694553</ele>
<time>2026-07-14T10:05:00.000Z</time>
</trkpt>
<trkpt lat="56.946063" lon="8.372930">
<ele>21.675322</ele>
<time>2026-07-14T10:05:01.000Z</time>
</trkpt>
<trkpt lat="56.946124" lon="8.372978">
<ele>21.656235</ele>
<time>2026-07-14T10:05:02.000Z</time>
</trkpt>
<trkpt lat="56.946187" lon="8.373028">
<ele>21.636496</ele>
<time>2026-07-14T10:05:03.000Z</time>
</trkpt>
<trkpt lat="56.946246" lon="8.373077">
<ele>21.617871</ele>
<time>2026-07-14T10:05:04.000Z</time>
</trkpt>
<trkpt lat="56.946303" lon="8.373124">
<ele>21.599901</ele>
<time>2026-07-14T10:05:05.000Z</time>
</trkpt>
<trkpt lat="56.946361" lon="8.373166">
<ele>21.581970</ele>
<time>2026-07-14T10:05:06.000Z</time>
</trkpt>
<trkpt lat="56.946414" lon="8.373206">
<ele>21.565490</ele>
<time>2026-07-14T10:05:07.000Z</time>
</trkpt>
<trkpt lat="56.946462" lon="8.373246">
<ele>21.550329</ele>
<time>2026-07-14T10:05:08.000Z</time>
</trkpt>
<trkpt lat="56.946507" lon="8.373283">
<ele>21.536148</ele>
<time>2026-07-14T10:05:09.000Z</time>
</trkpt>
<trkpt lat="56.946553" lon="8.373317">
<ele>21.521887</ele>
<time>2026-07-14T10:05:10.000Z</time>
</trkpt>
<trkpt lat="56.946592" lon="8.373347">
<ele>21.509726</ele>
<time>2026-07-14T10:05:11.000Z</time>
</trkpt>
<trkpt lat="56.946630" lon="8.373373">
<ele>21.498064</ele>
<time>2026-07-14T10:05:12.000Z</time>
</trkpt>
<trkpt lat="56.946669" lon="8.373399">
<ele>21.486132</ele>
<time>2026-07-14T10:05:13.000Z</time>
</trkpt>
<trkpt lat="56.946705" lon="8.373424">
<ele>21.475063</ele>
<time>2026-07-14T10:05:14.000Z</time>
</trkpt>
<trkpt lat="56.946743" lon="8.373450">
<ele>21.463400</ele>
<time>2026-07-14T10:05:15.000Z</time>
</trkpt>
<trkpt lat="56.946782" lon="8.373472">
<ele>21.451668</ele>
<time>2026-07-14T10:05:16.000Z</time>
</trkpt>
<trkpt lat="56.946819" lon="8.373492">
<ele>21.440576</ele>
<time>2026-07-14T10:05:17.000Z</time>
</trkpt>
<trkpt lat="56.946855" lon="8.373512">
<ele>21.429760</ele>
<time>2026-07-14T10:05:18.000Z</time>
</trkpt>
<trkpt lat="56.946890" lon="8.373531">
<ele>21.423188</ele>
<time>2026-07-14T10:05:19.000Z</time>
</trkpt>
<trkpt lat="56.946926" lon="8.373549">
<ele>21.457573</ele>
<time>2026-07-14T10:05:20.000Z</time>
</trkpt>
<trkpt lat="56.946965" lon="8.373565">
<ele>21.494399</ele>
<time>2026-07-14T10:05:21.000Z</time>
</trkpt>
<trkpt lat="56.947003" lon="8.373578">
<ele>21.530020</ele>
<time>2026-07-14T10:05:22.000Z</time>
</trkpt>
<trkpt lat="56.947040" lon="8.373589">
<ele>21.564561</ele>
<time>2026-07-14T10:05:23.000Z</time>
</trkpt>
<trkpt lat="56.947080" lon="8.373596">
<ele>21.601588</ele>
<time>2026-07-14T10:05:24.000Z</time>
</trkpt>
<trkpt lat="56.947123" lon="8.373601">
<ele>21.641291</ele>
<time>2026-07-14T10:05:25.000Z</time>
</trkpt>
<trkpt lat="56.947163" lon="8.373608">
<ele>21.678318</ele>
<time>2026-07-14T10:05:26.000Z</time>
</trkpt>
<trkpt lat="56.947203" lon="8.373614">
<ele>21.715301</ele>
<time>2026-07-14T10:05:27.000Z</time>
</trkpt>
<trkpt lat="56.947243" lon="8.373618">
<ele>21.752215</ele>
<time>2026-07-14T10:05:28.000Z</time>
</trkpt>
<trkpt lat="56.947282" lon="8.373621">
<ele>21.788185</ele>
<time>2026-07-14T10:05:29.000Z</time>
</trkpt>
<trkpt lat="56.947323" lon="8.373622">
<ele>21.825969</ele>
<time>2026-07-14T10:05:30.000Z</time>
</trkpt>
<trkpt lat="56.947367" lon="8.373618">
<ele>21.866564</ele>
<time>2026-07-14T10:05:31.000Z</time>
</trkpt>
<trkpt lat="56.947409" lon="8.373612">
<ele>21.905384</ele>
<time>2026-07-14T10:05:32.000Z</time>
</trkpt>
<trkpt lat="56.947451" lon="8.373606">
<ele>21.944204</ele>
<time>2026-07-14T10:05:33.000Z</time>
</trkpt>
<trkpt lat="56.947495" lon="8.373597">
<ele>21.985001</ele>
<time>2026-07-14T10:05:34.000Z</time>
</trkpt>
<trkpt lat="56.947539" lon="8.373582">
<ele>22.026241</ele>
<time>2026-07-14T10:05:35.000Z</time>
</trkpt>
<trkpt lat="56.947583" lon="8.373564">
<ele>22.067784</ele>
<time>2026-07-14T10:05:36.000Z</time>
</trkpt>
<trkpt lat="56.947629" lon="8.373546">
<ele>22.111127</ele>
<time>2026-07-14T10:05:37.000Z</time>
</trkpt>
<trkpt lat="56.947676" lon="8.373528">
<ele>22.155371</ele>
<time>2026-07-14T10:05:38.000Z</time>
</trkpt>
<trkpt lat="56.947724" lon="8.373509">
<ele>22.200622</ele>
<time>2026-07-14T10:05:39.000Z</time>
</trkpt>
<trkpt lat="56.947772" lon="8.373490">
<ele>22.245872</ele>
<time>2026-07-14T10:05:40.000Z</time>
</trkpt>
<trkpt lat="56.947824" lon="8.373470">
<ele>22.294832</ele>
<time>2026-07-14T10:05:41.000Z</time>
</trkpt>
<trkpt lat="56.947875" lon="8.373451">
<ele>22.342788</ele>
<time>2026-07-14T10:05:42.000Z</time>
</trkpt>
<trkpt lat="56.947925" lon="8.373431">
<ele>22.389947</ele>
<time>2026-07-14T10:05:43.000Z</time>
</trkpt>
<trkpt lat="56.947977" lon="8.373410">
<ele>22.439012</ele>
<time>2026-07-14T10:05:44.000Z</time>
</trkpt>
<trkpt lat="56.948030" lon="8.373389">
<ele>22.488979</ele>
<time>2026-07-14T10:05:45.000Z</time>
</trkpt>
<trkpt lat="56.948083" lon="8.373369">
<ele>22.538841</ele>
<time>2026-07-14T10:05:46.000Z</time>
</trkpt>
<trkpt lat="56.948138" lon="8.373348">
<ele>22.590610</ele>
<time>2026-07-14T10:05:47.000Z</time>
</trkpt>
<trkpt lat="56.948193" lon="8.373324">
<ele>22.642707</ele>
<time>2026-07-14T10:05:48.000Z</time>
</trkpt>
<trkpt lat="56.948245" lon="8.373300">
<ele>22.692120</ele>
<time>2026-07-14T10:05:49.000Z</time>
</trkpt>
<trkpt lat="56.948295" lon="8.373277">
<ele>22.739622</ele>
<time>2026-07-14T10:05:50.000Z</time>
</trkpt>
<trkpt lat="56.948347" lon="8.373257">
<ele>22.788582</ele>
<time>2026-07-14T10:05:51.000Z</time>
</trkpt>
<trkpt lat="56.948398" lon="8.373238">
<ele>22.836538</ele>
<time>2026-07-14T10:05:52.000Z</time>
</trkpt>
<trkpt lat="56.948446" lon="8.373221">
<ele>22.881587</ele>
<time>2026-07-14T10:05:53.000Z</time>
</trkpt>
<trkpt lat="56.948489" lon="8.373207">
<ele>22.921831</ele>
<time>2026-07-14T10:05:54.000Z</time>
</trkpt>
<trkpt lat="56.948533" lon="8.373193">
<ele>22.962982</ele>
<time>2026-07-14T10:05:55.000Z</time>
</trkpt>
<trkpt lat="56.948576" lon="8.373181">
<ele>23.003063</ele>
<time>2026-07-14T10:05:56.000Z</time>
</trkpt>
<trkpt lat="56.948621" lon="8.373167">
<ele>23.045122</ele>
<time>2026-07-14T10:05:57.000Z</time>
</trkpt>
<trkpt lat="56.948667" lon="8.373154">
<ele>23.078044</ele>
<time>2026-07-14T10:05:58.000Z</time>
</trkpt>
<trkpt lat="56.948711" lon="8.373143">
<ele>23.079697</ele>
<time>2026-07-14T10:05:59.000Z</time>
</trkpt>
<trkpt lat="56.948754" lon="8.373135">
<ele>23.081306</ele>
<time>2026-07-14T10:06:00.000Z</time>
</trkpt>
<trkpt lat="56.948797" lon="8.373130">
<ele>23.082910</ele>
<time>2026-07-14T10:06:01.000Z</time>
</trkpt>
<trkpt lat="56.948837" lon="8.373127">
<ele>23.084401</ele>
<time>2026-07-14T10:06:02.000Z</time>
</trkpt>
<trkpt lat="56.948879" lon="8.373124">
<ele>23.085966</ele>
<time>2026-07-14T10:06:03.000Z</time>
</trkpt>
<trkpt lat="56.948927" lon="8.373123">
<ele>23.087753</ele>
<time>2026-07-14T10:06:04.000Z</time>
</trkpt>
<trkpt lat="56.948973" lon="8.373124">
<ele>23.089466</ele>
<time>2026-07-14T10:06:05.000Z</time>
</trkpt>
<trkpt lat="56.949029" lon="8.373129">
<ele>23.091553</ele>
<time>2026-07-14T10:06:06.000Z</time>
</trkpt>
<trkpt lat="56.949075" lon="8.373136">
<ele>23.093271</ele>
<time>2026-07-14T10:06:07.000Z</time>
</trkpt>
<trkpt lat="56.949121" lon="8.373147">
<ele>23.094998</ele>
<time>2026-07-14T10:06:08.000Z</time>
</trkpt>
<trkpt lat="56.949166" lon="8.373161">
<ele>23.096698</ele>
<time>2026-07-14T10:06:09.000Z</time>
</trkpt>
<trkpt lat="56.949214" lon="8.373177">
<ele>23.098514</ele>
<time>2026-07-14T10:06:10.000Z</time>
</trkpt>
<trkpt lat="56.949261" lon="8.373194">
<ele>23.100298</ele>
<time>2026-07-14T10:06:11.000Z</time>
</trkpt>
<trkpt lat="56.949307" lon="8.373214">
<ele>23.102058</ele>
<time>2026-07-14T10:06:12.000Z</time>
</trkpt>
<trkpt lat="56.949352" lon="8.373237">
<ele>23.103797</ele>
<time>2026-07-14T10:06:13.000Z</time>
</trkpt>
<trkpt lat="56.949396" lon="8.373260">
<ele>23.105500</ele>
<time>2026-07-14T10:06:14.000Z</time>
</trkpt>
<trkpt lat="56.949441" lon="8.373282">
<ele>23.107234</ele>
<time>2026-07-14T10:06:15.000Z</time>
</trkpt>
<trkpt lat="56.949485" lon="8.373303">
<ele>23.108927</ele>
<time>2026-07-14T10:06:16.000Z</time>
</trkpt>
<trkpt lat="56.949527" lon="8.373324">
<ele>23.110548</ele>
<time>2026-07-14T10:06:17.000Z</time>
</trkpt>
<trkpt lat="56.949569" lon="8.373348">
<ele>23.112185</ele>
<time>2026-07-14T10:06:18.000Z</time>
</trkpt>
<trkpt lat="56.949606" lon="8.373371">
<ele>23.113640</ele>
<time>2026-07-14T10:06:19.000Z</time>
</trkpt>
<trkpt lat="56.949644" lon="8.373392">
<ele>23.115117</ele>
<time>2026-07-14T10:06:20.000Z</time>
</trkpt>
<trkpt lat="56.949682" lon="8.373411">
<ele>23.116584</ele>
<time>2026-07-14T10:06:21.000Z</time>
</trkpt>
<trkpt lat="56.949718" lon="8.373429">
<ele>23.117973</ele>
<time>2026-07-14T10:06:22.000Z</time>
</trkpt>
<trkpt lat="56.949756" lon="8.373447">
<ele>23.119434</ele>
<time>2026-07-14T10:06:23.000Z</time>
</trkpt>
<trkpt lat="56.949792" lon="8.373464">
<ele>23.120818</ele>
<time>2026-07-14T10:06:24.000Z</time>
</trkpt>
<trkpt lat="56.949821" lon="8.373481">
<ele>23.121952</ele>
<time>2026-07-14T10:06:25.000Z</time>
</trkpt>
<trkpt lat="56.949848" lon="8.373503">
<ele>23.123052</ele>
<time>2026-07-14T10:06:26.000Z</time>
</trkpt>
<trkpt lat="56.949885" lon="8.373536">
<ele>23.124584</ele>
<time>2026-07-14T10:06:27.000Z</time>
</trkpt>
<trkpt lat="56.949906" lon="8.373558">
<ele>23.125484</ele>
<time>2026-07-14T10:06:28.000Z</time>
</trkpt>
<trkpt lat="56.949936" lon="8.373597">
<ele>23.126853</ele>
<time>2026-07-14T10:06:29.000Z</time>
</trkpt>
<trkpt lat="56.949948" lon="8.373611">
<ele>23.127383</ele>
<time>2026-07-14T10:06:30.000Z</time>
</trkpt>
<trkpt lat="56.949951" lon="8.373615">
<ele>23.127521</ele>
<time>2026-07-14T10:07:56.000Z</time>
</trkpt>
<trkpt lat="56.949938" lon="8.373650">
<ele>23.128381</ele>
<time>2026-07-14T10:08:00.000Z</time>
</trkpt>
<trkpt lat="56.949921" lon="8.373696">
<ele>23.129509</ele>
<time>2026-07-14T10:08:01.000Z</time>
</trkpt>
<trkpt lat="56.949915" lon="8.373717">
<ele>23.129990</ele>
<time>2026-07-14T10:08:02.000Z</time>
</trkpt>
<trkpt lat="56.949911" lon="8.373742">
<ele>23.130519</ele>
<time>2026-07-14T10:08:03.000Z</time>
</trkpt>
<trkpt lat="56.949911" lon="8.373767">
<ele>23.131027</ele>
<time>2026-07-14T10:08:04.000Z</time>
</trkpt>
<trkpt lat="56.949915" lon="8.373792">
<ele>23.131556</ele>
<time>2026-07-14T10:08:05.000Z</time>
</trkpt>
<trkpt lat="56.949917" lon="8.373818">
<ele>23.132089</ele>
<time>2026-07-14T10:08:06.000Z</time>
</trkpt>
<trkpt lat="56.949917" lon="8.373842">
<ele>23.132576</ele>
<time>2026-07-14T10:08:07.000Z</time>
</trkpt>
<trkpt lat="56.949917" lon="8.373867">
<ele>23.133084</ele>
<time>2026-07-14T10:08:08.000Z</time>
</trkpt>
<trkpt lat="56.949915" lon="8.373892">
<ele>23.133597</ele>
<time>2026-07-14T10:08:09.000Z</time>
</trkpt>
<trkpt lat="56.949911" lon="8.373918">
<ele>23.134145</ele>
<time>2026-07-14T10:08:10.000Z</time>
</trkpt>
<trkpt lat="56.949907" lon="8.373943">
<ele>23.134674</ele>
<time>2026-07-14T10:08:11.000Z</time>
</trkpt>
<trkpt lat="56.949905" lon="8.373968">
<ele>23.135187</ele>
<time>2026-07-14T10:08:12.000Z</time>
</trkpt>
<trkpt lat="56.949904" lon="8.373990">
<ele>23.135636</ele>
<time>2026-07-14T10:08:13.000Z</time>
</trkpt>
<trkpt lat="56.949902" lon="8.374012">
<ele>23.136088</ele>
<time>2026-07-14T10:08:14.000Z</time>
</trkpt>
<trkpt lat="56.949902" lon="8.374037">
<ele>23.136596</ele>
<time>2026-07-14T10:08:15.000Z</time>
</trkpt>
<trkpt lat="56.949902" lon="8.374060">
<ele>23.137063</ele>
<time>2026-07-14T10:08:16.000Z</time>
</trkpt>
<trkpt lat="56.949903" lon="8.374084">
<ele>23.137552</ele>
<time>2026-07-14T10:08:17.000Z</time>
</trkpt>
<trkpt lat="56.949907" lon="8.374106">
<ele>23.138023</ele>
<time>2026-07-14T10:08:18.000Z</time>
</trkpt>
<trkpt lat="56.949911" lon="8.374128">
<ele>23.138493</ele>
<time>2026-07-14T10:08:19.000Z</time>
</trkpt>
<trkpt lat="56.949917" lon="8.374150">
<ele>23.138993</ele>
<time>2026-07-14T10:08:20.000Z</time>
</trkpt>
<trkpt lat="56.949922" lon="8.374172">
<ele>23.139477</ele>
<time>2026-07-14T10:08:21.000Z</time>
</trkpt>
<trkpt lat="56.949926" lon="8.374194">
<ele>23.139948</ele>
<time>2026-07-14T10:08:22.000Z</time>
</trkpt>
<trkpt lat="56.949932" lon="8.374218">
<ele>23.140484</ele>
<time>2026-07-14T10:08:23.000Z</time>
</trkpt>
<trkpt lat="56.949938" lon="8.374238">
<ele>23.140947</ele>
<time>2026-07-14T10:08:24.000Z</time>
</trkpt>
<trkpt lat="56.949944" lon="8.374252">
<ele>23.141309</ele>
<time>2026-07-14T10:08:25.000Z</time>
</trkpt>
<trkpt lat="56.949951" lon="8.374265">
<ele>23.141680</ele>
<time>2026-07-14T10:08:26.000Z</time>
</trkpt>
<trkpt lat="56.949958" lon="8.374278">
<ele>23.142051</ele>
<time>2026-07-14T10:08:27.000Z</time>
</trkpt>
<trkpt lat="56.949966" lon="8.374291">
<ele>23.142449</ele>
<time>2026-07-14T10:08:28.000Z</time>
</trkpt>
<trkpt lat="56.949970" lon="8.374302">
<ele>23.142717</ele>
<time>2026-07-14T10:08:29.000Z</time>
</trkpt>
<trkpt lat="56.949970" lon="8.374309">
<ele>23.142859</ele>
<time>2026-07-14T10:08:30.000Z</time>
</trkpt>
<trkpt lat="56.949970" lon="8.374313">
<ele>23.142940</ele>
<time>2026-07-14T10:08:31.000Z</time>
</trkpt>
<trkpt lat="56.949970" lon="8.374313">
<ele>23.142940</ele>
<time>2026-07-14T10:08:32.000Z</time>
</trkpt>
<trkpt lat="56.949850" lon="8.374404">
<ele>22.985577</ele>
<time>2026-07-14T10:15:36.000Z</time>
</trkpt>
<trkpt lat="56.949852" lon="8.374393">
<ele>22.973832</ele>
<time>2026-07-14T10:15:37.000Z</time>
</trkpt>
<trkpt lat="56.949854" lon="8.374386">
<ele>22.965827</ele>
<time>2026-07-14T10:15:38.000Z</time>
</trkpt>
<trkpt lat="56.949856" lon="8.374383">
<ele>22.961028</ele>
<time>2026-07-14T10:15:39.000Z</time>
</trkpt>
<trkpt lat="56.949856" lon="8.374383">
<ele>22.961028</ele>
<time>2026-07-14T10:15:41.000Z</time>
</trkpt>
<trkpt lat="56.949876" lon="8.374369">
<ele>22.921267</ele>
<time>2026-07-14T10:15:42.000Z</time>
</trkpt>
<trkpt lat="56.949899" lon="8.374356">
<ele>22.876566</ele>
<time>2026-07-14T10:15:43.000Z</time>
</trkpt>
<trkpt lat="56.949910" lon="8.374356">
<ele>22.856136</ele>
<time>2026-07-14T10:15:44.000Z</time>
</trkpt>
<trkpt lat="56.949923" lon="8.374356">
<ele>22.831991</ele>
<time>2026-07-14T10:15:45.000Z</time>
</trkpt>
<trkpt lat="56.949931" lon="8.374358">
<ele>22.816996</ele>
<time>2026-07-14T10:15:46.000Z</time>
</trkpt>
<trkpt lat="56.949938" lon="8.374360">
<ele>22.803838</ele>
<time>2026-07-14T10:15:47.000Z</time>
</trkpt>
<trkpt lat="56.949944" lon="8.374360">
<ele>22.792694</ele>
<time>2026-07-14T10:15:48.000Z</time>
</trkpt>
<trkpt lat="56.949940" lon="8.374276">
<ele>22.707286</ele>
<time>2026-07-14T10:16:39.000Z</time>
</trkpt>
<trkpt lat="56.949934" lon="8.374187">
<ele>22.616450</ele>
<time>2026-07-14T10:16:40.000Z</time>
</trkpt>
<trkpt lat="56.949930" lon="8.374166">
<ele>22.593919</ele>
<time>2026-07-14T10:16:41.000Z</time>
</trkpt>
<trkpt lat="56.949926" lon="8.374138">
<ele>22.564601</ele>
<time>2026-07-14T10:16:42.000Z</time>
</trkpt>
<trkpt lat="56.949923" lon="8.374109">
<ele>22.534703</ele>
<time>2026-07-14T10:16:43.000Z</time>
</trkpt>
<trkpt lat="56.949923" lon="8.374084">
<ele>22.509380</ele>
<time>2026-07-14T10:16:44.000Z</time>
</trkpt>
<trkpt lat="56.949924" lon="8.374066">
<ele>22.491053</ele>
<time>2026-07-14T10:16:45.000Z</time>
</trkpt>
<trkpt lat="56.949924" lon="8.374055">
<ele>22.479911</ele>
<time>2026-07-14T10:16:46.000Z</time>
</trkpt>
<trkpt lat="56.949924" lon="8.374048">
<ele>22.472821</ele>
<time>2026-07-14T10:16:47.000Z</time>
</trkpt>
<trkpt lat="56.949926" lon="8.374026">
<ele>22.450229</ele>
<time>2026-07-14T10:16:50.000Z</time>
</trkpt>
<trkpt lat="56.949928" lon="8.373989">
<ele>22.412568</ele>
<time>2026-07-14T10:16:51.000Z</time>
</trkpt>
<trkpt lat="56.949934" lon="8.373947">
<ele>22.368590</ele>
<time>2026-07-14T10:16:52.000Z</time>
</trkpt>
<trkpt lat="56.949948" lon="8.373898">
<ele>22.312559</ele>
<time>2026-07-14T10:16:53.000Z</time>
</trkpt>
<trkpt lat="56.949965" lon="8.373848">
<ele>22.252877</ele>
<time>2026-07-14T10:16:54.000Z</time>
</trkpt>
<trkpt lat="56.949984" lon="8.373795">
<ele>22.188633</ele>
<time>2026-07-14T10:16:55.000Z</time>
</trkpt>
<trkpt lat="56.950003" lon="8.373736">
<ele>22.119230</ele>
<time>2026-07-14T10:16:56.000Z</time>
</trkpt>
<trkpt lat="56.950024" lon="8.373675">
<ele>22.046162</ele>
<time>2026-07-14T10:16:57.000Z</time>
</trkpt>
<trkpt lat="56.950043" lon="8.373610">
<ele>21.971463</ele>
<time>2026-07-14T10:16:58.000Z</time>
</trkpt>
<trkpt lat="56.950062" lon="8.373541">
<ele>21.893168</ele>
<time>2026-07-14T10:16:59.000Z</time>
</trkpt>
<trkpt lat="56.950083" lon="8.373473">
<ele>21.814014</ele>
<time>2026-07-14T10:17:00.000Z</time>
</trkpt>
<trkpt lat="56.950106" lon="8.373404">
<ele>21.732103</ele>
<time>2026-07-14T10:17:01.000Z</time>
</trkpt>
<trkpt lat="56.950135" lon="8.373329">
<ele>21.638978</ele>
<time>2026-07-14T10:17:02.000Z</time>
</trkpt>
<trkpt lat="56.950164" lon="8.373254">
<ele>21.545853</ele>
<time>2026-07-14T10:17:03.000Z</time>
</trkpt>
<trkpt lat="56.950188" lon="8.373178">
<ele>21.456899</ele>
<time>2026-07-14T10:17:04.000Z</time>
</trkpt>
<trkpt lat="56.950213" lon="8.373099">
<ele>21.364383</ele>
<time>2026-07-14T10:17:05.000Z</time>
</trkpt>
<trkpt lat="56.950240" lon="8.373020">
<ele>21.269949</ele>
<time>2026-07-14T10:17:06.000Z</time>
</trkpt>
<trkpt lat="56.950271" lon="8.372945">
<ele>21.174628</ele>
<time>2026-07-14T10:17:07.000Z</time>
</trkpt>
<trkpt lat="56.950303" lon="8.372876">
<ele>21.082884</ele>
<time>2026-07-14T10:17:08.000Z</time>
</trkpt>
<trkpt lat="56.950336" lon="8.372806">
<ele>20.989162</ele>
<time>2026-07-14T10:17:09.000Z</time>
</trkpt>
<trkpt lat="56.950366" lon="8.372728">
<ele>20.892485</ele>
<time>2026-07-14T10:17:10.000Z</time>
</trkpt>
<trkpt lat="56.950394" lon="8.372648">
<ele>20.796201</ele>
<time>2026-07-14T10:17:11.000Z</time>
</trkpt>
<trkpt lat="56.950423" lon="8.372573">
<ele>20.703077</ele>
<time>2026-07-14T10:17:12.000Z</time>
</trkpt>
<trkpt lat="56.950450" lon="8.372509">
<ele>20.621119</ele>
<time>2026-07-14T10:17:13.000Z</time>
</trkpt>
<trkpt lat="56.950478" lon="8.372459">
<ele>20.548529</ele>
<time>2026-07-14T10:17:14.000Z</time>
</trkpt>
<trkpt lat="56.950507" lon="8.372410">
<ele>20.475287</ele>
<time>2026-07-14T10:17:15.000Z</time>
</trkpt>
<trkpt lat="56.950534" lon="8.372352">
<ele>20.398047</ele>
<time>2026-07-14T10:17:16.000Z</time>
</trkpt>
<trkpt lat="56.950558" lon="8.372291">
<ele>20.321860</ele>
<time>2026-07-14T10:17:17.000Z</time>
</trkpt>
<trkpt lat="56.950583" lon="8.372231">
<ele>20.245378</ele>
<time>2026-07-14T10:17:18.000Z</time>
</trkpt>
<trkpt lat="56.950606" lon="8.372182">
<ele>20.179895</ele>
<time>2026-07-14T10:17:19.000Z</time>
</trkpt>
<trkpt lat="56.950623" lon="8.372152">
<ele>20.136074</ele>
<time>2026-07-14T10:17:20.000Z</time>
</trkpt>
<trkpt lat="56.950630" lon="8.372139">
<ele>20.117569</ele>
<time>2026-07-14T10:17:21.000Z</time>
</trkpt>
<trkpt lat="56.950630" lon="8.372137">
<ele>20.115543</ele>
<time>2026-07-14T10:17:22.000Z</time>
</trkpt>
<trkpt lat="56.950630" lon="8.372139">
<ele>20.113518</ele>
<time>2026-07-14T10:17:23.000Z</time>
</trkpt>
<trkpt lat="56.950630" lon="8.372140">
<ele>20.112505</ele>
<time>2026-07-14T10:17:24.000Z</time>
</trkpt>
<trkpt lat="56.950633" lon="8.372130">
<ele>20.100944</ele>
<time>2026-07-14T10:17:34.000Z</time>
</trkpt>
<trkpt lat="56.950642" lon="8.372104">
<ele>20.069752</ele>
<time>2026-07-14T10:17:35.000Z</time>
</trkpt>
<trkpt lat="56.950655" lon="8.372063">
<ele>20.021715</ele>
<time>2026-07-14T10:17:36.000Z</time>
</trkpt>
<trkpt lat="56.950666" lon="8.372019">
<ele>19.972688</ele>
<time>2026-07-14T10:17:37.000Z</time>
</trkpt>
<trkpt lat="56.950682" lon="8.371970">
<ele>19.914840</ele>
<time>2026-07-14T10:17:38.000Z</time>
</trkpt>
<trkpt lat="56.950701" lon="8.371918">
<ele>19.851441</ele>
<time>2026-07-14T10:17:39.000Z</time>
</trkpt>
<trkpt lat="56.950722" lon="8.371863">
<ele>19.796293</ele>
<time>2026-07-14T10:17:40.000Z</time>
</trkpt>
<trkpt lat="56.950743" lon="8.371804">
<ele>19.769575</ele>
<time>2026-07-14T10:17:41.000Z</time>
</trkpt>
<trkpt lat="56.950762" lon="8.371740">
<ele>19.741940</ele>
<time>2026-07-14T10:17:42.000Z</time>
</trkpt>
<trkpt lat="56.950781" lon="8.371674">
<ele>19.713637</ele>
<time>2026-07-14T10:17:43.000Z</time>
</trkpt>
<trkpt lat="56.950800" lon="8.371604">
<ele>19.683984</ele>
<time>2026-07-14T10:17:44.000Z</time>
</trkpt>
<trkpt lat="56.950819" lon="8.371528">
<ele>19.652278</ele>
<time>2026-07-14T10:17:45.000Z</time>
</trkpt>
<trkpt lat="56.950834" lon="8.371451">
<ele>19.621270</ele>
<time>2026-07-14T10:17:46.000Z</time>
</trkpt>
<trkpt lat="56.950848" lon="8.371372">
<ele>19.589768</ele>
<time>2026-07-14T10:17:47.000Z</time>
</trkpt>
<trkpt lat="56.950861" lon="8.371287">
<ele>19.556289</ele>
<time>2026-07-14T10:17:48.000Z</time>
</trkpt>
<trkpt lat="56.950875" lon="8.371202">
<ele>19.522616</ele>
<time>2026-07-14T10:17:49.000Z</time>
</trkpt>
<trkpt lat="56.950888" lon="8.371117">
<ele>19.489137</ele>
<time>2026-07-14T10:17:50.000Z</time>
</trkpt>
<trkpt lat="56.950901" lon="8.371032">
<ele>19.455659</ele>
<time>2026-07-14T10:17:51.000Z</time>
</trkpt>
<trkpt lat="56.950913" lon="8.370946">
<ele>19.421994</ele>
<time>2026-07-14T10:17:52.000Z</time>
</trkpt>
<trkpt lat="56.950918" lon="8.370859">
<ele>19.388817</ele>
<time>2026-07-14T10:17:53.000Z</time>
</trkpt>
<trkpt lat="56.950922" lon="8.370776">
<ele>19.357218</ele>
<time>2026-07-14T10:17:54.000Z</time>
</trkpt>
<trkpt lat="56.950926" lon="8.370695">
<ele>19.326374</ele>
<time>2026-07-14T10:17:55.000Z</time>
</trkpt>
<trkpt lat="56.950930" lon="8.370614">
<ele>19.295531</ele>
<time>2026-07-14T10:17:56.000Z</time>
</trkpt>
<trkpt lat="56.950934" lon="8.370533">
<ele>19.264687</ele>
<time>2026-07-14T10:17:57.000Z</time>
</trkpt>
<trkpt lat="56.950937" lon="8.370451">
<ele>19.233519</ele>
<time>2026-07-14T10:17:58.000Z</time>
</trkpt>
<trkpt lat="56.950943" lon="8.370364">
<ele>19.200263</ele>
<time>2026-07-14T10:17:59.000Z</time>
</trkpt>
<trkpt lat="56.950949" lon="8.370276">
<ele>19.166631</ele>
<time>2026-07-14T10:18:00.000Z</time>
</trkpt>
<trkpt lat="56.950953" lon="8.370188">
<ele>19.133142</ele>
<time>2026-07-14T10:18:01.000Z</time>
</trkpt>
<trkpt lat="56.950958" lon="8.370099">
<ele>19.099212</ele>
<time>2026-07-14T10:18:02.000Z</time>
</trkpt>
<trkpt lat="56.950964" lon="8.370009">
<ele>19.064826</ele>
<time>2026-07-14T10:18:03.000Z</time>
</trkpt>
<trkpt lat="56.950970" lon="8.369917">
<ele>19.029688</ele>
<time>2026-07-14T10:18:04.000Z</time>
</trkpt>
<trkpt lat="56.950976" lon="8.369826">
<ele>18.994926</ele>
<time>2026-07-14T10:18:05.000Z</time>
</trkpt>
<trkpt lat="56.950981" lon="8.369734">
<ele>18.959864</ele>
<time>2026-07-14T10:18:06.000Z</time>
</trkpt>
<trkpt lat="56.950987" lon="8.369642">
<ele>18.924725</ele>
<time>2026-07-14T10:18:07.000Z</time>
</trkpt>
<trkpt lat="56.950995" lon="8.369553">
<ele>18.890518</ele>
<time>2026-07-14T10:18:08.000Z</time>
</trkpt>
<trkpt lat="56.951010" lon="8.369467">
<ele>18.856276</ele>
<time>2026-07-14T10:18:09.000Z</time>
</trkpt>
<trkpt lat="56.951029" lon="8.369383">
<ele>18.821789</ele>
<time>2026-07-14T10:18:10.000Z</time>
</trkpt>
<trkpt lat="56.951053" lon="8.369302">
<ele>18.786830</ele>
<time>2026-07-14T10:18:11.000Z</time>
</trkpt>
<trkpt lat="56.951079" lon="8.369224">
<ele>18.752162</ele>
<time>2026-07-14T10:18:12.000Z</time>
</trkpt>
<trkpt lat="56.951106" lon="8.369150">
<ele>18.718397</ele>
<time>2026-07-14T10:18:13.000Z</time>
</trkpt>
<trkpt lat="56.951137" lon="8.369080">
<ele>18.684200</ele>
<time>2026-07-14T10:18:14.000Z</time>
</trkpt>
<trkpt lat="56.951173" lon="8.369015">
<ele>18.649067</ele>
<time>2026-07-14T10:18:15.000Z</time>
</trkpt>
<trkpt lat="56.951211" lon="8.368954">
<ele>18.613947</ele>
<time>2026-07-14T10:18:16.000Z</time>
</trkpt>
<trkpt lat="56.951249" lon="8.368899">
<ele>18.580282</ele>
<time>2026-07-14T10:18:17.000Z</time>
</trkpt>
<trkpt lat="56.951291" lon="8.368850">
<ele>18.545937</ele>
<time>2026-07-14T10:18:18.000Z</time>
</trkpt>
<trkpt lat="56.951335" lon="8.368811">
<ele>18.513174</ele>
<time>2026-07-14T10:18:19.000Z</time>
</trkpt>
<trkpt lat="56.951377" lon="8.368779">
<ele>18.482682</ele>
<time>2026-07-14T10:18:20.000Z</time>
</trkpt>
<trkpt lat="56.951421" lon="8.368745">
<ele>18.450672</ele>
<time>2026-07-14T10:18:21.000Z</time>
</trkpt>
<trkpt lat="56.951465" lon="8.368712">
<ele>18.418802</ele>
<time>2026-07-14T10:18:22.000Z</time>
</trkpt>
<trkpt lat="56.951507" lon="8.368680">
<ele>18.388311</ele>
<time>2026-07-14T10:18:23.000Z</time>
</trkpt>
<trkpt lat="56.951549" lon="8.368648">
<ele>18.357820</ele>
<time>2026-07-14T10:18:24.000Z</time>
</trkpt>
<trkpt lat="56.951592" lon="8.368615">
<ele>18.326569</ele>
<time>2026-07-14T10:18:25.000Z</time>
</trkpt>
<trkpt lat="56.951636" lon="8.368579">
<ele>18.294268</ele>
<time>2026-07-14T10:18:26.000Z</time>
</trkpt>
<trkpt lat="56.951679" lon="8.368540">
<ele>18.262106</ele>
<time>2026-07-14T10:18:27.000Z</time>
</trkpt>
<trkpt lat="56.951720" lon="8.368503">
<ele>18.231471</ele>
<time>2026-07-14T10:18:28.000Z</time>
</trkpt>
<trkpt lat="56.951762" lon="8.368469">
<ele>18.200692</ele>
<time>2026-07-14T10:18:29.000Z</time>
</trkpt>
<trkpt lat="56.951803" lon="8.368436">
<ele>18.170674</ele>
<time>2026-07-14T10:18:30.000Z</time>
</trkpt>
<trkpt lat="56.951847" lon="8.368401">
<ele>18.138520</ele>
<time>2026-07-14T10:18:31.000Z</time>
</trkpt>
<trkpt lat="56.951894" lon="8.368365">
<ele>18.104372</ele>
<time>2026-07-14T10:18:32.000Z</time>
</trkpt>
<trkpt lat="56.951944" lon="8.368328">
<ele>18.068225</ele>
<time>2026-07-14T10:18:33.000Z</time>
</trkpt>
<trkpt lat="56.951995" lon="8.368291">
<ele>18.031455</ele>
<time>2026-07-14T10:18:34.000Z</time>
</trkpt>
<trkpt lat="56.952046" lon="8.368256">
<ele>17.994948</ele>
<time>2026-07-14T10:18:35.000Z</time>
</trkpt>
<trkpt lat="56.952098" lon="8.368219">
<ele>17.957554</ele>
<time>2026-07-14T10:18:36.000Z</time>
</trkpt>
<trkpt lat="56.952144" lon="8.368182">
<ele>17.923879</ele>
<time>2026-07-14T10:18:37.000Z</time>
</trkpt>
<trkpt lat="56.952189" lon="8.368146">
<ele>17.890964</ele>
<time>2026-07-14T10:18:38.000Z</time>
</trkpt>
<trkpt lat="56.952237" lon="8.368110">
<ele>17.856197</ele>
<time>2026-07-14T10:18:39.000Z</time>
</trkpt>
<trkpt lat="56.952283" lon="8.368074">
<ele>17.822667</ele>
<time>2026-07-14T10:18:40.000Z</time>
</trkpt>
<trkpt lat="56.952328" lon="8.368034">
<ele>17.789140</ele>
<time>2026-07-14T10:18:41.000Z</time>
</trkpt>
<trkpt lat="56.952376" lon="8.367992">
<ele>17.753485</ele>
<time>2026-07-14T10:18:42.000Z</time>
</trkpt>
<trkpt lat="56.952424" lon="8.367953">
<ele>17.718288</ele>
<time>2026-07-14T10:18:43.000Z</time>
</trkpt>
<trkpt lat="56.952472" lon="8.367912">
<ele>17.682788</ele>
<time>2026-07-14T10:18:44.000Z</time>
</trkpt>
<trkpt lat="56.952522" lon="8.367872">
<ele>17.646216</ele>
<time>2026-07-14T10:18:45.000Z</time>
</trkpt>
<trkpt lat="56.952567" lon="8.367833">
<ele>17.612848</ele>
<time>2026-07-14T10:18:46.000Z</time>
</trkpt>
<trkpt lat="56.952611" lon="8.367794">
<ele>17.580085</ele>
<time>2026-07-14T10:18:47.000Z</time>
</trkpt>
<trkpt lat="56.952659" lon="8.367756">
<ele>17.545034</ele>
<time>2026-07-14T10:18:48.000Z</time>
</trkpt>
<trkpt lat="56.952704" lon="8.367719">
<ele>17.511972</ele>
<time>2026-07-14T10:18:49.000Z</time>
</trkpt>
<trkpt lat="56.952748" lon="8.367683">
<ele>17.479671</ele>
<time>2026-07-14T10:18:50.000Z</time>
</trkpt>
<trkpt lat="56.952792" lon="8.367648">
<ele>17.447517</ele>
<time>2026-07-14T10:18:51.000Z</time>
</trkpt>
<trkpt lat="56.952838" lon="8.367612">
<ele>17.413987</ele>
<time>2026-07-14T10:18:52.000Z</time>
</trkpt>
<trkpt lat="56.952888" lon="8.367575">
<ele>17.377840</ele>
<time>2026-07-14T10:18:53.000Z</time>
</trkpt>
<trkpt lat="56.952938" lon="8.367534">
<ele>17.340841</ele>
<time>2026-07-14T10:18:54.000Z</time>
</trkpt>
<trkpt lat="56.952989" lon="8.367493">
<ele>17.301850</ele>
<time>2026-07-14T10:18:55.000Z</time>
</trkpt>
<trkpt lat="56.953041" lon="8.367457">
<ele>17.262931</ele>
<time>2026-07-14T10:18:56.000Z</time>
</trkpt>
<trkpt lat="56.953090" lon="8.367425">
<ele>17.226510</ele>
<time>2026-07-14T10:18:57.000Z</time>
</trkpt>
<trkpt lat="56.953142" lon="8.367388">
<ele>17.187455</ele>
<time>2026-07-14T10:18:58.000Z</time>
</trkpt>
<trkpt lat="56.953195" lon="8.367350">
<ele>17.147608</ele>
<time>2026-07-14T10:18:59.000Z</time>
</trkpt>
<trkpt lat="56.953247" lon="8.367312">
<ele>17.108413</ele>
<time>2026-07-14T10:19:00.000Z</time>
</trkpt>
<trkpt lat="56.953292" lon="8.367276">
<ele>17.074036</ele>
<time>2026-07-14T10:19:01.000Z</time>
</trkpt>
<trkpt lat="56.953336" lon="8.367238">
<ele>17.039981</ele>
<time>2026-07-14T10:19:02.000Z</time>
</trkpt>
<trkpt lat="56.953380" lon="8.367201">
<ele>17.006087</ele>
<time>2026-07-14T10:19:03.000Z</time>
</trkpt>
<trkpt lat="56.953422" lon="8.367166">
<ele>16.973784</ele>
<time>2026-07-14T10:19:04.000Z</time>
</trkpt>
<trkpt lat="56.953462" lon="8.367134">
<ele>16.943227</ele>
<time>2026-07-14T10:19:05.000Z</time>
</trkpt>
<trkpt lat="56.953498" lon="8.367109">
<ele>16.916273</ele>
<time>2026-07-14T10:19:06.000Z</time>
</trkpt>
<trkpt lat="56.953531" lon="8.367085">
<ele>16.891415</ele>
<time>2026-07-14T10:19:07.000Z</time>
</trkpt>
<trkpt lat="56.953566" lon="8.367059">
<ele>16.864974</ele>
<time>2026-07-14T10:19:08.000Z</time>
</trkpt>
<trkpt lat="56.953601" lon="8.367034">
<ele>16.838673</ele>
<time>2026-07-14T10:19:09.000Z</time>
</trkpt>
<trkpt lat="56.953633" lon="8.367012">
<ele>16.814744</ele>
<time>2026-07-14T10:19:10.000Z</time>
</trkpt>
<trkpt lat="56.953664" lon="8.366992">
<ele>16.791733</ele>
<time>2026-07-14T10:19:11.000Z</time>
</trkpt>
<trkpt lat="56.953696" lon="8.366978">
<ele>16.768698</ele>
<time>2026-07-14T10:19:12.000Z</time>
</trkpt>
<trkpt lat="56.953726" lon="8.366968">
<ele>16.747347</ele>
<time>2026-07-14T10:19:13.000Z</time>
</trkpt>
<trkpt lat="56.953755" lon="8.366958">
<ele>16.726686</ele>
<time>2026-07-14T10:19:14.000Z</time>
</trkpt>
<trkpt lat="56.953784" lon="8.366949">
<ele>16.706091</ele>
<time>2026-07-14T10:19:15.000Z</time>
</trkpt>
<trkpt lat="56.953808" lon="8.366942">
<ele>16.689075</ele>
<time>2026-07-14T10:19:16.000Z</time>
</trkpt>
<trkpt lat="56.953827" lon="8.366935">
<ele>16.675505</ele>
<time>2026-07-14T10:19:17.000Z</time>
</trkpt>
<trkpt lat="56.953840" lon="8.366928">
<ele>16.666018</ele>
<time>2026-07-14T10:19:18.000Z</time>
</trkpt>
<trkpt lat="56.953852" lon="8.366922">
<ele>16.657309</ele>
<time>2026-07-14T10:19:19.000Z</time>
</trkpt>
<trkpt lat="56.953863" lon="8.366915">
<ele>16.649156</ele>
<time>2026-07-14T10:19:20.000Z</time>
</trkpt>
<trkpt lat="56.953875" lon="8.366909">
<ele>16.640447</ele>
<time>2026-07-14T10:19:21.000Z</time>
</trkpt>
<trkpt lat="56.953886" lon="8.366902">
<ele>16.632294</ele>
<time>2026-07-14T10:19:22.000Z</time>
</trkpt>
<trkpt lat="56.953898" lon="8.366891">
<ele>16.622900</ele>
<time>2026-07-14T10:19:23.000Z</time>
</trkpt>
<trkpt lat="56.953911" lon="8.366881">
<ele>16.613029</ele>
<time>2026-07-14T10:19:24.000Z</time>
</trkpt>
<trkpt lat="56.953930" lon="8.366873">
<ele>16.599379</ele>
<time>2026-07-14T10:19:25.000Z</time>
</trkpt>
<trkpt lat="56.953955" lon="8.366871">
<ele>16.581858</ele>
<time>2026-07-14T10:19:26.000Z</time>
</trkpt>
<trkpt lat="56.953979" lon="8.366875">
<ele>16.564983</ele>
<time>2026-07-14T10:19:27.000Z</time>
</trkpt>
<trkpt lat="56.954004" lon="8.366881">
<ele>16.547329</ele>
<time>2026-07-14T10:19:28.000Z</time>
</trkpt>
<trkpt lat="56.954032" lon="8.366883">
<ele>16.527708</ele>
<time>2026-07-14T10:19:29.000Z</time>
</trkpt>
<trkpt lat="56.954058" lon="8.366884">
<ele>16.509499</ele>
<time>2026-07-14T10:19:30.000Z</time>
</trkpt>
<trkpt lat="56.954085" lon="8.366886">
<ele>16.490578</ele>
<time>2026-07-14T10:19:31.000Z</time>
</trkpt>
<trkpt lat="56.954110" lon="8.366887">
<ele>16.473069</ele>
<time>2026-07-14T10:19:32.000Z</time>
</trkpt>
<trkpt lat="56.954134" lon="8.366888">
<ele>16.456260</ele>
<time>2026-07-14T10:19:33.000Z</time>
</trkpt>
<trkpt lat="56.954159" lon="8.366885">
<ele>16.438717</ele>
<time>2026-07-14T10:19:34.000Z</time>
</trkpt>
<trkpt lat="56.954182" lon="8.366877">
<ele>16.422325</ele>
<time>2026-07-14T10:19:35.000Z</time>
</trkpt>
<trkpt lat="56.954207" lon="8.366870">
<ele>16.404617</ele>
<time>2026-07-14T10:19:36.000Z</time>
</trkpt>
<trkpt lat="56.954234" lon="8.366864">
<ele>16.385574</ele>
<time>2026-07-14T10:19:37.000Z</time>
</trkpt>
<trkpt lat="56.954262" lon="8.366860">
<ele>16.365909</ele>
<time>2026-07-14T10:19:38.000Z</time>
</trkpt>
<trkpt lat="56.954297" lon="8.366860">
<ele>16.341401</ele>
<time>2026-07-14T10:19:39.000Z</time>
</trkpt>
<trkpt lat="56.954335" lon="8.366864">
<ele>16.314750</ele>
<time>2026-07-14T10:19:40.000Z</time>
</trkpt>
<trkpt lat="56.954376" lon="8.366870">
<ele>16.285950</ele>
<time>2026-07-14T10:19:41.000Z</time>
</trkpt>
<trkpt lat="56.954420" lon="8.366878">
<ele>16.254990</ele>
<time>2026-07-14T10:19:42.000Z</time>
</trkpt>
<trkpt lat="56.954465" lon="8.366885">
<ele>16.223368</ele>
<time>2026-07-14T10:19:43.000Z</time>
</trkpt>
<trkpt lat="56.954508" lon="8.366891">
<ele>16.193172</ele>
<time>2026-07-14T10:19:44.000Z</time>
</trkpt>
<trkpt lat="56.954552" lon="8.366896">
<ele>16.162304</ele>
<time>2026-07-14T10:19:45.000Z</time>
</trkpt>
<trkpt lat="56.954596" lon="8.366904">
<ele>16.131344</ele>
<time>2026-07-14T10:19:46.000Z</time>
</trkpt>
<trkpt lat="56.954640" lon="8.366914">
<ele>16.100299</ele>
<time>2026-07-14T10:19:47.000Z</time>
</trkpt>
<trkpt lat="56.954686" lon="8.366922">
<ele>16.080643</ele>
<time>2026-07-14T10:19:48.000Z</time>
</trkpt>
<trkpt lat="56.954732" lon="8.366929">
<ele>16.068807</ele>
<time>2026-07-14T10:19:49.000Z</time>
</trkpt>
<trkpt lat="56.954780" lon="8.366938">
<ele>16.056434</ele>
<time>2026-07-14T10:19:50.000Z</time>
</trkpt>
<trkpt lat="56.954828" lon="8.366950">
<ele>16.044012</ele>
<time>2026-07-14T10:19:51.000Z</time>
</trkpt>
<trkpt lat="56.954873" lon="8.366966">
<ele>16.032257</ele>
<time>2026-07-14T10:19:52.000Z</time>
</trkpt>
<trkpt lat="56.954917" lon="8.366984">
<ele>16.020697</ele>
<time>2026-07-14T10:19:53.000Z</time>
</trkpt>
<trkpt lat="56.954959" lon="8.367003">
<ele>16.009604</ele>
<time>2026-07-14T10:19:54.000Z</time>
</trkpt>
<trkpt lat="56.955003" lon="8.367028">
<ele>15.997792</ele>
<time>2026-07-14T10:19:55.000Z</time>
</trkpt>
<trkpt lat="56.955047" lon="8.367057">
<ele>15.985802</ele>
<time>2026-07-14T10:19:56.000Z</time>
</trkpt>
<trkpt lat="56.955086" lon="8.367085">
<ele>15.975063</ele>
<time>2026-07-14T10:19:57.000Z</time>
</trkpt>
<trkpt lat="56.955123" lon="8.367115">
<ele>15.964689</ele>
<time>2026-07-14T10:19:58.000Z</time>
</trkpt>
<trkpt lat="56.955162" lon="8.367149">
<ele>15.953615</ele>
<time>2026-07-14T10:19:59.000Z</time>
</trkpt>
<trkpt lat="56.955199" lon="8.367186">
<ele>15.942808</ele>
<time>2026-07-14T10:20:00.000Z</time>
</trkpt>
<trkpt lat="56.955231" lon="8.367225">
<ele>15.932956</ele>
<time>2026-07-14T10:20:01.000Z</time>
</trkpt>
<trkpt lat="56.955260" lon="8.367265">
<ele>15.923651</ele>
<time>2026-07-14T10:20:02.000Z</time>
</trkpt>
<trkpt lat="56.955290" lon="8.367307">
<ele>15.913972</ele>
<time>2026-07-14T10:20:03.000Z</time>
</trkpt>
<trkpt lat="56.955322" lon="8.367352">
<ele>15.903632</ele>
<time>2026-07-14T10:20:04.000Z</time>
</trkpt>
<trkpt lat="56.955355" lon="8.367394">
<ele>15.893331</ele>
<time>2026-07-14T10:20:05.000Z</time>
</trkpt>
<trkpt lat="56.955390" lon="8.367433">
<ele>15.882829</ele>
<time>2026-07-14T10:20:06.000Z</time>
</trkpt>
<trkpt lat="56.955423" lon="8.367472">
<ele>15.872762</ele>
<time>2026-07-14T10:20:07.000Z</time>
</trkpt>
<trkpt lat="56.955459" lon="8.367516">
<ele>15.861668</ele>
<time>2026-07-14T10:20:08.000Z</time>
</trkpt>
<trkpt lat="56.955499" lon="8.367565">
<ele>15.849333</ele>
<time>2026-07-14T10:20:09.000Z</time>
</trkpt>
<trkpt lat="56.955537" lon="8.367614">
<ele>15.837421</ele>
<time>2026-07-14T10:20:10.000Z</time>
</trkpt>
<trkpt lat="56.955575" lon="8.367661">
<ele>15.825668</ele>
<time>2026-07-14T10:20:11.000Z</time>
</trkpt>
<trkpt lat="56.955612" lon="8.367709">
<ele>15.814046</ele>
<time>2026-07-14T10:20:12.000Z</time>
</trkpt>
<trkpt lat="56.955649" lon="8.367758">
<ele>15.802342</ele>
<time>2026-07-14T10:20:13.000Z</time>
</trkpt>
<trkpt lat="56.955686" lon="8.367807">
<ele>15.790639</ele>
<time>2026-07-14T10:20:14.000Z</time>
</trkpt>
<trkpt lat="56.955723" lon="8.367857">
<ele>15.778854</ele>
<time>2026-07-14T10:20:15.000Z</time>
</trkpt>
<trkpt lat="56.955761" lon="8.367906">
<ele>15.766942</ele>
<time>2026-07-14T10:20:16.000Z</time>
</trkpt>
<trkpt lat="56.955799" lon="8.367954">
<ele>15.755109</ele>
<time>2026-07-14T10:20:17.000Z</time>
</trkpt>
<trkpt lat="56.955840" lon="8.368002">
<ele>15.742636</ele>
<time>2026-07-14T10:20:18.000Z</time>
</trkpt>
<trkpt lat="56.955880" lon="8.368048">
<ele>15.730529</ele>
<time>2026-07-14T10:20:19.000Z</time>
</trkpt>
<trkpt lat="56.955918" lon="8.368092">
<ele>15.719005</ele>
<time>2026-07-14T10:20:20.000Z</time>
</trkpt>
<trkpt lat="56.955956" lon="8.368138">
<ele>15.707329</ele>
<time>2026-07-14T10:20:21.000Z</time>
</trkpt>
<trkpt lat="56.955996" lon="8.368184">
<ele>15.695222</ele>
<time>2026-07-14T10:20:22.000Z</time>
</trkpt>
<trkpt lat="56.956036" lon="8.368226">
<ele>15.683402</ele>
<time>2026-07-14T10:20:23.000Z</time>
</trkpt>
<trkpt lat="56.956074" lon="8.368259">
<ele>15.672621</ele>
<time>2026-07-14T10:20:24.000Z</time>
</trkpt>
<trkpt lat="56.956114" lon="8.368284">
<ele>15.661784</ele>
<time>2026-07-14T10:20:25.000Z</time>
</trkpt>
<trkpt lat="56.956157" lon="8.368299">
<ele>15.650560</ele>
<time>2026-07-14T10:20:26.000Z</time>
</trkpt>
<trkpt lat="56.956201" lon="8.368307">
<ele>15.639222</ele>
<time>2026-07-14T10:20:27.000Z</time>
</trkpt>
<trkpt lat="56.956246" lon="8.368309">
<ele>15.627679</ele>
<time>2026-07-14T10:20:28.000Z</time>
</trkpt>
<trkpt lat="56.956291" lon="8.368305">
<ele>15.616174</ele>
<time>2026-07-14T10:20:29.000Z</time>
</trkpt>
<trkpt lat="56.956337" lon="8.368297">
<ele>15.604378</ele>
<time>2026-07-14T10:20:30.000Z</time>
</trkpt>
<trkpt lat="56.956383" lon="8.368286">
<ele>15.592536</ele>
<time>2026-07-14T10:20:31.000Z</time>
</trkpt>
<trkpt lat="56.956431" lon="8.368270">
<ele>15.580081</ele>
<time>2026-07-14T10:20:32.000Z</time>
</trkpt>
<trkpt lat="56.956479" lon="8.368252">
<ele>15.567574</ele>
<time>2026-07-14T10:20:33.000Z</time>
</trkpt>
<trkpt lat="56.956525" lon="8.368235">
<ele>15.555595</ele>
<time>2026-07-14T10:20:34.000Z</time>
</trkpt>
<trkpt lat="56.956568" lon="8.368218">
<ele>15.544366</ele>
<time>2026-07-14T10:20:35.000Z</time>
</trkpt>
<trkpt lat="56.956609" lon="8.368200">
<ele>15.533604</ele>
<time>2026-07-14T10:20:36.000Z</time>
</trkpt>
<trkpt lat="56.956653" lon="8.368184">
<ele>15.522152</ele>
<time>2026-07-14T10:20:37.000Z</time>
</trkpt>
<trkpt lat="56.956696" lon="8.368169">
<ele>15.510978</ele>
<time>2026-07-14T10:20:38.000Z</time>
</trkpt>
<trkpt lat="56.956742" lon="8.368153">
<ele>15.499026</ele>
<time>2026-07-14T10:20:39.000Z</time>
</trkpt>
<trkpt lat="56.956785" lon="8.368137">
<ele>15.487825</ele>
<time>2026-07-14T10:20:40.000Z</time>
</trkpt>
<trkpt lat="56.956829" lon="8.368123">
<ele>15.476425</ele>
<time>2026-07-14T10:20:41.000Z</time>
</trkpt>
<trkpt lat="56.956873" lon="8.368110">
<ele>15.465048</ele>
<time>2026-07-14T10:20:42.000Z</time>
</trkpt>
<trkpt lat="56.956915" lon="8.368096">
<ele>15.454150</ele>
<time>2026-07-14T10:20:43.000Z</time>
</trkpt>
<trkpt lat="56.956956" lon="8.368084">
<ele>15.443551</ele>
<time>2026-07-14T10:20:44.000Z</time>
</trkpt>
<trkpt lat="56.956998" lon="8.368072">
<ele>15.432700</ele>
<time>2026-07-14T10:20:45.000Z</time>
</trkpt>
<trkpt lat="56.957039" lon="8.368058">
<ele>15.422054</ele>
<time>2026-07-14T10:20:46.000Z</time>
</trkpt>
<trkpt lat="56.957076" lon="8.368045">
<ele>15.412436</ele>
<time>2026-07-14T10:20:47.000Z</time>
</trkpt>
<trkpt lat="56.957113" lon="8.368031">
<ele>15.402792</ele>
<time>2026-07-14T10:20:48.000Z</time>
</trkpt>
<trkpt lat="56.957150" lon="8.368016">
<ele>15.393119</ele>
<time>2026-07-14T10:20:49.000Z</time>
</trkpt>
<trkpt lat="56.957184" lon="8.368002">
<ele>15.384223</ele>
<time>2026-07-14T10:20:50.000Z</time>
</trkpt>
<trkpt lat="56.957218" lon="8.367989">
<ele>15.375357</ele>
<time>2026-07-14T10:20:51.000Z</time>
</trkpt>
<trkpt lat="56.957258" lon="8.367977">
<ele>15.365010</ele>
<time>2026-07-14T10:20:52.000Z</time>
</trkpt>
<trkpt lat="56.957296" lon="8.367958">
<ele>15.354955</ele>
<time>2026-07-14T10:20:53.000Z</time>
</trkpt>
<trkpt lat="56.957329" lon="8.367934">
<ele>15.345892</ele>
<time>2026-07-14T10:20:54.000Z</time>
</trkpt>
<trkpt lat="56.957362" lon="8.367915">
<ele>15.337063</ele>
<time>2026-07-14T10:20:55.000Z</time>
</trkpt>
<trkpt lat="56.957397" lon="8.367899">
<ele>15.327854</ele>
<time>2026-07-14T10:20:56.000Z</time>
</trkpt>
<trkpt lat="56.957435" lon="8.367886">
<ele>15.317986</ele>
<time>2026-07-14T10:20:57.000Z</time>
</trkpt>
<trkpt lat="56.957474" lon="8.367872">
<ele>15.307841</ele>
<time>2026-07-14T10:20:58.000Z</time>
</trkpt>
<trkpt lat="56.957518" lon="8.367858">
<ele>15.296441</ele>
<time>2026-07-14T10:20:59.000Z</time>
</trkpt>
<trkpt lat="56.957557" lon="8.367844">
<ele>15.286296</ele>
<time>2026-07-14T10:21:00.000Z</time>
</trkpt>
<trkpt lat="56.957593" lon="8.367828">
<ele>15.276840</ele>
<time>2026-07-14T10:21:01.000Z</time>
</trkpt>
<trkpt lat="56.957628" lon="8.367811">
<ele>15.267597</ele>
<time>2026-07-14T10:21:02.000Z</time>
</trkpt>
<trkpt lat="56.957664" lon="8.367794">
<ele>15.258107</ele>
<time>2026-07-14T10:21:03.000Z</time>
</trkpt>
<trkpt lat="56.957700" lon="8.367777">
<ele>15.248617</ele>
<time>2026-07-14T10:21:04.000Z</time>
</trkpt>
<trkpt lat="56.957733" lon="8.367760">
<ele>15.239867</ele>
<time>2026-07-14T10:21:05.000Z</time>
</trkpt>
<trkpt lat="56.957767" lon="8.367745">
<ele>15.230940</ele>
<time>2026-07-14T10:21:06.000Z</time>
</trkpt>
<trkpt lat="56.957806" lon="8.367733">
<ele>15.220845</ele>
<time>2026-07-14T10:21:07.000Z</time>
</trkpt>
<trkpt lat="56.957847" lon="8.367726">
<ele>15.210333</ele>
<time>2026-07-14T10:21:08.000Z</time>
</trkpt>
<trkpt lat="56.957888" lon="8.367720">
<ele>15.199833</ele>
<time>2026-07-14T10:21:09.000Z</time>
</trkpt>
<trkpt lat="56.957928" lon="8.367712">
<ele>15.189561</ele>
<time>2026-07-14T10:21:10.000Z</time>
</trkpt>
<trkpt lat="56.957966" lon="8.367702">
<ele>15.179761</ele>
<time>2026-07-14T10:21:11.000Z</time>
</trkpt>
<trkpt lat="56.958006" lon="8.367692">
<ele>15.169455</ele>
<time>2026-07-14T10:21:12.000Z</time>
</trkpt>
<trkpt lat="56.958046" lon="8.367681">
<ele>15.171434</ele>
<time>2026-07-14T10:21:13.000Z</time>
</trkpt>
<trkpt lat="56.958080" lon="8.367668">
<ele>15.175459</ele>
<time>2026-07-14T10:21:14.000Z</time>
</trkpt>
<trkpt lat="56.958113" lon="8.367655">
<ele>15.179372</ele>
<time>2026-07-14T10:21:15.000Z</time>
</trkpt>
<trkpt lat="56.958143" lon="8.367642">
<ele>15.182945</ele>
<time>2026-07-14T10:21:16.000Z</time>
</trkpt>
<trkpt lat="56.958170" lon="8.367633">
<ele>15.186126</ele>
<time>2026-07-14T10:21:17.000Z</time>
</trkpt>
<trkpt lat="56.958196" lon="8.367626">
<ele>15.189173</ele>
<time>2026-07-14T10:21:18.000Z</time>
</trkpt>
<trkpt lat="56.958224" lon="8.367618">
<ele>15.192457</ele>
<time>2026-07-14T10:21:19.000Z</time>
</trkpt>
<trkpt lat="56.958248" lon="8.367609">
<ele>15.195297</ele>
<time>2026-07-14T10:21:20.000Z</time>
</trkpt>
<trkpt lat="56.958270" lon="8.367600">
<ele>15.197910</ele>
<time>2026-07-14T10:21:21.000Z</time>
</trkpt>
<trkpt lat="56.958294" lon="8.367586">
<ele>15.200829</ele>
<time>2026-07-14T10:21:22.000Z</time>
</trkpt>
<trkpt lat="56.958323" lon="8.367574">
<ele>15.204275</ele>
<time>2026-07-14T10:21:23.000Z</time>
</trkpt>
<trkpt lat="56.958346" lon="8.367563">
<ele>15.207031</ele>
<time>2026-07-14T10:21:24.000Z</time>
</trkpt>
<trkpt lat="56.958372" lon="8.367552">
<ele>15.210124</ele>
<time>2026-07-14T10:21:25.000Z</time>
</trkpt>
<trkpt lat="56.958394" lon="8.367541">
<ele>15.212767</ele>
<time>2026-07-14T10:21:26.000Z</time>
</trkpt>
<trkpt lat="56.958423" lon="8.367529">
<ele>15.216213</ele>
<time>2026-07-14T10:21:27.000Z</time>
</trkpt>
<trkpt lat="56.958447" lon="8.367518">
<ele>15.219081</ele>
<time>2026-07-14T10:21:28.000Z</time>
</trkpt>
<trkpt lat="56.958476" lon="8.367501">
<ele>15.222610</ele>
<time>2026-07-14T10:21:29.000Z</time>
</trkpt>
<trkpt lat="56.958498" lon="8.367486">
<ele>15.225330</ele>
<time>2026-07-14T10:21:30.000Z</time>
</trkpt>
<trkpt lat="56.958517" lon="8.367475">
<ele>15.227640</ele>
<time>2026-07-14T10:21:31.000Z</time>
</trkpt>
<trkpt lat="56.958535" lon="8.367464">
<ele>15.229839</ele>
<time>2026-07-14T10:21:32.000Z</time>
</trkpt>
<trkpt lat="56.958548" lon="8.367450">
<ele>15.231587</ele>
<time>2026-07-14T10:21:33.000Z</time>
</trkpt>
<trkpt lat="56.958561" lon="8.367432">
<ele>15.233475</ele>
<time>2026-07-14T10:21:34.000Z</time>
</trkpt>
<trkpt lat="56.958577" lon="8.367410">
<ele>15.235793</ele>
<time>2026-07-14T10:21:35.000Z</time>
</trkpt>
<trkpt lat="56.958592" lon="8.367386">
<ele>15.238100</ele>
<time>2026-07-14T10:21:36.000Z</time>
</trkpt>
<trkpt lat="56.958604" lon="8.367361">
<ele>15.240206</ele>
<time>2026-07-14T10:21:37.000Z</time>
</trkpt>
<trkpt lat="56.958614" lon="8.367333">
<ele>15.242321</ele>
<time>2026-07-14T10:21:38.000Z</time>
</trkpt>
<trkpt lat="56.958622" lon="8.367305">
<ele>15.244319</ele>
<time>2026-07-14T10:21:39.000Z</time>
</trkpt>
<trkpt lat="56.958630" lon="8.367274">
<ele>15.246487</ele>
<time>2026-07-14T10:21:40.000Z</time>
</trkpt>
<trkpt lat="56.958639" lon="8.367243">
<ele>15.248706</ele>
<time>2026-07-14T10:21:41.000Z</time>
</trkpt>
<trkpt lat="56.958649" lon="8.367210">
<ele>15.251093</ele>
<time>2026-07-14T10:21:42.000Z</time>
</trkpt>
<trkpt lat="56.958660" lon="8.367182">
<ele>15.253274</ele>
<time>2026-07-14T10:21:43.000Z</time>
</trkpt>
<trkpt lat="56.958746" lon="8.367136">
<ele>15.263658</ele>
<time>2026-07-14T10:45:32.000Z</time>
</trkpt>
<trkpt lat="56.958746" lon="8.367148">
<ele>15.264416</ele>
<time>2026-07-14T10:45:33.000Z</time>
</trkpt>
<trkpt lat="56.958746" lon="8.367158">
<ele>15.265049</ele>
<time>2026-07-14T10:45:34.000Z</time>
</trkpt>
<trkpt lat="56.958750" lon="8.367170">
<ele>15.265937</ele>
<time>2026-07-14T10:45:35.000Z</time>
</trkpt>
<trkpt lat="56.958754" lon="8.367180">
<ele>15.266721</ele>
<time>2026-07-14T10:45:36.000Z</time>
</trkpt>
<trkpt lat="56.958755" lon="8.367188">
<ele>15.267240</ele>
<time>2026-07-14T10:45:37.000Z</time>
</trkpt>
<trkpt lat="56.958755" lon="8.367192">
<ele>15.267493</ele>
<time>2026-07-14T10:45:38.000Z</time>
</trkpt>
<trkpt lat="56.958755" lon="8.367195">
<ele>15.267683</ele>
<time>2026-07-14T10:45:39.000Z</time>
</trkpt>
<trkpt lat="56.958754" lon="8.367199">
<ele>15.267961</ele>
<time>2026-07-14T10:45:40.000Z</time>
</trkpt>
<trkpt lat="56.958702" lon="8.367182">
<ele>15.274083</ele>
<time>2026-07-14T10:45:53.000Z</time>
</trkpt>
<trkpt lat="56.958696" lon="8.367192">
<ele>15.275023</ele>
<time>2026-07-14T10:45:54.000Z</time>
</trkpt>
<trkpt lat="56.958691" lon="8.367205">
<ele>15.276029</ele>
<time>2026-07-14T10:45:55.000Z</time>
</trkpt>
<trkpt lat="56.958683" lon="8.367220">
<ele>15.277355</ele>
<time>2026-07-14T10:45:56.000Z</time>
</trkpt>
<trkpt lat="56.958677" lon="8.367237">
<ele>15.278635</ele>
<time>2026-07-14T10:45:57.000Z</time>
</trkpt>
<trkpt lat="56.958671" lon="8.367254">
<ele>15.279915</ele>
<time>2026-07-14T10:45:58.000Z</time>
</trkpt>
<trkpt lat="56.958666" lon="8.367270">
<ele>15.281080</ele>
<time>2026-07-14T10:45:59.000Z</time>
</trkpt>
<trkpt lat="56.958662" lon="8.367287">
<ele>15.282250</ele>
<time>2026-07-14T10:46:00.000Z</time>
</trkpt>
<trkpt lat="56.958656" lon="8.367303">
<ele>15.283478</ele>
<time>2026-07-14T10:46:01.000Z</time>
</trkpt>
<trkpt lat="56.958651" lon="8.367318">
<ele>15.284589</ele>
<time>2026-07-14T10:46:02.000Z</time>
</trkpt>
<trkpt lat="56.958645" lon="8.367335">
<ele>15.285869</ele>
<time>2026-07-14T10:46:03.000Z</time>
</trkpt>
<trkpt lat="56.958637" lon="8.367349">
<ele>15.287151</ele>
<time>2026-07-14T10:46:04.000Z</time>
</trkpt>
<trkpt lat="56.958631" lon="8.367365">
<ele>15.288378</ele>
<time>2026-07-14T10:46:05.000Z</time>
</trkpt>
<trkpt lat="56.958626" lon="8.367381">
<ele>15.289544</ele>
<time>2026-07-14T10:46:06.000Z</time>
</trkpt>
<trkpt lat="56.958618" lon="8.367396">
<ele>15.290870</ele>
<time>2026-07-14T10:46:07.000Z</time>
</trkpt>
<trkpt lat="56.958610" lon="8.367407">
<ele>15.292029</ele>
<time>2026-07-14T10:46:08.000Z</time>
</trkpt>
<trkpt lat="56.958601" lon="8.367417">
<ele>15.293249</ele>
<time>2026-07-14T10:46:09.000Z</time>
</trkpt>
<trkpt lat="56.958589" lon="8.367427">
<ele>15.294776</ele>
<time>2026-07-14T10:46:10.000Z</time>
</trkpt>
<trkpt lat="56.958580" lon="8.367438">
<ele>15.296030</ele>
<time>2026-07-14T10:46:11.000Z</time>
</trkpt>
<trkpt lat="56.958572" lon="8.367448">
<ele>15.297152</ele>
<time>2026-07-14T10:46:12.000Z</time>
</trkpt>
<trkpt lat="56.958563" lon="8.367458">
<ele>15.298372</ele>
<time>2026-07-14T10:46:13.000Z</time>
</trkpt>
<trkpt lat="56.958551" lon="8.367468">
<ele>15.299900</ele>
<time>2026-07-14T10:46:14.000Z</time>
</trkpt>
<trkpt lat="56.958542" lon="8.367477">
<ele>15.301088</ele>
<time>2026-07-14T10:46:15.000Z</time>
</trkpt>
<trkpt lat="56.958533" lon="8.367486">
<ele>15.302277</ele>
<time>2026-07-14T10:46:16.000Z</time>
</trkpt>
<trkpt lat="56.958522" lon="8.367496">
<ele>15.303700</ele>
<time>2026-07-14T10:46:17.000Z</time>
</trkpt>
<trkpt lat="56.958509" lon="8.367504">
<ele>15.305289</ele>
<time>2026-07-14T10:46:18.000Z</time>
</trkpt>
<trkpt lat="56.958500" lon="8.367509">
<ele>15.306379</ele>
<time>2026-07-14T10:46:19.000Z</time>
</trkpt>
<trkpt lat="56.958490" lon="8.367513">
<ele>15.307566</ele>
<time>2026-07-14T10:46:20.000Z</time>
</trkpt>
<trkpt lat="56.958477" lon="8.367517">
<ele>15.309094</ele>
<time>2026-07-14T10:46:21.000Z</time>
</trkpt>
<trkpt lat="56.958465" lon="8.367523">
<ele>15.310535</ele>
<time>2026-07-14T10:46:22.000Z</time>
</trkpt>
<trkpt lat="56.958454" lon="8.367528">
<ele>15.311849</ele>
<time>2026-07-14T10:46:23.000Z</time>
</trkpt>
<trkpt lat="56.958441" lon="8.367532">
<ele>15.313377</ele>
<time>2026-07-14T10:46:24.000Z</time>
</trkpt>
<trkpt lat="56.958429" lon="8.367538">
<ele>15.314819</ele>
<time>2026-07-14T10:46:25.000Z</time>
</trkpt>
<trkpt lat="56.958418" lon="8.367544">
<ele>15.316149</ele>
<time>2026-07-14T10:46:26.000Z</time>
</trkpt>
<trkpt lat="56.958408" lon="8.367551">
<ele>15.317390</ele>
<time>2026-07-14T10:46:27.000Z</time>
</trkpt>
<trkpt lat="56.958399" lon="8.367558">
<ele>15.318523</ele>
<time>2026-07-14T10:46:28.000Z</time>
</trkpt>
<trkpt lat="56.958387" lon="8.367564">
<ele>15.319965</ele>
<time>2026-07-14T10:46:29.000Z</time>
</trkpt>
<trkpt lat="56.958376" lon="8.367570">
<ele>15.321295</ele>
<time>2026-07-14T10:46:30.000Z</time>
</trkpt>
<trkpt lat="56.958367" lon="8.367576">
<ele>15.322405</ele>
<time>2026-07-14T10:46:31.000Z</time>
</trkpt>
<trkpt lat="56.958357" lon="8.367581">
<ele>15.323607</ele>
<time>2026-07-14T10:46:32.000Z</time>
</trkpt>
<trkpt lat="56.958347" lon="8.367588">
<ele>15.324847</ele>
<time>2026-07-14T10:46:33.000Z</time>
</trkpt>
<trkpt lat="56.958338" lon="8.367594">
<ele>15.325957</ele>
<time>2026-07-14T10:46:34.000Z</time>
</trkpt>
<trkpt lat="56.958328" lon="8.367599">
<ele>15.327159</ele>
<time>2026-07-14T10:46:35.000Z</time>
</trkpt>
<trkpt lat="56.958319" lon="8.367602">
<ele>15.328219</ele>
<time>2026-07-14T10:46:36.000Z</time>
</trkpt>
<trkpt lat="56.958309" lon="8.367605">
<ele>15.329394</ele>
<time>2026-07-14T10:46:37.000Z</time>
</trkpt>
<trkpt lat="56.958292" lon="8.367614">
<ele>15.331445</ele>
<time>2026-07-14T10:46:48.000Z</time>
</trkpt>
<trkpt lat="56.958282" lon="8.367623">
<ele>15.332736</ele>
<time>2026-07-14T10:46:49.000Z</time>
</trkpt>
<trkpt lat="56.958277" lon="8.367631">
<ele>15.333505</ele>
<time>2026-07-14T10:46:50.000Z</time>
</trkpt>
<trkpt lat="56.958273" lon="8.367640">
<ele>15.334239</ele>
<time>2026-07-14T10:46:51.000Z</time>
</trkpt>
<trkpt lat="56.958271" lon="8.367649">
<ele>15.334853</ele>
<time>2026-07-14T10:46:52.000Z</time>
</trkpt>
<trkpt lat="56.958269" lon="8.367652">
<ele>15.335153</ele>
<time>2026-07-14T10:46:53.000Z</time>
</trkpt>
<trkpt lat="56.958267" lon="8.367654">
<ele>15.335417</ele>
<time>2026-07-14T10:46:54.000Z</time>
</trkpt>
<trkpt lat="56.958267" lon="8.367655">
<ele>15.335480</ele>
<time>2026-07-14T10:46:55.000Z</time>
</trkpt>
<trkpt lat="56.958250" lon="8.367700">
<ele>15.338940</ele>
<time>2026-07-14T10:47:17.000Z</time>
</trkpt>
<trkpt lat="56.958244" lon="8.367715">
<ele>15.340116</ele>
<time>2026-07-14T10:47:18.000Z</time>
</trkpt>
<trkpt lat="56.958237" lon="8.367735">
<ele>15.341618</ele>
<time>2026-07-14T10:47:19.000Z</time>
</trkpt>
<trkpt lat="56.958231" lon="8.367760">
<ele>15.343345</ele>
<time>2026-07-14T10:47:20.000Z</time>
</trkpt>
<trkpt lat="56.958227" lon="8.367791">
<ele>15.345358</ele>
<time>2026-07-14T10:47:21.000Z</time>
</trkpt>
<trkpt lat="56.958227" lon="8.367830">
<ele>15.347823</ele>
<time>2026-07-14T10:47:22.000Z</time>
</trkpt>
<trkpt lat="56.958229" lon="8.367870">
<ele>15.350362</ele>
<time>2026-07-14T10:47:23.000Z</time>
</trkpt>
<trkpt lat="56.958231" lon="8.367912">
<ele>15.353027</ele>
<time>2026-07-14T10:47:24.000Z</time>
</trkpt>
<trkpt lat="56.958233" lon="8.367955">
<ele>15.355754</ele>
<time>2026-07-14T10:47:25.000Z</time>
</trkpt>
<trkpt lat="56.958235" lon="8.367996">
<ele>15.358356</ele>
<time>2026-07-14T10:47:26.000Z</time>
</trkpt>
<trkpt lat="56.958238" lon="8.368037">
<ele>15.360971</ele>
<time>2026-07-14T10:47:27.000Z</time>
</trkpt>
<trkpt lat="56.958242" lon="8.368080">
<ele>15.363728</ele>
<time>2026-07-14T10:47:28.000Z</time>
</trkpt>
<trkpt lat="56.958246" lon="8.368126">
<ele>15.366672</ele>
<time>2026-07-14T10:47:29.000Z</time>
</trkpt>
<trkpt lat="56.958252" lon="8.368175">
<ele>15.369846</ele>
<time>2026-07-14T10:47:30.000Z</time>
</trkpt>
<trkpt lat="56.958259" lon="8.368223">
<ele>15.372986</ele>
<time>2026-07-14T10:47:31.000Z</time>
</trkpt>
<trkpt lat="56.958265" lon="8.368275">
<ele>15.375062</ele>
<time>2026-07-14T10:47:32.000Z</time>
</trkpt>
<trkpt lat="56.958269" lon="8.368330">
<ele>15.361242</ele>
<time>2026-07-14T10:47:33.000Z</time>
</trkpt>
<trkpt lat="56.958273" lon="8.368387">
<ele>15.346927</ele>
<time>2026-07-14T10:47:34.000Z</time>
</trkpt>
<trkpt lat="56.958278" lon="8.368449">
<ele>15.331316</ele>
<time>2026-07-14T10:47:35.000Z</time>
</trkpt>
<trkpt lat="56.958284" lon="8.368519">
<ele>15.313666</ele>
<time>2026-07-14T10:47:36.000Z</time>
</trkpt>
<trkpt lat="56.958290" lon="8.368588">
<ele>15.296263</ele>
<time>2026-07-14T10:47:37.000Z</time>
</trkpt>
<trkpt lat="56.958298" lon="8.368656">
<ele>15.278936</ele>
<time>2026-07-14T10:47:38.000Z</time>
</trkpt>
<trkpt lat="56.958307" lon="8.368723">
<ele>15.261748</ele>
<time>2026-07-14T10:47:39.000Z</time>
</trkpt>
<trkpt lat="56.958317" lon="8.368789">
<ele>15.244686</ele>
<time>2026-07-14T10:47:40.000Z</time>
</trkpt>
<trkpt lat="56.958325" lon="8.368857">
<ele>15.227359</ele>
<time>2026-07-14T10:47:41.000Z</time>
</trkpt>
<trkpt lat="56.958328" lon="8.368922">
<ele>15.211111</ele>
<time>2026-07-14T10:47:42.000Z</time>
</trkpt>
<trkpt lat="56.958330" lon="8.368984">
<ele>15.195641</ele>
<time>2026-07-14T10:47:43.000Z</time>
</trkpt>
<trkpt lat="56.958336" lon="8.369040">
<ele>15.181426</ele>
<time>2026-07-14T10:47:44.000Z</time>
</trkpt>
<trkpt lat="56.958342" lon="8.369091">
<ele>15.168431</ele>
<time>2026-07-14T10:47:45.000Z</time>
</trkpt>
<trkpt lat="56.958345" lon="8.369137">
<ele>15.156891</ele>
<time>2026-07-14T10:47:46.000Z</time>
</trkpt>
<trkpt lat="56.958349" lon="8.369183">
<ele>15.145289</ele>
<time>2026-07-14T10:47:47.000Z</time>
</trkpt>
<trkpt lat="56.958353" lon="8.369222">
<ele>15.135405</ele>
<time>2026-07-14T10:47:48.000Z</time>
</trkpt>
<trkpt lat="56.958360" lon="8.369260">
<ele>15.125414</ele>
<time>2026-07-14T10:47:49.000Z</time>
</trkpt>
<trkpt lat="56.958370" lon="8.369304">
<ele>15.113541</ele>
<time>2026-07-14T10:47:50.000Z</time>
</trkpt>
<trkpt lat="56.958378" lon="8.369354">
<ele>15.100562</ele>
<time>2026-07-14T10:47:51.000Z</time>
</trkpt>
<trkpt lat="56.958385" lon="8.369414">
<ele>15.085279</ele>
<time>2026-07-14T10:47:52.000Z</time>
</trkpt>
<trkpt lat="56.958391" lon="8.369475">
<ele>15.069840</ele>
<time>2026-07-14T10:47:53.000Z</time>
</trkpt>
<trkpt lat="56.958393" lon="8.369534">
<ele>15.055116</ele>
<time>2026-07-14T10:47:54.000Z</time>
</trkpt>
<trkpt lat="56.958395" lon="8.369592">
<ele>15.040640</ele>
<time>2026-07-14T10:47:55.000Z</time>
</trkpt>
<trkpt lat="56.958399" lon="8.369649">
<ele>15.026326</ele>
<time>2026-07-14T10:47:56.000Z</time>
</trkpt>
<trkpt lat="56.958405" lon="8.369704">
<ele>15.012355</ele>
<time>2026-07-14T10:47:57.000Z</time>
</trkpt>
<trkpt lat="56.958410" lon="8.369762">
<ele>14.997729</ele>
<time>2026-07-14T10:47:58.000Z</time>
</trkpt>
<trkpt lat="56.958416" lon="8.369822">
<ele>14.982535</ele>
<time>2026-07-14T10:47:59.000Z</time>
</trkpt>
<trkpt lat="56.958422" lon="8.369882">
<ele>14.967341</ele>
<time>2026-07-14T10:48:00.000Z</time>
</trkpt>
<trkpt lat="56.958427" lon="8.369949">
<ele>14.950497</ele>
<time>2026-07-14T10:48:01.000Z</time>
</trkpt>
<trkpt lat="56.958433" lon="8.370020">
<ele>14.932601</ele>
<time>2026-07-14T10:48:02.000Z</time>
</trkpt>
<trkpt lat="56.958439" lon="8.370094">
<ele>14.913967</ele>
<time>2026-07-14T10:48:03.000Z</time>
</trkpt>
<trkpt lat="56.958446" lon="8.370173">
<ele>14.894032</ele>
<time>2026-07-14T10:48:04.000Z</time>
</trkpt>
<trkpt lat="56.958455" lon="8.370251">
<ele>14.874173</ele>
<time>2026-07-14T10:48:05.000Z</time>
</trkpt>
<trkpt lat="56.958465" lon="8.370329">
<ele>14.854216</ele>
<time>2026-07-14T10:48:06.000Z</time>
</trkpt>
<trkpt lat="56.958475" lon="8.370409">
<ele>14.833772</ele>
<time>2026-07-14T10:48:07.000Z</time>
</trkpt>
<trkpt lat="56.958486" lon="8.370488">
<ele>14.813464</ele>
<time>2026-07-14T10:48:08.000Z</time>
</trkpt>
<trkpt lat="56.958496" lon="8.370571">
<ele>14.792292</ele>
<time>2026-07-14T10:48:09.000Z</time>
</trkpt>
<trkpt lat="56.958504" lon="8.370653">
<ele>14.771543</ele>
<time>2026-07-14T10:48:10.000Z</time>
</trkpt>
<trkpt lat="56.958513" lon="8.370736">
<ele>14.750465</ele>
<time>2026-07-14T10:48:11.000Z</time>
</trkpt>
<trkpt lat="56.958525" lon="8.370819">
<ele>14.729077</ele>
<time>2026-07-14T10:48:12.000Z</time>
</trkpt>
<trkpt lat="56.958536" lon="8.370897">
<ele>14.709009</ele>
<time>2026-07-14T10:48:13.000Z</time>
</trkpt>
<trkpt lat="56.958546" lon="8.370975">
<ele>14.689052</ele>
<time>2026-07-14T10:48:14.000Z</time>
</trkpt>
<trkpt lat="56.958553" lon="8.371053">
<ele>14.669362</ele>
<time>2026-07-14T10:48:15.000Z</time>
</trkpt>
<trkpt lat="56.958563" lon="8.371132">
<ele>14.649162</ele>
<time>2026-07-14T10:48:16.000Z</time>
</trkpt>
<trkpt lat="56.958574" lon="8.371211">
<ele>14.628853</ele>
<time>2026-07-14T10:48:17.000Z</time>
</trkpt>
<trkpt lat="56.958584" lon="8.371289">
<ele>14.608895</ele>
<time>2026-07-14T10:48:18.000Z</time>
</trkpt>
<trkpt lat="56.958594" lon="8.371368">
<ele>14.588695</ele>
<time>2026-07-14T10:48:19.000Z</time>
</trkpt>
<trkpt lat="56.958605" lon="8.371445">
<ele>14.568869</ele>
<time>2026-07-14T10:48:20.000Z</time>
</trkpt>
<trkpt lat="56.958618" lon="8.371523">
<ele>14.561099</ele>
<time>2026-07-14T10:48:21.000Z</time>
</trkpt>
<trkpt lat="56.958631" lon="8.371604">
<ele>14.584919</ele>
<time>2026-07-14T10:48:22.000Z</time>
</trkpt>
<trkpt lat="56.958643" lon="8.371683">
<ele>14.608054</ele>
<time>2026-07-14T10:48:23.000Z</time>
</trkpt>
<trkpt lat="56.958654" lon="8.371762">
<ele>14.631055</ele>
<time>2026-07-14T10:48:24.000Z</time>
</trkpt>
<trkpt lat="56.958665" lon="8.371846">
<ele>14.655426</ele>
<time>2026-07-14T10:48:25.000Z</time>
</trkpt>
<trkpt lat="56.958679" lon="8.371933">
<ele>14.681015</ele>
<time>2026-07-14T10:48:26.000Z</time>
</trkpt>
<trkpt lat="56.958692" lon="8.372017">
<ele>14.705648</ele>
<time>2026-07-14T10:48:27.000Z</time>
</trkpt>
<trkpt lat="56.958704" lon="8.372102">
<ele>14.730417</ele>
<time>2026-07-14T10:48:28.000Z</time>
</trkpt>
<trkpt lat="56.958723" lon="8.372199">
<ele>14.759494</ele>
<time>2026-07-14T10:48:29.000Z</time>
</trkpt>
<trkpt lat="56.958742" lon="8.372286">
<ele>14.785932</ele>
<time>2026-07-14T10:48:30.000Z</time>
</trkpt>
<trkpt lat="56.958759" lon="8.372373">
<ele>14.812003</ele>
<time>2026-07-14T10:48:31.000Z</time>
</trkpt>
<trkpt lat="56.958774" lon="8.372460">
<ele>14.837744</ele>
<time>2026-07-14T10:48:32.000Z</time>
</trkpt>
<trkpt lat="56.958788" lon="8.372545">
<ele>14.862793</ele>
<time>2026-07-14T10:48:33.000Z</time>
</trkpt>
<trkpt lat="56.958801" lon="8.372630">
<ele>14.887697</ele>
<time>2026-07-14T10:48:34.000Z</time>
</trkpt>
<trkpt lat="56.958816" lon="8.372715">
<ele>14.912901</ele>
<time>2026-07-14T10:48:35.000Z</time>
</trkpt>
<trkpt lat="56.958832" lon="8.372800">
<ele>14.938268</ele>
<time>2026-07-14T10:48:36.000Z</time>
</trkpt>
<trkpt lat="56.958847" lon="8.372886">
<ele>14.963740</ele>
<time>2026-07-14T10:48:37.000Z</time>
</trkpt>
<trkpt lat="56.958862" lon="8.372970">
<ele>14.988675</ele>
<time>2026-07-14T10:48:38.000Z</time>
</trkpt>
<trkpt lat="56.958876" lon="8.373051">
<ele>15.012646</ele>
<time>2026-07-14T10:48:39.000Z</time>
</trkpt>
<trkpt lat="56.958889" lon="8.373132">
<ele>15.036466</ele>
<time>2026-07-14T10:48:40.000Z</time>
</trkpt>
<trkpt lat="56.958904" lon="8.373213">
<ele>15.060598</ele>
<time>2026-07-14T10:48:41.000Z</time>
</trkpt>
<trkpt lat="56.958919" lon="8.373293">
<ele>15.084463</ele>
<time>2026-07-14T10:48:42.000Z</time>
</trkpt>
<trkpt lat="56.958936" lon="8.373376">
<ele>15.109475</ele>
<time>2026-07-14T10:48:43.000Z</time>
</trkpt>
<trkpt lat="56.958954" lon="8.373462">
<ele>15.135462</ele>
<time>2026-07-14T10:48:44.000Z</time>
</trkpt>
<trkpt lat="56.958967" lon="8.373547">
<ele>15.160366</ele>
<time>2026-07-14T10:48:45.000Z</time>
</trkpt>
<trkpt lat="56.958979" lon="8.373632">
<ele>15.185135</ele>
<time>2026-07-14T10:48:46.000Z</time>
</trkpt>
<trkpt lat="56.958990" lon="8.373713">
<ele>15.208684</ele>
<time>2026-07-14T10:48:47.000Z</time>
</trkpt>
<trkpt lat="56.959003" lon="8.373793">
<ele>15.232233</ele>
<time>2026-07-14T10:48:48.000Z</time>
</trkpt>
<trkpt lat="56.959015" lon="8.373879">
<ele>15.257275</ele>
<time>2026-07-14T10:48:49.000Z</time>
</trkpt>
<trkpt lat="56.959024" lon="8.373960">
<ele>15.280595</ele>
<time>2026-07-14T10:48:50.000Z</time>
</trkpt>
<trkpt lat="56.959032" lon="8.374041">
<ele>15.303817</ele>
<time>2026-07-14T10:48:51.000Z</time>
</trkpt>
<trkpt lat="56.959038" lon="8.374124">
<ele>15.327436</ele>
<time>2026-07-14T10:48:52.000Z</time>
</trkpt>
<trkpt lat="56.959042" lon="8.374208">
<ele>15.351223</ele>
<time>2026-07-14T10:48:53.000Z</time>
</trkpt>
<trkpt lat="56.959044" lon="8.374295">
<ele>15.375787</ele>
<time>2026-07-14T10:48:54.000Z</time>
</trkpt>
<trkpt lat="56.959045" lon="8.374381">
<ele>15.400054</ele>
<time>2026-07-14T10:48:55.000Z</time>
</trkpt>
<trkpt lat="56.959045" lon="8.374469">
<ele>15.424878</ele>
<time>2026-07-14T10:48:56.000Z</time>
</trkpt>
<trkpt lat="56.959045" lon="8.374556">
<ele>15.449421</ele>
<time>2026-07-14T10:48:57.000Z</time>
</trkpt>
<trkpt lat="56.959045" lon="8.374643">
<ele>15.473964</ele>
<time>2026-07-14T10:48:58.000Z</time>
</trkpt>
<trkpt lat="56.959045" lon="8.374729">
<ele>15.514228</ele>
<time>2026-07-14T10:48:59.000Z</time>
</trkpt>
<trkpt lat="56.959043" lon="8.374816">
<ele>15.568597</ele>
<time>2026-07-14T10:49:00.000Z</time>
</trkpt>
<trkpt lat="56.959040" lon="8.374905">
<ele>15.624273</ele>
<time>2026-07-14T10:49:01.000Z</time>
</trkpt>
<trkpt lat="56.959036" lon="8.374990">
<ele>15.677543</ele>
<time>2026-07-14T10:49:02.000Z</time>
</trkpt>
<trkpt lat="56.959032" lon="8.375075">
<ele>15.730812</ele>
<time>2026-07-14T10:49:03.000Z</time>
</trkpt>
<trkpt lat="56.959027" lon="8.375163">
<ele>15.786055</ele>
<time>2026-07-14T10:49:04.000Z</time>
</trkpt>
<trkpt lat="56.959019" lon="8.375249">
<ele>15.840528</ele>
<time>2026-07-14T10:49:05.000Z</time>
</trkpt>
<trkpt lat="56.959009" lon="8.375334">
<ele>15.894822</ele>
<time>2026-07-14T10:49:06.000Z</time>
</trkpt>
<trkpt lat="56.959000" lon="8.375415">
<ele>15.946436</ele>
<time>2026-07-14T10:49:07.000Z</time>
</trkpt>
<trkpt lat="56.958992" lon="8.375498">
<ele>15.999064</ele>
<time>2026-07-14T10:49:08.000Z</time>
</trkpt>
<trkpt lat="56.958983" lon="8.375580">
<ele>16.051290</ele>
<time>2026-07-14T10:49:09.000Z</time>
</trkpt>
<trkpt lat="56.958971" lon="8.375660">
<ele>16.103096</ele>
<time>2026-07-14T10:49:10.000Z</time>
</trkpt>
<trkpt lat="56.958960" lon="8.375738">
<ele>16.153401</ele>
<time>2026-07-14T10:49:11.000Z</time>
</trkpt>
<trkpt lat="56.958950" lon="8.375815">
<ele>16.202823</ele>
<time>2026-07-14T10:49:12.000Z</time>
</trkpt>
<trkpt lat="56.958941" lon="8.375896">
<ele>16.254438</ele>
<time>2026-07-14T10:49:13.000Z</time>
</trkpt>
<trkpt lat="56.958927" lon="8.375976">
<ele>16.306898</ele>
<time>2026-07-14T10:49:14.000Z</time>
</trkpt>
<trkpt lat="56.958914" lon="8.376056">
<ele>16.359020</ele>
<time>2026-07-14T10:49:15.000Z</time>
</trkpt>
<trkpt lat="56.958902" lon="8.376133">
<ele>16.409023</ele>
<time>2026-07-14T10:49:16.000Z</time>
</trkpt>
<trkpt lat="56.958893" lon="8.376209">
<ele>16.457582</ele>
<time>2026-07-14T10:49:17.000Z</time>
</trkpt>
<trkpt lat="56.958885" lon="8.376283">
<ele>16.504686</ele>
<time>2026-07-14T10:49:18.000Z</time>
</trkpt>
<trkpt lat="56.958877" lon="8.376347">
<ele>16.545683</ele>
<time>2026-07-14T10:49:19.000Z</time>
</trkpt>
<trkpt lat="56.958867" lon="8.376408">
<ele>16.585455</ele>
<time>2026-07-14T10:49:20.000Z</time>
</trkpt>
<trkpt lat="56.958849" lon="8.376515">
<ele>16.655372</ele>
<time>2026-07-14T10:49:21.000Z</time>
</trkpt>
<trkpt lat="56.958836" lon="8.376604">
<ele>16.712901</ele>
<time>2026-07-14T10:49:22.000Z</time>
</trkpt>
<trkpt lat="56.958820" lon="8.376701">
<ele>16.776178</ele>
<time>2026-07-14T10:49:23.000Z</time>
</trkpt>
<trkpt lat="56.958805" lon="8.376798">
<ele>16.839132</ele>
<time>2026-07-14T10:49:24.000Z</time>
</trkpt>
<trkpt lat="56.958788" lon="8.376890">
<ele>16.899784</ele>
<time>2026-07-14T10:49:25.000Z</time>
</trkpt>
<trkpt lat="56.958767" lon="8.376978">
<ele>16.959762</ele>
<time>2026-07-14T10:49:26.000Z</time>
</trkpt>
<trkpt lat="56.958748" lon="8.377064">
<ele>17.017700</ele>
<time>2026-07-14T10:49:27.000Z</time>
</trkpt>
<trkpt lat="56.958733" lon="8.377147">
<ele>17.072297</ele>
<time>2026-07-14T10:49:28.000Z</time>
</trkpt>
<trkpt lat="56.958719" lon="8.377226">
<ele>17.124163</ele>
<time>2026-07-14T10:49:29.000Z</time>
</trkpt>
<trkpt lat="56.958708" lon="8.377299">
<ele>17.171452</ele>
<time>2026-07-14T10:49:30.000Z</time>
</trkpt>
<trkpt lat="56.958695" lon="8.377373">
<ele>17.219996</ele>
<time>2026-07-14T10:49:31.000Z</time>
</trkpt>
<trkpt lat="56.958681" lon="8.377449">
<ele>17.270084</ele>
<time>2026-07-14T10:49:32.000Z</time>
</trkpt>
<trkpt lat="56.958668" lon="8.377523">
<ele>17.318628</ele>
<time>2026-07-14T10:49:33.000Z</time>
</trkpt>
<trkpt lat="56.958655" lon="8.377602">
<ele>17.370152</ele>
<time>2026-07-14T10:49:34.000Z</time>
</trkpt>
<trkpt lat="56.958643" lon="8.377690">
<ele>17.426791</ele>
<time>2026-07-14T10:49:35.000Z</time>
</trkpt>
<trkpt lat="56.958629" lon="8.377778">
<ele>17.484028</ele>
<time>2026-07-14T10:49:36.000Z</time>
</trkpt>
<trkpt lat="56.958614" lon="8.377863">
<ele>17.539811</ele>
<time>2026-07-14T10:49:37.000Z</time>
</trkpt>
<trkpt lat="56.958599" lon="8.377950">
<ele>17.610294</ele>
<time>2026-07-14T10:49:38.000Z</time>
</trkpt>
<trkpt lat="56.958586" lon="8.378037">
<ele>17.681245</ele>
<time>2026-07-14T10:49:39.000Z</time>
</trkpt>
<trkpt lat="56.958574" lon="8.378123">
<ele>17.751065</ele>
<time>2026-07-14T10:49:40.000Z</time>
</trkpt>
<trkpt lat="56.958561" lon="8.378211">
<ele>17.822774</ele>
<time>2026-07-14T10:49:41.000Z</time>
</trkpt>
<trkpt lat="56.958546" lon="8.378298">
<ele>17.894541</ele>
<time>2026-07-14T10:49:42.000Z</time>
</trkpt>
<trkpt lat="56.958531" lon="8.378386">
<ele>17.967059</ele>
<time>2026-07-14T10:49:43.000Z</time>
</trkpt>
<trkpt lat="56.958515" lon="8.378474">
<ele>18.040019</ele>
<time>2026-07-14T10:49:44.000Z</time>
</trkpt>
<trkpt lat="56.958502" lon="8.378556">
<ele>18.107185</ele>
<time>2026-07-14T10:49:45.000Z</time>
</trkpt>
<trkpt lat="56.958489" lon="8.378640">
<ele>18.175863</ele>
<time>2026-07-14T10:49:46.000Z</time>
</trkpt>
<trkpt lat="56.958476" lon="8.378715">
<ele>18.237761</ele>
<time>2026-07-14T10:49:47.000Z</time>
</trkpt>
<trkpt lat="56.958465" lon="8.378793">
<ele>18.301128</ele>
<time>2026-07-14T10:49:48.000Z</time>
</trkpt>
<trkpt lat="56.958451" lon="8.378889">
<ele>18.379289</ele>
<time>2026-07-14T10:49:49.000Z</time>
</trkpt>
<trkpt lat="56.958435" lon="8.378975">
<ele>18.450759</ele>
<time>2026-07-14T10:49:50.000Z</time>
</trkpt>
<trkpt lat="56.958424" lon="8.379061">
<ele>18.520236</ele>
<time>2026-07-14T10:49:51.000Z</time>
</trkpt>
<trkpt lat="56.958412" lon="8.379146">
<ele>18.589295</ele>
<time>2026-07-14T10:49:52.000Z</time>
</trkpt>
<trkpt lat="56.958397" lon="8.379233">
<ele>18.661063</ele>
<time>2026-07-14T10:49:53.000Z</time>
</trkpt>
<trkpt lat="56.958382" lon="8.379325">
<ele>18.736589</ele>
<time>2026-07-14T10:49:54.000Z</time>
</trkpt>
<trkpt lat="56.958366" lon="8.379421">
<ele>18.815544</ele>
<time>2026-07-14T10:49:55.000Z</time>
</trkpt>
<trkpt lat="56.958351" lon="8.379513">
<ele>18.891070</ele>
<time>2026-07-14T10:49:56.000Z</time>
</trkpt>
<trkpt lat="56.958336" lon="8.379606">
<ele>18.967350</ele>
<time>2026-07-14T10:49:57.000Z</time>
</trkpt>
<trkpt lat="56.958321" lon="8.379700">
<ele>19.044385</ele>
<time>2026-07-14T10:49:58.000Z</time>
</trkpt>
<trkpt lat="56.958305" lon="8.379796">
<ele>19.123340</ele>
<time>2026-07-14T10:49:59.000Z</time>
</trkpt>
<trkpt lat="56.958290" lon="8.379894">
<ele>19.203399</ele>
<time>2026-07-14T10:50:00.000Z</time>
</trkpt>
<trkpt lat="56.958275" lon="8.379988">
<ele>19.280434</ele>
<time>2026-07-14T10:50:01.000Z</time>
</trkpt>
<trkpt lat="56.958258" lon="8.380086">
<ele>19.361320</ele>
<time>2026-07-14T10:50:02.000Z</time>
</trkpt>
<trkpt lat="56.958242" lon="8.380184">
<ele>19.441781</ele>
<time>2026-07-14T10:50:03.000Z</time>
</trkpt>
<trkpt lat="56.958229" lon="8.380278">
<ele>19.518056</ele>
<time>2026-07-14T10:50:04.000Z</time>
</trkpt>
<trkpt lat="56.958214" lon="8.380368">
<ele>19.592077</ele>
<time>2026-07-14T10:50:05.000Z</time>
</trkpt>
<trkpt lat="56.958199" lon="8.380459">
<ele>19.666850</ele>
<time>2026-07-14T10:50:06.000Z</time>
</trkpt>
<trkpt lat="56.958184" lon="8.380555">
<ele>19.745396</ele>
<time>2026-07-14T10:50:07.000Z</time>
</trkpt>
<trkpt lat="56.958168" lon="8.380649">
<ele>19.822848</ele>
<time>2026-07-14T10:50:08.000Z</time>
</trkpt>
<trkpt lat="56.958153" lon="8.380744">
<ele>19.900638</ele>
<time>2026-07-14T10:50:09.000Z</time>
</trkpt>
<trkpt lat="56.958139" lon="8.380831">
<ele>19.971984</ele>
<time>2026-07-14T10:50:10.000Z</time>
</trkpt>
<trkpt lat="56.958124" lon="8.380921">
<ele>20.046005</ele>
<time>2026-07-14T10:50:11.000Z</time>
</trkpt>
<trkpt lat="56.958107" lon="8.381028">
<ele>20.133664</ele>
<time>2026-07-14T10:50:12.000Z</time>
</trkpt>
<trkpt lat="56.958090" lon="8.381124">
<ele>20.184345</ele>
<time>2026-07-14T10:50:13.000Z</time>
</trkpt>
<trkpt lat="56.958073" lon="8.381222">
<ele>20.233742</ele>
<time>2026-07-14T10:50:14.000Z</time>
</trkpt>
<trkpt lat="56.958058" lon="8.381317">
<ele>20.281248</ele>
<time>2026-07-14T10:50:15.000Z</time>
</trkpt>
<trkpt lat="56.958044" lon="8.381415">
<ele>20.329909</ele>
<time>2026-07-14T10:50:16.000Z</time>
</trkpt>
<trkpt lat="56.958031" lon="8.381509">
<ele>20.376489</ele>
<time>2026-07-14T10:50:17.000Z</time>
</trkpt>
<trkpt lat="56.958016" lon="8.381602">
<ele>20.423073</ele>
<time>2026-07-14T10:50:18.000Z</time>
</trkpt>
<trkpt lat="56.958000" lon="8.381701">
<ele>20.472670</ele>
<time>2026-07-14T10:50:19.000Z</time>
</trkpt>
<trkpt lat="56.957985" lon="8.381798">
<ele>20.521099</ele>
<time>2026-07-14T10:50:20.000Z</time>
</trkpt>
<trkpt lat="56.957969" lon="8.381891">
<ele>20.567941</ele>
<time>2026-07-14T10:50:21.000Z</time>
</trkpt>
<trkpt lat="56.957956" lon="8.381983">
<ele>20.613591</ele>
<time>2026-07-14T10:50:22.000Z</time>
</trkpt>
<trkpt lat="56.957943" lon="8.382075">
<ele>20.659241</ele>
<time>2026-07-14T10:50:23.000Z</time>
</trkpt>
<trkpt lat="56.957927" lon="8.382168">
<ele>20.706082</ele>
<time>2026-07-14T10:50:24.000Z</time>
</trkpt>
<trkpt lat="56.957913" lon="8.382255">
<ele>20.749652</ele>
<time>2026-07-14T10:50:25.000Z</time>
</trkpt>
<trkpt lat="56.957899" lon="8.382345">
<ele>20.794607</ele>
<time>2026-07-14T10:50:26.000Z</time>
</trkpt>
<trkpt lat="56.957886" lon="8.382439">
<ele>20.841187</ele>
<time>2026-07-14T10:50:27.000Z</time>
</trkpt>
<trkpt lat="56.957870" lon="8.382530">
<ele>20.887113</ele>
<time>2026-07-14T10:50:28.000Z</time>
</trkpt>
<trkpt lat="56.957855" lon="8.382619">
<ele>20.931858</ele>
<time>2026-07-14T10:50:29.000Z</time>
</trkpt>
<trkpt lat="56.957842" lon="8.382710">
<ele>20.977044</ele>
<time>2026-07-14T10:50:30.000Z</time>
</trkpt>
<trkpt lat="56.957828" lon="8.382803">
<ele>21.023385</ele>
<time>2026-07-14T10:50:31.000Z</time>
</trkpt>
<trkpt lat="56.957815" lon="8.382893">
<ele>21.068106</ele>
<time>2026-07-14T10:50:32.000Z</time>
</trkpt>
<trkpt lat="56.957802" lon="8.382985">
<ele>21.113756</ele>
<time>2026-07-14T10:50:33.000Z</time>
</trkpt>
<trkpt lat="56.957787" lon="8.383076">
<ele>21.159420</ele>
<time>2026-07-14T10:50:34.000Z</time>
</trkpt>
<trkpt lat="56.957771" lon="8.383167">
<ele>21.205346</ele>
<time>2026-07-14T10:50:35.000Z</time>
</trkpt>
<trkpt lat="56.957758" lon="8.383259">
<ele>21.250996</ele>
<time>2026-07-14T10:50:36.000Z</time>
</trkpt>
<trkpt lat="56.957745" lon="8.383351">
<ele>21.296647</ele>
<time>2026-07-14T10:50:37.000Z</time>
</trkpt>
<trkpt lat="56.957729" lon="8.383442">
<ele>21.342573</ele>
<time>2026-07-14T10:50:38.000Z</time>
</trkpt>
<trkpt lat="56.957714" lon="8.383534">
<ele>21.388697</ele>
<time>2026-07-14T10:50:39.000Z</time>
</trkpt>
<trkpt lat="56.957699" lon="8.383627">
<ele>21.435281</ele>
<time>2026-07-14T10:50:40.000Z</time>
</trkpt>
<trkpt lat="56.957685" lon="8.383716">
<ele>21.479774</ele>
<time>2026-07-14T10:50:41.000Z</time>
</trkpt>
<trkpt lat="56.957672" lon="8.383807">
<ele>21.524959</ele>
<time>2026-07-14T10:50:42.000Z</time>
</trkpt>
<trkpt lat="56.957655" lon="8.383900">
<ele>21.572074</ele>
<time>2026-07-14T10:50:43.000Z</time>
</trkpt>
<trkpt lat="56.957638" lon="8.383989">
<ele>21.617370</ele>
<time>2026-07-14T10:50:44.000Z</time>
</trkpt>
<trkpt lat="56.957623" lon="8.384082">
<ele>21.663954</ele>
<time>2026-07-14T10:50:45.000Z</time>
</trkpt>
<trkpt lat="56.957606" lon="8.384180">
<ele>21.713352</ele>
<time>2026-07-14T10:50:46.000Z</time>
</trkpt>
<trkpt lat="56.957586" lon="8.384275">
<ele>21.730615</ele>
<time>2026-07-14T10:50:47.000Z</time>
</trkpt>
<trkpt lat="56.957569" lon="8.384371">
<ele>21.739225</ele>
<time>2026-07-14T10:50:48.000Z</time>
</trkpt>
<trkpt lat="56.957552" lon="8.384466">
<ele>21.747754</ele>
<time>2026-07-14T10:50:49.000Z</time>
</trkpt>
<trkpt lat="56.957533" lon="8.384559">
<ele>21.756226</ele>
<time>2026-07-14T10:50:50.000Z</time>
</trkpt>
<trkpt lat="56.957514" lon="8.384651">
<ele>21.764617</ele>
<time>2026-07-14T10:50:51.000Z</time>
</trkpt>
<trkpt lat="56.957495" lon="8.384746">
<ele>21.773249</ele>
<time>2026-07-14T10:50:52.000Z</time>
</trkpt>
<trkpt lat="56.957476" lon="8.384837">
<ele>21.781561</ele>
<time>2026-07-14T10:50:53.000Z</time>
</trkpt>
<trkpt lat="56.957457" lon="8.384928">
<ele>21.789873</ele>
<time>2026-07-14T10:50:54.000Z</time>
</trkpt>
<trkpt lat="56.957437" lon="8.385023">
<ele>21.798560</ele>
<time>2026-07-14T10:50:55.000Z</time>
</trkpt>
<trkpt lat="56.957416" lon="8.385117">
<ele>21.807225</ele>
<time>2026-07-14T10:50:56.000Z</time>
</trkpt>
<trkpt lat="56.957394" lon="8.385207">
<ele>21.815638</ele>
<time>2026-07-14T10:50:57.000Z</time>
</trkpt>
<trkpt lat="56.957373" lon="8.385297">
<ele>21.823989</ele>
<time>2026-07-14T10:50:58.000Z</time>
</trkpt>
<trkpt lat="56.957354" lon="8.385391">
<ele>21.832541</ele>
<time>2026-07-14T10:50:59.000Z</time>
</trkpt>
<trkpt lat="56.957333" lon="8.385486">
<ele>21.841285</ele>
<time>2026-07-14T10:51:00.000Z</time>
</trkpt>
<trkpt lat="56.957309" lon="8.385579">
<ele>21.850061</ele>
<time>2026-07-14T10:51:01.000Z</time>
</trkpt>
<trkpt lat="56.957287" lon="8.385669">
<ele>21.858475</ele>
<time>2026-07-14T10:51:02.000Z</time>
</trkpt>
<trkpt lat="56.957263" lon="8.385761">
<ele>21.867175</ele>
<time>2026-07-14T10:51:03.000Z</time>
</trkpt>
<trkpt lat="56.957239" lon="8.385850">
<ele>21.875644</ele>
<time>2026-07-14T10:51:04.000Z</time>
</trkpt>
<trkpt lat="56.957216" lon="8.385936">
<ele>21.883815</ele>
<time>2026-07-14T10:51:05.000Z</time>
</trkpt>
<trkpt lat="56.957192" lon="8.386028">
<ele>21.892515</ele>
<time>2026-07-14T10:51:06.000Z</time>
</trkpt>
<trkpt lat="56.957168" lon="8.386123">
<ele>21.901446</ele>
<time>2026-07-14T10:51:07.000Z</time>
</trkpt>
<trkpt lat="56.957146" lon="8.386210">
<ele>21.909626</ele>
<time>2026-07-14T10:51:08.000Z</time>
</trkpt>
<trkpt lat="56.957123" lon="8.386299">
<ele>21.918028</ele>
<time>2026-07-14T10:51:09.000Z</time>
</trkpt>
<trkpt lat="56.957099" lon="8.386390">
<ele>21.926651</ele>
<time>2026-07-14T10:51:10.000Z</time>
</trkpt>
<trkpt lat="56.957077" lon="8.386480">
<ele>21.935064</ele>
<time>2026-07-14T10:51:11.000Z</time>
</trkpt>
<trkpt lat="56.957054" lon="8.386568">
<ele>21.943388</ele>
<time>2026-07-14T10:51:12.000Z</time>
</trkpt>
<trkpt lat="56.957031" lon="8.386656">
<ele>21.951713</ele>
<time>2026-07-14T10:51:13.000Z</time>
</trkpt>
<trkpt lat="56.957006" lon="8.386747">
<ele>21.960405</ele>
<time>2026-07-14T10:51:14.000Z</time>
</trkpt>
<trkpt lat="56.956981" lon="8.386836">
<ele>21.968945</ele>
<time>2026-07-14T10:51:15.000Z</time>
</trkpt>
<trkpt lat="56.956958" lon="8.386921">
<ele>21.977040</ele>
<time>2026-07-14T10:51:16.000Z</time>
</trkpt>
<trkpt lat="56.956936" lon="8.387007">
<ele>21.985143</ele>
<time>2026-07-14T10:51:17.000Z</time>
</trkpt>
<trkpt lat="56.956913" lon="8.387094">
<ele>21.993390</ele>
<time>2026-07-14T10:51:18.000Z</time>
</trkpt>
<trkpt lat="56.956890" lon="8.387184">
<ele>22.001869</ele>
<time>2026-07-14T10:51:19.000Z</time>
</trkpt>
<trkpt lat="56.956867" lon="8.387271">
<ele>21.987939</ele>
<time>2026-07-14T10:51:20.000Z</time>
</trkpt>
<trkpt lat="56.956844" lon="8.387357">
<ele>21.959528</ele>
<time>2026-07-14T10:51:21.000Z</time>
</trkpt>
<trkpt lat="56.956821" lon="8.387444">
<ele>21.930851</ele>
<time>2026-07-14T10:51:22.000Z</time>
</trkpt>
<trkpt lat="56.956801" lon="8.387529">
<ele>21.903392</ele>
<time>2026-07-14T10:51:23.000Z</time>
</trkpt>
<trkpt lat="56.956780" lon="8.387614">
<ele>21.875714</ele>
<time>2026-07-14T10:51:24.000Z</time>
</trkpt>
<trkpt lat="56.956757" lon="8.387698">
<ele>21.847835</ele>
<time>2026-07-14T10:51:25.000Z</time>
</trkpt>
<trkpt lat="56.956736" lon="8.387784">
<ele>21.819886</ele>
<time>2026-07-14T10:51:26.000Z</time>
</trkpt>
<trkpt lat="56.956714" lon="8.387870">
<ele>21.791710</ele>
<time>2026-07-14T10:51:27.000Z</time>
</trkpt>
<trkpt lat="56.956692" lon="8.387951">
<ele>21.764870</ele>
<time>2026-07-14T10:51:28.000Z</time>
</trkpt>
<trkpt lat="56.956669" lon="8.388032">
<ele>21.737783</ele>
<time>2026-07-14T10:51:29.000Z</time>
</trkpt>
<trkpt lat="56.956645" lon="8.388115">
<ele>21.709917</ele>
<time>2026-07-14T10:51:30.000Z</time>
</trkpt>
<trkpt lat="56.956625" lon="8.388193">
<ele>21.684352</ele>
<time>2026-07-14T10:51:31.000Z</time>
</trkpt>
<trkpt lat="56.956606" lon="8.388271">
<ele>21.659013</ele>
<time>2026-07-14T10:51:32.000Z</time>
</trkpt>
<trkpt lat="56.956585" lon="8.388345">
<ele>21.634270</ele>
<time>2026-07-14T10:51:33.000Z</time>
</trkpt>
<trkpt lat="56.956564" lon="8.388417">
<ele>21.610052</ele>
<time>2026-07-14T10:51:34.000Z</time>
</trkpt>
<trkpt lat="56.956544" lon="8.388487">
<ele>21.586612</ele>
<time>2026-07-14T10:51:35.000Z</time>
</trkpt>
<trkpt lat="56.956528" lon="8.388550">
<ele>21.565998</ele>
<time>2026-07-14T10:51:36.000Z</time>
</trkpt>
<trkpt lat="56.956514" lon="8.388608">
<ele>21.547185</ele>
<time>2026-07-14T10:51:37.000Z</time>
</trkpt>
<trkpt lat="56.956509" lon="8.388657">
<ele>21.532399</ele>
<time>2026-07-14T10:51:38.000Z</time>
</trkpt>
<trkpt lat="56.956514" lon="8.388698">
<ele>21.519938</ele>
<time>2026-07-14T10:51:39.000Z</time>
</trkpt>
<trkpt lat="56.956527" lon="8.388727">
<ele>21.508803</ele>
<time>2026-07-14T10:51:40.000Z</time>
</trkpt>
<trkpt lat="56.956546" lon="8.388745">
<ele>21.497170</ele>
<time>2026-07-14T10:51:41.000Z</time>
</trkpt>
<trkpt lat="56.956572" lon="8.388756">
<ele>21.482656</ele>
<time>2026-07-14T10:51:42.000Z</time>
</trkpt>
<trkpt lat="56.956602" lon="8.388764">
<ele>21.466166</ele>
<time>2026-07-14T10:51:43.000Z</time>
</trkpt>
<trkpt lat="56.956641" lon="8.388777">
<ele>21.444604</ele>
<time>2026-07-14T10:51:44.000Z</time>
</trkpt>
<trkpt lat="56.956683" lon="8.388799">
<ele>21.420844</ele>
<time>2026-07-14T10:51:45.000Z</time>
</trkpt>
<trkpt lat="56.956723" lon="8.388822">
<ele>21.398042</ele>
<time>2026-07-14T10:51:46.000Z</time>
</trkpt>
<trkpt lat="56.956762" lon="8.388842">
<ele>21.376014</ele>
<time>2026-07-14T10:51:47.000Z</time>
</trkpt>
<trkpt lat="56.956804" lon="8.388860">
<ele>21.352552</ele>
<time>2026-07-14T10:51:48.000Z</time>
</trkpt>
<trkpt lat="56.956849" lon="8.388879">
<ele>21.327434</ele>
<time>2026-07-14T10:51:49.000Z</time>
</trkpt>
<trkpt lat="56.956895" lon="8.388899">
<ele>21.301719</ele>
<time>2026-07-14T10:51:50.000Z</time>
</trkpt>
<trkpt lat="56.956938" lon="8.388920">
<ele>21.277514</ele>
<time>2026-07-14T10:51:51.000Z</time>
</trkpt>
<trkpt lat="56.956979" lon="8.388944">
<ele>21.254103</ele>
<time>2026-07-14T10:51:52.000Z</time>
</trkpt>
<trkpt lat="56.957019" lon="8.388968">
<ele>21.231210</ele>
<time>2026-07-14T10:51:53.000Z</time>
</trkpt>
<trkpt lat="56.957057" lon="8.388990">
<ele>21.209534</ele>
<time>2026-07-14T10:51:54.000Z</time>
</trkpt>
<trkpt lat="56.957099" lon="8.389013">
<ele>21.185691</ele>
<time>2026-07-14T10:51:55.000Z</time>
</trkpt>
<trkpt lat="56.957154" lon="8.389045">
<ele>21.154305</ele>
<time>2026-07-14T10:51:56.000Z</time>
</trkpt>
<trkpt lat="56.957198" lon="8.389072">
<ele>21.129066</ele>
<time>2026-07-14T10:51:57.000Z</time>
</trkpt>
<trkpt lat="56.957242" lon="8.389099">
<ele>21.103828</ele>
<time>2026-07-14T10:51:58.000Z</time>
</trkpt>
<trkpt lat="56.957289" lon="8.389125">
<ele>21.077125</ele>
<time>2026-07-14T10:51:59.000Z</time>
</trkpt>
<trkpt lat="56.957334" lon="8.389151">
<ele>21.051461</ele>
<time>2026-07-14T10:52:00.000Z</time>
</trkpt>
<trkpt lat="56.957377" lon="8.389179">
<ele>21.026709</ele>
<time>2026-07-14T10:52:01.000Z</time>
</trkpt>
<trkpt lat="56.957424" lon="8.389207">
<ele>21.012532</ele>
<time>2026-07-14T10:52:02.000Z</time>
</trkpt>
<trkpt lat="56.957472" lon="8.389237">
<ele>20.997983</ele>
<time>2026-07-14T10:52:03.000Z</time>
</trkpt>
<trkpt lat="56.957517" lon="8.389269">
<ele>20.984137</ele>
<time>2026-07-14T10:52:04.000Z</time>
</trkpt>
<trkpt lat="56.957563" lon="8.389299">
<ele>20.970131</ele>
<time>2026-07-14T10:52:05.000Z</time>
</trkpt>
<trkpt lat="56.957608" lon="8.389330">
<ele>20.956340</ele>
<time>2026-07-14T10:52:06.000Z</time>
</trkpt>
<trkpt lat="56.957653" lon="8.389364">
<ele>20.942378</ele>
<time>2026-07-14T10:52:07.000Z</time>
</trkpt>
<trkpt lat="56.957698" lon="8.389399">
<ele>20.928355</ele>
<time>2026-07-14T10:52:08.000Z</time>
</trkpt>
<trkpt lat="56.957742" lon="8.389434">
<ele>20.914596</ele>
<time>2026-07-14T10:52:09.000Z</time>
</trkpt>
<trkpt lat="56.957787" lon="8.389473">
<ele>20.900317</ele>
<time>2026-07-14T10:52:10.000Z</time>
</trkpt>
<trkpt lat="56.957831" lon="8.389510">
<ele>20.886430</ele>
<time>2026-07-14T10:52:11.000Z</time>
</trkpt>
<trkpt lat="56.957873" lon="8.389546">
<ele>20.873130</ele>
<time>2026-07-14T10:52:12.000Z</time>
</trkpt>
<trkpt lat="56.957913" lon="8.389581">
<ele>20.860416</ele>
<time>2026-07-14T10:52:13.000Z</time>
</trkpt>
<trkpt lat="56.957953" lon="8.389616">
<ele>20.847701</ele>
<time>2026-07-14T10:52:14.000Z</time>
</trkpt>
<trkpt lat="56.957993" lon="8.389650">
<ele>20.835053</ele>
<time>2026-07-14T10:52:15.000Z</time>
</trkpt>
<trkpt lat="56.958029" lon="8.389683">
<ele>20.823507</ele>
<time>2026-07-14T10:52:16.000Z</time>
</trkpt>
<trkpt lat="56.958063" lon="8.389714">
<ele>20.812614</ele>
<time>2026-07-14T10:52:17.000Z</time>
</trkpt>
<trkpt lat="56.958101" lon="8.389748">
<ele>20.800484</ele>
<time>2026-07-14T10:52:18.000Z</time>
</trkpt>
<trkpt lat="56.958151" lon="8.389789">
<ele>20.784772</ele>
<time>2026-07-14T10:52:19.000Z</time>
</trkpt>
<trkpt lat="56.958192" lon="8.389824">
<ele>20.771797</ele>
<time>2026-07-14T10:52:20.000Z</time>
</trkpt>
<trkpt lat="56.958238" lon="8.389863">
<ele>20.757259</ele>
<time>2026-07-14T10:52:21.000Z</time>
</trkpt>
<trkpt lat="56.958287" lon="8.389904">
<ele>20.741808</ele>
<time>2026-07-14T10:52:22.000Z</time>
</trkpt>
<trkpt lat="56.958335" lon="8.389944">
<ele>20.726682</ele>
<time>2026-07-14T10:52:23.000Z</time>
</trkpt>
<trkpt lat="56.958384" lon="8.389986">
<ele>20.711165</ele>
<time>2026-07-14T10:52:24.000Z</time>
</trkpt>
<trkpt lat="56.958434" lon="8.390028">
<ele>20.695388</ele>
<time>2026-07-14T10:52:25.000Z</time>
</trkpt>
<trkpt lat="56.958483" lon="8.390068">
<ele>20.680001</ele>
<time>2026-07-14T10:52:26.000Z</time>
</trkpt>
<trkpt lat="56.958533" lon="8.390107">
<ele>20.664414</ele>
<time>2026-07-14T10:52:27.000Z</time>
</trkpt>
<trkpt lat="56.958582" lon="8.390145">
<ele>20.649151</ele>
<time>2026-07-14T10:52:28.000Z</time>
</trkpt>
<trkpt lat="56.958631" lon="8.390186">
<ele>20.633700</ele>
<time>2026-07-14T10:52:29.000Z</time>
</trkpt>
<trkpt lat="56.958682" lon="8.390227">
<ele>20.617725</ele>
<time>2026-07-14T10:52:30.000Z</time>
</trkpt>
<trkpt lat="56.958731" lon="8.390267">
<ele>20.602338</ele>
<time>2026-07-14T10:52:31.000Z</time>
</trkpt>
<trkpt lat="56.958781" lon="8.390309">
<ele>20.586561</ele>
<time>2026-07-14T10:52:32.000Z</time>
</trkpt>
<trkpt lat="56.958829" lon="8.390355">
<ele>20.571024</ele>
<time>2026-07-14T10:52:33.000Z</time>
</trkpt>
<trkpt lat="56.958873" lon="8.390403">
<ele>20.556336</ele>
<time>2026-07-14T10:52:34.000Z</time>
</trkpt>
<trkpt lat="56.958920" lon="8.390452">
<ele>20.540827</ele>
<time>2026-07-14T10:52:35.000Z</time>
</trkpt>
<trkpt lat="56.958967" lon="8.390507">
<ele>20.524832</ele>
<time>2026-07-14T10:52:36.000Z</time>
</trkpt>
<trkpt lat="56.959011" lon="8.390566">
<ele>20.521454</ele>
<time>2026-07-14T10:52:37.000Z</time>
</trkpt>
<trkpt lat="56.959055" lon="8.390626">
<ele>20.627382</ele>
<time>2026-07-14T10:52:38.000Z</time>
</trkpt>
<trkpt lat="56.959098" lon="8.390688">
<ele>20.733055</ele>
<time>2026-07-14T10:52:39.000Z</time>
</trkpt>
<trkpt lat="56.959137" lon="8.390750">
<ele>20.832766</ele>
<time>2026-07-14T10:52:40.000Z</time>
</trkpt>
<trkpt lat="56.959175" lon="8.390813">
<ele>20.931730</ele>
<time>2026-07-14T10:52:41.000Z</time>
</trkpt>
<trkpt lat="56.959212" lon="8.390878">
<ele>21.030714</ele>
<time>2026-07-14T10:52:42.000Z</time>
</trkpt>
<trkpt lat="56.959248" lon="8.390941">
<ele>21.126846</ele>
<time>2026-07-14T10:52:43.000Z</time>
</trkpt>
<trkpt lat="56.959281" lon="8.391003">
<ele>21.218115</ele>
<time>2026-07-14T10:52:44.000Z</time>
</trkpt>
<trkpt lat="56.959309" lon="8.391060">
<ele>21.298932</ele>
<time>2026-07-14T10:52:45.000Z</time>
</trkpt>
<trkpt lat="56.959337" lon="8.391112">
<ele>21.375916</ele>
<time>2026-07-14T10:52:46.000Z</time>
</trkpt>
<trkpt lat="56.959364" lon="8.391161">
<ele>21.449300</ele>
<time>2026-07-14T10:52:47.000Z</time>
</trkpt>
<trkpt lat="56.959389" lon="8.391205">
<ele>21.516240</ele>
<time>2026-07-14T10:52:48.000Z</time>
</trkpt>
<trkpt lat="56.959414" lon="8.391248">
<ele>21.582455</ele>
<time>2026-07-14T10:52:49.000Z</time>
</trkpt>
<trkpt lat="56.959438" lon="8.391294">
<ele>21.649521</ele>
<time>2026-07-14T10:52:50.000Z</time>
</trkpt>
<trkpt lat="56.959461" lon="8.391340">
<ele>21.715266</ele>
<time>2026-07-14T10:52:51.000Z</time>
</trkpt>
<trkpt lat="56.959484" lon="8.391387">
<ele>21.781791</ele>
<time>2026-07-14T10:52:52.000Z</time>
</trkpt>
<trkpt lat="56.959509" lon="8.391434">
<ele>21.850957</ele>
<time>2026-07-14T10:52:53.000Z</time>
</trkpt>
<trkpt lat="56.959534" lon="8.391483">
<ele>21.921645</ele>
<time>2026-07-14T10:52:54.000Z</time>
</trkpt>
<trkpt lat="56.959559" lon="8.391533">
<ele>21.993107</ele>
<time>2026-07-14T10:52:55.000Z</time>
</trkpt>
<trkpt lat="56.959585" lon="8.391580">
<ele>22.063635</ele>
<time>2026-07-14T10:52:56.000Z</time>
</trkpt>
<trkpt lat="56.959612" lon="8.391626">
<ele>22.134831</ele>
<time>2026-07-14T10:52:57.000Z</time>
</trkpt>
<trkpt lat="56.959638" lon="8.391673">
<ele>22.205360</ele>
<time>2026-07-14T10:52:58.000Z</time>
</trkpt>
<trkpt lat="56.959665" lon="8.391722">
<ele>22.278743</ele>
<time>2026-07-14T10:52:59.000Z</time>
</trkpt>
<trkpt lat="56.959693" lon="8.391773">
<ele>22.354981</ele>
<time>2026-07-14T10:53:00.000Z</time>
</trkpt>
<trkpt lat="56.959726" lon="8.391826">
<ele>22.439725</ele>
<time>2026-07-14T10:53:01.000Z</time>
</trkpt>
<trkpt lat="56.959759" lon="8.391881">
<ele>22.525871</ele>
<time>2026-07-14T10:53:02.000Z</time>
</trkpt>
<trkpt lat="56.959790" lon="8.391938">
<ele>22.610676</ele>
<time>2026-07-14T10:53:03.000Z</time>
</trkpt>
<trkpt lat="56.959820" lon="8.391991">
<ele>22.691150</ele>
<time>2026-07-14T10:53:04.000Z</time>
</trkpt>
<trkpt lat="56.959850" lon="8.392041">
<ele>22.769465</ele>
<time>2026-07-14T10:53:05.000Z</time>
</trkpt>
<trkpt lat="56.959882" lon="8.392091">
<ele>22.850680</ele>
<time>2026-07-14T10:53:06.000Z</time>
</trkpt>
<trkpt lat="56.959915" lon="8.392142">
<ele>22.934051</ele>
<time>2026-07-14T10:53:07.000Z</time>
</trkpt>
<trkpt lat="56.959943" lon="8.392191">
<ele>23.008820</ele>
<time>2026-07-14T10:53:08.000Z</time>
</trkpt>
<trkpt lat="56.959972" lon="8.392242">
<ele>23.086440</ele>
<time>2026-07-14T10:53:09.000Z</time>
</trkpt>
<trkpt lat="56.960000" lon="8.392293">
<ele>23.162678</ele>
<time>2026-07-14T10:53:10.000Z</time>
</trkpt>
<trkpt lat="56.960028" lon="8.392343">
<ele>23.238178</ele>
<time>2026-07-14T10:53:11.000Z</time>
</trkpt>
<trkpt lat="56.960058" lon="8.392397">
<ele>23.319386</ele>
<time>2026-07-14T10:53:12.000Z</time>
</trkpt>
<trkpt lat="56.960085" lon="8.392452">
<ele>23.397343</ele>
<time>2026-07-14T10:53:13.000Z</time>
</trkpt>
<trkpt lat="56.960112" lon="8.392506">
<ele>23.474521</ele>
<time>2026-07-14T10:53:14.000Z</time>
</trkpt>
<trkpt lat="56.960134" lon="8.392561">
<ele>23.546375</ele>
<time>2026-07-14T10:53:15.000Z</time>
</trkpt>
<trkpt lat="56.960153" lon="8.392618">
<ele>23.616748</ele>
<time>2026-07-14T10:53:16.000Z</time>
</trkpt>
<trkpt lat="56.960174" lon="8.392675">
<ele>23.689211</ele>
<time>2026-07-14T10:53:17.000Z</time>
</trkpt>
<trkpt lat="56.960196" lon="8.392734">
<ele>23.764503</ele>
<time>2026-07-14T10:53:18.000Z</time>
</trkpt>
<trkpt lat="56.960213" lon="8.392790">
<ele>23.832018</ele>
<time>2026-07-14T10:53:19.000Z</time>
</trkpt>
<trkpt lat="56.960230" lon="8.392846">
<ele>23.899533</ele>
<time>2026-07-14T10:53:20.000Z</time>
</trkpt>
<trkpt lat="56.960249" lon="8.392907">
<ele>23.973533</ele>
<time>2026-07-14T10:53:21.000Z</time>
</trkpt>
<trkpt lat="56.960266" lon="8.392972">
<ele>24.039774</ele>
<time>2026-07-14T10:53:22.000Z</time>
</trkpt>
<trkpt lat="56.960283" lon="8.393040">
<ele>24.106591</ele>
<time>2026-07-14T10:53:23.000Z</time>
</trkpt>
<trkpt lat="56.960302" lon="8.393110">
<ele>24.176433</ele>
<time>2026-07-14T10:53:24.000Z</time>
</trkpt>
<trkpt lat="56.960321" lon="8.393182">
<ele>24.247878</ele>
<time>2026-07-14T10:53:25.000Z</time>
</trkpt>
<trkpt lat="56.960340" lon="8.393254">
<ele>24.319324</ele>
<time>2026-07-14T10:53:26.000Z</time>
</trkpt>
<trkpt lat="56.960360" lon="8.393329">
<ele>24.393896</ele>
<time>2026-07-14T10:53:27.000Z</time>
</trkpt>
<trkpt lat="56.960379" lon="8.393404">
<ele>24.467763</ele>
<time>2026-07-14T10:53:28.000Z</time>
</trkpt>
<trkpt lat="56.960396" lon="8.393478">
<ele>24.539485</ele>
<time>2026-07-14T10:53:29.000Z</time>
</trkpt>
<trkpt lat="56.960415" lon="8.393553">
<ele>24.613352</ele>
<time>2026-07-14T10:53:30.000Z</time>
</trkpt>
<trkpt lat="56.960436" lon="8.393627">
<ele>24.687864</ele>
<time>2026-07-14T10:53:31.000Z</time>
</trkpt>
<trkpt lat="56.960457" lon="8.393698">
<ele>24.760011</ele>
<time>2026-07-14T10:53:32.000Z</time>
</trkpt>
<trkpt lat="56.960481" lon="8.393768">
<ele>24.833868</ele>
<time>2026-07-14T10:53:33.000Z</time>
</trkpt>
<trkpt lat="56.960508" lon="8.393839">
<ele>24.911185</ele>
<time>2026-07-14T10:53:34.000Z</time>
</trkpt>
<trkpt lat="56.960537" lon="8.393913">
<ele>24.992583</ele>
<time>2026-07-14T10:53:35.000Z</time>
</trkpt>
<trkpt lat="56.960567" lon="8.393988">
<ele>25.075665</ele>
<time>2026-07-14T10:53:36.000Z</time>
</trkpt>
<trkpt lat="56.960596" lon="8.394064">
<ele>25.158520</ele>
<time>2026-07-14T10:53:37.000Z</time>
</trkpt>
<trkpt lat="56.960621" lon="8.394145">
<ele>25.241655</ele>
<time>2026-07-14T10:53:38.000Z</time>
</trkpt>
<trkpt lat="56.960646" lon="8.394224">
<ele>25.323240</ele>
<time>2026-07-14T10:53:39.000Z</time>
</trkpt>
<trkpt lat="56.960671" lon="8.394302">
<ele>25.404054</ele>
<time>2026-07-14T10:53:40.000Z</time>
</trkpt>
<trkpt lat="56.960696" lon="8.394381">
<ele>25.485639</ele>
<time>2026-07-14T10:53:41.000Z</time>
</trkpt>
<trkpt lat="56.960720" lon="8.394455">
<ele>25.562544</ele>
<time>2026-07-14T10:53:42.000Z</time>
</trkpt>
<trkpt lat="56.960744" lon="8.394531">
<ele>25.640989</ele>
<time>2026-07-14T10:53:43.000Z</time>
</trkpt>
<trkpt lat="56.960770" lon="8.394609">
<ele>25.722645</ele>
<time>2026-07-14T10:53:44.000Z</time>
</trkpt>
<trkpt lat="56.960791" lon="8.394686">
<ele>25.799544</ele>
<time>2026-07-14T10:53:45.000Z</time>
</trkpt>
<trkpt lat="56.960808" lon="8.394756">
<ele>25.867988</ele>
<time>2026-07-14T10:53:46.000Z</time>
</trkpt>
<trkpt lat="56.960827" lon="8.394816">
<ele>25.929961</ele>
<time>2026-07-14T10:53:47.000Z</time>
</trkpt>
<trkpt lat="56.960847" lon="8.394867">
<ele>25.986072</ele>
<time>2026-07-14T10:53:48.000Z</time>
</trkpt>
<trkpt lat="56.960864" lon="8.394915">
<ele>26.037196</ele>
<time>2026-07-14T10:53:49.000Z</time>
</trkpt>
<trkpt lat="56.960880" lon="8.394967">
<ele>26.090526</ele>
<time>2026-07-14T10:53:50.000Z</time>
</trkpt>
<trkpt lat="56.960894" lon="8.395017">
<ele>26.140730</ele>
<time>2026-07-14T10:53:51.000Z</time>
</trkpt>
<trkpt lat="56.960905" lon="8.395065">
<ele>26.187235</ele>
<time>2026-07-14T10:53:52.000Z</time>
</trkpt>
<trkpt lat="56.960918" lon="8.395110">
<ele>26.232721</ele>
<time>2026-07-14T10:53:53.000Z</time>
</trkpt>
<trkpt lat="56.960933" lon="8.395157">
<ele>26.281363</ele>
<time>2026-07-14T10:53:54.000Z</time>
</trkpt>
<trkpt lat="56.960947" lon="8.395212">
<ele>26.335577</ele>
<time>2026-07-14T10:53:55.000Z</time>
</trkpt>
<trkpt lat="56.960961" lon="8.395269">
<ele>26.391415</ele>
<time>2026-07-14T10:53:56.000Z</time>
</trkpt>
<trkpt lat="56.960973" lon="8.395318">
<ele>26.439393</ele>
<time>2026-07-14T10:53:57.000Z</time>
</trkpt>
<trkpt lat="56.960985" lon="8.395362">
<ele>26.483335</ele>
<time>2026-07-14T10:53:58.000Z</time>
</trkpt>
<trkpt lat="56.961008" lon="8.395438">
<ele>26.560971</ele>
<time>2026-07-14T10:53:59.000Z</time>
</trkpt>
<trkpt lat="56.961025" lon="8.395492">
<ele>26.616665</ele>
<time>2026-07-14T10:54:00.000Z</time>
</trkpt>
<trkpt lat="56.961040" lon="8.395548">
<ele>26.672393</ele>
<time>2026-07-14T10:54:01.000Z</time>
</trkpt>
<trkpt lat="56.961055" lon="8.395607">
<ele>26.730537</ele>
<time>2026-07-14T10:54:02.000Z</time>
</trkpt>
<trkpt lat="56.961071" lon="8.395669">
<ele>26.791804</ele>
<time>2026-07-14T10:54:03.000Z</time>
</trkpt>
<trkpt lat="56.961088" lon="8.395739">
<ele>26.860247</ele>
<time>2026-07-14T10:54:04.000Z</time>
</trkpt>
<trkpt lat="56.961107" lon="8.395811">
<ele>26.931692</ele>
<time>2026-07-14T10:54:05.000Z</time>
</trkpt>
<trkpt lat="56.961126" lon="8.395888">
<ele>26.892116</ele>
<time>2026-07-14T10:54:06.000Z</time>
</trkpt>
<trkpt lat="56.961147" lon="8.395972">
<ele>26.847916</ele>
<time>2026-07-14T10:54:07.000Z</time>
</trkpt>
<trkpt lat="56.961170" lon="8.396059">
<ele>26.801669</ele>
<time>2026-07-14T10:54:08.000Z</time>
</trkpt>
<trkpt lat="56.961193" lon="8.396148">
<ele>26.754560</ele>
<time>2026-07-14T10:54:09.000Z</time>
</trkpt>
<trkpt lat="56.961216" lon="8.396234">
<ele>26.708743</ele>
<time>2026-07-14T10:54:10.000Z</time>
</trkpt>
<trkpt lat="56.961239" lon="8.396318">
<ele>26.663784</ele>
<time>2026-07-14T10:54:11.000Z</time>
</trkpt>
<trkpt lat="56.961262" lon="8.396397">
<ele>26.620947</ele>
<time>2026-07-14T10:54:12.000Z</time>
</trkpt>
<trkpt lat="56.961287" lon="8.396469">
<ele>26.580119</ele>
<time>2026-07-14T10:54:13.000Z</time>
</trkpt>
<trkpt lat="56.961314" lon="8.396539">
<ele>26.539106</ele>
<time>2026-07-14T10:54:14.000Z</time>
</trkpt>
<trkpt lat="56.961338" lon="8.396606">
<ele>26.500761</ele>
<time>2026-07-14T10:54:15.000Z</time>
</trkpt>
<trkpt lat="56.961365" lon="8.396673">
<ele>26.460911</ele>
<time>2026-07-14T10:54:16.000Z</time>
</trkpt>
<trkpt lat="56.961395" lon="8.396740">
<ele>26.419443</ele>
<time>2026-07-14T10:54:17.000Z</time>
</trkpt>
<trkpt lat="56.961427" lon="8.396806">
<ele>26.377197</ele>
<time>2026-07-14T10:54:18.000Z</time>
</trkpt>
<trkpt lat="56.961460" lon="8.396875">
<ele>26.333296</ele>
<time>2026-07-14T10:54:19.000Z</time>
</trkpt>
<trkpt lat="56.961493" lon="8.396941">
<ele>26.290463</ele>
<time>2026-07-14T10:54:20.000Z</time>
</trkpt>
<trkpt lat="56.961528" lon="8.397003">
<ele>26.247776</ele>
<time>2026-07-14T10:54:21.000Z</time>
</trkpt>
<trkpt lat="56.961563" lon="8.397061">
<ele>26.206395</ele>
<time>2026-07-14T10:54:22.000Z</time>
</trkpt>
<trkpt lat="56.961601" lon="8.397117">
<ele>26.163630</ele>
<time>2026-07-14T10:54:23.000Z</time>
</trkpt>
<trkpt lat="56.961642" lon="8.397176">
<ele>26.117912</ele>
<time>2026-07-14T10:54:24.000Z</time>
</trkpt>
<trkpt lat="56.961682" lon="8.397231">
<ele>26.074055</ele>
<time>2026-07-14T10:54:25.000Z</time>
</trkpt>
<trkpt lat="56.961726" lon="8.397290">
<ele>26.026239</ele>
<time>2026-07-14T10:54:26.000Z</time>
</trkpt>
<trkpt lat="56.961779" lon="8.397357">
<ele>25.969769</ele>
<time>2026-07-14T10:54:27.000Z</time>
</trkpt>
<trkpt lat="56.961827" lon="8.397413">
<ele>25.919862</ele>
<time>2026-07-14T10:54:28.000Z</time>
</trkpt>
<trkpt lat="56.961874" lon="8.397468">
<ele>25.870953</ele>
<time>2026-07-14T10:54:29.000Z</time>
</trkpt>
<trkpt lat="56.961920" lon="8.397522">
<ele>25.823040</ele>
<time>2026-07-14T10:54:30.000Z</time>
</trkpt>
<trkpt lat="56.961967" lon="8.397578">
<ele>25.773871</ele>
<time>2026-07-14T10:54:31.000Z</time>
</trkpt>
<trkpt lat="56.962014" lon="8.397636">
<ele>25.724175</ele>
<time>2026-07-14T10:54:32.000Z</time>
</trkpt>
<trkpt lat="56.962058" lon="8.397691">
<ele>25.677463</ele>
<time>2026-07-14T10:54:33.000Z</time>
</trkpt>
<trkpt lat="56.962099" lon="8.397747">
<ele>25.632617</ele>
<time>2026-07-14T10:54:34.000Z</time>
</trkpt>
<trkpt lat="56.962141" lon="8.397800">
<ele>25.587892</ele>
<time>2026-07-14T10:54:35.000Z</time>
</trkpt>
<trkpt lat="56.962186" lon="8.397856">
<ele>25.540186</ele>
<time>2026-07-14T10:54:36.000Z</time>
</trkpt>
<trkpt lat="56.962233" lon="8.397918">
<ele>25.489397</ele>
<time>2026-07-14T10:54:37.000Z</time>
</trkpt>
<trkpt lat="56.962277" lon="8.397976">
<ele>25.441862</ele>
<time>2026-07-14T10:54:38.000Z</time>
</trkpt>
<trkpt lat="56.962321" lon="8.398034">
<ele>25.394327</ele>
<time>2026-07-14T10:54:39.000Z</time>
</trkpt>
<trkpt lat="56.962363" lon="8.398092">
<ele>25.351040</ele>
<time>2026-07-14T10:54:40.000Z</time>
</trkpt>
<trkpt lat="56.962407" lon="8.398149">
<ele>25.325727</ele>
<time>2026-07-14T10:54:41.000Z</time>
</trkpt>
<trkpt lat="56.962450" lon="8.398205">
<ele>25.300944</ele>
<time>2026-07-14T10:54:42.000Z</time>
</trkpt>
<trkpt lat="56.962494" lon="8.398263">
<ele>25.275482</ele>
<time>2026-07-14T10:54:43.000Z</time>
</trkpt>
<trkpt lat="56.962537" lon="8.398321">
<ele>25.250400</ele>
<time>2026-07-14T10:54:44.000Z</time>
</trkpt>
<trkpt lat="56.962579" lon="8.398381">
<ele>25.225383</ele>
<time>2026-07-14T10:54:45.000Z</time>
</trkpt>
<trkpt lat="56.962622" lon="8.398444">
<ele>25.199522</ele>
<time>2026-07-14T10:54:46.000Z</time>
</trkpt>
<trkpt lat="56.962663" lon="8.398506">
<ele>25.174551</ele>
<time>2026-07-14T10:54:47.000Z</time>
</trkpt>
<trkpt lat="56.962703" lon="8.398570">
<ele>25.149608</ele>
<time>2026-07-14T10:54:48.000Z</time>
</trkpt>
<trkpt lat="56.962744" lon="8.398635">
<ele>25.124142</ele>
<time>2026-07-14T10:54:49.000Z</time>
</trkpt>
<trkpt lat="56.962786" lon="8.398696">
<ele>25.098967</ele>
<time>2026-07-14T10:54:50.000Z</time>
</trkpt>
<trkpt lat="56.962828" lon="8.398754">
<ele>25.074262</ele>
<time>2026-07-14T10:54:51.000Z</time>
</trkpt>
<trkpt lat="56.962872" lon="8.398809">
<ele>25.049241</ele>
<time>2026-07-14T10:54:52.000Z</time>
</trkpt>
<trkpt lat="56.962918" lon="8.398857">
<ele>25.024371</ele>
<time>2026-07-14T10:54:53.000Z</time>
</trkpt>
<trkpt lat="56.962966" lon="8.398898">
<ele>24.999489</ele>
<time>2026-07-14T10:54:54.000Z</time>
</trkpt>
<trkpt lat="56.963012" lon="8.398935">
<ele>24.975885</ele>
<time>2026-07-14T10:54:55.000Z</time>
</trkpt>
<trkpt lat="56.963058" lon="8.398970">
<ele>24.952483</ele>
<time>2026-07-14T10:54:56.000Z</time>
</trkpt>
<trkpt lat="56.963109" lon="8.399005">
<ele>24.926894</ele>
<time>2026-07-14T10:54:57.000Z</time>
</trkpt>
<trkpt lat="56.963160" lon="8.399039">
<ele>24.901394</ele>
<time>2026-07-14T10:54:58.000Z</time>
</trkpt>
<trkpt lat="56.963207" lon="8.399073">
<ele>24.877652</ele>
<time>2026-07-14T10:54:59.000Z</time>
</trkpt>
<trkpt lat="56.963254" lon="8.399107">
<ele>24.853910</ele>
<time>2026-07-14T10:55:00.000Z</time>
</trkpt>
<trkpt lat="56.963301" lon="8.399142">
<ele>24.830073</ele>
<time>2026-07-14T10:55:01.000Z</time>
</trkpt>
<trkpt lat="56.963350" lon="8.399177">
<ele>24.805362</ele>
<time>2026-07-14T10:55:02.000Z</time>
</trkpt>
<trkpt lat="56.963398" lon="8.399212">
<ele>24.781089</ele>
<time>2026-07-14T10:55:03.000Z</time>
</trkpt>
<trkpt lat="56.963444" lon="8.399247">
<ele>24.757687</ele>
<time>2026-07-14T10:55:04.000Z</time>
</trkpt>
<trkpt lat="56.963494" lon="8.399280">
<ele>24.732716</ele>
<time>2026-07-14T10:55:05.000Z</time>
</trkpt>
<trkpt lat="56.963543" lon="8.399313">
<ele>24.708187</ele>
<time>2026-07-14T10:55:06.000Z</time>
</trkpt>
<trkpt lat="56.963590" lon="8.399347">
<ele>24.684445</ele>
<time>2026-07-14T10:55:07.000Z</time>
</trkpt>
<trkpt lat="56.963640" lon="8.399381">
<ele>24.659386</ele>
<time>2026-07-14T10:55:08.000Z</time>
</trkpt>
<trkpt lat="56.963688" lon="8.399416">
<ele>24.635113</ele>
<time>2026-07-14T10:55:09.000Z</time>
</trkpt>
<trkpt lat="56.963736" lon="8.399452">
<ele>24.610744</ele>
<time>2026-07-14T10:55:10.000Z</time>
</trkpt>
<trkpt lat="56.963785" lon="8.399490">
<ele>24.585744</ele>
<time>2026-07-14T10:55:11.000Z</time>
</trkpt>
<trkpt lat="56.963836" lon="8.399528">
<ele>24.559876</ele>
<time>2026-07-14T10:55:12.000Z</time>
</trkpt>
<trkpt lat="56.963885" lon="8.399567">
<ele>24.534776</ele>
<time>2026-07-14T10:55:13.000Z</time>
</trkpt>
<trkpt lat="56.963931" lon="8.399613">
<ele>24.510155</ele>
<time>2026-07-14T10:55:14.000Z</time>
</trkpt>
<trkpt lat="56.963978" lon="8.399670">
<ele>24.500536</ele>
<time>2026-07-14T10:55:15.000Z</time>
</trkpt>
<trkpt lat="56.964019" lon="8.399732">
<ele>24.492134</ele>
<time>2026-07-14T10:55:16.000Z</time>
</trkpt>
<trkpt lat="56.964057" lon="8.399803">
<ele>24.483558</ele>
<time>2026-07-14T10:55:17.000Z</time>
</trkpt>
<trkpt lat="56.964094" lon="8.399882">
<ele>24.474580</ele>
<time>2026-07-14T10:55:18.000Z</time>
</trkpt>
<trkpt lat="56.964129" lon="8.399961">
<ele>24.465805</ele>
<time>2026-07-14T10:55:19.000Z</time>
</trkpt>
<trkpt lat="56.964162" lon="8.400037">
<ele>24.457430</ele>
<time>2026-07-14T10:55:20.000Z</time>
</trkpt>
<trkpt lat="56.964196" lon="8.400112">
<ele>24.449021</ele>
<time>2026-07-14T10:55:21.000Z</time>
</trkpt>
<trkpt lat="56.964229" lon="8.400191">
<ele>24.440442</ele>
<time>2026-07-14T10:55:22.000Z</time>
</trkpt>
<trkpt lat="56.964261" lon="8.400268">
<ele>24.432096</ele>
<time>2026-07-14T10:55:23.000Z</time>
</trkpt>
<trkpt lat="56.964295" lon="8.400346">
<ele>24.423488</ele>
<time>2026-07-14T10:55:24.000Z</time>
</trkpt>
<trkpt lat="56.964330" lon="8.400424">
<ele>24.414779</ele>
<time>2026-07-14T10:55:25.000Z</time>
</trkpt>
<trkpt lat="56.964364" lon="8.400501">
<ele>24.406238</ele>
<time>2026-07-14T10:55:26.000Z</time>
</trkpt>
<trkpt lat="56.964397" lon="8.400576">
<ele>24.397930</ele>
<time>2026-07-14T10:55:27.000Z</time>
</trkpt>
<trkpt lat="56.964428" lon="8.400646">
<ele>24.390156</ele>
<time>2026-07-14T10:55:28.000Z</time>
</trkpt>
<trkpt lat="56.964466" lon="8.400730">
<ele>24.380747</ele>
<time>2026-07-14T10:55:29.000Z</time>
</trkpt>
<trkpt lat="56.964502" lon="8.400811">
<ele>24.371738</ele>
<time>2026-07-14T10:55:30.000Z</time>
</trkpt>
<trkpt lat="56.964536" lon="8.400889">
<ele>24.363130</ele>
<time>2026-07-14T10:55:31.000Z</time>
</trkpt>
<trkpt lat="56.964570" lon="8.400966">
<ele>24.354588</ele>
<time>2026-07-14T10:55:32.000Z</time>
</trkpt>
<trkpt lat="56.964605" lon="8.401045">
<ele>24.345813</ele>
<time>2026-07-14T10:55:33.000Z</time>
</trkpt>
<trkpt lat="56.964639" lon="8.401123">
<ele>24.337205</ele>
<time>2026-07-14T10:55:34.000Z</time>
</trkpt>
<trkpt lat="56.964673" lon="8.401201">
<ele>24.328596</ele>
<time>2026-07-14T10:55:35.000Z</time>
</trkpt>
<trkpt lat="56.964706" lon="8.401282">
<ele>24.319880</ele>
<time>2026-07-14T10:55:36.000Z</time>
</trkpt>
<trkpt lat="56.964738" lon="8.401364">
<ele>24.311187</ele>
<time>2026-07-14T10:55:37.000Z</time>
</trkpt>
<trkpt lat="56.964772" lon="8.401446">
<ele>24.302306</ele>
<time>2026-07-14T10:55:38.000Z</time>
</trkpt>
<trkpt lat="56.964804" lon="8.401526">
<ele>24.293753</ele>
<time>2026-07-14T10:55:39.000Z</time>
</trkpt>
<trkpt lat="56.964838" lon="8.401605">
<ele>24.285077</ele>
<time>2026-07-14T10:55:40.000Z</time>
</trkpt>
<trkpt lat="56.964871" lon="8.401686">
<ele>24.276361</ele>
<time>2026-07-14T10:55:41.000Z</time>
</trkpt>
<trkpt lat="56.964903" lon="8.401766">
<ele>24.267808</ele>
<time>2026-07-14T10:55:42.000Z</time>
</trkpt>
<trkpt lat="56.964936" lon="8.401847">
<ele>24.259091</ele>
<time>2026-07-14T10:55:43.000Z</time>
</trkpt>
<trkpt lat="56.964968" lon="8.401929">
<ele>24.250399</ele>
<time>2026-07-14T10:55:44.000Z</time>
</trkpt>
<trkpt lat="56.965001" lon="8.402012">
<ele>24.241543</ele>
<time>2026-07-14T10:55:45.000Z</time>
</trkpt>
<trkpt lat="56.965034" lon="8.402096">
<ele>24.232619</ele>
<time>2026-07-14T10:55:46.000Z</time>
</trkpt>
<trkpt lat="56.965066" lon="8.402178">
<ele>24.223424</ele>
<time>2026-07-14T10:55:47.000Z</time>
</trkpt>
<trkpt lat="56.965097" lon="8.402257">
<ele>24.209488</ele>
<time>2026-07-14T10:55:48.000Z</time>
</trkpt>
<trkpt lat="56.965130" lon="8.402340">
<ele>24.194780</ele>
<time>2026-07-14T10:55:49.000Z</time>
</trkpt>
<trkpt lat="56.965161" lon="8.402424">
<ele>24.180257</ele>
<time>2026-07-14T10:55:50.000Z</time>
</trkpt>
<trkpt lat="56.965194" lon="8.402505">
<ele>24.165779</ele>
<time>2026-07-14T10:55:51.000Z</time>
</trkpt>
<trkpt lat="56.965226" lon="8.402586">
<ele>24.151457</ele>
<time>2026-07-14T10:55:52.000Z</time>
</trkpt>
<trkpt lat="56.965257" lon="8.402668">
<ele>24.137171</ele>
<time>2026-07-14T10:55:53.000Z</time>
</trkpt>
<trkpt lat="56.965287" lon="8.402750">
<ele>24.123032</ele>
<time>2026-07-14T10:55:54.000Z</time>
</trkpt>
<trkpt lat="56.965317" lon="8.402833">
<ele>24.108774</ele>
<time>2026-07-14T10:55:55.000Z</time>
</trkpt>
<trkpt lat="56.965348" lon="8.402914">
<ele>24.094605</ele>
<time>2026-07-14T10:55:56.000Z</time>
</trkpt>
<trkpt lat="56.965380" lon="8.402996">
<ele>24.080167</ele>
<time>2026-07-14T10:55:57.000Z</time>
</trkpt>
<trkpt lat="56.965410" lon="8.403076">
<ele>24.066265</ele>
<time>2026-07-14T10:55:58.000Z</time>
</trkpt>
<trkpt lat="56.965440" lon="8.403159">
<ele>24.052007</ele>
<time>2026-07-14T10:55:59.000Z</time>
</trkpt>
<trkpt lat="56.965474" lon="8.403244">
<ele>24.036913</ele>
<time>2026-07-14T10:56:00.000Z</time>
</trkpt>
<trkpt lat="56.965504" lon="8.403327">
<ele>24.022656</ele>
<time>2026-07-14T10:56:01.000Z</time>
</trkpt>
<trkpt lat="56.965535" lon="8.403410">
<ele>24.008251</ele>
<time>2026-07-14T10:56:02.000Z</time>
</trkpt>
<trkpt lat="56.965565" lon="8.403493">
<ele>23.993993</ele>
<time>2026-07-14T10:56:03.000Z</time>
</trkpt>
<trkpt lat="56.965598" lon="8.403575">
<ele>23.979401</ele>
<time>2026-07-14T10:56:04.000Z</time>
</trkpt>
<trkpt lat="56.965630" lon="8.403657">
<ele>23.964963</ele>
<time>2026-07-14T10:56:05.000Z</time>
</trkpt>
<trkpt lat="56.965661" lon="8.403740">
<ele>23.950559</ele>
<time>2026-07-14T10:56:06.000Z</time>
</trkpt>
<trkpt lat="56.965691" lon="8.403824">
<ele>23.936181</ele>
<time>2026-07-14T10:56:07.000Z</time>
</trkpt>
<trkpt lat="56.965724" lon="8.403909">
<ele>23.921241</ele>
<time>2026-07-14T10:56:08.000Z</time>
</trkpt>
<trkpt lat="56.965756" lon="8.403991">
<ele>23.906803</ele>
<time>2026-07-14T10:56:09.000Z</time>
</trkpt>
<trkpt lat="56.965787" lon="8.404073">
<ele>23.892517</ele>
<time>2026-07-14T10:56:10.000Z</time>
</trkpt>
<trkpt lat="56.965817" lon="8.404155">
<ele>23.878378</ele>
<time>2026-07-14T10:56:11.000Z</time>
</trkpt>
<trkpt lat="56.965850" lon="8.404237">
<ele>23.863786</ele>
<time>2026-07-14T10:56:12.000Z</time>
</trkpt>
<trkpt lat="56.965881" lon="8.404314">
<ele>23.850082</ele>
<time>2026-07-14T10:56:13.000Z</time>
</trkpt>
<trkpt lat="56.965913" lon="8.404394">
<ele>23.835876</ele>
<time>2026-07-14T10:56:14.000Z</time>
</trkpt>
<trkpt lat="56.965947" lon="8.404479">
<ele>23.820782</ele>
<time>2026-07-14T10:56:15.000Z</time>
</trkpt>
<trkpt lat="56.965978" lon="8.404561">
<ele>23.806495</ele>
<time>2026-07-14T10:56:16.000Z</time>
</trkpt>
<trkpt lat="56.966010" lon="8.404643">
<ele>23.792057</ele>
<time>2026-07-14T10:56:17.000Z</time>
</trkpt>
<trkpt lat="56.966042" lon="8.404724">
<ele>23.777736</ele>
<time>2026-07-14T10:56:18.000Z</time>
</trkpt>
<trkpt lat="56.966073" lon="8.404807">
<ele>23.763331</ele>
<time>2026-07-14T10:56:19.000Z</time>
</trkpt>
<trkpt lat="56.966105" lon="8.404891">
<ele>23.744994</ele>
<time>2026-07-14T10:56:20.000Z</time>
</trkpt>
<trkpt lat="56.966136" lon="8.404977">
<ele>23.715424</ele>
<time>2026-07-14T10:56:21.000Z</time>
</trkpt>
<trkpt lat="56.966166" lon="8.405060">
<ele>23.686862</ele>
<time>2026-07-14T10:56:22.000Z</time>
</trkpt>
<trkpt lat="56.966199" lon="8.405143">
<ele>23.657398</ele>
<time>2026-07-14T10:56:23.000Z</time>
</trkpt>
<trkpt lat="56.966227" lon="8.405228">
<ele>23.628914</ele>
<time>2026-07-14T10:56:24.000Z</time>
</trkpt>
<trkpt lat="56.966256" lon="8.405312">
<ele>23.600397</ele>
<time>2026-07-14T10:56:25.000Z</time>
</trkpt>
<trkpt lat="56.966286" lon="8.405395">
<ele>23.571834</ele>
<time>2026-07-14T10:56:26.000Z</time>
</trkpt>
<trkpt lat="56.966317" lon="8.405479">
<ele>23.542741</ele>
<time>2026-07-14T10:56:27.000Z</time>
</trkpt>
<trkpt lat="56.966350" lon="8.405561">
<ele>23.513508</ele>
<time>2026-07-14T10:56:28.000Z</time>
</trkpt>
<trkpt lat="56.966384" lon="8.405639">
<ele>23.484865</ele>
<time>2026-07-14T10:56:29.000Z</time>
</trkpt>
<trkpt lat="56.966416" lon="8.405714">
<ele>23.457549</ele>
<time>2026-07-14T10:56:30.000Z</time>
</trkpt>
<trkpt lat="56.966446" lon="8.405790">
<ele>23.430637</ele>
<time>2026-07-14T10:56:31.000Z</time>
</trkpt>
<trkpt lat="56.966477" lon="8.405860">
<ele>23.404771</ele>
<time>2026-07-14T10:56:32.000Z</time>
</trkpt>
<trkpt lat="56.966512" lon="8.405918">
<ele>23.379955</ele>
<time>2026-07-14T10:56:33.000Z</time>
</trkpt>
<trkpt lat="56.966554" lon="8.405957">
<ele>23.355188</ele>
<time>2026-07-14T10:56:34.000Z</time>
</trkpt>
<trkpt lat="56.966601" lon="8.405981">
<ele>23.329520</ele>
<time>2026-07-14T10:56:35.000Z</time>
</trkpt>
<trkpt lat="56.966651" lon="8.406000">
<ele>23.302656</ele>
<time>2026-07-14T10:56:36.000Z</time>
</trkpt>
<trkpt lat="56.966701" lon="8.406026">
<ele>23.275313</ele>
<time>2026-07-14T10:56:37.000Z</time>
</trkpt>
<trkpt lat="56.966748" lon="8.406061">
<ele>23.248625</ele>
<time>2026-07-14T10:56:38.000Z</time>
</trkpt>
<trkpt lat="56.966798" lon="8.406101">
<ele>23.219926</ele>
<time>2026-07-14T10:56:39.000Z</time>
</trkpt>
<trkpt lat="56.966852" lon="8.406143">
<ele>23.189067</ele>
<time>2026-07-14T10:56:40.000Z</time>
</trkpt>
<trkpt lat="56.966903" lon="8.406186">
<ele>23.159537</ele>
<time>2026-07-14T10:56:41.000Z</time>
</trkpt>
<trkpt lat="56.966952" lon="8.406232">
<ele>23.130577</ele>
<time>2026-07-14T10:56:42.000Z</time>
</trkpt>
<trkpt lat="56.966998" lon="8.406280">
<ele>23.102734</ele>
<time>2026-07-14T10:56:43.000Z</time>
</trkpt>
<trkpt lat="56.967040" lon="8.406332">
<ele>23.076075</ele>
<time>2026-07-14T10:56:44.000Z</time>
</trkpt>
<trkpt lat="56.967080" lon="8.406394">
<ele>23.048523</ele>
<time>2026-07-14T10:56:45.000Z</time>
</trkpt>
<trkpt lat="56.967116" lon="8.406467">
<ele>23.020291</ele>
<time>2026-07-14T10:56:46.000Z</time>
</trkpt>
<trkpt lat="56.967146" lon="8.406548">
<ele>22.992205</ele>
<time>2026-07-14T10:56:47.000Z</time>
</trkpt>
<trkpt lat="56.967171" lon="8.406636">
<ele>22.963745</ele>
<time>2026-07-14T10:56:48.000Z</time>
</trkpt>
<trkpt lat="56.967190" lon="8.406727">
<ele>22.935797</ele>
<time>2026-07-14T10:56:49.000Z</time>
</trkpt>
<trkpt lat="56.967205" lon="8.406817">
<ele>22.908806</ele>
<time>2026-07-14T10:56:50.000Z</time>
</trkpt>
<trkpt lat="56.967217" lon="8.406910">
<ele>22.881396</ele>
<time>2026-07-14T10:56:51.000Z</time>
</trkpt>
<trkpt lat="56.967224" lon="8.407003">
<ele>22.854471</ele>
<time>2026-07-14T10:56:52.000Z</time>
</trkpt>
<trkpt lat="56.967230" lon="8.407099">
<ele>22.826757</ele>
<time>2026-07-14T10:56:53.000Z</time>
</trkpt>
<trkpt lat="56.967234" lon="8.407194">
<ele>22.803392</ele>
<time>2026-07-14T10:56:54.000Z</time>
</trkpt>
<trkpt lat="56.967239" lon="8.407286">
<ele>22.792861</ele>
<time>2026-07-14T10:56:55.000Z</time>
</trkpt>
<trkpt lat="56.967251" lon="8.407379">
<ele>22.781975</ele>
<time>2026-07-14T10:56:56.000Z</time>
</trkpt>
<trkpt lat="56.967264" lon="8.407472">
<ele>22.771038</ele>
<time>2026-07-14T10:56:57.000Z</time>
</trkpt>
<trkpt lat="56.967278" lon="8.407563">
<ele>22.760268</ele>
<time>2026-07-14T10:56:58.000Z</time>
</trkpt>
<trkpt lat="56.967295" lon="8.407657">
<ele>22.748987</ele>
<time>2026-07-14T10:56:59.000Z</time>
</trkpt>
<trkpt lat="56.967314" lon="8.407749">
<ele>22.737780</ele>
<time>2026-07-14T10:57:00.000Z</time>
</trkpt>
<trkpt lat="56.967335" lon="8.407841">
<ele>22.726419</ele>
<time>2026-07-14T10:57:01.000Z</time>
</trkpt>
<trkpt lat="56.967360" lon="8.407932">
<ele>22.714811</ele>
<time>2026-07-14T10:57:02.000Z</time>
</trkpt>
<trkpt lat="56.967389" lon="8.408012">
<ele>22.703868</ele>
<time>2026-07-14T10:57:03.000Z</time>
</trkpt>
<trkpt lat="56.967421" lon="8.408086">
<ele>22.693108</ele>
<time>2026-07-14T10:57:04.000Z</time>
</trkpt>
<trkpt lat="56.967456" lon="8.408154">
<ele>22.682455</ele>
<time>2026-07-14T10:57:05.000Z</time>
</trkpt>
<trkpt lat="56.967492" lon="8.408220">
<ele>22.671820</ele>
<time>2026-07-14T10:57:06.000Z</time>
</trkpt>
<trkpt lat="56.967532" lon="8.408287">
<ele>22.660502</ele>
<time>2026-07-14T10:57:07.000Z</time>
</trkpt>
<trkpt lat="56.967572" lon="8.408351">
<ele>22.649411</ele>
<time>2026-07-14T10:57:08.000Z</time>
</trkpt>
<trkpt lat="56.967612" lon="8.408414">
<ele>22.638394</ele>
<time>2026-07-14T10:57:09.000Z</time>
</trkpt>
<trkpt lat="56.967654" lon="8.408476">
<ele>22.627129</ele>
<time>2026-07-14T10:57:10.000Z</time>
</trkpt>
<trkpt lat="56.967696" lon="8.408540">
<ele>22.615720</ele>
<time>2026-07-14T10:57:11.000Z</time>
</trkpt>
<trkpt lat="56.967736" lon="8.408604">
<ele>22.604629</ele>
<time>2026-07-14T10:57:12.000Z</time>
</trkpt>
<trkpt lat="56.967776" lon="8.408668">
<ele>22.593538</ele>
<time>2026-07-14T10:57:13.000Z</time>
</trkpt>
<trkpt lat="56.967816" lon="8.408734">
<ele>22.582296</ele>
<time>2026-07-14T10:57:14.000Z</time>
</trkpt>
<trkpt lat="56.967852" lon="8.408804">
<ele>22.571334</ele>
<time>2026-07-14T10:57:15.000Z</time>
</trkpt>
<trkpt lat="56.967889" lon="8.408878">
<ele>22.559896</ele>
<time>2026-07-14T10:57:16.000Z</time>
</trkpt>
<trkpt lat="56.967925" lon="8.408953">
<ele>22.548513</ele>
<time>2026-07-14T10:57:17.000Z</time>
</trkpt>
<trkpt lat="56.967957" lon="8.409031">
<ele>22.537393</ele>
<time>2026-07-14T10:57:18.000Z</time>
</trkpt>
<trkpt lat="56.967986" lon="8.409111">
<ele>22.526450</ele>
<time>2026-07-14T10:57:19.000Z</time>
</trkpt>
<trkpt lat="56.968014" lon="8.409192">
<ele>22.515525</ele>
<time>2026-07-14T10:57:20.000Z</time>
</trkpt>
<trkpt lat="56.968043" lon="8.409271">
<ele>22.504676</ele>
<time>2026-07-14T10:57:21.000Z</time>
</trkpt>
<trkpt lat="56.968070" lon="8.409352">
<ele>22.493861</ele>
<time>2026-07-14T10:57:22.000Z</time>
</trkpt>
<trkpt lat="56.968092" lon="8.409438">
<ele>22.483040</ele>
<time>2026-07-14T10:57:23.000Z</time>
</trkpt>
<trkpt lat="56.968111" lon="8.409523">
<ele>22.472576</ele>
<time>2026-07-14T10:57:24.000Z</time>
</trkpt>
<trkpt lat="56.968131" lon="8.409605">
<ele>22.462343</ele>
<time>2026-07-14T10:57:25.000Z</time>
</trkpt>
<trkpt lat="56.968150" lon="8.409688">
<ele>22.452089</ele>
<time>2026-07-14T10:57:26.000Z</time>
</trkpt>
<trkpt lat="56.968167" lon="8.409776">
<ele>22.441455</ele>
<time>2026-07-14T10:57:27.000Z</time>
</trkpt>
<trkpt lat="56.968184" lon="8.409868">
<ele>22.430390</ele>
<time>2026-07-14T10:57:28.000Z</time>
</trkpt>
<trkpt lat="56.968201" lon="8.409960">
<ele>22.442346</ele>
<time>2026-07-14T10:57:29.000Z</time>
</trkpt>
<trkpt lat="56.968218" lon="8.410056">
<ele>22.455284</ele>
<time>2026-07-14T10:57:30.000Z</time>
</trkpt>
<trkpt lat="56.968235" lon="8.410155">
<ele>22.468588</ele>
<time>2026-07-14T10:57:31.000Z</time>
</trkpt>
<trkpt lat="56.968250" lon="8.410253">
<ele>22.481636</ele>
<time>2026-07-14T10:57:32.000Z</time>
</trkpt>
<trkpt lat="56.968266" lon="8.410352">
<ele>22.494871</ele>
<time>2026-07-14T10:57:33.000Z</time>
</trkpt>
<trkpt lat="56.968281" lon="8.410451">
<ele>22.508042</ele>
<time>2026-07-14T10:57:34.000Z</time>
</trkpt>
<trkpt lat="56.968294" lon="8.410546">
<ele>22.520597</ele>
<time>2026-07-14T10:57:35.000Z</time>
</trkpt>
<trkpt lat="56.968308" lon="8.410638">
<ele>22.532840</ele>
<time>2026-07-14T10:57:36.000Z</time>
</trkpt>
<trkpt lat="56.968321" lon="8.410730">
<ele>22.545023</ele>
<time>2026-07-14T10:57:37.000Z</time>
</trkpt>
<trkpt lat="56.968334" lon="8.410819">
<ele>22.556833</ele>
<time>2026-07-14T10:57:38.000Z</time>
</trkpt>
<trkpt lat="56.968348" lon="8.410913">
<ele>22.569324</ele>
<time>2026-07-14T10:57:39.000Z</time>
</trkpt>
<trkpt lat="56.968361" lon="8.411010">
<ele>22.582127</ele>
<time>2026-07-14T10:57:40.000Z</time>
</trkpt>
<trkpt lat="56.968375" lon="8.411105">
<ele>22.594741</ele>
<time>2026-07-14T10:57:41.000Z</time>
</trkpt>
<trkpt lat="56.968388" lon="8.411200">
<ele>22.607296</ele>
<time>2026-07-14T10:57:42.000Z</time>
</trkpt>
<trkpt lat="56.968403" lon="8.411293">
<ele>22.619728</ele>
<time>2026-07-14T10:57:43.000Z</time>
</trkpt>
<trkpt lat="56.968418" lon="8.411385">
<ele>22.632036</ele>
<time>2026-07-14T10:57:44.000Z</time>
</trkpt>
<trkpt lat="56.968432" lon="8.411476">
<ele>22.644156</ele>
<time>2026-07-14T10:57:45.000Z</time>
</trkpt>
<trkpt lat="56.968445" lon="8.411565">
<ele>22.655966</ele>
<time>2026-07-14T10:57:46.000Z</time>
</trkpt>
<trkpt lat="56.968458" lon="8.411652">
<ele>22.667529</ele>
<time>2026-07-14T10:57:47.000Z</time>
</trkpt>
<trkpt lat="56.968474" lon="8.411739">
<ele>22.679298</ele>
<time>2026-07-14T10:57:48.000Z</time>
</trkpt>
<trkpt lat="56.968491" lon="8.411824">
<ele>22.690904</ele>
<time>2026-07-14T10:57:49.000Z</time>
</trkpt>
<trkpt lat="56.968506" lon="8.411908">
<ele>22.702234</ele>
<time>2026-07-14T10:57:50.000Z</time>
</trkpt>
<trkpt lat="56.968522" lon="8.411994">
<ele>22.713882</ele>
<time>2026-07-14T10:57:51.000Z</time>
</trkpt>
<trkpt lat="56.968537" lon="8.412082">
<ele>22.725700</ele>
<time>2026-07-14T10:57:52.000Z</time>
</trkpt>
<trkpt lat="56.968552" lon="8.412171">
<ele>22.737641</ele>
<time>2026-07-14T10:57:53.000Z</time>
</trkpt>
<trkpt lat="56.968567" lon="8.412262">
<ele>22.749826</ele>
<time>2026-07-14T10:57:54.000Z</time>
</trkpt>
<trkpt lat="56.968582" lon="8.412350">
<ele>22.761645</ele>
<time>2026-07-14T10:57:55.000Z</time>
</trkpt>
<trkpt lat="56.968600" lon="8.412437">
<ele>22.773572</ele>
<time>2026-07-14T10:57:56.000Z</time>
</trkpt>
<trkpt lat="56.968619" lon="8.412522">
<ele>22.785348</ele>
<time>2026-07-14T10:57:57.000Z</time>
</trkpt>
<trkpt lat="56.968638" lon="8.412608">
<ele>22.797242</ele>
<time>2026-07-14T10:57:58.000Z</time>
</trkpt>
<trkpt lat="56.968655" lon="8.412700">
<ele>22.809694</ele>
<time>2026-07-14T10:57:59.000Z</time>
</trkpt>
<trkpt lat="56.968670" lon="8.412797">
<ele>22.822618</ele>
<time>2026-07-14T10:58:00.000Z</time>
</trkpt>
<trkpt lat="56.968688" lon="8.412897">
<ele>22.836116</ele>
<time>2026-07-14T10:58:01.000Z</time>
</trkpt>
<trkpt lat="56.968705" lon="8.412996">
<ele>22.849420</ele>
<time>2026-07-14T10:58:02.000Z</time>
</trkpt>
<trkpt lat="56.968722" lon="8.413090">
<ele>22.875736</ele>
<time>2026-07-14T10:58:03.000Z</time>
</trkpt>
<trkpt lat="56.968739" lon="8.413184">
<ele>22.907612</ele>
<time>2026-07-14T10:58:04.000Z</time>
</trkpt>
<trkpt lat="56.968754" lon="8.413279">
<ele>22.939446</ele>
<time>2026-07-14T10:58:05.000Z</time>
</trkpt>
<trkpt lat="56.968765" lon="8.413376">
<ele>22.971334</ele>
<time>2026-07-14T10:58:06.000Z</time>
</trkpt>
<trkpt lat="56.968777" lon="8.413478">
<ele>23.004919</ele>
<time>2026-07-14T10:58:07.000Z</time>
</trkpt>
<trkpt lat="56.968792" lon="8.413579">
<ele>23.038612</ele>
<time>2026-07-14T10:58:08.000Z</time>
</trkpt>
<trkpt lat="56.968810" lon="8.413682">
<ele>23.073425</ele>
<time>2026-07-14T10:58:09.000Z</time>
</trkpt>
<trkpt lat="56.968827" lon="8.413786">
<ele>23.108371</ele>
<time>2026-07-14T10:58:10.000Z</time>
</trkpt>
<trkpt lat="56.968844" lon="8.413887">
<ele>23.142393</ele>
<time>2026-07-14T10:58:11.000Z</time>
</trkpt>
<trkpt lat="56.968861" lon="8.413985">
<ele>23.175494</ele>
<time>2026-07-14T10:58:12.000Z</time>
</trkpt>
<trkpt lat="56.968876" lon="8.414080">
<ele>23.207327</ele>
<time>2026-07-14T10:58:13.000Z</time>
</trkpt>
<trkpt lat="56.968894" lon="8.414174">
<ele>23.239394</ele>
<time>2026-07-14T10:58:14.000Z</time>
</trkpt>
<trkpt lat="56.968912" lon="8.414265">
<ele>23.270552</ele>
<time>2026-07-14T10:58:15.000Z</time>
</trkpt>
<trkpt lat="56.968932" lon="8.414356">
<ele>23.302132</ele>
<time>2026-07-14T10:58:16.000Z</time>
</trkpt>
<trkpt lat="56.968953" lon="8.414448">
<ele>23.334234</ele>
<time>2026-07-14T10:58:17.000Z</time>
</trkpt>
<trkpt lat="56.968974" lon="8.414542">
<ele>23.366930</ele>
<time>2026-07-14T10:58:18.000Z</time>
</trkpt>
<trkpt lat="56.968991" lon="8.414637">
<ele>23.399112</ele>
<time>2026-07-14T10:58:19.000Z</time>
</trkpt>
<trkpt lat="56.969006" lon="8.414729">
<ele>23.430019</ele>
<time>2026-07-14T10:58:20.000Z</time>
</trkpt>
<trkpt lat="56.969021" lon="8.414817">
<ele>23.459695</ele>
<time>2026-07-14T10:58:21.000Z</time>
</trkpt>
<trkpt lat="56.969036" lon="8.414900">
<ele>23.487839</ele>
<time>2026-07-14T10:58:22.000Z</time>
</trkpt>
<trkpt lat="56.969050" lon="8.414982">
<ele>23.515495</ele>
<time>2026-07-14T10:58:23.000Z</time>
</trkpt>
<trkpt lat="56.969061" lon="8.415058">
<ele>23.540804</ele>
<time>2026-07-14T10:58:24.000Z</time>
</trkpt>
<trkpt lat="56.969070" lon="8.415130">
<ele>23.564579</ele>
<time>2026-07-14T10:58:25.000Z</time>
</trkpt>
<trkpt lat="56.969080" lon="8.415204">
<ele>23.589117</ele>
<time>2026-07-14T10:58:26.000Z</time>
</trkpt>
<trkpt lat="56.969092" lon="8.415281">
<ele>23.614893</ele>
<time>2026-07-14T10:58:27.000Z</time>
</trkpt>
<trkpt lat="56.969105" lon="8.415361">
<ele>23.641761</ele>
<time>2026-07-14T10:58:28.000Z</time>
</trkpt>
<trkpt lat="56.969120" lon="8.415441">
<ele>23.668990</ele>
<time>2026-07-14T10:58:29.000Z</time>
</trkpt>
<trkpt lat="56.969136" lon="8.415521">
<ele>23.696417</ele>
<time>2026-07-14T10:58:30.000Z</time>
</trkpt>
<trkpt lat="56.969149" lon="8.415605">
<ele>23.724521</ele>
<time>2026-07-14T10:58:31.000Z</time>
</trkpt>
<trkpt lat="56.969162" lon="8.415690">
<ele>23.752935</ele>
<time>2026-07-14T10:58:32.000Z</time>
</trkpt>
<trkpt lat="56.969178" lon="8.415773">
<ele>23.781270</ele>
<time>2026-07-14T10:58:33.000Z</time>
</trkpt>
<trkpt lat="56.969193" lon="8.415859">
<ele>23.810332</ele>
<time>2026-07-14T10:58:34.000Z</time>
</trkpt>
<trkpt lat="56.969208" lon="8.415947">
<ele>23.840008</ele>
<time>2026-07-14T10:58:35.000Z</time>
</trkpt>
<trkpt lat="56.969223" lon="8.416030">
<ele>23.868152</ele>
<time>2026-07-14T10:58:36.000Z</time>
</trkpt>
<trkpt lat="56.969237" lon="8.416111">
<ele>23.895501</ele>
<time>2026-07-14T10:58:37.000Z</time>
</trkpt>
<trkpt lat="56.969252" lon="8.416185">
<ele>23.923723</ele>
<time>2026-07-14T10:58:38.000Z</time>
</trkpt>
<trkpt lat="56.969269" lon="8.416261">
<ele>23.963011</ele>
<time>2026-07-14T10:58:39.000Z</time>
</trkpt>
<trkpt lat="56.969282" lon="8.416346">
<ele>24.005233</ele>
<time>2026-07-14T10:58:40.000Z</time>
</trkpt>
<trkpt lat="56.969296" lon="8.416431">
<ele>24.047700</ele>
<time>2026-07-14T10:58:41.000Z</time>
</trkpt>
<trkpt lat="56.969311" lon="8.416509">
<ele>24.087257</ele>
<time>2026-07-14T10:58:42.000Z</time>
</trkpt>
<trkpt lat="56.969324" lon="8.416585">
<ele>24.125352</ele>
<time>2026-07-14T10:58:43.000Z</time>
</trkpt>
<trkpt lat="56.969338" lon="8.416662">
<ele>24.164172</ele>
<time>2026-07-14T10:58:44.000Z</time>
</trkpt>
<trkpt lat="56.969353" lon="8.416740">
<ele>24.203729</ele>
<time>2026-07-14T10:58:45.000Z</time>
</trkpt>
<trkpt lat="56.969366" lon="8.416826">
<ele>24.246411</ele>
<time>2026-07-14T10:58:46.000Z</time>
</trkpt>
<trkpt lat="56.969378" lon="8.416910">
<ele>24.287941</ele>
<time>2026-07-14T10:58:47.000Z</time>
</trkpt>
<trkpt lat="56.969391" lon="8.416988">
<ele>24.326950</ele>
<time>2026-07-14T10:58:48.000Z</time>
</trkpt>
<trkpt lat="56.969409" lon="8.417066">
<ele>24.367459</ele>
<time>2026-07-14T10:58:49.000Z</time>
</trkpt>
<trkpt lat="56.969426" lon="8.417147">
<ele>24.408970</ele>
<time>2026-07-14T10:58:50.000Z</time>
</trkpt>
<trkpt lat="56.969441" lon="8.417240">
<ele>24.455353</ele>
<time>2026-07-14T10:58:51.000Z</time>
</trkpt>
<trkpt lat="56.969456" lon="8.417333">
<ele>24.501737</ele>
<time>2026-07-14T10:58:52.000Z</time>
</trkpt>
<trkpt lat="56.969469" lon="8.417418">
<ele>24.543958</ele>
<time>2026-07-14T10:58:53.000Z</time>
</trkpt>
<trkpt lat="56.969483" lon="8.417500">
<ele>24.585054</ele>
<time>2026-07-14T10:58:54.000Z</time>
</trkpt>
<trkpt lat="56.969496" lon="8.417575">
<ele>24.622693</ele>
<time>2026-07-14T10:58:55.000Z</time>
</trkpt>
<trkpt lat="56.969509" lon="8.417647">
<ele>24.658967</ele>
<time>2026-07-14T10:58:56.000Z</time>
</trkpt>
<trkpt lat="56.969523" lon="8.417722">
<ele>24.696880</ele>
<time>2026-07-14T10:58:57.000Z</time>
</trkpt>
<trkpt lat="56.969538" lon="8.417804">
<ele>24.738246</ele>
<time>2026-07-14T10:58:58.000Z</time>
</trkpt>
<trkpt lat="56.969553" lon="8.417895">
<ele>24.783714</ele>
<time>2026-07-14T10:58:59.000Z</time>
</trkpt>
<trkpt lat="56.969567" lon="8.417990">
<ele>24.830779</ele>
<time>2026-07-14T10:59:00.000Z</time>
</trkpt>
<trkpt lat="56.969578" lon="8.418088">
<ele>24.878631</ele>
<time>2026-07-14T10:59:01.000Z</time>
</trkpt>
<trkpt lat="56.969588" lon="8.418189">
<ele>24.927724</ele>
<time>2026-07-14T10:59:02.000Z</time>
</trkpt>
<trkpt lat="56.969593" lon="8.418287">
<ele>24.974798</ele>
<time>2026-07-14T10:59:03.000Z</time>
</trkpt>
<trkpt lat="56.969589" lon="8.418382">
<ele>25.020367</ele>
<time>2026-07-14T10:59:04.000Z</time>
</trkpt>
<trkpt lat="56.969581" lon="8.418474">
<ele>25.064922</ele>
<time>2026-07-14T10:59:05.000Z</time>
</trkpt>
<trkpt lat="56.969574" lon="8.418564">
<ele>25.108401</ele>
<time>2026-07-14T10:59:06.000Z</time>
</trkpt>
<trkpt lat="56.969564" lon="8.418653">
<ele>25.151860</ele>
<time>2026-07-14T10:59:07.000Z</time>
</trkpt>
<trkpt lat="56.969553" lon="8.418741">
<ele>25.195038</ele>
<time>2026-07-14T10:59:08.000Z</time>
</trkpt>
<trkpt lat="56.969541" lon="8.418831">
<ele>25.239350</ele>
<time>2026-07-14T10:59:09.000Z</time>
</trkpt>
<trkpt lat="56.969530" lon="8.418925">
<ele>25.285330</ele>
<time>2026-07-14T10:59:10.000Z</time>
</trkpt>
<trkpt lat="56.969518" lon="8.419017">
<ele>25.330571</ele>
<time>2026-07-14T10:59:11.000Z</time>
</trkpt>
<trkpt lat="56.969507" lon="8.419106">
<ele>25.374216</ele>
<time>2026-07-14T10:59:12.000Z</time>
</trkpt>
<trkpt lat="56.969498" lon="8.419194">
<ele>25.417036</ele>
<time>2026-07-14T10:59:13.000Z</time>
</trkpt>
<trkpt lat="56.969488" lon="8.419284">
<ele>25.460964</ele>
<time>2026-07-14T10:59:14.000Z</time>
</trkpt>
<trkpt lat="56.969476" lon="8.419378">
<ele>25.508553</ele>
<time>2026-07-14T10:59:15.000Z</time>
</trkpt>
<trkpt lat="56.969465" lon="8.419468">
<ele>25.557159</ele>
<time>2026-07-14T10:59:16.000Z</time>
</trkpt>
<trkpt lat="56.969454" lon="8.419557">
<ele>25.605251</ele>
<time>2026-07-14T10:59:17.000Z</time>
</trkpt>
<trkpt lat="56.969442" lon="8.419643">
<ele>25.652033</ele>
<time>2026-07-14T10:59:18.000Z</time>
</trkpt>
<trkpt lat="56.969433" lon="8.419725">
<ele>25.696113</ele>
<time>2026-07-14T10:59:19.000Z</time>
</trkpt>
<trkpt lat="56.969423" lon="8.419805">
<ele>25.739366</ele>
<time>2026-07-14T10:59:20.000Z</time>
</trkpt>
<trkpt lat="56.969414" lon="8.419888">
<ele>25.783963</ele>
<time>2026-07-14T10:59:21.000Z</time>
</trkpt>
<trkpt lat="56.969404" lon="8.419970">
<ele>25.828244</ele>
<time>2026-07-14T10:59:22.000Z</time>
</trkpt>
<trkpt lat="56.969393" lon="8.420049">
<ele>25.871213</ele>
<time>2026-07-14T10:59:23.000Z</time>
</trkpt>
<trkpt lat="56.969383" lon="8.420125">
<ele>25.912414</ele>
<time>2026-07-14T10:59:24.000Z</time>
</trkpt>
<trkpt lat="56.969375" lon="8.420199">
<ele>25.952170</ele>
<time>2026-07-14T10:59:25.000Z</time>
</trkpt>
<trkpt lat="56.969370" lon="8.420279">
<ele>25.994605</ele>
<time>2026-07-14T10:59:26.000Z</time>
</trkpt>
<trkpt lat="56.969366" lon="8.420365">
<ele>26.040091</ele>
<time>2026-07-14T10:59:27.000Z</time>
</trkpt>
<trkpt lat="56.969364" lon="8.420449">
<ele>26.084400</ele>
<time>2026-07-14T10:59:28.000Z</time>
</trkpt>
<trkpt lat="56.969366" lon="8.420536">
<ele>26.130288</ele>
<time>2026-07-14T10:59:29.000Z</time>
</trkpt>
<trkpt lat="56.969374" lon="8.420623">
<ele>26.176784</ele>
<time>2026-07-14T10:59:30.000Z</time>
</trkpt>
<trkpt lat="56.969387" lon="8.420705">
<ele>26.221787</ele>
<time>2026-07-14T10:59:31.000Z</time>
</trkpt>
<trkpt lat="56.969405" lon="8.420787">
<ele>26.268372</ele>
<time>2026-07-14T10:59:32.000Z</time>
</trkpt>
<trkpt lat="56.969426" lon="8.420863">
<ele>26.313275</ele>
<time>2026-07-14T10:59:33.000Z</time>
</trkpt>
<trkpt lat="56.969451" lon="8.420937">
<ele>26.359155</ele>
<time>2026-07-14T10:59:34.000Z</time>
</trkpt>
<trkpt lat="56.969477" lon="8.421009">
<ele>26.404668</ele>
<time>2026-07-14T10:59:35.000Z</time>
</trkpt>
<trkpt lat="56.969502" lon="8.421082">
<ele>26.450101</ele>
<time>2026-07-14T10:59:36.000Z</time>
</trkpt>
<trkpt lat="56.969527" lon="8.421155">
<ele>26.495533</ele>
<time>2026-07-14T10:59:37.000Z</time>
</trkpt>
<trkpt lat="56.969556" lon="8.421219">
<ele>26.539392</ele>
<time>2026-07-14T10:59:38.000Z</time>
</trkpt>
<trkpt lat="56.969582" lon="8.421274">
<ele>26.577757</ele>
<time>2026-07-14T10:59:39.000Z</time>
</trkpt>
<trkpt lat="56.969602" lon="8.421325">
<ele>26.610866</ele>
<time>2026-07-14T10:59:40.000Z</time>
</trkpt>
<trkpt lat="56.969627" lon="8.421381">
<ele>26.649012</ele>
<time>2026-07-14T10:59:41.000Z</time>
</trkpt>
<trkpt lat="56.969657" lon="8.421442">
<ele>26.692308</ele>
<time>2026-07-14T10:59:42.000Z</time>
</trkpt>
<trkpt lat="56.969683" lon="8.421502">
<ele>26.732701</ele>
<time>2026-07-14T10:59:43.000Z</time>
</trkpt>
<trkpt lat="56.969710" lon="8.421559">
<ele>26.772496</ele>
<time>2026-07-14T10:59:44.000Z</time>
</trkpt>
<trkpt lat="56.969739" lon="8.421614">
<ele>26.812821</ele>
<time>2026-07-14T10:59:45.000Z</time>
</trkpt>
<trkpt lat="56.969767" lon="8.421667">
<ele>26.851717</ele>
<time>2026-07-14T10:59:46.000Z</time>
</trkpt>
<trkpt lat="56.969794" lon="8.421719">
<ele>26.889563</ele>
<time>2026-07-14T10:59:47.000Z</time>
</trkpt>
<trkpt lat="56.969819" lon="8.421769">
<ele>26.925318</ele>
<time>2026-07-14T10:59:48.000Z</time>
</trkpt>
<trkpt lat="56.969842" lon="8.421816">
<ele>26.958603</ele>
<time>2026-07-14T10:59:49.000Z</time>
</trkpt>
<trkpt lat="56.969868" lon="8.421864">
<ele>26.994264</ele>
<time>2026-07-14T10:59:50.000Z</time>
</trkpt>
<trkpt lat="56.969897" lon="8.421913">
<ele>27.032380</ele>
<time>2026-07-14T10:59:51.000Z</time>
</trkpt>
<trkpt lat="56.969926" lon="8.421962">
<ele>27.070496</ele>
<time>2026-07-14T10:59:52.000Z</time>
</trkpt>
<trkpt lat="56.969956" lon="8.422009">
<ele>27.108636</ele>
<time>2026-07-14T10:59:53.000Z</time>
</trkpt>
<trkpt lat="56.969988" lon="8.422056">
<ele>27.148267</ele>
<time>2026-07-14T10:59:54.000Z</time>
</trkpt>
<trkpt lat="56.970021" lon="8.422105">
<ele>27.189311</ele>
<time>2026-07-14T10:59:55.000Z</time>
</trkpt>
<trkpt lat="56.970054" lon="8.422157">
<ele>27.231368</ele>
<time>2026-07-14T10:59:56.000Z</time>
</trkpt>
<trkpt lat="56.970086" lon="8.422210">
<ele>27.199452</ele>
<time>2026-07-14T10:59:57.000Z</time>
</trkpt>
<trkpt lat="56.970120" lon="8.422263">
<ele>27.164976</ele>
<time>2026-07-14T10:59:58.000Z</time>
</trkpt>
<trkpt lat="56.970157" lon="8.422316">
<ele>27.128701</ele>
<time>2026-07-14T10:59:59.000Z</time>
</trkpt>
<trkpt lat="56.970193" lon="8.422369">
<ele>27.093032</ele>
<time>2026-07-14T11:00:00.000Z</time>
</trkpt>
<trkpt lat="56.970233" lon="8.422421">
<ele>27.055149</ele>
<time>2026-07-14T11:00:01.000Z</time>
</trkpt>
<trkpt lat="56.970275" lon="8.422474">
<ele>27.015757</ele>
<time>2026-07-14T11:00:02.000Z</time>
</trkpt>
<trkpt lat="56.970315" lon="8.422532">
<ele>26.976359</ele>
<time>2026-07-14T11:00:03.000Z</time>
</trkpt>
<trkpt lat="56.970357" lon="8.422595">
<ele>26.934436</ele>
<time>2026-07-14T11:00:04.000Z</time>
</trkpt>
<trkpt lat="56.970401" lon="8.422656">
<ele>26.891819</ele>
<time>2026-07-14T11:00:05.000Z</time>
</trkpt>
<trkpt lat="56.970445" lon="8.422716">
<ele>26.849454</ele>
<time>2026-07-14T11:00:06.000Z</time>
</trkpt>
<trkpt lat="56.970489" lon="8.422774">
<ele>26.807587</ele>
<time>2026-07-14T11:00:07.000Z</time>
</trkpt>
<trkpt lat="56.970531" lon="8.422832">
<ele>26.766965</ele>
<time>2026-07-14T11:00:08.000Z</time>
</trkpt>
<trkpt lat="56.970572" lon="8.422886">
<ele>26.727963</ele>
<time>2026-07-14T11:00:09.000Z</time>
</trkpt>
<trkpt lat="56.970614" lon="8.422938">
<ele>26.688809</ele>
<time>2026-07-14T11:00:10.000Z</time>
</trkpt>
<trkpt lat="56.970654" lon="8.422990">
<ele>26.650926</ele>
<time>2026-07-14T11:00:11.000Z</time>
</trkpt>
<trkpt lat="56.970692" lon="8.423042">
<ele>26.614292</ele>
<time>2026-07-14T11:00:12.000Z</time>
</trkpt>
<trkpt lat="56.970729" lon="8.423091">
<ele>26.579030</ele>
<time>2026-07-14T11:00:13.000Z</time>
</trkpt>
<trkpt lat="56.970765" lon="8.423137">
<ele>26.545129</ele>
<time>2026-07-14T11:00:14.000Z</time>
</trkpt>
<trkpt lat="56.970803" lon="8.423182">
<ele>26.510178</ele>
<time>2026-07-14T11:00:15.000Z</time>
</trkpt>
<trkpt lat="56.970841" lon="8.423229">
<ele>26.474764</ele>
<time>2026-07-14T11:00:16.000Z</time>
</trkpt>
<trkpt lat="56.970879" lon="8.423277">
<ele>26.439113</ele>
<time>2026-07-14T11:00:17.000Z</time>
</trkpt>
<trkpt lat="56.970917" lon="8.423326">
<ele>26.403221</ele>
<time>2026-07-14T11:00:18.000Z</time>
</trkpt>
<trkpt lat="56.970956" lon="8.423380">
<ele>26.365464</ele>
<time>2026-07-14T11:00:19.000Z</time>
</trkpt>
<trkpt lat="56.970992" lon="8.423437">
<ele>26.328718</ele>
<time>2026-07-14T11:00:20.000Z</time>
</trkpt>
<trkpt lat="56.971028" lon="8.423498">
<ele>26.290849</ele>
<time>2026-07-14T11:00:21.000Z</time>
</trkpt>
<trkpt lat="56.971062" lon="8.423564">
<ele>26.252599</ele>
<time>2026-07-14T11:00:22.000Z</time>
</trkpt>
<trkpt lat="56.971093" lon="8.423634">
<ele>26.214611</ele>
<time>2026-07-14T11:00:23.000Z</time>
</trkpt>
<trkpt lat="56.971121" lon="8.423709">
<ele>26.176321</ele>
<time>2026-07-14T11:00:24.000Z</time>
</trkpt>
<trkpt lat="56.971148" lon="8.423789">
<ele>26.136689</ele>
<time>2026-07-14T11:00:25.000Z</time>
</trkpt>
<trkpt lat="56.971175" lon="8.423874">
<ele>26.095252</ele>
<time>2026-07-14T11:00:26.000Z</time>
</trkpt>
<trkpt lat="56.971199" lon="8.423962">
<ele>26.053805</ele>
<time>2026-07-14T11:00:27.000Z</time>
</trkpt>
<trkpt lat="56.971224" lon="8.424048">
<ele>26.012753</ele>
<time>2026-07-14T11:00:28.000Z</time>
</trkpt>
<trkpt lat="56.971249" lon="8.424135">
<ele>25.971329</ele>
<time>2026-07-14T11:00:29.000Z</time>
</trkpt>
<trkpt lat="56.971272" lon="8.424223">
<ele>25.930223</ele>
<time>2026-07-14T11:00:30.000Z</time>
</trkpt>
<trkpt lat="56.971295" lon="8.424312">
<ele>25.888736</ele>
<time>2026-07-14T11:00:31.000Z</time>
</trkpt>
<trkpt lat="56.971320" lon="8.424402">
<ele>25.846190</ele>
<time>2026-07-14T11:00:32.000Z</time>
</trkpt>
<trkpt lat="56.971345" lon="8.424492">
<ele>25.834682</ele>
<time>2026-07-14T11:00:33.000Z</time>
</trkpt>
<trkpt lat="56.971369" lon="8.424580">
<ele>25.826560</ele>
<time>2026-07-14T11:00:34.000Z</time>
</trkpt>
<trkpt lat="56.971396" lon="8.424664">
<ele>25.818511</ele>
<time>2026-07-14T11:00:35.000Z</time>
</trkpt>
<trkpt lat="56.971425" lon="8.424746">
<ele>25.810443</ele>
<time>2026-07-14T11:00:36.000Z</time>
</trkpt>
<trkpt lat="56.971455" lon="8.424823">
<ele>25.802630</ele>
<time>2026-07-14T11:00:37.000Z</time>
</trkpt>
<trkpt lat="56.971488" lon="8.424893">
<ele>25.794991</ele>
<time>2026-07-14T11:00:38.000Z</time>
</trkpt>
<trkpt lat="56.971524" lon="8.424957">
<ele>25.787400</ele>
<time>2026-07-14T11:00:39.000Z</time>
</trkpt>
<trkpt lat="56.971562" lon="8.425016">
<ele>25.779862</ele>
<time>2026-07-14T11:00:40.000Z</time>
</trkpt>
<trkpt lat="56.971600" lon="8.425073">
<ele>25.772429</ele>
<time>2026-07-14T11:00:41.000Z</time>
</trkpt>
<trkpt lat="56.971639" lon="8.425129">
<ele>25.764929</ele>
<time>2026-07-14T11:00:42.000Z</time>
</trkpt>
<trkpt lat="56.971677" lon="8.425184">
<ele>25.757600</ele>
<time>2026-07-14T11:00:43.000Z</time>
</trkpt>
<trkpt lat="56.971715" lon="8.425238">
<ele>25.750321</ele>
<time>2026-07-14T11:00:44.000Z</time>
</trkpt>
<trkpt lat="56.971755" lon="8.425291">
<ele>25.742850</ele>
<time>2026-07-14T11:00:45.000Z</time>
</trkpt>
<trkpt lat="56.971797" lon="8.425346">
<ele>25.735035</ele>
<time>2026-07-14T11:00:46.000Z</time>
</trkpt>
<trkpt lat="56.971839" lon="8.425402">
<ele>25.727173</ele>
<time>2026-07-14T11:00:47.000Z</time>
</trkpt>
<trkpt lat="56.971879" lon="8.425459">
<ele>25.719503</ele>
<time>2026-07-14T11:00:48.000Z</time>
</trkpt>
<trkpt lat="56.971919" lon="8.425517">
<ele>25.711783</ele>
<time>2026-07-14T11:00:49.000Z</time>
</trkpt>
<trkpt lat="56.971961" lon="8.425573">
<ele>25.703921</ele>
<time>2026-07-14T11:00:50.000Z</time>
</trkpt>
<trkpt lat="56.972003" lon="8.425629">
<ele>25.696058</ele>
<time>2026-07-14T11:00:51.000Z</time>
</trkpt>
<trkpt lat="56.972045" lon="8.425683">
<ele>25.688292</ele>
<time>2026-07-14T11:00:52.000Z</time>
</trkpt>
<trkpt lat="56.972086" lon="8.425736">
<ele>25.680697</ele>
<time>2026-07-14T11:00:53.000Z</time>
</trkpt>
<trkpt lat="56.972130" lon="8.425788">
<ele>25.672771</ele>
<time>2026-07-14T11:00:54.000Z</time>
</trkpt>
<trkpt lat="56.972174" lon="8.425841">
<ele>25.664801</ele>
<time>2026-07-14T11:00:55.000Z</time>
</trkpt>
<trkpt lat="56.972219" lon="8.425896">
<ele>25.656612</ele>
<time>2026-07-14T11:00:56.000Z</time>
</trkpt>
<trkpt lat="56.972262" lon="8.425949">
<ele>25.648768</ele>
<time>2026-07-14T11:00:57.000Z</time>
</trkpt>
<trkpt lat="56.972306" lon="8.426003">
<ele>25.640752</ele>
<time>2026-07-14T11:00:58.000Z</time>
</trkpt>
<trkpt lat="56.972352" lon="8.426057">
<ele>25.632482</ele>
<time>2026-07-14T11:00:59.000Z</time>
</trkpt>
<trkpt lat="56.972398" lon="8.426112">
<ele>25.624167</ele>
<time>2026-07-14T11:01:00.000Z</time>
</trkpt>
<trkpt lat="56.972444" lon="8.426165">
<ele>25.615942</ele>
<time>2026-07-14T11:01:01.000Z</time>
</trkpt>
<trkpt lat="56.972491" lon="8.426217">
<ele>25.607631</ele>
<time>2026-07-14T11:01:02.000Z</time>
</trkpt>
<trkpt lat="56.972539" lon="8.426270">
<ele>25.599147</ele>
<time>2026-07-14T11:01:03.000Z</time>
</trkpt>
<trkpt lat="56.972585" lon="8.426322">
<ele>25.590965</ele>
<time>2026-07-14T11:01:04.000Z</time>
</trkpt>
<trkpt lat="56.972631" lon="8.426373">
<ele>25.582826</ele>
<time>2026-07-14T11:01:05.000Z</time>
</trkpt>
<trkpt lat="56.972676" lon="8.426423">
<ele>25.574860</ele>
<time>2026-07-14T11:01:06.000Z</time>
</trkpt>
<trkpt lat="56.972722" lon="8.426475">
<ele>25.565850</ele>
<time>2026-07-14T11:01:07.000Z</time>
</trkpt>
<trkpt lat="56.972768" lon="8.426526">
<ele>25.555604</ele>
<time>2026-07-14T11:01:08.000Z</time>
</trkpt>
<trkpt lat="56.972815" lon="8.426576">
<ele>25.545247</ele>
<time>2026-07-14T11:01:09.000Z</time>
</trkpt>
<trkpt lat="56.972865" lon="8.426625">
<ele>25.534441</ele>
<time>2026-07-14T11:01:10.000Z</time>
</trkpt>
<trkpt lat="56.972915" lon="8.426673">
<ele>25.523683</ele>
<time>2026-07-14T11:01:11.000Z</time>
</trkpt>
<trkpt lat="56.972962" lon="8.426722">
<ele>25.513377</ele>
<time>2026-07-14T11:01:12.000Z</time>
</trkpt>
<trkpt lat="56.973010" lon="8.426771">
<ele>25.502906</ele>
<time>2026-07-14T11:01:13.000Z</time>
</trkpt>
<trkpt lat="56.973060" lon="8.426821">
<ele>25.492050</ele>
<time>2026-07-14T11:01:14.000Z</time>
</trkpt>
<trkpt lat="56.973107" lon="8.426869">
<ele>25.481796</ele>
<time>2026-07-14T11:01:15.000Z</time>
</trkpt>
<trkpt lat="56.973155" lon="8.426917">
<ele>25.471374</ele>
<time>2026-07-14T11:01:16.000Z</time>
</trkpt>
<trkpt lat="56.973205" lon="8.426965">
<ele>25.460616</ele>
<time>2026-07-14T11:01:17.000Z</time>
</trkpt>
<trkpt lat="56.973254" lon="8.427013">
<ele>25.450027</ele>
<time>2026-07-14T11:01:18.000Z</time>
</trkpt>
<trkpt lat="56.973302" lon="8.427058">
<ele>25.439751</ele>
<time>2026-07-14T11:01:19.000Z</time>
</trkpt>
<trkpt lat="56.973350" lon="8.427102">
<ele>25.429522</ele>
<time>2026-07-14T11:01:20.000Z</time>
</trkpt>
<trkpt lat="56.973397" lon="8.427143">
<ele>25.419601</ele>
<time>2026-07-14T11:01:21.000Z</time>
</trkpt>
<trkpt lat="56.973445" lon="8.427186">
<ele>25.409418</ele>
<time>2026-07-14T11:01:22.000Z</time>
</trkpt>
<trkpt lat="56.973494" lon="8.427231">
<ele>25.398972</ele>
<time>2026-07-14T11:01:23.000Z</time>
</trkpt>
<trkpt lat="56.973544" lon="8.427277">
<ele>25.388309</ele>
<time>2026-07-14T11:01:24.000Z</time>
</trkpt>
<trkpt lat="56.973594" lon="8.427320">
<ele>25.377782</ele>
<time>2026-07-14T11:01:25.000Z</time>
</trkpt>
<trkpt lat="56.973643" lon="8.427362">
<ele>25.367472</ele>
<time>2026-07-14T11:01:26.000Z</time>
</trkpt>
<trkpt lat="56.973693" lon="8.427403">
<ele>25.357031</ele>
<time>2026-07-14T11:01:27.000Z</time>
</trkpt>
<trkpt lat="56.973745" lon="8.427444">
<ele>25.346241</ele>
<time>2026-07-14T11:01:28.000Z</time>
</trkpt>
<trkpt lat="56.973796" lon="8.427484">
<ele>25.335668</ele>
<time>2026-07-14T11:01:29.000Z</time>
</trkpt>
<trkpt lat="56.973845" lon="8.427524">
<ele>25.325444</ele>
<time>2026-07-14T11:01:30.000Z</time>
</trkpt>
<trkpt lat="56.973895" lon="8.427564">
<ele>25.315045</ele>
<time>2026-07-14T11:01:31.000Z</time>
</trkpt>
<trkpt lat="56.973945" lon="8.427605">
<ele>25.304605</ele>
<time>2026-07-14T11:01:32.000Z</time>
</trkpt>
<trkpt lat="56.973994" lon="8.427645">
<ele>25.294381</ele>
<time>2026-07-14T11:01:33.000Z</time>
</trkpt>
<trkpt lat="56.974046" lon="8.427684">
<ele>25.283671</ele>
<time>2026-07-14T11:01:34.000Z</time>
</trkpt>
<trkpt lat="56.974097" lon="8.427722">
<ele>25.273178</ele>
<time>2026-07-14T11:01:35.000Z</time>
</trkpt>
<trkpt lat="56.974147" lon="8.427759">
<ele>25.262900</ele>
<time>2026-07-14T11:01:36.000Z</time>
</trkpt>
<trkpt lat="56.974197" lon="8.427797">
<ele>25.252583</ele>
<time>2026-07-14T11:01:37.000Z</time>
</trkpt>
<trkpt lat="56.974246" lon="8.427833">
<ele>25.242520</ele>
<time>2026-07-14T11:01:38.000Z</time>
</trkpt>
<trkpt lat="56.974298" lon="8.427867">
<ele>25.231997</ele>
<time>2026-07-14T11:01:39.000Z</time>
</trkpt>
<trkpt lat="56.974351" lon="8.427900">
<ele>25.237871</ele>
<time>2026-07-14T11:01:40.000Z</time>
</trkpt>
<trkpt lat="56.974405" lon="8.427932">
<ele>25.258678</ele>
<time>2026-07-14T11:01:41.000Z</time>
</trkpt>
<trkpt lat="56.974456" lon="8.427961">
<ele>25.278256</ele>
<time>2026-07-14T11:01:42.000Z</time>
</trkpt>
<trkpt lat="56.974507" lon="8.427987">
<ele>25.297664</ele>
<time>2026-07-14T11:01:43.000Z</time>
</trkpt>
<trkpt lat="56.974560" lon="8.428006">
<ele>25.317465</ele>
<time>2026-07-14T11:01:44.000Z</time>
</trkpt>
<trkpt lat="56.974612" lon="8.428019">
<ele>25.336708</ele>
<time>2026-07-14T11:01:45.000Z</time>
</trkpt>
<trkpt lat="56.974664" lon="8.428024">
<ele>25.355801</ele>
<time>2026-07-14T11:01:46.000Z</time>
</trkpt>
<trkpt lat="56.974715" lon="8.428022">
<ele>25.374505</ele>
<time>2026-07-14T11:01:47.000Z</time>
</trkpt>
<trkpt lat="56.974763" lon="8.428011">
<ele>25.392242</ele>
<time>2026-07-14T11:01:48.000Z</time>
</trkpt>
<trkpt lat="56.974808" lon="8.427992">
<ele>25.409173</ele>
<time>2026-07-14T11:01:49.000Z</time>
</trkpt>
<trkpt lat="56.974852" lon="8.427970">
<ele>25.425895</ele>
<time>2026-07-14T11:01:50.000Z</time>
</trkpt>
<trkpt lat="56.974894" lon="8.427946">
<ele>25.442024</ele>
<time>2026-07-14T11:01:51.000Z</time>
</trkpt>
<trkpt lat="56.974936" lon="8.427923">
<ele>25.458096</ele>
<time>2026-07-14T11:01:52.000Z</time>
</trkpt>
<trkpt lat="56.974978" lon="8.427902">
<ele>25.474057</ele>
<time>2026-07-14T11:01:53.000Z</time>
</trkpt>
<trkpt lat="56.975018" lon="8.427882">
<ele>25.489259</ele>
<time>2026-07-14T11:01:54.000Z</time>
</trkpt>
<trkpt lat="56.975058" lon="8.427864">
<ele>25.504360</ele>
<time>2026-07-14T11:01:55.000Z</time>
</trkpt>
<trkpt lat="56.975098" lon="8.427846">
<ele>25.519462</ele>
<time>2026-07-14T11:01:56.000Z</time>
</trkpt>
<trkpt lat="56.975136" lon="8.427833">
<ele>25.533635</ele>
<time>2026-07-14T11:01:57.000Z</time>
</trkpt>
<trkpt lat="56.975174" lon="8.427825">
<ele>25.547660</ele>
<time>2026-07-14T11:01:58.000Z</time>
</trkpt>
<trkpt lat="56.975213" lon="8.427820">
<ele>25.561995</ele>
<time>2026-07-14T11:01:59.000Z</time>
</trkpt>
<trkpt lat="56.975251" lon="8.427820">
<ele>25.575928</ele>
<time>2026-07-14T11:02:00.000Z</time>
</trkpt>
<trkpt lat="56.975287" lon="8.427826">
<ele>25.589183</ele>
<time>2026-07-14T11:02:01.000Z</time>
</trkpt>
<trkpt lat="56.975323" lon="8.427833">
<ele>25.602457</ele>
<time>2026-07-14T11:02:02.000Z</time>
</trkpt>
<trkpt lat="56.975362" lon="8.427841">
<ele>25.616846</ele>
<time>2026-07-14T11:02:03.000Z</time>
</trkpt>
<trkpt lat="56.975402" lon="8.427849">
<ele>25.631599</ele>
<time>2026-07-14T11:02:04.000Z</time>
</trkpt>
<trkpt lat="56.975441" lon="8.427857">
<ele>25.645989</ele>
<time>2026-07-14T11:02:05.000Z</time>
</trkpt>
<trkpt lat="56.975481" lon="8.427866">
<ele>25.660765</ele>
<time>2026-07-14T11:02:06.000Z</time>
</trkpt>
<trkpt lat="56.975522" lon="8.427876">
<ele>25.675931</ele>
<time>2026-07-14T11:02:07.000Z</time>
</trkpt>
<trkpt lat="56.975562" lon="8.427888">
<ele>25.690792</ele>
<time>2026-07-14T11:02:08.000Z</time>
</trkpt>
<trkpt lat="56.975606" lon="8.427902">
<ele>25.707166</ele>
<time>2026-07-14T11:02:09.000Z</time>
</trkpt>
<trkpt lat="56.975649" lon="8.427917">
<ele>25.723216</ele>
<time>2026-07-14T11:02:10.000Z</time>
</trkpt>
<trkpt lat="56.975691" lon="8.427937">
<ele>25.739126</ele>
<time>2026-07-14T11:02:11.000Z</time>
</trkpt>
<trkpt lat="56.975731" lon="8.427964">
<ele>25.754753</ele>
<time>2026-07-14T11:02:12.000Z</time>
</trkpt>
<trkpt lat="56.975766" lon="8.427992">
<ele>25.768754</ele>
<time>2026-07-14T11:02:13.000Z</time>
</trkpt>
<trkpt lat="56.975798" lon="8.428017">
<ele>25.781506</ele>
<time>2026-07-14T11:02:14.000Z</time>
</trkpt>
<trkpt lat="56.975835" lon="8.428043">
<ele>25.796034</ele>
<time>2026-07-14T11:02:15.000Z</time>
</trkpt>
<trkpt lat="56.975873" lon="8.428074">
<ele>25.811282</ele>
<time>2026-07-14T11:02:16.000Z</time>
</trkpt>
<trkpt lat="56.975909" lon="8.428109">
<ele>25.826221</ele>
<time>2026-07-14T11:02:17.000Z</time>
</trkpt>
<trkpt lat="56.975945" lon="8.428145">
<ele>25.841254</ele>
<time>2026-07-14T11:02:18.000Z</time>
</trkpt>
<trkpt lat="56.975981" lon="8.428182">
<ele>25.856384</ele>
<time>2026-07-14T11:02:19.000Z</time>
</trkpt>
<trkpt lat="56.976016" lon="8.428223">
<ele>25.871609</ele>
<time>2026-07-14T11:02:20.000Z</time>
</trkpt>
<trkpt lat="56.976050" lon="8.428267">
<ele>25.885322</ele>
<time>2026-07-14T11:02:21.000Z</time>
</trkpt>
<trkpt lat="56.976085" lon="8.428314">
<ele>25.835508</ele>
<time>2026-07-14T11:02:22.000Z</time>
</trkpt>
<trkpt lat="56.976119" lon="8.428362">
<ele>25.786237</ele>
<time>2026-07-14T11:02:23.000Z</time>
</trkpt>
<trkpt lat="56.976153" lon="8.428408">
<ele>25.737720</ele>
<time>2026-07-14T11:02:24.000Z</time>
</trkpt>
<trkpt lat="56.976187" lon="8.428452">
<ele>25.689934</ele>
<time>2026-07-14T11:02:25.000Z</time>
</trkpt>
<trkpt lat="56.976222" lon="8.428492">
<ele>25.642576</ele>
<time>2026-07-14T11:02:26.000Z</time>
</trkpt>
<trkpt lat="56.976258" lon="8.428527">
<ele>25.595783</ele>
<time>2026-07-14T11:02:27.000Z</time>
</trkpt>
<trkpt lat="56.976294" lon="8.428559">
<ele>25.549840</ele>
<time>2026-07-14T11:02:28.000Z</time>
</trkpt>
<trkpt lat="56.976333" lon="8.428588">
<ele>25.501509</ele>
<time>2026-07-14T11:02:29.000Z</time>
</trkpt>
<trkpt lat="56.976375" lon="8.428614">
<ele>25.450599</ele>
<time>2026-07-14T11:02:30.000Z</time>
</trkpt>
<trkpt lat="56.976418" lon="8.428634">
<ele>25.399650</ele>
<time>2026-07-14T11:02:31.000Z</time>
</trkpt>
<trkpt lat="56.976468" lon="8.428646">
<ele>25.341734</ele>
<time>2026-07-14T11:02:32.000Z</time>
</trkpt>
<trkpt lat="56.976524" lon="8.428651">
<ele>25.277340</ele>
<time>2026-07-14T11:02:33.000Z</time>
</trkpt>
<trkpt lat="56.976581" lon="8.428649">
<ele>25.211862</ele>
<time>2026-07-14T11:02:34.000Z</time>
</trkpt>
<trkpt lat="56.976638" lon="8.428643">
<ele>25.146288</ele>
<time>2026-07-14T11:02:35.000Z</time>
</trkpt>
<trkpt lat="56.976691" lon="8.428635">
<ele>25.085210</ele>
<time>2026-07-14T11:02:36.000Z</time>
</trkpt>
<trkpt lat="56.976741" lon="8.428629">
<ele>25.027661</ele>
<time>2026-07-14T11:02:37.000Z</time>
</trkpt>
<trkpt lat="56.976789" lon="8.428623">
<ele>24.972403</ele>
<time>2026-07-14T11:02:38.000Z</time>
</trkpt>
<trkpt lat="56.976831" lon="8.428612">
<ele>24.923676</ele>
<time>2026-07-14T11:02:39.000Z</time>
</trkpt>
<trkpt lat="56.976868" lon="8.428601">
<ele>24.880626</ele>
<time>2026-07-14T11:02:40.000Z</time>
</trkpt>
<trkpt lat="56.976905" lon="8.428593">
<ele>24.837836</ele>
<time>2026-07-14T11:02:41.000Z</time>
</trkpt>
<trkpt lat="56.976941" lon="8.428586">
<ele>24.796257</ele>
<time>2026-07-14T11:02:42.000Z</time>
</trkpt>
<trkpt lat="56.976981" lon="8.428584">
<ele>24.750299</ele>
<time>2026-07-14T11:02:43.000Z</time>
</trkpt>
<trkpt lat="56.977019" lon="8.428588">
<ele>24.706583</ele>
<time>2026-07-14T11:02:44.000Z</time>
</trkpt>
<trkpt lat="56.977059" lon="8.428597">
<ele>24.660297</ele>
<time>2026-07-14T11:02:45.000Z</time>
</trkpt>
<trkpt lat="56.977105" lon="8.428608">
<ele>24.607018</ele>
<time>2026-07-14T11:02:46.000Z</time>
</trkpt>
<trkpt lat="56.977151" lon="8.428620">
<ele>24.553654</ele>
<time>2026-07-14T11:02:47.000Z</time>
</trkpt>
<trkpt lat="56.977195" lon="8.428630">
<ele>24.502733</ele>
<time>2026-07-14T11:02:48.000Z</time>
</trkpt>
<trkpt lat="56.977237" lon="8.428641">
<ele>24.454005</ele>
<time>2026-07-14T11:02:49.000Z</time>
</trkpt>
<trkpt lat="56.977277" lon="8.428652">
<ele>24.407551</ele>
<time>2026-07-14T11:02:50.000Z</time>
</trkpt>
<trkpt lat="56.977315" lon="8.428659">
<ele>24.363687</ele>
<time>2026-07-14T11:02:51.000Z</time>
</trkpt>
<trkpt lat="56.977352" lon="8.428661">
<ele>24.321173</ele>
<time>2026-07-14T11:02:52.000Z</time>
</trkpt>
<trkpt lat="56.977391" lon="8.428654">
<ele>24.276166</ele>
<time>2026-07-14T11:02:53.000Z</time>
</trkpt>
<trkpt lat="56.977425" lon="8.428637">
<ele>24.235692</ele>
<time>2026-07-14T11:02:54.000Z</time>
</trkpt>
<trkpt lat="56.977455" lon="8.428614">
<ele>24.198350</ele>
<time>2026-07-14T11:02:55.000Z</time>
</trkpt>
<trkpt lat="56.977486" lon="8.428588">
<ele>24.159202</ele>
<time>2026-07-14T11:02:56.000Z</time>
</trkpt>
<trkpt lat="56.977519" lon="8.428557">
<ele>24.116623</ele>
<time>2026-07-14T11:02:57.000Z</time>
</trkpt>
<trkpt lat="56.977551" lon="8.428526">
<ele>24.075062</ele>
<time>2026-07-14T11:02:58.000Z</time>
</trkpt>
<trkpt lat="56.977584" lon="8.428509">
<ele>24.035695</ele>
<time>2026-07-14T11:02:59.000Z</time>
</trkpt>
<trkpt lat="56.977622" lon="8.428509">
<ele>23.992051</ele>
<time>2026-07-14T11:03:00.000Z</time>
</trkpt>
<trkpt lat="56.977666" lon="8.428525">
<ele>23.940533</ele>
<time>2026-07-14T11:03:01.000Z</time>
</trkpt>
<trkpt lat="56.977711" lon="8.428549">
<ele>23.886710</ele>
<time>2026-07-14T11:03:02.000Z</time>
</trkpt>
<trkpt lat="56.977757" lon="8.428575">
<ele>23.831428</ele>
<time>2026-07-14T11:03:03.000Z</time>
</trkpt>
<trkpt lat="56.977805" lon="8.428604">
<ele>23.797694</ele>
<time>2026-07-14T11:03:04.000Z</time>
</trkpt>
<trkpt lat="56.977855" lon="8.428633">
<ele>23.768416</ele>
<time>2026-07-14T11:03:05.000Z</time>
</trkpt>
<trkpt lat="56.977902" lon="8.428661">
<ele>23.740826</ele>
<time>2026-07-14T11:03:06.000Z</time>
</trkpt>
<trkpt lat="56.977950" lon="8.428686">
<ele>23.712968</ele>
<time>2026-07-14T11:03:07.000Z</time>
</trkpt>
<trkpt lat="56.977999" lon="8.428708">
<ele>23.684803</ele>
<time>2026-07-14T11:03:08.000Z</time>
</trkpt>
<trkpt lat="56.978049" lon="8.428729">
<ele>23.656164</ele>
<time>2026-07-14T11:03:09.000Z</time>
</trkpt>
<trkpt lat="56.978099" lon="8.428755">
<ele>23.627149</ele>
<time>2026-07-14T11:03:10.000Z</time>
</trkpt>
<trkpt lat="56.978147" lon="8.428794">
<ele>23.597839</ele>
<time>2026-07-14T11:03:11.000Z</time>
</trkpt>
<trkpt lat="56.978190" lon="8.428849">
<ele>23.568574</ele>
<time>2026-07-14T11:03:12.000Z</time>
</trkpt>
<trkpt lat="56.978232" lon="8.428915">
<ele>23.537701</ele>
<time>2026-07-14T11:03:13.000Z</time>
</trkpt>
<trkpt lat="56.978276" lon="8.428982">
<ele>23.505778</ele>
<time>2026-07-14T11:03:14.000Z</time>
</trkpt>
<trkpt lat="56.978322" lon="8.429047">
<ele>23.473362</ele>
<time>2026-07-14T11:03:15.000Z</time>
</trkpt>
<trkpt lat="56.978370" lon="8.429105">
<ele>23.441274</ele>
<time>2026-07-14T11:03:16.000Z</time>
</trkpt>
<trkpt lat="56.978419" lon="8.429152">
<ele>23.410404</ele>
<time>2026-07-14T11:03:17.000Z</time>
</trkpt>
<trkpt lat="56.978471" lon="8.429190">
<ele>23.379153</ele>
<time>2026-07-14T11:03:18.000Z</time>
</trkpt>
<trkpt lat="56.978528" lon="8.429216">
<ele>23.346360</ele>
<time>2026-07-14T11:03:19.000Z</time>
</trkpt>
<trkpt lat="56.978587" lon="8.429235">
<ele>23.312915</ele>
<time>2026-07-14T11:03:20.000Z</time>
</trkpt>
<trkpt lat="56.978649" lon="8.429250">
<ele>23.277999</ele>
<time>2026-07-14T11:03:21.000Z</time>
</trkpt>
<trkpt lat="56.978712" lon="8.429263">
<ele>23.242603</ele>
<time>2026-07-14T11:03:22.000Z</time>
</trkpt>
<trkpt lat="56.978772" lon="8.429275">
<ele>23.208905</ele>
<time>2026-07-14T11:03:23.000Z</time>
</trkpt>
<trkpt lat="56.978835" lon="8.429285">
<ele>23.173599</ele>
<time>2026-07-14T11:03:24.000Z</time>
</trkpt>
<trkpt lat="56.978898" lon="8.429296">
<ele>23.138265</ele>
<time>2026-07-14T11:03:25.000Z</time>
</trkpt>
<trkpt lat="56.978959" lon="8.429308">
<ele>23.104012</ele>
<time>2026-07-14T11:03:26.000Z</time>
</trkpt>
<trkpt lat="56.979020" lon="8.429320">
<ele>23.069759</ele>
<time>2026-07-14T11:03:27.000Z</time>
</trkpt>
<trkpt lat="56.979081" lon="8.429327">
<ele>23.035634</ele>
<time>2026-07-14T11:03:28.000Z</time>
</trkpt>
<trkpt lat="56.979141" lon="8.429324">
<ele>23.002122</ele>
<time>2026-07-14T11:03:29.000Z</time>
</trkpt>
<trkpt lat="56.979196" lon="8.429306">
<ele>22.970929</ele>
<time>2026-07-14T11:03:30.000Z</time>
</trkpt>
<trkpt lat="56.979243" lon="8.429275">
<ele>22.943044</ele>
<time>2026-07-14T11:03:31.000Z</time>
</trkpt>
<trkpt lat="56.979283" lon="8.429232">
<ele>22.917161</ele>
<time>2026-07-14T11:03:32.000Z</time>
</trkpt>
<trkpt lat="56.979319" lon="8.429182">
<ele>22.891953</ele>
<time>2026-07-14T11:03:33.000Z</time>
</trkpt>
<trkpt lat="56.979354" lon="8.429131">
<ele>22.867000</ele>
<time>2026-07-14T11:03:34.000Z</time>
</trkpt>
<trkpt lat="56.979390" lon="8.429077">
<ele>22.841040</ele>
<time>2026-07-14T11:03:35.000Z</time>
</trkpt>
<trkpt lat="56.979432" lon="8.429023">
<ele>22.816151</ele>
<time>2026-07-14T11:03:36.000Z</time>
</trkpt>
<trkpt lat="56.979478" lon="8.428973">
<ele>22.813920</ele>
<time>2026-07-14T11:03:37.000Z</time>
</trkpt>
<trkpt lat="56.979526" lon="8.428934">
<ele>22.811729</ele>
<time>2026-07-14T11:03:38.000Z</time>
</trkpt>
<trkpt lat="56.979579" lon="8.428907">
<ele>22.809433</ele>
<time>2026-07-14T11:03:39.000Z</time>
</trkpt>
<trkpt lat="56.979639" lon="8.428894">
<ele>22.806912</ele>
<time>2026-07-14T11:03:40.000Z</time>
</trkpt>
<trkpt lat="56.979698" lon="8.428894">
<ele>22.804449</ele>
<time>2026-07-14T11:03:41.000Z</time>
</trkpt>
<trkpt lat="56.979755" lon="8.428899">
<ele>22.802067</ele>
<time>2026-07-14T11:03:42.000Z</time>
</trkpt>
<trkpt lat="56.979812" lon="8.428911">
<ele>22.799673</ele>
<time>2026-07-14T11:03:43.000Z</time>
</trkpt>
<trkpt lat="56.979865" lon="8.428925">
<ele>22.797438</ele>
<time>2026-07-14T11:03:44.000Z</time>
</trkpt>
<trkpt lat="56.979915" lon="8.428941">
<ele>22.795320</ele>
<time>2026-07-14T11:03:45.000Z</time>
</trkpt>
<trkpt lat="56.979963" lon="8.428959">
<ele>22.793275</ele>
<time>2026-07-14T11:03:46.000Z</time>
</trkpt>
<trkpt lat="56.980008" lon="8.428980">
<ele>22.791337</ele>
<time>2026-07-14T11:03:47.000Z</time>
</trkpt>
<trkpt lat="56.980056" lon="8.429003">
<ele>22.789267</ele>
<time>2026-07-14T11:03:48.000Z</time>
</trkpt>
<trkpt lat="56.980103" lon="8.429027">
<ele>22.787231</ele>
<time>2026-07-14T11:03:49.000Z</time>
</trkpt>
<trkpt lat="56.980151" lon="8.429056">
<ele>22.785122</ele>
<time>2026-07-14T11:03:50.000Z</time>
</trkpt>
<trkpt lat="56.980199" lon="8.429088">
<ele>22.782990</ele>
<time>2026-07-14T11:03:51.000Z</time>
</trkpt>
<trkpt lat="56.980245" lon="8.429127">
<ele>22.780875</ele>
<time>2026-07-14T11:03:52.000Z</time>
</trkpt>
<trkpt lat="56.980296" lon="8.429175">
<ele>22.778483</ele>
<time>2026-07-14T11:03:53.000Z</time>
</trkpt>
<trkpt lat="56.980357" lon="8.429227">
<ele>22.775676</ele>
<time>2026-07-14T11:03:54.000Z</time>
</trkpt>
<trkpt lat="56.980420" lon="8.429283">
<ele>22.772754</ele>
<time>2026-07-14T11:03:55.000Z</time>
</trkpt>
<trkpt lat="56.980481" lon="8.429338">
<ele>22.769918</ele>
<time>2026-07-14T11:03:56.000Z</time>
</trkpt>
<trkpt lat="56.980545" lon="8.429394">
<ele>22.766959</ele>
<time>2026-07-14T11:03:57.000Z</time>
</trkpt>
<trkpt lat="56.980608" lon="8.429445">
<ele>22.764085</ele>
<time>2026-07-14T11:03:58.000Z</time>
</trkpt>
<trkpt lat="56.980667" lon="8.429494">
<ele>22.761382</ele>
<time>2026-07-14T11:03:59.000Z</time>
</trkpt>
<trkpt lat="56.980724" lon="8.429544">
<ele>22.758745</ele>
<time>2026-07-14T11:04:00.000Z</time>
</trkpt>
<trkpt lat="56.980779" lon="8.429593">
<ele>22.756194</ele>
<time>2026-07-14T11:04:01.000Z</time>
</trkpt>
<trkpt lat="56.980830" lon="8.429643">
<ele>22.753780</ele>
<time>2026-07-14T11:04:02.000Z</time>
</trkpt>
<trkpt lat="56.980880" lon="8.429692">
<ele>22.751415</ele>
<time>2026-07-14T11:04:03.000Z</time>
</trkpt>
<trkpt lat="56.980929" lon="8.429747">
<ele>22.749017</ele>
<time>2026-07-14T11:04:04.000Z</time>
</trkpt>
<trkpt lat="56.980975" lon="8.429813">
<ele>22.746581</ele>
<time>2026-07-14T11:04:05.000Z</time>
</trkpt>
<trkpt lat="56.981015" lon="8.429888">
<ele>22.744194</ele>
<time>2026-07-14T11:04:06.000Z</time>
</trkpt>
<trkpt lat="56.981053" lon="8.429971">
<ele>22.741728</ele>
<time>2026-07-14T11:04:07.000Z</time>
</trkpt>
<trkpt lat="56.981090" lon="8.430053">
<ele>22.710744</ele>
<time>2026-07-14T11:04:08.000Z</time>
</trkpt>
<trkpt lat="56.981129" lon="8.430133">
<ele>22.674757</ele>
<time>2026-07-14T11:04:09.000Z</time>
</trkpt>
<trkpt lat="56.981168" lon="8.430211">
<ele>22.639266</ele>
<time>2026-07-14T11:04:10.000Z</time>
</trkpt>
<trkpt lat="56.981208" lon="8.430282">
<ele>22.605029</ele>
<time>2026-07-14T11:04:11.000Z</time>
</trkpt>
<trkpt lat="56.981252" lon="8.430348">
<ele>22.570065</ele>
<time>2026-07-14T11:04:12.000Z</time>
</trkpt>
<trkpt lat="56.981300" lon="8.430402">
<ele>22.535426</ele>
<time>2026-07-14T11:04:13.000Z</time>
</trkpt>
<trkpt lat="56.981351" lon="8.430442">
<ele>22.501303</ele>
<time>2026-07-14T11:04:14.000Z</time>
</trkpt>
<trkpt lat="56.981407" lon="8.430468">
<ele>22.465764</ele>
<time>2026-07-14T11:04:15.000Z</time>
</trkpt>
<trkpt lat="56.981466" lon="8.430482">
<ele>22.429163</ele>
<time>2026-07-14T11:04:16.000Z</time>
</trkpt>
<trkpt lat="56.981525" lon="8.430492">
<ele>22.392709</ele>
<time>2026-07-14T11:04:17.000Z</time>
</trkpt>
<trkpt lat="56.981584" lon="8.430503">
<ele>22.356223</ele>
<time>2026-07-14T11:04:18.000Z</time>
</trkpt>
<trkpt lat="56.981647" lon="8.430516">
<ele>22.317218</ele>
<time>2026-07-14T11:04:19.000Z</time>
</trkpt>
<trkpt lat="56.981706" lon="8.430533">
<ele>22.280474</ele>
<time>2026-07-14T11:04:20.000Z</time>
</trkpt>
<trkpt lat="56.981759" lon="8.430556">
<ele>22.246967</ele>
<time>2026-07-14T11:04:21.000Z</time>
</trkpt>
<trkpt lat="56.981811" lon="8.430589">
<ele>22.213115</ele>
<time>2026-07-14T11:04:22.000Z</time>
</trkpt>
<trkpt lat="56.981864" lon="8.430631">
<ele>22.177597</ele>
<time>2026-07-14T11:04:23.000Z</time>
</trkpt>
<trkpt lat="56.981920" lon="8.430679">
<ele>22.139571</ele>
<time>2026-07-14T11:04:24.000Z</time>
</trkpt>
<trkpt lat="56.981973" lon="8.430731">
<ele>22.102595</ele>
<time>2026-07-14T11:04:25.000Z</time>
</trkpt>
<trkpt lat="56.982026" lon="8.430783">
<ele>22.065620</ele>
<time>2026-07-14T11:04:26.000Z</time>
</trkpt>
<trkpt lat="56.982080" lon="8.430833">
<ele>22.028408</ele>
<time>2026-07-14T11:04:27.000Z</time>
</trkpt>
<trkpt lat="56.982134" lon="8.430883">
<ele>21.991196</ele>
<time>2026-07-14T11:04:28.000Z</time>
</trkpt>
<trkpt lat="56.982187" lon="8.430933">
<ele>21.954532</ele>
<time>2026-07-14T11:04:29.000Z</time>
</trkpt>
<trkpt lat="56.982240" lon="8.430985">
<ele>21.917556</ele>
<time>2026-07-14T11:04:30.000Z</time>
</trkpt>
<trkpt lat="56.982293" lon="8.431038">
<ele>21.880422</ele>
<time>2026-07-14T11:04:31.000Z</time>
</trkpt>
<trkpt lat="56.982347" lon="8.431090">
<ele>21.842903</ele>
<time>2026-07-14T11:04:32.000Z</time>
</trkpt>
<trkpt lat="56.982402" lon="8.431140">
<ele>21.805140</ele>
<time>2026-07-14T11:04:33.000Z</time>
</trkpt>
<trkpt lat="56.982457" lon="8.431191">
<ele>21.767228</ele>
<time>2026-07-14T11:04:34.000Z</time>
</trkpt>
<trkpt lat="56.982511" lon="8.431241">
<ele>21.730015</ele>
<time>2026-07-14T11:04:35.000Z</time>
</trkpt>
<trkpt lat="56.982564" lon="8.431290">
<ele>21.693503</ele>
<time>2026-07-14T11:04:36.000Z</time>
</trkpt>
<trkpt lat="56.982617" lon="8.431339">
<ele>21.656992</ele>
<time>2026-07-14T11:04:37.000Z</time>
</trkpt>
<trkpt lat="56.982669" lon="8.431388">
<ele>21.637628</ele>
<time>2026-07-14T11:04:38.000Z</time>
</trkpt>
<trkpt lat="56.982719" lon="8.431437">
<ele>21.644844</ele>
<time>2026-07-14T11:04:39.000Z</time>
</trkpt>
<trkpt lat="56.982768" lon="8.431484">
<ele>21.651883</ele>
<time>2026-07-14T11:04:40.000Z</time>
</trkpt>
<trkpt lat="56.982818" lon="8.431529">
<ele>21.658972</ele>
<time>2026-07-14T11:04:41.000Z</time>
</trkpt>
<trkpt lat="56.982870" lon="8.431575">
<ele>21.666321</ele>
<time>2026-07-14T11:04:42.000Z</time>
</trkpt>
<trkpt lat="56.982919" lon="8.431622">
<ele>21.673359</ele>
<time>2026-07-14T11:04:43.000Z</time>
</trkpt>
<trkpt lat="56.982966" lon="8.431670">
<ele>21.680206</ele>
<time>2026-07-14T11:04:44.000Z</time>
</trkpt>
<trkpt lat="56.983016" lon="8.431717">
<ele>21.687358</ele>
<time>2026-07-14T11:04:45.000Z</time>
</trkpt>
<trkpt lat="56.983064" lon="8.431765">
<ele>21.694317</ele>
<time>2026-07-14T11:04:46.000Z</time>
</trkpt>
<trkpt lat="56.983112" lon="8.431816">
<ele>21.701377</ele>
<time>2026-07-14T11:04:47.000Z</time>
</trkpt>
<trkpt lat="56.983161" lon="8.431869">
<ele>21.708618</ele>
<time>2026-07-14T11:04:48.000Z</time>
</trkpt>
<trkpt lat="56.983209" lon="8.431921">
<ele>21.715714</ele>
<time>2026-07-14T11:04:49.000Z</time>
</trkpt>
<trkpt lat="56.983257" lon="8.431976">
<ele>21.722917</ele>
<time>2026-07-14T11:04:50.000Z</time>
</trkpt>
<trkpt lat="56.983306" lon="8.432030">
<ele>21.730194</ele>
<time>2026-07-14T11:04:51.000Z</time>
</trkpt>
<trkpt lat="56.983356" lon="8.432083">
<ele>21.737544</ele>
<time>2026-07-14T11:04:52.000Z</time>
</trkpt>
<trkpt lat="56.983403" lon="8.432135">
<ele>21.744530</ele>
<time>2026-07-14T11:04:53.000Z</time>
</trkpt>
<trkpt lat="56.983451" lon="8.432192">
<ele>21.751809</ele>
<time>2026-07-14T11:04:54.000Z</time>
</trkpt>
<trkpt lat="56.983501" lon="8.432251">
<ele>21.759376</ele>
<time>2026-07-14T11:04:55.000Z</time>
</trkpt>
<trkpt lat="56.983550" lon="8.432309">
<ele>21.766799</ele>
<time>2026-07-14T11:04:56.000Z</time>
</trkpt>
<trkpt lat="56.983600" lon="8.432367">
<ele>21.774329</ele>
<time>2026-07-14T11:04:57.000Z</time>
</trkpt>
<trkpt lat="56.983648" lon="8.432427">
<ele>21.781722</ele>
<time>2026-07-14T11:04:58.000Z</time>
</trkpt>
<trkpt lat="56.983693" lon="8.432491">
<ele>21.788969</ele>
<time>2026-07-14T11:04:59.000Z</time>
</trkpt>
<trkpt lat="56.983735" lon="8.432565">
<ele>21.796381</ele>
<time>2026-07-14T11:05:00.000Z</time>
</trkpt>
<trkpt lat="56.983771" lon="8.432644">
<ele>21.803525</ele>
<time>2026-07-14T11:05:01.000Z</time>
</trkpt>
<trkpt lat="56.983805" lon="8.432723">
<ele>21.810508</ele>
<time>2026-07-14T11:05:02.000Z</time>
</trkpt>
<trkpt lat="56.983842" lon="8.432803">
<ele>21.817786</ele>
<time>2026-07-14T11:05:03.000Z</time>
</trkpt>
<trkpt lat="56.983882" lon="8.432879">
<ele>21.825116</ele>
<time>2026-07-14T11:05:04.000Z</time>
</trkpt>
<trkpt lat="56.983926" lon="8.432949">
<ele>21.832529</ele>
<time>2026-07-14T11:05:05.000Z</time>
</trkpt>
<trkpt lat="56.983971" lon="8.433015">
<ele>21.839862</ele>
<time>2026-07-14T11:05:06.000Z</time>
</trkpt>
<trkpt lat="56.984017" lon="8.433080">
<ele>21.847252</ele>
<time>2026-07-14T11:05:07.000Z</time>
</trkpt>
<trkpt lat="56.984063" lon="8.433145">
<ele>21.854643</ele>
<time>2026-07-14T11:05:08.000Z</time>
</trkpt>
<trkpt lat="56.984108" lon="8.433211">
<ele>21.861976</ele>
<time>2026-07-14T11:05:09.000Z</time>
</trkpt>
<trkpt lat="56.984155" lon="8.433275">
<ele>21.859503</ele>
<time>2026-07-14T11:05:10.000Z</time>
</trkpt>
<trkpt lat="56.984202" lon="8.433338">
<ele>21.853947</ele>
<time>2026-07-14T11:05:11.000Z</time>
</trkpt>
<trkpt lat="56.984250" lon="8.433404">
<ele>21.848222</ele>
<time>2026-07-14T11:05:12.000Z</time>
</trkpt>
<trkpt lat="56.984296" lon="8.433472">
<ele>21.842584</ele>
<time>2026-07-14T11:05:13.000Z</time>
</trkpt>
<trkpt lat="56.984341" lon="8.433540">
<ele>21.837020</ele>
<time>2026-07-14T11:05:14.000Z</time>
</trkpt>
<trkpt lat="56.984383" lon="8.433607">
<ele>21.831708</ele>
<time>2026-07-14T11:05:15.000Z</time>
</trkpt>
<trkpt lat="56.984426" lon="8.433670">
<ele>21.826456</ele>
<time>2026-07-14T11:05:16.000Z</time>
</trkpt>
<trkpt lat="56.984469" lon="8.433728">
<ele>21.821363</ele>
<time>2026-07-14T11:05:17.000Z</time>
</trkpt>
<trkpt lat="56.984509" lon="8.433785">
<ele>21.816529</ele>
<time>2026-07-14T11:05:18.000Z</time>
</trkpt>
<trkpt lat="56.984550" lon="8.433846">
<ele>21.811491</ele>
<time>2026-07-14T11:05:19.000Z</time>
</trkpt>
<trkpt lat="56.984589" lon="8.433910">
<ele>21.806497</ele>
<time>2026-07-14T11:05:20.000Z</time>
</trkpt>
<trkpt lat="56.984630" lon="8.433977">
<ele>21.801257</ele>
<time>2026-07-14T11:05:21.000Z</time>
</trkpt>
<trkpt lat="56.984670" lon="8.434046">
<ele>21.796017</ele>
<time>2026-07-14T11:05:22.000Z</time>
</trkpt>
<trkpt lat="56.984709" lon="8.434114">
<ele>21.790882</ele>
<time>2026-07-14T11:05:23.000Z</time>
</trkpt>
<trkpt lat="56.984751" lon="8.434180">
<ele>21.785605</ele>
<time>2026-07-14T11:05:24.000Z</time>
</trkpt>
<trkpt lat="56.984793" lon="8.434248">
<ele>21.780258</ele>
<time>2026-07-14T11:05:25.000Z</time>
</trkpt>
<trkpt lat="56.984835" lon="8.434318">
<ele>21.774843</ele>
<time>2026-07-14T11:05:26.000Z</time>
</trkpt>
<trkpt lat="56.984877" lon="8.434390">
<ele>21.769357</ele>
<time>2026-07-14T11:05:27.000Z</time>
</trkpt>
<trkpt lat="56.984920" lon="8.434463">
<ele>21.763766</ele>
<time>2026-07-14T11:05:28.000Z</time>
</trkpt>
<trkpt lat="56.984962" lon="8.434535">
<ele>21.758280</ele>
<time>2026-07-14T11:05:29.000Z</time>
</trkpt>
<trkpt lat="56.985003" lon="8.434605">
<ele>21.752935</ele>
<time>2026-07-14T11:05:30.000Z</time>
</trkpt>
<trkpt lat="56.985043" lon="8.434677">
<ele>21.747587</ele>
<time>2026-07-14T11:05:31.000Z</time>
</trkpt>
<trkpt lat="56.985082" lon="8.434750">
<ele>21.742270</ele>
<time>2026-07-14T11:05:32.000Z</time>
</trkpt>
<trkpt lat="56.985122" lon="8.434824">
<ele>21.736849</ele>
<time>2026-07-14T11:05:33.000Z</time>
</trkpt>
<trkpt lat="56.985161" lon="8.434896">
<ele>21.731568</ele>
<time>2026-07-14T11:05:34.000Z</time>
</trkpt>
<trkpt lat="56.985201" lon="8.434968">
<ele>21.726221</ele>
<time>2026-07-14T11:05:35.000Z</time>
</trkpt>
<trkpt lat="56.985241" lon="8.435040">
<ele>21.720873</ele>
<time>2026-07-14T11:05:36.000Z</time>
</trkpt>
<trkpt lat="56.985277" lon="8.435110">
<ele>21.715866</ele>
<time>2026-07-14T11:05:37.000Z</time>
</trkpt>
<trkpt lat="56.985317" lon="8.435183">
<ele>21.710482</ele>
<time>2026-07-14T11:05:38.000Z</time>
</trkpt>
<trkpt lat="56.985360" lon="8.435262">
<ele>21.704674</ele>
<time>2026-07-14T11:05:39.000Z</time>
</trkpt>
<trkpt lat="56.985400" lon="8.435337">
<ele>21.699216</ele>
<time>2026-07-14T11:05:40.000Z</time>
</trkpt>
<trkpt lat="56.985440" lon="8.435414">
<ele>21.693683</ele>
<time>2026-07-14T11:05:41.000Z</time>
</trkpt>
<trkpt lat="56.985477" lon="8.435494">
<ele>21.703467</ele>
<time>2026-07-14T11:05:42.000Z</time>
</trkpt>
<trkpt lat="56.985513" lon="8.435574">
<ele>21.719471</ele>
<time>2026-07-14T11:05:43.000Z</time>
</trkpt>
<trkpt lat="56.985551" lon="8.435652">
<ele>21.735611</ele>
<time>2026-07-14T11:05:44.000Z</time>
</trkpt>
<trkpt lat="56.985591" lon="8.435730">
<ele>21.752134</ele>
<time>2026-07-14T11:05:45.000Z</time>
</trkpt>
<trkpt lat="56.985631" lon="8.435809">
<ele>21.768770</ele>
<time>2026-07-14T11:05:46.000Z</time>
</trkpt>
<trkpt lat="56.985671" lon="8.435888">
<ele>21.785405</ele>
<time>2026-07-14T11:05:47.000Z</time>
</trkpt>
<trkpt lat="56.985711" lon="8.435971">
<ele>21.802498</ele>
<time>2026-07-14T11:05:48.000Z</time>
</trkpt>
<trkpt lat="56.985751" lon="8.436055">
<ele>21.819706</ele>
<time>2026-07-14T11:05:49.000Z</time>
</trkpt>
<trkpt lat="56.985793" lon="8.436141">
<ele>21.837521</ele>
<time>2026-07-14T11:05:50.000Z</time>
</trkpt>
<trkpt lat="56.985833" lon="8.436227">
<ele>21.854962</ele>
<time>2026-07-14T11:05:51.000Z</time>
</trkpt>
<trkpt lat="56.985873" lon="8.436311">
<ele>21.872171</ele>
<time>2026-07-14T11:05:52.000Z</time>
</trkpt>
<trkpt lat="56.985913" lon="8.436394">
<ele>21.889263</ele>
<time>2026-07-14T11:05:53.000Z</time>
</trkpt>
<trkpt lat="56.985953" lon="8.436475">
<ele>21.906126</ele>
<time>2026-07-14T11:05:54.000Z</time>
</trkpt>
<trkpt lat="56.985993" lon="8.436558">
<ele>21.923218</ele>
<time>2026-07-14T11:05:55.000Z</time>
</trkpt>
<trkpt lat="56.986032" lon="8.436643">
<ele>21.940359</ele>
<time>2026-07-14T11:05:56.000Z</time>
</trkpt>
<trkpt lat="56.986072" lon="8.436726">
<ele>21.957452</ele>
<time>2026-07-14T11:05:57.000Z</time>
</trkpt>
<trkpt lat="56.986112" lon="8.436808">
<ele>21.974429</ele>
<time>2026-07-14T11:05:58.000Z</time>
</trkpt>
<trkpt lat="56.986152" lon="8.436889">
<ele>21.991291</ele>
<time>2026-07-14T11:05:59.000Z</time>
</trkpt>
<trkpt lat="56.986192" lon="8.436970">
<ele>22.008154</ele>
<time>2026-07-14T11:06:00.000Z</time>
</trkpt>
<trkpt lat="56.986232" lon="8.437050">
<ele>22.024903</ele>
<time>2026-07-14T11:06:01.000Z</time>
</trkpt>
<trkpt lat="56.986272" lon="8.437131">
<ele>22.041765</ele>
<time>2026-07-14T11:06:02.000Z</time>
</trkpt>
<trkpt lat="56.986310" lon="8.437212">
<ele>22.058253</ele>
<time>2026-07-14T11:06:03.000Z</time>
</trkpt>
<trkpt lat="56.986348" lon="8.437292">
<ele>22.074624</ele>
<time>2026-07-14T11:06:04.000Z</time>
</trkpt>
<trkpt lat="56.986386" lon="8.437373">
<ele>22.091111</ele>
<time>2026-07-14T11:06:05.000Z</time>
</trkpt>
<trkpt lat="56.986426" lon="8.437451">
<ele>22.107634</ele>
<time>2026-07-14T11:06:06.000Z</time>
</trkpt>
<trkpt lat="56.986466" lon="8.437530">
<ele>22.124269</ele>
<time>2026-07-14T11:06:07.000Z</time>
</trkpt>
<trkpt lat="56.986505" lon="8.437610">
<ele>22.140828</ele>
<time>2026-07-14T11:06:08.000Z</time>
</trkpt>
<trkpt lat="56.986543" lon="8.437690">
<ele>22.157199</ele>
<time>2026-07-14T11:06:09.000Z</time>
</trkpt>
<trkpt lat="56.986581" lon="8.437770">
<ele>22.173570</ele>
<time>2026-07-14T11:06:10.000Z</time>
</trkpt>
<trkpt lat="56.986621" lon="8.437849">
<ele>22.190205</ele>
<time>2026-07-14T11:06:11.000Z</time>
</trkpt>
<trkpt lat="56.986661" lon="8.437928">
<ele>22.206779</ele>
<time>2026-07-14T11:06:12.000Z</time>
</trkpt>
<trkpt lat="56.986699" lon="8.438008">
<ele>22.222971</ele>
<time>2026-07-14T11:06:13.000Z</time>
</trkpt>
<trkpt lat="56.986737" lon="8.438088">
<ele>22.239163</ele>
<time>2026-07-14T11:06:14.000Z</time>
</trkpt>
<trkpt lat="56.986777" lon="8.438169">
<ele>22.255840</ele>
<time>2026-07-14T11:06:15.000Z</time>
</trkpt>
<trkpt lat="56.986817" lon="8.438249">
<ele>22.272406</ele>
<time>2026-07-14T11:06:16.000Z</time>
</trkpt>
<trkpt lat="56.986857" lon="8.438330">
<ele>22.289083</ele>
<time>2026-07-14T11:06:17.000Z</time>
</trkpt>
<trkpt lat="56.986898" lon="8.438413">
<ele>22.306175</ele>
<time>2026-07-14T11:06:18.000Z</time>
</trkpt>
<trkpt lat="56.986938" lon="8.438495">
<ele>22.322967</ele>
<time>2026-07-14T11:06:19.000Z</time>
</trkpt>
<trkpt lat="56.986977" lon="8.438577">
<ele>22.339572</ele>
<time>2026-07-14T11:06:20.000Z</time>
</trkpt>
<trkpt lat="56.987016" lon="8.438660">
<ele>22.356293</ele>
<time>2026-07-14T11:06:21.000Z</time>
</trkpt>
<trkpt lat="56.987055" lon="8.438742">
<ele>22.372899</ele>
<time>2026-07-14T11:06:22.000Z</time>
</trkpt>
<trkpt lat="56.987095" lon="8.438823">
<ele>22.389577</ele>
<time>2026-07-14T11:06:23.000Z</time>
</trkpt>
<trkpt lat="56.987136" lon="8.438905">
<ele>22.406556</ele>
<time>2026-07-14T11:06:24.000Z</time>
</trkpt>
<trkpt lat="56.987176" lon="8.438988">
<ele>22.423461</ele>
<time>2026-07-14T11:06:25.000Z</time>
</trkpt>
<trkpt lat="56.987216" lon="8.439069">
<ele>22.440139</ele>
<time>2026-07-14T11:06:26.000Z</time>
</trkpt>
<trkpt lat="56.987256" lon="8.439150">
<ele>22.456816</ele>
<time>2026-07-14T11:06:27.000Z</time>
</trkpt>
<trkpt lat="56.987296" lon="8.439233">
<ele>22.473721</ele>
<time>2026-07-14T11:06:28.000Z</time>
</trkpt>
<trkpt lat="56.987336" lon="8.439314">
<ele>22.490399</ele>
<time>2026-07-14T11:06:29.000Z</time>
</trkpt>
<trkpt lat="56.987376" lon="8.439397">
<ele>22.507304</ele>
<time>2026-07-14T11:06:30.000Z</time>
</trkpt>
<trkpt lat="56.987416" lon="8.439479">
<ele>22.524095</ele>
<time>2026-07-14T11:06:31.000Z</time>
</trkpt>
<trkpt lat="56.987456" lon="8.439561">
<ele>22.540886</ele>
<time>2026-07-14T11:06:32.000Z</time>
</trkpt>
<trkpt lat="56.987496" lon="8.439644">
<ele>22.557791</ele>
<time>2026-07-14T11:06:33.000Z</time>
</trkpt>
<trkpt lat="56.987534" lon="8.439725">
<ele>22.574098</ele>
<time>2026-07-14T11:06:34.000Z</time>
</trkpt>
<trkpt lat="56.987575" lon="8.439806">
<ele>22.590965</ele>
<time>2026-07-14T11:06:35.000Z</time>
</trkpt>
<trkpt lat="56.987615" lon="8.439887">
<ele>22.607643</ele>
<time>2026-07-14T11:06:36.000Z</time>
</trkpt>
<trkpt lat="56.987653" lon="8.439967">
<ele>22.623834</ele>
<time>2026-07-14T11:06:37.000Z</time>
</trkpt>
<trkpt lat="56.987691" lon="8.440047">
<ele>22.640026</ele>
<time>2026-07-14T11:06:38.000Z</time>
</trkpt>
<trkpt lat="56.987728" lon="8.440126">
<ele>22.655919</ele>
<time>2026-07-14T11:06:39.000Z</time>
</trkpt>
<trkpt lat="56.987767" lon="8.440208">
<ele>22.672524</ele>
<time>2026-07-14T11:06:40.000Z</time>
</trkpt>
<trkpt lat="56.987807" lon="8.440287">
<ele>22.688977</ele>
<time>2026-07-14T11:06:41.000Z</time>
</trkpt>
<trkpt lat="56.987847" lon="8.440366">
<ele>22.705304</ele>
<time>2026-07-14T11:06:42.000Z</time>
</trkpt>
<trkpt lat="56.987885" lon="8.440447">
<ele>22.717601</ele>
<time>2026-07-14T11:06:43.000Z</time>
</trkpt>
<trkpt lat="56.987924" lon="8.440528">
<ele>22.730037</ele>
<time>2026-07-14T11:06:44.000Z</time>
</trkpt>
<trkpt lat="56.987962" lon="8.440609">
<ele>22.742333</ele>
<time>2026-07-14T11:06:45.000Z</time>
</trkpt>
<trkpt lat="56.988000" lon="8.440687">
<ele>22.754371</ele>
<time>2026-07-14T11:06:46.000Z</time>
</trkpt>
<trkpt lat="56.988038" lon="8.440763">
<ele>22.766237</ele>
<time>2026-07-14T11:06:47.000Z</time>
</trkpt>
<trkpt lat="56.988076" lon="8.440839">
<ele>22.778104</ele>
<time>2026-07-14T11:06:48.000Z</time>
</trkpt>
<trkpt lat="56.988114" lon="8.440916">
<ele>22.790056</ele>
<time>2026-07-14T11:06:49.000Z</time>
</trkpt>
<trkpt lat="56.988150" lon="8.440993">
<ele>22.801728</ele>
<time>2026-07-14T11:06:50.000Z</time>
</trkpt>
<trkpt lat="56.988187" lon="8.441071">
<ele>22.813626</ele>
<time>2026-07-14T11:06:51.000Z</time>
</trkpt>
<trkpt lat="56.988225" lon="8.441149">
<ele>22.825663</ele>
<time>2026-07-14T11:06:52.000Z</time>
</trkpt>
<trkpt lat="56.988263" lon="8.441226">
<ele>22.837615</ele>
<time>2026-07-14T11:06:53.000Z</time>
</trkpt>
<trkpt lat="56.988301" lon="8.441305">
<ele>22.849738</ele>
<time>2026-07-14T11:06:54.000Z</time>
</trkpt>
<trkpt lat="56.988339" lon="8.441384">
<ele>22.861862</ele>
<time>2026-07-14T11:06:55.000Z</time>
</trkpt>
<trkpt lat="56.988377" lon="8.441463">
<ele>22.873985</ele>
<time>2026-07-14T11:06:56.000Z</time>
</trkpt>
<trkpt lat="56.988416" lon="8.441542">
<ele>22.886249</ele>
<time>2026-07-14T11:06:57.000Z</time>
</trkpt>
<trkpt lat="56.988454" lon="8.441621">
<ele>22.898372</ele>
<time>2026-07-14T11:06:58.000Z</time>
</trkpt>
<trkpt lat="56.988492" lon="8.441699">
<ele>22.910409</ele>
<time>2026-07-14T11:06:59.000Z</time>
</trkpt>
<trkpt lat="56.988530" lon="8.441778">
<ele>22.922533</ele>
<time>2026-07-14T11:07:00.000Z</time>
</trkpt>
<trkpt lat="56.988568" lon="8.441856">
<ele>22.934570</ele>
<time>2026-07-14T11:07:01.000Z</time>
</trkpt>
<trkpt lat="56.988606" lon="8.441936">
<ele>22.946779</ele>
<time>2026-07-14T11:07:02.000Z</time>
</trkpt>
<trkpt lat="56.988647" lon="8.442015">
<ele>22.959331</ele>
<time>2026-07-14T11:07:03.000Z</time>
</trkpt>
<trkpt lat="56.988687" lon="8.442092">
<ele>22.971570</ele>
<time>2026-07-14T11:07:04.000Z</time>
</trkpt>
<trkpt lat="56.988725" lon="8.442170">
<ele>22.983607</ele>
<time>2026-07-14T11:07:05.000Z</time>
</trkpt>
<trkpt lat="56.988763" lon="8.442249">
<ele>22.995730</ele>
<time>2026-07-14T11:07:06.000Z</time>
</trkpt>
<trkpt lat="56.988801" lon="8.442328">
<ele>23.007854</ele>
<time>2026-07-14T11:07:07.000Z</time>
</trkpt>
<trkpt lat="56.988838" lon="8.442406">
<ele>23.019751</ele>
<time>2026-07-14T11:07:08.000Z</time>
</trkpt>
<trkpt lat="56.988877" lon="8.442485">
<ele>23.032015</ele>
<time>2026-07-14T11:07:09.000Z</time>
</trkpt>
<trkpt lat="56.988915" lon="8.442565">
<ele>23.044225</ele>
<time>2026-07-14T11:07:10.000Z</time>
</trkpt>
<trkpt lat="56.988954" lon="8.442645">
<ele>23.056574</ele>
<time>2026-07-14T11:07:11.000Z</time>
</trkpt>
<trkpt lat="56.988992" lon="8.442725">
<ele>23.068784</ele>
<time>2026-07-14T11:07:12.000Z</time>
</trkpt>
<trkpt lat="56.989030" lon="8.442805">
<ele>23.080993</ele>
<time>2026-07-14T11:07:13.000Z</time>
</trkpt>
<trkpt lat="56.989068" lon="8.442885">
<ele>23.094121</ele>
<time>2026-07-14T11:07:14.000Z</time>
</trkpt>
<trkpt lat="56.989106" lon="8.442964">
<ele>23.107554</ele>
<time>2026-07-14T11:07:15.000Z</time>
</trkpt>
<trkpt lat="56.989144" lon="8.443043">
<ele>23.120987</ele>
<time>2026-07-14T11:07:16.000Z</time>
</trkpt>
<trkpt lat="56.989183" lon="8.443120">
<ele>23.134388</ele>
<time>2026-07-14T11:07:17.000Z</time>
</trkpt>
<trkpt lat="56.989221" lon="8.443196">
<ele>23.147537</ele>
<time>2026-07-14T11:07:18.000Z</time>
</trkpt>
<trkpt lat="56.989259" lon="8.443273">
<ele>23.160780</ele>
<time>2026-07-14T11:07:19.000Z</time>
</trkpt>
<trkpt lat="56.989297" lon="8.443351">
<ele>23.174118</ele>
<time>2026-07-14T11:07:20.000Z</time>
</trkpt>
<trkpt lat="56.989335" lon="8.443429">
<ele>23.187455</ele>
<time>2026-07-14T11:07:21.000Z</time>
</trkpt>
<trkpt lat="56.989373" lon="8.443504">
<ele>23.200510</ele>
<time>2026-07-14T11:07:22.000Z</time>
</trkpt>
<trkpt lat="56.989409" lon="8.443580">
<ele>23.213347</ele>
<time>2026-07-14T11:07:23.000Z</time>
</trkpt>
<trkpt lat="56.989446" lon="8.443656">
<ele>23.226339</ele>
<time>2026-07-14T11:07:24.000Z</time>
</trkpt>
<trkpt lat="56.989482" lon="8.443732">
<ele>23.239176</ele>
<time>2026-07-14T11:07:25.000Z</time>
</trkpt>
<trkpt lat="56.989518" lon="8.443809">
<ele>23.252110</ele>
<time>2026-07-14T11:07:26.000Z</time>
</trkpt>
<trkpt lat="56.989554" lon="8.443886">
<ele>23.265043</ele>
<time>2026-07-14T11:07:27.000Z</time>
</trkpt>
<trkpt lat="56.989590" lon="8.443962">
<ele>23.277880</ele>
<time>2026-07-14T11:07:28.000Z</time>
</trkpt>
<trkpt lat="56.989628" lon="8.444038">
<ele>23.291029</ele>
<time>2026-07-14T11:07:29.000Z</time>
</trkpt>
<trkpt lat="56.989667" lon="8.444115">
<ele>23.304430</ele>
<time>2026-07-14T11:07:30.000Z</time>
</trkpt>
<trkpt lat="56.989705" lon="8.444192">
<ele>23.317673</ele>
<time>2026-07-14T11:07:31.000Z</time>
</trkpt>
<trkpt lat="56.989743" lon="8.444268">
<ele>23.330821</ele>
<time>2026-07-14T11:07:32.000Z</time>
</trkpt>
<trkpt lat="56.989779" lon="8.444346">
<ele>23.343852</ele>
<time>2026-07-14T11:07:33.000Z</time>
</trkpt>
<trkpt lat="56.989816" lon="8.444424">
<ele>23.357035</ele>
<time>2026-07-14T11:07:34.000Z</time>
</trkpt>
<trkpt lat="56.989852" lon="8.444499">
<ele>23.369776</ele>
<time>2026-07-14T11:07:35.000Z</time>
</trkpt>
<trkpt lat="56.989888" lon="8.444576">
<ele>23.382709</ele>
<time>2026-07-14T11:07:36.000Z</time>
</trkpt>
<trkpt lat="56.989926" lon="8.444653">
<ele>23.395952</ele>
<time>2026-07-14T11:07:37.000Z</time>
</trkpt>
<trkpt lat="56.989964" lon="8.444728">
<ele>23.409007</ele>
<time>2026-07-14T11:07:38.000Z</time>
</trkpt>
<trkpt lat="56.990003" lon="8.444803">
<ele>23.422222</ele>
<time>2026-07-14T11:07:39.000Z</time>
</trkpt>
<trkpt lat="56.990041" lon="8.444878">
<ele>23.435277</ele>
<time>2026-07-14T11:07:40.000Z</time>
</trkpt>
<trkpt lat="56.990077" lon="8.444955">
<ele>23.448211</ele>
<time>2026-07-14T11:07:41.000Z</time>
</trkpt>
<trkpt lat="56.990113" lon="8.445032">
<ele>23.461144</ele>
<time>2026-07-14T11:07:42.000Z</time>
</trkpt>
<trkpt lat="56.990152" lon="8.445109">
<ele>23.474545</ele>
<time>2026-07-14T11:07:43.000Z</time>
</trkpt>
<trkpt lat="56.990188" lon="8.445184">
<ele>23.487286</ele>
<time>2026-07-14T11:07:44.000Z</time>
</trkpt>
<trkpt lat="56.990224" lon="8.445260">
<ele>23.500123</ele>
<time>2026-07-14T11:07:45.000Z</time>
</trkpt>
<trkpt lat="56.990262" lon="8.445336">
<ele>23.514199</ele>
<time>2026-07-14T11:07:46.000Z</time>
</trkpt>
<trkpt lat="56.990298" lon="8.445412">
<ele>23.528574</ele>
<time>2026-07-14T11:07:47.000Z</time>
</trkpt>
<trkpt lat="56.990334" lon="8.445489">
<ele>23.543057</ele>
<time>2026-07-14T11:07:48.000Z</time>
</trkpt>
<trkpt lat="56.990371" lon="8.445568">
<ele>23.557927</ele>
<time>2026-07-14T11:07:49.000Z</time>
</trkpt>
<trkpt lat="56.990407" lon="8.445645">
<ele>23.572410</ele>
<time>2026-07-14T11:07:50.000Z</time>
</trkpt>
<trkpt lat="56.990445" lon="8.445721">
<ele>23.587135</ele>
<time>2026-07-14T11:07:51.000Z</time>
</trkpt>
<trkpt lat="56.990483" lon="8.445799">
<ele>23.602070</ele>
<time>2026-07-14T11:07:52.000Z</time>
</trkpt>
<trkpt lat="56.990521" lon="8.445877">
<ele>23.617006</ele>
<time>2026-07-14T11:07:53.000Z</time>
</trkpt>
<trkpt lat="56.990557" lon="8.445953">
<ele>23.631381</ele>
<time>2026-07-14T11:07:54.000Z</time>
</trkpt>
<trkpt lat="56.990594" lon="8.446028">
<ele>23.645823</ele>
<time>2026-07-14T11:07:55.000Z</time>
</trkpt>
<trkpt lat="56.990632" lon="8.446103">
<ele>23.660443</ele>
<time>2026-07-14T11:07:56.000Z</time>
</trkpt>
<trkpt lat="56.990670" lon="8.446180">
<ele>23.675272</ele>
<time>2026-07-14T11:07:57.000Z</time>
</trkpt>
<trkpt lat="56.990708" lon="8.446256">
<ele>23.689996</ele>
<time>2026-07-14T11:07:58.000Z</time>
</trkpt>
<trkpt lat="56.990747" lon="8.446333">
<ele>23.705003</ele>
<time>2026-07-14T11:07:59.000Z</time>
</trkpt>
<trkpt lat="56.990786" lon="8.446411">
<ele>23.720115</ele>
<time>2026-07-14T11:08:00.000Z</time>
</trkpt>
<trkpt lat="56.990826" lon="8.446490">
<ele>23.735509</ele>
<time>2026-07-14T11:08:01.000Z</time>
</trkpt>
<trkpt lat="56.990865" lon="8.446569">
<ele>23.750726</ele>
<time>2026-07-14T11:08:02.000Z</time>
</trkpt>
<trkpt lat="56.990905" lon="8.446648">
<ele>23.766120</ele>
<time>2026-07-14T11:08:03.000Z</time>
</trkpt>
<trkpt lat="56.990945" lon="8.446726">
<ele>23.781410</ele>
<time>2026-07-14T11:08:04.000Z</time>
</trkpt>
<trkpt lat="56.990985" lon="8.446804">
<ele>23.796700</ele>
<time>2026-07-14T11:08:05.000Z</time>
</trkpt>
<trkpt lat="56.991027" lon="8.446882">
<ele>23.812354</ele>
<time>2026-07-14T11:08:06.000Z</time>
</trkpt>
<trkpt lat="56.991067" lon="8.446958">
<ele>23.827437</ele>
<time>2026-07-14T11:08:07.000Z</time>
</trkpt>
<trkpt lat="56.991107" lon="8.447036">
<ele>23.842727</ele>
<time>2026-07-14T11:08:08.000Z</time>
</trkpt>
<trkpt lat="56.991147" lon="8.447115">
<ele>23.858121</ele>
<time>2026-07-14T11:08:09.000Z</time>
</trkpt>
<trkpt lat="56.991187" lon="8.447194">
<ele>23.873515</ele>
<time>2026-07-14T11:08:10.000Z</time>
</trkpt>
<trkpt lat="56.991229" lon="8.447272">
<ele>23.889169</ele>
<time>2026-07-14T11:08:11.000Z</time>
</trkpt>
<trkpt lat="56.991269" lon="8.447348">
<ele>23.904253</ele>
<time>2026-07-14T11:08:12.000Z</time>
</trkpt>
<trkpt lat="56.991309" lon="8.447426">
<ele>23.919542</ele>
<time>2026-07-14T11:08:13.000Z</time>
</trkpt>
<trkpt lat="56.991351" lon="8.447503">
<ele>23.935095</ele>
<time>2026-07-14T11:08:14.000Z</time>
</trkpt>
<trkpt lat="56.991393" lon="8.447578">
<ele>23.950447</ele>
<time>2026-07-14T11:08:15.000Z</time>
</trkpt>
<trkpt lat="56.991435" lon="8.447652">
<ele>23.965700</ele>
<time>2026-07-14T11:08:16.000Z</time>
</trkpt>
<trkpt lat="56.991475" lon="8.447727">
<ele>23.979868</ele>
<time>2026-07-14T11:08:17.000Z</time>
</trkpt>
<trkpt lat="56.991515" lon="8.447804">
<ele>23.991883</ele>
<time>2026-07-14T11:08:18.000Z</time>
</trkpt>
<trkpt lat="56.991557" lon="8.447880">
<ele>24.004108</ele>
<time>2026-07-14T11:08:19.000Z</time>
</trkpt>
<trkpt lat="56.991597" lon="8.447953">
<ele>24.015800</ele>
<time>2026-07-14T11:08:20.000Z</time>
</trkpt>
<trkpt lat="56.991637" lon="8.448027">
<ele>24.027572</ele>
<time>2026-07-14T11:08:21.000Z</time>
</trkpt>
<trkpt lat="56.991679" lon="8.448100">
<ele>24.039562</ele>
<time>2026-07-14T11:08:22.000Z</time>
</trkpt>
<trkpt lat="56.991721" lon="8.448174">
<ele>24.051630</ele>
<time>2026-07-14T11:08:23.000Z</time>
</trkpt>
<trkpt lat="56.991761" lon="8.448245">
<ele>24.063164</ele>
<time>2026-07-14T11:08:24.000Z</time>
</trkpt>
<trkpt lat="56.991801" lon="8.448318">
<ele>24.074856</ele>
<time>2026-07-14T11:08:25.000Z</time>
</trkpt>
<trkpt lat="56.991841" lon="8.448391">
<ele>24.086548</ele>
<time>2026-07-14T11:08:26.000Z</time>
</trkpt>
<trkpt lat="56.991881" lon="8.448462">
<ele>24.098082</ele>
<time>2026-07-14T11:08:27.000Z</time>
</trkpt>
<trkpt lat="56.991922" lon="8.448532">
<ele>24.109689</ele>
<time>2026-07-14T11:08:28.000Z</time>
</trkpt>
<trkpt lat="56.991963" lon="8.448602">
<ele>24.121296</ele>
<time>2026-07-14T11:08:29.000Z</time>
</trkpt>
<trkpt lat="56.992003" lon="8.448674">
<ele>24.132909</ele>
<time>2026-07-14T11:08:30.000Z</time>
</trkpt>
<trkpt lat="56.992045" lon="8.448745">
<ele>24.144744</ele>
<time>2026-07-14T11:08:31.000Z</time>
</trkpt>
<trkpt lat="56.992087" lon="8.448815">
<ele>24.156504</ele>
<time>2026-07-14T11:08:32.000Z</time>
</trkpt>
<trkpt lat="56.992129" lon="8.448886">
<ele>24.168339</ele>
<time>2026-07-14T11:08:33.000Z</time>
</trkpt>
<trkpt lat="56.992171" lon="8.448958">
<ele>24.180252</ele>
<time>2026-07-14T11:08:34.000Z</time>
</trkpt>
<trkpt lat="56.992213" lon="8.449028">
<ele>24.192011</ele>
<time>2026-07-14T11:08:35.000Z</time>
</trkpt>
<trkpt lat="56.992255" lon="8.449099">
<ele>24.203847</ele>
<time>2026-07-14T11:08:36.000Z</time>
</trkpt>
<trkpt lat="56.992297" lon="8.449170">
<ele>24.215682</ele>
<time>2026-07-14T11:08:37.000Z</time>
</trkpt>
<trkpt lat="56.992339" lon="8.449242">
<ele>24.227595</ele>
<time>2026-07-14T11:08:38.000Z</time>
</trkpt>
<trkpt lat="56.992381" lon="8.449312">
<ele>24.239354</ele>
<time>2026-07-14T11:08:39.000Z</time>
</trkpt>
<trkpt lat="56.992423" lon="8.449383">
<ele>24.251190</ele>
<time>2026-07-14T11:08:40.000Z</time>
</trkpt>
<trkpt lat="56.992465" lon="8.449454">
<ele>24.263025</ele>
<time>2026-07-14T11:08:41.000Z</time>
</trkpt>
<trkpt lat="56.992507" lon="8.449523">
<ele>24.274709</ele>
<time>2026-07-14T11:08:42.000Z</time>
</trkpt>
<trkpt lat="56.992549" lon="8.449593">
<ele>24.286468</ele>
<time>2026-07-14T11:08:43.000Z</time>
</trkpt>
<trkpt lat="56.992593" lon="8.449665">
<ele>24.298687</ele>
<time>2026-07-14T11:08:44.000Z</time>
</trkpt>
<trkpt lat="56.992637" lon="8.449734">
<ele>24.310683</ele>
<time>2026-07-14T11:08:45.000Z</time>
</trkpt>
<trkpt lat="56.992679" lon="8.449801">
<ele>24.322217</ele>
<time>2026-07-14T11:08:46.000Z</time>
</trkpt>
<trkpt lat="56.992720" lon="8.449869">
<ele>24.333671</ele>
<time>2026-07-14T11:08:47.000Z</time>
</trkpt>
<trkpt lat="56.992762" lon="8.449937">
<ele>24.345280</ele>
<time>2026-07-14T11:08:48.000Z</time>
</trkpt>
<trkpt lat="56.992804" lon="8.450009">
<ele>24.353109</ele>
<time>2026-07-14T11:08:49.000Z</time>
</trkpt>
<trkpt lat="56.992847" lon="8.450082">
<ele>24.358692</ele>
<time>2026-07-14T11:08:50.000Z</time>
</trkpt>
<trkpt lat="56.992890" lon="8.450150">
<ele>24.364101</ele>
<time>2026-07-14T11:08:51.000Z</time>
</trkpt>
<trkpt lat="56.992934" lon="8.450218">
<ele>24.369584</ele>
<time>2026-07-14T11:08:52.000Z</time>
</trkpt>
<trkpt lat="56.992978" lon="8.450285">
<ele>24.375033</ele>
<time>2026-07-14T11:08:53.000Z</time>
</trkpt>
<trkpt lat="56.993022" lon="8.450351">
<ele>24.380449</ele>
<time>2026-07-14T11:08:54.000Z</time>
</trkpt>
<trkpt lat="56.993066" lon="8.450419">
<ele>24.385932</ele>
<time>2026-07-14T11:08:55.000Z</time>
</trkpt>
<trkpt lat="56.993109" lon="8.450488">
<ele>24.391375</ele>
<time>2026-07-14T11:08:56.000Z</time>
</trkpt>
<trkpt lat="56.993152" lon="8.450556">
<ele>24.396785</ele>
<time>2026-07-14T11:08:57.000Z</time>
</trkpt>
<trkpt lat="56.993195" lon="8.450624">
<ele>24.402195</ele>
<time>2026-07-14T11:08:58.000Z</time>
</trkpt>
<trkpt lat="56.993241" lon="8.450691">
<ele>24.407792</ele>
<time>2026-07-14T11:08:59.000Z</time>
</trkpt>
<trkpt lat="56.993283" lon="8.450754">
<ele>24.412962</ele>
<time>2026-07-14T11:09:00.000Z</time>
</trkpt>
<trkpt lat="56.993326" lon="8.450819">
<ele>24.418272</ele>
<time>2026-07-14T11:09:01.000Z</time>
</trkpt>
<trkpt lat="56.993374" lon="8.450890">
<ele>24.424148</ele>
<time>2026-07-14T11:09:02.000Z</time>
</trkpt>
<trkpt lat="56.993418" lon="8.450957">
<ele>24.429597</ele>
<time>2026-07-14T11:09:03.000Z</time>
</trkpt>
<trkpt lat="56.993462" lon="8.451023">
<ele>24.435013</ele>
<time>2026-07-14T11:09:04.000Z</time>
</trkpt>
<trkpt lat="56.993506" lon="8.451089">
<ele>24.440429</ele>
<time>2026-07-14T11:09:05.000Z</time>
</trkpt>
<trkpt lat="56.993550" lon="8.451155">
<ele>24.445845</ele>
<time>2026-07-14T11:09:06.000Z</time>
</trkpt>
<trkpt lat="56.993596" lon="8.451221">
<ele>24.451410</ele>
<time>2026-07-14T11:09:07.000Z</time>
</trkpt>
<trkpt lat="56.993639" lon="8.451286">
<ele>24.456720</ele>
<time>2026-07-14T11:09:08.000Z</time>
</trkpt>
<trkpt lat="56.993685" lon="8.451353">
<ele>24.462317</ele>
<time>2026-07-14T11:09:09.000Z</time>
</trkpt>
<trkpt lat="56.993732" lon="8.451422">
<ele>24.468053</ele>
<time>2026-07-14T11:09:10.000Z</time>
</trkpt>
<trkpt lat="56.993775" lon="8.451490">
<ele>24.473463</ele>
<time>2026-07-14T11:09:11.000Z</time>
</trkpt>
<trkpt lat="56.993819" lon="8.451555">
<ele>24.478846</ele>
<time>2026-07-14T11:09:12.000Z</time>
</trkpt>
<trkpt lat="56.993861" lon="8.451619">
<ele>24.484049</ele>
<time>2026-07-14T11:09:13.000Z</time>
</trkpt>
<trkpt lat="56.993903" lon="8.451683">
<ele>24.489252</ele>
<time>2026-07-14T11:09:14.000Z</time>
</trkpt>
<trkpt lat="56.993947" lon="8.451747">
<ele>24.494603</ele>
<time>2026-07-14T11:09:15.000Z</time>
</trkpt>
<trkpt lat="56.993991" lon="8.451812">
<ele>24.499987</ele>
<time>2026-07-14T11:09:16.000Z</time>
</trkpt>
<trkpt lat="56.994035" lon="8.451877">
<ele>24.505370</ele>
<time>2026-07-14T11:09:17.000Z</time>
</trkpt>
<trkpt lat="56.994079" lon="8.451942">
<ele>24.510753</ele>
<time>2026-07-14T11:09:18.000Z</time>
</trkpt>
<trkpt lat="56.994120" lon="8.452007">
<ele>24.515917</ele>
<time>2026-07-14T11:09:19.000Z</time>
</trkpt>
<trkpt lat="56.994164" lon="8.452071">
<ele>24.521001</ele>
<time>2026-07-14T11:09:20.000Z</time>
</trkpt>
<trkpt lat="56.994208" lon="8.452134">
<ele>24.518826</ele>
<time>2026-07-14T11:09:21.000Z</time>
</trkpt>
<trkpt lat="56.994250" lon="8.452199">
<ele>24.516685</ele>
<time>2026-07-14T11:09:22.000Z</time>
</trkpt>
<trkpt lat="56.994294" lon="8.452264">
<ele>24.514484</ele>
<time>2026-07-14T11:09:23.000Z</time>
</trkpt>
<trkpt lat="56.994338" lon="8.452328">
<ele>24.512296</ele>
<time>2026-07-14T11:09:24.000Z</time>
</trkpt>
<trkpt lat="56.994382" lon="8.452392">
<ele>24.510108</ele>
<time>2026-07-14T11:09:25.000Z</time>
</trkpt>
<trkpt lat="56.994425" lon="8.452454">
<ele>24.507977</ele>
<time>2026-07-14T11:09:26.000Z</time>
</trkpt>
<trkpt lat="56.994467" lon="8.452517">
<ele>24.505863</ele>
<time>2026-07-14T11:09:27.000Z</time>
</trkpt>
<trkpt lat="56.994511" lon="8.452582">
<ele>24.503662</ele>
<time>2026-07-14T11:09:28.000Z</time>
</trkpt>
<trkpt lat="56.994553" lon="8.452644">
<ele>24.501562</ele>
<time>2026-07-14T11:09:29.000Z</time>
</trkpt>
<trkpt lat="56.994593" lon="8.452706">
<ele>24.499521</ele>
<time>2026-07-14T11:09:30.000Z</time>
</trkpt>
<trkpt lat="56.994635" lon="8.452768">
<ele>24.497421</ele>
<time>2026-07-14T11:09:31.000Z</time>
</trkpt>
<trkpt lat="56.994677" lon="8.452830">
<ele>24.495320</ele>
<time>2026-07-14T11:09:32.000Z</time>
</trkpt>
<trkpt lat="56.994719" lon="8.452892">
<ele>24.493220</ele>
<time>2026-07-14T11:09:33.000Z</time>
</trkpt>
<trkpt lat="56.994761" lon="8.452955">
<ele>24.491106</ele>
<time>2026-07-14T11:09:34.000Z</time>
</trkpt>
<trkpt lat="56.994803" lon="8.453017">
<ele>24.489006</ele>
<time>2026-07-14T11:09:35.000Z</time>
</trkpt>
<trkpt lat="56.994845" lon="8.453079">
<ele>24.486905</ele>
<time>2026-07-14T11:09:36.000Z</time>
</trkpt>
<trkpt lat="56.994887" lon="8.453142">
<ele>24.484791</ele>
<time>2026-07-14T11:09:37.000Z</time>
</trkpt>
<trkpt lat="56.994929" lon="8.453205">
<ele>24.482677</ele>
<time>2026-07-14T11:09:38.000Z</time>
</trkpt>
<trkpt lat="56.994971" lon="8.453270">
<ele>24.480536</ele>
<time>2026-07-14T11:09:39.000Z</time>
</trkpt>
<trkpt lat="56.995013" lon="8.453334">
<ele>24.478409</ele>
<time>2026-07-14T11:09:40.000Z</time>
</trkpt>
<trkpt lat="56.995055" lon="8.453396">
<ele>24.476309</ele>
<time>2026-07-14T11:09:41.000Z</time>
</trkpt>
<trkpt lat="56.995097" lon="8.453457">
<ele>24.474221</ele>
<time>2026-07-14T11:09:42.000Z</time>
</trkpt>
<trkpt lat="56.995139" lon="8.453520">
<ele>24.472107</ele>
<time>2026-07-14T11:09:43.000Z</time>
</trkpt>
<trkpt lat="56.995181" lon="8.453582">
<ele>24.470007</ele>
<time>2026-07-14T11:09:44.000Z</time>
</trkpt>
<trkpt lat="56.995223" lon="8.453641">
<ele>24.467946</ele>
<time>2026-07-14T11:09:45.000Z</time>
</trkpt>
<trkpt lat="56.995265" lon="8.453700">
<ele>24.465885</ele>
<time>2026-07-14T11:09:46.000Z</time>
</trkpt>
<trkpt lat="56.995307" lon="8.453761">
<ele>24.463797</ele>
<time>2026-07-14T11:09:47.000Z</time>
</trkpt>
<trkpt lat="56.995347" lon="8.453825">
<ele>24.461729</ele>
<time>2026-07-14T11:09:48.000Z</time>
</trkpt>
<trkpt lat="56.995387" lon="8.453889">
<ele>24.459661</ele>
<time>2026-07-14T11:09:49.000Z</time>
</trkpt>
<trkpt lat="56.995429" lon="8.453953">
<ele>24.457534</ele>
<time>2026-07-14T11:09:50.000Z</time>
</trkpt>
<trkpt lat="56.995473" lon="8.454016">
<ele>24.455359</ele>
<time>2026-07-14T11:09:51.000Z</time>
</trkpt>
<trkpt lat="56.995517" lon="8.454077">
<ele>24.453210</ele>
<time>2026-07-14T11:09:52.000Z</time>
</trkpt>
<trkpt lat="56.995559" lon="8.454141">
<ele>24.451083</ele>
<time>2026-07-14T11:09:53.000Z</time>
</trkpt>
<trkpt lat="56.995601" lon="8.454206">
<ele>24.452853</ele>
<time>2026-07-14T11:09:54.000Z</time>
</trkpt>
<trkpt lat="56.995642" lon="8.454271">
<ele>24.454799</ele>
<time>2026-07-14T11:09:55.000Z</time>
</trkpt>
<trkpt lat="56.995684" lon="8.454334">
<ele>24.456747</ele>
<time>2026-07-14T11:09:56.000Z</time>
</trkpt>
<trkpt lat="56.995726" lon="8.454397">
<ele>24.458696</ele>
<time>2026-07-14T11:09:57.000Z</time>
</trkpt>
<trkpt lat="56.995768" lon="8.454457">
<ele>24.460607</ele>
<time>2026-07-14T11:09:58.000Z</time>
</trkpt>
<trkpt lat="56.995810" lon="8.454519">
<ele>24.462543</ele>
<time>2026-07-14T11:09:59.000Z</time>
</trkpt>
<trkpt lat="56.995854" lon="8.454585">
<ele>24.464585</ele>
<time>2026-07-14T11:10:00.000Z</time>
</trkpt>
<trkpt lat="56.995898" lon="8.454650">
<ele>24.466613</ele>
<time>2026-07-14T11:10:01.000Z</time>
</trkpt>
<trkpt lat="56.995940" lon="8.454716">
<ele>24.468599</ele>
<time>2026-07-14T11:10:02.000Z</time>
</trkpt>
<trkpt lat="56.995984" lon="8.454783">
<ele>24.470653</ele>
<time>2026-07-14T11:10:03.000Z</time>
</trkpt>
<trkpt lat="56.996028" lon="8.454849">
<ele>24.472694</ele>
<time>2026-07-14T11:10:04.000Z</time>
</trkpt>
<trkpt lat="56.996070" lon="8.454914">
<ele>24.474667</ele>
<time>2026-07-14T11:10:05.000Z</time>
</trkpt>
<trkpt lat="56.996114" lon="8.454978">
<ele>24.476684</ele>
<time>2026-07-14T11:10:06.000Z</time>
</trkpt>
<trkpt lat="56.996158" lon="8.455042">
<ele>24.478700</ele>
<time>2026-07-14T11:10:07.000Z</time>
</trkpt>
<trkpt lat="56.996199" lon="8.455106">
<ele>24.480633</ele>
<time>2026-07-14T11:10:08.000Z</time>
</trkpt>
<trkpt lat="56.996241" lon="8.455169">
<ele>24.482582</ele>
<time>2026-07-14T11:10:09.000Z</time>
</trkpt>
<trkpt lat="56.996283" lon="8.455232">
<ele>24.484530</ele>
<time>2026-07-14T11:10:10.000Z</time>
</trkpt>
<trkpt lat="56.996323" lon="8.455293">
<ele>24.486398</ele>
<time>2026-07-14T11:10:11.000Z</time>
</trkpt>
<trkpt lat="56.996363" lon="8.455356">
<ele>24.488291</ele>
<time>2026-07-14T11:10:12.000Z</time>
</trkpt>
<trkpt lat="56.996407" lon="8.455421">
<ele>24.490320</ele>
<time>2026-07-14T11:10:13.000Z</time>
</trkpt>
<trkpt lat="56.996451" lon="8.455485">
<ele>24.492337</ele>
<time>2026-07-14T11:10:14.000Z</time>
</trkpt>
<trkpt lat="56.996493" lon="8.455548">
<ele>24.494285</ele>
<time>2026-07-14T11:10:15.000Z</time>
</trkpt>
<trkpt lat="56.996535" lon="8.455612">
<ele>24.496246</ele>
<time>2026-07-14T11:10:16.000Z</time>
</trkpt>
<trkpt lat="56.996577" lon="8.455674">
<ele>24.498182</ele>
<time>2026-07-14T11:10:17.000Z</time>
</trkpt>
<trkpt lat="56.996619" lon="8.455737">
<ele>24.500130</ele>
<time>2026-07-14T11:10:18.000Z</time>
</trkpt>
<trkpt lat="56.996661" lon="8.455799">
<ele>24.502066</ele>
<time>2026-07-14T11:10:19.000Z</time>
</trkpt>
<trkpt lat="56.996703" lon="8.455861">
<ele>24.504002</ele>
<time>2026-07-14T11:10:20.000Z</time>
</trkpt>
<trkpt lat="56.996747" lon="8.455924">
<ele>24.506006</ele>
<time>2026-07-14T11:10:21.000Z</time>
</trkpt>
<trkpt lat="56.996790" lon="8.455987">
<ele>24.507982</ele>
<time>2026-07-14T11:10:22.000Z</time>
</trkpt>
<trkpt lat="56.996832" lon="8.456050">
<ele>24.509931</ele>
<time>2026-07-14T11:10:23.000Z</time>
</trkpt>
<trkpt lat="56.996874" lon="8.456114">
<ele>24.511891</ele>
<time>2026-07-14T11:10:24.000Z</time>
</trkpt>
<trkpt lat="56.996919" lon="8.456179">
<ele>24.513948</ele>
<time>2026-07-14T11:10:25.000Z</time>
</trkpt>
<trkpt lat="56.996963" lon="8.456243">
<ele>24.515812</ele>
<time>2026-07-14T11:10:26.000Z</time>
</trkpt>
<trkpt lat="56.997006" lon="8.456305">
<ele>24.516979</ele>
<time>2026-07-14T11:10:27.000Z</time>
</trkpt>
<trkpt lat="56.997048" lon="8.456367">
<ele>24.518128</ele>
<time>2026-07-14T11:10:28.000Z</time>
</trkpt>
<trkpt lat="56.997088" lon="8.456431">
<ele>24.519260</ele>
<time>2026-07-14T11:10:29.000Z</time>
</trkpt>
<trkpt lat="56.997132" lon="8.456496">
<ele>24.520465</ele>
<time>2026-07-14T11:10:30.000Z</time>
</trkpt>
<trkpt lat="56.997175" lon="8.456558">
<ele>24.521631</ele>
<time>2026-07-14T11:10:31.000Z</time>
</trkpt>
<trkpt lat="56.997217" lon="8.456622">
<ele>24.522796</ele>
<time>2026-07-14T11:10:32.000Z</time>
</trkpt>
<trkpt lat="56.997260" lon="8.456688">
<ele>24.523991</ele>
<time>2026-07-14T11:10:33.000Z</time>
</trkpt>
<trkpt lat="56.997302" lon="8.456752">
<ele>24.525156</ele>
<time>2026-07-14T11:10:34.000Z</time>
</trkpt>
<trkpt lat="56.997346" lon="8.456817">
<ele>24.526361</ele>
<time>2026-07-14T11:10:35.000Z</time>
</trkpt>
<trkpt lat="56.997390" lon="8.456882">
<ele>24.527565</ele>
<time>2026-07-14T11:10:36.000Z</time>
</trkpt>
<trkpt lat="56.997432" lon="8.456947">
<ele>24.528737</ele>
<time>2026-07-14T11:10:37.000Z</time>
</trkpt>
<trkpt lat="56.997475" lon="8.457011">
<ele>24.529918</ele>
<time>2026-07-14T11:10:38.000Z</time>
</trkpt>
<trkpt lat="56.997519" lon="8.457072">
<ele>24.531094</ele>
<time>2026-07-14T11:10:39.000Z</time>
</trkpt>
<trkpt lat="56.997561" lon="8.457132">
<ele>24.532230</ele>
<time>2026-07-14T11:10:40.000Z</time>
</trkpt>
<trkpt lat="56.997603" lon="8.457190">
<ele>24.533351</ele>
<time>2026-07-14T11:10:41.000Z</time>
</trkpt>
<trkpt lat="56.997643" lon="8.457250">
<ele>24.534453</ele>
<time>2026-07-14T11:10:42.000Z</time>
</trkpt>
<trkpt lat="56.997683" lon="8.457312">
<ele>24.535570</ele>
<time>2026-07-14T11:10:43.000Z</time>
</trkpt>
<trkpt lat="56.997723" lon="8.457371">
<ele>24.536664</ele>
<time>2026-07-14T11:10:44.000Z</time>
</trkpt>
<trkpt lat="56.997761" lon="8.457426">
<ele>24.537696</ele>
<time>2026-07-14T11:10:45.000Z</time>
</trkpt>
<trkpt lat="56.997799" lon="8.457481">
<ele>24.538729</ele>
<time>2026-07-14T11:10:46.000Z</time>
</trkpt>
<trkpt lat="56.997836" lon="8.457537">
<ele>24.539752</ele>
<time>2026-07-14T11:10:47.000Z</time>
</trkpt>
<trkpt lat="56.997869" lon="8.457588">
<ele>24.540672</ele>
<time>2026-07-14T11:10:48.000Z</time>
</trkpt>
<trkpt lat="56.997904" lon="8.457638">
<ele>24.541618</ele>
<time>2026-07-14T11:10:49.000Z</time>
</trkpt>
<trkpt lat="56.997936" lon="8.457688">
<ele>24.542514</ele>
<time>2026-07-14T11:10:50.000Z</time>
</trkpt>
<trkpt lat="56.997969" lon="8.457735">
<ele>24.543405</ele>
<time>2026-07-14T11:10:51.000Z</time>
</trkpt>
<trkpt lat="56.998002" lon="8.457782">
<ele>24.544296</ele>
<time>2026-07-14T11:10:52.000Z</time>
</trkpt>
<trkpt lat="56.998034" lon="8.457831">
<ele>24.545185</ele>
<time>2026-07-14T11:10:53.000Z</time>
</trkpt>
<trkpt lat="56.998066" lon="8.457881">
<ele>24.546082</ele>
<time>2026-07-14T11:10:54.000Z</time>
</trkpt>
<trkpt lat="56.998097" lon="8.457930">
<ele>24.546954</ele>
<time>2026-07-14T11:10:55.000Z</time>
</trkpt>
<trkpt lat="56.998129" lon="8.457979">
<ele>24.547843</ele>
<time>2026-07-14T11:10:56.000Z</time>
</trkpt>
<trkpt lat="56.998162" lon="8.458029">
<ele>24.548756</ele>
<time>2026-07-14T11:10:57.000Z</time>
</trkpt>
<trkpt lat="56.998192" lon="8.458080">
<ele>24.549628</ele>
<time>2026-07-14T11:10:58.000Z</time>
</trkpt>
<trkpt lat="56.998226" lon="8.458131">
<ele>24.550565</ele>
<time>2026-07-14T11:10:59.000Z</time>
</trkpt>
<trkpt lat="56.998262" lon="8.458182">
<ele>24.551535</ele>
<time>2026-07-14T11:11:00.000Z</time>
</trkpt>
<trkpt lat="56.998299" lon="8.458234">
<ele>24.552529</ele>
<time>2026-07-14T11:11:01.000Z</time>
</trkpt>
<trkpt lat="56.998337" lon="8.458289">
<ele>24.553561</ele>
<time>2026-07-14T11:11:02.000Z</time>
</trkpt>
<trkpt lat="56.998375" lon="8.458346">
<ele>24.550994</ele>
<time>2026-07-14T11:11:03.000Z</time>
</trkpt>
<trkpt lat="56.998415" lon="8.458405">
<ele>24.545986</ele>
<time>2026-07-14T11:11:04.000Z</time>
</trkpt>
<trkpt lat="56.998455" lon="8.458464">
<ele>24.540978</ele>
<time>2026-07-14T11:11:05.000Z</time>
</trkpt>
<trkpt lat="56.998495" lon="8.458524">
<ele>24.535937</ele>
<time>2026-07-14T11:11:06.000Z</time>
</trkpt>
<trkpt lat="56.998535" lon="8.458585">
<ele>24.530862</ele>
<time>2026-07-14T11:11:07.000Z</time>
</trkpt>
<trkpt lat="56.998575" lon="8.458646">
<ele>24.525786</ele>
<time>2026-07-14T11:11:08.000Z</time>
</trkpt>
<trkpt lat="56.998616" lon="8.458709">
<ele>24.520568</ele>
<time>2026-07-14T11:11:09.000Z</time>
</trkpt>
<trkpt lat="56.998658" lon="8.458772">
<ele>24.515275</ele>
<time>2026-07-14T11:11:10.000Z</time>
</trkpt>
<trkpt lat="56.998701" lon="8.458834">
<ele>24.509938</ele>
<time>2026-07-14T11:11:11.000Z</time>
</trkpt>
<trkpt lat="56.998747" lon="8.458897">
<ele>24.504337</ele>
<time>2026-07-14T11:11:12.000Z</time>
</trkpt>
<trkpt lat="56.998790" lon="8.458962">
<ele>24.498901</ele>
<time>2026-07-14T11:11:13.000Z</time>
</trkpt>
<trkpt lat="56.998830" lon="8.459025">
<ele>24.493757</ele>
<time>2026-07-14T11:11:14.000Z</time>
</trkpt>
<trkpt lat="56.998872" lon="8.459086">
<ele>24.488531</ele>
<time>2026-07-14T11:11:15.000Z</time>
</trkpt>
<trkpt lat="56.998923" lon="8.459158">
<ele>24.482251</ele>
<time>2026-07-14T11:11:16.000Z</time>
</trkpt>
<trkpt lat="56.998968" lon="8.459219">
<ele>24.476792</ele>
<time>2026-07-14T11:11:17.000Z</time>
</trkpt>
<trkpt lat="56.999011" lon="8.459281">
<ele>24.471456</ele>
<time>2026-07-14T11:11:18.000Z</time>
</trkpt>
<trkpt lat="56.999050" lon="8.459343">
<ele>24.466421</ele>
<time>2026-07-14T11:11:19.000Z</time>
</trkpt>
<trkpt lat="56.999090" lon="8.459403">
<ele>24.461379</ele>
<time>2026-07-14T11:11:20.000Z</time>
</trkpt>
<trkpt lat="56.999140" lon="8.459475">
<ele>24.455177</ele>
<time>2026-07-14T11:11:21.000Z</time>
</trkpt>
<trkpt lat="56.999186" lon="8.459542">
<ele>24.449446</ele>
<time>2026-07-14T11:11:22.000Z</time>
</trkpt>
<trkpt lat="56.999230" lon="8.459605">
<ele>24.444001</ele>
<time>2026-07-14T11:11:23.000Z</time>
</trkpt>
<trkpt lat="56.999274" lon="8.459672">
<ele>24.438421</ele>
<time>2026-07-14T11:11:24.000Z</time>
</trkpt>
<trkpt lat="56.999316" lon="8.459742">
<ele>24.432885</ele>
<time>2026-07-14T11:11:25.000Z</time>
</trkpt>
<trkpt lat="56.999360" lon="8.459813">
<ele>24.427168</ele>
<time>2026-07-14T11:11:26.000Z</time>
</trkpt>
<trkpt lat="56.999406" lon="8.459883">
<ele>24.421336</ele>
<time>2026-07-14T11:11:27.000Z</time>
</trkpt>
<trkpt lat="56.999452" lon="8.459950">
<ele>24.415606</ele>
<time>2026-07-14T11:11:28.000Z</time>
</trkpt>
<trkpt lat="56.999495" lon="8.460017">
<ele>24.410101</ele>
<time>2026-07-14T11:11:29.000Z</time>
</trkpt>
<trkpt lat="56.999539" lon="8.460085">
<ele>24.404488</ele>
<time>2026-07-14T11:11:30.000Z</time>
</trkpt>
<trkpt lat="56.999583" lon="8.460151">
<ele>24.398942</ele>
<time>2026-07-14T11:11:31.000Z</time>
</trkpt>
<trkpt lat="56.999624" lon="8.460213">
<ele>24.393758</ele>
<time>2026-07-14T11:11:32.000Z</time>
</trkpt>
<trkpt lat="56.999666" lon="8.460278">
<ele>24.388397</ele>
<time>2026-07-14T11:11:33.000Z</time>
</trkpt>
<trkpt lat="56.999711" lon="8.460343">
<ele>24.382809</ele>
<time>2026-07-14T11:11:34.000Z</time>
</trkpt>
<trkpt lat="56.999755" lon="8.460406">
<ele>24.379337</ele>
<time>2026-07-14T11:11:35.000Z</time>
</trkpt>
<trkpt lat="56.999798" lon="8.460471">
<ele>24.384155</ele>
<time>2026-07-14T11:11:36.000Z</time>
</trkpt>
<trkpt lat="56.999841" lon="8.460536">
<ele>24.388974</ele>
<time>2026-07-14T11:11:37.000Z</time>
</trkpt>
<trkpt lat="56.999885" lon="8.460603">
<ele>24.393919</ele>
<time>2026-07-14T11:11:38.000Z</time>
</trkpt>
<trkpt lat="56.999932" lon="8.460671">
<ele>24.399096</ele>
<time>2026-07-14T11:11:39.000Z</time>
</trkpt>
<trkpt lat="56.999978" lon="8.460738">
<ele>24.404176</ele>
<time>2026-07-14T11:11:40.000Z</time>
</trkpt>
<trkpt lat="57.000022" lon="8.460804">
<ele>24.409092</ele>
<time>2026-07-14T11:11:41.000Z</time>
</trkpt>
<trkpt lat="57.000065" lon="8.460872">
<ele>24.414001</ele>
<time>2026-07-14T11:11:42.000Z</time>
</trkpt>
<trkpt lat="57.000112" lon="8.460941">
<ele>24.419208</ele>
<time>2026-07-14T11:11:43.000Z</time>
</trkpt>
<trkpt lat="57.000155" lon="8.461008">
<ele>24.424087</ele>
<time>2026-07-14T11:11:44.000Z</time>
</trkpt>
<trkpt lat="57.000199" lon="8.461074">
<ele>24.429002</ele>
<time>2026-07-14T11:11:45.000Z</time>
</trkpt>
<trkpt lat="57.000245" lon="8.461142">
<ele>24.434111</ele>
<time>2026-07-14T11:11:46.000Z</time>
</trkpt>
<trkpt lat="57.000289" lon="8.461210">
<ele>24.439087</ele>
<time>2026-07-14T11:11:47.000Z</time>
</trkpt>
<trkpt lat="57.000333" lon="8.461276">
<ele>24.444002</ele>
<time>2026-07-14T11:11:48.000Z</time>
</trkpt>
<trkpt lat="57.000377" lon="8.461342">
<ele>24.448918</ele>
<time>2026-07-14T11:11:49.000Z</time>
</trkpt>
<trkpt lat="57.000421" lon="8.461407">
<ele>24.453804</ele>
<time>2026-07-14T11:11:50.000Z</time>
</trkpt>
<trkpt lat="57.000464" lon="8.461473">
<ele>24.458652</ele>
<time>2026-07-14T11:11:51.000Z</time>
</trkpt>
<trkpt lat="57.000505" lon="8.461538">
<ele>24.463339</ele>
<time>2026-07-14T11:11:52.000Z</time>
</trkpt>
<trkpt lat="57.000547" lon="8.461604">
<ele>24.468121</ele>
<time>2026-07-14T11:11:53.000Z</time>
</trkpt>
<trkpt lat="57.000592" lon="8.461670">
<ele>24.473104</ele>
<time>2026-07-14T11:11:54.000Z</time>
</trkpt>
<trkpt lat="57.000636" lon="8.461735">
<ele>24.477990</ele>
<time>2026-07-14T11:11:55.000Z</time>
</trkpt>
<trkpt lat="57.000680" lon="8.461797">
<ele>24.482788</ele>
<time>2026-07-14T11:11:56.000Z</time>
</trkpt>
<trkpt lat="57.000722" lon="8.461858">
<ele>24.487421</ele>
<time>2026-07-14T11:11:57.000Z</time>
</trkpt>
<trkpt lat="57.000764" lon="8.461921">
<ele>24.492113</ele>
<time>2026-07-14T11:11:58.000Z</time>
</trkpt>
<trkpt lat="57.000810" lon="8.461987">
<ele>24.497164</ele>
<time>2026-07-14T11:11:59.000Z</time>
</trkpt>
<trkpt lat="57.000853" lon="8.462050">
<ele>24.501923</ele>
<time>2026-07-14T11:12:00.000Z</time>
</trkpt>
<trkpt lat="57.000895" lon="8.462114">
<ele>24.506645</ele>
<time>2026-07-14T11:12:01.000Z</time>
</trkpt>
<trkpt lat="57.000939" lon="8.462180">
<ele>24.511561</ele>
<time>2026-07-14T11:12:02.000Z</time>
</trkpt>
<trkpt lat="57.000983" lon="8.462246">
<ele>24.516476</ele>
<time>2026-07-14T11:12:03.000Z</time>
</trkpt>
<trkpt lat="57.001027" lon="8.462310">
<ele>24.521332</ele>
<time>2026-07-14T11:12:04.000Z</time>
</trkpt>
<trkpt lat="57.001073" lon="8.462374">
<ele>24.526325</ele>
<time>2026-07-14T11:12:05.000Z</time>
</trkpt>
<trkpt lat="57.001117" lon="8.462439">
<ele>24.531211</ele>
<time>2026-07-14T11:12:06.000Z</time>
</trkpt>
<trkpt lat="57.001159" lon="8.462505">
<ele>24.522066</ele>
<time>2026-07-14T11:12:07.000Z</time>
</trkpt>
<trkpt lat="57.001203" lon="8.462572">
<ele>24.492152</ele>
<time>2026-07-14T11:12:08.000Z</time>
</trkpt>
<trkpt lat="57.001247" lon="8.462638">
<ele>24.462419</ele>
<time>2026-07-14T11:12:09.000Z</time>
</trkpt>
<trkpt lat="57.001288" lon="8.462702">
<ele>24.434257</ele>
<time>2026-07-14T11:12:10.000Z</time>
</trkpt>
<trkpt lat="57.001332" lon="8.462768">
<ele>24.404524</ele>
<time>2026-07-14T11:12:11.000Z</time>
</trkpt>
<trkpt lat="57.001378" lon="8.462835">
<ele>24.373797</ele>
<time>2026-07-14T11:12:12.000Z</time>
</trkpt>
<trkpt lat="57.001422" lon="8.462901">
<ele>24.344064</ele>
<time>2026-07-14T11:12:13.000Z</time>
</trkpt>
<trkpt lat="57.001465" lon="8.462967">
<ele>24.314734</ele>
<time>2026-07-14T11:12:14.000Z</time>
</trkpt>
<trkpt lat="57.001511" lon="8.463032">
<ele>24.284358</ele>
<time>2026-07-14T11:12:15.000Z</time>
</trkpt>
<trkpt lat="57.001555" lon="8.463096">
<ele>24.254982</ele>
<time>2026-07-14T11:12:16.000Z</time>
</trkpt>
<trkpt lat="57.001597" lon="8.463159">
<ele>24.226601</ele>
<time>2026-07-14T11:12:17.000Z</time>
</trkpt>
<trkpt lat="57.001639" lon="8.463218">
<ele>24.198926</ele>
<time>2026-07-14T11:12:18.000Z</time>
</trkpt>
<trkpt lat="57.001683" lon="8.463264">
<ele>24.172429</ele>
<time>2026-07-14T11:12:19.000Z</time>
</trkpt>
<trkpt lat="57.001731" lon="8.463284">
<ele>24.146671</ele>
<time>2026-07-14T11:12:20.000Z</time>
</trkpt>
<trkpt lat="57.001781" lon="8.463271">
<ele>24.120244</ele>
<time>2026-07-14T11:12:21.000Z</time>
</trkpt>
<trkpt lat="57.001828" lon="8.463233">
<ele>24.093369</ele>
<time>2026-07-14T11:12:22.000Z</time>
</trkpt>
<trkpt lat="57.001871" lon="8.463181">
<ele>24.066424</ele>
<time>2026-07-14T11:12:23.000Z</time>
</trkpt>
<trkpt lat="57.001913" lon="8.463124">
<ele>24.039092</ele>
<time>2026-07-14T11:12:24.000Z</time>
</trkpt>
<trkpt lat="57.001956" lon="8.463067">
<ele>24.011338</ele>
<time>2026-07-14T11:12:25.000Z</time>
</trkpt>
<trkpt lat="57.002000" lon="8.463013">
<ele>23.983642</ele>
<time>2026-07-14T11:12:26.000Z</time>
</trkpt>
<trkpt lat="57.002048" lon="8.462967">
<ele>23.955306</ele>
<time>2026-07-14T11:12:27.000Z</time>
</trkpt>
<trkpt lat="57.002097" lon="8.462933">
<ele>23.927894</ele>
<time>2026-07-14T11:12:28.000Z</time>
</trkpt>
<trkpt lat="57.002146" lon="8.462905">
<ele>23.901038</ele>
<time>2026-07-14T11:12:29.000Z</time>
</trkpt>
<trkpt lat="57.002196" lon="8.462877">
<ele>23.873682</ele>
<time>2026-07-14T11:12:30.000Z</time>
</trkpt>
<trkpt lat="57.002244" lon="8.462844">
<ele>23.846859</ele>
<time>2026-07-14T11:12:31.000Z</time>
</trkpt>
<trkpt lat="57.002289" lon="8.462804">
<ele>23.820695</ele>
<time>2026-07-14T11:12:32.000Z</time>
</trkpt>
<trkpt lat="57.002333" lon="8.462756">
<ele>23.793912</ele>
<time>2026-07-14T11:12:33.000Z</time>
</trkpt>
<trkpt lat="57.002376" lon="8.462704">
<ele>23.766967</ele>
<time>2026-07-14T11:12:34.000Z</time>
</trkpt>
<trkpt lat="57.002416" lon="8.462652">
<ele>23.741319</ele>
<time>2026-07-14T11:12:35.000Z</time>
</trkpt>
<trkpt lat="57.002452" lon="8.462597">
<ele>23.716811</ele>
<time>2026-07-14T11:12:36.000Z</time>
</trkpt>
<trkpt lat="57.002484" lon="8.462539">
<ele>23.693280</ele>
<time>2026-07-14T11:12:37.000Z</time>
</trkpt>
<trkpt lat="57.002517" lon="8.462481">
<ele>23.669374</ele>
<time>2026-07-14T11:12:38.000Z</time>
</trkpt>
<trkpt lat="57.002549" lon="8.462437">
<ele>23.648453</ele>
<time>2026-07-14T11:12:39.000Z</time>
</trkpt>
<trkpt lat="57.002579" lon="8.462417">
<ele>23.631750</ele>
<time>2026-07-14T11:12:40.000Z</time>
</trkpt>
<trkpt lat="57.002610" lon="8.462419">
<ele>23.615517</ele>
<time>2026-07-14T11:12:41.000Z</time>
</trkpt>
<trkpt lat="57.002640" lon="8.462422">
<ele>23.599794</ele>
<time>2026-07-14T11:12:42.000Z</time>
</trkpt>
<trkpt lat="57.002671" lon="8.462407">
<ele>23.579087</ele>
<time>2026-07-14T11:12:43.000Z</time>
</trkpt>
<trkpt lat="57.002703" lon="8.462371">
<ele>23.551511</ele>
<time>2026-07-14T11:12:44.000Z</time>
</trkpt>
<trkpt lat="57.002739" lon="8.462323">
<ele>23.518820</ele>
<time>2026-07-14T11:12:45.000Z</time>
</trkpt>
<trkpt lat="57.002774" lon="8.462266">
<ele>23.484444</ele>
<time>2026-07-14T11:12:46.000Z</time>
</trkpt>
<trkpt lat="57.002804" lon="8.462205">
<ele>23.451553</ele>
<time>2026-07-14T11:12:47.000Z</time>
</trkpt>
<trkpt lat="57.002837" lon="8.462141">
<ele>23.416283</ele>
<time>2026-07-14T11:12:48.000Z</time>
</trkpt>
<trkpt lat="57.002873" lon="8.462075">
<ele>23.378903</ele>
<time>2026-07-14T11:12:49.000Z</time>
</trkpt>
<trkpt lat="57.002911" lon="8.462008">
<ele>23.340192</ele>
<time>2026-07-14T11:12:50.000Z</time>
</trkpt>
<trkpt lat="57.002951" lon="8.461944">
<ele>23.301207</ele>
<time>2026-07-14T11:12:51.000Z</time>
</trkpt>
<trkpt lat="57.002992" lon="8.461879">
<ele>23.261405</ele>
<time>2026-07-14T11:12:52.000Z</time>
</trkpt>
<trkpt lat="57.003032" lon="8.461812">
<ele>23.221621</ele>
<time>2026-07-14T11:12:53.000Z</time>
</trkpt>
<trkpt lat="57.003071" lon="8.461746">
<ele>23.182649</ele>
<time>2026-07-14T11:12:54.000Z</time>
</trkpt>
<trkpt lat="57.003111" lon="8.461680">
<ele>23.143134</ele>
<time>2026-07-14T11:12:55.000Z</time>
</trkpt>
<trkpt lat="57.003151" lon="8.461613">
<ele>23.103350</ele>
<time>2026-07-14T11:12:56.000Z</time>
</trkpt>
<trkpt lat="57.003192" lon="8.461547">
<ele>23.063286</ele>
<time>2026-07-14T11:12:57.000Z</time>
</trkpt>
<trkpt lat="57.003234" lon="8.461484">
<ele>23.023436</ele>
<time>2026-07-14T11:12:58.000Z</time>
</trkpt>
<trkpt lat="57.003276" lon="8.461420">
<ele>22.983331</ele>
<time>2026-07-14T11:12:59.000Z</time>
</trkpt>
<trkpt lat="57.003318" lon="8.461358">
<ele>22.943733</ele>
<time>2026-07-14T11:13:00.000Z</time>
</trkpt>
<trkpt lat="57.003360" lon="8.461295">
<ele>22.903883</ele>
<time>2026-07-14T11:13:01.000Z</time>
</trkpt>
<trkpt lat="57.003402" lon="8.461229">
<ele>22.863263</ele>
<time>2026-07-14T11:13:02.000Z</time>
</trkpt>
<trkpt lat="57.003444" lon="8.461163">
<ele>22.822643</ele>
<time>2026-07-14T11:13:03.000Z</time>
</trkpt>
<trkpt lat="57.003485" lon="8.461097">
<ele>22.782579</ele>
<time>2026-07-14T11:13:04.000Z</time>
</trkpt>
<trkpt lat="57.003527" lon="8.461032">
<ele>22.742218</ele>
<time>2026-07-14T11:13:05.000Z</time>
</trkpt>
<trkpt lat="57.003569" lon="8.460970">
<ele>22.702620</ele>
<time>2026-07-14T11:13:06.000Z</time>
</trkpt>
<trkpt lat="57.003611" lon="8.460908">
<ele>22.663022</ele>
<time>2026-07-14T11:13:07.000Z</time>
</trkpt>
<trkpt lat="57.003651" lon="8.460846">
<ele>22.624558</ele>
<time>2026-07-14T11:13:08.000Z</time>
</trkpt>
<trkpt lat="57.003689" lon="8.460786">
<ele>22.587733</ele>
<time>2026-07-14T11:13:09.000Z</time>
</trkpt>
<trkpt lat="57.003728" lon="8.460725">
<ele>22.550088</ele>
<time>2026-07-14T11:13:10.000Z</time>
</trkpt>
<trkpt lat="57.003764" lon="8.460665">
<ele>22.514364</ele>
<time>2026-07-14T11:13:11.000Z</time>
</trkpt>
<trkpt lat="57.003802" lon="8.460607">
<ele>22.478055</ele>
<time>2026-07-14T11:13:12.000Z</time>
</trkpt>
<trkpt lat="57.003841" lon="8.460546">
<ele>22.440411</ele>
<time>2026-07-14T11:13:13.000Z</time>
</trkpt>
<trkpt lat="57.003884" lon="8.460482">
<ele>22.399739</ele>
<time>2026-07-14T11:13:14.000Z</time>
</trkpt>
<trkpt lat="57.003928" lon="8.460415">
<ele>22.357737</ele>
<time>2026-07-14T11:13:15.000Z</time>
</trkpt>
<trkpt lat="57.003970" lon="8.460348">
<ele>22.316856</ele>
<time>2026-07-14T11:13:16.000Z</time>
</trkpt>
<trkpt lat="57.004012" lon="8.460281">
<ele>22.275975</ele>
<time>2026-07-14T11:13:17.000Z</time>
</trkpt>
<trkpt lat="57.004053" lon="8.460211">
<ele>22.241421</ele>
<time>2026-07-14T11:13:18.000Z</time>
</trkpt>
<trkpt lat="57.004095" lon="8.460140">
<ele>22.207090</ele>
<time>2026-07-14T11:13:19.000Z</time>
</trkpt>
<trkpt lat="57.004136" lon="8.460066">
<ele>22.172517</ele>
<time>2026-07-14T11:13:20.000Z</time>
</trkpt>
<trkpt lat="57.004174" lon="8.459991">
<ele>22.138968</ele>
<time>2026-07-14T11:13:21.000Z</time>
</trkpt>
<trkpt lat="57.004210" lon="8.459911">
<ele>22.104980</ele>
<time>2026-07-14T11:13:22.000Z</time>
</trkpt>
<trkpt lat="57.004244" lon="8.459828">
<ele>22.070966</ele>
<time>2026-07-14T11:13:23.000Z</time>
</trkpt>
<trkpt lat="57.004273" lon="8.459740">
<ele>22.037280</ele>
<time>2026-07-14T11:13:24.000Z</time>
</trkpt>
<trkpt lat="57.004296" lon="8.459647">
<ele>22.003829</ele>
<time>2026-07-14T11:13:25.000Z</time>
</trkpt>
<trkpt lat="57.004319" lon="8.459554">
<ele>21.970378</ele>
<time>2026-07-14T11:13:26.000Z</time>
</trkpt>
<trkpt lat="57.004341" lon="8.459459">
<ele>21.936570</ele>
<time>2026-07-14T11:13:27.000Z</time>
</trkpt>
<trkpt lat="57.004362" lon="8.459362">
<ele>21.902385</ele>
<time>2026-07-14T11:13:28.000Z</time>
</trkpt>
<trkpt lat="57.004381" lon="8.459263">
<ele>21.868008</ele>
<time>2026-07-14T11:13:29.000Z</time>
</trkpt>
<trkpt lat="57.004402" lon="8.459163">
<ele>21.832908</ele>
<time>2026-07-14T11:13:30.000Z</time>
</trkpt>
<trkpt lat="57.004423" lon="8.459062">
<ele>21.797501</ele>
<time>2026-07-14T11:13:31.000Z</time>
</trkpt>
<trkpt lat="57.004444" lon="8.458961">
<ele>21.762095</ele>
<time>2026-07-14T11:13:32.000Z</time>
</trkpt>
<trkpt lat="57.004467" lon="8.458862">
<ele>21.726846</ele>
<time>2026-07-14T11:13:33.000Z</time>
</trkpt>
<trkpt lat="57.004488" lon="8.458762">
<ele>21.691746</ele>
<time>2026-07-14T11:13:34.000Z</time>
</trkpt>
<trkpt lat="57.004509" lon="8.458662">
<ele>21.656646</ele>
<time>2026-07-14T11:13:35.000Z</time>
</trkpt>
<trkpt lat="57.004532" lon="8.458562">
<ele>21.621095</ele>
<time>2026-07-14T11:13:36.000Z</time>
</trkpt>
<trkpt lat="57.004553" lon="8.458461">
<ele>21.585689</ele>
<time>2026-07-14T11:13:37.000Z</time>
</trkpt>
<trkpt lat="57.004572" lon="8.458357">
<ele>21.549764</ele>
<time>2026-07-14T11:13:38.000Z</time>
</trkpt>
<trkpt lat="57.004589" lon="8.458253">
<ele>21.514203</ele>
<time>2026-07-14T11:13:39.000Z</time>
</trkpt>
<trkpt lat="57.004609" lon="8.458152">
<ele>21.479007</ele>
<time>2026-07-14T11:13:40.000Z</time>
</trkpt>
<trkpt lat="57.004629" lon="8.458055">
<ele>21.445040</ele>
<time>2026-07-14T11:13:41.000Z</time>
</trkpt>
<trkpt lat="57.004647" lon="8.457955">
<ele>21.410548</ele>
<time>2026-07-14T11:13:42.000Z</time>
</trkpt>
<trkpt lat="57.004667" lon="8.457850">
<ele>21.374118</ele>
<time>2026-07-14T11:13:43.000Z</time>
</trkpt>
<trkpt lat="57.004686" lon="8.457748">
<ele>21.338813</ele>
<time>2026-07-14T11:13:44.000Z</time>
</trkpt>
<trkpt lat="57.004706" lon="8.457647">
<ele>21.303618</ele>
<time>2026-07-14T11:13:45.000Z</time>
</trkpt>
<trkpt lat="57.004725" lon="8.457549">
<ele>21.269550</ele>
<time>2026-07-14T11:13:46.000Z</time>
</trkpt>
<trkpt lat="57.004744" lon="8.457451">
<ele>21.235482</ele>
<time>2026-07-14T11:13:47.000Z</time>
</trkpt>
<trkpt lat="57.004763" lon="8.457352">
<ele>21.201106</ele>
<time>2026-07-14T11:13:48.000Z</time>
</trkpt>
<trkpt lat="57.004780" lon="8.457253">
<ele>21.175585</ele>
<time>2026-07-14T11:13:49.000Z</time>
</trkpt>
<trkpt lat="57.004797" lon="8.457157">
<ele>21.155081</ele>
<time>2026-07-14T11:13:50.000Z</time>
</trkpt>
<trkpt lat="57.004816" lon="8.457064">
<ele>21.134906</ele>
<time>2026-07-14T11:13:51.000Z</time>
</trkpt>
<trkpt lat="57.004835" lon="8.456971">
<ele>21.114732</ele>
<time>2026-07-14T11:13:52.000Z</time>
</trkpt>
<trkpt lat="57.004855" lon="8.456877">
<ele>21.094233</ele>
<time>2026-07-14T11:13:53.000Z</time>
</trkpt>
<trkpt lat="57.004873" lon="8.456785">
<ele>21.074378</ele>
<time>2026-07-14T11:13:54.000Z</time>
</trkpt>
<trkpt lat="57.004892" lon="8.456691">
<ele>21.054013</ele>
<time>2026-07-14T11:13:55.000Z</time>
</trkpt>
<trkpt lat="57.004912" lon="8.456592">
<ele>21.032565</ele>
<time>2026-07-14T11:13:56.000Z</time>
</trkpt>
<trkpt lat="57.004931" lon="8.456494">
<ele>21.011437</ele>
<time>2026-07-14T11:13:57.000Z</time>
</trkpt>
<trkpt lat="57.004952" lon="8.456399">
<ele>20.990612</ele>
<time>2026-07-14T11:13:58.000Z</time>
</trkpt>
<trkpt lat="57.004972" lon="8.456305">
<ele>20.970114</ele>
<time>2026-07-14T11:13:59.000Z</time>
</trkpt>
<trkpt lat="57.004992" lon="8.456208">
<ele>20.949047</ele>
<time>2026-07-14T11:14:00.000Z</time>
</trkpt>
<trkpt lat="57.005011" lon="8.456108">
<ele>20.927536</ele>
<time>2026-07-14T11:14:01.000Z</time>
</trkpt>
<trkpt lat="57.005030" lon="8.456011">
<ele>20.906598</ele>
<time>2026-07-14T11:14:02.000Z</time>
</trkpt>
<trkpt lat="57.005049" lon="8.455916">
<ele>20.886042</ele>
<time>2026-07-14T11:14:03.000Z</time>
</trkpt>
<trkpt lat="57.005068" lon="8.455822">
<ele>20.865677</ele>
<time>2026-07-14T11:14:04.000Z</time>
</trkpt>
<trkpt lat="57.005087" lon="8.455729">
<ele>20.845502</ele>
<time>2026-07-14T11:14:05.000Z</time>
</trkpt>
<trkpt lat="57.005104" lon="8.455635">
<ele>20.825385</ele>
<time>2026-07-14T11:14:06.000Z</time>
</trkpt>
<trkpt lat="57.005122" lon="8.455543">
<ele>20.805529</ele>
<time>2026-07-14T11:14:07.000Z</time>
</trkpt>
<trkpt lat="57.005139" lon="8.455453">
<ele>20.786181</ele>
<time>2026-07-14T11:14:08.000Z</time>
</trkpt>
<trkpt lat="57.005156" lon="8.455360">
<ele>20.766256</ele>
<time>2026-07-14T11:14:09.000Z</time>
</trkpt>
<trkpt lat="57.005175" lon="8.455264">
<ele>20.745509</ele>
<time>2026-07-14T11:14:10.000Z</time>
</trkpt>
<trkpt lat="57.005192" lon="8.455168">
<ele>20.725006</ele>
<time>2026-07-14T11:14:11.000Z</time>
</trkpt>
<trkpt lat="57.005209" lon="8.455073">
<ele>20.704695</ele>
<time>2026-07-14T11:14:12.000Z</time>
</trkpt>
<trkpt lat="57.005230" lon="8.454980">
<ele>20.684246</ele>
<time>2026-07-14T11:14:13.000Z</time>
</trkpt>
<trkpt lat="57.005251" lon="8.454888">
<ele>20.663985</ele>
<time>2026-07-14T11:14:14.000Z</time>
</trkpt>
<trkpt lat="57.005272" lon="8.454797">
<ele>20.643911</ele>
<time>2026-07-14T11:14:15.000Z</time>
</trkpt>
<trkpt lat="57.005293" lon="8.454706">
<ele>20.623837</ele>
<time>2026-07-14T11:14:16.000Z</time>
</trkpt>
<trkpt lat="57.005310" lon="8.454615">
<ele>20.604297</ele>
<time>2026-07-14T11:14:17.000Z</time>
</trkpt>
<trkpt lat="57.005328" lon="8.454523">
<ele>20.584441</ele>
<time>2026-07-14T11:14:18.000Z</time>
</trkpt>
<trkpt lat="57.005343" lon="8.454432">
<ele>20.565130</ele>
<time>2026-07-14T11:14:19.000Z</time>
</trkpt>
<trkpt lat="57.005356" lon="8.454343">
<ele>20.546414</ele>
<time>2026-07-14T11:14:20.000Z</time>
</trkpt>
<trkpt lat="57.005369" lon="8.454256">
<ele>20.528091</ele>
<time>2026-07-14T11:14:21.000Z</time>
</trkpt>
<trkpt lat="57.005381" lon="8.454171">
<ele>20.514666</ele>
<time>2026-07-14T11:14:22.000Z</time>
</trkpt>
<trkpt lat="57.005392" lon="8.454094">
<ele>20.507074</ele>
<time>2026-07-14T11:14:23.000Z</time>
</trkpt>
<trkpt lat="57.005410" lon="8.454036">
<ele>20.500707</ele>
<time>2026-07-14T11:14:24.000Z</time>
</trkpt>
<trkpt lat="57.005435" lon="8.454003">
<ele>20.495314</ele>
<time>2026-07-14T11:14:25.000Z</time>
</trkpt>
<trkpt lat="57.005465" lon="8.453992">
<ele>20.489957</ele>
<time>2026-07-14T11:14:26.000Z</time>
</trkpt>
<trkpt lat="57.005500" lon="8.454002">
<ele>20.483753</ele>
<time>2026-07-14T11:14:27.000Z</time>
</trkpt>
<trkpt lat="57.005532" lon="8.454033">
<ele>20.477416</ele>
<time>2026-07-14T11:14:28.000Z</time>
</trkpt>
<trkpt lat="57.005561" lon="8.454082">
<ele>20.470514</ele>
<time>2026-07-14T11:14:29.000Z</time>
</trkpt>
<trkpt lat="57.005589" lon="8.454140">
<ele>20.463122</ele>
<time>2026-07-14T11:14:30.000Z</time>
</trkpt>
<trkpt lat="57.005620" lon="8.454199">
<ele>20.455302</ele>
<time>2026-07-14T11:14:31.000Z</time>
</trkpt>
<trkpt lat="57.005650" lon="8.454258">
<ele>20.447603</ele>
<time>2026-07-14T11:14:32.000Z</time>
</trkpt>
<trkpt lat="57.005683" lon="8.454320">
<ele>20.439335</ele>
<time>2026-07-14T11:14:33.000Z</time>
</trkpt>
<trkpt lat="57.005717" lon="8.454384">
<ele>20.430807</ele>
<time>2026-07-14T11:14:34.000Z</time>
</trkpt>
<trkpt lat="57.005751" lon="8.454445">
<ele>20.422482</ele>
<time>2026-07-14T11:14:35.000Z</time>
</trkpt>
<trkpt lat="57.005788" lon="8.454503">
<ele>20.413962</ele>
<time>2026-07-14T11:14:36.000Z</time>
</trkpt>
<trkpt lat="57.005828" lon="8.454558">
<ele>20.405210</ele>
<time>2026-07-14T11:14:37.000Z</time>
</trkpt>
<trkpt lat="57.005869" lon="8.454610">
<ele>20.396483</ele>
<time>2026-07-14T11:14:38.000Z</time>
</trkpt>
<trkpt lat="57.005911" lon="8.454662">
<ele>20.387612</ele>
<time>2026-07-14T11:14:39.000Z</time>
</trkpt>
<trkpt lat="57.005954" lon="8.454711">
<ele>20.378748</ele>
<time>2026-07-14T11:14:40.000Z</time>
</trkpt>
<trkpt lat="57.005998" lon="8.454755">
<ele>20.369973</ele>
<time>2026-07-14T11:14:41.000Z</time>
</trkpt>
<trkpt lat="57.006043" lon="8.454796">
<ele>20.361175</ele>
<time>2026-07-14T11:14:42.000Z</time>
</trkpt>
<trkpt lat="57.006091" lon="8.454834">
<ele>20.352021</ele>
<time>2026-07-14T11:14:43.000Z</time>
</trkpt>
<trkpt lat="57.006139" lon="8.454871">
<ele>20.342903</ele>
<time>2026-07-14T11:14:44.000Z</time>
</trkpt>
<trkpt lat="57.006187" lon="8.454907">
<ele>20.333822</ele>
<time>2026-07-14T11:14:45.000Z</time>
</trkpt>
<trkpt lat="57.006236" lon="8.454944">
<ele>20.324543</ele>
<time>2026-07-14T11:14:46.000Z</time>
</trkpt>
<trkpt lat="57.006285" lon="8.454980">
<ele>20.315300</ele>
<time>2026-07-14T11:14:47.000Z</time>
</trkpt>
<trkpt lat="57.006333" lon="8.455016">
<ele>20.306219</ele>
<time>2026-07-14T11:14:48.000Z</time>
</trkpt>
<trkpt lat="57.006380" lon="8.455051">
<ele>20.297336</ele>
<time>2026-07-14T11:14:49.000Z</time>
</trkpt>
<trkpt lat="57.006428" lon="8.455088">
<ele>20.288219</ele>
<time>2026-07-14T11:14:50.000Z</time>
</trkpt>
<trkpt lat="57.006475" lon="8.455129">
<ele>20.279106</ele>
<time>2026-07-14T11:14:51.000Z</time>
</trkpt>
<trkpt lat="57.006522" lon="8.455172">
<ele>20.269909</ele>
<time>2026-07-14T11:14:52.000Z</time>
</trkpt>
<trkpt lat="57.006570" lon="8.455214">
<ele>20.260597</ele>
<time>2026-07-14T11:14:53.000Z</time>
</trkpt>
<trkpt lat="57.006619" lon="8.455253">
<ele>20.251243</ele>
<time>2026-07-14T11:14:54.000Z</time>
</trkpt>
<trkpt lat="57.006670" lon="8.455291">
<ele>20.241604</ele>
<time>2026-07-14T11:14:55.000Z</time>
</trkpt>
<trkpt lat="57.006721" lon="8.455332">
<ele>20.231853</ele>
<time>2026-07-14T11:14:56.000Z</time>
</trkpt>
<trkpt lat="57.006771" lon="8.455374">
<ele>20.222224</ele>
<time>2026-07-14T11:14:57.000Z</time>
</trkpt>
<trkpt lat="57.006820" lon="8.455415">
<ele>20.212793</ele>
<time>2026-07-14T11:14:58.000Z</time>
</trkpt>
<trkpt lat="57.006869" lon="8.455456">
<ele>20.203754</ele>
<time>2026-07-14T11:14:59.000Z</time>
</trkpt>
<trkpt lat="57.006921" lon="8.455499">
<ele>20.214259</ele>
<time>2026-07-14T11:15:00.000Z</time>
</trkpt>
<trkpt lat="57.006972" lon="8.455538">
<ele>20.224436</ele>
<time>2026-07-14T11:15:01.000Z</time>
</trkpt>
<trkpt lat="57.007019" lon="8.455577">
<ele>20.233937</ele>
<time>2026-07-14T11:15:02.000Z</time>
</trkpt>
<trkpt lat="57.007067" lon="8.455620">
<ele>20.243775</ele>
<time>2026-07-14T11:15:03.000Z</time>
</trkpt>
<trkpt lat="57.007115" lon="8.455666">
<ele>20.253749</ele>
<time>2026-07-14T11:15:04.000Z</time>
</trkpt>
<trkpt lat="57.007163" lon="8.455713">
<ele>20.263769</ele>
<time>2026-07-14T11:15:05.000Z</time>
</trkpt>
<trkpt lat="57.007210" lon="8.455761">
<ele>20.273676</ele>
<time>2026-07-14T11:15:06.000Z</time>
</trkpt>
<trkpt lat="57.007257" lon="8.455811">
<ele>20.283682</ele>
<time>2026-07-14T11:15:07.000Z</time>
</trkpt>
<trkpt lat="57.007302" lon="8.455862">
<ele>20.293423</ele>
<time>2026-07-14T11:15:08.000Z</time>
</trkpt>
<trkpt lat="57.007348" lon="8.455915">
<ele>20.303426</ele>
<time>2026-07-14T11:15:09.000Z</time>
</trkpt>
<trkpt lat="57.007390" lon="8.455968">
<ele>20.312814</ele>
<time>2026-07-14T11:15:10.000Z</time>
</trkpt>
<trkpt lat="57.007429" lon="8.456024">
<ele>20.321933</ele>
<time>2026-07-14T11:15:11.000Z</time>
</trkpt>
<trkpt lat="57.007469" lon="8.456082">
<ele>20.331322</ele>
<time>2026-07-14T11:15:12.000Z</time>
</trkpt>
<trkpt lat="57.007510" lon="8.456145">
<ele>20.341170</ele>
<time>2026-07-14T11:15:13.000Z</time>
</trkpt>
<trkpt lat="57.007550" lon="8.456208">
<ele>20.350877</ele>
<time>2026-07-14T11:15:14.000Z</time>
</trkpt>
<trkpt lat="57.007588" lon="8.456272">
<ele>20.360375</ele>
<time>2026-07-14T11:15:15.000Z</time>
</trkpt>
<trkpt lat="57.007626" lon="8.456340">
<ele>20.370149</ele>
<time>2026-07-14T11:15:16.000Z</time>
</trkpt>
<trkpt lat="57.007662" lon="8.456414">
<ele>20.380103</ele>
<time>2026-07-14T11:15:17.000Z</time>
</trkpt>
<trkpt lat="57.007696" lon="8.456490">
<ele>20.389969</ele>
<time>2026-07-14T11:15:18.000Z</time>
</trkpt>
<trkpt lat="57.007731" lon="8.456569">
<ele>20.400185</ele>
<time>2026-07-14T11:15:19.000Z</time>
</trkpt>
<trkpt lat="57.007765" lon="8.456648">
<ele>20.410285</ele>
<time>2026-07-14T11:15:20.000Z</time>
</trkpt>
<trkpt lat="57.007797" lon="8.456728">
<ele>20.420243</ele>
<time>2026-07-14T11:15:21.000Z</time>
</trkpt>
<trkpt lat="57.007830" lon="8.456810">
<ele>20.430470</ele>
<time>2026-07-14T11:15:22.000Z</time>
</trkpt>
<trkpt lat="57.007863" lon="8.456893">
<ele>20.440779</ele>
<time>2026-07-14T11:15:23.000Z</time>
</trkpt>
<trkpt lat="57.007895" lon="8.456973">
<ele>20.450736</ele>
<time>2026-07-14T11:15:24.000Z</time>
</trkpt>
<trkpt lat="57.007928" lon="8.457053">
<ele>20.460803</ele>
<time>2026-07-14T11:15:25.000Z</time>
</trkpt>
<trkpt lat="57.007958" lon="8.457135">
<ele>20.470713</ele>
<time>2026-07-14T11:15:26.000Z</time>
</trkpt>
<trkpt lat="57.007989" lon="8.457219">
<ele>20.480891</ele>
<time>2026-07-14T11:15:27.000Z</time>
</trkpt>
<trkpt lat="57.008021" lon="8.457300">
<ele>20.490929</ele>
<time>2026-07-14T11:15:28.000Z</time>
</trkpt>
<trkpt lat="57.008055" lon="8.457378">
<ele>20.500952</ele>
<time>2026-07-14T11:15:29.000Z</time>
</trkpt>
<trkpt lat="57.008087" lon="8.457456">
<ele>20.510748</ele>
<time>2026-07-14T11:15:30.000Z</time>
</trkpt>
<trkpt lat="57.008120" lon="8.457534">
<ele>20.520656</ele>
<time>2026-07-14T11:15:31.000Z</time>
</trkpt>
<trkpt lat="57.008150" lon="8.457613">
<ele>20.530317</ele>
<time>2026-07-14T11:15:32.000Z</time>
</trkpt>
<trkpt lat="57.008178" lon="8.457690">
<ele>20.540652</ele>
<time>2026-07-14T11:15:33.000Z</time>
</trkpt>
<trkpt lat="57.008209" lon="8.457770">
<ele>20.552687</ele>
<time>2026-07-14T11:15:34.000Z</time>
</trkpt>
<trkpt lat="57.008238" lon="8.457852">
<ele>20.564672</ele>
<time>2026-07-14T11:15:35.000Z</time>
</trkpt>
<trkpt lat="57.008267" lon="8.457932">
<ele>20.576452</ele>
<time>2026-07-14T11:15:36.000Z</time>
</trkpt>
<trkpt lat="57.008298" lon="8.458011">
<ele>20.588388</ele>
<time>2026-07-14T11:15:37.000Z</time>
</trkpt>
<trkpt lat="57.008328" lon="8.458091">
<ele>20.600295</ele>
<time>2026-07-14T11:15:38.000Z</time>
</trkpt>
<trkpt lat="57.008359" lon="8.458171">
<ele>20.612330</ele>
<time>2026-07-14T11:15:39.000Z</time>
</trkpt>
<trkpt lat="57.008389" lon="8.458251">
<ele>20.624236</ele>
<time>2026-07-14T11:15:40.000Z</time>
</trkpt>
<trkpt lat="57.008419" lon="8.458331">
<ele>20.636143</ele>
<time>2026-07-14T11:15:41.000Z</time>
</trkpt>
<trkpt lat="57.008450" lon="8.458413">
<ele>20.648379</ele>
<time>2026-07-14T11:15:42.000Z</time>
</trkpt>
<trkpt lat="57.008481" lon="8.458497">
<ele>20.660817</ele>
<time>2026-07-14T11:15:43.000Z</time>
</trkpt>
<trkpt lat="57.008513" lon="8.458580">
<ele>20.673282</ele>
<time>2026-07-14T11:15:44.000Z</time>
</trkpt>
<trkpt lat="57.008545" lon="8.458664">
<ele>20.685848</ele>
<time>2026-07-14T11:15:45.000Z</time>
</trkpt>
<trkpt lat="57.008578" lon="8.458748">
<ele>20.698544</ele>
<time>2026-07-14T11:15:46.000Z</time>
</trkpt>
<trkpt lat="57.008610" lon="8.458831">
<ele>20.711010</ele>
<time>2026-07-14T11:15:47.000Z</time>
</trkpt>
<trkpt lat="57.008641" lon="8.458914">
<ele>20.723347</ele>
<time>2026-07-14T11:15:48.000Z</time>
</trkpt>
<trkpt lat="57.008673" lon="8.458997">
<ele>20.735812</ele>
<time>2026-07-14T11:15:49.000Z</time>
</trkpt>
<trkpt lat="57.008706" lon="8.459079">
<ele>20.748310</ele>
<time>2026-07-14T11:15:50.000Z</time>
</trkpt>
<trkpt lat="57.008738" lon="8.459160">
<ele>20.760577</ele>
<time>2026-07-14T11:15:51.000Z</time>
</trkpt>
<trkpt lat="57.008769" lon="8.459242">
<ele>20.772812</ele>
<time>2026-07-14T11:15:52.000Z</time>
</trkpt>
<trkpt lat="57.008797" lon="8.459323">
<ele>20.784573</ele>
<time>2026-07-14T11:15:53.000Z</time>
</trkpt>
<trkpt lat="57.008827" lon="8.459405">
<ele>20.796681</ele>
<time>2026-07-14T11:15:54.000Z</time>
</trkpt>
<trkpt lat="57.008856" lon="8.459485">
<ele>20.808461</ele>
<time>2026-07-14T11:15:55.000Z</time>
</trkpt>
<trkpt lat="57.008885" lon="8.459562">
<ele>20.819937</ele>
<time>2026-07-14T11:15:56.000Z</time>
</trkpt>
<trkpt lat="57.008915" lon="8.459637">
<ele>20.831344</ele>
<time>2026-07-14T11:15:57.000Z</time>
</trkpt>
<trkpt lat="57.008944" lon="8.459711">
<ele>20.842519</ele>
<time>2026-07-14T11:15:58.000Z</time>
</trkpt>
<trkpt lat="57.008971" lon="8.459783">
<ele>20.853235</ele>
<time>2026-07-14T11:15:59.000Z</time>
</trkpt>
<trkpt lat="57.008997" lon="8.459855">
<ele>20.863824</ele>
<time>2026-07-14T11:16:00.000Z</time>
</trkpt>
<trkpt lat="57.009026" lon="8.459926">
<ele>20.874703</ele>
<time>2026-07-14T11:16:01.000Z</time>
</trkpt>
<trkpt lat="57.009057" lon="8.460000">
<ele>20.886147</ele>
<time>2026-07-14T11:16:02.000Z</time>
</trkpt>
<trkpt lat="57.009087" lon="8.460073">
<ele>20.897357</ele>
<time>2026-07-14T11:16:03.000Z</time>
</trkpt>
<trkpt lat="57.009115" lon="8.460147">
<ele>20.908403</ele>
<time>2026-07-14T11:16:04.000Z</time>
</trkpt>
<trkpt lat="57.009144" lon="8.460224">
<ele>20.919878</ele>
<time>2026-07-14T11:16:05.000Z</time>
</trkpt>
<trkpt lat="57.009175" lon="8.460299">
<ele>20.931420</ele>
<time>2026-07-14T11:16:06.000Z</time>
</trkpt>
<trkpt lat="57.009205" lon="8.460375">
<ele>20.948171</ele>
<time>2026-07-14T11:16:07.000Z</time>
</trkpt>
<trkpt lat="57.009236" lon="8.460453">
<ele>20.979678</ele>
<time>2026-07-14T11:16:08.000Z</time>
</trkpt>
<trkpt lat="57.009266" lon="8.460530">
<ele>21.010570</ele>
<time>2026-07-14T11:16:09.000Z</time>
</trkpt>
<trkpt lat="57.009297" lon="8.460605">
<ele>21.041292</ele>
<time>2026-07-14T11:16:10.000Z</time>
</trkpt>
<trkpt lat="57.009329" lon="8.460681">
<ele>21.072637</ele>
<time>2026-07-14T11:16:11.000Z</time>
</trkpt>
<trkpt lat="57.009362" lon="8.460758">
<ele>21.104608</ele>
<time>2026-07-14T11:16:12.000Z</time>
</trkpt>
<trkpt lat="57.009390" lon="8.460836">
<ele>21.135090</ele>
<time>2026-07-14T11:16:13.000Z</time>
</trkpt>
<trkpt lat="57.009417" lon="8.460914">
<ele>21.165246</ele>
<time>2026-07-14T11:16:14.000Z</time>
</trkpt>
<trkpt lat="57.009445" lon="8.460990">
<ele>21.195185</ele>
<time>2026-07-14T11:16:15.000Z</time>
</trkpt>
<trkpt lat="57.009476" lon="8.461064">
<ele>21.225648</ele>
<time>2026-07-14T11:16:16.000Z</time>
</trkpt>
<trkpt lat="57.009509" lon="8.461135">
<ele>21.256105</ele>
<time>2026-07-14T11:16:17.000Z</time>
</trkpt>
<trkpt lat="57.009541" lon="8.461204">
<ele>21.285677</ele>
<time>2026-07-14T11:16:18.000Z</time>
</trkpt>
<trkpt lat="57.009572" lon="8.461272">
<ele>21.314612</ele>
<time>2026-07-14T11:16:19.000Z</time>
</trkpt>
<trkpt lat="57.009604" lon="8.461338">
<ele>21.343446</ele>
<time>2026-07-14T11:16:20.000Z</time>
</trkpt>
<trkpt lat="57.009638" lon="8.461404">
<ele>21.373089</ele>
<time>2026-07-14T11:16:21.000Z</time>
</trkpt>
<trkpt lat="57.009673" lon="8.461466">
<ele>21.402228</ele>
<time>2026-07-14T11:16:22.000Z</time>
</trkpt>
<trkpt lat="57.009709" lon="8.461525">
<ele>21.431139</ele>
<time>2026-07-14T11:16:23.000Z</time>
</trkpt>
<trkpt lat="57.009747" lon="8.461581">
<ele>21.460333</ele>
<time>2026-07-14T11:16:24.000Z</time>
</trkpt>
<trkpt lat="57.009785" lon="8.461635">
<ele>21.489123</ele>
<time>2026-07-14T11:16:25.000Z</time>
</trkpt>
<trkpt lat="57.009823" lon="8.461684">
<ele>21.516945</ele>
<time>2026-07-14T11:16:26.000Z</time>
</trkpt>
<trkpt lat="57.009863" lon="8.461732">
<ele>21.545576</ele>
<time>2026-07-14T11:16:27.000Z</time>
</trkpt>
<trkpt lat="57.009906" lon="8.461777">
<ele>21.575232</ele>
<time>2026-07-14T11:16:28.000Z</time>
</trkpt>
<trkpt lat="57.009948" lon="8.461816">
<ele>21.603432</ele>
<time>2026-07-14T11:16:29.000Z</time>
</trkpt>
<trkpt lat="57.009989" lon="8.461854">
<ele>21.630951</ele>
<time>2026-07-14T11:16:30.000Z</time>
</trkpt>
<trkpt lat="57.010031" lon="8.461895">
<ele>21.659452</ele>
<time>2026-07-14T11:16:31.000Z</time>
</trkpt>
<trkpt lat="57.010073" lon="8.461941">
<ele>21.688754</ele>
<time>2026-07-14T11:16:32.000Z</time>
</trkpt>
<trkpt lat="57.010116" lon="8.461991">
<ele>21.719249</ele>
<time>2026-07-14T11:16:33.000Z</time>
</trkpt>
<trkpt lat="57.010155" lon="8.462042">
<ele>21.747937</ele>
<time>2026-07-14T11:16:34.000Z</time>
</trkpt>
<trkpt lat="57.010193" lon="8.462095">
<ele>21.776529</ele>
<time>2026-07-14T11:16:35.000Z</time>
</trkpt>
<trkpt lat="57.010231" lon="8.462152">
<ele>21.805928</ele>
<time>2026-07-14T11:16:36.000Z</time>
</trkpt>
<trkpt lat="57.010268" lon="8.462211">
<ele>21.835289</ele>
<time>2026-07-14T11:16:37.000Z</time>
</trkpt>
<trkpt lat="57.010302" lon="8.462272">
<ele>21.863770</ele>
<time>2026-07-14T11:16:38.000Z</time>
</trkpt>
<trkpt lat="57.010338" lon="8.462334">
<ele>21.893342</ele>
<time>2026-07-14T11:16:39.000Z</time>
</trkpt>
<trkpt lat="57.010373" lon="8.462399">
<ele>21.923167</ele>
<time>2026-07-14T11:16:40.000Z</time>
</trkpt>
<trkpt lat="57.010405" lon="8.462464">
<ele>21.951758</ele>
<time>2026-07-14T11:16:41.000Z</time>
</trkpt>
<trkpt lat="57.010437" lon="8.462530">
<ele>21.980591</ele>
<time>2026-07-14T11:16:42.000Z</time>
</trkpt>
<trkpt lat="57.010468" lon="8.462599">
<ele>22.009777</ele>
<time>2026-07-14T11:16:43.000Z</time>
</trkpt>
<trkpt lat="57.010498" lon="8.462669">
<ele>22.042449</ele>
<time>2026-07-14T11:16:44.000Z</time>
</trkpt>
<trkpt lat="57.010528" lon="8.462739">
<ele>22.076434</ele>
<time>2026-07-14T11:16:45.000Z</time>
</trkpt>
<trkpt lat="57.010561" lon="8.462810">
<ele>22.112047</ele>
<time>2026-07-14T11:16:46.000Z</time>
</trkpt>
<trkpt lat="57.010596" lon="8.462879">
<ele>22.148023</ele>
<time>2026-07-14T11:16:47.000Z</time>
</trkpt>
<trkpt lat="57.010630" lon="8.462946">
<ele>22.182963</ele>
<time>2026-07-14T11:16:48.000Z</time>
</trkpt>
<trkpt lat="57.010667" lon="8.463011">
<ele>22.218838</ele>
<time>2026-07-14T11:16:49.000Z</time>
</trkpt>
<trkpt lat="57.010707" lon="8.463073">
<ele>22.255511</ele>
<time>2026-07-14T11:16:50.000Z</time>
</trkpt>
<trkpt lat="57.010747" lon="8.463134">
<ele>22.291939</ele>
<time>2026-07-14T11:16:51.000Z</time>
</trkpt>
<trkpt lat="57.010789" lon="8.463194">
<ele>22.329220</ele>
<time>2026-07-14T11:16:52.000Z</time>
</trkpt>
<trkpt lat="57.010834" lon="8.463253">
<ele>22.367960</ele>
<time>2026-07-14T11:16:53.000Z</time>
</trkpt>
<trkpt lat="57.010879" lon="8.463312">
<ele>22.406699</ele>
<time>2026-07-14T11:16:54.000Z</time>
</trkpt>
<trkpt lat="57.010927" lon="8.463374">
<ele>22.447815</ele>
<time>2026-07-14T11:16:55.000Z</time>
</trkpt>
<trkpt lat="57.010977" lon="8.463433">
<ele>22.489455</ele>
<time>2026-07-14T11:16:56.000Z</time>
</trkpt>
<trkpt lat="57.011025" lon="8.463489">
<ele>22.529298</ele>
<time>2026-07-14T11:16:57.000Z</time>
</trkpt>
<trkpt lat="57.011073" lon="8.463542">
<ele>22.568539</ele>
<time>2026-07-14T11:16:58.000Z</time>
</trkpt>
<trkpt lat="57.011124" lon="8.463589">
<ele>22.608519</ele>
<time>2026-07-14T11:16:59.000Z</time>
</trkpt>
<trkpt lat="57.011175" lon="8.463631">
<ele>22.647680</ele>
<time>2026-07-14T11:17:00.000Z</time>
</trkpt>
<trkpt lat="57.011225" lon="8.463673">
<ele>22.686203</ele>
<time>2026-07-14T11:17:01.000Z</time>
</trkpt>
<trkpt lat="57.011277" lon="8.463714">
<ele>22.725852</ele>
<time>2026-07-14T11:17:02.000Z</time>
</trkpt>
<trkpt lat="57.011327" lon="8.463753">
<ele>22.763913</ele>
<time>2026-07-14T11:17:03.000Z</time>
</trkpt>
<trkpt lat="57.011375" lon="8.463797">
<ele>22.801501</ele>
<time>2026-07-14T11:17:04.000Z</time>
</trkpt>
<trkpt lat="57.011425" lon="8.463843">
<ele>22.840683</ele>
<time>2026-07-14T11:17:05.000Z</time>
</trkpt>
<trkpt lat="57.011477" lon="8.463890">
<ele>22.881290</ele>
<time>2026-07-14T11:17:06.000Z</time>
</trkpt>
<trkpt lat="57.011526" lon="8.463940">
<ele>22.920565</ele>
<time>2026-07-14T11:17:07.000Z</time>
</trkpt>
<trkpt lat="57.011575" lon="8.463993">
<ele>22.960408</ele>
<time>2026-07-14T11:17:08.000Z</time>
</trkpt>
<trkpt lat="57.011627" lon="8.464054">
<ele>23.003640</ele>
<time>2026-07-14T11:17:09.000Z</time>
</trkpt>
<trkpt lat="57.011678" lon="8.464125">
<ele>23.048478</ele>
<time>2026-07-14T11:17:10.000Z</time>
</trkpt>
<trkpt lat="57.011723" lon="8.464199">
<ele>23.090799</ele>
<time>2026-07-14T11:17:11.000Z</time>
</trkpt>
<trkpt lat="57.011769" lon="8.464277">
<ele>23.134664</ele>
<time>2026-07-14T11:17:12.000Z</time>
</trkpt>
<trkpt lat="57.011812" lon="8.464351">
<ele>23.175951</ele>
<time>2026-07-14T11:17:13.000Z</time>
</trkpt>
<trkpt lat="57.011857" lon="8.464429">
<ele>23.219305</ele>
<time>2026-07-14T11:17:14.000Z</time>
</trkpt>
<trkpt lat="57.011904" lon="8.464514">
<ele>23.265520</ele>
<time>2026-07-14T11:17:15.000Z</time>
</trkpt>
<trkpt lat="57.011945" lon="8.464594">
<ele>23.259914</ele>
<time>2026-07-14T11:17:16.000Z</time>
</trkpt>
<trkpt lat="57.011981" lon="8.464671">
<ele>23.236634</ele>
<time>2026-07-14T11:17:17.000Z</time>
</trkpt>
<trkpt lat="57.012016" lon="8.464742">
<ele>23.214665</ele>
<time>2026-07-14T11:17:18.000Z</time>
</trkpt>
<trkpt lat="57.012052" lon="8.464811">
<ele>23.192744</ele>
<time>2026-07-14T11:17:19.000Z</time>
</trkpt>
<trkpt lat="57.012085" lon="8.464879">
<ele>23.171850</ele>
<time>2026-07-14T11:17:20.000Z</time>
</trkpt>
<trkpt lat="57.012116" lon="8.464945">
<ele>23.151857</ele>
<time>2026-07-14T11:17:21.000Z</time>
</trkpt>
<trkpt lat="57.012148" lon="8.465012">
<ele>23.131414</ele>
<time>2026-07-14T11:17:22.000Z</time>
</trkpt>
<trkpt lat="57.012181" lon="8.465080">
<ele>23.110520</ele>
<time>2026-07-14T11:17:23.000Z</time>
</trkpt>
<trkpt lat="57.012213" lon="8.465148">
<ele>23.089904</ele>
<time>2026-07-14T11:17:24.000Z</time>
</trkpt>
<trkpt lat="57.012248" lon="8.465215">
<ele>23.068606</ele>
<time>2026-07-14T11:17:25.000Z</time>
</trkpt>
<trkpt lat="57.012282" lon="8.465283">
<ele>23.047430</ele>
<time>2026-07-14T11:17:26.000Z</time>
</trkpt>
<trkpt lat="57.012318" lon="8.465350">
<ele>23.025838</ele>
<time>2026-07-14T11:17:27.000Z</time>
</trkpt>
<trkpt lat="57.012354" lon="8.465418">
<ele>23.004083</ele>
<time>2026-07-14T11:17:28.000Z</time>
</trkpt>
<trkpt lat="57.012387" lon="8.465483">
<ele>22.983698</ele>
<time>2026-07-14T11:17:29.000Z</time>
</trkpt>
<trkpt lat="57.012421" lon="8.465551">
<ele>22.962521</ele>
<time>2026-07-14T11:17:30.000Z</time>
</trkpt>
<trkpt lat="57.012459" lon="8.465625">
<ele>22.939189</ele>
<time>2026-07-14T11:17:31.000Z</time>
</trkpt>
<trkpt lat="57.012495" lon="8.465696">
<ele>22.916935</ele>
<time>2026-07-14T11:17:32.000Z</time>
</trkpt>
<trkpt lat="57.012531" lon="8.465765">
<ele>22.895015</ele>
<time>2026-07-14T11:17:33.000Z</time>
</trkpt>
<trkpt lat="57.012569" lon="8.465836">
<ele>22.872179</ele>
<time>2026-07-14T11:17:34.000Z</time>
</trkpt>
<trkpt lat="57.012610" lon="8.465907">
<ele>22.848440</ele>
<time>2026-07-14T11:17:35.000Z</time>
</trkpt>
<trkpt lat="57.012652" lon="8.465978">
<ele>22.824392</ele>
<time>2026-07-14T11:17:36.000Z</time>
</trkpt>
<trkpt lat="57.012693" lon="8.466047">
<ele>22.800965</ele>
<time>2026-07-14T11:17:37.000Z</time>
</trkpt>
<trkpt lat="57.012735" lon="8.466118">
<ele>22.776917</ele>
<time>2026-07-14T11:17:38.000Z</time>
</trkpt>
<trkpt lat="57.012778" lon="8.466193">
<ele>22.751935</ele>
<time>2026-07-14T11:17:39.000Z</time>
</trkpt>
<trkpt lat="57.012818" lon="8.466266">
<ele>22.728180</ele>
<time>2026-07-14T11:17:40.000Z</time>
</trkpt>
<trkpt lat="57.012856" lon="8.466343">
<ele>22.704342</ele>
<time>2026-07-14T11:17:41.000Z</time>
</trkpt>
<trkpt lat="57.012894" lon="8.466422">
<ele>22.680163</ele>
<time>2026-07-14T11:17:42.000Z</time>
</trkpt>
<trkpt lat="57.012932" lon="8.466496">
<ele>22.656832</ele>
<time>2026-07-14T11:17:43.000Z</time>
</trkpt>
<trkpt lat="57.012972" lon="8.466567">
<ele>22.633397</ele>
<time>2026-07-14T11:17:44.000Z</time>
</trkpt>
<trkpt lat="57.013014" lon="8.466638">
<ele>22.609350</ele>
<time>2026-07-14T11:17:45.000Z</time>
</trkpt>
<trkpt lat="57.013056" lon="8.466710">
<ele>22.585146</ele>
<time>2026-07-14T11:17:46.000Z</time>
</trkpt>
<trkpt lat="57.013096" lon="8.466784">
<ele>22.561228</ele>
<time>2026-07-14T11:17:47.000Z</time>
</trkpt>
<trkpt lat="57.013133" lon="8.466860">
<ele>22.537844</ele>
<time>2026-07-14T11:17:48.000Z</time>
</trkpt>
<trkpt lat="57.013167" lon="8.466938">
<ele>22.520924</ele>
<time>2026-07-14T11:17:49.000Z</time>
</trkpt>
<trkpt lat="57.013203" lon="8.467015">
<ele>22.525085</ele>
<time>2026-07-14T11:17:50.000Z</time>
</trkpt>
<trkpt lat="57.013241" lon="8.467090">
<ele>22.529286</ele>
<time>2026-07-14T11:17:51.000Z</time>
</trkpt>
<trkpt lat="57.013279" lon="8.467163">
<ele>22.533427</ele>
<time>2026-07-14T11:17:52.000Z</time>
</trkpt>
<trkpt lat="57.013319" lon="8.467235">
<ele>22.537644</ele>
<time>2026-07-14T11:17:53.000Z</time>
</trkpt>
<trkpt lat="57.013359" lon="8.467309">
<ele>22.541920</ele>
<time>2026-07-14T11:17:54.000Z</time>
</trkpt>
<trkpt lat="57.013400" lon="8.467385">
<ele>22.546306</ele>
<time>2026-07-14T11:17:55.000Z</time>
</trkpt>
<trkpt lat="57.013442" lon="8.467461">
<ele>22.550746</ele>
<time>2026-07-14T11:17:56.000Z</time>
</trkpt>
<trkpt lat="57.013484" lon="8.467538">
<ele>22.555215</ele>
<time>2026-07-14T11:17:57.000Z</time>
</trkpt>
<trkpt lat="57.013523" lon="8.467614">
<ele>22.559497</ele>
<time>2026-07-14T11:17:58.000Z</time>
</trkpt>
<trkpt lat="57.013564" lon="8.467691">
<ele>22.563913</ele>
<time>2026-07-14T11:17:59.000Z</time>
</trkpt>
<trkpt lat="57.013606" lon="8.467768">
<ele>22.568382</ele>
<time>2026-07-14T11:18:00.000Z</time>
</trkpt>
<trkpt lat="57.013648" lon="8.467844">
<ele>22.572822</ele>
<time>2026-07-14T11:18:01.000Z</time>
</trkpt>
<trkpt lat="57.013689" lon="8.467919">
<ele>22.577179</ele>
<time>2026-07-14T11:18:02.000Z</time>
</trkpt>
<trkpt lat="57.013729" lon="8.467995">
<ele>22.581513</ele>
<time>2026-07-14T11:18:03.000Z</time>
</trkpt>
<trkpt lat="57.013769" lon="8.468069">
<ele>22.585788</ele>
<time>2026-07-14T11:18:04.000Z</time>
</trkpt>
<trkpt lat="57.013810" lon="8.468145">
<ele>22.590175</ele>
<time>2026-07-14T11:18:05.000Z</time>
</trkpt>
<trkpt lat="57.013848" lon="8.468220">
<ele>22.594376</ele>
<time>2026-07-14T11:18:06.000Z</time>
</trkpt>
<trkpt lat="57.013886" lon="8.468293">
<ele>22.598516</ele>
<time>2026-07-14T11:18:07.000Z</time>
</trkpt>
<trkpt lat="57.013924" lon="8.468367">
<ele>22.602687</ele>
<time>2026-07-14T11:18:08.000Z</time>
</trkpt>
<trkpt lat="57.013963" lon="8.468442">
<ele>22.606939</ele>
<time>2026-07-14T11:18:09.000Z</time>
</trkpt>
<trkpt lat="57.014000" lon="8.468517">
<ele>22.611089</ele>
<time>2026-07-14T11:18:10.000Z</time>
</trkpt>
<trkpt lat="57.014038" lon="8.468590">
<ele>22.615230</ele>
<time>2026-07-14T11:18:11.000Z</time>
</trkpt>
<trkpt lat="57.014077" lon="8.468662">
<ele>22.619394</ele>
<time>2026-07-14T11:18:12.000Z</time>
</trkpt>
<trkpt lat="57.014115" lon="8.468732">
<ele>22.623447</ele>
<time>2026-07-14T11:18:13.000Z</time>
</trkpt>
<trkpt lat="57.014153" lon="8.468803">
<ele>22.627529</ele>
<time>2026-07-14T11:18:14.000Z</time>
</trkpt>
<trkpt lat="57.014193" lon="8.468877">
<ele>22.631804</ele>
<time>2026-07-14T11:18:15.000Z</time>
</trkpt>
<trkpt lat="57.014233" lon="8.468950">
<ele>22.636050</ele>
<time>2026-07-14T11:18:16.000Z</time>
</trkpt>
<trkpt lat="57.014272" lon="8.469022">
<ele>22.640214</ele>
<time>2026-07-14T11:18:17.000Z</time>
</trkpt>
<trkpt lat="57.014312" lon="8.469091">
<ele>22.644347</ele>
<time>2026-07-14T11:18:18.000Z</time>
</trkpt>
<trkpt lat="57.014352" lon="8.469161">
<ele>22.648507</ele>
<time>2026-07-14T11:18:19.000Z</time>
</trkpt>
<trkpt lat="57.014390" lon="8.469236">
<ele>22.652708</ele>
<time>2026-07-14T11:18:20.000Z</time>
</trkpt>
<trkpt lat="57.014428" lon="8.469313">
<ele>22.663828</ele>
<time>2026-07-14T11:18:21.000Z</time>
</trkpt>
<trkpt lat="57.014464" lon="8.469394">
<ele>22.687653</ele>
<time>2026-07-14T11:18:22.000Z</time>
</trkpt>
<trkpt lat="57.014499" lon="8.469477">
<ele>22.711573</ele>
<time>2026-07-14T11:18:23.000Z</time>
</trkpt>
<trkpt lat="57.014533" lon="8.469561">
<ele>22.735422</ele>
<time>2026-07-14T11:18:24.000Z</time>
</trkpt>
<trkpt lat="57.014565" lon="8.469647">
<ele>22.759156</ele>
<time>2026-07-14T11:18:25.000Z</time>
</trkpt>
<trkpt lat="57.014595" lon="8.469736">
<ele>22.783007</ele>
<time>2026-07-14T11:18:26.000Z</time>
</trkpt>
<trkpt lat="57.014626" lon="8.469828">
<ele>22.807659</ele>
<time>2026-07-14T11:18:27.000Z</time>
</trkpt>
<trkpt lat="57.014652" lon="8.469922">
<ele>22.831682</ele>
<time>2026-07-14T11:18:28.000Z</time>
</trkpt>
<trkpt lat="57.014675" lon="8.470022">
<ele>22.856416</ele>
<time>2026-07-14T11:18:29.000Z</time>
</trkpt>
<trkpt lat="57.014699" lon="8.470121">
<ele>22.881108</ele>
<time>2026-07-14T11:18:30.000Z</time>
</trkpt>
<trkpt lat="57.014719" lon="8.470221">
<ele>22.905382</ele>
<time>2026-07-14T11:18:31.000Z</time>
</trkpt>
<trkpt lat="57.014738" lon="8.470322">
<ele>22.929729</ele>
<time>2026-07-14T11:18:32.000Z</time>
</trkpt>
<trkpt lat="57.014757" lon="8.470422">
<ele>22.953861</ele>
<time>2026-07-14T11:18:33.000Z</time>
</trkpt>
<trkpt lat="57.014773" lon="8.470523">
<ele>22.977828</ele>
<time>2026-07-14T11:18:34.000Z</time>
</trkpt>
<trkpt lat="57.014784" lon="8.470623">
<ele>23.001073</ele>
<time>2026-07-14T11:18:35.000Z</time>
</trkpt>
<trkpt lat="57.014794" lon="8.470721">
<ele>23.023791</ele>
<time>2026-07-14T11:18:36.000Z</time>
</trkpt>
<trkpt lat="57.014799" lon="8.470817">
<ele>23.045764</ele>
<time>2026-07-14T11:18:37.000Z</time>
</trkpt>
<trkpt lat="57.014803" lon="8.470912">
<ele>23.067474</ele>
<time>2026-07-14T11:18:38.000Z</time>
</trkpt>
<trkpt lat="57.014805" lon="8.471007">
<ele>23.089135</ele>
<time>2026-07-14T11:18:39.000Z</time>
</trkpt>
<trkpt lat="57.014805" lon="8.471100">
<ele>23.110325</ele>
<time>2026-07-14T11:18:40.000Z</time>
</trkpt>
<trkpt lat="57.014807" lon="8.471189">
<ele>23.130620</ele>
<time>2026-07-14T11:18:41.000Z</time>
</trkpt>
<trkpt lat="57.014813" lon="8.471275">
<ele>23.150375</ele>
<time>2026-07-14T11:18:42.000Z</time>
</trkpt>
<trkpt lat="57.014824" lon="8.471356">
<ele>23.169396</ele>
<time>2026-07-14T11:18:43.000Z</time>
</trkpt>
<trkpt lat="57.014843" lon="8.471434">
<ele>23.188866</ele>
<time>2026-07-14T11:18:44.000Z</time>
</trkpt>
<trkpt lat="57.014864" lon="8.471509">
<ele>23.208082</ele>
<time>2026-07-14T11:18:45.000Z</time>
</trkpt>
<trkpt lat="57.014889" lon="8.471580">
<ele>23.227348</ele>
<time>2026-07-14T11:18:46.000Z</time>
</trkpt>
<trkpt lat="57.014922" lon="8.471639">
<ele>23.246621</ele>
<time>2026-07-14T11:18:47.000Z</time>
</trkpt>
<trkpt lat="57.014960" lon="8.471680">
<ele>23.265065</ele>
<time>2026-07-14T11:18:48.000Z</time>
</trkpt>
<trkpt lat="57.015004" lon="8.471704">
<ele>23.284274</ele>
<time>2026-07-14T11:18:49.000Z</time>
</trkpt>
<trkpt lat="57.015050" lon="8.471719">
<ele>23.303826</ele>
<time>2026-07-14T11:18:50.000Z</time>
</trkpt>
<trkpt lat="57.015099" lon="8.471727">
<ele>23.324414</ele>
<time>2026-07-14T11:18:51.000Z</time>
</trkpt>
<trkpt lat="57.015150" lon="8.471734">
<ele>23.345817</ele>
<time>2026-07-14T11:18:52.000Z</time>
</trkpt>
<trkpt lat="57.015203" lon="8.471741">
<ele>23.368056</ele>
<time>2026-07-14T11:18:53.000Z</time>
</trkpt>
<trkpt lat="57.015257" lon="8.471749">
<ele>23.390728</ele>
<time>2026-07-14T11:18:54.000Z</time>
</trkpt>
<trkpt lat="57.015312" lon="8.471755">
<ele>23.403674</ele>
<time>2026-07-14T11:18:55.000Z</time>
</trkpt>
<trkpt lat="57.015368" lon="8.471761">
<ele>23.384577</ele>
<time>2026-07-14T11:18:56.000Z</time>
</trkpt>
<trkpt lat="57.015425" lon="8.471769">
<ele>23.365115</ele>
<time>2026-07-14T11:18:57.000Z</time>
</trkpt>
<trkpt lat="57.015483" lon="8.471778">
<ele>23.345299</ele>
<time>2026-07-14T11:18:58.000Z</time>
</trkpt>
<trkpt lat="57.015538" lon="8.471787">
<ele>23.326501</ele>
<time>2026-07-14T11:18:59.000Z</time>
</trkpt>
<trkpt lat="57.015593" lon="8.471796">
<ele>23.307702</ele>
<time>2026-07-14T11:19:00.000Z</time>
</trkpt>
<trkpt lat="57.015647" lon="8.471803">
<ele>23.289273</ele>
<time>2026-07-14T11:19:01.000Z</time>
</trkpt>
<trkpt lat="57.015704" lon="8.471809">
<ele>23.269836</ele>
<time>2026-07-14T11:19:02.000Z</time>
</trkpt>
<trkpt lat="57.015757" lon="8.471816">
<ele>23.251745</ele>
<time>2026-07-14T11:19:03.000Z</time>
</trkpt>
<trkpt lat="57.015809" lon="8.471824">
<ele>23.233980</ele>
<time>2026-07-14T11:19:04.000Z</time>
</trkpt>
<trkpt lat="57.015862" lon="8.471832">
<ele>23.215876</ele>
<time>2026-07-14T11:19:05.000Z</time>
</trkpt>
<trkpt lat="57.015915" lon="8.471838">
<ele>23.197799</ele>
<time>2026-07-14T11:19:06.000Z</time>
</trkpt>
<trkpt lat="57.015969" lon="8.471842">
<ele>23.179400</ele>
<time>2026-07-14T11:19:07.000Z</time>
</trkpt>
<trkpt lat="57.016022" lon="8.471848">
<ele>23.161322</ele>
<time>2026-07-14T11:19:08.000Z</time>
</trkpt>
<trkpt lat="57.016076" lon="8.471857">
<ele>23.142863</ele>
<time>2026-07-14T11:19:09.000Z</time>
</trkpt>
<trkpt lat="57.016130" lon="8.471866">
<ele>23.124403</ele>
<time>2026-07-14T11:19:10.000Z</time>
</trkpt>
<trkpt lat="57.016182" lon="8.471874">
<ele>23.106638</ele>
<time>2026-07-14T11:19:11.000Z</time>
</trkpt>
<trkpt lat="57.016237" lon="8.471879">
<ele>23.087891</ele>
<time>2026-07-14T11:19:12.000Z</time>
</trkpt>
<trkpt lat="57.016293" lon="8.471885">
<ele>23.068794</ele>
<time>2026-07-14T11:19:13.000Z</time>
</trkpt>
<trkpt lat="57.016349" lon="8.471893">
<ele>23.049671</ele>
<time>2026-07-14T11:19:14.000Z</time>
</trkpt>
<trkpt lat="57.016404" lon="8.471903">
<ele>23.030855</ele>
<time>2026-07-14T11:19:15.000Z</time>
</trkpt>
<trkpt lat="57.016457" lon="8.471914">
<ele>23.012697</ele>
<time>2026-07-14T11:19:16.000Z</time>
</trkpt>
<trkpt lat="57.016511" lon="8.471925">
<ele>22.994201</ele>
<time>2026-07-14T11:19:17.000Z</time>
</trkpt>
<trkpt lat="57.016564" lon="8.471934">
<ele>22.976080</ele>
<time>2026-07-14T11:19:18.000Z</time>
</trkpt>
<trkpt lat="57.016617" lon="8.471942">
<ele>22.957976</ele>
<time>2026-07-14T11:19:19.000Z</time>
</trkpt>
<trkpt lat="57.016671" lon="8.471952">
<ele>22.939499</ele>
<time>2026-07-14T11:19:20.000Z</time>
</trkpt>
<trkpt lat="57.016724" lon="8.471961">
<ele>22.921378</ele>
<time>2026-07-14T11:19:21.000Z</time>
</trkpt>
<trkpt lat="57.016778" lon="8.471968">
<ele>22.902949</ele>
<time>2026-07-14T11:19:22.000Z</time>
</trkpt>
<trkpt lat="57.016830" lon="8.471977">
<ele>22.885167</ele>
<time>2026-07-14T11:19:23.000Z</time>
</trkpt>
<trkpt lat="57.016883" lon="8.471986">
<ele>22.867047</ele>
<time>2026-07-14T11:19:24.000Z</time>
</trkpt>
<trkpt lat="57.016937" lon="8.471995">
<ele>22.848588</ele>
<time>2026-07-14T11:19:25.000Z</time>
</trkpt>
<trkpt lat="57.016991" lon="8.472004">
<ele>22.830128</ele>
<time>2026-07-14T11:19:26.000Z</time>
</trkpt>
<trkpt lat="57.017045" lon="8.472012">
<ele>22.811685</ele>
<time>2026-07-14T11:19:27.000Z</time>
</trkpt>
<trkpt lat="57.017098" lon="8.472019">
<ele>22.794471</ele>
<time>2026-07-14T11:19:28.000Z</time>
</trkpt>
<trkpt lat="57.017151" lon="8.472025">
<ele>22.783343</ele>
<time>2026-07-14T11:19:29.000Z</time>
</trkpt>
<trkpt lat="57.017204" lon="8.472033">
<ele>22.772199</ele>
<time>2026-07-14T11:19:30.000Z</time>
</trkpt>
<trkpt lat="57.017258" lon="8.472040">
<ele>22.760854</ele>
<time>2026-07-14T11:19:31.000Z</time>
</trkpt>
<trkpt lat="57.017313" lon="8.472047">
<ele>22.749300</ele>
<time>2026-07-14T11:19:32.000Z</time>
</trkpt>
<trkpt lat="57.017368" lon="8.472055">
<ele>22.737738</ele>
<time>2026-07-14T11:19:33.000Z</time>
</trkpt>
<trkpt lat="57.017422" lon="8.472063">
<ele>22.726384</ele>
<time>2026-07-14T11:19:34.000Z</time>
</trkpt>
<trkpt lat="57.017478" lon="8.472071">
<ele>22.714613</ele>
<time>2026-07-14T11:19:35.000Z</time>
</trkpt>
<trkpt lat="57.017533" lon="8.472080">
<ele>22.703041</ele>
<time>2026-07-14T11:19:36.000Z</time>
</trkpt>
<trkpt lat="57.017589" lon="8.472090">
<ele>22.691250</ele>
<time>2026-07-14T11:19:37.000Z</time>
</trkpt>
<trkpt lat="57.017646" lon="8.472101">
<ele>22.679239</ele>
<time>2026-07-14T11:19:38.000Z</time>
</trkpt>
<trkpt lat="57.017701" lon="8.472116">
<ele>22.667587</ele>
<time>2026-07-14T11:19:39.000Z</time>
</trkpt>
<trkpt lat="57.017756" lon="8.472130">
<ele>22.655950</ele>
<time>2026-07-14T11:19:40.000Z</time>
</trkpt>
<trkpt lat="57.017814" lon="8.472143">
<ele>22.643705</ele>
<time>2026-07-14T11:19:41.000Z</time>
</trkpt>
<trkpt lat="57.017871" lon="8.472157">
<ele>22.631654</ele>
<time>2026-07-14T11:19:42.000Z</time>
</trkpt>
<trkpt lat="57.017928" lon="8.472170">
<ele>22.619617</ele>
<time>2026-07-14T11:19:43.000Z</time>
</trkpt>
<trkpt lat="57.017984" lon="8.472184">
<ele>22.607773</ele>
<time>2026-07-14T11:19:44.000Z</time>
</trkpt>
<trkpt lat="57.018042" lon="8.472200">
<ele>22.595481</ele>
<time>2026-07-14T11:19:45.000Z</time>
</trkpt>
<trkpt lat="57.018098" lon="8.472217">
<ele>22.583586</ele>
<time>2026-07-14T11:19:46.000Z</time>
</trkpt>
<trkpt lat="57.018152" lon="8.472235">
<ele>22.572085</ele>
<time>2026-07-14T11:19:47.000Z</time>
</trkpt>
<trkpt lat="57.018208" lon="8.472255">
<ele>22.560129</ele>
<time>2026-07-14T11:19:48.000Z</time>
</trkpt>
<trkpt lat="57.018263" lon="8.472276">
<ele>22.548357</ele>
<time>2026-07-14T11:19:49.000Z</time>
</trkpt>
<trkpt lat="57.018318" lon="8.472296">
<ele>22.536607</ele>
<time>2026-07-14T11:19:50.000Z</time>
</trkpt>
<trkpt lat="57.018370" lon="8.472316">
<ele>22.525473</ele>
<time>2026-07-14T11:19:51.000Z</time>
</trkpt>
<trkpt lat="57.018424" lon="8.472334">
<ele>22.513972</ele>
<time>2026-07-14T11:19:52.000Z</time>
</trkpt>
<trkpt lat="57.018479" lon="8.472350">
<ele>22.502302</ele>
<time>2026-07-14T11:19:53.000Z</time>
</trkpt>
<trkpt lat="57.018534" lon="8.472367">
<ele>22.490614</ele>
<time>2026-07-14T11:19:54.000Z</time>
</trkpt>
<trkpt lat="57.018591" lon="8.472384">
<ele>22.478512</ele>
<time>2026-07-14T11:19:55.000Z</time>
</trkpt>
<trkpt lat="57.018651" lon="8.472403">
<ele>22.465753</ele>
<time>2026-07-14T11:19:56.000Z</time>
</trkpt>
<trkpt lat="57.018713" lon="8.472425">
<ele>22.452519</ele>
<time>2026-07-14T11:19:57.000Z</time>
</trkpt>
<trkpt lat="57.018773" lon="8.472446">
<ele>22.439719</ele>
<time>2026-07-14T11:19:58.000Z</time>
</trkpt>
<trkpt lat="57.018833" lon="8.472466">
<ele>22.426940</ele>
<time>2026-07-14T11:19:59.000Z</time>
</trkpt>
<trkpt lat="57.018896" lon="8.472485">
<ele>22.401199</ele>
<time>2026-07-14T11:20:00.000Z</time>
</trkpt>
<trkpt lat="57.018960" lon="8.472502">
<ele>22.356503</ele>
<time>2026-07-14T11:20:01.000Z</time>
</trkpt>
<trkpt lat="57.019021" lon="8.472513">
<ele>22.314138</ele>
<time>2026-07-14T11:20:02.000Z</time>
</trkpt>
<trkpt lat="57.019082" lon="8.472514">
<ele>22.271974</ele>
<time>2026-07-14T11:20:03.000Z</time>
</trkpt>
<trkpt lat="57.019141" lon="8.472500">
<ele>22.230855</ele>
<time>2026-07-14T11:20:04.000Z</time>
</trkpt>
<trkpt lat="57.019200" lon="8.472470">
<ele>22.188542</ele>
<time>2026-07-14T11:20:05.000Z</time>
</trkpt>
<trkpt lat="57.019257" lon="8.472430">
<ele>22.146367</ele>
<time>2026-07-14T11:20:06.000Z</time>
</trkpt>
<trkpt lat="57.019311" lon="8.472380">
<ele>22.104570</ele>
<time>2026-07-14T11:20:07.000Z</time>
</trkpt>
<trkpt lat="57.019360" lon="8.472319">
<ele>22.063657</ele>
<time>2026-07-14T11:20:08.000Z</time>
</trkpt>
<trkpt lat="57.019406" lon="8.472253">
<ele>22.023314</ele>
<time>2026-07-14T11:20:09.000Z</time>
</trkpt>
<trkpt lat="57.019452" lon="8.472183">
<ele>21.982028</ele>
<time>2026-07-14T11:20:10.000Z</time>
</trkpt>
<trkpt lat="57.019495" lon="8.472110">
<ele>21.941559</ele>
<time>2026-07-14T11:20:11.000Z</time>
</trkpt>
<trkpt lat="57.019538" lon="8.472036">
<ele>21.900834</ele>
<time>2026-07-14T11:20:12.000Z</time>
</trkpt>
<trkpt lat="57.019577" lon="8.471962">
<ele>21.862080</ele>
<time>2026-07-14T11:20:13.000Z</time>
</trkpt>
<trkpt lat="57.019618" lon="8.471888">
<ele>21.822352</ele>
<time>2026-07-14T11:20:14.000Z</time>
</trkpt>
<trkpt lat="57.019658" lon="8.471815">
<ele>21.783381</ele>
<time>2026-07-14T11:20:15.000Z</time>
</trkpt>
<trkpt lat="57.019698" lon="8.471745">
<ele>21.745196</ele>
<time>2026-07-14T11:20:16.000Z</time>
</trkpt>
<trkpt lat="57.019739" lon="8.471681">
<ele>21.708008</ele>
<time>2026-07-14T11:20:17.000Z</time>
</trkpt>
<trkpt lat="57.019781" lon="8.471621">
<ele>21.671234</ele>
<time>2026-07-14T11:20:18.000Z</time>
</trkpt>
<trkpt lat="57.019828" lon="8.471568">
<ele>21.633116</ele>
<time>2026-07-14T11:20:19.000Z</time>
</trkpt>
<trkpt lat="57.019877" lon="8.471525">
<ele>21.595582</ele>
<time>2026-07-14T11:20:20.000Z</time>
</trkpt>
<trkpt lat="57.019927" lon="8.471489">
<ele>21.558463</ele>
<time>2026-07-14T11:20:21.000Z</time>
</trkpt>
<trkpt lat="57.019979" lon="8.471464">
<ele>21.521311</ele>
<time>2026-07-14T11:20:22.000Z</time>
</trkpt>
<trkpt lat="57.020035" lon="8.471447">
<ele>21.482079</ele>
<time>2026-07-14T11:20:23.000Z</time>
</trkpt>
<trkpt lat="57.020089" lon="8.471441">
<ele>21.444687</ele>
<time>2026-07-14T11:20:24.000Z</time>
</trkpt>
<trkpt lat="57.020143" lon="8.471446">
<ele>21.407315</ele>
<time>2026-07-14T11:20:25.000Z</time>
</trkpt>
<trkpt lat="57.020198" lon="8.471459">
<ele>21.368987</ele>
<time>2026-07-14T11:20:26.000Z</time>
</trkpt>
<trkpt lat="57.020253" lon="8.471482">
<ele>21.329999</ele>
<time>2026-07-14T11:20:27.000Z</time>
</trkpt>
<trkpt lat="57.020306" lon="8.471510">
<ele>21.291881</ele>
<time>2026-07-14T11:20:28.000Z</time>
</trkpt>
<trkpt lat="57.020362" lon="8.471540">
<ele>21.251562</ele>
<time>2026-07-14T11:20:29.000Z</time>
</trkpt>
<trkpt lat="57.020418" lon="8.471568">
<ele>21.211448</ele>
<time>2026-07-14T11:20:30.000Z</time>
</trkpt>
<trkpt lat="57.020470" lon="8.471597">
<ele>21.175611</ele>
<time>2026-07-14T11:20:31.000Z</time>
</trkpt>
<trkpt lat="57.020524" lon="8.471627">
<ele>21.172947</ele>
<time>2026-07-14T11:20:32.000Z</time>
</trkpt>
<trkpt lat="57.020575" lon="8.471658">
<ele>21.170411</ele>
<time>2026-07-14T11:20:33.000Z</time>
</trkpt>
<trkpt lat="57.020622" lon="8.471689">
<ele>21.168054</ele>
<time>2026-07-14T11:20:34.000Z</time>
</trkpt>
<trkpt lat="57.020673" lon="8.471721">
<ele>21.165509</ele>
<time>2026-07-14T11:20:35.000Z</time>
</trkpt>
<trkpt lat="57.020722" lon="8.471750">
<ele>21.163079</ele>
<time>2026-07-14T11:20:36.000Z</time>
</trkpt>
<trkpt lat="57.020772" lon="8.471780">
<ele>21.160596</ele>
<time>2026-07-14T11:20:37.000Z</time>
</trkpt>
<trkpt lat="57.020824" lon="8.471813">
<ele>21.157999</ele>
<time>2026-07-14T11:20:38.000Z</time>
</trkpt>
<trkpt lat="57.020875" lon="8.471848">
<ele>21.155428</ele>
<time>2026-07-14T11:20:39.000Z</time>
</trkpt>
<trkpt lat="57.020926" lon="8.471884">
<ele>21.152849</ele>
<time>2026-07-14T11:20:40.000Z</time>
</trkpt>
<trkpt lat="57.020977" lon="8.471920">
<ele>21.150270</ele>
<time>2026-07-14T11:20:41.000Z</time>
</trkpt>
<trkpt lat="57.021030" lon="8.471956">
<ele>21.147602</ele>
<time>2026-07-14T11:20:42.000Z</time>
</trkpt>
<trkpt lat="57.021081" lon="8.471992">
<ele>21.145023</ele>
<time>2026-07-14T11:20:43.000Z</time>
</trkpt>
<trkpt lat="57.021133" lon="8.472032">
<ele>21.142361</ele>
<time>2026-07-14T11:20:44.000Z</time>
</trkpt>
<trkpt lat="57.021188" lon="8.472076">
<ele>21.139529</ele>
<time>2026-07-14T11:20:45.000Z</time>
</trkpt>
<trkpt lat="57.021239" lon="8.472120">
<ele>21.136869</ele>
<time>2026-07-14T11:20:46.000Z</time>
</trkpt>
<trkpt lat="57.021287" lon="8.472165">
<ele>21.134325</ele>
<time>2026-07-14T11:20:47.000Z</time>
</trkpt>
<trkpt lat="57.021331" lon="8.472213">
<ele>21.131909</ele>
<time>2026-07-14T11:20:48.000Z</time>
</trkpt>
<trkpt lat="57.021378" lon="8.472265">
<ele>21.129319</ele>
<time>2026-07-14T11:20:49.000Z</time>
</trkpt>
<trkpt lat="57.021427" lon="8.472319">
<ele>21.126622</ele>
<time>2026-07-14T11:20:50.000Z</time>
</trkpt>
<trkpt lat="57.021473" lon="8.472371">
<ele>21.124072</ele>
<time>2026-07-14T11:20:51.000Z</time>
</trkpt>
<trkpt lat="57.021520" lon="8.472425">
<ele>21.121455</ele>
<time>2026-07-14T11:20:52.000Z</time>
</trkpt>
<trkpt lat="57.021565" lon="8.472482">
<ele>21.118874</ele>
<time>2026-07-14T11:20:53.000Z</time>
</trkpt>
<trkpt lat="57.021611" lon="8.472540">
<ele>21.116240</ele>
<time>2026-07-14T11:20:54.000Z</time>
</trkpt>
<trkpt lat="57.021659" lon="8.472597">
<ele>21.113542</ele>
<time>2026-07-14T11:20:55.000Z</time>
</trkpt>
<trkpt lat="57.021705" lon="8.472654">
<ele>21.110923</ele>
<time>2026-07-14T11:20:56.000Z</time>
</trkpt>
<trkpt lat="57.021748" lon="8.472714">
<ele>21.108374</ele>
<time>2026-07-14T11:20:57.000Z</time>
</trkpt>
<trkpt lat="57.021792" lon="8.472775">
<ele>21.105771</ele>
<time>2026-07-14T11:20:58.000Z</time>
</trkpt>
<trkpt lat="57.021837" lon="8.472837">
<ele>21.103116</ele>
<time>2026-07-14T11:20:59.000Z</time>
</trkpt>
<trkpt lat="57.021880" lon="8.472902">
<ele>21.100487</ele>
<time>2026-07-14T11:21:00.000Z</time>
</trkpt>
<trkpt lat="57.021922" lon="8.472967">
<ele>21.097894</ele>
<time>2026-07-14T11:21:01.000Z</time>
</trkpt>
<trkpt lat="57.021962" lon="8.473031">
<ele>21.095390</ele>
<time>2026-07-14T11:21:02.000Z</time>
</trkpt>
<trkpt lat="57.022000" lon="8.473096">
<ele>21.092939</ele>
<time>2026-07-14T11:21:03.000Z</time>
</trkpt>
<trkpt lat="57.022040" lon="8.473161">
<ele>21.093685</ele>
<time>2026-07-14T11:21:04.000Z</time>
</trkpt>
<trkpt lat="57.022082" lon="8.473228">
<ele>21.112209</ele>
<time>2026-07-14T11:21:05.000Z</time>
</trkpt>
<trkpt lat="57.022124" lon="8.473297">
<ele>21.130973</ele>
<time>2026-07-14T11:21:06.000Z</time>
</trkpt>
<trkpt lat="57.022166" lon="8.473368">
<ele>21.149981</ele>
<time>2026-07-14T11:21:07.000Z</time>
</trkpt>
<trkpt lat="57.022209" lon="8.473439">
<ele>21.169235</ele>
<time>2026-07-14T11:21:08.000Z</time>
</trkpt>
<trkpt lat="57.022253" lon="8.473508">
<ele>21.188500</ele>
<time>2026-07-14T11:21:09.000Z</time>
</trkpt>
<trkpt lat="57.022296" lon="8.473573">
<ele>21.207045</ele>
<time>2026-07-14T11:21:10.000Z</time>
</trkpt>
<trkpt lat="57.022339" lon="8.473630">
<ele>21.224703</ele>
<time>2026-07-14T11:21:11.000Z</time>
</trkpt>
<trkpt lat="57.022384" lon="8.473681">
<ele>21.242312</ele>
<time>2026-07-14T11:21:12.000Z</time>
</trkpt>
<trkpt lat="57.022430" lon="8.473729">
<ele>21.259930</ele>
<time>2026-07-14T11:21:13.000Z</time>
</trkpt>
<trkpt lat="57.022478" lon="8.473772">
<ele>21.277714</ele>
<time>2026-07-14T11:21:14.000Z</time>
</trkpt>
<trkpt lat="57.022530" lon="8.473808">
<ele>21.296221</ele>
<time>2026-07-14T11:21:15.000Z</time>
</trkpt>
<trkpt lat="57.022582" lon="8.473837">
<ele>21.314318</ele>
<time>2026-07-14T11:21:16.000Z</time>
</trkpt>
<trkpt lat="57.022634" lon="8.473863">
<ele>21.332266</ele>
<time>2026-07-14T11:21:17.000Z</time>
</trkpt>
<trkpt lat="57.022690" lon="8.473886">
<ele>21.351376</ele>
<time>2026-07-14T11:21:18.000Z</time>
</trkpt>
<trkpt lat="57.022744" lon="8.473910">
<ele>21.369878</ele>
<time>2026-07-14T11:21:19.000Z</time>
</trkpt>
<trkpt lat="57.022799" lon="8.473933">
<ele>21.388663</ele>
<time>2026-07-14T11:21:20.000Z</time>
</trkpt>
<trkpt lat="57.022854" lon="8.473958">
<ele>21.407532</ele>
<time>2026-07-14T11:21:21.000Z</time>
</trkpt>
<trkpt lat="57.022905" lon="8.473982">
<ele>21.425065</ele>
<time>2026-07-14T11:21:22.000Z</time>
</trkpt>
<trkpt lat="57.022957" lon="8.474007">
<ele>21.442965</ele>
<time>2026-07-14T11:21:23.000Z</time>
</trkpt>
<trkpt lat="57.023015" lon="8.474036">
<ele>21.462984</ele>
<time>2026-07-14T11:21:24.000Z</time>
</trkpt>
<trkpt lat="57.023068" lon="8.474063">
<ele>21.481300</ele>
<time>2026-07-14T11:21:25.000Z</time>
</trkpt>
<trkpt lat="57.023120" lon="8.474093">
<ele>21.499451</ele>
<time>2026-07-14T11:21:26.000Z</time>
</trkpt>
<trkpt lat="57.023167" lon="8.474125">
<ele>21.516144</ele>
<time>2026-07-14T11:21:27.000Z</time>
</trkpt>
<trkpt lat="57.023216" lon="8.474159">
<ele>21.533587</ele>
<time>2026-07-14T11:21:28.000Z</time>
</trkpt>
<trkpt lat="57.023269" lon="8.474194">
<ele>21.552344</ele>
<time>2026-07-14T11:21:29.000Z</time>
</trkpt>
<trkpt lat="57.023318" lon="8.474224">
<ele>21.569544</ele>
<time>2026-07-14T11:21:30.000Z</time>
</trkpt>
<trkpt lat="57.023367" lon="8.474253">
<ele>21.586688</ele>
<time>2026-07-14T11:21:31.000Z</time>
</trkpt>
<trkpt lat="57.023415" lon="8.474284">
<ele>21.603633</ele>
<time>2026-07-14T11:21:32.000Z</time>
</trkpt>
<trkpt lat="57.023461" lon="8.474317">
<ele>21.620078</ele>
<time>2026-07-14T11:21:33.000Z</time>
</trkpt>
<trkpt lat="57.023507" lon="8.474346">
<ele>21.636275</ele>
<time>2026-07-14T11:21:34.000Z</time>
</trkpt>
<trkpt lat="57.023554" lon="8.474374">
<ele>21.652729</ele>
<time>2026-07-14T11:21:35.000Z</time>
</trkpt>
<trkpt lat="57.023600" lon="8.474404">
<ele>21.668985</ele>
<time>2026-07-14T11:21:36.000Z</time>
</trkpt>
<trkpt lat="57.023644" lon="8.474436">
<ele>21.684745</ele>
<time>2026-07-14T11:21:37.000Z</time>
</trkpt>
<trkpt lat="57.023688" lon="8.474467">
<ele>21.706764</ele>
<time>2026-07-14T11:21:38.000Z</time>
</trkpt>
<trkpt lat="57.023730" lon="8.474497">
<ele>21.730715</ele>
<time>2026-07-14T11:21:39.000Z</time>
</trkpt>
<trkpt lat="57.023772" lon="8.474526">
<ele>21.754562</ele>
<time>2026-07-14T11:21:40.000Z</time>
</trkpt>
<trkpt lat="57.023817" lon="8.474556">
<ele>21.780005</ele>
<time>2026-07-14T11:21:41.000Z</time>
</trkpt>
<trkpt lat="57.023865" lon="8.474586">
<ele>21.806952</ele>
<time>2026-07-14T11:21:42.000Z</time>
</trkpt>
<trkpt lat="57.023911" lon="8.474614">
<ele>21.832708</ele>
<time>2026-07-14T11:21:43.000Z</time>
</trkpt>
<trkpt lat="57.023958" lon="8.474644">
<ele>21.859152</ele>
<time>2026-07-14T11:21:44.000Z</time>
</trkpt>
<trkpt lat="57.024007" lon="8.474675">
<ele>21.886696</ele>
<time>2026-07-14T11:21:45.000Z</time>
</trkpt>
<trkpt lat="57.024053" lon="8.474703">
<ele>21.912452</ele>
<time>2026-07-14T11:21:46.000Z</time>
</trkpt>
<trkpt lat="57.024098" lon="8.474733">
<ele>21.937895</ele>
<time>2026-07-14T11:21:47.000Z</time>
</trkpt>
<trkpt lat="57.024143" lon="8.474765">
<ele>21.963541</ele>
<time>2026-07-14T11:21:48.000Z</time>
</trkpt>
<trkpt lat="57.024189" lon="8.474794">
<ele>21.989389</ele>
<time>2026-07-14T11:21:49.000Z</time>
</trkpt>
<trkpt lat="57.024235" lon="8.474824">
<ele>22.015332</ele>
<time>2026-07-14T11:21:50.000Z</time>
</trkpt>
<trkpt lat="57.024281" lon="8.474854">
<ele>22.041275</ele>
<time>2026-07-14T11:21:51.000Z</time>
</trkpt>
<trkpt lat="57.024325" lon="8.474885">
<ele>22.066321</ele>
<time>2026-07-14T11:21:52.000Z</time>
</trkpt>
<trkpt lat="57.024369" lon="8.474914">
<ele>22.091166</ele>
<time>2026-07-14T11:21:53.000Z</time>
</trkpt>
<trkpt lat="57.024412" lon="8.474940">
<ele>22.115226</ele>
<time>2026-07-14T11:21:54.000Z</time>
</trkpt>
<trkpt lat="57.024454" lon="8.474969">
<ele>22.139073</ele>
<time>2026-07-14T11:21:55.000Z</time>
</trkpt>
<trkpt lat="57.024494" lon="8.474996">
<ele>22.161722</ele>
<time>2026-07-14T11:21:56.000Z</time>
</trkpt>
<trkpt lat="57.024536" lon="8.475021">
<ele>22.185187</ele>
<time>2026-07-14T11:21:57.000Z</time>
</trkpt>
<trkpt lat="57.024579" lon="8.475047">
<ele>22.209247</ele>
<time>2026-07-14T11:21:58.000Z</time>
</trkpt>
<trkpt lat="57.024617" lon="8.475070">
<ele>22.230512</ele>
<time>2026-07-14T11:21:59.000Z</time>
</trkpt>
<trkpt lat="57.024657" lon="8.475091">
<ele>22.252622</ele>
<time>2026-07-14T11:22:00.000Z</time>
</trkpt>
<trkpt lat="57.024699" lon="8.475114">
<ele>22.275915</ele>
<time>2026-07-14T11:22:01.000Z</time>
</trkpt>
<trkpt lat="57.024741" lon="8.475136">
<ele>22.299127</ele>
<time>2026-07-14T11:22:02.000Z</time>
</trkpt>
<trkpt lat="57.024783" lon="8.475163">
<ele>22.322777</ele>
<time>2026-07-14T11:22:03.000Z</time>
</trkpt>
<trkpt lat="57.024825" lon="8.475195">
<ele>22.346943</ele>
<time>2026-07-14T11:22:04.000Z</time>
</trkpt>
<trkpt lat="57.024866" lon="8.475227">
<ele>22.370619</ele>
<time>2026-07-14T11:22:05.000Z</time>
</trkpt>
<trkpt lat="57.024910" lon="8.475261">
<ele>22.395989</ele>
<time>2026-07-14T11:22:06.000Z</time>
</trkpt>
<trkpt lat="57.024957" lon="8.475299">
<ele>22.423280</ele>
<time>2026-07-14T11:22:07.000Z</time>
</trkpt>
<trkpt lat="57.025002" lon="8.475338">
<ele>22.449725</ele>
<time>2026-07-14T11:22:08.000Z</time>
</trkpt>
<trkpt lat="57.025045" lon="8.475375">
<ele>22.474961</ele>
<time>2026-07-14T11:22:09.000Z</time>
</trkpt>
<trkpt lat="57.025088" lon="8.475410">
<ele>22.499958</ele>
<time>2026-07-14T11:22:10.000Z</time>
</trkpt>
<trkpt lat="57.025128" lon="8.475447">
<ele>22.523760</ele>
<time>2026-07-14T11:22:11.000Z</time>
</trkpt>
<trkpt lat="57.025168" lon="8.475484">
<ele>22.547561</ele>
<time>2026-07-14T11:22:12.000Z</time>
</trkpt>
<trkpt lat="57.025210" lon="8.475523">
<ele>22.572573</ele>
<time>2026-07-14T11:22:13.000Z</time>
</trkpt>
<trkpt lat="57.025254" lon="8.475563">
<ele>22.598665</ele>
<time>2026-07-14T11:22:14.000Z</time>
</trkpt>
<trkpt lat="57.025297" lon="8.475605">
<ele>22.624548</ele>
<time>2026-07-14T11:22:15.000Z</time>
</trkpt>
<trkpt lat="57.025339" lon="8.475649">
<ele>22.638617</ele>
<time>2026-07-14T11:22:16.000Z</time>
</trkpt>
<trkpt lat="57.025383" lon="8.475693">
<ele>22.595770</ele>
<time>2026-07-14T11:22:17.000Z</time>
</trkpt>
<trkpt lat="57.025429" lon="8.475738">
<ele>22.551195</ele>
<time>2026-07-14T11:22:18.000Z</time>
</trkpt>
<trkpt lat="57.025477" lon="8.475787">
<ele>22.504228</ele>
<time>2026-07-14T11:22:19.000Z</time>
</trkpt>
<trkpt lat="57.025527" lon="8.475833">
<ele>22.456399</ele>
<time>2026-07-14T11:22:20.000Z</time>
</trkpt>
<trkpt lat="57.025576" lon="8.475879">
<ele>22.409334</ele>
<time>2026-07-14T11:22:21.000Z</time>
</trkpt>
<trkpt lat="57.025628" lon="8.475927">
<ele>22.359559</ele>
<time>2026-07-14T11:22:22.000Z</time>
</trkpt>
<trkpt lat="57.025680" lon="8.475976">
<ele>22.309574</ele>
<time>2026-07-14T11:22:23.000Z</time>
</trkpt>
<trkpt lat="57.025729" lon="8.476029">
<ele>22.260939</ele>
<time>2026-07-14T11:22:24.000Z</time>
</trkpt>
<trkpt lat="57.025779" lon="8.476085">
<ele>22.210853</ele>
<time>2026-07-14T11:22:25.000Z</time>
</trkpt>
<trkpt lat="57.025828" lon="8.476146">
<ele>22.160228</ele>
<time>2026-07-14T11:22:26.000Z</time>
</trkpt>
<trkpt lat="57.025876" lon="8.476212">
<ele>22.108948</ele>
<time>2026-07-14T11:22:27.000Z</time>
</trkpt>
<trkpt lat="57.025919" lon="8.476281">
<ele>22.060117</ele>
<time>2026-07-14T11:22:28.000Z</time>
</trkpt>
<trkpt lat="57.025960" lon="8.476357">
<ele>22.010302</ele>
<time>2026-07-14T11:22:29.000Z</time>
</trkpt>
<trkpt lat="57.025998" lon="8.476436">
<ele>21.961222</ele>
<time>2026-07-14T11:22:30.000Z</time>
</trkpt>
<trkpt lat="57.026036" lon="8.476514">
<ele>21.912489</ele>
<time>2026-07-14T11:22:31.000Z</time>
</trkpt>
<trkpt lat="57.026072" lon="8.476591">
<ele>21.865234</ele>
<time>2026-07-14T11:22:32.000Z</time>
</trkpt>
<trkpt lat="57.026109" lon="8.476665">
<ele>21.818455</ele>
<time>2026-07-14T11:22:33.000Z</time>
</trkpt>
<trkpt lat="57.026145" lon="8.476735">
<ele>21.773622</ele>
<time>2026-07-14T11:22:34.000Z</time>
</trkpt>
<trkpt lat="57.026177" lon="8.476804">
<ele>21.731422</ele>
<time>2026-07-14T11:22:35.000Z</time>
</trkpt>
<trkpt lat="57.026209" lon="8.476872">
<ele>21.689574</ele>
<time>2026-07-14T11:22:36.000Z</time>
</trkpt>
<trkpt lat="57.026242" lon="8.476938">
<ele>21.647853</ele>
<time>2026-07-14T11:22:37.000Z</time>
</trkpt>
<trkpt lat="57.026274" lon="8.477004">
<ele>21.606705</ele>
<time>2026-07-14T11:22:38.000Z</time>
</trkpt>
<trkpt lat="57.026307" lon="8.477072">
<ele>21.564293</ele>
<time>2026-07-14T11:22:39.000Z</time>
</trkpt>
<trkpt lat="57.026339" lon="8.477140">
<ele>21.522446</ele>
<time>2026-07-14T11:22:40.000Z</time>
</trkpt>
<trkpt lat="57.026371" lon="8.477206">
<ele>21.481298</ele>
<time>2026-07-14T11:22:41.000Z</time>
</trkpt>
<trkpt lat="57.026402" lon="8.477275">
<ele>21.439647</ele>
<time>2026-07-14T11:22:42.000Z</time>
</trkpt>
<trkpt lat="57.026435" lon="8.477343">
<ele>21.397236</ele>
<time>2026-07-14T11:22:43.000Z</time>
</trkpt>
<trkpt lat="57.026466" lon="8.477408">
<ele>21.357003</ele>
<time>2026-07-14T11:22:44.000Z</time>
</trkpt>
<trkpt lat="57.026498" lon="8.477477">
<ele>21.314803</ele>
<time>2026-07-14T11:22:45.000Z</time>
</trkpt>
<trkpt lat="57.026532" lon="8.477551">
<ele>21.269721</ele>
<time>2026-07-14T11:22:46.000Z</time>
</trkpt>
<trkpt lat="57.026564" lon="8.477624">
<ele>21.226086</ele>
<time>2026-07-14T11:22:47.000Z</time>
</trkpt>
<trkpt lat="57.026598" lon="8.477701">
<ele>21.179928</ele>
<time>2026-07-14T11:22:48.000Z</time>
</trkpt>
<trkpt lat="57.026634" lon="8.477778">
<ele>21.132674</ele>
<time>2026-07-14T11:22:49.000Z</time>
</trkpt>
<trkpt lat="57.026670" lon="8.477856">
<ele>21.102481</ele>
<time>2026-07-14T11:22:50.000Z</time>
</trkpt>
<trkpt lat="57.026705" lon="8.477937">
<ele>21.091960</ele>
<time>2026-07-14T11:22:51.000Z</time>
</trkpt>
<trkpt lat="57.026739" lon="8.478014">
<ele>21.081874</ele>
<time>2026-07-14T11:22:52.000Z</time>
</trkpt>
<trkpt lat="57.026774" lon="8.478092">
<ele>21.071590</ele>
<time>2026-07-14T11:22:53.000Z</time>
</trkpt>
<trkpt lat="57.026808" lon="8.478168">
<ele>21.061582</ele>
<time>2026-07-14T11:22:54.000Z</time>
</trkpt>
<trkpt lat="57.026843" lon="8.478248">
<ele>21.051140</ele>
<time>2026-07-14T11:22:55.000Z</time>
</trkpt>
<trkpt lat="57.026877" lon="8.478330">
<ele>21.040654</ele>
<time>2026-07-14T11:22:56.000Z</time>
</trkpt>
<trkpt lat="57.026911" lon="8.478409">
<ele>21.030408</ele>
<time>2026-07-14T11:22:57.000Z</time>
</trkpt>
<trkpt lat="57.026945" lon="8.478490">
<ele>21.020003</ele>
<time>2026-07-14T11:22:58.000Z</time>
</trkpt>
<trkpt lat="57.026978" lon="8.478569">
<ele>21.009872</ele>
<time>2026-07-14T11:22:59.000Z</time>
</trkpt>
<trkpt lat="57.027008" lon="8.478646">
<ele>21.000239</ele>
<time>2026-07-14T11:23:00.000Z</time>
</trkpt>
<trkpt lat="57.027039" lon="8.478721">
<ele>20.990659</ele>
<time>2026-07-14T11:23:01.000Z</time>
</trkpt>
<trkpt lat="57.027071" lon="8.478797">
<ele>20.980884</ele>
<time>2026-07-14T11:23:02.000Z</time>
</trkpt>
<trkpt lat="57.027105" lon="8.478876">
<ele>20.970639</ele>
<time>2026-07-14T11:23:03.000Z</time>
</trkpt>
<trkpt lat="57.027140" lon="8.478955">
<ele>20.960276</ele>
<time>2026-07-14T11:23:04.000Z</time>
</trkpt>
<trkpt lat="57.027176" lon="8.479033">
<ele>20.949873</ele>
<time>2026-07-14T11:23:05.000Z</time>
</trkpt>
<trkpt lat="57.027213" lon="8.479114">
<ele>20.939115</ele>
<time>2026-07-14T11:23:06.000Z</time>
</trkpt>
<trkpt lat="57.027249" lon="8.479195">
<ele>20.928477</ele>
<time>2026-07-14T11:23:07.000Z</time>
</trkpt>
<trkpt lat="57.027285" lon="8.479275">
<ele>20.917918</ele>
<time>2026-07-14T11:23:08.000Z</time>
</trkpt>
<trkpt lat="57.027321" lon="8.479354">
<ele>20.907436</ele>
<time>2026-07-14T11:23:09.000Z</time>
</trkpt>
<trkpt lat="57.027360" lon="8.479433">
<ele>20.896586</ele>
<time>2026-07-14T11:23:10.000Z</time>
</trkpt>
<trkpt lat="57.027396" lon="8.479513">
<ele>20.886027</ele>
<time>2026-07-14T11:23:11.000Z</time>
</trkpt>
<trkpt lat="57.027430" lon="8.479592">
<ele>20.875781</ele>
<time>2026-07-14T11:23:12.000Z</time>
</trkpt>
<trkpt lat="57.027464" lon="8.479666">
<ele>20.865930</ele>
<time>2026-07-14T11:23:13.000Z</time>
</trkpt>
<trkpt lat="57.027498" lon="8.479743">
<ele>20.855843</ele>
<time>2026-07-14T11:23:14.000Z</time>
</trkpt>
<trkpt lat="57.027533" lon="8.479826">
<ele>20.845162</ele>
<time>2026-07-14T11:23:15.000Z</time>
</trkpt>
<trkpt lat="57.027565" lon="8.479910">
<ele>20.834732</ele>
<time>2026-07-14T11:23:16.000Z</time>
</trkpt>
<trkpt lat="57.027597" lon="8.479991">
<ele>20.824551</ele>
<time>2026-07-14T11:23:17.000Z</time>
</trkpt>
<trkpt lat="57.027631" lon="8.480071">
<ele>20.814225</ele>
<time>2026-07-14T11:23:18.000Z</time>
</trkpt>
<trkpt lat="57.027668" lon="8.480152">
<ele>20.803468</ele>
<time>2026-07-14T11:23:19.000Z</time>
</trkpt>
<trkpt lat="57.027705" lon="8.480234">
<ele>20.792633</ele>
<time>2026-07-14T11:23:20.000Z</time>
</trkpt>
<trkpt lat="57.027741" lon="8.480317">
<ele>20.781836</ele>
<time>2026-07-14T11:23:21.000Z</time>
</trkpt>
<trkpt lat="57.027777" lon="8.480395">
<ele>20.771433</ele>
<time>2026-07-14T11:23:22.000Z</time>
</trkpt>
<trkpt lat="57.027812" lon="8.480471">
<ele>20.765438</ele>
<time>2026-07-14T11:23:23.000Z</time>
</trkpt>
<trkpt lat="57.027849" lon="8.480553">
<ele>20.759145</ele>
<time>2026-07-14T11:23:24.000Z</time>
</trkpt>
<trkpt lat="57.027886" lon="8.480637">
<ele>20.752760</ele>
<time>2026-07-14T11:23:25.000Z</time>
</trkpt>
<trkpt lat="57.027920" lon="8.480715">
<ele>20.746856</ele>
<time>2026-07-14T11:23:26.000Z</time>
</trkpt>
<trkpt lat="57.027952" lon="8.480795">
<ele>20.740990</ele>
<time>2026-07-14T11:23:27.000Z</time>
</trkpt>
<trkpt lat="57.027984" lon="8.480876">
<ele>20.735077</ele>
<time>2026-07-14T11:23:28.000Z</time>
</trkpt>
<trkpt lat="57.028019" lon="8.480957">
<ele>20.728967</ele>
<time>2026-07-14T11:23:29.000Z</time>
</trkpt>
<trkpt lat="57.028056" lon="8.481038">
<ele>20.722719</ele>
<time>2026-07-14T11:23:30.000Z</time>
</trkpt>
<trkpt lat="57.028092" lon="8.481122">
<ele>20.716402</ele>
<time>2026-07-14T11:23:31.000Z</time>
</trkpt>
<trkpt lat="57.028128" lon="8.481205">
<ele>20.710132</ele>
<time>2026-07-14T11:23:32.000Z</time>
</trkpt>
<trkpt lat="57.028162" lon="8.481281">
<ele>20.704320</ele>
<time>2026-07-14T11:23:33.000Z</time>
</trkpt>
<trkpt lat="57.028201" lon="8.481360">
<ele>20.698018</ele>
<time>2026-07-14T11:23:34.000Z</time>
</trkpt>
<trkpt lat="57.028239" lon="8.481448">
<ele>20.691381</ele>
<time>2026-07-14T11:23:35.000Z</time>
</trkpt>
<trkpt lat="57.028275" lon="8.481530">
<ele>20.685157</ele>
<time>2026-07-14T11:23:36.000Z</time>
</trkpt>
<trkpt lat="57.028314" lon="8.481613">
<ele>20.678679</ele>
<time>2026-07-14T11:23:37.000Z</time>
</trkpt>
<trkpt lat="57.028352" lon="8.481693">
<ele>20.672405</ele>
<time>2026-07-14T11:23:38.000Z</time>
</trkpt>
<trkpt lat="57.028389" lon="8.481777">
<ele>20.666021</ele>
<time>2026-07-14T11:23:39.000Z</time>
</trkpt>
<trkpt lat="57.028425" lon="8.481871">
<ele>20.659230</ele>
<time>2026-07-14T11:23:40.000Z</time>
</trkpt>
<trkpt lat="57.028460" lon="8.481971">
<ele>20.652206</ele>
<time>2026-07-14T11:23:41.000Z</time>
</trkpt>
<trkpt lat="57.028497" lon="8.482066">
<ele>20.645304</ele>
<time>2026-07-14T11:23:42.000Z</time>
</trkpt>
<trkpt lat="57.028535" lon="8.482153">
<ele>20.638714</ele>
<time>2026-07-14T11:23:43.000Z</time>
</trkpt>
<trkpt lat="57.028573" lon="8.482238">
<ele>20.632215</ele>
<time>2026-07-14T11:23:44.000Z</time>
</trkpt>
<trkpt lat="57.028611" lon="8.482325">
<ele>20.625624</ele>
<time>2026-07-14T11:23:45.000Z</time>
</trkpt>
<trkpt lat="57.028647" lon="8.482408">
<ele>20.619354</ele>
<time>2026-07-14T11:23:46.000Z</time>
</trkpt>
<trkpt lat="57.028683" lon="8.482493">
<ele>20.612991</ele>
<time>2026-07-14T11:23:47.000Z</time>
</trkpt>
<trkpt lat="57.028721" lon="8.482578">
<ele>20.606492</ele>
<time>2026-07-14T11:23:48.000Z</time>
</trkpt>
<trkpt lat="57.028759" lon="8.482662">
<ele>20.600039</ele>
<time>2026-07-14T11:23:49.000Z</time>
</trkpt>
<trkpt lat="57.028796" lon="8.482743">
<ele>20.593791</ele>
<time>2026-07-14T11:23:50.000Z</time>
</trkpt>
<trkpt lat="57.028830" lon="8.482820">
<ele>20.587933</ele>
<time>2026-07-14T11:23:51.000Z</time>
</trkpt>
<trkpt lat="57.028865" lon="8.482898">
<ele>20.581961</ele>
<time>2026-07-14T11:23:52.000Z</time>
</trkpt>
<trkpt lat="57.028896" lon="8.482976">
<ele>20.576255</ele>
<time>2026-07-14T11:23:53.000Z</time>
</trkpt>
<trkpt lat="57.028929" lon="8.483055">
<ele>20.603577</ele>
<time>2026-07-14T11:23:54.000Z</time>
</trkpt>
<trkpt lat="57.028962" lon="8.483137">
<ele>20.633683</ele>
<time>2026-07-14T11:23:55.000Z</time>
</trkpt>
<trkpt lat="57.028994" lon="8.483217">
<ele>20.662992</ele>
<time>2026-07-14T11:23:56.000Z</time>
</trkpt>
<trkpt lat="57.029030" lon="8.483298">
<ele>20.693864</ele>
<time>2026-07-14T11:23:57.000Z</time>
</trkpt>
<trkpt lat="57.029067" lon="8.483385">
<ele>20.726458</ele>
<time>2026-07-14T11:23:58.000Z</time>
</trkpt>
<trkpt lat="57.029101" lon="8.483471">
<ele>20.757838</ele>
<time>2026-07-14T11:23:59.000Z</time>
</trkpt>
<trkpt lat="57.029134" lon="8.483552">
<ele>20.787707</ele>
<time>2026-07-14T11:24:00.000Z</time>
</trkpt>
<trkpt lat="57.029166" lon="8.483633">
<ele>20.817254</ele>
<time>2026-07-14T11:24:01.000Z</time>
</trkpt>
<trkpt lat="57.029202" lon="8.483712">
<ele>20.847671</ele>
<time>2026-07-14T11:24:02.000Z</time>
</trkpt>
<trkpt lat="57.029238" lon="8.483785">
<ele>20.876752</ele>
<time>2026-07-14T11:24:03.000Z</time>
</trkpt>
<trkpt lat="57.029271" lon="8.483859">
<ele>20.904994</ele>
<time>2026-07-14T11:24:04.000Z</time>
</trkpt>
<trkpt lat="57.029303" lon="8.483934">
<ele>20.933127</ele>
<time>2026-07-14T11:24:05.000Z</time>
</trkpt>
<trkpt lat="57.029331" lon="8.484012">
<ele>20.960711</ele>
<time>2026-07-14T11:24:06.000Z</time>
</trkpt>
<trkpt lat="57.029349" lon="8.484103">
<ele>20.989293</ele>
<time>2026-07-14T11:24:07.000Z</time>
</trkpt>
<trkpt lat="57.029358" lon="8.484206">
<ele>21.020088</ele>
<time>2026-07-14T11:24:08.000Z</time>
</trkpt>
<trkpt lat="57.029362" lon="8.484311">
<ele>21.051159</ele>
<time>2026-07-14T11:24:09.000Z</time>
</trkpt>
<trkpt lat="57.029364" lon="8.484403">
<ele>21.078339</ele>
<time>2026-07-14T11:24:10.000Z</time>
</trkpt>
<trkpt lat="57.029368" lon="8.484481">
<ele>21.101467</ele>
<time>2026-07-14T11:24:11.000Z</time>
</trkpt>
<trkpt lat="57.029373" lon="8.484552">
<ele>21.122600</ele>
<time>2026-07-14T11:24:12.000Z</time>
</trkpt>
<trkpt lat="57.029387" lon="8.484615">
<ele>21.142689</ele>
<time>2026-07-14T11:24:13.000Z</time>
</trkpt>
<trkpt lat="57.029409" lon="8.484670">
<ele>21.162838</ele>
<time>2026-07-14T11:24:14.000Z</time>
</trkpt>
<trkpt lat="57.029438" lon="8.484719">
<ele>21.184208</ele>
<time>2026-07-14T11:24:15.000Z</time>
</trkpt>
<trkpt lat="57.029471" lon="8.484766">
<ele>21.206856</ele>
<time>2026-07-14T11:24:16.000Z</time>
</trkpt>
<trkpt lat="57.029506" lon="8.484812">
<ele>21.230198</ele>
<time>2026-07-14T11:24:17.000Z</time>
</trkpt>
<trkpt lat="57.029542" lon="8.484861">
<ele>21.254499</ele>
<time>2026-07-14T11:24:18.000Z</time>
</trkpt>
<trkpt lat="57.029580" lon="8.484909">
<ele>21.279512</ele>
<time>2026-07-14T11:24:19.000Z</time>
</trkpt>
<trkpt lat="57.029615" lon="8.484956">
<ele>21.303026</ele>
<time>2026-07-14T11:24:20.000Z</time>
</trkpt>
<trkpt lat="57.029648" lon="8.485010">
<ele>21.326996</ele>
<time>2026-07-14T11:24:21.000Z</time>
</trkpt>
<trkpt lat="57.029679" lon="8.485064">
<ele>21.350166</ele>
<time>2026-07-14T11:24:22.000Z</time>
</trkpt>
<trkpt lat="57.029709" lon="8.485114">
<ele>21.372135</ele>
<time>2026-07-14T11:24:23.000Z</time>
</trkpt>
<trkpt lat="57.029739" lon="8.485162">
<ele>21.393713</ele>
<time>2026-07-14T11:24:24.000Z</time>
</trkpt>
<trkpt lat="57.029770" lon="8.485206">
<ele>21.414960</ele>
<time>2026-07-14T11:24:25.000Z</time>
</trkpt>
<trkpt lat="57.029799" lon="8.485251">
<ele>21.435550</ele>
<time>2026-07-14T11:24:26.000Z</time>
</trkpt>
<trkpt lat="57.029825" lon="8.485300">
<ele>21.455752</ele>
<time>2026-07-14T11:24:27.000Z</time>
</trkpt>
<trkpt lat="57.029850" lon="8.485347">
<ele>21.475152</ele>
<time>2026-07-14T11:24:28.000Z</time>
</trkpt>
<trkpt lat="57.029880" lon="8.485400">
<ele>21.497726</ele>
<time>2026-07-14T11:24:29.000Z</time>
</trkpt>
<trkpt lat="57.029917" lon="8.485458">
<ele>21.524107</ele>
<time>2026-07-14T11:24:30.000Z</time>
</trkpt>
<trkpt lat="57.029950" lon="8.485513">
<ele>21.548274</ele>
<time>2026-07-14T11:24:31.000Z</time>
</trkpt>
<trkpt lat="57.029980" lon="8.485566">
<ele>21.527774</ele>
<time>2026-07-14T11:24:32.000Z</time>
</trkpt>
<trkpt lat="57.030015" lon="8.485613">
<ele>21.498791</ele>
<time>2026-07-14T11:24:33.000Z</time>
</trkpt>
<trkpt lat="57.030049" lon="8.485660">
<ele>21.470345</ele>
<time>2026-07-14T11:24:34.000Z</time>
</trkpt>
<trkpt lat="57.030081" lon="8.485710">
<ele>21.442261</ele>
<time>2026-07-14T11:24:35.000Z</time>
</trkpt>
<trkpt lat="57.030112" lon="8.485761">
<ele>21.414442</ele>
<time>2026-07-14T11:24:36.000Z</time>
</trkpt>
<trkpt lat="57.030140" lon="8.485814">
<ele>21.387566</ele>
<time>2026-07-14T11:24:37.000Z</time>
</trkpt>
<trkpt lat="57.030167" lon="8.485863">
<ele>21.362194</ele>
<time>2026-07-14T11:24:38.000Z</time>
</trkpt>
<trkpt lat="57.030195" lon="8.485911">
<ele>21.336592</ele>
<time>2026-07-14T11:24:39.000Z</time>
</trkpt>
<trkpt lat="57.030228" lon="8.485966">
<ele>21.306806</ele>
<time>2026-07-14T11:24:40.000Z</time>
</trkpt>
<trkpt lat="57.030259" lon="8.486024">
<ele>21.277227</ele>
<time>2026-07-14T11:24:41.000Z</time>
</trkpt>
<trkpt lat="57.030291" lon="8.486082">
<ele>21.247176</ele>
<time>2026-07-14T11:24:42.000Z</time>
</trkpt>
<trkpt lat="57.030323" lon="8.486139">
<ele>21.217379</ele>
<time>2026-07-14T11:24:43.000Z</time>
</trkpt>
<trkpt lat="57.030356" lon="8.486198">
<ele>21.186596</ele>
<time>2026-07-14T11:24:44.000Z</time>
</trkpt>
<trkpt lat="57.030388" lon="8.486256">
<ele>21.156545</ele>
<time>2026-07-14T11:24:45.000Z</time>
</trkpt>
<trkpt lat="57.030419" lon="8.486311">
<ele>21.127735</ele>
<time>2026-07-14T11:24:46.000Z</time>
</trkpt>
<trkpt lat="57.030448" lon="8.486357">
<ele>21.102121</ele>
<time>2026-07-14T11:24:47.000Z</time>
</trkpt>
<trkpt lat="57.030478" lon="8.486400">
<ele>21.076683</ele>
<time>2026-07-14T11:24:48.000Z</time>
</trkpt>
<trkpt lat="57.030509" lon="8.486443">
<ele>21.050715</ele>
<time>2026-07-14T11:24:49.000Z</time>
</trkpt>
<trkpt lat="57.030529" lon="8.486475">
<ele>21.032985</ele>
<time>2026-07-14T11:24:50.000Z</time>
</trkpt>
<trkpt lat="57.030540" lon="8.486496">
<ele>21.022380</ele>
<time>2026-07-14T11:24:51.000Z</time>
</trkpt>
<trkpt lat="57.030554" lon="8.486510">
<ele>21.011723</ele>
<time>2026-07-14T11:24:54.000Z</time>
</trkpt>
<trkpt lat="57.030565" lon="8.486516">
<ele>21.004052</ele>
<time>2026-07-14T11:24:55.000Z</time>
</trkpt>
<trkpt lat="57.030579" lon="8.486523">
<ele>20.994351</ele>
<time>2026-07-14T11:24:56.000Z</time>
</trkpt>
<trkpt lat="57.030596" lon="8.486526">
<ele>20.982933</ele>
<time>2026-07-14T11:24:57.000Z</time>
</trkpt>
<trkpt lat="57.030615" lon="8.486511">
<ele>20.969107</ele>
<time>2026-07-14T11:24:58.000Z</time>
</trkpt>
<trkpt lat="57.030630" lon="8.486472">
<ele>20.951731</ele>
<time>2026-07-14T11:24:59.000Z</time>
</trkpt>
<trkpt lat="57.030640" lon="8.486421">
<ele>20.932008</ele>
<time>2026-07-14T11:25:00.000Z</time>
</trkpt>
<trkpt lat="57.030652" lon="8.486362">
<ele>20.909091</ele>
<time>2026-07-14T11:25:01.000Z</time>
</trkpt>
<trkpt lat="57.030672" lon="8.486283">
<ele>20.877389</ele>
<time>2026-07-14T11:25:02.000Z</time>
</trkpt>
<trkpt lat="57.030693" lon="8.486214">
<ele>20.848625</ele>
<time>2026-07-14T11:25:03.000Z</time>
</trkpt>
<trkpt lat="57.030716" lon="8.486140">
<ele>20.817619</ele>
<time>2026-07-14T11:25:04.000Z</time>
</trkpt>
<trkpt lat="57.030741" lon="8.486064">
<ele>20.785308</ele>
<time>2026-07-14T11:25:05.000Z</time>
</trkpt>
<trkpt lat="57.030768" lon="8.485987">
<ele>20.751980</ele>
<time>2026-07-14T11:25:06.000Z</time>
</trkpt>
<trkpt lat="57.030792" lon="8.485907">
<ele>20.718743</ele>
<time>2026-07-14T11:25:07.000Z</time>
</trkpt>
<trkpt lat="57.030817" lon="8.485826">
<ele>20.684863</ele>
<time>2026-07-14T11:25:08.000Z</time>
</trkpt>
<trkpt lat="57.030842" lon="8.485744">
<ele>20.650665</ele>
<time>2026-07-14T11:25:09.000Z</time>
</trkpt>
<trkpt lat="57.030867" lon="8.485663">
<ele>20.616784</ele>
<time>2026-07-14T11:25:10.000Z</time>
</trkpt>
<trkpt lat="57.030893" lon="8.485579">
<ele>20.581624</ele>
<time>2026-07-14T11:25:11.000Z</time>
</trkpt>
<trkpt lat="57.030922" lon="8.485495">
<ele>20.545430</ele>
<time>2026-07-14T11:25:12.000Z</time>
</trkpt>
<trkpt lat="57.030951" lon="8.485411">
<ele>20.509237</ele>
<time>2026-07-14T11:25:13.000Z</time>
</trkpt>
<trkpt lat="57.030978" lon="8.485326">
<ele>20.473428</ele>
<time>2026-07-14T11:25:14.000Z</time>
</trkpt>
<trkpt lat="57.031004" lon="8.485240">
<ele>20.437633</ele>
<time>2026-07-14T11:25:15.000Z</time>
</trkpt>
<trkpt lat="57.031033" lon="8.485153">
<ele>20.400513</ele>
<time>2026-07-14T11:25:16.000Z</time>
</trkpt>
<trkpt lat="57.031062" lon="8.485067">
<ele>20.363703</ele>
<time>2026-07-14T11:25:17.000Z</time>
</trkpt>
<trkpt lat="57.031088" lon="8.484981">
<ele>20.333826</ele>
<time>2026-07-14T11:25:18.000Z</time>
</trkpt>
<trkpt lat="57.031116" lon="8.484893">
<ele>20.307140</ele>
<time>2026-07-14T11:25:19.000Z</time>
</trkpt>
<trkpt lat="57.031145" lon="8.484802">
<ele>20.279534</ele>
<time>2026-07-14T11:25:20.000Z</time>
</trkpt>
<trkpt lat="57.031172" lon="8.484712">
<ele>20.252631</ele>
<time>2026-07-14T11:25:21.000Z</time>
</trkpt>
<trkpt lat="57.031199" lon="8.484624">
<ele>20.226185</ele>
<time>2026-07-14T11:25:22.000Z</time>
</trkpt>
<trkpt lat="57.031228" lon="8.484535">
<ele>20.199029</ele>
<time>2026-07-14T11:25:23.000Z</time>
</trkpt>
<trkpt lat="57.031256" lon="8.484445">
<ele>20.171890</ele>
<time>2026-07-14T11:25:24.000Z</time>
</trkpt>
<trkpt lat="57.031285" lon="8.484356">
<ele>20.144734</ele>
<time>2026-07-14T11:25:25.000Z</time>
</trkpt>
<trkpt lat="57.031315" lon="8.484267">
<ele>20.117328</ele>
<time>2026-07-14T11:25:26.000Z</time>
</trkpt>
<trkpt lat="57.031344" lon="8.484178">
<ele>20.090172</ele>
<time>2026-07-14T11:25:27.000Z</time>
</trkpt>
<trkpt lat="57.031373" lon="8.484088">
<ele>20.062791</ele>
<time>2026-07-14T11:25:28.000Z</time>
</trkpt>
<trkpt lat="57.031401" lon="8.484000">
<ele>20.036106</ele>
<time>2026-07-14T11:25:29.000Z</time>
</trkpt>
<trkpt lat="57.031428" lon="8.483910">
<ele>20.009203</ele>
<time>2026-07-14T11:25:30.000Z</time>
</trkpt>
<trkpt lat="57.031455" lon="8.483819">
<ele>19.982070</ele>
<time>2026-07-14T11:25:31.000Z</time>
</trkpt>
<trkpt lat="57.031481" lon="8.483730">
<ele>19.955626</ele>
<time>2026-07-14T11:25:32.000Z</time>
</trkpt>
<trkpt lat="57.031508" lon="8.483642">
<ele>19.929181</ele>
<time>2026-07-14T11:25:33.000Z</time>
</trkpt>
<trkpt lat="57.031535" lon="8.483556">
<ele>19.903189</ele>
<time>2026-07-14T11:25:34.000Z</time>
</trkpt>
<trkpt lat="57.031561" lon="8.483470">
<ele>19.877435</ele>
<time>2026-07-14T11:25:35.000Z</time>
</trkpt>
<trkpt lat="57.031588" lon="8.483383">
<ele>19.851217</ele>
<time>2026-07-14T11:25:36.000Z</time>
</trkpt>
<trkpt lat="57.031617" lon="8.483296">
<ele>19.824509</ele>
<time>2026-07-14T11:25:37.000Z</time>
</trkpt>
<trkpt lat="57.031645" lon="8.483208">
<ele>19.797824</ele>
<time>2026-07-14T11:25:38.000Z</time>
</trkpt>
<trkpt lat="57.031672" lon="8.483120">
<ele>19.771378</ele>
<time>2026-07-14T11:25:39.000Z</time>
</trkpt>
<trkpt lat="57.031700" lon="8.483033">
<ele>19.744919</ele>
<time>2026-07-14T11:25:40.000Z</time>
</trkpt>
<trkpt lat="57.031729" lon="8.482947">
<ele>19.718434</ele>
<time>2026-07-14T11:25:41.000Z</time>
</trkpt>
<trkpt lat="57.031756" lon="8.482860">
<ele>19.692216</ele>
<time>2026-07-14T11:25:42.000Z</time>
</trkpt>
<trkpt lat="57.031783" lon="8.482773">
<ele>19.665998</ele>
<time>2026-07-14T11:25:43.000Z</time>
</trkpt>
<trkpt lat="57.031811" lon="8.482685">
<ele>19.639312</ele>
<time>2026-07-14T11:25:44.000Z</time>
</trkpt>
<trkpt lat="57.031840" lon="8.482598">
<ele>19.612605</ele>
<time>2026-07-14T11:25:45.000Z</time>
</trkpt>
<trkpt lat="57.031865" lon="8.482514">
<ele>19.587541</ele>
<time>2026-07-14T11:25:46.000Z</time>
</trkpt>
<trkpt lat="57.031889" lon="8.482433">
<ele>19.563398</ele>
<time>2026-07-14T11:25:47.000Z</time>
</trkpt>
<trkpt lat="57.031917" lon="8.482354">
<ele>19.538718</ele>
<time>2026-07-14T11:25:48.000Z</time>
</trkpt>
<trkpt lat="57.031945" lon="8.482273">
<ele>19.513598</ele>
<time>2026-07-14T11:25:49.000Z</time>
</trkpt>
<trkpt lat="57.031973" lon="8.482187">
<ele>19.487363</ele>
<time>2026-07-14T11:25:50.000Z</time>
</trkpt>
<trkpt lat="57.032000" lon="8.482099">
<ele>19.472533</ele>
<time>2026-07-14T11:25:51.000Z</time>
</trkpt>
<trkpt lat="57.032027" lon="8.482011">
<ele>19.459536</ele>
<time>2026-07-14T11:25:52.000Z</time>
</trkpt>
<trkpt lat="57.032053" lon="8.481926">
<ele>19.446992</ele>
<time>2026-07-14T11:25:53.000Z</time>
</trkpt>
<trkpt lat="57.032080" lon="8.481841">
<ele>19.434330</ele>
<time>2026-07-14T11:25:54.000Z</time>
</trkpt>
<trkpt lat="57.032107" lon="8.481754">
<ele>19.421445</ele>
<time>2026-07-14T11:25:55.000Z</time>
</trkpt>
<trkpt lat="57.032133" lon="8.481666">
<ele>19.408563</ele>
<time>2026-07-14T11:25:56.000Z</time>
</trkpt>
<trkpt lat="57.032158" lon="8.481578">
<ele>19.395792</ele>
<time>2026-07-14T11:25:57.000Z</time>
</trkpt>
<trkpt lat="57.032185" lon="8.481491">
<ele>19.382908</ele>
<time>2026-07-14T11:25:58.000Z</time>
</trkpt>
<trkpt lat="57.032213" lon="8.481406">
<ele>19.370125</ele>
<time>2026-07-14T11:25:59.000Z</time>
</trkpt>
<trkpt lat="57.032240" lon="8.481319">
<ele>19.357240</ele>
<time>2026-07-14T11:26:00.000Z</time>
</trkpt>
<trkpt lat="57.032267" lon="8.481232">
<ele>19.344356</ele>
<time>2026-07-14T11:26:01.000Z</time>
</trkpt>
<trkpt lat="57.032294" lon="8.481146">
<ele>19.331583</ele>
<time>2026-07-14T11:26:02.000Z</time>
</trkpt>
<trkpt lat="57.032320" lon="8.481062">
<ele>19.319150</ele>
<time>2026-07-14T11:26:03.000Z</time>
</trkpt>
<trkpt lat="57.032349" lon="8.480978">
<ele>19.306353</ele>
<time>2026-07-14T11:26:04.000Z</time>
</trkpt>
<trkpt lat="57.032379" lon="8.480889">
<ele>19.292884</ele>
<time>2026-07-14T11:26:05.000Z</time>
</trkpt>
<trkpt lat="57.032406" lon="8.480796">
<ele>19.279324</ele>
<time>2026-07-14T11:26:06.000Z</time>
</trkpt>
<trkpt lat="57.032433" lon="8.480705">
<ele>19.265990</ele>
<time>2026-07-14T11:26:07.000Z</time>
</trkpt>
<trkpt lat="57.032461" lon="8.480619">
<ele>19.253097</ele>
<time>2026-07-14T11:26:08.000Z</time>
</trkpt>
<trkpt lat="57.032487" lon="8.480531">
<ele>19.240215</ele>
<time>2026-07-14T11:26:09.000Z</time>
</trkpt>
<trkpt lat="57.032515" lon="8.480442">
<ele>19.226989</ele>
<time>2026-07-14T11:26:10.000Z</time>
</trkpt>
<trkpt lat="57.032542" lon="8.480356">
<ele>19.214216</ele>
<time>2026-07-14T11:26:11.000Z</time>
</trkpt>
<trkpt lat="57.032568" lon="8.480274">
<ele>19.202007</ele>
<time>2026-07-14T11:26:12.000Z</time>
</trkpt>
<trkpt lat="57.032594" lon="8.480194">
<ele>19.190019</ele>
<time>2026-07-14T11:26:13.000Z</time>
</trkpt>
<trkpt lat="57.032621" lon="8.480114">
<ele>19.177909</ele>
<time>2026-07-14T11:26:14.000Z</time>
</trkpt>
<trkpt lat="57.032646" lon="8.480032">
<ele>19.165817</ele>
<time>2026-07-14T11:26:15.000Z</time>
</trkpt>
<trkpt lat="57.032672" lon="8.479952">
<ele>19.153829</ele>
<time>2026-07-14T11:26:16.000Z</time>
</trkpt>
<trkpt lat="57.032696" lon="8.479875">
<ele>19.142414</ele>
<time>2026-07-14T11:26:17.000Z</time>
</trkpt>
<trkpt lat="57.032719" lon="8.479800">
<ele>19.131339</ele>
<time>2026-07-14T11:26:18.000Z</time>
</trkpt>
<trkpt lat="57.032743" lon="8.479726">
<ele>19.120256</ele>
<time>2026-07-14T11:26:19.000Z</time>
</trkpt>
<trkpt lat="57.032766" lon="8.479651">
<ele>19.109181</ele>
<time>2026-07-14T11:26:20.000Z</time>
</trkpt>
<trkpt lat="57.032786" lon="8.479582">
<ele>19.099123</ele>
<time>2026-07-14T11:26:21.000Z</time>
</trkpt>
<trkpt lat="57.032805" lon="8.479519">
<ele>19.089857</ele>
<time>2026-07-14T11:26:22.000Z</time>
</trkpt>
<trkpt lat="57.032822" lon="8.479461">
<ele>19.081382</ele>
<time>2026-07-14T11:26:23.000Z</time>
</trkpt>
<trkpt lat="57.032837" lon="8.479409">
<ele>19.073811</ele>
<time>2026-07-14T11:26:24.000Z</time>
</trkpt>
<trkpt lat="57.032851" lon="8.479363">
<ele>19.067030</ele>
<time>2026-07-14T11:26:25.000Z</time>
</trkpt>
<trkpt lat="57.032864" lon="8.479330">
<ele>19.061789</ele>
<time>2026-07-14T11:26:26.000Z</time>
</trkpt>
<trkpt lat="57.032879" lon="8.479310">
<ele>19.057853</ele>
<time>2026-07-14T11:26:27.000Z</time>
</trkpt>
<trkpt lat="57.032894" lon="8.479305">
<ele>19.055674</ele>
<time>2026-07-14T11:26:28.000Z</time>
</trkpt>
<trkpt lat="57.032912" lon="8.479313">
<ele>19.053026</ele>
<time>2026-07-14T11:26:29.000Z</time>
</trkpt>
<trkpt lat="57.032931" lon="8.479327">
<ele>19.050099</ele>
<time>2026-07-14T11:26:30.000Z</time>
</trkpt>
<trkpt lat="57.032948" lon="8.479344">
<ele>19.047331</ele>
<time>2026-07-14T11:26:31.000Z</time>
</trkpt>
<trkpt lat="57.032959" lon="8.479356">
<ele>19.045502</ele>
<time>2026-07-14T11:26:32.000Z</time>
</trkpt>
<trkpt lat="57.032970" lon="8.479301">
<ele>19.040943</ele>
<time>2026-07-14T11:26:40.000Z</time>
</trkpt>
<trkpt lat="57.032978" lon="8.479292">
<ele>19.039602</ele>
<time>2026-07-14T11:26:41.000Z</time>
</trkpt>
<trkpt lat="57.032984" lon="8.479283">
<ele>19.038494</ele>
<time>2026-07-14T11:26:42.000Z</time>
</trkpt>
<trkpt lat="57.032990" lon="8.479273">
<ele>19.037336</ele>
<time>2026-07-14T11:26:43.000Z</time>
</trkpt>
<trkpt lat="57.032995" lon="8.479266">
<ele>19.036437</ele>
<time>2026-07-14T11:26:44.000Z</time>
</trkpt>
<trkpt lat="57.033001" lon="8.479265">
<ele>19.035576</ele>
<time>2026-07-14T11:26:45.000Z</time>
</trkpt>
<trkpt lat="57.033005" lon="8.479270">
<ele>19.034884</ele>
<time>2026-07-14T11:26:46.000Z</time>
</trkpt>
<trkpt lat="57.033008" lon="8.479280">
<ele>19.033995</ele>
<time>2026-07-14T11:26:47.000Z</time>
</trkpt>
<trkpt lat="57.033016" lon="8.479293">
<ele>19.032469</ele>
<time>2026-07-14T11:26:48.000Z</time>
</trkpt>
<trkpt lat="57.033026" lon="8.479306">
<ele>19.030717</ele>
<time>2026-07-14T11:26:49.000Z</time>
</trkpt>
<trkpt lat="57.033035" lon="8.479317">
<ele>19.029172</ele>
<time>2026-07-14T11:26:50.000Z</time>
</trkpt>
<trkpt lat="57.033045" lon="8.479327">
<ele>19.027544</ele>
<time>2026-07-14T11:26:51.000Z</time>
</trkpt>
<trkpt lat="57.033054" lon="8.479335">
<ele>19.026114</ele>
<time>2026-07-14T11:26:52.000Z</time>
</trkpt>
<trkpt lat="57.033058" lon="8.479341">
<ele>19.025376</ele>
<time>2026-07-14T11:26:53.000Z</time>
</trkpt>
<trkpt lat="57.033062" lon="8.479348">
<ele>19.024586</ele>
<time>2026-07-14T11:26:54.000Z</time>
</trkpt>
<trkpt lat="57.033070" lon="8.479358">
<ele>19.023203</ele>
<time>2026-07-14T11:26:55.000Z</time>
</trkpt>
<trkpt lat="57.033081" lon="8.479369">
<ele>19.021412</ele>
<time>2026-07-14T11:26:56.000Z</time>
</trkpt>
<trkpt lat="57.033091" lon="8.479375">
<ele>19.019908</ele>
<time>2026-07-14T11:26:57.000Z</time>
</trkpt>
<trkpt lat="57.033098" lon="8.479378">
<ele>19.018880</ele>
<time>2026-07-14T11:26:58.000Z</time>
</trkpt>
<trkpt lat="57.033104" lon="8.479381">
<ele>19.017991</ele>
<time>2026-07-14T11:26:59.000Z</time>
</trkpt>
<trkpt lat="57.033110" lon="8.479383">
<ele>19.017119</ele>
<time>2026-07-14T11:27:00.000Z</time>
</trkpt>
<trkpt lat="57.033117" lon="8.479387">
<ele>19.016071</ele>
<time>2026-07-14T11:27:01.000Z</time>
</trkpt>
<trkpt lat="57.033127" lon="8.479390">
<ele>19.014622</ele>
<time>2026-07-14T11:27:02.000Z</time>
</trkpt>
<trkpt lat="57.033136" lon="8.479391">
<ele>19.013333</ele>
<time>2026-07-14T11:27:03.000Z</time>
</trkpt>
<trkpt lat="57.033148" lon="8.479387">
<ele>19.011589</ele>
<time>2026-07-14T11:27:04.000Z</time>
</trkpt>
<trkpt lat="57.033157" lon="8.479377">
<ele>19.010085</ele>
<time>2026-07-14T11:27:05.000Z</time>
</trkpt>
<trkpt lat="57.033165" lon="8.479363">
<ele>19.008506</ele>
<time>2026-07-14T11:27:06.000Z</time>
</trkpt>
<trkpt lat="57.033172" lon="8.479348">
<ele>19.006968</ele>
<time>2026-07-14T11:27:07.000Z</time>
</trkpt>
<trkpt lat="57.033175" lon="8.479332">
<ele>19.005651</ele>
<time>2026-07-14T11:27:08.000Z</time>
</trkpt>
<trkpt lat="57.033169" lon="8.479318">
<ele>19.004265</ele>
<time>2026-07-14T11:27:09.000Z</time>
</trkpt>
<trkpt lat="57.033165" lon="8.479314">
<ele>19.003614</ele>
<time>2026-07-14T11:27:10.000Z</time>
</trkpt>
<trkpt lat="57.033163" lon="8.479317">
<ele>19.003244</ele>
<time>2026-07-14T11:27:11.000Z</time>
</trkpt>
<trkpt lat="57.033159" lon="8.479316">
<ele>19.002667</ele>
<time>2026-07-14T11:27:12.000Z</time>
</trkpt>
<trkpt lat="57.033157" lon="8.479314">
<ele>19.002342</ele>
<time>2026-07-14T11:27:13.000Z</time>
</trkpt>
<trkpt lat="57.033157" lon="8.479313">
<ele>19.002264</ele>
<time>2026-07-14T11:27:14.000Z</time>
</trkpt>
<trkpt lat="57.033104" lon="8.479439">
<ele>18.989873</ele>
<time>2026-07-14T11:28:02.000Z</time>
</trkpt>
<trkpt lat="57.033110" lon="8.479448">
<ele>18.988765</ele>
<time>2026-07-14T11:28:03.000Z</time>
</trkpt>
<trkpt lat="57.033112" lon="8.479454">
<ele>18.988218</ele>
<time>2026-07-14T11:28:04.000Z</time>
</trkpt>
<trkpt lat="57.033114" lon="8.479454">
<ele>18.987932</ele>
<time>2026-07-14T11:28:05.000Z</time>
</trkpt>
<trkpt lat="57.033113" lon="8.479454">
<ele>18.987789</ele>
<time>2026-07-14T11:28:06.000Z</time>
</trkpt>
<trkpt lat="57.033116" lon="8.479449">
<ele>18.987210</ele>
<time>2026-07-14T11:28:07.000Z</time>
</trkpt>
<trkpt lat="57.033125" lon="8.479425">
<ele>18.984942</ele>
<time>2026-07-14T11:28:08.000Z</time>
</trkpt>
<trkpt lat="57.033169" lon="8.479342">
<ele>18.975926</ele>
<time>2026-07-14T11:29:33.000Z</time>
</trkpt>
<trkpt lat="57.033163" lon="8.479345">
<ele>18.975037</ele>
<time>2026-07-14T11:29:34.000Z</time>
</trkpt>
<trkpt lat="57.033159" lon="8.479344">
<ele>18.974459</ele>
<time>2026-07-14T11:29:35.000Z</time>
</trkpt>
<trkpt lat="57.033155" lon="8.479344">
<ele>18.973887</ele>
<time>2026-07-14T11:29:36.000Z</time>
</trkpt>
<trkpt lat="57.033152" lon="8.479343">
<ele>18.973451</ele>
<time>2026-07-14T11:29:37.000Z</time>
</trkpt>
<trkpt lat="57.033146" lon="8.479340">
<ele>18.972562</ele>
<time>2026-07-14T11:29:38.000Z</time>
</trkpt>
<trkpt lat="57.033140" lon="8.479338">
<ele>18.971690</ele>
<time>2026-07-14T11:29:39.000Z</time>
</trkpt>
<trkpt lat="57.033144" lon="8.479398">
<ele>18.966987</ele>
<time>2026-07-14T11:36:30.000Z</time>
</trkpt>
<trkpt lat="57.033150" lon="8.479412">
<ele>18.965601</ele>
<time>2026-07-14T11:36:31.000Z</time>
</trkpt>
<trkpt lat="57.033156" lon="8.479426">
<ele>18.964214</ele>
<time>2026-07-14T11:36:32.000Z</time>
</trkpt>
<trkpt lat="57.033159" lon="8.479442">
<ele>18.962897</ele>
<time>2026-07-14T11:36:33.000Z</time>
</trkpt>
<trkpt lat="57.033165" lon="8.479456">
<ele>18.961511</ele>
<time>2026-07-14T11:36:34.000Z</time>
</trkpt>
<trkpt lat="57.033175" lon="8.479470">
<ele>18.959713</ele>
<time>2026-07-14T11:36:35.000Z</time>
</trkpt>
<trkpt lat="57.033184" lon="8.479486">
<ele>18.957923</ele>
<time>2026-07-14T11:36:36.000Z</time>
</trkpt>
<trkpt lat="57.033194" lon="8.479503">
<ele>18.955975</ele>
<time>2026-07-14T11:36:37.000Z</time>
</trkpt>
<trkpt lat="57.033205" lon="8.479520">
<ele>18.953920</ele>
<time>2026-07-14T11:36:38.000Z</time>
</trkpt>
<trkpt lat="57.033215" lon="8.479540">
<ele>18.951806</ele>
<time>2026-07-14T11:36:39.000Z</time>
</trkpt>
<trkpt lat="57.033224" lon="8.479557">
<ele>18.949961</ele>
<time>2026-07-14T11:36:40.000Z</time>
</trkpt>
<trkpt lat="57.033235" lon="8.479573">
<ele>18.947955</ele>
<time>2026-07-14T11:36:41.000Z</time>
</trkpt>
<trkpt lat="57.033245" lon="8.479590">
<ele>18.946007</ele>
<time>2026-07-14T11:36:42.000Z</time>
</trkpt>
<trkpt lat="57.033255" lon="8.479607">
<ele>18.944059</ele>
<time>2026-07-14T11:36:43.000Z</time>
</trkpt>
<trkpt lat="57.033266" lon="8.479624">
<ele>18.942004</ele>
<time>2026-07-14T11:36:44.000Z</time>
</trkpt>
<trkpt lat="57.033277" lon="8.479639">
<ele>18.940046</ele>
<time>2026-07-14T11:36:45.000Z</time>
</trkpt>
<trkpt lat="57.033291" lon="8.479653">
<ele>18.937767</ele>
<time>2026-07-14T11:36:46.000Z</time>
</trkpt>
<trkpt lat="57.033304" lon="8.479666">
<ele>18.935650</ele>
<time>2026-07-14T11:36:47.000Z</time>
</trkpt>
<trkpt lat="57.033318" lon="8.479677">
<ele>18.933473</ele>
<time>2026-07-14T11:36:48.000Z</time>
</trkpt>
<trkpt lat="57.033330" lon="8.479690">
<ele>18.931481</ele>
<time>2026-07-14T11:36:49.000Z</time>
</trkpt>
<trkpt lat="57.033342" lon="8.479705">
<ele>18.929406</ele>
<time>2026-07-14T11:36:50.000Z</time>
</trkpt>
<trkpt lat="57.033352" lon="8.479723">
<ele>18.927405</ele>
<time>2026-07-14T11:36:51.000Z</time>
</trkpt>
<trkpt lat="57.033360" lon="8.479743">
<ele>18.925473</ele>
<time>2026-07-14T11:36:52.000Z</time>
</trkpt>
<trkpt lat="57.033367" lon="8.479765">
<ele>18.923491</ele>
<time>2026-07-14T11:36:53.000Z</time>
</trkpt>
<trkpt lat="57.033371" lon="8.479785">
<ele>18.921833</ele>
<time>2026-07-14T11:36:54.000Z</time>
</trkpt>
<trkpt lat="57.033373" lon="8.479806">
<ele>18.920174</ele>
<time>2026-07-14T11:36:55.000Z</time>
</trkpt>
<trkpt lat="57.033375" lon="8.479830">
<ele>18.918285</ele>
<time>2026-07-14T11:36:56.000Z</time>
</trkpt>
<trkpt lat="57.033375" lon="8.479850">
<ele>18.916729</ele>
<time>2026-07-14T11:36:57.000Z</time>
</trkpt>
<trkpt lat="57.033375" lon="8.479865">
<ele>18.915562</ele>
<time>2026-07-14T11:36:58.000Z</time>
</trkpt>
<trkpt lat="57.033377" lon="8.479872">
<ele>18.914946</ele>
<time>2026-07-14T11:36:59.000Z</time>
</trkpt>
<trkpt lat="57.033377" lon="8.479873">
<ele>18.914869</ele>
<time>2026-07-14T11:37:00.000Z</time>
</trkpt>
<trkpt lat="57.033375" lon="8.479875">
<ele>18.914543</ele>
<time>2026-07-14T11:37:01.000Z</time>
</trkpt>
<trkpt lat="57.033375" lon="8.479877">
<ele>18.914387</ele>
<time>2026-07-14T11:37:02.000Z</time>
</trkpt>
<trkpt lat="57.033367" lon="8.479953">
<ele>18.908364</ele>
<time>2026-07-14T11:37:09.000Z</time>
</trkpt>
<trkpt lat="57.033367" lon="8.479980">
<ele>18.906264</ele>
<time>2026-07-14T11:37:10.000Z</time>
</trkpt>
<trkpt lat="57.033365" lon="8.480014">
<ele>18.903603</ele>
<time>2026-07-14T11:37:11.000Z</time>
</trkpt>
<trkpt lat="57.033361" lon="8.480051">
<ele>18.900668</ele>
<time>2026-07-14T11:37:12.000Z</time>
</trkpt>
<trkpt lat="57.033356" lon="8.480095">
<ele>18.897170</ele>
<time>2026-07-14T11:37:13.000Z</time>
</trkpt>
<trkpt lat="57.033350" lon="8.480144">
<ele>18.893263</ele>
<time>2026-07-14T11:37:14.000Z</time>
</trkpt>
<trkpt lat="57.033344" lon="8.480192">
<ele>18.889431</ele>
<time>2026-07-14T11:37:15.000Z</time>
</trkpt>
<trkpt lat="57.033336" lon="8.480240">
<ele>18.885525</ele>
<time>2026-07-14T11:37:16.000Z</time>
</trkpt>
<trkpt lat="57.033329" lon="8.480285">
<ele>18.881883</ele>
<time>2026-07-14T11:37:17.000Z</time>
</trkpt>
<trkpt lat="57.033322" lon="8.480330">
<ele>18.878241</ele>
<time>2026-07-14T11:37:18.000Z</time>
</trkpt>
<trkpt lat="57.033312" lon="8.480375">
<ele>18.874459</ele>
<time>2026-07-14T11:37:19.000Z</time>
</trkpt>
<trkpt lat="57.033302" lon="8.480419">
<ele>18.870749</ele>
<time>2026-07-14T11:37:20.000Z</time>
</trkpt>
<trkpt lat="57.033295" lon="8.480463">
<ele>18.867182</ele>
<time>2026-07-14T11:37:21.000Z</time>
</trkpt>
<trkpt lat="57.033285" lon="8.480507">
<ele>18.863472</ele>
<time>2026-07-14T11:37:22.000Z</time>
</trkpt>
<trkpt lat="57.033273" lon="8.480550">
<ele>18.859712</ele>
<time>2026-07-14T11:37:23.000Z</time>
</trkpt>
<trkpt lat="57.033262" lon="8.480592">
<ele>18.856086</ele>
<time>2026-07-14T11:37:24.000Z</time>
</trkpt>
<trkpt lat="57.033251" lon="8.480634">
<ele>18.852459</ele>
<time>2026-07-14T11:37:25.000Z</time>
</trkpt>
<trkpt lat="57.033241" lon="8.480677">
<ele>18.848820</ele>
<time>2026-07-14T11:37:26.000Z</time>
</trkpt>
<trkpt lat="57.033232" lon="8.480718">
<ele>18.845381</ele>
<time>2026-07-14T11:37:27.000Z</time>
</trkpt>
<trkpt lat="57.033220" lon="8.480756">
<ele>18.841962</ele>
<time>2026-07-14T11:37:28.000Z</time>
</trkpt>
<trkpt lat="57.033209" lon="8.480792">
<ele>18.838750</ele>
<time>2026-07-14T11:37:29.000Z</time>
</trkpt>
<trkpt lat="57.033200" lon="8.480829">
<ele>18.835596</ele>
<time>2026-07-14T11:37:30.000Z</time>
</trkpt>
<trkpt lat="57.033193" lon="8.480875">
<ele>18.831880</ele>
<time>2026-07-14T11:37:31.000Z</time>
</trkpt>
<trkpt lat="57.033190" lon="8.480922">
<ele>18.828198</ele>
<time>2026-07-14T11:37:32.000Z</time>
</trkpt>
<trkpt lat="57.033188" lon="8.480970">
<ele>18.824452</ele>
<time>2026-07-14T11:37:33.000Z</time>
</trkpt>
<trkpt lat="57.033190" lon="8.481022">
<ele>18.820396</ele>
<time>2026-07-14T11:37:34.000Z</time>
</trkpt>
<trkpt lat="57.033196" lon="8.481077">
<ele>18.816032</ele>
<time>2026-07-14T11:37:35.000Z</time>
</trkpt>
<trkpt lat="57.033205" lon="8.481125">
<ele>18.812081</ele>
<time>2026-07-14T11:37:36.000Z</time>
</trkpt>
<trkpt lat="57.033219" lon="8.481172">
<ele>18.807912</ele>
<time>2026-07-14T11:37:37.000Z</time>
</trkpt>
<trkpt lat="57.033236" lon="8.481219">
<ele>18.803521</ele>
<time>2026-07-14T11:37:38.000Z</time>
</trkpt>
<trkpt lat="57.033255" lon="8.481261">
<ele>18.797794</ele>
<time>2026-07-14T11:37:39.000Z</time>
</trkpt>
<trkpt lat="57.033274" lon="8.481299">
<ele>18.790927</ele>
<time>2026-07-14T11:37:40.000Z</time>
</trkpt>
<trkpt lat="57.033295" lon="8.481338">
<ele>18.783626</ele>
<time>2026-07-14T11:37:41.000Z</time>
</trkpt>
<trkpt lat="57.033315" lon="8.481370">
<ele>18.777141</ele>
<time>2026-07-14T11:37:42.000Z</time>
</trkpt>
<trkpt lat="57.033336" lon="8.481399">
<ele>18.770717</ele>
<time>2026-07-14T11:37:43.000Z</time>
</trkpt>
<trkpt lat="57.033358" lon="8.481430">
<ele>18.763937</ele>
<time>2026-07-14T11:37:44.000Z</time>
</trkpt>
<trkpt lat="57.033379" lon="8.481455">
<ele>18.757818</ele>
<time>2026-07-14T11:37:45.000Z</time>
</trkpt>
<trkpt lat="57.033400" lon="8.481476">
<ele>18.751971</ele>
<time>2026-07-14T11:37:46.000Z</time>
</trkpt>
<trkpt lat="57.033419" lon="8.481500">
<ele>18.746333</ele>
<time>2026-07-14T11:37:47.000Z</time>
</trkpt>
<trkpt lat="57.033440" lon="8.481524">
<ele>18.740286</ele>
<time>2026-07-14T11:37:48.000Z</time>
</trkpt>
<trkpt lat="57.033463" lon="8.481545">
<ele>18.734005</ele>
<time>2026-07-14T11:37:49.000Z</time>
</trkpt>
<trkpt lat="57.033484" lon="8.481566">
<ele>18.728158</ele>
<time>2026-07-14T11:37:50.000Z</time>
</trkpt>
<trkpt lat="57.033501" lon="8.481591">
<ele>18.722834</ele>
<time>2026-07-14T11:37:51.000Z</time>
</trkpt>
<trkpt lat="57.033520" lon="8.481618">
<ele>18.716960</ele>
<time>2026-07-14T11:37:52.000Z</time>
</trkpt>
<trkpt lat="57.033541" lon="8.481646">
<ele>18.710615</ele>
<time>2026-07-14T11:37:53.000Z</time>
</trkpt>
<trkpt lat="57.033562" lon="8.481672">
<ele>18.704423</ele>
<time>2026-07-14T11:37:54.000Z</time>
</trkpt>
<trkpt lat="57.033587" lon="8.481698">
<ele>18.697398</ele>
<time>2026-07-14T11:37:55.000Z</time>
</trkpt>
<trkpt lat="57.033609" lon="8.481723">
<ele>18.691072</ele>
<time>2026-07-14T11:37:56.000Z</time>
</trkpt>
<trkpt lat="57.033630" lon="8.481748">
<ele>18.684954</ele>
<time>2026-07-14T11:37:57.000Z</time>
</trkpt>
<trkpt lat="57.033652" lon="8.481774">
<ele>18.678557</ele>
<time>2026-07-14T11:37:58.000Z</time>
</trkpt>
<trkpt lat="57.033673" lon="8.481798">
<ele>18.672509</ele>
<time>2026-07-14T11:37:59.000Z</time>
</trkpt>
<trkpt lat="57.033695" lon="8.481823">
<ele>18.666184</ele>
<time>2026-07-14T11:38:00.000Z</time>
</trkpt>
<trkpt lat="57.033722" lon="8.481846">
<ele>18.658906</ele>
<time>2026-07-14T11:38:01.000Z</time>
</trkpt>
<trkpt lat="57.033749" lon="8.481868">
<ele>18.651683</ele>
<time>2026-07-14T11:38:02.000Z</time>
</trkpt>
<trkpt lat="57.033774" lon="8.481888">
<ele>18.645015</ele>
<time>2026-07-14T11:38:03.000Z</time>
</trkpt>
<trkpt lat="57.033801" lon="8.481911">
<ele>18.637738</ele>
<time>2026-07-14T11:38:04.000Z</time>
</trkpt>
<trkpt lat="57.033825" lon="8.481940">
<ele>18.630713</ele>
<time>2026-07-14T11:38:05.000Z</time>
</trkpt>
<trkpt lat="57.033848" lon="8.481971">
<ele>18.623738</ele>
<time>2026-07-14T11:38:06.000Z</time>
</trkpt>
<trkpt lat="57.033871" lon="8.482002">
<ele>18.616763</ele>
<time>2026-07-14T11:38:07.000Z</time>
</trkpt>
<trkpt lat="57.033894" lon="8.482026">
<ele>18.610295</ele>
<time>2026-07-14T11:38:08.000Z</time>
</trkpt>
<trkpt lat="57.033919" lon="8.482047">
<ele>18.603573</ele>
<time>2026-07-14T11:38:09.000Z</time>
</trkpt>
<trkpt lat="57.033944" lon="8.482068">
<ele>18.596850</ele>
<time>2026-07-14T11:38:10.000Z</time>
</trkpt>
<trkpt lat="57.033966" lon="8.482091">
<ele>18.590661</ele>
<time>2026-07-14T11:38:11.000Z</time>
</trkpt>
<trkpt lat="57.033989" lon="8.482119">
<ele>18.583914</ele>
<time>2026-07-14T11:38:12.000Z</time>
</trkpt>
<trkpt lat="57.034012" lon="8.482150">
<ele>18.576939</ele>
<time>2026-07-14T11:38:13.000Z</time>
</trkpt>
<trkpt lat="57.034035" lon="8.482179">
<ele>18.570117</ele>
<time>2026-07-14T11:38:14.000Z</time>
</trkpt>
<trkpt lat="57.034058" lon="8.482204">
<ele>18.563582</ele>
<time>2026-07-14T11:38:15.000Z</time>
</trkpt>
<trkpt lat="57.034081" lon="8.482230">
<ele>18.556979</ele>
<time>2026-07-14T11:38:16.000Z</time>
</trkpt>
<trkpt lat="57.034106" lon="8.482258">
<ele>18.549819</ele>
<time>2026-07-14T11:38:17.000Z</time>
</trkpt>
<trkpt lat="57.034130" lon="8.482286">
<ele>18.542867</ele>
<time>2026-07-14T11:38:18.000Z</time>
</trkpt>
<trkpt lat="57.034151" lon="8.482313">
<ele>18.536600</ele>
<time>2026-07-14T11:38:19.000Z</time>
</trkpt>
<trkpt lat="57.034172" lon="8.482338">
<ele>18.530481</ele>
<time>2026-07-14T11:38:20.000Z</time>
</trkpt>
<trkpt lat="57.034198" lon="8.482364">
<ele>18.523242</ele>
<time>2026-07-14T11:38:21.000Z</time>
</trkpt>
<trkpt lat="57.034222" lon="8.482388">
<ele>18.516560</ele>
<time>2026-07-14T11:38:22.000Z</time>
</trkpt>
<trkpt lat="57.034245" lon="8.482407">
<ele>18.510393</ele>
<time>2026-07-14T11:38:23.000Z</time>
</trkpt>
<trkpt lat="57.034270" lon="8.482419">
<ele>18.504075</ele>
<time>2026-07-14T11:38:24.000Z</time>
</trkpt>
<trkpt lat="57.034295" lon="8.482420">
<ele>18.497959</ele>
<time>2026-07-14T11:38:25.000Z</time>
</trkpt>
<trkpt lat="57.034314" lon="8.482415">
<ele>18.493265</ele>
<time>2026-07-14T11:38:26.000Z</time>
</trkpt>
<trkpt lat="57.034333" lon="8.482399">
<ele>18.488154</ele>
<time>2026-07-14T11:38:27.000Z</time>
</trkpt>
<trkpt lat="57.034352" lon="8.482366">
<ele>18.481761</ele>
<time>2026-07-14T11:38:28.000Z</time>
</trkpt>
<trkpt lat="57.034367" lon="8.482328">
<ele>18.475514</ele>
<time>2026-07-14T11:38:29.000Z</time>
</trkpt>
<trkpt lat="57.034380" lon="8.482283">
<ele>18.468734</ele>
<time>2026-07-14T11:38:30.000Z</time>
</trkpt>
<trkpt lat="57.034394" lon="8.482236">
<ele>18.461604</ele>
<time>2026-07-14T11:38:31.000Z</time>
</trkpt>
<trkpt lat="57.034410" lon="8.482195">
<ele>18.454891</ele>
<time>2026-07-14T11:38:32.000Z</time>
</trkpt>
<trkpt lat="57.034427" lon="8.482158">
<ele>18.448447</ele>
<time>2026-07-14T11:38:33.000Z</time>
</trkpt>
<trkpt lat="57.034443" lon="8.482121">
<ele>18.442158</ele>
<time>2026-07-14T11:38:34.000Z</time>
</trkpt>
<trkpt lat="57.034458" lon="8.482087">
<ele>18.436333</ele>
<time>2026-07-14T11:38:35.000Z</time>
</trkpt>
<trkpt lat="57.034472" lon="8.482047">
<ele>18.430004</ele>
<time>2026-07-14T11:38:36.000Z</time>
</trkpt>
<trkpt lat="57.034485" lon="8.482002">
<ele>18.423225</ele>
<time>2026-07-14T11:38:37.000Z</time>
</trkpt>
<trkpt lat="57.034500" lon="8.481961">
<ele>18.416650</ele>
<time>2026-07-14T11:38:38.000Z</time>
</trkpt>
<trkpt lat="57.034514" lon="8.481918">
<ele>18.409982</ele>
<time>2026-07-14T11:38:39.000Z</time>
</trkpt>
<trkpt lat="57.034523" lon="8.481868">
<ele>18.402974</ele>
<time>2026-07-14T11:38:40.000Z</time>
</trkpt>
<trkpt lat="57.034531" lon="8.481816">
<ele>18.395783</ele>
<time>2026-07-14T11:38:41.000Z</time>
</trkpt>
<trkpt lat="57.034534" lon="8.481760">
<ele>18.388296</ele>
<time>2026-07-14T11:38:42.000Z</time>
</trkpt>
<trkpt lat="57.034533" lon="8.481699">
<ele>18.380175</ele>
<time>2026-07-14T11:38:43.000Z</time>
</trkpt>
<trkpt lat="57.034525" lon="8.481646">
<ele>18.372856</ele>
<time>2026-07-14T11:38:44.000Z</time>
</trkpt>
<trkpt lat="57.034511" lon="8.481606">
<ele>18.366527</ele>
<time>2026-07-14T11:38:45.000Z</time>
</trkpt>
<trkpt lat="57.034496" lon="8.481571">
<ele>18.361492</ele>
<time>2026-07-14T11:38:46.000Z</time>
</trkpt>
<trkpt lat="57.034483" lon="8.481540">
<ele>18.361492</ele>
<time>2026-07-14T11:38:47.000Z</time>
</trkpt>
<trkpt lat="57.034469" lon="8.481512">
<ele>18.361492</ele>
<time>2026-07-14T11:38:48.000Z</time>
</trkpt>
<trkpt lat="57.034454" lon="8.481485">
<ele>18.361492</ele>
<time>2026-07-14T11:38:49.000Z</time>
</trkpt>
<trkpt lat="57.034439" lon="8.481457">
<ele>18.361492</ele>
<time>2026-07-14T11:38:50.000Z</time>
</trkpt>
<trkpt lat="57.034424" lon="8.481428">
<ele>18.361492</ele>
<time>2026-07-14T11:38:51.000Z</time>
</trkpt>
<trkpt lat="57.034409" lon="8.481402">
<ele>18.361492</ele>
<time>2026-07-14T11:38:52.000Z</time>
</trkpt>
<trkpt lat="57.034396" lon="8.481377">
<ele>18.361492</ele>
<time>2026-07-14T11:38:53.000Z</time>
</trkpt>
<trkpt lat="57.034382" lon="8.481347">
<ele>18.361492</ele>
<time>2026-07-14T11:38:54.000Z</time>
</trkpt>
<trkpt lat="57.034367" lon="8.481318">
<ele>18.361492</ele>
<time>2026-07-14T11:38:55.000Z</time>
</trkpt>
<trkpt lat="57.034354" lon="8.481290">
<ele>18.361492</ele>
<time>2026-07-14T11:38:56.000Z</time>
</trkpt>
<trkpt lat="57.034343" lon="8.481259">
<ele>18.361492</ele>
<time>2026-07-14T11:38:57.000Z</time>
</trkpt>
<trkpt lat="57.034332" lon="8.481226">
<ele>18.361492</ele>
<time>2026-07-14T11:38:58.000Z</time>
</trkpt>
<trkpt lat="57.034321" lon="8.481198">
<ele>18.361492</ele>
<time>2026-07-14T11:38:59.000Z</time>
</trkpt>
<trkpt lat="57.034307" lon="8.481171">
<ele>18.361492</ele>
<time>2026-07-14T11:39:00.000Z</time>
</trkpt>
<trkpt lat="57.034298" lon="8.481151">
<ele>18.361492</ele>
<time>2026-07-14T11:39:01.000Z</time>
</trkpt>
<trkpt lat="57.034292" lon="8.481143">
<ele>18.361492</ele>
<time>2026-07-14T11:39:02.000Z</time>
</trkpt>
<trkpt lat="57.034290" lon="8.481170">
<ele>18.361492</ele>
<time>2026-07-14T11:39:04.000Z</time>
</trkpt>
<trkpt lat="57.034300" lon="8.481191">
<ele>18.361492</ele>
<time>2026-07-14T11:39:05.000Z</time>
</trkpt>
<trkpt lat="57.034311" lon="8.481211">
<ele>18.361492</ele>
<time>2026-07-14T11:39:06.000Z</time>
</trkpt>
<trkpt lat="57.034325" lon="8.481235">
<ele>18.361492</ele>
<time>2026-07-14T11:39:07.000Z</time>
</trkpt>
<trkpt lat="57.034342" lon="8.481267">
<ele>18.361492</ele>
<time>2026-07-14T11:39:08.000Z</time>
</trkpt>
<trkpt lat="57.034359" lon="8.481303">
<ele>18.361492</ele>
<time>2026-07-14T11:39:09.000Z</time>
</trkpt>
<trkpt lat="57.034377" lon="8.481339">
<ele>18.361492</ele>
<time>2026-07-14T11:39:10.000Z</time>
</trkpt>
<trkpt lat="57.034398" lon="8.481373">
<ele>18.361492</ele>
<time>2026-07-14T11:39:11.000Z</time>
</trkpt>
<trkpt lat="57.034418" lon="8.481403">
<ele>18.361492</ele>
<time>2026-07-14T11:39:12.000Z</time>
</trkpt>
<trkpt lat="57.034440" lon="8.481435">
<ele>18.361492</ele>
<time>2026-07-14T11:39:13.000Z</time>
</trkpt>
<trkpt lat="57.034464" lon="8.481473">
<ele>18.361492</ele>
<time>2026-07-14T11:39:14.000Z</time>
</trkpt>
<trkpt lat="57.034485" lon="8.481507">
<ele>18.361492</ele>
<time>2026-07-14T11:39:15.000Z</time>
</trkpt>
<trkpt lat="57.034504" lon="8.481541">
<ele>18.361492</ele>
<time>2026-07-14T11:39:16.000Z</time>
</trkpt>
<trkpt lat="57.034519" lon="8.481574">
<ele>18.361492</ele>
<time>2026-07-14T11:39:17.000Z</time>
</trkpt>
<trkpt lat="57.034532" lon="8.481607">
<ele>18.361492</ele>
<time>2026-07-14T11:39:18.000Z</time>
</trkpt>
<trkpt lat="57.034542" lon="8.481643">
<ele>18.361492</ele>
<time>2026-07-14T11:39:19.000Z</time>
</trkpt>
<trkpt lat="57.034546" lon="8.481686">
<ele>18.361492</ele>
<time>2026-07-14T11:39:20.000Z</time>
</trkpt>
<trkpt lat="57.034542" lon="8.481733">
<ele>18.361492</ele>
<time>2026-07-14T11:39:21.000Z</time>
</trkpt>
<trkpt lat="57.034533" lon="8.481777">
<ele>18.361492</ele>
<time>2026-07-14T11:39:22.000Z</time>
</trkpt>
<trkpt lat="57.034521" lon="8.481821">
<ele>18.361492</ele>
<time>2026-07-14T11:39:23.000Z</time>
</trkpt>
<trkpt lat="57.034509" lon="8.481867">
<ele>18.361492</ele>
<time>2026-07-14T11:39:24.000Z</time>
</trkpt>
<trkpt lat="57.034496" lon="8.481912">
<ele>18.361492</ele>
<time>2026-07-14T11:39:25.000Z</time>
</trkpt>
<trkpt lat="57.034481" lon="8.481954">
<ele>18.361492</ele>
<time>2026-07-14T11:39:26.000Z</time>
</trkpt>
<trkpt lat="57.034465" lon="8.481995">
<ele>18.361492</ele>
<time>2026-07-14T11:39:27.000Z</time>
</trkpt>
<trkpt lat="57.034452" lon="8.482037">
<ele>18.361492</ele>
<time>2026-07-14T11:39:28.000Z</time>
</trkpt>
<trkpt lat="57.034439" lon="8.482076">
<ele>18.361492</ele>
<time>2026-07-14T11:39:29.000Z</time>
</trkpt>
<trkpt lat="57.034420" lon="8.482113">
<ele>18.361492</ele>
<time>2026-07-14T11:39:30.000Z</time>
</trkpt>
<trkpt lat="57.034401" lon="8.482149">
<ele>18.361492</ele>
<time>2026-07-14T11:39:31.000Z</time>
</trkpt>
<trkpt lat="57.034384" lon="8.482181">
<ele>18.361492</ele>
<time>2026-07-14T11:39:32.000Z</time>
</trkpt>
<trkpt lat="57.034364" lon="8.482207">
<ele>18.361492</ele>
<time>2026-07-14T11:39:33.000Z</time>
</trkpt>
<trkpt lat="57.034341" lon="8.482225">
<ele>18.361492</ele>
<time>2026-07-14T11:39:34.000Z</time>
</trkpt>
<trkpt lat="57.034317" lon="8.482228">
<ele>18.361492</ele>
<time>2026-07-14T11:39:35.000Z</time>
</trkpt>
<trkpt lat="57.034294" lon="8.482217">
<ele>18.361492</ele>
<time>2026-07-14T11:39:36.000Z</time>
</trkpt>
<trkpt lat="57.034271" lon="8.482198">
<ele>18.361492</ele>
<time>2026-07-14T11:39:37.000Z</time>
</trkpt>
<trkpt lat="57.034246" lon="8.482178">
<ele>18.361492</ele>
<time>2026-07-14T11:39:38.000Z</time>
</trkpt>
<trkpt lat="57.034222" lon="8.482157">
<ele>18.361492</ele>
<time>2026-07-14T11:39:39.000Z</time>
</trkpt>
<trkpt lat="57.034199" lon="8.482132">
<ele>18.361492</ele>
<time>2026-07-14T11:39:40.000Z</time>
</trkpt>
<trkpt lat="57.034176" lon="8.482105">
<ele>18.361492</ele>
<time>2026-07-14T11:39:41.000Z</time>
</trkpt>
<trkpt lat="57.034155" lon="8.482081">
<ele>18.361492</ele>
<time>2026-07-14T11:39:42.000Z</time>
</trkpt>
<trkpt lat="57.034135" lon="8.482059">
<ele>18.361492</ele>
<time>2026-07-14T11:39:43.000Z</time>
</trkpt>
<trkpt lat="57.034118" lon="8.482039">
<ele>18.361492</ele>
<time>2026-07-14T11:39:44.000Z</time>
</trkpt>
<trkpt lat="57.034107" lon="8.482022">
<ele>18.361492</ele>
<time>2026-07-14T11:39:45.000Z</time>
</trkpt>
<trkpt lat="57.034098" lon="8.482004">
<ele>18.361492</ele>
<time>2026-07-14T11:39:46.000Z</time>
</trkpt>
<trkpt lat="57.034090" lon="8.481986">
<ele>18.361492</ele>
<time>2026-07-14T11:39:47.000Z</time>
</trkpt>
<trkpt lat="57.034084" lon="8.481973">
<ele>18.361492</ele>
<time>2026-07-14T11:39:48.000Z</time>
</trkpt>
<trkpt lat="57.034079" lon="8.481969">
<ele>18.361492</ele>
<time>2026-07-14T11:39:49.000Z</time>
</trkpt>
<trkpt lat="57.034084" lon="8.481936">
<ele>18.361492</ele>
<time>2026-07-14T11:39:59.000Z</time>
</trkpt>
<trkpt lat="57.034090" lon="8.481920">
<ele>18.361492</ele>
<time>2026-07-14T11:40:00.000Z</time>
</trkpt>
<trkpt lat="57.034098" lon="8.481906">
<ele>18.361492</ele>
<time>2026-07-14T11:40:01.000Z</time>
</trkpt>
<trkpt lat="57.034103" lon="8.481896">
<ele>18.361492</ele>
<time>2026-07-14T11:40:02.000Z</time>
</trkpt>
<trkpt lat="57.034109" lon="8.481886">
<ele>18.361492</ele>
<time>2026-07-14T11:40:03.000Z</time>
</trkpt>
<trkpt lat="57.034117" lon="8.481876">
<ele>18.361492</ele>
<time>2026-07-14T11:40:04.000Z</time>
</trkpt>
<trkpt lat="57.034122" lon="8.481869">
<ele>18.361492</ele>
<time>2026-07-14T11:40:05.000Z</time>
</trkpt>
<trkpt lat="57.034128" lon="8.481866">
<ele>18.361492</ele>
<time>2026-07-14T11:40:06.000Z</time>
</trkpt>
<trkpt lat="57.034134" lon="8.481864">
<ele>18.361492</ele>
<time>2026-07-14T11:40:07.000Z</time>
</trkpt>
<trkpt lat="57.034140" lon="8.481863">
<ele>18.361492</ele>
<time>2026-07-14T11:40:08.000Z</time>
</trkpt>
<trkpt lat="57.034144" lon="8.481864">
<ele>18.361492</ele>
<time>2026-07-14T11:40:09.000Z</time>
</trkpt>
<trkpt lat="57.034143" lon="8.481867">
<ele>18.361492</ele>
<time>2026-07-14T11:40:10.000Z</time>
</trkpt>
<trkpt lat="57.034143" lon="8.481869">
<ele>18.361492</ele>
<time>2026-07-14T11:40:11.000Z</time>
</trkpt>
<trkpt lat="57.034176" lon="8.481790">
<ele>18.361492</ele>
<time>2026-07-14T11:40:46.000Z</time>
</trkpt>
<trkpt lat="57.034174" lon="8.481803">
<ele>18.361492</ele>
<time>2026-07-14T11:40:47.000Z</time>
</trkpt>
<trkpt lat="57.034170" lon="8.481820">
<ele>18.361492</ele>
<time>2026-07-14T11:40:48.000Z</time>
</trkpt>
<trkpt lat="57.034168" lon="8.481836">
<ele>18.361492</ele>
<time>2026-07-14T11:40:49.000Z</time>
</trkpt>
<trkpt lat="57.034168" lon="8.481851">
<ele>18.361492</ele>
<time>2026-07-14T11:40:50.000Z</time>
</trkpt>
<trkpt lat="57.034170" lon="8.481866">
<ele>18.361492</ele>
<time>2026-07-14T11:40:51.000Z</time>
</trkpt>
<trkpt lat="57.034176" lon="8.481880">
<ele>18.361492</ele>
<time>2026-07-14T11:40:52.000Z</time>
</trkpt>
<trkpt lat="57.034182" lon="8.481892">
<ele>18.361492</ele>
<time>2026-07-14T11:40:53.000Z</time>
</trkpt>
<trkpt lat="57.034187" lon="8.481900">
<ele>18.361492</ele>
<time>2026-07-14T11:40:54.000Z</time>
</trkpt>
<trkpt lat="57.034193" lon="8.481908">
<ele>18.361492</ele>
<time>2026-07-14T11:40:55.000Z</time>
</trkpt>
<trkpt lat="57.034199" lon="8.481918">
<ele>18.361492</ele>
<time>2026-07-14T11:40:56.000Z</time>
</trkpt>
<trkpt lat="57.034205" lon="8.481929">
<ele>18.361492</ele>
<time>2026-07-14T11:40:57.000Z</time>
</trkpt>
<trkpt lat="57.034208" lon="8.481941">
<ele>18.361492</ele>
<time>2026-07-14T11:40:58.000Z</time>
</trkpt>
<trkpt lat="57.034209" lon="8.481947">
<ele>18.361492</ele>
<time>2026-07-14T11:40:59.000Z</time>
</trkpt>
<trkpt lat="57.034206" lon="8.481941">
<ele>18.361492</ele>
<time>2026-07-14T11:41:00.000Z</time>
</trkpt>
<trkpt lat="57.034202" lon="8.481925">
<ele>18.361492</ele>
<time>2026-07-14T11:41:01.000Z</time>
</trkpt>
<trkpt lat="57.034197" lon="8.481915">
<ele>18.361492</ele>
<time>2026-07-14T11:41:02.000Z</time>
</trkpt>
<trkpt lat="57.034193" lon="8.481903">
<ele>18.361492</ele>
<time>2026-07-14T11:41:03.000Z</time>
</trkpt>
<trkpt lat="57.034189" lon="8.481892">
<ele>18.361492</ele>
<time>2026-07-14T11:41:04.000Z</time>
</trkpt>
<trkpt lat="57.034185" lon="8.481881">
<ele>18.361492</ele>
<time>2026-07-14T11:41:05.000Z</time>
</trkpt>
<trkpt lat="57.034184" lon="8.481869">
<ele>18.361492</ele>
<time>2026-07-14T11:41:06.000Z</time>
</trkpt>
<trkpt lat="57.034182" lon="8.481856">
<ele>18.361492</ele>
<time>2026-07-14T11:41:07.000Z</time>
</trkpt>
<trkpt lat="57.034178" lon="8.481844">
<ele>18.361492</ele>
<time>2026-07-14T11:41:08.000Z</time>
</trkpt>
<trkpt lat="57.034176" lon="8.481834">
<ele>18.361492</ele>
<time>2026-07-14T11:41:09.000Z</time>
</trkpt>
<trkpt lat="57.034178" lon="8.481827">
<ele>18.361492</ele>
<time>2026-07-14T11:41:10.000Z</time>
</trkpt>
<trkpt lat="57.034182" lon="8.481825">
<ele>18.361492</ele>
<time>2026-07-14T11:41:11.000Z</time>
</trkpt>
<trkpt lat="57.034185" lon="8.481820">
<ele>18.361492</ele>
<time>2026-07-14T11:41:12.000Z</time>
</trkpt>
<trkpt lat="57.034187" lon="8.481813">
<ele>18.361492</ele>
<time>2026-07-14T11:41:13.000Z</time>
</trkpt>
</trkseg>
</trk>
</gpx>